<?xml version="1.0" encoding="UTF-8" standalone="no" ?>
<gpx xmlns="http://www.topografix.com/GPX/1/1" xmlns:xsi="http://www.w3.org/2001/XMLSchema-instance" xsi:schemaLocation="http://www.topografix.com/GPX/1/1 http://www.topografix.com/GPX/1/1/gpx.xsd" version="1.1" creator="VisuGPX - https://www.visugpx.com">
  <metadata>
    <name>Tour des Cevennes J3 de Saint Jean du Gar à Grenoble</name>
    <desc><![CDATA[Tour des Cevennes en trois jours depuis Grenoble]]></desc>
  </metadata>
  <wpt lat="45.19214" lon="5.71246">
    <ele>195.96</ele>
    <name><![CDATA[0000253]]></name>
    <type><![CDATA[Point de départ]]></type>
  </wpt>
  <wpt lat="44.47998" lon="4.2453">
    <ele>145.64</ele>
    <name><![CDATA[0000254]]></name>
    <desc><![CDATA[<p><br /><h3>Nom: Segment: 1</h3><br />Heure de départ: 09/21/2018 17:05<br/>Heure d'arrivée: 09/21/2018 20:00<br/>Distance: 189,4km (02:54)<br/>Temps déplacement: 02:16<br/>Vitesse moyenne: 64,98 km/h<br/>Vitesse moyenne mouv.: 81,77 km/h<br/>Vitesse Max.: 148,15 km/h<br/>Altitude minimale: 86 m<br/>Altitude maximale: 782 m<br/>Vitesse de montée: 969,6 m/h<br/>Vitesse de descente: -1566,3 m/h<br/>Gain d'altitude: 1463 m<br/>Perte d'altitude: -1508 m<br/>Temps de montée: 01:30<br/>Temps de descente: 00:57<br/></p>]]></desc>
    <type><![CDATA[Point d'arrivée]]></type>
  </wpt>
  <trk>
    <name><![CDATA[2018-09-21 17:05]]></name>
    <desc><![CDATA[<p>Heure de départ: 09/21/2018 17:05<br/>Heure d'arrivée: 09/21/2018 20:00<br/>Distance: 189,4 km (02:54)<br/>Temps déplacement: 02:16<br/>Vitesse moyenne: 64,98 km/h<br/>Vitesse moyenne mouv.: 83,45 km/h<br/>Vitesse Max.: 148,15 km/h<br/>Altitude minimale: 86 m<br/>Altitude maximale: 782 m<br/>Vitesse de montée: 785,3 m/h<br/>Vitesse de descente: -969,8 m/h<br/>Gain d'altitude: 1110 m<br/>Perte d'altitude: -1185 m<br/>Temps de montée: 01:24<br/>Temps de descente: 01:13<br/></p><hr align="center" width="480" style="height: 2px; width: 517px"/>]]></desc>
    <trkseg>
      <trkpt lat="45.19214" lon="5.71246">
        <ele>195.96</ele>
        <time>2018-09-21T15:05:08Z</time>
      </trkpt>
      <trkpt lat="45.19194" lon="5.71254">
        <ele>228.32</ele>
        <time>2018-09-21T15:09:16Z</time>
      </trkpt>
      <trkpt lat="45.19171" lon="5.71253">
        <ele>226.3</ele>
        <time>2018-09-21T15:09:20Z</time>
      </trkpt>
      <trkpt lat="45.19164" lon="5.71218">
        <ele>226.2</ele>
        <time>2018-09-21T15:09:23Z</time>
      </trkpt>
      <trkpt lat="45.1916" lon="5.71183">
        <ele>226.75</ele>
        <time>2018-09-21T15:09:26Z</time>
      </trkpt>
      <trkpt lat="45.19174" lon="5.71167">
        <ele>222.51</ele>
        <time>2018-09-21T15:09:29Z</time>
      </trkpt>
      <trkpt lat="45.19197" lon="5.71149">
        <ele>222</ele>
        <time>2018-09-21T15:09:32Z</time>
      </trkpt>
      <trkpt lat="45.19219" lon="5.71141">
        <ele>221.83</ele>
        <time>2018-09-21T15:09:34Z</time>
      </trkpt>
      <trkpt lat="45.19248" lon="5.71138">
        <ele>224.97</ele>
        <time>2018-09-21T15:09:36Z</time>
      </trkpt>
      <trkpt lat="45.19268" lon="5.71127">
        <ele>225.95</ele>
        <time>2018-09-21T15:09:38Z</time>
      </trkpt>
      <trkpt lat="45.19289" lon="5.7112">
        <ele>226.04</ele>
        <time>2018-09-21T15:09:40Z</time>
      </trkpt>
      <trkpt lat="45.1931" lon="5.71112">
        <ele>225.84</ele>
        <time>2018-09-21T15:09:42Z</time>
      </trkpt>
      <trkpt lat="45.19331" lon="5.71103">
        <ele>226.03</ele>
        <time>2018-09-21T15:09:44Z</time>
      </trkpt>
      <trkpt lat="45.19356" lon="5.71101">
        <ele>227.93</ele>
        <time>2018-09-21T15:09:47Z</time>
      </trkpt>
      <trkpt lat="45.19369" lon="5.71126">
        <ele>227.01</ele>
        <time>2018-09-21T15:09:50Z</time>
      </trkpt>
      <trkpt lat="45.19365" lon="5.71153">
        <ele>227.96</ele>
        <time>2018-09-21T15:09:53Z</time>
      </trkpt>
      <trkpt lat="45.19367" lon="5.71179">
        <ele>224.18</ele>
        <time>2018-09-21T15:09:58Z</time>
      </trkpt>
      <trkpt lat="45.19385" lon="5.71179">
        <ele>220.43</ele>
        <time>2018-09-21T15:10:07Z</time>
      </trkpt>
      <trkpt lat="45.19405" lon="5.71177">
        <ele>216.17</ele>
        <time>2018-09-21T15:10:13Z</time>
      </trkpt>
      <trkpt lat="45.19424" lon="5.71169">
        <ele>214.87</ele>
        <time>2018-09-21T15:10:16Z</time>
      </trkpt>
      <trkpt lat="45.1944" lon="5.71158">
        <ele>213.16</ele>
        <time>2018-09-21T15:10:19Z</time>
      </trkpt>
      <trkpt lat="45.19459" lon="5.71148">
        <ele>211.27</ele>
        <time>2018-09-21T15:10:24Z</time>
      </trkpt>
      <trkpt lat="45.19465" lon="5.71124">
        <ele>213.8</ele>
        <time>2018-09-21T15:10:30Z</time>
      </trkpt>
      <trkpt lat="45.1947" lon="5.71099">
        <ele>216.34</ele>
        <time>2018-09-21T15:10:49Z</time>
      </trkpt>
      <trkpt lat="45.19479" lon="5.71075">
        <ele>215.05</ele>
        <time>2018-09-21T15:10:59Z</time>
      </trkpt>
      <trkpt lat="45.19502" lon="5.71081">
        <ele>215.05</ele>
        <time>2018-09-21T15:11:04Z</time>
      </trkpt>
      <trkpt lat="45.1953" lon="5.71084">
        <ele>215.75</ele>
        <time>2018-09-21T15:11:07Z</time>
      </trkpt>
      <trkpt lat="45.19555" lon="5.71086">
        <ele>215.11</ele>
        <time>2018-09-21T15:11:09Z</time>
      </trkpt>
      <trkpt lat="45.19581" lon="5.71077">
        <ele>215.05</ele>
        <time>2018-09-21T15:11:11Z</time>
      </trkpt>
      <trkpt lat="45.19605" lon="5.71065">
        <ele>215.05</ele>
        <time>2018-09-21T15:11:13Z</time>
      </trkpt>
      <trkpt lat="45.19629" lon="5.71054">
        <ele>215.05</ele>
        <time>2018-09-21T15:11:15Z</time>
      </trkpt>
      <trkpt lat="45.19654" lon="5.71042">
        <ele>215.75</ele>
        <time>2018-09-21T15:11:17Z</time>
      </trkpt>
      <trkpt lat="45.19679" lon="5.71031">
        <ele>216.02</ele>
        <time>2018-09-21T15:11:19Z</time>
      </trkpt>
      <trkpt lat="45.197" lon="5.71022">
        <ele>216.05</ele>
        <time>2018-09-21T15:11:21Z</time>
      </trkpt>
      <trkpt lat="45.19723" lon="5.71012">
        <ele>216.05</ele>
        <time>2018-09-21T15:11:24Z</time>
      </trkpt>
      <trkpt lat="45.19745" lon="5.71001">
        <ele>216.05</ele>
        <time>2018-09-21T15:11:27Z</time>
      </trkpt>
      <trkpt lat="45.19763" lon="5.70992">
        <ele>217.02</ele>
        <time>2018-09-21T15:11:30Z</time>
      </trkpt>
      <trkpt lat="45.19781" lon="5.71001">
        <ele>216.06</ele>
        <time>2018-09-21T15:11:34Z</time>
      </trkpt>
      <trkpt lat="45.19803" lon="5.71003">
        <ele>215.06</ele>
        <time>2018-09-21T15:11:38Z</time>
      </trkpt>
      <trkpt lat="45.19822" lon="5.70991">
        <ele>215.05</ele>
        <time>2018-09-21T15:11:41Z</time>
      </trkpt>
      <trkpt lat="45.1984" lon="5.70972">
        <ele>216.02</ele>
        <time>2018-09-21T15:11:45Z</time>
      </trkpt>
      <trkpt lat="45.19856" lon="5.70954">
        <ele>217.04</ele>
        <time>2018-09-21T15:11:51Z</time>
      </trkpt>
      <trkpt lat="45.19869" lon="5.7093">
        <ele>218.04</ele>
        <time>2018-09-21T15:11:56Z</time>
      </trkpt>
      <trkpt lat="45.19885" lon="5.70907">
        <ele>218.05</ele>
        <time>2018-09-21T15:11:59Z</time>
      </trkpt>
      <trkpt lat="45.19904" lon="5.70881">
        <ele>218.05</ele>
        <time>2018-09-21T15:12:02Z</time>
      </trkpt>
      <trkpt lat="45.19918" lon="5.70862">
        <ele>218.26</ele>
        <time>2018-09-21T15:12:04Z</time>
      </trkpt>
      <trkpt lat="45.19934" lon="5.70842">
        <ele>218.77</ele>
        <time>2018-09-21T15:12:06Z</time>
      </trkpt>
      <trkpt lat="45.19949" lon="5.70823">
        <ele>218.11</ele>
        <time>2018-09-21T15:12:08Z</time>
      </trkpt>
      <trkpt lat="45.19965" lon="5.70803">
        <ele>217.14</ele>
        <time>2018-09-21T15:12:10Z</time>
      </trkpt>
      <trkpt lat="45.19981" lon="5.70782">
        <ele>216.15</ele>
        <time>2018-09-21T15:12:12Z</time>
      </trkpt>
      <trkpt lat="45.19998" lon="5.70761">
        <ele>215.36</ele>
        <time>2018-09-21T15:12:14Z</time>
      </trkpt>
      <trkpt lat="45.20014" lon="5.70741">
        <ele>215.08</ele>
        <time>2018-09-21T15:12:16Z</time>
      </trkpt>
      <trkpt lat="45.2003" lon="5.70721">
        <ele>215.05</ele>
        <time>2018-09-21T15:12:18Z</time>
      </trkpt>
      <trkpt lat="45.20046" lon="5.70701">
        <ele>215.05</ele>
        <time>2018-09-21T15:12:20Z</time>
      </trkpt>
      <trkpt lat="45.20062" lon="5.70679">
        <ele>215.05</ele>
        <time>2018-09-21T15:12:22Z</time>
      </trkpt>
      <trkpt lat="45.20078" lon="5.70657">
        <ele>215.05</ele>
        <time>2018-09-21T15:12:24Z</time>
      </trkpt>
      <trkpt lat="45.20095" lon="5.70636">
        <ele>214.35</ele>
        <time>2018-09-21T15:12:26Z</time>
      </trkpt>
      <trkpt lat="45.20111" lon="5.70614">
        <ele>214.78</ele>
        <time>2018-09-21T15:12:28Z</time>
      </trkpt>
      <trkpt lat="45.20129" lon="5.70594">
        <ele>215.72</ele>
        <time>2018-09-21T15:12:30Z</time>
      </trkpt>
      <trkpt lat="45.20145" lon="5.70573">
        <ele>215.32</ele>
        <time>2018-09-21T15:12:32Z</time>
      </trkpt>
      <trkpt lat="45.2016" lon="5.70551">
        <ele>214.37</ele>
        <time>2018-09-21T15:12:34Z</time>
      </trkpt>
      <trkpt lat="45.20177" lon="5.70531">
        <ele>213.87</ele>
        <time>2018-09-21T15:12:36Z</time>
      </trkpt>
      <trkpt lat="45.20192" lon="5.7051">
        <ele>213.33</ele>
        <time>2018-09-21T15:12:38Z</time>
      </trkpt>
      <trkpt lat="45.20207" lon="5.70491">
        <ele>212.16</ele>
        <time>2018-09-21T15:12:40Z</time>
      </trkpt>
      <trkpt lat="45.20225" lon="5.70466">
        <ele>213.03</ele>
        <time>2018-09-21T15:12:43Z</time>
      </trkpt>
      <trkpt lat="45.20241" lon="5.70452">
        <ele>215.53</ele>
        <time>2018-09-21T15:13:06Z</time>
      </trkpt>
      <trkpt lat="45.20259" lon="5.7043">
        <ele>216.04</ele>
        <time>2018-09-21T15:13:10Z</time>
      </trkpt>
      <trkpt lat="45.20275" lon="5.70403">
        <ele>215.14</ele>
        <time>2018-09-21T15:13:13Z</time>
      </trkpt>
      <trkpt lat="45.20291" lon="5.70384">
        <ele>215.06</ele>
        <time>2018-09-21T15:13:15Z</time>
      </trkpt>
      <trkpt lat="45.20307" lon="5.70361">
        <ele>214.14</ele>
        <time>2018-09-21T15:13:17Z</time>
      </trkpt>
      <trkpt lat="45.20323" lon="5.70339">
        <ele>214.06</ele>
        <time>2018-09-21T15:13:19Z</time>
      </trkpt>
      <trkpt lat="45.20337" lon="5.7032">
        <ele>214.75</ele>
        <time>2018-09-21T15:13:21Z</time>
      </trkpt>
      <trkpt lat="45.20356" lon="5.70295">
        <ele>215.04</ele>
        <time>2018-09-21T15:13:24Z</time>
      </trkpt>
      <trkpt lat="45.20375" lon="5.70269">
        <ele>214.78</ele>
        <time>2018-09-21T15:13:27Z</time>
      </trkpt>
      <trkpt lat="45.20389" lon="5.7025">
        <ele>215.72</ele>
        <time>2018-09-21T15:13:29Z</time>
      </trkpt>
      <trkpt lat="45.20404" lon="5.70231">
        <ele>215.11</ele>
        <time>2018-09-21T15:13:31Z</time>
      </trkpt>
      <trkpt lat="45.20419" lon="5.70212">
        <ele>215.05</ele>
        <time>2018-09-21T15:13:33Z</time>
      </trkpt>
      <trkpt lat="45.20437" lon="5.70188">
        <ele>214.35</ele>
        <time>2018-09-21T15:13:36Z</time>
      </trkpt>
      <trkpt lat="45.20452" lon="5.70168">
        <ele>213.15</ele>
        <time>2018-09-21T15:13:39Z</time>
      </trkpt>
      <trkpt lat="45.20466" lon="5.70149">
        <ele>213.05</ele>
        <time>2018-09-21T15:13:42Z</time>
      </trkpt>
      <trkpt lat="45.20481" lon="5.70129">
        <ele>213.05</ele>
        <time>2018-09-21T15:13:46Z</time>
      </trkpt>
      <trkpt lat="45.20495" lon="5.70112">
        <ele>211.65</ele>
        <time>2018-09-21T15:13:53Z</time>
      </trkpt>
      <trkpt lat="45.2051" lon="5.70098">
        <ele>211.35</ele>
        <time>2018-09-21T15:15:04Z</time>
      </trkpt>
      <trkpt lat="45.20527" lon="5.70114">
        <ele>211.06</ele>
        <time>2018-09-21T15:15:07Z</time>
      </trkpt>
      <trkpt lat="45.20554" lon="5.70123">
        <ele>211.75</ele>
        <time>2018-09-21T15:15:10Z</time>
      </trkpt>
      <trkpt lat="45.20575" lon="5.70129">
        <ele>212.02</ele>
        <time>2018-09-21T15:15:12Z</time>
      </trkpt>
      <trkpt lat="45.20599" lon="5.70136">
        <ele>212.75</ele>
        <time>2018-09-21T15:15:14Z</time>
      </trkpt>
      <trkpt lat="45.20623" lon="5.70144">
        <ele>213.93</ele>
        <time>2018-09-21T15:15:16Z</time>
      </trkpt>
      <trkpt lat="45.20646" lon="5.70156">
        <ele>214.04</ele>
        <time>2018-09-21T15:15:18Z</time>
      </trkpt>
      <trkpt lat="45.20669" lon="5.70169">
        <ele>215.66</ele>
        <time>2018-09-21T15:15:20Z</time>
      </trkpt>
      <trkpt lat="45.20691" lon="5.70182">
        <ele>216.92</ele>
        <time>2018-09-21T15:15:22Z</time>
      </trkpt>
      <trkpt lat="45.2071" lon="5.70191">
        <ele>217.04</ele>
        <time>2018-09-21T15:15:24Z</time>
      </trkpt>
      <trkpt lat="45.20731" lon="5.70201">
        <ele>217.05</ele>
        <time>2018-09-21T15:15:27Z</time>
      </trkpt>
      <trkpt lat="45.20751" lon="5.7021">
        <ele>217.05</ele>
        <time>2018-09-21T15:15:30Z</time>
      </trkpt>
      <trkpt lat="45.2077" lon="5.70222">
        <ele>215.43</ele>
        <time>2018-09-21T15:15:35Z</time>
      </trkpt>
      <trkpt lat="45.20791" lon="5.70235">
        <ele>215.14</ele>
        <time>2018-09-21T15:15:42Z</time>
      </trkpt>
      <trkpt lat="45.20811" lon="5.70245">
        <ele>214.08</ele>
        <time>2018-09-21T15:15:45Z</time>
      </trkpt>
      <trkpt lat="45.20834" lon="5.70255">
        <ele>212.17</ele>
        <time>2018-09-21T15:15:48Z</time>
      </trkpt>
      <trkpt lat="45.20859" lon="5.70256">
        <ele>211.78</ele>
        <time>2018-09-21T15:15:51Z</time>
      </trkpt>
      <trkpt lat="45.20875" lon="5.7023">
        <ele>211.11</ele>
        <time>2018-09-21T15:15:53Z</time>
      </trkpt>
      <trkpt lat="45.20885" lon="5.702">
        <ele>211.05</ele>
        <time>2018-09-21T15:15:55Z</time>
      </trkpt>
      <trkpt lat="45.20895" lon="5.70167">
        <ele>211.05</ele>
        <time>2018-09-21T15:15:57Z</time>
      </trkpt>
      <trkpt lat="45.20906" lon="5.70131">
        <ele>211.96</ele>
        <time>2018-09-21T15:15:59Z</time>
      </trkpt>
      <trkpt lat="45.20917" lon="5.70095">
        <ele>212.04</ele>
        <time>2018-09-21T15:16:01Z</time>
      </trkpt>
      <trkpt lat="45.20928" lon="5.70059">
        <ele>212.75</ele>
        <time>2018-09-21T15:16:03Z</time>
      </trkpt>
      <trkpt lat="45.20941" lon="5.70017">
        <ele>211.41</ele>
        <time>2018-09-21T15:16:05Z</time>
      </trkpt>
      <trkpt lat="45.20956" lon="5.69971">
        <ele>211.29</ele>
        <time>2018-09-21T15:16:07Z</time>
      </trkpt>
      <trkpt lat="45.20964" lon="5.69948">
        <ele>211.12</ele>
        <time>2018-09-21T15:16:08Z</time>
      </trkpt>
      <trkpt lat="45.20971" lon="5.69924">
        <ele>211.07</ele>
        <time>2018-09-21T15:16:09Z</time>
      </trkpt>
      <trkpt lat="45.20985" lon="5.69877">
        <ele>211.05</ele>
        <time>2018-09-21T15:16:11Z</time>
      </trkpt>
      <trkpt lat="45.20994" lon="5.69853">
        <ele>211.05</ele>
        <time>2018-09-21T15:16:12Z</time>
      </trkpt>
      <trkpt lat="45.21002" lon="5.69828">
        <ele>211.05</ele>
        <time>2018-09-21T15:16:13Z</time>
      </trkpt>
      <trkpt lat="45.21011" lon="5.69802">
        <ele>211.05</ele>
        <time>2018-09-21T15:16:14Z</time>
      </trkpt>
      <trkpt lat="45.2102" lon="5.69774">
        <ele>211.05</ele>
        <time>2018-09-21T15:16:15Z</time>
      </trkpt>
      <trkpt lat="45.21029" lon="5.69746">
        <ele>211.05</ele>
        <time>2018-09-21T15:16:16Z</time>
      </trkpt>
      <trkpt lat="45.21038" lon="5.69718">
        <ele>211.05</ele>
        <time>2018-09-21T15:16:17Z</time>
      </trkpt>
      <trkpt lat="45.21047" lon="5.69688">
        <ele>211.05</ele>
        <time>2018-09-21T15:16:18Z</time>
      </trkpt>
      <trkpt lat="45.21055" lon="5.69658">
        <ele>210.35</ele>
        <time>2018-09-21T15:16:19Z</time>
      </trkpt>
      <trkpt lat="45.21063" lon="5.69628">
        <ele>210.14</ele>
        <time>2018-09-21T15:16:20Z</time>
      </trkpt>
      <trkpt lat="45.21071" lon="5.69598">
        <ele>210.08</ele>
        <time>2018-09-21T15:16:21Z</time>
      </trkpt>
      <trkpt lat="45.21079" lon="5.69569">
        <ele>210.06</ele>
        <time>2018-09-21T15:16:22Z</time>
      </trkpt>
      <trkpt lat="45.21087" lon="5.6954">
        <ele>210.05</ele>
        <time>2018-09-21T15:16:23Z</time>
      </trkpt>
      <trkpt lat="45.21095" lon="5.69512">
        <ele>210.05</ele>
        <time>2018-09-21T15:16:24Z</time>
      </trkpt>
      <trkpt lat="45.21102" lon="5.69484">
        <ele>209.35</ele>
        <time>2018-09-21T15:16:25Z</time>
      </trkpt>
      <trkpt lat="45.21109" lon="5.69458">
        <ele>208.44</ele>
        <time>2018-09-21T15:16:26Z</time>
      </trkpt>
      <trkpt lat="45.21116" lon="5.6943">
        <ele>208.17</ele>
        <time>2018-09-21T15:16:27Z</time>
      </trkpt>
      <trkpt lat="45.21123" lon="5.69402">
        <ele>208.08</ele>
        <time>2018-09-21T15:16:28Z</time>
      </trkpt>
      <trkpt lat="45.21129" lon="5.69372">
        <ele>208.06</ele>
        <time>2018-09-21T15:16:29Z</time>
      </trkpt>
      <trkpt lat="45.21136" lon="5.69341">
        <ele>208.05</ele>
        <time>2018-09-21T15:16:30Z</time>
      </trkpt>
      <trkpt lat="45.21143" lon="5.6931">
        <ele>208.05</ele>
        <time>2018-09-21T15:16:31Z</time>
      </trkpt>
      <trkpt lat="45.2115" lon="5.69279">
        <ele>208.05</ele>
        <time>2018-09-21T15:16:32Z</time>
      </trkpt>
      <trkpt lat="45.21156" lon="5.69248">
        <ele>208.05</ele>
        <time>2018-09-21T15:16:33Z</time>
      </trkpt>
      <trkpt lat="45.21163" lon="5.69216">
        <ele>208.75</ele>
        <time>2018-09-21T15:16:34Z</time>
      </trkpt>
      <trkpt lat="45.21169" lon="5.69185">
        <ele>208.96</ele>
        <time>2018-09-21T15:16:35Z</time>
      </trkpt>
      <trkpt lat="45.21176" lon="5.69153">
        <ele>209.02</ele>
        <time>2018-09-21T15:16:36Z</time>
      </trkpt>
      <trkpt lat="45.21183" lon="5.69122">
        <ele>209.04</ele>
        <time>2018-09-21T15:16:37Z</time>
      </trkpt>
      <trkpt lat="45.21188" lon="5.6909">
        <ele>209.05</ele>
        <time>2018-09-21T15:16:38Z</time>
      </trkpt>
      <trkpt lat="45.21195" lon="5.69059">
        <ele>209.05</ele>
        <time>2018-09-21T15:16:39Z</time>
      </trkpt>
      <trkpt lat="45.21201" lon="5.69028">
        <ele>209.05</ele>
        <time>2018-09-21T15:16:40Z</time>
      </trkpt>
      <trkpt lat="45.21208" lon="5.68998">
        <ele>208.35</ele>
        <time>2018-09-21T15:16:41Z</time>
      </trkpt>
      <trkpt lat="45.21215" lon="5.68967">
        <ele>208.14</ele>
        <time>2018-09-21T15:16:42Z</time>
      </trkpt>
      <trkpt lat="45.21222" lon="5.68937">
        <ele>208.08</ele>
        <time>2018-09-21T15:16:43Z</time>
      </trkpt>
      <trkpt lat="45.2123" lon="5.68906">
        <ele>208.06</ele>
        <time>2018-09-21T15:16:44Z</time>
      </trkpt>
      <trkpt lat="45.21237" lon="5.68875">
        <ele>208.05</ele>
        <time>2018-09-21T15:16:45Z</time>
      </trkpt>
      <trkpt lat="45.21246" lon="5.68844">
        <ele>208.05</ele>
        <time>2018-09-21T15:16:46Z</time>
      </trkpt>
      <trkpt lat="45.21254" lon="5.68814">
        <ele>208.05</ele>
        <time>2018-09-21T15:16:47Z</time>
      </trkpt>
      <trkpt lat="45.21263" lon="5.68784">
        <ele>208.05</ele>
        <time>2018-09-21T15:16:48Z</time>
      </trkpt>
      <trkpt lat="45.21272" lon="5.68755">
        <ele>208.05</ele>
        <time>2018-09-21T15:16:49Z</time>
      </trkpt>
      <trkpt lat="45.21282" lon="5.68725">
        <ele>207.35</ele>
        <time>2018-09-21T15:16:50Z</time>
      </trkpt>
      <trkpt lat="45.21291" lon="5.68697">
        <ele>207.14</ele>
        <time>2018-09-21T15:16:51Z</time>
      </trkpt>
      <trkpt lat="45.213" lon="5.68669">
        <ele>207.08</ele>
        <time>2018-09-21T15:16:52Z</time>
      </trkpt>
      <trkpt lat="45.2131" lon="5.68642">
        <ele>207.06</ele>
        <time>2018-09-21T15:16:53Z</time>
      </trkpt>
      <trkpt lat="45.21321" lon="5.68615">
        <ele>207.75</ele>
        <time>2018-09-21T15:16:54Z</time>
      </trkpt>
      <trkpt lat="45.21331" lon="5.68589">
        <ele>207.96</ele>
        <time>2018-09-21T15:16:55Z</time>
      </trkpt>
      <trkpt lat="45.21343" lon="5.68562">
        <ele>208.02</ele>
        <time>2018-09-21T15:16:56Z</time>
      </trkpt>
      <trkpt lat="45.21354" lon="5.68535">
        <ele>208.04</ele>
        <time>2018-09-21T15:16:57Z</time>
      </trkpt>
      <trkpt lat="45.21365" lon="5.68509">
        <ele>208.05</ele>
        <time>2018-09-21T15:16:58Z</time>
      </trkpt>
      <trkpt lat="45.21377" lon="5.68482">
        <ele>208.05</ele>
        <time>2018-09-21T15:16:59Z</time>
      </trkpt>
      <trkpt lat="45.21389" lon="5.68454">
        <ele>208.05</ele>
        <time>2018-09-21T15:17:00Z</time>
      </trkpt>
      <trkpt lat="45.21402" lon="5.68427">
        <ele>208.05</ele>
        <time>2018-09-21T15:17:01Z</time>
      </trkpt>
      <trkpt lat="45.21414" lon="5.684">
        <ele>208.05</ele>
        <time>2018-09-21T15:17:02Z</time>
      </trkpt>
      <trkpt lat="45.21426" lon="5.68374">
        <ele>208.05</ele>
        <time>2018-09-21T15:17:03Z</time>
      </trkpt>
      <trkpt lat="45.21438" lon="5.68348">
        <ele>208.05</ele>
        <time>2018-09-21T15:17:04Z</time>
      </trkpt>
      <trkpt lat="45.2145" lon="5.68322">
        <ele>208.05</ele>
        <time>2018-09-21T15:17:05Z</time>
      </trkpt>
      <trkpt lat="45.21462" lon="5.68295">
        <ele>208.05</ele>
        <time>2018-09-21T15:17:06Z</time>
      </trkpt>
      <trkpt lat="45.21474" lon="5.68268">
        <ele>208.05</ele>
        <time>2018-09-21T15:17:07Z</time>
      </trkpt>
      <trkpt lat="45.21487" lon="5.68242">
        <ele>207.35</ele>
        <time>2018-09-21T15:17:08Z</time>
      </trkpt>
      <trkpt lat="45.21499" lon="5.68215">
        <ele>207.14</ele>
        <time>2018-09-21T15:17:09Z</time>
      </trkpt>
      <trkpt lat="45.21512" lon="5.68188">
        <ele>207.08</ele>
        <time>2018-09-21T15:17:10Z</time>
      </trkpt>
      <trkpt lat="45.21524" lon="5.6816">
        <ele>206.36</ele>
        <time>2018-09-21T15:17:11Z</time>
      </trkpt>
      <trkpt lat="45.21537" lon="5.68132">
        <ele>206.14</ele>
        <time>2018-09-21T15:17:12Z</time>
      </trkpt>
      <trkpt lat="45.2155" lon="5.68105">
        <ele>206.08</ele>
        <time>2018-09-21T15:17:13Z</time>
      </trkpt>
      <trkpt lat="45.21563" lon="5.68077">
        <ele>206.06</ele>
        <time>2018-09-21T15:17:14Z</time>
      </trkpt>
      <trkpt lat="45.21576" lon="5.6805">
        <ele>206.05</ele>
        <time>2018-09-21T15:17:15Z</time>
      </trkpt>
      <trkpt lat="45.21589" lon="5.68023">
        <ele>206.05</ele>
        <time>2018-09-21T15:17:16Z</time>
      </trkpt>
      <trkpt lat="45.21602" lon="5.67996">
        <ele>206.05</ele>
        <time>2018-09-21T15:17:17Z</time>
      </trkpt>
      <trkpt lat="45.21615" lon="5.67968">
        <ele>206.05</ele>
        <time>2018-09-21T15:17:18Z</time>
      </trkpt>
      <trkpt lat="45.21629" lon="5.6794">
        <ele>206.05</ele>
        <time>2018-09-21T15:17:19Z</time>
      </trkpt>
      <trkpt lat="45.21642" lon="5.67912">
        <ele>206.05</ele>
        <time>2018-09-21T15:17:20Z</time>
      </trkpt>
      <trkpt lat="45.21656" lon="5.67883">
        <ele>206.75</ele>
        <time>2018-09-21T15:17:21Z</time>
      </trkpt>
      <trkpt lat="45.2167" lon="5.67854">
        <ele>206.96</ele>
        <time>2018-09-21T15:17:22Z</time>
      </trkpt>
      <trkpt lat="45.21685" lon="5.67825">
        <ele>207.02</ele>
        <time>2018-09-21T15:17:23Z</time>
      </trkpt>
      <trkpt lat="45.217" lon="5.67796">
        <ele>207.04</ele>
        <time>2018-09-21T15:17:24Z</time>
      </trkpt>
      <trkpt lat="45.21715" lon="5.67767">
        <ele>207.05</ele>
        <time>2018-09-21T15:17:25Z</time>
      </trkpt>
      <trkpt lat="45.21731" lon="5.67739">
        <ele>207.05</ele>
        <time>2018-09-21T15:17:26Z</time>
      </trkpt>
      <trkpt lat="45.21747" lon="5.6771">
        <ele>207.05</ele>
        <time>2018-09-21T15:17:27Z</time>
      </trkpt>
      <trkpt lat="45.21764" lon="5.67681">
        <ele>207.75</ele>
        <time>2018-09-21T15:17:28Z</time>
      </trkpt>
      <trkpt lat="45.21781" lon="5.67652">
        <ele>207.96</ele>
        <time>2018-09-21T15:17:29Z</time>
      </trkpt>
      <trkpt lat="45.21799" lon="5.67625">
        <ele>208.02</ele>
        <time>2018-09-21T15:17:30Z</time>
      </trkpt>
      <trkpt lat="45.21817" lon="5.67597">
        <ele>208.04</ele>
        <time>2018-09-21T15:17:31Z</time>
      </trkpt>
      <trkpt lat="45.21836" lon="5.67571">
        <ele>208.05</ele>
        <time>2018-09-21T15:17:32Z</time>
      </trkpt>
      <trkpt lat="45.21854" lon="5.67544">
        <ele>207.35</ele>
        <time>2018-09-21T15:17:33Z</time>
      </trkpt>
      <trkpt lat="45.21873" lon="5.67518">
        <ele>207.14</ele>
        <time>2018-09-21T15:17:34Z</time>
      </trkpt>
      <trkpt lat="45.21892" lon="5.67493">
        <ele>207.08</ele>
        <time>2018-09-21T15:17:35Z</time>
      </trkpt>
      <trkpt lat="45.21911" lon="5.67469">
        <ele>207.06</ele>
        <time>2018-09-21T15:17:36Z</time>
      </trkpt>
      <trkpt lat="45.21931" lon="5.67445">
        <ele>207.05</ele>
        <time>2018-09-21T15:17:37Z</time>
      </trkpt>
      <trkpt lat="45.21951" lon="5.67422">
        <ele>207.05</ele>
        <time>2018-09-21T15:17:38Z</time>
      </trkpt>
      <trkpt lat="45.21972" lon="5.674">
        <ele>207.05</ele>
        <time>2018-09-21T15:17:39Z</time>
      </trkpt>
      <trkpt lat="45.21992" lon="5.67378">
        <ele>207.05</ele>
        <time>2018-09-21T15:17:40Z</time>
      </trkpt>
      <trkpt lat="45.22012" lon="5.67357">
        <ele>207.05</ele>
        <time>2018-09-21T15:17:41Z</time>
      </trkpt>
      <trkpt lat="45.22034" lon="5.67337">
        <ele>207.05</ele>
        <time>2018-09-21T15:17:42Z</time>
      </trkpt>
      <trkpt lat="45.22055" lon="5.67318">
        <ele>206.35</ele>
        <time>2018-09-21T15:17:43Z</time>
      </trkpt>
      <trkpt lat="45.22077" lon="5.67299">
        <ele>206.14</ele>
        <time>2018-09-21T15:17:44Z</time>
      </trkpt>
      <trkpt lat="45.22099" lon="5.67281">
        <ele>206.08</ele>
        <time>2018-09-21T15:17:45Z</time>
      </trkpt>
      <trkpt lat="45.22121" lon="5.67263">
        <ele>206.06</ele>
        <time>2018-09-21T15:17:46Z</time>
      </trkpt>
      <trkpt lat="45.22144" lon="5.67245">
        <ele>206.05</ele>
        <time>2018-09-21T15:17:47Z</time>
      </trkpt>
      <trkpt lat="45.22166" lon="5.67227">
        <ele>206.05</ele>
        <time>2018-09-21T15:17:48Z</time>
      </trkpt>
      <trkpt lat="45.22189" lon="5.6721">
        <ele>206.05</ele>
        <time>2018-09-21T15:17:49Z</time>
      </trkpt>
      <trkpt lat="45.22211" lon="5.67193">
        <ele>206.05</ele>
        <time>2018-09-21T15:17:50Z</time>
      </trkpt>
      <trkpt lat="45.22234" lon="5.67177">
        <ele>206.05</ele>
        <time>2018-09-21T15:17:51Z</time>
      </trkpt>
      <trkpt lat="45.22256" lon="5.67159">
        <ele>206.75</ele>
        <time>2018-09-21T15:17:52Z</time>
      </trkpt>
      <trkpt lat="45.22279" lon="5.67143">
        <ele>206.96</ele>
        <time>2018-09-21T15:17:53Z</time>
      </trkpt>
      <trkpt lat="45.22301" lon="5.67126">
        <ele>207.72</ele>
        <time>2018-09-21T15:17:54Z</time>
      </trkpt>
      <trkpt lat="45.22323" lon="5.67109">
        <ele>207.95</ele>
        <time>2018-09-21T15:17:55Z</time>
      </trkpt>
      <trkpt lat="45.22346" lon="5.67092">
        <ele>208.02</ele>
        <time>2018-09-21T15:17:56Z</time>
      </trkpt>
      <trkpt lat="45.22368" lon="5.67074">
        <ele>208.04</ele>
        <time>2018-09-21T15:17:57Z</time>
      </trkpt>
      <trkpt lat="45.22391" lon="5.67057">
        <ele>208.75</ele>
        <time>2018-09-21T15:17:58Z</time>
      </trkpt>
      <trkpt lat="45.22413" lon="5.6704">
        <ele>208.26</ele>
        <time>2018-09-21T15:17:59Z</time>
      </trkpt>
      <trkpt lat="45.22436" lon="5.67024">
        <ele>208.11</ele>
        <time>2018-09-21T15:18:00Z</time>
      </trkpt>
      <trkpt lat="45.22458" lon="5.67006">
        <ele>208.07</ele>
        <time>2018-09-21T15:18:01Z</time>
      </trkpt>
      <trkpt lat="45.22481" lon="5.66989">
        <ele>208.05</ele>
        <time>2018-09-21T15:18:02Z</time>
      </trkpt>
      <trkpt lat="45.22503" lon="5.66972">
        <ele>208.05</ele>
        <time>2018-09-21T15:18:03Z</time>
      </trkpt>
      <trkpt lat="45.22525" lon="5.66955">
        <ele>208.05</ele>
        <time>2018-09-21T15:18:04Z</time>
      </trkpt>
      <trkpt lat="45.22548" lon="5.66937">
        <ele>208.05</ele>
        <time>2018-09-21T15:18:05Z</time>
      </trkpt>
      <trkpt lat="45.22571" lon="5.66918">
        <ele>207.35</ele>
        <time>2018-09-21T15:18:06Z</time>
      </trkpt>
      <trkpt lat="45.22594" lon="5.669">
        <ele>206.44</ele>
        <time>2018-09-21T15:18:07Z</time>
      </trkpt>
      <trkpt lat="45.22618" lon="5.66883">
        <ele>206.17</ele>
        <time>2018-09-21T15:18:08Z</time>
      </trkpt>
      <trkpt lat="45.22642" lon="5.66866">
        <ele>206.08</ele>
        <time>2018-09-21T15:18:09Z</time>
      </trkpt>
      <trkpt lat="45.22666" lon="5.66849">
        <ele>205.36</ele>
        <time>2018-09-21T15:18:10Z</time>
      </trkpt>
      <trkpt lat="45.22689" lon="5.66832">
        <ele>205.14</ele>
        <time>2018-09-21T15:18:11Z</time>
      </trkpt>
      <trkpt lat="45.22714" lon="5.66815">
        <ele>205.08</ele>
        <time>2018-09-21T15:18:12Z</time>
      </trkpt>
      <trkpt lat="45.22738" lon="5.66797">
        <ele>204.36</ele>
        <time>2018-09-21T15:18:13Z</time>
      </trkpt>
      <trkpt lat="45.22761" lon="5.66779">
        <ele>204.14</ele>
        <time>2018-09-21T15:18:14Z</time>
      </trkpt>
      <trkpt lat="45.22785" lon="5.66762">
        <ele>204.08</ele>
        <time>2018-09-21T15:18:15Z</time>
      </trkpt>
      <trkpt lat="45.22808" lon="5.66744">
        <ele>203.36</ele>
        <time>2018-09-21T15:18:16Z</time>
      </trkpt>
      <trkpt lat="45.22831" lon="5.66726">
        <ele>203.14</ele>
        <time>2018-09-21T15:18:17Z</time>
      </trkpt>
      <trkpt lat="45.22855" lon="5.6671">
        <ele>203.08</ele>
        <time>2018-09-21T15:18:18Z</time>
      </trkpt>
      <trkpt lat="45.22878" lon="5.66693">
        <ele>203.06</ele>
        <time>2018-09-21T15:18:19Z</time>
      </trkpt>
      <trkpt lat="45.22902" lon="5.66676">
        <ele>203.05</ele>
        <time>2018-09-21T15:18:20Z</time>
      </trkpt>
      <trkpt lat="45.22926" lon="5.66659">
        <ele>203.05</ele>
        <time>2018-09-21T15:18:21Z</time>
      </trkpt>
      <trkpt lat="45.22949" lon="5.66642">
        <ele>203.05</ele>
        <time>2018-09-21T15:18:22Z</time>
      </trkpt>
      <trkpt lat="45.22973" lon="5.66626">
        <ele>203.05</ele>
        <time>2018-09-21T15:18:23Z</time>
      </trkpt>
      <trkpt lat="45.22997" lon="5.6661">
        <ele>202.35</ele>
        <time>2018-09-21T15:18:24Z</time>
      </trkpt>
      <trkpt lat="45.23021" lon="5.66594">
        <ele>202.14</ele>
        <time>2018-09-21T15:18:25Z</time>
      </trkpt>
      <trkpt lat="45.23045" lon="5.66578">
        <ele>202.08</ele>
        <time>2018-09-21T15:18:26Z</time>
      </trkpt>
      <trkpt lat="45.23068" lon="5.66563">
        <ele>201.36</ele>
        <time>2018-09-21T15:18:27Z</time>
      </trkpt>
      <trkpt lat="45.23092" lon="5.66547">
        <ele>201.14</ele>
        <time>2018-09-21T15:18:28Z</time>
      </trkpt>
      <trkpt lat="45.23116" lon="5.66532">
        <ele>201.08</ele>
        <time>2018-09-21T15:18:29Z</time>
      </trkpt>
      <trkpt lat="45.2314" lon="5.66516">
        <ele>201.06</ele>
        <time>2018-09-21T15:18:30Z</time>
      </trkpt>
      <trkpt lat="45.23165" lon="5.665">
        <ele>200.35</ele>
        <time>2018-09-21T15:18:31Z</time>
      </trkpt>
      <trkpt lat="45.23188" lon="5.66485">
        <ele>200.14</ele>
        <time>2018-09-21T15:18:32Z</time>
      </trkpt>
      <trkpt lat="45.23212" lon="5.6647">
        <ele>200.08</ele>
        <time>2018-09-21T15:18:33Z</time>
      </trkpt>
      <trkpt lat="45.23234" lon="5.66456">
        <ele>200.76</ele>
        <time>2018-09-21T15:18:34Z</time>
      </trkpt>
      <trkpt lat="45.23256" lon="5.66443">
        <ele>200.26</ele>
        <time>2018-09-21T15:18:35Z</time>
      </trkpt>
      <trkpt lat="45.23279" lon="5.6643">
        <ele>200.11</ele>
        <time>2018-09-21T15:18:36Z</time>
      </trkpt>
      <trkpt lat="45.23302" lon="5.66416">
        <ele>200.07</ele>
        <time>2018-09-21T15:18:37Z</time>
      </trkpt>
      <trkpt lat="45.23325" lon="5.66403">
        <ele>200.05</ele>
        <time>2018-09-21T15:18:38Z</time>
      </trkpt>
      <trkpt lat="45.23349" lon="5.6639">
        <ele>200.05</ele>
        <time>2018-09-21T15:18:39Z</time>
      </trkpt>
      <trkpt lat="45.23372" lon="5.66378">
        <ele>200.05</ele>
        <time>2018-09-21T15:18:40Z</time>
      </trkpt>
      <trkpt lat="45.23397" lon="5.66365">
        <ele>200.05</ele>
        <time>2018-09-21T15:18:41Z</time>
      </trkpt>
      <trkpt lat="45.2342" lon="5.66352">
        <ele>199.35</ele>
        <time>2018-09-21T15:18:42Z</time>
      </trkpt>
      <trkpt lat="45.23445" lon="5.6634">
        <ele>199.14</ele>
        <time>2018-09-21T15:18:43Z</time>
      </trkpt>
      <trkpt lat="45.23469" lon="5.66329">
        <ele>199.08</ele>
        <time>2018-09-21T15:18:44Z</time>
      </trkpt>
      <trkpt lat="45.23493" lon="5.66317">
        <ele>199.06</ele>
        <time>2018-09-21T15:18:45Z</time>
      </trkpt>
      <trkpt lat="45.23517" lon="5.66306">
        <ele>199.05</ele>
        <time>2018-09-21T15:18:46Z</time>
      </trkpt>
      <trkpt lat="45.23541" lon="5.66294">
        <ele>199.05</ele>
        <time>2018-09-21T15:18:47Z</time>
      </trkpt>
      <trkpt lat="45.23565" lon="5.66283">
        <ele>199.05</ele>
        <time>2018-09-21T15:18:48Z</time>
      </trkpt>
      <trkpt lat="45.23588" lon="5.6627">
        <ele>199.05</ele>
        <time>2018-09-21T15:18:49Z</time>
      </trkpt>
      <trkpt lat="45.23612" lon="5.66258">
        <ele>199.05</ele>
        <time>2018-09-21T15:18:50Z</time>
      </trkpt>
      <trkpt lat="45.23636" lon="5.66246">
        <ele>199.75</ele>
        <time>2018-09-21T15:18:51Z</time>
      </trkpt>
      <trkpt lat="45.2366" lon="5.66234">
        <ele>199.26</ele>
        <time>2018-09-21T15:18:52Z</time>
      </trkpt>
      <trkpt lat="45.23684" lon="5.66222">
        <ele>199.11</ele>
        <time>2018-09-21T15:18:53Z</time>
      </trkpt>
      <trkpt lat="45.23708" lon="5.6621">
        <ele>199.07</ele>
        <time>2018-09-21T15:18:54Z</time>
      </trkpt>
      <trkpt lat="45.23732" lon="5.66197">
        <ele>199.05</ele>
        <time>2018-09-21T15:18:55Z</time>
      </trkpt>
      <trkpt lat="45.23756" lon="5.66183">
        <ele>199.05</ele>
        <time>2018-09-21T15:18:56Z</time>
      </trkpt>
      <trkpt lat="45.23779" lon="5.6617">
        <ele>199.05</ele>
        <time>2018-09-21T15:18:57Z</time>
      </trkpt>
      <trkpt lat="45.23802" lon="5.66156">
        <ele>199.05</ele>
        <time>2018-09-21T15:18:58Z</time>
      </trkpt>
      <trkpt lat="45.23825" lon="5.66143">
        <ele>199.05</ele>
        <time>2018-09-21T15:18:59Z</time>
      </trkpt>
      <trkpt lat="45.23849" lon="5.66128">
        <ele>199.05</ele>
        <time>2018-09-21T15:19:00Z</time>
      </trkpt>
      <trkpt lat="45.23872" lon="5.66114">
        <ele>199.05</ele>
        <time>2018-09-21T15:19:01Z</time>
      </trkpt>
      <trkpt lat="45.23896" lon="5.66099">
        <ele>198.35</ele>
        <time>2018-09-21T15:19:02Z</time>
      </trkpt>
      <trkpt lat="45.2392" lon="5.66083">
        <ele>198.14</ele>
        <time>2018-09-21T15:19:03Z</time>
      </trkpt>
      <trkpt lat="45.23944" lon="5.66067">
        <ele>198.08</ele>
        <time>2018-09-21T15:19:04Z</time>
      </trkpt>
      <trkpt lat="45.23969" lon="5.66052">
        <ele>198.76</ele>
        <time>2018-09-21T15:19:05Z</time>
      </trkpt>
      <trkpt lat="45.23993" lon="5.66035">
        <ele>198.96</ele>
        <time>2018-09-21T15:19:06Z</time>
      </trkpt>
      <trkpt lat="45.24017" lon="5.66019">
        <ele>199.02</ele>
        <time>2018-09-21T15:19:07Z</time>
      </trkpt>
      <trkpt lat="45.2404" lon="5.66003">
        <ele>199.04</ele>
        <time>2018-09-21T15:19:08Z</time>
      </trkpt>
      <trkpt lat="45.24064" lon="5.65986">
        <ele>199.05</ele>
        <time>2018-09-21T15:19:09Z</time>
      </trkpt>
      <trkpt lat="45.24087" lon="5.6597">
        <ele>199.05</ele>
        <time>2018-09-21T15:19:10Z</time>
      </trkpt>
      <trkpt lat="45.24111" lon="5.65953">
        <ele>199.05</ele>
        <time>2018-09-21T15:19:11Z</time>
      </trkpt>
      <trkpt lat="45.24134" lon="5.65937">
        <ele>199.05</ele>
        <time>2018-09-21T15:19:12Z</time>
      </trkpt>
      <trkpt lat="45.24157" lon="5.65919">
        <ele>199.05</ele>
        <time>2018-09-21T15:19:13Z</time>
      </trkpt>
      <trkpt lat="45.24181" lon="5.65902">
        <ele>199.05</ele>
        <time>2018-09-21T15:19:14Z</time>
      </trkpt>
      <trkpt lat="45.24204" lon="5.65886">
        <ele>199.75</ele>
        <time>2018-09-21T15:19:15Z</time>
      </trkpt>
      <trkpt lat="45.24227" lon="5.6587">
        <ele>199.96</ele>
        <time>2018-09-21T15:19:16Z</time>
      </trkpt>
      <trkpt lat="45.2425" lon="5.65853">
        <ele>200.02</ele>
        <time>2018-09-21T15:19:17Z</time>
      </trkpt>
      <trkpt lat="45.24274" lon="5.65836">
        <ele>200.04</ele>
        <time>2018-09-21T15:19:18Z</time>
      </trkpt>
      <trkpt lat="45.24299" lon="5.65818">
        <ele>200.75</ele>
        <time>2018-09-21T15:19:19Z</time>
      </trkpt>
      <trkpt lat="45.24324" lon="5.658">
        <ele>200.96</ele>
        <time>2018-09-21T15:19:20Z</time>
      </trkpt>
      <trkpt lat="45.2435" lon="5.65781">
        <ele>201.02</ele>
        <time>2018-09-21T15:19:21Z</time>
      </trkpt>
      <trkpt lat="45.24377" lon="5.65762">
        <ele>201.04</ele>
        <time>2018-09-21T15:19:22Z</time>
      </trkpt>
      <trkpt lat="45.24404" lon="5.65742">
        <ele>201.05</ele>
        <time>2018-09-21T15:19:23Z</time>
      </trkpt>
      <trkpt lat="45.24431" lon="5.65723">
        <ele>201.05</ele>
        <time>2018-09-21T15:19:24Z</time>
      </trkpt>
      <trkpt lat="45.24457" lon="5.65705">
        <ele>201.05</ele>
        <time>2018-09-21T15:19:25Z</time>
      </trkpt>
      <trkpt lat="45.24484" lon="5.65686">
        <ele>201.05</ele>
        <time>2018-09-21T15:19:26Z</time>
      </trkpt>
      <trkpt lat="45.2451" lon="5.65668">
        <ele>201.05</ele>
        <time>2018-09-21T15:19:27Z</time>
      </trkpt>
      <trkpt lat="45.24536" lon="5.65649">
        <ele>201.05</ele>
        <time>2018-09-21T15:19:28Z</time>
      </trkpt>
      <trkpt lat="45.24562" lon="5.6563">
        <ele>201.05</ele>
        <time>2018-09-21T15:19:29Z</time>
      </trkpt>
      <trkpt lat="45.24589" lon="5.65611">
        <ele>200.35</ele>
        <time>2018-09-21T15:19:30Z</time>
      </trkpt>
      <trkpt lat="45.24614" lon="5.65593">
        <ele>200.84</ele>
        <time>2018-09-21T15:19:31Z</time>
      </trkpt>
      <trkpt lat="45.24641" lon="5.65574">
        <ele>200.29</ele>
        <time>2018-09-21T15:19:32Z</time>
      </trkpt>
      <trkpt lat="45.24666" lon="5.65556">
        <ele>200.12</ele>
        <time>2018-09-21T15:19:33Z</time>
      </trkpt>
      <trkpt lat="45.24691" lon="5.65538">
        <ele>199.37</ele>
        <time>2018-09-21T15:19:34Z</time>
      </trkpt>
      <trkpt lat="45.24715" lon="5.65519">
        <ele>199.15</ele>
        <time>2018-09-21T15:19:35Z</time>
      </trkpt>
      <trkpt lat="45.2474" lon="5.655">
        <ele>199.08</ele>
        <time>2018-09-21T15:19:36Z</time>
      </trkpt>
      <trkpt lat="45.24765" lon="5.65481">
        <ele>199.76</ele>
        <time>2018-09-21T15:19:37Z</time>
      </trkpt>
      <trkpt lat="45.24789" lon="5.6546">
        <ele>199.96</ele>
        <time>2018-09-21T15:19:38Z</time>
      </trkpt>
      <trkpt lat="45.24813" lon="5.6544">
        <ele>200.02</ele>
        <time>2018-09-21T15:19:39Z</time>
      </trkpt>
      <trkpt lat="45.24837" lon="5.65419">
        <ele>200.04</ele>
        <time>2018-09-21T15:19:40Z</time>
      </trkpt>
      <trkpt lat="45.24861" lon="5.65397">
        <ele>200.05</ele>
        <time>2018-09-21T15:19:41Z</time>
      </trkpt>
      <trkpt lat="45.24884" lon="5.65376">
        <ele>200.05</ele>
        <time>2018-09-21T15:19:42Z</time>
      </trkpt>
      <trkpt lat="45.24907" lon="5.65352">
        <ele>199.35</ele>
        <time>2018-09-21T15:19:43Z</time>
      </trkpt>
      <trkpt lat="45.24929" lon="5.65328">
        <ele>199.14</ele>
        <time>2018-09-21T15:19:44Z</time>
      </trkpt>
      <trkpt lat="45.24952" lon="5.65304">
        <ele>199.78</ele>
        <time>2018-09-21T15:19:45Z</time>
      </trkpt>
      <trkpt lat="45.24973" lon="5.6528">
        <ele>199.97</ele>
        <time>2018-09-21T15:19:46Z</time>
      </trkpt>
      <trkpt lat="45.24995" lon="5.65254">
        <ele>200.02</ele>
        <time>2018-09-21T15:19:47Z</time>
      </trkpt>
      <trkpt lat="45.25017" lon="5.65228">
        <ele>200.01</ele>
        <time>2018-09-21T15:19:48Z</time>
      </trkpt>
      <trkpt lat="45.25037" lon="5.65202">
        <ele>200.71</ele>
        <time>2018-09-21T15:19:49Z</time>
      </trkpt>
      <trkpt lat="45.25058" lon="5.65175">
        <ele>200.92</ele>
        <time>2018-09-21T15:19:50Z</time>
      </trkpt>
      <trkpt lat="45.25078" lon="5.65148">
        <ele>200.98</ele>
        <time>2018-09-21T15:19:51Z</time>
      </trkpt>
      <trkpt lat="45.25099" lon="5.65122">
        <ele>201</ele>
        <time>2018-09-21T15:19:52Z</time>
      </trkpt>
      <trkpt lat="45.25119" lon="5.65095">
        <ele>201</ele>
        <time>2018-09-21T15:19:53Z</time>
      </trkpt>
      <trkpt lat="45.2514" lon="5.65068">
        <ele>200.31</ele>
        <time>2018-09-21T15:19:54Z</time>
      </trkpt>
      <trkpt lat="45.2516" lon="5.65041">
        <ele>200.1</ele>
        <time>2018-09-21T15:19:55Z</time>
      </trkpt>
      <trkpt lat="45.25181" lon="5.65014">
        <ele>200.03</ele>
        <time>2018-09-21T15:19:56Z</time>
      </trkpt>
      <trkpt lat="45.25201" lon="5.64986">
        <ele>200.01</ele>
        <time>2018-09-21T15:19:57Z</time>
      </trkpt>
      <trkpt lat="45.25222" lon="5.6496">
        <ele>200.01</ele>
        <time>2018-09-21T15:19:58Z</time>
      </trkpt>
      <trkpt lat="45.25242" lon="5.64933">
        <ele>200.01</ele>
        <time>2018-09-21T15:19:59Z</time>
      </trkpt>
      <trkpt lat="45.25263" lon="5.64905">
        <ele>200.01</ele>
        <time>2018-09-21T15:20:00Z</time>
      </trkpt>
      <trkpt lat="45.25284" lon="5.64878">
        <ele>200.01</ele>
        <time>2018-09-21T15:20:01Z</time>
      </trkpt>
      <trkpt lat="45.25305" lon="5.64851">
        <ele>200.01</ele>
        <time>2018-09-21T15:20:02Z</time>
      </trkpt>
      <trkpt lat="45.25325" lon="5.64823">
        <ele>200.01</ele>
        <time>2018-09-21T15:20:03Z</time>
      </trkpt>
      <trkpt lat="45.25345" lon="5.64796">
        <ele>200.01</ele>
        <time>2018-09-21T15:20:04Z</time>
      </trkpt>
      <trkpt lat="45.25365" lon="5.64768">
        <ele>200.01</ele>
        <time>2018-09-21T15:20:05Z</time>
      </trkpt>
      <trkpt lat="45.25386" lon="5.64741">
        <ele>200.01</ele>
        <time>2018-09-21T15:20:06Z</time>
      </trkpt>
      <trkpt lat="45.25406" lon="5.64712">
        <ele>200.01</ele>
        <time>2018-09-21T15:20:07Z</time>
      </trkpt>
      <trkpt lat="45.25425" lon="5.64683">
        <ele>200.71</ele>
        <time>2018-09-21T15:20:08Z</time>
      </trkpt>
      <trkpt lat="45.25445" lon="5.64655">
        <ele>200.92</ele>
        <time>2018-09-21T15:20:09Z</time>
      </trkpt>
      <trkpt lat="45.25464" lon="5.64626">
        <ele>200.98</ele>
        <time>2018-09-21T15:20:10Z</time>
      </trkpt>
      <trkpt lat="45.25483" lon="5.64597">
        <ele>201</ele>
        <time>2018-09-21T15:20:11Z</time>
      </trkpt>
      <trkpt lat="45.25502" lon="5.64567">
        <ele>201</ele>
        <time>2018-09-21T15:20:12Z</time>
      </trkpt>
      <trkpt lat="45.2552" lon="5.64537">
        <ele>201.01</ele>
        <time>2018-09-21T15:20:13Z</time>
      </trkpt>
      <trkpt lat="45.25538" lon="5.64507">
        <ele>201.01</ele>
        <time>2018-09-21T15:20:14Z</time>
      </trkpt>
      <trkpt lat="45.25556" lon="5.64476">
        <ele>201.01</ele>
        <time>2018-09-21T15:20:15Z</time>
      </trkpt>
      <trkpt lat="45.25573" lon="5.64446">
        <ele>200.31</ele>
        <time>2018-09-21T15:20:16Z</time>
      </trkpt>
      <trkpt lat="45.25591" lon="5.64415">
        <ele>200.1</ele>
        <time>2018-09-21T15:20:17Z</time>
      </trkpt>
      <trkpt lat="45.25608" lon="5.64384">
        <ele>200.03</ele>
        <time>2018-09-21T15:20:18Z</time>
      </trkpt>
      <trkpt lat="45.25625" lon="5.64352">
        <ele>200.01</ele>
        <time>2018-09-21T15:20:19Z</time>
      </trkpt>
      <trkpt lat="45.25642" lon="5.6432">
        <ele>200.01</ele>
        <time>2018-09-21T15:20:20Z</time>
      </trkpt>
      <trkpt lat="45.25659" lon="5.64289">
        <ele>200.01</ele>
        <time>2018-09-21T15:20:21Z</time>
      </trkpt>
      <trkpt lat="45.25676" lon="5.64257">
        <ele>200.01</ele>
        <time>2018-09-21T15:20:22Z</time>
      </trkpt>
      <trkpt lat="45.25694" lon="5.64224">
        <ele>200.01</ele>
        <time>2018-09-21T15:20:23Z</time>
      </trkpt>
      <trkpt lat="45.2571" lon="5.64192">
        <ele>200.01</ele>
        <time>2018-09-21T15:20:24Z</time>
      </trkpt>
      <trkpt lat="45.25728" lon="5.6416">
        <ele>200.01</ele>
        <time>2018-09-21T15:20:25Z</time>
      </trkpt>
      <trkpt lat="45.25745" lon="5.64128">
        <ele>199.31</ele>
        <time>2018-09-21T15:20:26Z</time>
      </trkpt>
      <trkpt lat="45.25761" lon="5.64097">
        <ele>199.1</ele>
        <time>2018-09-21T15:20:27Z</time>
      </trkpt>
      <trkpt lat="45.25779" lon="5.64065">
        <ele>199.73</ele>
        <time>2018-09-21T15:20:28Z</time>
      </trkpt>
      <trkpt lat="45.25797" lon="5.64034">
        <ele>199.22</ele>
        <time>2018-09-21T15:20:29Z</time>
      </trkpt>
      <trkpt lat="45.25815" lon="5.64003">
        <ele>198.37</ele>
        <time>2018-09-21T15:20:30Z</time>
      </trkpt>
      <trkpt lat="45.25832" lon="5.63972">
        <ele>198.12</ele>
        <time>2018-09-21T15:20:31Z</time>
      </trkpt>
      <trkpt lat="45.2585" lon="5.63942">
        <ele>198.74</ele>
        <time>2018-09-21T15:20:32Z</time>
      </trkpt>
      <trkpt lat="45.25869" lon="5.63911">
        <ele>198.93</ele>
        <time>2018-09-21T15:20:33Z</time>
      </trkpt>
      <trkpt lat="45.25887" lon="5.63881">
        <ele>198.28</ele>
        <time>2018-09-21T15:20:34Z</time>
      </trkpt>
      <trkpt lat="45.25906" lon="5.63853">
        <ele>198.09</ele>
        <time>2018-09-21T15:20:35Z</time>
      </trkpt>
      <trkpt lat="45.25925" lon="5.63824">
        <ele>198.03</ele>
        <time>2018-09-21T15:20:36Z</time>
      </trkpt>
      <trkpt lat="45.25944" lon="5.63797">
        <ele>198.71</ele>
        <time>2018-09-21T15:20:37Z</time>
      </trkpt>
      <trkpt lat="45.25963" lon="5.63771">
        <ele>198.22</ele>
        <time>2018-09-21T15:20:38Z</time>
      </trkpt>
      <trkpt lat="45.25983" lon="5.63745">
        <ele>198.07</ele>
        <time>2018-09-21T15:20:39Z</time>
      </trkpt>
      <trkpt lat="45.26003" lon="5.63719">
        <ele>198.03</ele>
        <time>2018-09-21T15:20:40Z</time>
      </trkpt>
      <trkpt lat="45.26023" lon="5.63693">
        <ele>198.01</ele>
        <time>2018-09-21T15:20:41Z</time>
      </trkpt>
      <trkpt lat="45.26044" lon="5.63667">
        <ele>198.01</ele>
        <time>2018-09-21T15:20:42Z</time>
      </trkpt>
      <trkpt lat="45.26065" lon="5.63642">
        <ele>198.01</ele>
        <time>2018-09-21T15:20:43Z</time>
      </trkpt>
      <trkpt lat="45.26085" lon="5.63616">
        <ele>198.01</ele>
        <time>2018-09-21T15:20:44Z</time>
      </trkpt>
      <trkpt lat="45.26106" lon="5.6359">
        <ele>198.01</ele>
        <time>2018-09-21T15:20:45Z</time>
      </trkpt>
      <trkpt lat="45.26127" lon="5.63564">
        <ele>198.01</ele>
        <time>2018-09-21T15:20:46Z</time>
      </trkpt>
      <trkpt lat="45.26147" lon="5.63539">
        <ele>198.01</ele>
        <time>2018-09-21T15:20:47Z</time>
      </trkpt>
      <trkpt lat="45.26168" lon="5.63513">
        <ele>198.71</ele>
        <time>2018-09-21T15:20:48Z</time>
      </trkpt>
      <trkpt lat="45.26189" lon="5.63488">
        <ele>198.92</ele>
        <time>2018-09-21T15:20:49Z</time>
      </trkpt>
      <trkpt lat="45.2621" lon="5.63463">
        <ele>198.98</ele>
        <time>2018-09-21T15:20:50Z</time>
      </trkpt>
      <trkpt lat="45.26232" lon="5.63437">
        <ele>199</ele>
        <time>2018-09-21T15:20:51Z</time>
      </trkpt>
      <trkpt lat="45.26253" lon="5.63411">
        <ele>198.3</ele>
        <time>2018-09-21T15:20:52Z</time>
      </trkpt>
      <trkpt lat="45.26275" lon="5.63385">
        <ele>198.1</ele>
        <time>2018-09-21T15:20:53Z</time>
      </trkpt>
      <trkpt lat="45.26297" lon="5.63359">
        <ele>198.03</ele>
        <time>2018-09-21T15:20:54Z</time>
      </trkpt>
      <trkpt lat="45.26318" lon="5.63333">
        <ele>198.01</ele>
        <time>2018-09-21T15:20:55Z</time>
      </trkpt>
      <trkpt lat="45.2634" lon="5.63307">
        <ele>198.01</ele>
        <time>2018-09-21T15:20:56Z</time>
      </trkpt>
      <trkpt lat="45.26362" lon="5.63282">
        <ele>198.01</ele>
        <time>2018-09-21T15:20:57Z</time>
      </trkpt>
      <trkpt lat="45.26384" lon="5.63256">
        <ele>198.01</ele>
        <time>2018-09-21T15:20:58Z</time>
      </trkpt>
      <trkpt lat="45.26405" lon="5.6323">
        <ele>198.01</ele>
        <time>2018-09-21T15:20:59Z</time>
      </trkpt>
      <trkpt lat="45.26426" lon="5.63204">
        <ele>198.01</ele>
        <time>2018-09-21T15:21:00Z</time>
      </trkpt>
      <trkpt lat="45.26448" lon="5.63177">
        <ele>198.01</ele>
        <time>2018-09-21T15:21:01Z</time>
      </trkpt>
      <trkpt lat="45.26469" lon="5.63152">
        <ele>198.01</ele>
        <time>2018-09-21T15:21:02Z</time>
      </trkpt>
      <trkpt lat="45.26491" lon="5.63127">
        <ele>198.01</ele>
        <time>2018-09-21T15:21:03Z</time>
      </trkpt>
      <trkpt lat="45.26513" lon="5.63101">
        <ele>198.01</ele>
        <time>2018-09-21T15:21:04Z</time>
      </trkpt>
      <trkpt lat="45.26535" lon="5.63077">
        <ele>198.01</ele>
        <time>2018-09-21T15:21:05Z</time>
      </trkpt>
      <trkpt lat="45.26556" lon="5.63053">
        <ele>198.01</ele>
        <time>2018-09-21T15:21:06Z</time>
      </trkpt>
      <trkpt lat="45.26578" lon="5.63029">
        <ele>198.01</ele>
        <time>2018-09-21T15:21:07Z</time>
      </trkpt>
      <trkpt lat="45.266" lon="5.63006">
        <ele>198.01</ele>
        <time>2018-09-21T15:21:08Z</time>
      </trkpt>
      <trkpt lat="45.26622" lon="5.62984">
        <ele>197.31</ele>
        <time>2018-09-21T15:21:09Z</time>
      </trkpt>
      <trkpt lat="45.26644" lon="5.62963">
        <ele>197.1</ele>
        <time>2018-09-21T15:21:10Z</time>
      </trkpt>
      <trkpt lat="45.26667" lon="5.62943">
        <ele>197.03</ele>
        <time>2018-09-21T15:21:11Z</time>
      </trkpt>
      <trkpt lat="45.2669" lon="5.62924">
        <ele>197.01</ele>
        <time>2018-09-21T15:21:12Z</time>
      </trkpt>
      <trkpt lat="45.26714" lon="5.62905">
        <ele>197.01</ele>
        <time>2018-09-21T15:21:13Z</time>
      </trkpt>
      <trkpt lat="45.26738" lon="5.62886">
        <ele>196.31</ele>
        <time>2018-09-21T15:21:14Z</time>
      </trkpt>
      <trkpt lat="45.26762" lon="5.62868">
        <ele>196.1</ele>
        <time>2018-09-21T15:21:15Z</time>
      </trkpt>
      <trkpt lat="45.26786" lon="5.62851">
        <ele>196.03</ele>
        <time>2018-09-21T15:21:16Z</time>
      </trkpt>
      <trkpt lat="45.26811" lon="5.62834">
        <ele>195.31</ele>
        <time>2018-09-21T15:21:17Z</time>
      </trkpt>
      <trkpt lat="45.26835" lon="5.62818">
        <ele>195.8</ele>
        <time>2018-09-21T15:21:18Z</time>
      </trkpt>
      <trkpt lat="45.2686" lon="5.62803">
        <ele>195.24</ele>
        <time>2018-09-21T15:21:19Z</time>
      </trkpt>
      <trkpt lat="45.26884" lon="5.6279">
        <ele>195.08</ele>
        <time>2018-09-21T15:21:20Z</time>
      </trkpt>
      <trkpt lat="45.26907" lon="5.62778">
        <ele>195.73</ele>
        <time>2018-09-21T15:21:21Z</time>
      </trkpt>
      <trkpt lat="45.26931" lon="5.62766">
        <ele>195.92</ele>
        <time>2018-09-21T15:21:22Z</time>
      </trkpt>
      <trkpt lat="45.26955" lon="5.62755">
        <ele>195.98</ele>
        <time>2018-09-21T15:21:23Z</time>
      </trkpt>
      <trkpt lat="45.26979" lon="5.62743">
        <ele>195.3</ele>
        <time>2018-09-21T15:21:24Z</time>
      </trkpt>
      <trkpt lat="45.27003" lon="5.62732">
        <ele>195.09</ele>
        <time>2018-09-21T15:21:25Z</time>
      </trkpt>
      <trkpt lat="45.27027" lon="5.6272">
        <ele>195.73</ele>
        <time>2018-09-21T15:21:26Z</time>
      </trkpt>
      <trkpt lat="45.27051" lon="5.62708">
        <ele>195.92</ele>
        <time>2018-09-21T15:21:27Z</time>
      </trkpt>
      <trkpt lat="45.27074" lon="5.62697">
        <ele>195.28</ele>
        <time>2018-09-21T15:21:28Z</time>
      </trkpt>
      <trkpt lat="45.27098" lon="5.62685">
        <ele>195.09</ele>
        <time>2018-09-21T15:21:29Z</time>
      </trkpt>
      <trkpt lat="45.27123" lon="5.62674">
        <ele>195.03</ele>
        <time>2018-09-21T15:21:30Z</time>
      </trkpt>
      <trkpt lat="45.27147" lon="5.62662">
        <ele>195.01</ele>
        <time>2018-09-21T15:21:31Z</time>
      </trkpt>
      <trkpt lat="45.27171" lon="5.6265">
        <ele>195.01</ele>
        <time>2018-09-21T15:21:32Z</time>
      </trkpt>
      <trkpt lat="45.27194" lon="5.62638">
        <ele>194.31</ele>
        <time>2018-09-21T15:21:33Z</time>
      </trkpt>
      <trkpt lat="45.27218" lon="5.62626">
        <ele>194.1</ele>
        <time>2018-09-21T15:21:34Z</time>
      </trkpt>
      <trkpt lat="45.27243" lon="5.62615">
        <ele>194.03</ele>
        <time>2018-09-21T15:21:35Z</time>
      </trkpt>
      <trkpt lat="45.27266" lon="5.62605">
        <ele>194.01</ele>
        <time>2018-09-21T15:21:36Z</time>
      </trkpt>
      <trkpt lat="45.27291" lon="5.62593">
        <ele>194.01</ele>
        <time>2018-09-21T15:21:37Z</time>
      </trkpt>
      <trkpt lat="45.27315" lon="5.6258">
        <ele>194.01</ele>
        <time>2018-09-21T15:21:38Z</time>
      </trkpt>
      <trkpt lat="45.27339" lon="5.62568">
        <ele>194.01</ele>
        <time>2018-09-21T15:21:39Z</time>
      </trkpt>
      <trkpt lat="45.27363" lon="5.62557">
        <ele>194.71</ele>
        <time>2018-09-21T15:21:40Z</time>
      </trkpt>
      <trkpt lat="45.27384" lon="5.62548">
        <ele>194.22</ele>
        <time>2018-09-21T15:21:41Z</time>
      </trkpt>
      <trkpt lat="45.27405" lon="5.62538">
        <ele>194.07</ele>
        <time>2018-09-21T15:21:42Z</time>
      </trkpt>
      <trkpt lat="45.27425" lon="5.62529">
        <ele>194.72</ele>
        <time>2018-09-21T15:21:43Z</time>
      </trkpt>
      <trkpt lat="45.27445" lon="5.62521">
        <ele>194.92</ele>
        <time>2018-09-21T15:21:44Z</time>
      </trkpt>
      <trkpt lat="45.27468" lon="5.62511">
        <ele>195.68</ele>
        <time>2018-09-21T15:21:45Z</time>
      </trkpt>
      <trkpt lat="45.27492" lon="5.62501">
        <ele>195.91</ele>
        <time>2018-09-21T15:21:46Z</time>
      </trkpt>
      <trkpt lat="45.27513" lon="5.62495">
        <ele>195.98</ele>
        <time>2018-09-21T15:21:47Z</time>
      </trkpt>
      <trkpt lat="45.27533" lon="5.62489">
        <ele>196.7</ele>
        <time>2018-09-21T15:21:48Z</time>
      </trkpt>
      <trkpt lat="45.2755" lon="5.62483">
        <ele>196.91</ele>
        <time>2018-09-21T15:21:49Z</time>
      </trkpt>
      <trkpt lat="45.27578" lon="5.62478">
        <ele>196.3</ele>
        <time>2018-09-21T15:21:51Z</time>
      </trkpt>
      <trkpt lat="45.27599" lon="5.62488">
        <ele>195.33</ele>
        <time>2018-09-21T15:21:53Z</time>
      </trkpt>
      <trkpt lat="45.27611" lon="5.62512">
        <ele>195.04</ele>
        <time>2018-09-21T15:21:55Z</time>
      </trkpt>
      <trkpt lat="45.2761" lon="5.62541">
        <ele>194.1</ele>
        <time>2018-09-21T15:21:57Z</time>
      </trkpt>
      <trkpt lat="45.27596" lon="5.62566">
        <ele>194.01</ele>
        <time>2018-09-21T15:21:59Z</time>
      </trkpt>
      <trkpt lat="45.27571" lon="5.62578">
        <ele>194.71</ele>
        <time>2018-09-21T15:22:01Z</time>
      </trkpt>
      <trkpt lat="45.27543" lon="5.62588">
        <ele>194.98</ele>
        <time>2018-09-21T15:22:03Z</time>
      </trkpt>
      <trkpt lat="45.27515" lon="5.62598">
        <ele>196.61</ele>
        <time>2018-09-21T15:22:05Z</time>
      </trkpt>
      <trkpt lat="45.27485" lon="5.6261">
        <ele>196.97</ele>
        <time>2018-09-21T15:22:07Z</time>
      </trkpt>
      <trkpt lat="45.27454" lon="5.62624">
        <ele>197.91</ele>
        <time>2018-09-21T15:22:09Z</time>
      </trkpt>
      <trkpt lat="45.27424" lon="5.62638">
        <ele>198.91</ele>
        <time>2018-09-21T15:22:11Z</time>
      </trkpt>
      <trkpt lat="45.27399" lon="5.62649">
        <ele>200.61</ele>
        <time>2018-09-21T15:22:13Z</time>
      </trkpt>
      <trkpt lat="45.27375" lon="5.62659">
        <ele>201.67</ele>
        <time>2018-09-21T15:22:15Z</time>
      </trkpt>
      <trkpt lat="45.27356" lon="5.62668">
        <ele>201.77</ele>
        <time>2018-09-21T15:22:17Z</time>
      </trkpt>
      <trkpt lat="45.27336" lon="5.62675">
        <ele>202</ele>
        <time>2018-09-21T15:22:20Z</time>
      </trkpt>
      <trkpt lat="45.27318" lon="5.62669">
        <ele>202.01</ele>
        <time>2018-09-21T15:22:23Z</time>
      </trkpt>
      <trkpt lat="45.27296" lon="5.62656">
        <ele>202.01</ele>
        <time>2018-09-21T15:22:26Z</time>
      </trkpt>
      <trkpt lat="45.27278" lon="5.62647">
        <ele>202.01</ele>
        <time>2018-09-21T15:22:28Z</time>
      </trkpt>
      <trkpt lat="45.27266" lon="5.62626">
        <ele>202.01</ele>
        <time>2018-09-21T15:22:30Z</time>
      </trkpt>
      <trkpt lat="45.27258" lon="5.62597">
        <ele>202.01</ele>
        <time>2018-09-21T15:22:32Z</time>
      </trkpt>
      <trkpt lat="45.27248" lon="5.62562">
        <ele>202.92</ele>
        <time>2018-09-21T15:22:34Z</time>
      </trkpt>
      <trkpt lat="45.27238" lon="5.6252">
        <ele>203</ele>
        <time>2018-09-21T15:22:36Z</time>
      </trkpt>
      <trkpt lat="45.2723" lon="5.62486">
        <ele>203.01</ele>
        <time>2018-09-21T15:22:38Z</time>
      </trkpt>
      <trkpt lat="45.27226" lon="5.62459">
        <ele>203.01</ele>
        <time>2018-09-21T15:22:40Z</time>
      </trkpt>
      <trkpt lat="45.2723" lon="5.62423">
        <ele>203.07</ele>
        <time>2018-09-21T15:22:43Z</time>
      </trkpt>
      <trkpt lat="45.27231" lon="5.6239">
        <ele>202.1</ele>
        <time>2018-09-21T15:22:46Z</time>
      </trkpt>
      <trkpt lat="45.27211" lon="5.62372">
        <ele>201.04</ele>
        <time>2018-09-21T15:22:49Z</time>
      </trkpt>
      <trkpt lat="45.27188" lon="5.62356">
        <ele>200.03</ele>
        <time>2018-09-21T15:22:52Z</time>
      </trkpt>
      <trkpt lat="45.27174" lon="5.62329">
        <ele>200.92</ele>
        <time>2018-09-21T15:22:54Z</time>
      </trkpt>
      <trkpt lat="45.2716" lon="5.62293">
        <ele>200.3</ele>
        <time>2018-09-21T15:22:56Z</time>
      </trkpt>
      <trkpt lat="45.27148" lon="5.62258">
        <ele>200.73</ele>
        <time>2018-09-21T15:22:58Z</time>
      </trkpt>
      <trkpt lat="45.27134" lon="5.62221">
        <ele>201.68</ele>
        <time>2018-09-21T15:23:00Z</time>
      </trkpt>
      <trkpt lat="45.27121" lon="5.62182">
        <ele>201.98</ele>
        <time>2018-09-21T15:23:02Z</time>
      </trkpt>
      <trkpt lat="45.27107" lon="5.62142">
        <ele>202</ele>
        <time>2018-09-21T15:23:04Z</time>
      </trkpt>
      <trkpt lat="45.27093" lon="5.62102">
        <ele>202.01</ele>
        <time>2018-09-21T15:23:06Z</time>
      </trkpt>
      <trkpt lat="45.27082" lon="5.62066">
        <ele>202.01</ele>
        <time>2018-09-21T15:23:08Z</time>
      </trkpt>
      <trkpt lat="45.27072" lon="5.62038">
        <ele>201.31</ele>
        <time>2018-09-21T15:23:10Z</time>
      </trkpt>
      <trkpt lat="45.27072" lon="5.62002">
        <ele>201.08</ele>
        <time>2018-09-21T15:23:13Z</time>
      </trkpt>
      <trkpt lat="45.27094" lon="5.61981">
        <ele>200.31</ele>
        <time>2018-09-21T15:23:16Z</time>
      </trkpt>
      <trkpt lat="45.27115" lon="5.61966">
        <ele>200.03</ele>
        <time>2018-09-21T15:23:18Z</time>
      </trkpt>
      <trkpt lat="45.27139" lon="5.6195">
        <ele>198.4</ele>
        <time>2018-09-21T15:23:20Z</time>
      </trkpt>
      <trkpt lat="45.27165" lon="5.61935">
        <ele>197.34</ele>
        <time>2018-09-21T15:23:22Z</time>
      </trkpt>
      <trkpt lat="45.27192" lon="5.61922">
        <ele>196.13</ele>
        <time>2018-09-21T15:23:24Z</time>
      </trkpt>
      <trkpt lat="45.27219" lon="5.61914">
        <ele>196.72</ele>
        <time>2018-09-21T15:23:26Z</time>
      </trkpt>
      <trkpt lat="45.27247" lon="5.61906">
        <ele>196.98</ele>
        <time>2018-09-21T15:23:28Z</time>
      </trkpt>
      <trkpt lat="45.2728" lon="5.61897">
        <ele>197.21</ele>
        <time>2018-09-21T15:23:30Z</time>
      </trkpt>
      <trkpt lat="45.27299" lon="5.61893">
        <ele>197.07</ele>
        <time>2018-09-21T15:23:31Z</time>
      </trkpt>
      <trkpt lat="45.2732" lon="5.61889">
        <ele>197.72</ele>
        <time>2018-09-21T15:23:32Z</time>
      </trkpt>
      <trkpt lat="45.27343" lon="5.61884">
        <ele>197.92</ele>
        <time>2018-09-21T15:23:33Z</time>
      </trkpt>
      <trkpt lat="45.27366" lon="5.61879">
        <ele>197.98</ele>
        <time>2018-09-21T15:23:34Z</time>
      </trkpt>
      <trkpt lat="45.27389" lon="5.61873">
        <ele>198</ele>
        <time>2018-09-21T15:23:35Z</time>
      </trkpt>
      <trkpt lat="45.27412" lon="5.61868">
        <ele>197.3</ele>
        <time>2018-09-21T15:23:36Z</time>
      </trkpt>
      <trkpt lat="45.27437" lon="5.61862">
        <ele>196.4</ele>
        <time>2018-09-21T15:23:37Z</time>
      </trkpt>
      <trkpt lat="45.2746" lon="5.61856">
        <ele>196.12</ele>
        <time>2018-09-21T15:23:38Z</time>
      </trkpt>
      <trkpt lat="45.27484" lon="5.61851">
        <ele>195.34</ele>
        <time>2018-09-21T15:23:39Z</time>
      </trkpt>
      <trkpt lat="45.27506" lon="5.61846">
        <ele>195.11</ele>
        <time>2018-09-21T15:23:40Z</time>
      </trkpt>
      <trkpt lat="45.2753" lon="5.6184">
        <ele>195.04</ele>
        <time>2018-09-21T15:23:41Z</time>
      </trkpt>
      <trkpt lat="45.27553" lon="5.61835">
        <ele>195.72</ele>
        <time>2018-09-21T15:23:42Z</time>
      </trkpt>
      <trkpt lat="45.27577" lon="5.61829">
        <ele>195.92</ele>
        <time>2018-09-21T15:23:43Z</time>
      </trkpt>
      <trkpt lat="45.276" lon="5.61823">
        <ele>195.98</ele>
        <time>2018-09-21T15:23:44Z</time>
      </trkpt>
      <trkpt lat="45.27624" lon="5.61818">
        <ele>196</ele>
        <time>2018-09-21T15:23:45Z</time>
      </trkpt>
      <trkpt lat="45.27647" lon="5.61812">
        <ele>196</ele>
        <time>2018-09-21T15:23:46Z</time>
      </trkpt>
      <trkpt lat="45.2767" lon="5.61807">
        <ele>196.01</ele>
        <time>2018-09-21T15:23:47Z</time>
      </trkpt>
      <trkpt lat="45.27692" lon="5.61802">
        <ele>196.01</ele>
        <time>2018-09-21T15:23:48Z</time>
      </trkpt>
      <trkpt lat="45.27711" lon="5.61798">
        <ele>196.01</ele>
        <time>2018-09-21T15:23:49Z</time>
      </trkpt>
      <trkpt lat="45.27731" lon="5.61794">
        <ele>196.71</ele>
        <time>2018-09-21T15:23:50Z</time>
      </trkpt>
      <trkpt lat="45.2775" lon="5.61791">
        <ele>196.22</ele>
        <time>2018-09-21T15:23:51Z</time>
      </trkpt>
      <trkpt lat="45.27771" lon="5.61787">
        <ele>195.37</ele>
        <time>2018-09-21T15:23:52Z</time>
      </trkpt>
      <trkpt lat="45.27794" lon="5.61785">
        <ele>195.11</ele>
        <time>2018-09-21T15:23:53Z</time>
      </trkpt>
      <trkpt lat="45.27817" lon="5.61784">
        <ele>195.04</ele>
        <time>2018-09-21T15:23:54Z</time>
      </trkpt>
      <trkpt lat="45.27839" lon="5.61784">
        <ele>195.02</ele>
        <time>2018-09-21T15:23:55Z</time>
      </trkpt>
      <trkpt lat="45.2786" lon="5.61784">
        <ele>195.01</ele>
        <time>2018-09-21T15:23:56Z</time>
      </trkpt>
      <trkpt lat="45.2788" lon="5.61784">
        <ele>194.31</ele>
        <time>2018-09-21T15:23:57Z</time>
      </trkpt>
      <trkpt lat="45.279" lon="5.61783">
        <ele>194.8</ele>
        <time>2018-09-21T15:23:58Z</time>
      </trkpt>
      <trkpt lat="45.27921" lon="5.61783">
        <ele>194.94</ele>
        <time>2018-09-21T15:23:59Z</time>
      </trkpt>
      <trkpt lat="45.27941" lon="5.61783">
        <ele>194.99</ele>
        <time>2018-09-21T15:24:00Z</time>
      </trkpt>
      <trkpt lat="45.27961" lon="5.61781">
        <ele>195</ele>
        <time>2018-09-21T15:24:01Z</time>
      </trkpt>
      <trkpt lat="45.27981" lon="5.61781">
        <ele>195</ele>
        <time>2018-09-21T15:24:02Z</time>
      </trkpt>
      <trkpt lat="45.28001" lon="5.6178">
        <ele>195.01</ele>
        <time>2018-09-21T15:24:03Z</time>
      </trkpt>
      <trkpt lat="45.28021" lon="5.61778">
        <ele>195.01</ele>
        <time>2018-09-21T15:24:04Z</time>
      </trkpt>
      <trkpt lat="45.28042" lon="5.61776">
        <ele>195.01</ele>
        <time>2018-09-21T15:24:05Z</time>
      </trkpt>
      <trkpt lat="45.28063" lon="5.61772">
        <ele>195.01</ele>
        <time>2018-09-21T15:24:06Z</time>
      </trkpt>
      <trkpt lat="45.28085" lon="5.61768">
        <ele>195.01</ele>
        <time>2018-09-21T15:24:07Z</time>
      </trkpt>
      <trkpt lat="45.28107" lon="5.61763">
        <ele>195.01</ele>
        <time>2018-09-21T15:24:08Z</time>
      </trkpt>
      <trkpt lat="45.28128" lon="5.61758">
        <ele>195.01</ele>
        <time>2018-09-21T15:24:09Z</time>
      </trkpt>
      <trkpt lat="45.28148" lon="5.61754">
        <ele>195.01</ele>
        <time>2018-09-21T15:24:10Z</time>
      </trkpt>
      <trkpt lat="45.28167" lon="5.6175">
        <ele>195.01</ele>
        <time>2018-09-21T15:24:11Z</time>
      </trkpt>
      <trkpt lat="45.28187" lon="5.61746">
        <ele>195.01</ele>
        <time>2018-09-21T15:24:12Z</time>
      </trkpt>
      <trkpt lat="45.28205" lon="5.61742">
        <ele>193.61</ele>
        <time>2018-09-21T15:24:13Z</time>
      </trkpt>
      <trkpt lat="45.28225" lon="5.61737">
        <ele>193.89</ele>
        <time>2018-09-21T15:24:14Z</time>
      </trkpt>
      <trkpt lat="45.28245" lon="5.61733">
        <ele>193.97</ele>
        <time>2018-09-21T15:24:15Z</time>
      </trkpt>
      <trkpt lat="45.28265" lon="5.61729">
        <ele>194</ele>
        <time>2018-09-21T15:24:16Z</time>
      </trkpt>
      <trkpt lat="45.28286" lon="5.61725">
        <ele>194</ele>
        <time>2018-09-21T15:24:17Z</time>
      </trkpt>
      <trkpt lat="45.28307" lon="5.6172">
        <ele>194.01</ele>
        <time>2018-09-21T15:24:18Z</time>
      </trkpt>
      <trkpt lat="45.28326" lon="5.61715">
        <ele>194.01</ele>
        <time>2018-09-21T15:24:19Z</time>
      </trkpt>
      <trkpt lat="45.28345" lon="5.61712">
        <ele>194.01</ele>
        <time>2018-09-21T15:24:20Z</time>
      </trkpt>
      <trkpt lat="45.28364" lon="5.61707">
        <ele>194.01</ele>
        <time>2018-09-21T15:24:21Z</time>
      </trkpt>
      <trkpt lat="45.28384" lon="5.61703">
        <ele>194.01</ele>
        <time>2018-09-21T15:24:22Z</time>
      </trkpt>
      <trkpt lat="45.28405" lon="5.61698">
        <ele>194.01</ele>
        <time>2018-09-21T15:24:23Z</time>
      </trkpt>
      <trkpt lat="45.28427" lon="5.61694">
        <ele>194.01</ele>
        <time>2018-09-21T15:24:24Z</time>
      </trkpt>
      <trkpt lat="45.28451" lon="5.61689">
        <ele>194.71</ele>
        <time>2018-09-21T15:24:25Z</time>
      </trkpt>
      <trkpt lat="45.28475" lon="5.61683">
        <ele>194.22</ele>
        <time>2018-09-21T15:24:26Z</time>
      </trkpt>
      <trkpt lat="45.28501" lon="5.61677">
        <ele>194.07</ele>
        <time>2018-09-21T15:24:27Z</time>
      </trkpt>
      <trkpt lat="45.28527" lon="5.61671">
        <ele>194.02</ele>
        <time>2018-09-21T15:24:28Z</time>
      </trkpt>
      <trkpt lat="45.28551" lon="5.61667">
        <ele>194.71</ele>
        <time>2018-09-21T15:24:29Z</time>
      </trkpt>
      <trkpt lat="45.28575" lon="5.61663">
        <ele>194.92</ele>
        <time>2018-09-21T15:24:30Z</time>
      </trkpt>
      <trkpt lat="45.28595" lon="5.61659">
        <ele>194.98</ele>
        <time>2018-09-21T15:24:31Z</time>
      </trkpt>
      <trkpt lat="45.28631" lon="5.61652">
        <ele>195.21</ele>
        <time>2018-09-21T15:24:33Z</time>
      </trkpt>
      <trkpt lat="45.28648" lon="5.61647">
        <ele>194.37</ele>
        <time>2018-09-21T15:24:34Z</time>
      </trkpt>
      <trkpt lat="45.28667" lon="5.61644">
        <ele>194.81</ele>
        <time>2018-09-21T15:24:35Z</time>
      </trkpt>
      <trkpt lat="45.28703" lon="5.61635">
        <ele>194.08</ele>
        <time>2018-09-21T15:24:37Z</time>
      </trkpt>
      <trkpt lat="45.28722" lon="5.61632">
        <ele>194.73</ele>
        <time>2018-09-21T15:24:38Z</time>
      </trkpt>
      <trkpt lat="45.28758" lon="5.61623">
        <ele>194.28</ele>
        <time>2018-09-21T15:24:40Z</time>
      </trkpt>
      <trkpt lat="45.28776" lon="5.61619">
        <ele>194.79</ele>
        <time>2018-09-21T15:24:41Z</time>
      </trkpt>
      <trkpt lat="45.28796" lon="5.61616">
        <ele>193.54</ele>
        <time>2018-09-21T15:24:42Z</time>
      </trkpt>
      <trkpt lat="45.28815" lon="5.61612">
        <ele>192.47</ele>
        <time>2018-09-21T15:24:43Z</time>
      </trkpt>
      <trkpt lat="45.28834" lon="5.61609">
        <ele>191.44</ele>
        <time>2018-09-21T15:24:44Z</time>
      </trkpt>
      <trkpt lat="45.28852" lon="5.61605">
        <ele>191.14</ele>
        <time>2018-09-21T15:24:45Z</time>
      </trkpt>
      <trkpt lat="45.28871" lon="5.61601">
        <ele>191.05</ele>
        <time>2018-09-21T15:24:46Z</time>
      </trkpt>
      <trkpt lat="45.2889" lon="5.61597">
        <ele>191.72</ele>
        <time>2018-09-21T15:24:47Z</time>
      </trkpt>
      <trkpt lat="45.28909" lon="5.61593">
        <ele>191.92</ele>
        <time>2018-09-21T15:24:48Z</time>
      </trkpt>
      <trkpt lat="45.28928" lon="5.61589">
        <ele>191.98</ele>
        <time>2018-09-21T15:24:49Z</time>
      </trkpt>
      <trkpt lat="45.28947" lon="5.61585">
        <ele>192</ele>
        <time>2018-09-21T15:24:50Z</time>
      </trkpt>
      <trkpt lat="45.28966" lon="5.6158">
        <ele>192</ele>
        <time>2018-09-21T15:24:51Z</time>
      </trkpt>
      <trkpt lat="45.28985" lon="5.61576">
        <ele>192.01</ele>
        <time>2018-09-21T15:24:52Z</time>
      </trkpt>
      <trkpt lat="45.29003" lon="5.61573">
        <ele>192.01</ele>
        <time>2018-09-21T15:24:53Z</time>
      </trkpt>
      <trkpt lat="45.29022" lon="5.61569">
        <ele>192.71</ele>
        <time>2018-09-21T15:24:54Z</time>
      </trkpt>
      <trkpt lat="45.29041" lon="5.61565">
        <ele>192.92</ele>
        <time>2018-09-21T15:24:55Z</time>
      </trkpt>
      <trkpt lat="45.29061" lon="5.6156">
        <ele>192.98</ele>
        <time>2018-09-21T15:24:56Z</time>
      </trkpt>
      <trkpt lat="45.29081" lon="5.61555">
        <ele>193</ele>
        <time>2018-09-21T15:24:57Z</time>
      </trkpt>
      <trkpt lat="45.29101" lon="5.6155">
        <ele>193</ele>
        <time>2018-09-21T15:24:58Z</time>
      </trkpt>
      <trkpt lat="45.29121" lon="5.61544">
        <ele>193.01</ele>
        <time>2018-09-21T15:24:59Z</time>
      </trkpt>
      <trkpt lat="45.2914" lon="5.61538">
        <ele>193.01</ele>
        <time>2018-09-21T15:25:00Z</time>
      </trkpt>
      <trkpt lat="45.29162" lon="5.6153">
        <ele>193.01</ele>
        <time>2018-09-21T15:25:01Z</time>
      </trkpt>
      <trkpt lat="45.29186" lon="5.61522">
        <ele>193.01</ele>
        <time>2018-09-21T15:25:02Z</time>
      </trkpt>
      <trkpt lat="45.29208" lon="5.61517">
        <ele>193.01</ele>
        <time>2018-09-21T15:25:03Z</time>
      </trkpt>
      <trkpt lat="45.2923" lon="5.61511">
        <ele>193.01</ele>
        <time>2018-09-21T15:25:04Z</time>
      </trkpt>
      <trkpt lat="45.2925" lon="5.61504">
        <ele>193.01</ele>
        <time>2018-09-21T15:25:05Z</time>
      </trkpt>
      <trkpt lat="45.29273" lon="5.61494">
        <ele>193.01</ele>
        <time>2018-09-21T15:25:06Z</time>
      </trkpt>
      <trkpt lat="45.29295" lon="5.61484">
        <ele>193.01</ele>
        <time>2018-09-21T15:25:07Z</time>
      </trkpt>
      <trkpt lat="45.29319" lon="5.61473">
        <ele>193.01</ele>
        <time>2018-09-21T15:25:08Z</time>
      </trkpt>
      <trkpt lat="45.29342" lon="5.61463">
        <ele>193.71</ele>
        <time>2018-09-21T15:25:09Z</time>
      </trkpt>
      <trkpt lat="45.29365" lon="5.61451">
        <ele>193.92</ele>
        <time>2018-09-21T15:25:10Z</time>
      </trkpt>
      <trkpt lat="45.29388" lon="5.61439">
        <ele>193.98</ele>
        <time>2018-09-21T15:25:11Z</time>
      </trkpt>
      <trkpt lat="45.29411" lon="5.61428">
        <ele>194</ele>
        <time>2018-09-21T15:25:12Z</time>
      </trkpt>
      <trkpt lat="45.29434" lon="5.61417">
        <ele>194</ele>
        <time>2018-09-21T15:25:13Z</time>
      </trkpt>
      <trkpt lat="45.29456" lon="5.61403">
        <ele>194.71</ele>
        <time>2018-09-21T15:25:14Z</time>
      </trkpt>
      <trkpt lat="45.29477" lon="5.61389">
        <ele>194.22</ele>
        <time>2018-09-21T15:25:15Z</time>
      </trkpt>
      <trkpt lat="45.29499" lon="5.61371">
        <ele>194.77</ele>
        <time>2018-09-21T15:25:16Z</time>
      </trkpt>
      <trkpt lat="45.29521" lon="5.61354">
        <ele>194.23</ele>
        <time>2018-09-21T15:25:17Z</time>
      </trkpt>
      <trkpt lat="45.29543" lon="5.61333">
        <ele>194.07</ele>
        <time>2018-09-21T15:25:18Z</time>
      </trkpt>
      <trkpt lat="45.29563" lon="5.61309">
        <ele>192.63</ele>
        <time>2018-09-21T15:25:19Z</time>
      </trkpt>
      <trkpt lat="45.29582" lon="5.61285">
        <ele>192.89</ele>
        <time>2018-09-21T15:25:20Z</time>
      </trkpt>
      <trkpt lat="45.296" lon="5.61259">
        <ele>192.97</ele>
        <time>2018-09-21T15:25:21Z</time>
      </trkpt>
      <trkpt lat="45.29618" lon="5.61232">
        <ele>193</ele>
        <time>2018-09-21T15:25:22Z</time>
      </trkpt>
      <trkpt lat="45.29635" lon="5.61203">
        <ele>193</ele>
        <time>2018-09-21T15:25:23Z</time>
      </trkpt>
      <trkpt lat="45.29653" lon="5.61174">
        <ele>193.01</ele>
        <time>2018-09-21T15:25:24Z</time>
      </trkpt>
      <trkpt lat="45.29671" lon="5.61145">
        <ele>193.01</ele>
        <time>2018-09-21T15:25:25Z</time>
      </trkpt>
      <trkpt lat="45.29688" lon="5.61117">
        <ele>193.71</ele>
        <time>2018-09-21T15:25:26Z</time>
      </trkpt>
      <trkpt lat="45.29706" lon="5.6109">
        <ele>193.92</ele>
        <time>2018-09-21T15:25:27Z</time>
      </trkpt>
      <trkpt lat="45.29723" lon="5.61063">
        <ele>193.28</ele>
        <time>2018-09-21T15:25:28Z</time>
      </trkpt>
      <trkpt lat="45.29741" lon="5.61035">
        <ele>193.09</ele>
        <time>2018-09-21T15:25:29Z</time>
      </trkpt>
      <trkpt lat="45.2976" lon="5.61008">
        <ele>193.73</ele>
        <time>2018-09-21T15:25:30Z</time>
      </trkpt>
      <trkpt lat="45.29776" lon="5.60982">
        <ele>193.22</ele>
        <time>2018-09-21T15:25:31Z</time>
      </trkpt>
      <trkpt lat="45.29793" lon="5.60956">
        <ele>193.07</ele>
        <time>2018-09-21T15:25:32Z</time>
      </trkpt>
      <trkpt lat="45.29809" lon="5.60932">
        <ele>193.03</ele>
        <time>2018-09-21T15:25:33Z</time>
      </trkpt>
      <trkpt lat="45.29824" lon="5.60908">
        <ele>193.01</ele>
        <time>2018-09-21T15:25:34Z</time>
      </trkpt>
      <trkpt lat="45.2984" lon="5.60884">
        <ele>193.01</ele>
        <time>2018-09-21T15:25:35Z</time>
      </trkpt>
      <trkpt lat="45.29855" lon="5.6086">
        <ele>193.01</ele>
        <time>2018-09-21T15:25:36Z</time>
      </trkpt>
      <trkpt lat="45.29872" lon="5.60835">
        <ele>193.71</ele>
        <time>2018-09-21T15:25:37Z</time>
      </trkpt>
      <trkpt lat="45.29888" lon="5.60808">
        <ele>193.92</ele>
        <time>2018-09-21T15:25:38Z</time>
      </trkpt>
      <trkpt lat="45.29902" lon="5.60782">
        <ele>191.88</ele>
        <time>2018-09-21T15:25:39Z</time>
      </trkpt>
      <trkpt lat="45.29919" lon="5.60756">
        <ele>191.27</ele>
        <time>2018-09-21T15:25:40Z</time>
      </trkpt>
      <trkpt lat="45.29936" lon="5.60731">
        <ele>191.08</ele>
        <time>2018-09-21T15:25:41Z</time>
      </trkpt>
      <trkpt lat="45.29956" lon="5.60706">
        <ele>191.73</ele>
        <time>2018-09-21T15:25:42Z</time>
      </trkpt>
      <trkpt lat="45.29972" lon="5.60681">
        <ele>191.22</ele>
        <time>2018-09-21T15:25:43Z</time>
      </trkpt>
      <trkpt lat="45.29989" lon="5.60655">
        <ele>191.07</ele>
        <time>2018-09-21T15:25:44Z</time>
      </trkpt>
      <trkpt lat="45.30004" lon="5.60628">
        <ele>191.73</ele>
        <time>2018-09-21T15:25:45Z</time>
      </trkpt>
      <trkpt lat="45.3002" lon="5.60603">
        <ele>192.62</ele>
        <time>2018-09-21T15:25:46Z</time>
      </trkpt>
      <trkpt lat="45.30038" lon="5.60583">
        <ele>192.89</ele>
        <time>2018-09-21T15:25:47Z</time>
      </trkpt>
      <trkpt lat="45.3005" lon="5.60557">
        <ele>194.37</ele>
        <time>2018-09-21T15:25:48Z</time>
      </trkpt>
      <trkpt lat="45.30064" lon="5.60536">
        <ele>194.82</ele>
        <time>2018-09-21T15:25:49Z</time>
      </trkpt>
      <trkpt lat="45.30076" lon="5.60512">
        <ele>194.95</ele>
        <time>2018-09-21T15:25:50Z</time>
      </trkpt>
      <trkpt lat="45.30088" lon="5.6049">
        <ele>194.29</ele>
        <time>2018-09-21T15:25:51Z</time>
      </trkpt>
      <trkpt lat="45.30099" lon="5.60466">
        <ele>193.39</ele>
        <time>2018-09-21T15:25:52Z</time>
      </trkpt>
      <trkpt lat="45.30108" lon="5.60443">
        <ele>193.82</ele>
        <time>2018-09-21T15:25:53Z</time>
      </trkpt>
      <trkpt lat="45.30117" lon="5.60418">
        <ele>193.95</ele>
        <time>2018-09-21T15:25:54Z</time>
      </trkpt>
      <trkpt lat="45.30124" lon="5.60392">
        <ele>194.69</ele>
        <time>2018-09-21T15:25:55Z</time>
      </trkpt>
      <trkpt lat="45.3013" lon="5.60365">
        <ele>194.91</ele>
        <time>2018-09-21T15:25:56Z</time>
      </trkpt>
      <trkpt lat="45.30133" lon="5.60335">
        <ele>194.28</ele>
        <time>2018-09-21T15:25:57Z</time>
      </trkpt>
      <trkpt lat="45.30134" lon="5.60307">
        <ele>194.09</ele>
        <time>2018-09-21T15:25:58Z</time>
      </trkpt>
      <trkpt lat="45.30134" lon="5.60278">
        <ele>194.03</ele>
        <time>2018-09-21T15:25:59Z</time>
      </trkpt>
      <trkpt lat="45.30134" lon="5.60249">
        <ele>194.01</ele>
        <time>2018-09-21T15:26:00Z</time>
      </trkpt>
      <trkpt lat="45.30135" lon="5.6022">
        <ele>194.01</ele>
        <time>2018-09-21T15:26:01Z</time>
      </trkpt>
      <trkpt lat="45.30135" lon="5.60192">
        <ele>194.01</ele>
        <time>2018-09-21T15:26:02Z</time>
      </trkpt>
      <trkpt lat="45.30135" lon="5.60164">
        <ele>194.71</ele>
        <time>2018-09-21T15:26:03Z</time>
      </trkpt>
      <trkpt lat="45.30132" lon="5.60139">
        <ele>194.92</ele>
        <time>2018-09-21T15:26:04Z</time>
      </trkpt>
      <trkpt lat="45.30127" lon="5.60111">
        <ele>194.28</ele>
        <time>2018-09-21T15:26:05Z</time>
      </trkpt>
      <trkpt lat="45.30121" lon="5.60084">
        <ele>193.39</ele>
        <time>2018-09-21T15:26:06Z</time>
      </trkpt>
      <trkpt lat="45.30111" lon="5.60058">
        <ele>193.12</ele>
        <time>2018-09-21T15:26:07Z</time>
      </trkpt>
      <trkpt lat="45.30101" lon="5.60034">
        <ele>193.04</ele>
        <time>2018-09-21T15:26:08Z</time>
      </trkpt>
      <trkpt lat="45.30089" lon="5.60011">
        <ele>193.02</ele>
        <time>2018-09-21T15:26:09Z</time>
      </trkpt>
      <trkpt lat="45.30075" lon="5.5999">
        <ele>193.01</ele>
        <time>2018-09-21T15:26:10Z</time>
      </trkpt>
      <trkpt lat="45.30062" lon="5.59969">
        <ele>193.01</ele>
        <time>2018-09-21T15:26:11Z</time>
      </trkpt>
      <trkpt lat="45.30048" lon="5.59948">
        <ele>193.01</ele>
        <time>2018-09-21T15:26:12Z</time>
      </trkpt>
      <trkpt lat="45.30035" lon="5.59927">
        <ele>193.71</ele>
        <time>2018-09-21T15:26:13Z</time>
      </trkpt>
      <trkpt lat="45.30021" lon="5.59906">
        <ele>193.92</ele>
        <time>2018-09-21T15:26:14Z</time>
      </trkpt>
      <trkpt lat="45.30009" lon="5.59884">
        <ele>193.98</ele>
        <time>2018-09-21T15:26:15Z</time>
      </trkpt>
      <trkpt lat="45.29997" lon="5.59862">
        <ele>194</ele>
        <time>2018-09-21T15:26:16Z</time>
      </trkpt>
      <trkpt lat="45.29985" lon="5.59839">
        <ele>194.7</ele>
        <time>2018-09-21T15:26:17Z</time>
      </trkpt>
      <trkpt lat="45.29973" lon="5.59816">
        <ele>194.92</ele>
        <time>2018-09-21T15:26:18Z</time>
      </trkpt>
      <trkpt lat="45.29958" lon="5.5979">
        <ele>196.38</ele>
        <time>2018-09-21T15:26:19Z</time>
      </trkpt>
      <trkpt lat="45.29942" lon="5.59762">
        <ele>196.82</ele>
        <time>2018-09-21T15:26:20Z</time>
      </trkpt>
      <trkpt lat="45.29925" lon="5.59733">
        <ele>196.95</ele>
        <time>2018-09-21T15:26:21Z</time>
      </trkpt>
      <trkpt lat="45.29907" lon="5.59707">
        <ele>196.99</ele>
        <time>2018-09-21T15:26:22Z</time>
      </trkpt>
      <trkpt lat="45.29888" lon="5.59683">
        <ele>197</ele>
        <time>2018-09-21T15:26:23Z</time>
      </trkpt>
      <trkpt lat="45.29867" lon="5.59662">
        <ele>197</ele>
        <time>2018-09-21T15:26:24Z</time>
      </trkpt>
      <trkpt lat="45.29845" lon="5.59641">
        <ele>197.71</ele>
        <time>2018-09-21T15:26:25Z</time>
      </trkpt>
      <trkpt lat="45.29824" lon="5.5962">
        <ele>197.92</ele>
        <time>2018-09-21T15:26:26Z</time>
      </trkpt>
      <trkpt lat="45.29803" lon="5.59598">
        <ele>198.68</ele>
        <time>2018-09-21T15:26:27Z</time>
      </trkpt>
      <trkpt lat="45.29781" lon="5.59576">
        <ele>198.91</ele>
        <time>2018-09-21T15:26:28Z</time>
      </trkpt>
      <trkpt lat="45.29763" lon="5.5955">
        <ele>198.98</ele>
        <time>2018-09-21T15:26:29Z</time>
      </trkpt>
      <trkpt lat="45.29746" lon="5.59523">
        <ele>199</ele>
        <time>2018-09-21T15:26:30Z</time>
      </trkpt>
      <trkpt lat="45.29729" lon="5.59495">
        <ele>199</ele>
        <time>2018-09-21T15:26:31Z</time>
      </trkpt>
      <trkpt lat="45.29718" lon="5.59462">
        <ele>199.71</ele>
        <time>2018-09-21T15:26:32Z</time>
      </trkpt>
      <trkpt lat="45.29706" lon="5.59432">
        <ele>199.92</ele>
        <time>2018-09-21T15:26:33Z</time>
      </trkpt>
      <trkpt lat="45.29694" lon="5.59401">
        <ele>199.98</ele>
        <time>2018-09-21T15:26:34Z</time>
      </trkpt>
      <trkpt lat="45.29683" lon="5.5937">
        <ele>200</ele>
        <time>2018-09-21T15:26:35Z</time>
      </trkpt>
      <trkpt lat="45.29671" lon="5.59339">
        <ele>200</ele>
        <time>2018-09-21T15:26:36Z</time>
      </trkpt>
      <trkpt lat="45.29659" lon="5.59309">
        <ele>199.31</ele>
        <time>2018-09-21T15:26:37Z</time>
      </trkpt>
      <trkpt lat="45.29644" lon="5.59283">
        <ele>199.8</ele>
        <time>2018-09-21T15:26:38Z</time>
      </trkpt>
      <trkpt lat="45.29629" lon="5.59259">
        <ele>199.94</ele>
        <time>2018-09-21T15:26:39Z</time>
      </trkpt>
      <trkpt lat="45.29615" lon="5.59237">
        <ele>199.99</ele>
        <time>2018-09-21T15:26:40Z</time>
      </trkpt>
      <trkpt lat="45.296" lon="5.59216">
        <ele>200</ele>
        <time>2018-09-21T15:26:41Z</time>
      </trkpt>
      <trkpt lat="45.29587" lon="5.59196">
        <ele>200</ele>
        <time>2018-09-21T15:26:42Z</time>
      </trkpt>
      <trkpt lat="45.29574" lon="5.59177">
        <ele>200.01</ele>
        <time>2018-09-21T15:26:43Z</time>
      </trkpt>
      <trkpt lat="45.29562" lon="5.59157">
        <ele>200.01</ele>
        <time>2018-09-21T15:26:44Z</time>
      </trkpt>
      <trkpt lat="45.29549" lon="5.59137">
        <ele>200.01</ele>
        <time>2018-09-21T15:26:45Z</time>
      </trkpt>
      <trkpt lat="45.29537" lon="5.59117">
        <ele>200.71</ele>
        <time>2018-09-21T15:26:46Z</time>
      </trkpt>
      <trkpt lat="45.29524" lon="5.59097">
        <ele>200.92</ele>
        <time>2018-09-21T15:26:47Z</time>
      </trkpt>
      <trkpt lat="45.29511" lon="5.59077">
        <ele>200.98</ele>
        <time>2018-09-21T15:26:48Z</time>
      </trkpt>
      <trkpt lat="45.29487" lon="5.5904">
        <ele>201</ele>
        <time>2018-09-21T15:26:50Z</time>
      </trkpt>
      <trkpt lat="45.29465" lon="5.58999">
        <ele>202.62</ele>
        <time>2018-09-21T15:26:52Z</time>
      </trkpt>
      <trkpt lat="45.29447" lon="5.58956">
        <ele>204.58</ele>
        <time>2018-09-21T15:26:54Z</time>
      </trkpt>
      <trkpt lat="45.29431" lon="5.58912">
        <ele>205.67</ele>
        <time>2018-09-21T15:26:56Z</time>
      </trkpt>
      <trkpt lat="45.29424" lon="5.58888">
        <ele>205.9</ele>
        <time>2018-09-21T15:26:57Z</time>
      </trkpt>
      <trkpt lat="45.29416" lon="5.58864">
        <ele>205.98</ele>
        <time>2018-09-21T15:26:58Z</time>
      </trkpt>
      <trkpt lat="45.29409" lon="5.58841">
        <ele>206</ele>
        <time>2018-09-21T15:26:59Z</time>
      </trkpt>
      <trkpt lat="45.29393" lon="5.58795">
        <ele>205.8</ele>
        <time>2018-09-21T15:27:01Z</time>
      </trkpt>
      <trkpt lat="45.29386" lon="5.58771">
        <ele>205.24</ele>
        <time>2018-09-21T15:27:02Z</time>
      </trkpt>
      <trkpt lat="45.29372" lon="5.58724">
        <ele>205.03</ele>
        <time>2018-09-21T15:27:04Z</time>
      </trkpt>
      <trkpt lat="45.29365" lon="5.587">
        <ele>205.71</ele>
        <time>2018-09-21T15:27:05Z</time>
      </trkpt>
      <trkpt lat="45.29358" lon="5.58676">
        <ele>206.62</ele>
        <time>2018-09-21T15:27:06Z</time>
      </trkpt>
      <trkpt lat="45.29353" lon="5.5865">
        <ele>206.89</ele>
        <time>2018-09-21T15:27:07Z</time>
      </trkpt>
      <trkpt lat="45.29348" lon="5.58625">
        <ele>206.97</ele>
        <time>2018-09-21T15:27:08Z</time>
      </trkpt>
      <trkpt lat="45.29345" lon="5.586">
        <ele>207.7</ele>
        <time>2018-09-21T15:27:09Z</time>
      </trkpt>
      <trkpt lat="45.29342" lon="5.58574">
        <ele>207.91</ele>
        <time>2018-09-21T15:27:10Z</time>
      </trkpt>
      <trkpt lat="45.29339" lon="5.58548">
        <ele>208.68</ele>
        <time>2018-09-21T15:27:11Z</time>
      </trkpt>
      <trkpt lat="45.29337" lon="5.58522">
        <ele>208.21</ele>
        <time>2018-09-21T15:27:12Z</time>
      </trkpt>
      <trkpt lat="45.29335" lon="5.58495">
        <ele>208.07</ele>
        <time>2018-09-21T15:27:13Z</time>
      </trkpt>
      <trkpt lat="45.29333" lon="5.58467">
        <ele>208.02</ele>
        <time>2018-09-21T15:27:14Z</time>
      </trkpt>
      <trkpt lat="45.29331" lon="5.58438">
        <ele>208.71</ele>
        <time>2018-09-21T15:27:15Z</time>
      </trkpt>
      <trkpt lat="45.29329" lon="5.58409">
        <ele>208.92</ele>
        <time>2018-09-21T15:27:16Z</time>
      </trkpt>
      <trkpt lat="45.29328" lon="5.58379">
        <ele>206.88</ele>
        <time>2018-09-21T15:27:17Z</time>
      </trkpt>
      <trkpt lat="45.29326" lon="5.5835">
        <ele>206.27</ele>
        <time>2018-09-21T15:27:18Z</time>
      </trkpt>
      <trkpt lat="45.29323" lon="5.5832">
        <ele>205.38</ele>
        <time>2018-09-21T15:27:19Z</time>
      </trkpt>
      <trkpt lat="45.2932" lon="5.5829">
        <ele>205.12</ele>
        <time>2018-09-21T15:27:20Z</time>
      </trkpt>
      <trkpt lat="45.29318" lon="5.5826">
        <ele>205.04</ele>
        <time>2018-09-21T15:27:21Z</time>
      </trkpt>
      <trkpt lat="45.29314" lon="5.5823">
        <ele>205.02</ele>
        <time>2018-09-21T15:27:22Z</time>
      </trkpt>
      <trkpt lat="45.2931" lon="5.58199">
        <ele>204.31</ele>
        <time>2018-09-21T15:27:23Z</time>
      </trkpt>
      <trkpt lat="45.29307" lon="5.58168">
        <ele>204.1</ele>
        <time>2018-09-21T15:27:24Z</time>
      </trkpt>
      <trkpt lat="45.29303" lon="5.58135">
        <ele>203.33</ele>
        <time>2018-09-21T15:27:25Z</time>
      </trkpt>
      <trkpt lat="45.293" lon="5.58104">
        <ele>203.1</ele>
        <time>2018-09-21T15:27:26Z</time>
      </trkpt>
      <trkpt lat="45.29296" lon="5.58074">
        <ele>202.34</ele>
        <time>2018-09-21T15:27:27Z</time>
      </trkpt>
      <trkpt lat="45.2929" lon="5.58045">
        <ele>201.4</ele>
        <time>2018-09-21T15:27:28Z</time>
      </trkpt>
      <trkpt lat="45.29284" lon="5.58017">
        <ele>201.13</ele>
        <time>2018-09-21T15:27:29Z</time>
      </trkpt>
      <trkpt lat="45.29276" lon="5.57989">
        <ele>200.34</ele>
        <time>2018-09-21T15:27:30Z</time>
      </trkpt>
      <trkpt lat="45.29268" lon="5.57961">
        <ele>199.41</ele>
        <time>2018-09-21T15:27:31Z</time>
      </trkpt>
      <trkpt lat="45.2926" lon="5.57933">
        <ele>198.43</ele>
        <time>2018-09-21T15:27:32Z</time>
      </trkpt>
      <trkpt lat="45.29251" lon="5.57903">
        <ele>198.13</ele>
        <time>2018-09-21T15:27:33Z</time>
      </trkpt>
      <trkpt lat="45.29242" lon="5.57873">
        <ele>197.34</ele>
        <time>2018-09-21T15:27:34Z</time>
      </trkpt>
      <trkpt lat="45.29232" lon="5.57842">
        <ele>196.41</ele>
        <time>2018-09-21T15:27:35Z</time>
      </trkpt>
      <trkpt lat="45.29223" lon="5.5781">
        <ele>196.13</ele>
        <time>2018-09-21T15:27:36Z</time>
      </trkpt>
      <trkpt lat="45.29213" lon="5.57777">
        <ele>195.34</ele>
        <time>2018-09-21T15:27:37Z</time>
      </trkpt>
      <trkpt lat="45.29204" lon="5.57745">
        <ele>194.41</ele>
        <time>2018-09-21T15:27:38Z</time>
      </trkpt>
      <trkpt lat="45.29195" lon="5.57714">
        <ele>194.13</ele>
        <time>2018-09-21T15:27:39Z</time>
      </trkpt>
      <trkpt lat="45.29187" lon="5.57683">
        <ele>193.34</ele>
        <time>2018-09-21T15:27:40Z</time>
      </trkpt>
      <trkpt lat="45.29178" lon="5.57653">
        <ele>193.11</ele>
        <time>2018-09-21T15:27:41Z</time>
      </trkpt>
      <trkpt lat="45.2917" lon="5.57623">
        <ele>192.34</ele>
        <time>2018-09-21T15:27:42Z</time>
      </trkpt>
      <trkpt lat="45.29161" lon="5.57593">
        <ele>191.41</ele>
        <time>2018-09-21T15:27:43Z</time>
      </trkpt>
      <trkpt lat="45.29152" lon="5.57562">
        <ele>191.13</ele>
        <time>2018-09-21T15:27:44Z</time>
      </trkpt>
      <trkpt lat="45.29143" lon="5.57531">
        <ele>190.34</ele>
        <time>2018-09-21T15:27:45Z</time>
      </trkpt>
      <trkpt lat="45.29134" lon="5.575">
        <ele>190.11</ele>
        <time>2018-09-21T15:27:46Z</time>
      </trkpt>
      <trkpt lat="45.29125" lon="5.57468">
        <ele>190.74</ele>
        <time>2018-09-21T15:27:47Z</time>
      </trkpt>
      <trkpt lat="45.29115" lon="5.57437">
        <ele>190.23</ele>
        <time>2018-09-21T15:27:48Z</time>
      </trkpt>
      <trkpt lat="45.29106" lon="5.57405">
        <ele>190.07</ele>
        <time>2018-09-21T15:27:49Z</time>
      </trkpt>
      <trkpt lat="45.29096" lon="5.57373">
        <ele>190.03</ele>
        <time>2018-09-21T15:27:50Z</time>
      </trkpt>
      <trkpt lat="45.29087" lon="5.57341">
        <ele>190.01</ele>
        <time>2018-09-21T15:27:51Z</time>
      </trkpt>
      <trkpt lat="45.29077" lon="5.57309">
        <ele>190.01</ele>
        <time>2018-09-21T15:27:52Z</time>
      </trkpt>
      <trkpt lat="45.29068" lon="5.57278">
        <ele>190.71</ele>
        <time>2018-09-21T15:27:53Z</time>
      </trkpt>
      <trkpt lat="45.29059" lon="5.57246">
        <ele>190.22</ele>
        <time>2018-09-21T15:27:54Z</time>
      </trkpt>
      <trkpt lat="45.2905" lon="5.57215">
        <ele>190.77</ele>
        <time>2018-09-21T15:27:55Z</time>
      </trkpt>
      <trkpt lat="45.29041" lon="5.57183">
        <ele>190.93</ele>
        <time>2018-09-21T15:27:56Z</time>
      </trkpt>
      <trkpt lat="45.29032" lon="5.57152">
        <ele>190.28</ele>
        <time>2018-09-21T15:27:57Z</time>
      </trkpt>
      <trkpt lat="45.29023" lon="5.5712">
        <ele>190.09</ele>
        <time>2018-09-21T15:27:58Z</time>
      </trkpt>
      <trkpt lat="45.29014" lon="5.57088">
        <ele>189.33</ele>
        <time>2018-09-21T15:27:59Z</time>
      </trkpt>
      <trkpt lat="45.29005" lon="5.57056">
        <ele>189.8</ele>
        <time>2018-09-21T15:28:00Z</time>
      </trkpt>
      <trkpt lat="45.28995" lon="5.57024">
        <ele>189.95</ele>
        <time>2018-09-21T15:28:01Z</time>
      </trkpt>
      <trkpt lat="45.28985" lon="5.56992">
        <ele>189.29</ele>
        <time>2018-09-21T15:28:02Z</time>
      </trkpt>
      <trkpt lat="45.28976" lon="5.56959">
        <ele>189.79</ele>
        <time>2018-09-21T15:28:03Z</time>
      </trkpt>
      <trkpt lat="45.28966" lon="5.56927">
        <ele>189.24</ele>
        <time>2018-09-21T15:28:04Z</time>
      </trkpt>
      <trkpt lat="45.28956" lon="5.56896">
        <ele>189.08</ele>
        <time>2018-09-21T15:28:05Z</time>
      </trkpt>
      <trkpt lat="45.28947" lon="5.56865">
        <ele>189.03</ele>
        <time>2018-09-21T15:28:06Z</time>
      </trkpt>
      <trkpt lat="45.28939" lon="5.56836">
        <ele>189.01</ele>
        <time>2018-09-21T15:28:07Z</time>
      </trkpt>
      <trkpt lat="45.28931" lon="5.56807">
        <ele>189.01</ele>
        <time>2018-09-21T15:28:08Z</time>
      </trkpt>
      <trkpt lat="45.28922" lon="5.5678">
        <ele>189.71</ele>
        <time>2018-09-21T15:28:09Z</time>
      </trkpt>
      <trkpt lat="45.28915" lon="5.56754">
        <ele>189.22</ele>
        <time>2018-09-21T15:28:10Z</time>
      </trkpt>
      <trkpt lat="45.28907" lon="5.56727">
        <ele>189.77</ele>
        <time>2018-09-21T15:28:11Z</time>
      </trkpt>
      <trkpt lat="45.28899" lon="5.567">
        <ele>189.93</ele>
        <time>2018-09-21T15:28:12Z</time>
      </trkpt>
      <trkpt lat="45.28891" lon="5.56672">
        <ele>189.98</ele>
        <time>2018-09-21T15:28:13Z</time>
      </trkpt>
      <trkpt lat="45.28882" lon="5.56644">
        <ele>190</ele>
        <time>2018-09-21T15:28:14Z</time>
      </trkpt>
      <trkpt lat="45.28873" lon="5.56614">
        <ele>190</ele>
        <time>2018-09-21T15:28:15Z</time>
      </trkpt>
      <trkpt lat="45.28865" lon="5.56585">
        <ele>190.01</ele>
        <time>2018-09-21T15:28:16Z</time>
      </trkpt>
      <trkpt lat="45.28857" lon="5.56556">
        <ele>190.01</ele>
        <time>2018-09-21T15:28:17Z</time>
      </trkpt>
      <trkpt lat="45.28848" lon="5.56527">
        <ele>190.01</ele>
        <time>2018-09-21T15:28:18Z</time>
      </trkpt>
      <trkpt lat="45.2884" lon="5.56497">
        <ele>189.31</ele>
        <time>2018-09-21T15:28:19Z</time>
      </trkpt>
      <trkpt lat="45.28831" lon="5.56468">
        <ele>189.1</ele>
        <time>2018-09-21T15:28:20Z</time>
      </trkpt>
      <trkpt lat="45.28822" lon="5.56437">
        <ele>189.73</ele>
        <time>2018-09-21T15:28:21Z</time>
      </trkpt>
      <trkpt lat="45.28813" lon="5.56406">
        <ele>189.22</ele>
        <time>2018-09-21T15:28:22Z</time>
      </trkpt>
      <trkpt lat="45.28804" lon="5.56375">
        <ele>188.37</ele>
        <time>2018-09-21T15:28:23Z</time>
      </trkpt>
      <trkpt lat="45.28794" lon="5.56344">
        <ele>188.12</ele>
        <time>2018-09-21T15:28:24Z</time>
      </trkpt>
      <trkpt lat="45.28785" lon="5.56313">
        <ele>187.34</ele>
        <time>2018-09-21T15:28:25Z</time>
      </trkpt>
      <trkpt lat="45.28777" lon="5.56283">
        <ele>187.11</ele>
        <time>2018-09-21T15:28:26Z</time>
      </trkpt>
      <trkpt lat="45.28767" lon="5.56252">
        <ele>187.04</ele>
        <time>2018-09-21T15:28:27Z</time>
      </trkpt>
      <trkpt lat="45.28758" lon="5.56221">
        <ele>187.01</ele>
        <time>2018-09-21T15:28:28Z</time>
      </trkpt>
      <trkpt lat="45.28749" lon="5.5619">
        <ele>187.71</ele>
        <time>2018-09-21T15:28:29Z</time>
      </trkpt>
      <trkpt lat="45.28741" lon="5.56159">
        <ele>187.22</ele>
        <time>2018-09-21T15:28:30Z</time>
      </trkpt>
      <trkpt lat="45.28732" lon="5.56128">
        <ele>187.77</ele>
        <time>2018-09-21T15:28:31Z</time>
      </trkpt>
      <trkpt lat="45.28724" lon="5.56097">
        <ele>187.93</ele>
        <time>2018-09-21T15:28:32Z</time>
      </trkpt>
      <trkpt lat="45.28715" lon="5.56067">
        <ele>187.98</ele>
        <time>2018-09-21T15:28:33Z</time>
      </trkpt>
      <trkpt lat="45.28706" lon="5.56037">
        <ele>188</ele>
        <time>2018-09-21T15:28:34Z</time>
      </trkpt>
      <trkpt lat="45.28696" lon="5.56006">
        <ele>188.7</ele>
        <time>2018-09-21T15:28:35Z</time>
      </trkpt>
      <trkpt lat="45.28687" lon="5.55975">
        <ele>188.22</ele>
        <time>2018-09-21T15:28:36Z</time>
      </trkpt>
      <trkpt lat="45.28678" lon="5.55945">
        <ele>188.07</ele>
        <time>2018-09-21T15:28:37Z</time>
      </trkpt>
      <trkpt lat="45.2867" lon="5.55915">
        <ele>187.32</ele>
        <time>2018-09-21T15:28:38Z</time>
      </trkpt>
      <trkpt lat="45.28662" lon="5.55886">
        <ele>187.1</ele>
        <time>2018-09-21T15:28:39Z</time>
      </trkpt>
      <trkpt lat="45.28654" lon="5.55857">
        <ele>187.03</ele>
        <time>2018-09-21T15:28:40Z</time>
      </trkpt>
      <trkpt lat="45.28646" lon="5.55828">
        <ele>187.01</ele>
        <time>2018-09-21T15:28:41Z</time>
      </trkpt>
      <trkpt lat="45.28638" lon="5.55799">
        <ele>187.01</ele>
        <time>2018-09-21T15:28:42Z</time>
      </trkpt>
      <trkpt lat="45.2863" lon="5.55771">
        <ele>186.31</ele>
        <time>2018-09-21T15:28:43Z</time>
      </trkpt>
      <trkpt lat="45.28621" lon="5.55742">
        <ele>186.1</ele>
        <time>2018-09-21T15:28:44Z</time>
      </trkpt>
      <trkpt lat="45.28613" lon="5.55713">
        <ele>186.03</ele>
        <time>2018-09-21T15:28:45Z</time>
      </trkpt>
      <trkpt lat="45.28604" lon="5.55684">
        <ele>186.71</ele>
        <time>2018-09-21T15:28:46Z</time>
      </trkpt>
      <trkpt lat="45.28595" lon="5.55654">
        <ele>186.92</ele>
        <time>2018-09-21T15:28:47Z</time>
      </trkpt>
      <trkpt lat="45.28585" lon="5.55624">
        <ele>186.98</ele>
        <time>2018-09-21T15:28:48Z</time>
      </trkpt>
      <trkpt lat="45.28576" lon="5.55594">
        <ele>187.7</ele>
        <time>2018-09-21T15:28:49Z</time>
      </trkpt>
      <trkpt lat="45.28566" lon="5.55564">
        <ele>187.21</ele>
        <time>2018-09-21T15:28:50Z</time>
      </trkpt>
      <trkpt lat="45.28556" lon="5.55532">
        <ele>187.07</ele>
        <time>2018-09-21T15:28:51Z</time>
      </trkpt>
      <trkpt lat="45.28546" lon="5.55499">
        <ele>186.32</ele>
        <time>2018-09-21T15:28:52Z</time>
      </trkpt>
      <trkpt lat="45.28537" lon="5.55466">
        <ele>186.1</ele>
        <time>2018-09-21T15:28:53Z</time>
      </trkpt>
      <trkpt lat="45.28528" lon="5.55434">
        <ele>186.73</ele>
        <time>2018-09-21T15:28:54Z</time>
      </trkpt>
      <trkpt lat="45.28519" lon="5.55402">
        <ele>186.92</ele>
        <time>2018-09-21T15:28:55Z</time>
      </trkpt>
      <trkpt lat="45.2851" lon="5.5537">
        <ele>186.98</ele>
        <time>2018-09-21T15:28:56Z</time>
      </trkpt>
      <trkpt lat="45.285" lon="5.55338">
        <ele>187.7</ele>
        <time>2018-09-21T15:28:57Z</time>
      </trkpt>
      <trkpt lat="45.2849" lon="5.55303">
        <ele>187.21</ele>
        <time>2018-09-21T15:28:58Z</time>
      </trkpt>
      <trkpt lat="45.28481" lon="5.55269">
        <ele>186.37</ele>
        <time>2018-09-21T15:28:59Z</time>
      </trkpt>
      <trkpt lat="45.28472" lon="5.55234">
        <ele>186.11</ele>
        <time>2018-09-21T15:29:00Z</time>
      </trkpt>
      <trkpt lat="45.28463" lon="5.552">
        <ele>186.04</ele>
        <time>2018-09-21T15:29:01Z</time>
      </trkpt>
      <trkpt lat="45.28454" lon="5.55166">
        <ele>186.02</ele>
        <time>2018-09-21T15:29:02Z</time>
      </trkpt>
      <trkpt lat="45.28445" lon="5.55132">
        <ele>186.01</ele>
        <time>2018-09-21T15:29:03Z</time>
      </trkpt>
      <trkpt lat="45.28436" lon="5.55098">
        <ele>186.01</ele>
        <time>2018-09-21T15:29:04Z</time>
      </trkpt>
      <trkpt lat="45.28427" lon="5.55065">
        <ele>186.01</ele>
        <time>2018-09-21T15:29:05Z</time>
      </trkpt>
      <trkpt lat="45.28418" lon="5.55032">
        <ele>186.01</ele>
        <time>2018-09-21T15:29:06Z</time>
      </trkpt>
      <trkpt lat="45.28409" lon="5.55">
        <ele>186.01</ele>
        <time>2018-09-21T15:29:07Z</time>
      </trkpt>
      <trkpt lat="45.28401" lon="5.54969">
        <ele>186.01</ele>
        <time>2018-09-21T15:29:08Z</time>
      </trkpt>
      <trkpt lat="45.28392" lon="5.54935">
        <ele>186.71</ele>
        <time>2018-09-21T15:29:09Z</time>
      </trkpt>
      <trkpt lat="45.28382" lon="5.54901">
        <ele>186.92</ele>
        <time>2018-09-21T15:29:10Z</time>
      </trkpt>
      <trkpt lat="45.28373" lon="5.54867">
        <ele>186.98</ele>
        <time>2018-09-21T15:29:11Z</time>
      </trkpt>
      <trkpt lat="45.28363" lon="5.54834">
        <ele>187</ele>
        <time>2018-09-21T15:29:12Z</time>
      </trkpt>
      <trkpt lat="45.28354" lon="5.54803">
        <ele>187</ele>
        <time>2018-09-21T15:29:13Z</time>
      </trkpt>
      <trkpt lat="45.28344" lon="5.54775">
        <ele>187.71</ele>
        <time>2018-09-21T15:29:14Z</time>
      </trkpt>
      <trkpt lat="45.28335" lon="5.54748">
        <ele>188.62</ele>
        <time>2018-09-21T15:29:15Z</time>
      </trkpt>
      <trkpt lat="45.28326" lon="5.54722">
        <ele>189.59</ele>
        <time>2018-09-21T15:29:16Z</time>
      </trkpt>
      <trkpt lat="45.28316" lon="5.54698">
        <ele>189.88</ele>
        <time>2018-09-21T15:29:17Z</time>
      </trkpt>
      <trkpt lat="45.28307" lon="5.54675">
        <ele>189.97</ele>
        <time>2018-09-21T15:29:18Z</time>
      </trkpt>
      <trkpt lat="45.28298" lon="5.54652">
        <ele>189.99</ele>
        <time>2018-09-21T15:29:19Z</time>
      </trkpt>
      <trkpt lat="45.28289" lon="5.54629">
        <ele>190</ele>
        <time>2018-09-21T15:29:20Z</time>
      </trkpt>
      <trkpt lat="45.2828" lon="5.54606">
        <ele>190</ele>
        <time>2018-09-21T15:29:21Z</time>
      </trkpt>
      <trkpt lat="45.28271" lon="5.54584">
        <ele>190.01</ele>
        <time>2018-09-21T15:29:22Z</time>
      </trkpt>
      <trkpt lat="45.28254" lon="5.54539">
        <ele>190.01</ele>
        <time>2018-09-21T15:29:24Z</time>
      </trkpt>
      <trkpt lat="45.28245" lon="5.54516">
        <ele>190.01</ele>
        <time>2018-09-21T15:29:25Z</time>
      </trkpt>
      <trkpt lat="45.28236" lon="5.54494">
        <ele>190.01</ele>
        <time>2018-09-21T15:29:26Z</time>
      </trkpt>
      <trkpt lat="45.28226" lon="5.54471">
        <ele>190.01</ele>
        <time>2018-09-21T15:29:27Z</time>
      </trkpt>
      <trkpt lat="45.28217" lon="5.54447">
        <ele>190.01</ele>
        <time>2018-09-21T15:29:28Z</time>
      </trkpt>
      <trkpt lat="45.28207" lon="5.54422">
        <ele>190.01</ele>
        <time>2018-09-21T15:29:29Z</time>
      </trkpt>
      <trkpt lat="45.28197" lon="5.54398">
        <ele>190.01</ele>
        <time>2018-09-21T15:29:30Z</time>
      </trkpt>
      <trkpt lat="45.28187" lon="5.54372">
        <ele>190.71</ele>
        <time>2018-09-21T15:29:31Z</time>
      </trkpt>
      <trkpt lat="45.28178" lon="5.54348">
        <ele>190.22</ele>
        <time>2018-09-21T15:29:32Z</time>
      </trkpt>
      <trkpt lat="45.28168" lon="5.54324">
        <ele>190.07</ele>
        <time>2018-09-21T15:29:33Z</time>
      </trkpt>
      <trkpt lat="45.28159" lon="5.543">
        <ele>189.32</ele>
        <time>2018-09-21T15:29:34Z</time>
      </trkpt>
      <trkpt lat="45.2815" lon="5.54275">
        <ele>189.1</ele>
        <time>2018-09-21T15:29:35Z</time>
      </trkpt>
      <trkpt lat="45.2814" lon="5.54251">
        <ele>189.03</ele>
        <time>2018-09-21T15:29:36Z</time>
      </trkpt>
      <trkpt lat="45.28131" lon="5.54228">
        <ele>189.01</ele>
        <time>2018-09-21T15:29:37Z</time>
      </trkpt>
      <trkpt lat="45.28122" lon="5.54204">
        <ele>189.01</ele>
        <time>2018-09-21T15:29:38Z</time>
      </trkpt>
      <trkpt lat="45.28112" lon="5.5418">
        <ele>189.01</ele>
        <time>2018-09-21T15:29:39Z</time>
      </trkpt>
      <trkpt lat="45.28103" lon="5.54157">
        <ele>189.01</ele>
        <time>2018-09-21T15:29:40Z</time>
      </trkpt>
      <trkpt lat="45.28093" lon="5.54133">
        <ele>189.01</ele>
        <time>2018-09-21T15:29:41Z</time>
      </trkpt>
      <trkpt lat="45.28084" lon="5.5411">
        <ele>189.01</ele>
        <time>2018-09-21T15:29:42Z</time>
      </trkpt>
      <trkpt lat="45.28067" lon="5.54067">
        <ele>189.92</ele>
        <time>2018-09-21T15:29:44Z</time>
      </trkpt>
      <trkpt lat="45.28053" lon="5.54029">
        <ele>190.91</ele>
        <time>2018-09-21T15:29:46Z</time>
      </trkpt>
      <trkpt lat="45.28043" lon="5.54">
        <ele>191.91</ele>
        <time>2018-09-21T15:29:48Z</time>
      </trkpt>
      <trkpt lat="45.28035" lon="5.53977">
        <ele>192.91</ele>
        <time>2018-09-21T15:29:50Z</time>
      </trkpt>
      <trkpt lat="45.28026" lon="5.53952">
        <ele>193.91</ele>
        <time>2018-09-21T15:29:53Z</time>
      </trkpt>
      <trkpt lat="45.28015" lon="5.53925">
        <ele>194.92</ele>
        <time>2018-09-21T15:29:57Z</time>
      </trkpt>
      <trkpt lat="45.28005" lon="5.53902">
        <ele>194.3</ele>
        <time>2018-09-21T15:30:00Z</time>
      </trkpt>
      <trkpt lat="45.28009" lon="5.53874">
        <ele>194.29</ele>
        <time>2018-09-21T15:30:03Z</time>
      </trkpt>
      <trkpt lat="45.28023" lon="5.5385">
        <ele>192.19</ele>
        <time>2018-09-21T15:30:06Z</time>
      </trkpt>
      <trkpt lat="45.28035" lon="5.53827">
        <ele>190.41</ele>
        <time>2018-09-21T15:30:08Z</time>
      </trkpt>
      <trkpt lat="45.28051" lon="5.53802">
        <ele>189.34</ele>
        <time>2018-09-21T15:30:10Z</time>
      </trkpt>
      <trkpt lat="45.2807" lon="5.53775">
        <ele>188.13</ele>
        <time>2018-09-21T15:30:12Z</time>
      </trkpt>
      <trkpt lat="45.28091" lon="5.53745">
        <ele>187.32</ele>
        <time>2018-09-21T15:30:14Z</time>
      </trkpt>
      <trkpt lat="45.28111" lon="5.53715">
        <ele>187.03</ele>
        <time>2018-09-21T15:30:16Z</time>
      </trkpt>
      <trkpt lat="45.28132" lon="5.53683">
        <ele>187.01</ele>
        <time>2018-09-21T15:30:18Z</time>
      </trkpt>
      <trkpt lat="45.28152" lon="5.53652">
        <ele>187.01</ele>
        <time>2018-09-21T15:30:20Z</time>
      </trkpt>
      <trkpt lat="45.28172" lon="5.5362">
        <ele>187.01</ele>
        <time>2018-09-21T15:30:22Z</time>
      </trkpt>
      <trkpt lat="45.28195" lon="5.53584">
        <ele>187.01</ele>
        <time>2018-09-21T15:30:24Z</time>
      </trkpt>
      <trkpt lat="45.28219" lon="5.53546">
        <ele>187.01</ele>
        <time>2018-09-21T15:30:26Z</time>
      </trkpt>
      <trkpt lat="45.28232" lon="5.53525">
        <ele>187.01</ele>
        <time>2018-09-21T15:30:27Z</time>
      </trkpt>
      <trkpt lat="45.28245" lon="5.53502">
        <ele>186.31</ele>
        <time>2018-09-21T15:30:28Z</time>
      </trkpt>
      <trkpt lat="45.2826" lon="5.53479">
        <ele>186.8</ele>
        <time>2018-09-21T15:30:29Z</time>
      </trkpt>
      <trkpt lat="45.28277" lon="5.53452">
        <ele>186.94</ele>
        <time>2018-09-21T15:30:30Z</time>
      </trkpt>
      <trkpt lat="45.28293" lon="5.53425">
        <ele>186.99</ele>
        <time>2018-09-21T15:30:31Z</time>
      </trkpt>
      <trkpt lat="45.28308" lon="5.53402">
        <ele>186.3</ele>
        <time>2018-09-21T15:30:32Z</time>
      </trkpt>
      <trkpt lat="45.28323" lon="5.53379">
        <ele>186.09</ele>
        <time>2018-09-21T15:30:33Z</time>
      </trkpt>
      <trkpt lat="45.28338" lon="5.53356">
        <ele>186.03</ele>
        <time>2018-09-21T15:30:34Z</time>
      </trkpt>
      <trkpt lat="45.28352" lon="5.53331">
        <ele>186.01</ele>
        <time>2018-09-21T15:30:35Z</time>
      </trkpt>
      <trkpt lat="45.28367" lon="5.53306">
        <ele>186.71</ele>
        <time>2018-09-21T15:30:36Z</time>
      </trkpt>
      <trkpt lat="45.28382" lon="5.53279">
        <ele>186.92</ele>
        <time>2018-09-21T15:30:37Z</time>
      </trkpt>
      <trkpt lat="45.28396" lon="5.53249">
        <ele>186.98</ele>
        <time>2018-09-21T15:30:38Z</time>
      </trkpt>
      <trkpt lat="45.28412" lon="5.53215">
        <ele>187</ele>
        <time>2018-09-21T15:30:39Z</time>
      </trkpt>
      <trkpt lat="45.28427" lon="5.53182">
        <ele>187.7</ele>
        <time>2018-09-21T15:30:40Z</time>
      </trkpt>
      <trkpt lat="45.28441" lon="5.5315">
        <ele>187.22</ele>
        <time>2018-09-21T15:30:41Z</time>
      </trkpt>
      <trkpt lat="45.28454" lon="5.53119">
        <ele>187.07</ele>
        <time>2018-09-21T15:30:42Z</time>
      </trkpt>
      <trkpt lat="45.28467" lon="5.53088">
        <ele>187.02</ele>
        <time>2018-09-21T15:30:43Z</time>
      </trkpt>
      <trkpt lat="45.28479" lon="5.53058">
        <ele>187.71</ele>
        <time>2018-09-21T15:30:44Z</time>
      </trkpt>
      <trkpt lat="45.2849" lon="5.53027">
        <ele>187.92</ele>
        <time>2018-09-21T15:30:45Z</time>
      </trkpt>
      <trkpt lat="45.28502" lon="5.52997">
        <ele>187.98</ele>
        <time>2018-09-21T15:30:46Z</time>
      </trkpt>
      <trkpt lat="45.28513" lon="5.52968">
        <ele>188.7</ele>
        <time>2018-09-21T15:30:47Z</time>
      </trkpt>
      <trkpt lat="45.28525" lon="5.52938">
        <ele>189.61</ele>
        <time>2018-09-21T15:30:48Z</time>
      </trkpt>
      <trkpt lat="45.28536" lon="5.52909">
        <ele>190.59</ele>
        <time>2018-09-21T15:30:49Z</time>
      </trkpt>
      <trkpt lat="45.28547" lon="5.5288">
        <ele>191.58</ele>
        <time>2018-09-21T15:30:50Z</time>
      </trkpt>
      <trkpt lat="45.28558" lon="5.52852">
        <ele>192.58</ele>
        <time>2018-09-21T15:30:51Z</time>
      </trkpt>
      <trkpt lat="45.28568" lon="5.52825">
        <ele>192.88</ele>
        <time>2018-09-21T15:30:52Z</time>
      </trkpt>
      <trkpt lat="45.28578" lon="5.52798">
        <ele>192.97</ele>
        <time>2018-09-21T15:30:53Z</time>
      </trkpt>
      <trkpt lat="45.28588" lon="5.52772">
        <ele>192.99</ele>
        <time>2018-09-21T15:30:54Z</time>
      </trkpt>
      <trkpt lat="45.28598" lon="5.52745">
        <ele>193</ele>
        <time>2018-09-21T15:30:55Z</time>
      </trkpt>
      <trkpt lat="45.28609" lon="5.52717">
        <ele>193</ele>
        <time>2018-09-21T15:30:56Z</time>
      </trkpt>
      <trkpt lat="45.28619" lon="5.5269">
        <ele>192.31</ele>
        <time>2018-09-21T15:30:57Z</time>
      </trkpt>
      <trkpt lat="45.2863" lon="5.52663">
        <ele>191.4</ele>
        <time>2018-09-21T15:30:58Z</time>
      </trkpt>
      <trkpt lat="45.2864" lon="5.52636">
        <ele>191.12</ele>
        <time>2018-09-21T15:30:59Z</time>
      </trkpt>
      <trkpt lat="45.2865" lon="5.52609">
        <ele>190.34</ele>
        <time>2018-09-21T15:31:00Z</time>
      </trkpt>
      <trkpt lat="45.28659" lon="5.52584">
        <ele>189.41</ele>
        <time>2018-09-21T15:31:01Z</time>
      </trkpt>
      <trkpt lat="45.28669" lon="5.5256">
        <ele>188.43</ele>
        <time>2018-09-21T15:31:02Z</time>
      </trkpt>
      <trkpt lat="45.28678" lon="5.52535">
        <ele>188.13</ele>
        <time>2018-09-21T15:31:03Z</time>
      </trkpt>
      <trkpt lat="45.28686" lon="5.52511">
        <ele>187.34</ele>
        <time>2018-09-21T15:31:04Z</time>
      </trkpt>
      <trkpt lat="45.28695" lon="5.52486">
        <ele>186.41</ele>
        <time>2018-09-21T15:31:05Z</time>
      </trkpt>
      <trkpt lat="45.28703" lon="5.52461">
        <ele>186.13</ele>
        <time>2018-09-21T15:31:06Z</time>
      </trkpt>
      <trkpt lat="45.2872" lon="5.52418">
        <ele>186.93</ele>
        <time>2018-09-21T15:31:08Z</time>
      </trkpt>
      <trkpt lat="45.28737" lon="5.52377">
        <ele>186.3</ele>
        <time>2018-09-21T15:31:10Z</time>
      </trkpt>
      <trkpt lat="45.28753" lon="5.5234">
        <ele>186.03</ele>
        <time>2018-09-21T15:31:12Z</time>
      </trkpt>
      <trkpt lat="45.28769" lon="5.52303">
        <ele>186.01</ele>
        <time>2018-09-21T15:31:14Z</time>
      </trkpt>
      <trkpt lat="45.28788" lon="5.52271">
        <ele>185.1</ele>
        <time>2018-09-21T15:31:16Z</time>
      </trkpt>
      <trkpt lat="45.28808" lon="5.52247">
        <ele>185.01</ele>
        <time>2018-09-21T15:31:18Z</time>
      </trkpt>
      <trkpt lat="45.28822" lon="5.52229">
        <ele>185.71</ele>
        <time>2018-09-21T15:31:20Z</time>
      </trkpt>
      <trkpt lat="45.28834" lon="5.52209">
        <ele>186.21</ele>
        <time>2018-09-21T15:31:23Z</time>
      </trkpt>
      <trkpt lat="45.28853" lon="5.52184">
        <ele>185.31</ele>
        <time>2018-09-21T15:31:26Z</time>
      </trkpt>
      <trkpt lat="45.28859" lon="5.52155">
        <ele>185.03</ele>
        <time>2018-09-21T15:31:28Z</time>
      </trkpt>
      <trkpt lat="45.28859" lon="5.52119">
        <ele>185.01</ele>
        <time>2018-09-21T15:31:30Z</time>
      </trkpt>
      <trkpt lat="45.28866" lon="5.5208">
        <ele>184.1</ele>
        <time>2018-09-21T15:31:32Z</time>
      </trkpt>
      <trkpt lat="45.28881" lon="5.52033">
        <ele>184.01</ele>
        <time>2018-09-21T15:31:34Z</time>
      </trkpt>
      <trkpt lat="45.28892" lon="5.52009">
        <ele>184.71</ele>
        <time>2018-09-21T15:31:35Z</time>
      </trkpt>
      <trkpt lat="45.28901" lon="5.51985">
        <ele>184.92</ele>
        <time>2018-09-21T15:31:36Z</time>
      </trkpt>
      <trkpt lat="45.28915" lon="5.51954">
        <ele>184.98</ele>
        <time>2018-09-21T15:31:37Z</time>
      </trkpt>
      <trkpt lat="45.28928" lon="5.51925">
        <ele>185</ele>
        <time>2018-09-21T15:31:38Z</time>
      </trkpt>
      <trkpt lat="45.28942" lon="5.51896">
        <ele>185</ele>
        <time>2018-09-21T15:31:39Z</time>
      </trkpt>
      <trkpt lat="45.28955" lon="5.51868">
        <ele>185.01</ele>
        <time>2018-09-21T15:31:40Z</time>
      </trkpt>
      <trkpt lat="45.28967" lon="5.5184">
        <ele>185.01</ele>
        <time>2018-09-21T15:31:41Z</time>
      </trkpt>
      <trkpt lat="45.28978" lon="5.51811">
        <ele>185.01</ele>
        <time>2018-09-21T15:31:42Z</time>
      </trkpt>
      <trkpt lat="45.2899" lon="5.51784">
        <ele>185.01</ele>
        <time>2018-09-21T15:31:43Z</time>
      </trkpt>
      <trkpt lat="45.29002" lon="5.51756">
        <ele>185.01</ele>
        <time>2018-09-21T15:31:44Z</time>
      </trkpt>
      <trkpt lat="45.29013" lon="5.51729">
        <ele>185.01</ele>
        <time>2018-09-21T15:31:45Z</time>
      </trkpt>
      <trkpt lat="45.29025" lon="5.51702">
        <ele>185.01</ele>
        <time>2018-09-21T15:31:46Z</time>
      </trkpt>
      <trkpt lat="45.29036" lon="5.51677">
        <ele>185.01</ele>
        <time>2018-09-21T15:31:47Z</time>
      </trkpt>
      <trkpt lat="45.29047" lon="5.51652">
        <ele>185.01</ele>
        <time>2018-09-21T15:31:48Z</time>
      </trkpt>
      <trkpt lat="45.29057" lon="5.51627">
        <ele>185.01</ele>
        <time>2018-09-21T15:31:49Z</time>
      </trkpt>
      <trkpt lat="45.29067" lon="5.51602">
        <ele>185.01</ele>
        <time>2018-09-21T15:31:50Z</time>
      </trkpt>
      <trkpt lat="45.29078" lon="5.51577">
        <ele>185.01</ele>
        <time>2018-09-21T15:31:51Z</time>
      </trkpt>
      <trkpt lat="45.29089" lon="5.51552">
        <ele>185.01</ele>
        <time>2018-09-21T15:31:52Z</time>
      </trkpt>
      <trkpt lat="45.29099" lon="5.51527">
        <ele>185.01</ele>
        <time>2018-09-21T15:31:53Z</time>
      </trkpt>
      <trkpt lat="45.29111" lon="5.515">
        <ele>185.01</ele>
        <time>2018-09-21T15:31:54Z</time>
      </trkpt>
      <trkpt lat="45.29123" lon="5.5147">
        <ele>185.01</ele>
        <time>2018-09-21T15:31:55Z</time>
      </trkpt>
      <trkpt lat="45.29135" lon="5.51442">
        <ele>185.01</ele>
        <time>2018-09-21T15:31:56Z</time>
      </trkpt>
      <trkpt lat="45.29147" lon="5.51416">
        <ele>185.01</ele>
        <time>2018-09-21T15:31:57Z</time>
      </trkpt>
      <trkpt lat="45.29159" lon="5.51389">
        <ele>185.01</ele>
        <time>2018-09-21T15:31:58Z</time>
      </trkpt>
      <trkpt lat="45.2917" lon="5.51363">
        <ele>185.01</ele>
        <time>2018-09-21T15:31:59Z</time>
      </trkpt>
      <trkpt lat="45.29181" lon="5.51337">
        <ele>185.01</ele>
        <time>2018-09-21T15:32:00Z</time>
      </trkpt>
      <trkpt lat="45.29192" lon="5.51313">
        <ele>184.31</ele>
        <time>2018-09-21T15:32:01Z</time>
      </trkpt>
      <trkpt lat="45.29204" lon="5.51287">
        <ele>184.8</ele>
        <time>2018-09-21T15:32:02Z</time>
      </trkpt>
      <trkpt lat="45.29214" lon="5.51262">
        <ele>184.94</ele>
        <time>2018-09-21T15:32:03Z</time>
      </trkpt>
      <trkpt lat="45.29225" lon="5.51236">
        <ele>184.99</ele>
        <time>2018-09-21T15:32:04Z</time>
      </trkpt>
      <trkpt lat="45.29236" lon="5.5121">
        <ele>185</ele>
        <time>2018-09-21T15:32:05Z</time>
      </trkpt>
      <trkpt lat="45.29247" lon="5.51185">
        <ele>185</ele>
        <time>2018-09-21T15:32:06Z</time>
      </trkpt>
      <trkpt lat="45.29258" lon="5.51159">
        <ele>185.01</ele>
        <time>2018-09-21T15:32:07Z</time>
      </trkpt>
      <trkpt lat="45.29269" lon="5.51135">
        <ele>185.01</ele>
        <time>2018-09-21T15:32:08Z</time>
      </trkpt>
      <trkpt lat="45.29279" lon="5.5111">
        <ele>184.31</ele>
        <time>2018-09-21T15:32:09Z</time>
      </trkpt>
      <trkpt lat="45.2929" lon="5.51086">
        <ele>184.1</ele>
        <time>2018-09-21T15:32:10Z</time>
      </trkpt>
      <trkpt lat="45.293" lon="5.51062">
        <ele>184.03</ele>
        <time>2018-09-21T15:32:11Z</time>
      </trkpt>
      <trkpt lat="45.2931" lon="5.51038">
        <ele>183.31</ele>
        <time>2018-09-21T15:32:12Z</time>
      </trkpt>
      <trkpt lat="45.29321" lon="5.51015">
        <ele>183.8</ele>
        <time>2018-09-21T15:32:13Z</time>
      </trkpt>
      <trkpt lat="45.29331" lon="5.50992">
        <ele>183.24</ele>
        <time>2018-09-21T15:32:14Z</time>
      </trkpt>
      <trkpt lat="45.2934" lon="5.5097">
        <ele>183.08</ele>
        <time>2018-09-21T15:32:15Z</time>
      </trkpt>
      <trkpt lat="45.29357" lon="5.5093">
        <ele>183.92</ele>
        <time>2018-09-21T15:32:17Z</time>
      </trkpt>
      <trkpt lat="45.29374" lon="5.5089">
        <ele>184.7</ele>
        <time>2018-09-21T15:32:19Z</time>
      </trkpt>
      <trkpt lat="45.2939" lon="5.50851">
        <ele>184.28</ele>
        <time>2018-09-21T15:32:21Z</time>
      </trkpt>
      <trkpt lat="45.29404" lon="5.5082">
        <ele>184.03</ele>
        <time>2018-09-21T15:32:23Z</time>
      </trkpt>
      <trkpt lat="45.29419" lon="5.50802">
        <ele>184.01</ele>
        <time>2018-09-21T15:32:25Z</time>
      </trkpt>
      <trkpt lat="45.29442" lon="5.50798">
        <ele>182.33</ele>
        <time>2018-09-21T15:32:28Z</time>
      </trkpt>
      <trkpt lat="45.29447" lon="5.50829">
        <ele>182.79</ele>
        <time>2018-09-21T15:32:32Z</time>
      </trkpt>
      <trkpt lat="45.29427" lon="5.50837">
        <ele>183</ele>
        <time>2018-09-21T15:32:36Z</time>
      </trkpt>
      <trkpt lat="45.29414" lon="5.50857">
        <ele>181.23</ele>
        <time>2018-09-21T15:32:41Z</time>
      </trkpt>
      <trkpt lat="45.29428" lon="5.50877">
        <ele>181.98</ele>
        <time>2018-09-21T15:32:44Z</time>
      </trkpt>
      <trkpt lat="45.29419" lon="5.50903">
        <ele>182.71</ele>
        <time>2018-09-21T15:32:49Z</time>
      </trkpt>
      <trkpt lat="45.29409" lon="5.50876">
        <ele>186.73</ele>
        <time>2018-09-21T15:36:43Z</time>
      </trkpt>
      <trkpt lat="45.29417" lon="5.50853">
        <ele>187.02</ele>
        <time>2018-09-21T15:36:47Z</time>
      </trkpt>
      <trkpt lat="45.29439" lon="5.5084">
        <ele>186.08</ele>
        <time>2018-09-21T15:36:51Z</time>
      </trkpt>
      <trkpt lat="45.29452" lon="5.50815">
        <ele>185.03</ele>
        <time>2018-09-21T15:36:54Z</time>
      </trkpt>
      <trkpt lat="45.29453" lon="5.50776">
        <ele>185.71</ele>
        <time>2018-09-21T15:36:57Z</time>
      </trkpt>
      <trkpt lat="45.2945" lon="5.50747">
        <ele>185.77</ele>
        <time>2018-09-21T15:36:59Z</time>
      </trkpt>
      <trkpt lat="45.29451" lon="5.50714">
        <ele>185.98</ele>
        <time>2018-09-21T15:37:01Z</time>
      </trkpt>
      <trkpt lat="45.29462" lon="5.5068">
        <ele>186</ele>
        <time>2018-09-21T15:37:03Z</time>
      </trkpt>
      <trkpt lat="45.29476" lon="5.50648">
        <ele>186.71</ele>
        <time>2018-09-21T15:37:05Z</time>
      </trkpt>
      <trkpt lat="45.29489" lon="5.50614">
        <ele>186.98</ele>
        <time>2018-09-21T15:37:07Z</time>
      </trkpt>
      <trkpt lat="45.29504" lon="5.50581">
        <ele>187.7</ele>
        <time>2018-09-21T15:37:09Z</time>
      </trkpt>
      <trkpt lat="45.29519" lon="5.50548">
        <ele>187.98</ele>
        <time>2018-09-21T15:37:11Z</time>
      </trkpt>
      <trkpt lat="45.29533" lon="5.50514">
        <ele>188</ele>
        <time>2018-09-21T15:37:13Z</time>
      </trkpt>
      <trkpt lat="45.29547" lon="5.50479">
        <ele>188.92</ele>
        <time>2018-09-21T15:37:15Z</time>
      </trkpt>
      <trkpt lat="45.29562" lon="5.50447">
        <ele>188.09</ele>
        <time>2018-09-21T15:37:17Z</time>
      </trkpt>
      <trkpt lat="45.29574" lon="5.50417">
        <ele>187.31</ele>
        <time>2018-09-21T15:37:19Z</time>
      </trkpt>
      <trkpt lat="45.29587" lon="5.50386">
        <ele>187.03</ele>
        <time>2018-09-21T15:37:21Z</time>
      </trkpt>
      <trkpt lat="45.29601" lon="5.50355">
        <ele>187.01</ele>
        <time>2018-09-21T15:37:23Z</time>
      </trkpt>
      <trkpt lat="45.29615" lon="5.50322">
        <ele>187.01</ele>
        <time>2018-09-21T15:37:25Z</time>
      </trkpt>
      <trkpt lat="45.29629" lon="5.50289">
        <ele>187.71</ele>
        <time>2018-09-21T15:37:27Z</time>
      </trkpt>
      <trkpt lat="45.29642" lon="5.50256">
        <ele>188.89</ele>
        <time>2018-09-21T15:37:29Z</time>
      </trkpt>
      <trkpt lat="45.29657" lon="5.50222">
        <ele>188.09</ele>
        <time>2018-09-21T15:37:31Z</time>
      </trkpt>
      <trkpt lat="45.29672" lon="5.50188">
        <ele>188.01</ele>
        <time>2018-09-21T15:37:33Z</time>
      </trkpt>
      <trkpt lat="45.29687" lon="5.50154">
        <ele>188.22</ele>
        <time>2018-09-21T15:37:35Z</time>
      </trkpt>
      <trkpt lat="45.29702" lon="5.5012">
        <ele>188.93</ele>
        <time>2018-09-21T15:37:37Z</time>
      </trkpt>
      <trkpt lat="45.29717" lon="5.50085">
        <ele>188.3</ele>
        <time>2018-09-21T15:37:39Z</time>
      </trkpt>
      <trkpt lat="45.29733" lon="5.50048">
        <ele>188.94</ele>
        <time>2018-09-21T15:37:41Z</time>
      </trkpt>
      <trkpt lat="45.29748" lon="5.50011">
        <ele>190.61</ele>
        <time>2018-09-21T15:37:43Z</time>
      </trkpt>
      <trkpt lat="45.29765" lon="5.49974">
        <ele>190.97</ele>
        <time>2018-09-21T15:37:45Z</time>
      </trkpt>
      <trkpt lat="45.2978" lon="5.49939">
        <ele>191.7</ele>
        <time>2018-09-21T15:37:47Z</time>
      </trkpt>
      <trkpt lat="45.29794" lon="5.49905">
        <ele>191.98</ele>
        <time>2018-09-21T15:37:49Z</time>
      </trkpt>
      <trkpt lat="45.29808" lon="5.49874">
        <ele>191.79</ele>
        <time>2018-09-21T15:37:51Z</time>
      </trkpt>
      <trkpt lat="45.29821" lon="5.49842">
        <ele>191.99</ele>
        <time>2018-09-21T15:37:53Z</time>
      </trkpt>
      <trkpt lat="45.29835" lon="5.49812">
        <ele>192</ele>
        <time>2018-09-21T15:37:55Z</time>
      </trkpt>
      <trkpt lat="45.29844" lon="5.4979">
        <ele>192.92</ele>
        <time>2018-09-21T15:37:57Z</time>
      </trkpt>
      <trkpt lat="45.29856" lon="5.49762">
        <ele>193.7</ele>
        <time>2018-09-21T15:38:00Z</time>
      </trkpt>
      <trkpt lat="45.29865" lon="5.49737">
        <ele>194</ele>
        <time>2018-09-21T15:38:03Z</time>
      </trkpt>
      <trkpt lat="45.29876" lon="5.49712">
        <ele>194.01</ele>
        <time>2018-09-21T15:38:06Z</time>
      </trkpt>
      <trkpt lat="45.29887" lon="5.49685">
        <ele>194.01</ele>
        <time>2018-09-21T15:38:09Z</time>
      </trkpt>
      <trkpt lat="45.29899" lon="5.49653">
        <ele>194.01</ele>
        <time>2018-09-21T15:38:12Z</time>
      </trkpt>
      <trkpt lat="45.29908" lon="5.4963">
        <ele>194.01</ele>
        <time>2018-09-21T15:38:14Z</time>
      </trkpt>
      <trkpt lat="45.29917" lon="5.49605">
        <ele>194.01</ele>
        <time>2018-09-21T15:38:16Z</time>
      </trkpt>
      <trkpt lat="45.29926" lon="5.49581">
        <ele>194.01</ele>
        <time>2018-09-21T15:38:18Z</time>
      </trkpt>
      <trkpt lat="45.29934" lon="5.49554">
        <ele>194.01</ele>
        <time>2018-09-21T15:38:21Z</time>
      </trkpt>
      <trkpt lat="45.29926" lon="5.49526">
        <ele>194.02</ele>
        <time>2018-09-21T15:38:26Z</time>
      </trkpt>
      <trkpt lat="45.29911" lon="5.49514">
        <ele>194.71</ele>
        <time>2018-09-21T15:38:28Z</time>
      </trkpt>
      <trkpt lat="45.29891" lon="5.49497">
        <ele>194.98</ele>
        <time>2018-09-21T15:38:30Z</time>
      </trkpt>
      <trkpt lat="45.2987" lon="5.4948">
        <ele>195.91</ele>
        <time>2018-09-21T15:38:32Z</time>
      </trkpt>
      <trkpt lat="45.29851" lon="5.4946">
        <ele>196.7</ele>
        <time>2018-09-21T15:38:34Z</time>
      </trkpt>
      <trkpt lat="45.29832" lon="5.49439">
        <ele>197</ele>
        <time>2018-09-21T15:38:37Z</time>
      </trkpt>
      <trkpt lat="45.29818" lon="5.4942">
        <ele>197.71</ele>
        <time>2018-09-21T15:38:39Z</time>
      </trkpt>
      <trkpt lat="45.298" lon="5.49398">
        <ele>197.28</ele>
        <time>2018-09-21T15:38:41Z</time>
      </trkpt>
      <trkpt lat="45.29783" lon="5.49375">
        <ele>197.94</ele>
        <time>2018-09-21T15:38:43Z</time>
      </trkpt>
      <trkpt lat="45.29765" lon="5.49352">
        <ele>197.79</ele>
        <time>2018-09-21T15:38:45Z</time>
      </trkpt>
      <trkpt lat="45.29747" lon="5.4933">
        <ele>197.99</ele>
        <time>2018-09-21T15:38:47Z</time>
      </trkpt>
      <trkpt lat="45.29729" lon="5.49308">
        <ele>197.3</ele>
        <time>2018-09-21T15:38:49Z</time>
      </trkpt>
      <trkpt lat="45.29712" lon="5.49287">
        <ele>197.24</ele>
        <time>2018-09-21T15:38:51Z</time>
      </trkpt>
      <trkpt lat="45.29695" lon="5.49269">
        <ele>197.24</ele>
        <time>2018-09-21T15:38:53Z</time>
      </trkpt>
      <trkpt lat="45.29681" lon="5.49253">
        <ele>197.73</ele>
        <time>2018-09-21T15:38:55Z</time>
      </trkpt>
      <trkpt lat="45.29663" lon="5.49231">
        <ele>197.09</ele>
        <time>2018-09-21T15:38:58Z</time>
      </trkpt>
      <trkpt lat="45.29659" lon="5.49203">
        <ele>196.01</ele>
        <time>2018-09-21T15:39:03Z</time>
      </trkpt>
      <trkpt lat="45.29661" lon="5.49177">
        <ele>195.03</ele>
        <time>2018-09-21T15:39:10Z</time>
      </trkpt>
      <trkpt lat="45.2966" lon="5.49205">
        <ele>198.38</ele>
        <time>2018-09-21T15:45:14Z</time>
      </trkpt>
      <trkpt lat="45.29667" lon="5.49235">
        <ele>200.01</ele>
        <time>2018-09-21T15:45:44Z</time>
      </trkpt>
      <trkpt lat="45.29688" lon="5.49262">
        <ele>200.01</ele>
        <time>2018-09-21T15:45:47Z</time>
      </trkpt>
      <trkpt lat="45.29704" lon="5.49282">
        <ele>200.01</ele>
        <time>2018-09-21T15:45:49Z</time>
      </trkpt>
      <trkpt lat="45.29723" lon="5.49304">
        <ele>200.01</ele>
        <time>2018-09-21T15:45:51Z</time>
      </trkpt>
      <trkpt lat="45.29743" lon="5.49326">
        <ele>200.01</ele>
        <time>2018-09-21T15:45:53Z</time>
      </trkpt>
      <trkpt lat="45.29763" lon="5.49352">
        <ele>199.31</ele>
        <time>2018-09-21T15:45:55Z</time>
      </trkpt>
      <trkpt lat="45.29782" lon="5.49378">
        <ele>199.03</ele>
        <time>2018-09-21T15:45:57Z</time>
      </trkpt>
      <trkpt lat="45.29802" lon="5.49402">
        <ele>199.01</ele>
        <time>2018-09-21T15:45:59Z</time>
      </trkpt>
      <trkpt lat="45.29821" lon="5.49426">
        <ele>199.01</ele>
        <time>2018-09-21T15:46:01Z</time>
      </trkpt>
      <trkpt lat="45.29839" lon="5.4945">
        <ele>199.01</ele>
        <time>2018-09-21T15:46:03Z</time>
      </trkpt>
      <trkpt lat="45.2986" lon="5.49473">
        <ele>199.01</ele>
        <time>2018-09-21T15:46:05Z</time>
      </trkpt>
      <trkpt lat="45.29881" lon="5.49493">
        <ele>198.1</ele>
        <time>2018-09-21T15:46:07Z</time>
      </trkpt>
      <trkpt lat="45.29901" lon="5.4951">
        <ele>198.01</ele>
        <time>2018-09-21T15:46:09Z</time>
      </trkpt>
      <trkpt lat="45.29917" lon="5.49524">
        <ele>197.31</ele>
        <time>2018-09-21T15:46:11Z</time>
      </trkpt>
      <trkpt lat="45.29935" lon="5.49541">
        <ele>197.31</ele>
        <time>2018-09-21T15:46:25Z</time>
      </trkpt>
      <trkpt lat="45.29927" lon="5.4957">
        <ele>196.31</ele>
        <time>2018-09-21T15:46:28Z</time>
      </trkpt>
      <trkpt lat="45.29916" lon="5.49599">
        <ele>196.03</ele>
        <time>2018-09-21T15:46:30Z</time>
      </trkpt>
      <trkpt lat="45.29905" lon="5.49631">
        <ele>196.01</ele>
        <time>2018-09-21T15:46:32Z</time>
      </trkpt>
      <trkpt lat="45.29892" lon="5.49665">
        <ele>195.1</ele>
        <time>2018-09-21T15:46:34Z</time>
      </trkpt>
      <trkpt lat="45.29879" lon="5.497">
        <ele>195.71</ele>
        <time>2018-09-21T15:46:36Z</time>
      </trkpt>
      <trkpt lat="45.29863" lon="5.49735">
        <ele>195.98</ele>
        <time>2018-09-21T15:46:38Z</time>
      </trkpt>
      <trkpt lat="45.29848" lon="5.49766">
        <ele>196</ele>
        <time>2018-09-21T15:46:40Z</time>
      </trkpt>
      <trkpt lat="45.29838" lon="5.49789">
        <ele>196.01</ele>
        <time>2018-09-21T15:46:42Z</time>
      </trkpt>
      <trkpt lat="45.29824" lon="5.49821">
        <ele>196.22</ele>
        <time>2018-09-21T15:46:45Z</time>
      </trkpt>
      <trkpt lat="45.29813" lon="5.4985">
        <ele>196.02</ele>
        <time>2018-09-21T15:46:47Z</time>
      </trkpt>
      <trkpt lat="45.29799" lon="5.4988">
        <ele>195.1</ele>
        <time>2018-09-21T15:46:49Z</time>
      </trkpt>
      <trkpt lat="45.29784" lon="5.49916">
        <ele>194.1</ele>
        <time>2018-09-21T15:46:51Z</time>
      </trkpt>
      <trkpt lat="45.29768" lon="5.49955">
        <ele>193.1</ele>
        <time>2018-09-21T15:46:53Z</time>
      </trkpt>
      <trkpt lat="45.29751" lon="5.49995">
        <ele>193.01</ele>
        <time>2018-09-21T15:46:55Z</time>
      </trkpt>
      <trkpt lat="45.29735" lon="5.50033">
        <ele>192.31</ele>
        <time>2018-09-21T15:46:57Z</time>
      </trkpt>
      <trkpt lat="45.29719" lon="5.50071">
        <ele>191.12</ele>
        <time>2018-09-21T15:46:59Z</time>
      </trkpt>
      <trkpt lat="45.29702" lon="5.50109">
        <ele>190.32</ele>
        <time>2018-09-21T15:47:01Z</time>
      </trkpt>
      <trkpt lat="45.29685" lon="5.50147">
        <ele>190.03</ele>
        <time>2018-09-21T15:47:03Z</time>
      </trkpt>
      <trkpt lat="45.29669" lon="5.50183">
        <ele>189.8</ele>
        <time>2018-09-21T15:47:05Z</time>
      </trkpt>
      <trkpt lat="45.29652" lon="5.50221">
        <ele>189.99</ele>
        <time>2018-09-21T15:47:07Z</time>
      </trkpt>
      <trkpt lat="45.29636" lon="5.50259">
        <ele>190.91</ele>
        <time>2018-09-21T15:47:09Z</time>
      </trkpt>
      <trkpt lat="45.2962" lon="5.50297">
        <ele>191</ele>
        <time>2018-09-21T15:47:11Z</time>
      </trkpt>
      <trkpt lat="45.29604" lon="5.50336">
        <ele>191.01</ele>
        <time>2018-09-21T15:47:13Z</time>
      </trkpt>
      <trkpt lat="45.2959" lon="5.50371">
        <ele>191.01</ele>
        <time>2018-09-21T15:47:15Z</time>
      </trkpt>
      <trkpt lat="45.29575" lon="5.50406">
        <ele>191.71</ele>
        <time>2018-09-21T15:47:17Z</time>
      </trkpt>
      <trkpt lat="45.29559" lon="5.50443">
        <ele>191.98</ele>
        <time>2018-09-21T15:47:19Z</time>
      </trkpt>
      <trkpt lat="45.29543" lon="5.50481">
        <ele>192</ele>
        <time>2018-09-21T15:47:21Z</time>
      </trkpt>
      <trkpt lat="45.29525" lon="5.5052">
        <ele>191.1</ele>
        <time>2018-09-21T15:47:23Z</time>
      </trkpt>
      <trkpt lat="45.29508" lon="5.5056">
        <ele>191.01</ele>
        <time>2018-09-21T15:47:25Z</time>
      </trkpt>
      <trkpt lat="45.29491" lon="5.50599">
        <ele>191.01</ele>
        <time>2018-09-21T15:47:27Z</time>
      </trkpt>
      <trkpt lat="45.29475" lon="5.50638">
        <ele>190.31</ele>
        <time>2018-09-21T15:47:29Z</time>
      </trkpt>
      <trkpt lat="45.29459" lon="5.50675">
        <ele>190.94</ele>
        <time>2018-09-21T15:47:31Z</time>
      </trkpt>
      <trkpt lat="45.29445" lon="5.5071">
        <ele>190.3</ele>
        <time>2018-09-21T15:47:33Z</time>
      </trkpt>
      <trkpt lat="45.29433" lon="5.50743">
        <ele>190.03</ele>
        <time>2018-09-21T15:47:35Z</time>
      </trkpt>
      <trkpt lat="45.29419" lon="5.50771">
        <ele>189.1</ele>
        <time>2018-09-21T15:47:37Z</time>
      </trkpt>
      <trkpt lat="45.29406" lon="5.508">
        <ele>188.31</ele>
        <time>2018-09-21T15:47:39Z</time>
      </trkpt>
      <trkpt lat="45.29392" lon="5.50831">
        <ele>188.03</ele>
        <time>2018-09-21T15:47:41Z</time>
      </trkpt>
      <trkpt lat="45.29378" lon="5.50864">
        <ele>188.01</ele>
        <time>2018-09-21T15:47:43Z</time>
      </trkpt>
      <trkpt lat="45.29364" lon="5.50896">
        <ele>188.01</ele>
        <time>2018-09-21T15:47:45Z</time>
      </trkpt>
      <trkpt lat="45.29351" lon="5.50929">
        <ele>188.01</ele>
        <time>2018-09-21T15:47:47Z</time>
      </trkpt>
      <trkpt lat="45.29337" lon="5.50963">
        <ele>188.01</ele>
        <time>2018-09-21T15:47:49Z</time>
      </trkpt>
      <trkpt lat="45.29322" lon="5.50997">
        <ele>187.1</ele>
        <time>2018-09-21T15:47:51Z</time>
      </trkpt>
      <trkpt lat="45.29306" lon="5.51034">
        <ele>187.92</ele>
        <time>2018-09-21T15:47:53Z</time>
      </trkpt>
      <trkpt lat="45.2929" lon="5.51072">
        <ele>188</ele>
        <time>2018-09-21T15:47:55Z</time>
      </trkpt>
      <trkpt lat="45.29274" lon="5.51111">
        <ele>187.1</ele>
        <time>2018-09-21T15:47:57Z</time>
      </trkpt>
      <trkpt lat="45.29258" lon="5.5115">
        <ele>187.01</ele>
        <time>2018-09-21T15:47:59Z</time>
      </trkpt>
      <trkpt lat="45.2924" lon="5.5119">
        <ele>187.01</ele>
        <time>2018-09-21T15:48:01Z</time>
      </trkpt>
      <trkpt lat="45.29222" lon="5.5123">
        <ele>187.01</ele>
        <time>2018-09-21T15:48:03Z</time>
      </trkpt>
      <trkpt lat="45.29206" lon="5.5127">
        <ele>187.71</ele>
        <time>2018-09-21T15:48:05Z</time>
      </trkpt>
      <trkpt lat="45.29188" lon="5.51312">
        <ele>187.07</ele>
        <time>2018-09-21T15:48:07Z</time>
      </trkpt>
      <trkpt lat="45.2917" lon="5.51353">
        <ele>187.01</ele>
        <time>2018-09-21T15:48:09Z</time>
      </trkpt>
      <trkpt lat="45.29152" lon="5.51394">
        <ele>186.1</ele>
        <time>2018-09-21T15:48:11Z</time>
      </trkpt>
      <trkpt lat="45.29135" lon="5.51437">
        <ele>186.01</ele>
        <time>2018-09-21T15:48:13Z</time>
      </trkpt>
      <trkpt lat="45.29116" lon="5.5148">
        <ele>186.01</ele>
        <time>2018-09-21T15:48:15Z</time>
      </trkpt>
      <trkpt lat="45.29098" lon="5.51523">
        <ele>186.01</ele>
        <time>2018-09-21T15:48:17Z</time>
      </trkpt>
      <trkpt lat="45.29079" lon="5.51565">
        <ele>186.92</ele>
        <time>2018-09-21T15:48:19Z</time>
      </trkpt>
      <trkpt lat="45.29061" lon="5.51608">
        <ele>187</ele>
        <time>2018-09-21T15:48:21Z</time>
      </trkpt>
      <trkpt lat="45.29044" lon="5.51651">
        <ele>187.01</ele>
        <time>2018-09-21T15:48:23Z</time>
      </trkpt>
      <trkpt lat="45.29026" lon="5.51694">
        <ele>187.01</ele>
        <time>2018-09-21T15:48:25Z</time>
      </trkpt>
      <trkpt lat="45.29007" lon="5.51735">
        <ele>187.71</ele>
        <time>2018-09-21T15:48:27Z</time>
      </trkpt>
      <trkpt lat="45.28989" lon="5.51777">
        <ele>187.98</ele>
        <time>2018-09-21T15:48:29Z</time>
      </trkpt>
      <trkpt lat="45.28971" lon="5.51819">
        <ele>188</ele>
        <time>2018-09-21T15:48:31Z</time>
      </trkpt>
      <trkpt lat="45.28962" lon="5.51841">
        <ele>188.01</ele>
        <time>2018-09-21T15:48:32Z</time>
      </trkpt>
      <trkpt lat="45.28944" lon="5.51884">
        <ele>188.01</ele>
        <time>2018-09-21T15:48:34Z</time>
      </trkpt>
      <trkpt lat="45.28925" lon="5.51926">
        <ele>188.01</ele>
        <time>2018-09-21T15:48:36Z</time>
      </trkpt>
      <trkpt lat="45.28908" lon="5.51969">
        <ele>188.01</ele>
        <time>2018-09-21T15:48:38Z</time>
      </trkpt>
      <trkpt lat="45.28891" lon="5.5201">
        <ele>188.01</ele>
        <time>2018-09-21T15:48:40Z</time>
      </trkpt>
      <trkpt lat="45.28874" lon="5.52048">
        <ele>188.01</ele>
        <time>2018-09-21T15:48:42Z</time>
      </trkpt>
      <trkpt lat="45.2886" lon="5.52083">
        <ele>188.01</ele>
        <time>2018-09-21T15:48:44Z</time>
      </trkpt>
      <trkpt lat="45.28849" lon="5.52111">
        <ele>188.01</ele>
        <time>2018-09-21T15:48:46Z</time>
      </trkpt>
      <trkpt lat="45.28833" lon="5.52128">
        <ele>187.31</ele>
        <time>2018-09-21T15:48:48Z</time>
      </trkpt>
      <trkpt lat="45.28818" lon="5.52142">
        <ele>186.33</ele>
        <time>2018-09-21T15:48:50Z</time>
      </trkpt>
      <trkpt lat="45.28804" lon="5.52159">
        <ele>186.95</ele>
        <time>2018-09-21T15:48:52Z</time>
      </trkpt>
      <trkpt lat="45.28786" lon="5.52165">
        <ele>186.79</ele>
        <time>2018-09-21T15:48:54Z</time>
      </trkpt>
      <trkpt lat="45.28762" lon="5.52156">
        <ele>186.03</ele>
        <time>2018-09-21T15:48:57Z</time>
      </trkpt>
      <trkpt lat="45.28741" lon="5.52161">
        <ele>191.01</ele>
        <time>2018-09-21T15:55:55Z</time>
      </trkpt>
      <trkpt lat="45.2872" lon="5.52168">
        <ele>191.98</ele>
        <time>2018-09-21T15:55:58Z</time>
      </trkpt>
      <trkpt lat="45.28699" lon="5.52175">
        <ele>187.4</ele>
        <time>2018-09-21T15:56:24Z</time>
      </trkpt>
      <trkpt lat="45.2868" lon="5.52177">
        <ele>187.04</ele>
        <time>2018-09-21T15:56:26Z</time>
      </trkpt>
      <trkpt lat="45.28661" lon="5.52182">
        <ele>187.01</ele>
        <time>2018-09-21T15:56:28Z</time>
      </trkpt>
      <trkpt lat="45.28635" lon="5.52192">
        <ele>186.03</ele>
        <time>2018-09-21T15:56:31Z</time>
      </trkpt>
      <trkpt lat="45.28614" lon="5.522">
        <ele>186.01</ele>
        <time>2018-09-21T15:56:33Z</time>
      </trkpt>
      <trkpt lat="45.28591" lon="5.52209">
        <ele>186.01</ele>
        <time>2018-09-21T15:56:35Z</time>
      </trkpt>
      <trkpt lat="45.28562" lon="5.52219">
        <ele>186.01</ele>
        <time>2018-09-21T15:56:37Z</time>
      </trkpt>
      <trkpt lat="45.28529" lon="5.52231">
        <ele>186.71</ele>
        <time>2018-09-21T15:56:39Z</time>
      </trkpt>
      <trkpt lat="45.28511" lon="5.52238">
        <ele>186.92</ele>
        <time>2018-09-21T15:56:40Z</time>
      </trkpt>
      <trkpt lat="45.28492" lon="5.52248">
        <ele>186.98</ele>
        <time>2018-09-21T15:56:41Z</time>
      </trkpt>
      <trkpt lat="45.28472" lon="5.5226">
        <ele>187.7</ele>
        <time>2018-09-21T15:56:42Z</time>
      </trkpt>
      <trkpt lat="45.28451" lon="5.52273">
        <ele>187.91</ele>
        <time>2018-09-21T15:56:43Z</time>
      </trkpt>
      <trkpt lat="45.28431" lon="5.52288">
        <ele>188.68</ele>
        <time>2018-09-21T15:56:44Z</time>
      </trkpt>
      <trkpt lat="45.28411" lon="5.52303">
        <ele>188.91</ele>
        <time>2018-09-21T15:56:45Z</time>
      </trkpt>
      <trkpt lat="45.28389" lon="5.52316">
        <ele>189.68</ele>
        <time>2018-09-21T15:56:46Z</time>
      </trkpt>
      <trkpt lat="45.28368" lon="5.52328">
        <ele>189.91</ele>
        <time>2018-09-21T15:56:47Z</time>
      </trkpt>
      <trkpt lat="45.28345" lon="5.52337">
        <ele>189.28</ele>
        <time>2018-09-21T15:56:48Z</time>
      </trkpt>
      <trkpt lat="45.28318" lon="5.52342">
        <ele>189.09</ele>
        <time>2018-09-21T15:56:49Z</time>
      </trkpt>
      <trkpt lat="45.2829" lon="5.52344">
        <ele>189.03</ele>
        <time>2018-09-21T15:56:50Z</time>
      </trkpt>
      <trkpt lat="45.2826" lon="5.52343">
        <ele>189.71</ele>
        <time>2018-09-21T15:56:51Z</time>
      </trkpt>
      <trkpt lat="45.28229" lon="5.52341">
        <ele>189.92</ele>
        <time>2018-09-21T15:56:52Z</time>
      </trkpt>
      <trkpt lat="45.28197" lon="5.5234">
        <ele>189.98</ele>
        <time>2018-09-21T15:56:53Z</time>
      </trkpt>
      <trkpt lat="45.28164" lon="5.52339">
        <ele>189.3</ele>
        <time>2018-09-21T15:56:54Z</time>
      </trkpt>
      <trkpt lat="45.28131" lon="5.52338">
        <ele>189.09</ele>
        <time>2018-09-21T15:56:55Z</time>
      </trkpt>
      <trkpt lat="45.28098" lon="5.52336">
        <ele>189.03</ele>
        <time>2018-09-21T15:56:56Z</time>
      </trkpt>
      <trkpt lat="45.28064" lon="5.52335">
        <ele>189.01</ele>
        <time>2018-09-21T15:56:57Z</time>
      </trkpt>
      <trkpt lat="45.2803" lon="5.52332">
        <ele>188.31</ele>
        <time>2018-09-21T15:56:58Z</time>
      </trkpt>
      <trkpt lat="45.27995" lon="5.52328">
        <ele>188.1</ele>
        <time>2018-09-21T15:56:59Z</time>
      </trkpt>
      <trkpt lat="45.27961" lon="5.52323">
        <ele>188.03</ele>
        <time>2018-09-21T15:57:00Z</time>
      </trkpt>
      <trkpt lat="45.27926" lon="5.52317">
        <ele>188.01</ele>
        <time>2018-09-21T15:57:01Z</time>
      </trkpt>
      <trkpt lat="45.27892" lon="5.52308">
        <ele>188.01</ele>
        <time>2018-09-21T15:57:02Z</time>
      </trkpt>
      <trkpt lat="45.27857" lon="5.52299">
        <ele>188.01</ele>
        <time>2018-09-21T15:57:03Z</time>
      </trkpt>
      <trkpt lat="45.27824" lon="5.52289">
        <ele>187.31</ele>
        <time>2018-09-21T15:57:04Z</time>
      </trkpt>
      <trkpt lat="45.2779" lon="5.52278">
        <ele>187.1</ele>
        <time>2018-09-21T15:57:05Z</time>
      </trkpt>
      <trkpt lat="45.27756" lon="5.52267">
        <ele>186.33</ele>
        <time>2018-09-21T15:57:06Z</time>
      </trkpt>
      <trkpt lat="45.27723" lon="5.52255">
        <ele>186.1</ele>
        <time>2018-09-21T15:57:07Z</time>
      </trkpt>
      <trkpt lat="45.2769" lon="5.52243">
        <ele>185.34</ele>
        <time>2018-09-21T15:57:08Z</time>
      </trkpt>
      <trkpt lat="45.27659" lon="5.52231">
        <ele>184.4</ele>
        <time>2018-09-21T15:57:09Z</time>
      </trkpt>
      <trkpt lat="45.27627" lon="5.52219">
        <ele>184.13</ele>
        <time>2018-09-21T15:57:10Z</time>
      </trkpt>
      <trkpt lat="45.27594" lon="5.52208">
        <ele>184.04</ele>
        <time>2018-09-21T15:57:11Z</time>
      </trkpt>
      <trkpt lat="45.27562" lon="5.52197">
        <ele>184.02</ele>
        <time>2018-09-21T15:57:12Z</time>
      </trkpt>
      <trkpt lat="45.2753" lon="5.52185">
        <ele>184.01</ele>
        <time>2018-09-21T15:57:13Z</time>
      </trkpt>
      <trkpt lat="45.27498" lon="5.52175">
        <ele>184.01</ele>
        <time>2018-09-21T15:57:14Z</time>
      </trkpt>
      <trkpt lat="45.27466" lon="5.52164">
        <ele>184.01</ele>
        <time>2018-09-21T15:57:15Z</time>
      </trkpt>
      <trkpt lat="45.27434" lon="5.52152">
        <ele>184.01</ele>
        <time>2018-09-21T15:57:16Z</time>
      </trkpt>
      <trkpt lat="45.27402" lon="5.52141">
        <ele>184.01</ele>
        <time>2018-09-21T15:57:17Z</time>
      </trkpt>
      <trkpt lat="45.27371" lon="5.52129">
        <ele>184.01</ele>
        <time>2018-09-21T15:57:18Z</time>
      </trkpt>
      <trkpt lat="45.27339" lon="5.52117">
        <ele>184.01</ele>
        <time>2018-09-21T15:57:19Z</time>
      </trkpt>
      <trkpt lat="45.27307" lon="5.52105">
        <ele>184.01</ele>
        <time>2018-09-21T15:57:20Z</time>
      </trkpt>
      <trkpt lat="45.27276" lon="5.52094">
        <ele>184.01</ele>
        <time>2018-09-21T15:57:21Z</time>
      </trkpt>
      <trkpt lat="45.27244" lon="5.52084">
        <ele>184.71</ele>
        <time>2018-09-21T15:57:22Z</time>
      </trkpt>
      <trkpt lat="45.27212" lon="5.52073">
        <ele>184.92</ele>
        <time>2018-09-21T15:57:23Z</time>
      </trkpt>
      <trkpt lat="45.2718" lon="5.52062">
        <ele>184.98</ele>
        <time>2018-09-21T15:57:24Z</time>
      </trkpt>
      <trkpt lat="45.27149" lon="5.5205">
        <ele>185</ele>
        <time>2018-09-21T15:57:25Z</time>
      </trkpt>
      <trkpt lat="45.27117" lon="5.52039">
        <ele>185</ele>
        <time>2018-09-21T15:57:26Z</time>
      </trkpt>
      <trkpt lat="45.27085" lon="5.52029">
        <ele>185.01</ele>
        <time>2018-09-21T15:57:27Z</time>
      </trkpt>
      <trkpt lat="45.27054" lon="5.52018">
        <ele>185.01</ele>
        <time>2018-09-21T15:57:28Z</time>
      </trkpt>
      <trkpt lat="45.27022" lon="5.52008">
        <ele>185.01</ele>
        <time>2018-09-21T15:57:29Z</time>
      </trkpt>
      <trkpt lat="45.2699" lon="5.51997">
        <ele>185.01</ele>
        <time>2018-09-21T15:57:30Z</time>
      </trkpt>
      <trkpt lat="45.26958" lon="5.51986">
        <ele>185.71</ele>
        <time>2018-09-21T15:57:31Z</time>
      </trkpt>
      <trkpt lat="45.26927" lon="5.51975">
        <ele>185.92</ele>
        <time>2018-09-21T15:57:32Z</time>
      </trkpt>
      <trkpt lat="45.26895" lon="5.51964">
        <ele>185.98</ele>
        <time>2018-09-21T15:57:33Z</time>
      </trkpt>
      <trkpt lat="45.26864" lon="5.51953">
        <ele>186</ele>
        <time>2018-09-21T15:57:34Z</time>
      </trkpt>
      <trkpt lat="45.26832" lon="5.51942">
        <ele>185.3</ele>
        <time>2018-09-21T15:57:35Z</time>
      </trkpt>
      <trkpt lat="45.26801" lon="5.51931">
        <ele>185.1</ele>
        <time>2018-09-21T15:57:36Z</time>
      </trkpt>
      <trkpt lat="45.2677" lon="5.5192">
        <ele>185.03</ele>
        <time>2018-09-21T15:57:37Z</time>
      </trkpt>
      <trkpt lat="45.26739" lon="5.51909">
        <ele>185.01</ele>
        <time>2018-09-21T15:57:38Z</time>
      </trkpt>
      <trkpt lat="45.26709" lon="5.51896">
        <ele>185.01</ele>
        <time>2018-09-21T15:57:39Z</time>
      </trkpt>
      <trkpt lat="45.2668" lon="5.51883">
        <ele>185.01</ele>
        <time>2018-09-21T15:57:40Z</time>
      </trkpt>
      <trkpt lat="45.26651" lon="5.51869">
        <ele>185.71</ele>
        <time>2018-09-21T15:57:41Z</time>
      </trkpt>
      <trkpt lat="45.26623" lon="5.51856">
        <ele>185.92</ele>
        <time>2018-09-21T15:57:42Z</time>
      </trkpt>
      <trkpt lat="45.26595" lon="5.5184">
        <ele>185.98</ele>
        <time>2018-09-21T15:57:43Z</time>
      </trkpt>
      <trkpt lat="45.26567" lon="5.51825">
        <ele>186</ele>
        <time>2018-09-21T15:57:44Z</time>
      </trkpt>
      <trkpt lat="45.26539" lon="5.51808">
        <ele>185.3</ele>
        <time>2018-09-21T15:57:45Z</time>
      </trkpt>
      <trkpt lat="45.26512" lon="5.5179">
        <ele>185.1</ele>
        <time>2018-09-21T15:57:46Z</time>
      </trkpt>
      <trkpt lat="45.26484" lon="5.51771">
        <ele>185.03</ele>
        <time>2018-09-21T15:57:47Z</time>
      </trkpt>
      <trkpt lat="45.26456" lon="5.51752">
        <ele>185.01</ele>
        <time>2018-09-21T15:57:48Z</time>
      </trkpt>
      <trkpt lat="45.26428" lon="5.51732">
        <ele>185.01</ele>
        <time>2018-09-21T15:57:49Z</time>
      </trkpt>
      <trkpt lat="45.26401" lon="5.51712">
        <ele>185.01</ele>
        <time>2018-09-21T15:57:50Z</time>
      </trkpt>
      <trkpt lat="45.26373" lon="5.5169">
        <ele>185.01</ele>
        <time>2018-09-21T15:57:51Z</time>
      </trkpt>
      <trkpt lat="45.26344" lon="5.51667">
        <ele>185.01</ele>
        <time>2018-09-21T15:57:52Z</time>
      </trkpt>
      <trkpt lat="45.26315" lon="5.51642">
        <ele>185.01</ele>
        <time>2018-09-21T15:57:53Z</time>
      </trkpt>
      <trkpt lat="45.26286" lon="5.51616">
        <ele>185.01</ele>
        <time>2018-09-21T15:57:54Z</time>
      </trkpt>
      <trkpt lat="45.26256" lon="5.51588">
        <ele>185.01</ele>
        <time>2018-09-21T15:57:55Z</time>
      </trkpt>
      <trkpt lat="45.26226" lon="5.5156">
        <ele>185.01</ele>
        <time>2018-09-21T15:57:56Z</time>
      </trkpt>
      <trkpt lat="45.26197" lon="5.51532">
        <ele>185.01</ele>
        <time>2018-09-21T15:57:57Z</time>
      </trkpt>
      <trkpt lat="45.26167" lon="5.51503">
        <ele>185.01</ele>
        <time>2018-09-21T15:57:58Z</time>
      </trkpt>
      <trkpt lat="45.26138" lon="5.51475">
        <ele>185.01</ele>
        <time>2018-09-21T15:57:59Z</time>
      </trkpt>
      <trkpt lat="45.26109" lon="5.51447">
        <ele>185.01</ele>
        <time>2018-09-21T15:58:00Z</time>
      </trkpt>
      <trkpt lat="45.2608" lon="5.51419">
        <ele>185.01</ele>
        <time>2018-09-21T15:58:01Z</time>
      </trkpt>
      <trkpt lat="45.2605" lon="5.51391">
        <ele>185.71</ele>
        <time>2018-09-21T15:58:02Z</time>
      </trkpt>
      <trkpt lat="45.2602" lon="5.51362">
        <ele>185.22</ele>
        <time>2018-09-21T15:58:03Z</time>
      </trkpt>
      <trkpt lat="45.2599" lon="5.51334">
        <ele>185.77</ele>
        <time>2018-09-21T15:58:04Z</time>
      </trkpt>
      <trkpt lat="45.2596" lon="5.51305">
        <ele>185.93</ele>
        <time>2018-09-21T15:58:05Z</time>
      </trkpt>
      <trkpt lat="45.25931" lon="5.51277">
        <ele>185.98</ele>
        <time>2018-09-21T15:58:06Z</time>
      </trkpt>
      <trkpt lat="45.25901" lon="5.51249">
        <ele>186</ele>
        <time>2018-09-21T15:58:07Z</time>
      </trkpt>
      <trkpt lat="45.25871" lon="5.5122">
        <ele>186</ele>
        <time>2018-09-21T15:58:08Z</time>
      </trkpt>
      <trkpt lat="45.25842" lon="5.51192">
        <ele>186.01</ele>
        <time>2018-09-21T15:58:09Z</time>
      </trkpt>
      <trkpt lat="45.25812" lon="5.51164">
        <ele>186.01</ele>
        <time>2018-09-21T15:58:10Z</time>
      </trkpt>
      <trkpt lat="45.25783" lon="5.51137">
        <ele>186.01</ele>
        <time>2018-09-21T15:58:11Z</time>
      </trkpt>
      <trkpt lat="45.25755" lon="5.5111">
        <ele>186.01</ele>
        <time>2018-09-21T15:58:12Z</time>
      </trkpt>
      <trkpt lat="45.25727" lon="5.51085">
        <ele>186.01</ele>
        <time>2018-09-21T15:58:13Z</time>
      </trkpt>
      <trkpt lat="45.257" lon="5.51059">
        <ele>185.31</ele>
        <time>2018-09-21T15:58:14Z</time>
      </trkpt>
      <trkpt lat="45.25673" lon="5.51033">
        <ele>185.8</ele>
        <time>2018-09-21T15:58:15Z</time>
      </trkpt>
      <trkpt lat="45.25645" lon="5.51006">
        <ele>185.94</ele>
        <time>2018-09-21T15:58:16Z</time>
      </trkpt>
      <trkpt lat="45.25617" lon="5.50979">
        <ele>185.99</ele>
        <time>2018-09-21T15:58:17Z</time>
      </trkpt>
      <trkpt lat="45.2559" lon="5.50952">
        <ele>185.3</ele>
        <time>2018-09-21T15:58:18Z</time>
      </trkpt>
      <trkpt lat="45.25561" lon="5.50924">
        <ele>185.09</ele>
        <time>2018-09-21T15:58:19Z</time>
      </trkpt>
      <trkpt lat="45.25531" lon="5.50896">
        <ele>185.03</ele>
        <time>2018-09-21T15:58:20Z</time>
      </trkpt>
      <trkpt lat="45.25502" lon="5.50868">
        <ele>185.01</ele>
        <time>2018-09-21T15:58:21Z</time>
      </trkpt>
      <trkpt lat="45.25473" lon="5.5084">
        <ele>184.31</ele>
        <time>2018-09-21T15:58:22Z</time>
      </trkpt>
      <trkpt lat="45.25442" lon="5.50811">
        <ele>184.8</ele>
        <time>2018-09-21T15:58:23Z</time>
      </trkpt>
      <trkpt lat="45.25412" lon="5.50783">
        <ele>185.64</ele>
        <time>2018-09-21T15:58:24Z</time>
      </trkpt>
      <trkpt lat="45.25382" lon="5.50754">
        <ele>185.9</ele>
        <time>2018-09-21T15:58:25Z</time>
      </trkpt>
      <trkpt lat="45.25352" lon="5.50725">
        <ele>185.97</ele>
        <time>2018-09-21T15:58:26Z</time>
      </trkpt>
      <trkpt lat="45.25321" lon="5.50696">
        <ele>186</ele>
        <time>2018-09-21T15:58:27Z</time>
      </trkpt>
      <trkpt lat="45.25291" lon="5.50668">
        <ele>186</ele>
        <time>2018-09-21T15:58:28Z</time>
      </trkpt>
      <trkpt lat="45.25261" lon="5.50639">
        <ele>186.01</ele>
        <time>2018-09-21T15:58:29Z</time>
      </trkpt>
      <trkpt lat="45.2523" lon="5.50611">
        <ele>186.71</ele>
        <time>2018-09-21T15:58:30Z</time>
      </trkpt>
      <trkpt lat="45.252" lon="5.50583">
        <ele>186.92</ele>
        <time>2018-09-21T15:58:31Z</time>
      </trkpt>
      <trkpt lat="45.2517" lon="5.50555">
        <ele>186.98</ele>
        <time>2018-09-21T15:58:32Z</time>
      </trkpt>
      <trkpt lat="45.2514" lon="5.50529">
        <ele>187</ele>
        <time>2018-09-21T15:58:33Z</time>
      </trkpt>
      <trkpt lat="45.25109" lon="5.50503">
        <ele>187</ele>
        <time>2018-09-21T15:58:34Z</time>
      </trkpt>
      <trkpt lat="45.25078" lon="5.50479">
        <ele>187.01</ele>
        <time>2018-09-21T15:58:35Z</time>
      </trkpt>
      <trkpt lat="45.25047" lon="5.50455">
        <ele>187.01</ele>
        <time>2018-09-21T15:58:36Z</time>
      </trkpt>
      <trkpt lat="45.25016" lon="5.50433">
        <ele>187.01</ele>
        <time>2018-09-21T15:58:37Z</time>
      </trkpt>
      <trkpt lat="45.24985" lon="5.50412">
        <ele>185.64</ele>
        <time>2018-09-21T15:58:38Z</time>
      </trkpt>
      <trkpt lat="45.24953" lon="5.50392">
        <ele>185.93</ele>
        <time>2018-09-21T15:58:39Z</time>
      </trkpt>
      <trkpt lat="45.2492" lon="5.50373">
        <ele>186.01</ele>
        <time>2018-09-21T15:58:40Z</time>
      </trkpt>
      <trkpt lat="45.24888" lon="5.50355">
        <ele>186.04</ele>
        <time>2018-09-21T15:58:41Z</time>
      </trkpt>
      <trkpt lat="45.24855" lon="5.50337">
        <ele>186.75</ele>
        <time>2018-09-21T15:58:42Z</time>
      </trkpt>
      <trkpt lat="45.24822" lon="5.5032">
        <ele>186.96</ele>
        <time>2018-09-21T15:58:43Z</time>
      </trkpt>
      <trkpt lat="45.24789" lon="5.50304">
        <ele>187.02</ele>
        <time>2018-09-21T15:58:44Z</time>
      </trkpt>
      <trkpt lat="45.24756" lon="5.50287">
        <ele>187.74</ele>
        <time>2018-09-21T15:58:45Z</time>
      </trkpt>
      <trkpt lat="45.24723" lon="5.50271">
        <ele>187.26</ele>
        <time>2018-09-21T15:58:46Z</time>
      </trkpt>
      <trkpt lat="45.24691" lon="5.50254">
        <ele>187.11</ele>
        <time>2018-09-21T15:58:47Z</time>
      </trkpt>
      <trkpt lat="45.24659" lon="5.50238">
        <ele>187.07</ele>
        <time>2018-09-21T15:58:48Z</time>
      </trkpt>
      <trkpt lat="45.24627" lon="5.5022">
        <ele>187.05</ele>
        <time>2018-09-21T15:58:49Z</time>
      </trkpt>
      <trkpt lat="45.24595" lon="5.50203">
        <ele>187.05</ele>
        <time>2018-09-21T15:58:50Z</time>
      </trkpt>
      <trkpt lat="45.24564" lon="5.50183">
        <ele>187.75</ele>
        <time>2018-09-21T15:58:51Z</time>
      </trkpt>
      <trkpt lat="45.24533" lon="5.50164">
        <ele>187.26</ele>
        <time>2018-09-21T15:58:52Z</time>
      </trkpt>
      <trkpt lat="45.24503" lon="5.50143">
        <ele>187.11</ele>
        <time>2018-09-21T15:58:53Z</time>
      </trkpt>
      <trkpt lat="45.24474" lon="5.50123">
        <ele>187.07</ele>
        <time>2018-09-21T15:58:54Z</time>
      </trkpt>
      <trkpt lat="45.24445" lon="5.501">
        <ele>187.05</ele>
        <time>2018-09-21T15:58:55Z</time>
      </trkpt>
      <trkpt lat="45.24416" lon="5.50077">
        <ele>187.05</ele>
        <time>2018-09-21T15:58:56Z</time>
      </trkpt>
      <trkpt lat="45.24386" lon="5.50054">
        <ele>186.35</ele>
        <time>2018-09-21T15:58:57Z</time>
      </trkpt>
      <trkpt lat="45.24358" lon="5.50029">
        <ele>186.84</ele>
        <time>2018-09-21T15:58:58Z</time>
      </trkpt>
      <trkpt lat="45.2433" lon="5.50003">
        <ele>186.29</ele>
        <time>2018-09-21T15:58:59Z</time>
      </trkpt>
      <trkpt lat="45.24303" lon="5.49976">
        <ele>186.12</ele>
        <time>2018-09-21T15:59:00Z</time>
      </trkpt>
      <trkpt lat="45.24276" lon="5.49947">
        <ele>186.07</ele>
        <time>2018-09-21T15:59:01Z</time>
      </trkpt>
      <trkpt lat="45.2425" lon="5.49919">
        <ele>186.06</ele>
        <time>2018-09-21T15:59:02Z</time>
      </trkpt>
      <trkpt lat="45.24224" lon="5.4989">
        <ele>185.35</ele>
        <time>2018-09-21T15:59:03Z</time>
      </trkpt>
      <trkpt lat="45.24197" lon="5.49861">
        <ele>185.14</ele>
        <time>2018-09-21T15:59:04Z</time>
      </trkpt>
      <trkpt lat="45.24171" lon="5.49831">
        <ele>184.38</ele>
        <time>2018-09-21T15:59:05Z</time>
      </trkpt>
      <trkpt lat="45.24145" lon="5.49799">
        <ele>184.85</ele>
        <time>2018-09-21T15:59:06Z</time>
      </trkpt>
      <trkpt lat="45.2412" lon="5.49767">
        <ele>184.99</ele>
        <time>2018-09-21T15:59:07Z</time>
      </trkpt>
      <trkpt lat="45.24095" lon="5.49734">
        <ele>185.73</ele>
        <time>2018-09-21T15:59:08Z</time>
      </trkpt>
      <trkpt lat="45.24071" lon="5.497">
        <ele>185.95</ele>
        <time>2018-09-21T15:59:09Z</time>
      </trkpt>
      <trkpt lat="45.24048" lon="5.49666">
        <ele>186.02</ele>
        <time>2018-09-21T15:59:10Z</time>
      </trkpt>
      <trkpt lat="45.24025" lon="5.4963">
        <ele>185.34</ele>
        <time>2018-09-21T15:59:11Z</time>
      </trkpt>
      <trkpt lat="45.24002" lon="5.49594">
        <ele>185.14</ele>
        <time>2018-09-21T15:59:12Z</time>
      </trkpt>
      <trkpt lat="45.2398" lon="5.49558">
        <ele>185.78</ele>
        <time>2018-09-21T15:59:13Z</time>
      </trkpt>
      <trkpt lat="45.23958" lon="5.49521">
        <ele>185.27</ele>
        <time>2018-09-21T15:59:14Z</time>
      </trkpt>
      <trkpt lat="45.23937" lon="5.49483">
        <ele>185.11</ele>
        <time>2018-09-21T15:59:15Z</time>
      </trkpt>
      <trkpt lat="45.23916" lon="5.49445">
        <ele>185.07</ele>
        <time>2018-09-21T15:59:16Z</time>
      </trkpt>
      <trkpt lat="45.23895" lon="5.49406">
        <ele>185.05</ele>
        <time>2018-09-21T15:59:17Z</time>
      </trkpt>
      <trkpt lat="45.23874" lon="5.49368">
        <ele>185.05</ele>
        <time>2018-09-21T15:59:18Z</time>
      </trkpt>
      <trkpt lat="45.23853" lon="5.4933">
        <ele>185.05</ele>
        <time>2018-09-21T15:59:19Z</time>
      </trkpt>
      <trkpt lat="45.23832" lon="5.49292">
        <ele>185.05</ele>
        <time>2018-09-21T15:59:20Z</time>
      </trkpt>
      <trkpt lat="45.23812" lon="5.49254">
        <ele>185.05</ele>
        <time>2018-09-21T15:59:21Z</time>
      </trkpt>
      <trkpt lat="45.23791" lon="5.49217">
        <ele>184.35</ele>
        <time>2018-09-21T15:59:22Z</time>
      </trkpt>
      <trkpt lat="45.23771" lon="5.49181">
        <ele>184.14</ele>
        <time>2018-09-21T15:59:23Z</time>
      </trkpt>
      <trkpt lat="45.23751" lon="5.49144">
        <ele>184.08</ele>
        <time>2018-09-21T15:59:24Z</time>
      </trkpt>
      <trkpt lat="45.23732" lon="5.49109">
        <ele>184.76</ele>
        <time>2018-09-21T15:59:25Z</time>
      </trkpt>
      <trkpt lat="45.23713" lon="5.49074">
        <ele>184.96</ele>
        <time>2018-09-21T15:59:26Z</time>
      </trkpt>
      <trkpt lat="45.23693" lon="5.49039">
        <ele>184.32</ele>
        <time>2018-09-21T15:59:27Z</time>
      </trkpt>
      <trkpt lat="45.23674" lon="5.49004">
        <ele>184.13</ele>
        <time>2018-09-21T15:59:28Z</time>
      </trkpt>
      <trkpt lat="45.23654" lon="5.48969">
        <ele>184.07</ele>
        <time>2018-09-21T15:59:29Z</time>
      </trkpt>
      <trkpt lat="45.23633" lon="5.48933">
        <ele>184.06</ele>
        <time>2018-09-21T15:59:30Z</time>
      </trkpt>
      <trkpt lat="45.23611" lon="5.48896">
        <ele>184.05</ele>
        <time>2018-09-21T15:59:31Z</time>
      </trkpt>
      <trkpt lat="45.23588" lon="5.4886">
        <ele>184.05</ele>
        <time>2018-09-21T15:59:32Z</time>
      </trkpt>
      <trkpt lat="45.23565" lon="5.48825">
        <ele>184.75</ele>
        <time>2018-09-21T15:59:33Z</time>
      </trkpt>
      <trkpt lat="45.23541" lon="5.48791">
        <ele>184.96</ele>
        <time>2018-09-21T15:59:34Z</time>
      </trkpt>
      <trkpt lat="45.23515" lon="5.48756">
        <ele>185.02</ele>
        <time>2018-09-21T15:59:35Z</time>
      </trkpt>
      <trkpt lat="45.2349" lon="5.48722">
        <ele>185.04</ele>
        <time>2018-09-21T15:59:36Z</time>
      </trkpt>
      <trkpt lat="45.23464" lon="5.4869">
        <ele>185.05</ele>
        <time>2018-09-21T15:59:37Z</time>
      </trkpt>
      <trkpt lat="45.23437" lon="5.48658">
        <ele>185.05</ele>
        <time>2018-09-21T15:59:38Z</time>
      </trkpt>
      <trkpt lat="45.23409" lon="5.48627">
        <ele>185.05</ele>
        <time>2018-09-21T15:59:39Z</time>
      </trkpt>
      <trkpt lat="45.23381" lon="5.48597">
        <ele>185.05</ele>
        <time>2018-09-21T15:59:40Z</time>
      </trkpt>
      <trkpt lat="45.23353" lon="5.48567">
        <ele>185.05</ele>
        <time>2018-09-21T15:59:41Z</time>
      </trkpt>
      <trkpt lat="45.23325" lon="5.48539">
        <ele>185.05</ele>
        <time>2018-09-21T15:59:42Z</time>
      </trkpt>
      <trkpt lat="45.23297" lon="5.48511">
        <ele>185.75</ele>
        <time>2018-09-21T15:59:43Z</time>
      </trkpt>
      <trkpt lat="45.23268" lon="5.48485">
        <ele>185.96</ele>
        <time>2018-09-21T15:59:44Z</time>
      </trkpt>
      <trkpt lat="45.23239" lon="5.48458">
        <ele>186.02</ele>
        <time>2018-09-21T15:59:45Z</time>
      </trkpt>
      <trkpt lat="45.2321" lon="5.48433">
        <ele>185.34</ele>
        <time>2018-09-21T15:59:46Z</time>
      </trkpt>
      <trkpt lat="45.23181" lon="5.48409">
        <ele>185.14</ele>
        <time>2018-09-21T15:59:47Z</time>
      </trkpt>
      <trkpt lat="45.23152" lon="5.48386">
        <ele>185.78</ele>
        <time>2018-09-21T15:59:48Z</time>
      </trkpt>
      <trkpt lat="45.23121" lon="5.48363">
        <ele>185.97</ele>
        <time>2018-09-21T15:59:49Z</time>
      </trkpt>
      <trkpt lat="45.23091" lon="5.48341">
        <ele>186.02</ele>
        <time>2018-09-21T15:59:50Z</time>
      </trkpt>
      <trkpt lat="45.2306" lon="5.48321">
        <ele>186.04</ele>
        <time>2018-09-21T15:59:51Z</time>
      </trkpt>
      <trkpt lat="45.23029" lon="5.48301">
        <ele>186.05</ele>
        <time>2018-09-21T15:59:52Z</time>
      </trkpt>
      <trkpt lat="45.22998" lon="5.48283">
        <ele>186.05</ele>
        <time>2018-09-21T15:59:53Z</time>
      </trkpt>
      <trkpt lat="45.22966" lon="5.48265">
        <ele>186.05</ele>
        <time>2018-09-21T15:59:54Z</time>
      </trkpt>
      <trkpt lat="45.22934" lon="5.48248">
        <ele>186.05</ele>
        <time>2018-09-21T15:59:55Z</time>
      </trkpt>
      <trkpt lat="45.22902" lon="5.48231">
        <ele>186.05</ele>
        <time>2018-09-21T15:59:56Z</time>
      </trkpt>
      <trkpt lat="45.22868" lon="5.48216">
        <ele>186.05</ele>
        <time>2018-09-21T15:59:57Z</time>
      </trkpt>
      <trkpt lat="45.22835" lon="5.48202">
        <ele>186.05</ele>
        <time>2018-09-21T15:59:58Z</time>
      </trkpt>
      <trkpt lat="45.22802" lon="5.48189">
        <ele>186.75</ele>
        <time>2018-09-21T15:59:59Z</time>
      </trkpt>
      <trkpt lat="45.22768" lon="5.48177">
        <ele>186.26</ele>
        <time>2018-09-21T16:00:00Z</time>
      </trkpt>
      <trkpt lat="45.22734" lon="5.48166">
        <ele>186.81</ele>
        <time>2018-09-21T16:00:01Z</time>
      </trkpt>
      <trkpt lat="45.227" lon="5.48156">
        <ele>186.98</ele>
        <time>2018-09-21T16:00:02Z</time>
      </trkpt>
      <trkpt lat="45.22666" lon="5.48147">
        <ele>187.03</ele>
        <time>2018-09-21T16:00:03Z</time>
      </trkpt>
      <trkpt lat="45.22631" lon="5.48139">
        <ele>187.04</ele>
        <time>2018-09-21T16:00:04Z</time>
      </trkpt>
      <trkpt lat="45.22597" lon="5.48131">
        <ele>187.05</ele>
        <time>2018-09-21T16:00:05Z</time>
      </trkpt>
      <trkpt lat="45.22562" lon="5.48123">
        <ele>187.05</ele>
        <time>2018-09-21T16:00:06Z</time>
      </trkpt>
      <trkpt lat="45.22528" lon="5.48116">
        <ele>187.05</ele>
        <time>2018-09-21T16:00:07Z</time>
      </trkpt>
      <trkpt lat="45.22493" lon="5.48108">
        <ele>187.75</ele>
        <time>2018-09-21T16:00:08Z</time>
      </trkpt>
      <trkpt lat="45.22458" lon="5.481">
        <ele>187.26</ele>
        <time>2018-09-21T16:00:09Z</time>
      </trkpt>
      <trkpt lat="45.22424" lon="5.48093">
        <ele>187.11</ele>
        <time>2018-09-21T16:00:10Z</time>
      </trkpt>
      <trkpt lat="45.22389" lon="5.48084">
        <ele>187.07</ele>
        <time>2018-09-21T16:00:11Z</time>
      </trkpt>
      <trkpt lat="45.22355" lon="5.48073">
        <ele>186.35</ele>
        <time>2018-09-21T16:00:12Z</time>
      </trkpt>
      <trkpt lat="45.22321" lon="5.48061">
        <ele>186.14</ele>
        <time>2018-09-21T16:00:13Z</time>
      </trkpt>
      <trkpt lat="45.22287" lon="5.48049">
        <ele>186.08</ele>
        <time>2018-09-21T16:00:14Z</time>
      </trkpt>
      <trkpt lat="45.22253" lon="5.48035">
        <ele>186.76</ele>
        <time>2018-09-21T16:00:15Z</time>
      </trkpt>
      <trkpt lat="45.2222" lon="5.48021">
        <ele>186.26</ele>
        <time>2018-09-21T16:00:16Z</time>
      </trkpt>
      <trkpt lat="45.22187" lon="5.48005">
        <ele>186.11</ele>
        <time>2018-09-21T16:00:17Z</time>
      </trkpt>
      <trkpt lat="45.22154" lon="5.47988">
        <ele>186.07</ele>
        <time>2018-09-21T16:00:18Z</time>
      </trkpt>
      <trkpt lat="45.22122" lon="5.47971">
        <ele>186.05</ele>
        <time>2018-09-21T16:00:19Z</time>
      </trkpt>
      <trkpt lat="45.2209" lon="5.47952">
        <ele>186.05</ele>
        <time>2018-09-21T16:00:20Z</time>
      </trkpt>
      <trkpt lat="45.22059" lon="5.47933">
        <ele>186.05</ele>
        <time>2018-09-21T16:00:21Z</time>
      </trkpt>
      <trkpt lat="45.22027" lon="5.47912">
        <ele>186.05</ele>
        <time>2018-09-21T16:00:22Z</time>
      </trkpt>
      <trkpt lat="45.21996" lon="5.4789">
        <ele>186.05</ele>
        <time>2018-09-21T16:00:23Z</time>
      </trkpt>
      <trkpt lat="45.21966" lon="5.47868">
        <ele>186.05</ele>
        <time>2018-09-21T16:00:24Z</time>
      </trkpt>
      <trkpt lat="45.21936" lon="5.47844">
        <ele>185.35</ele>
        <time>2018-09-21T16:00:25Z</time>
      </trkpt>
      <trkpt lat="45.21906" lon="5.4782">
        <ele>184.44</ele>
        <time>2018-09-21T16:00:26Z</time>
      </trkpt>
      <trkpt lat="45.21876" lon="5.47795">
        <ele>184.87</ele>
        <time>2018-09-21T16:00:27Z</time>
      </trkpt>
      <trkpt lat="45.21847" lon="5.47769">
        <ele>184.99</ele>
        <time>2018-09-21T16:00:28Z</time>
      </trkpt>
      <trkpt lat="45.21817" lon="5.47744">
        <ele>185.03</ele>
        <time>2018-09-21T16:00:29Z</time>
      </trkpt>
      <trkpt lat="45.21789" lon="5.47718">
        <ele>185.04</ele>
        <time>2018-09-21T16:00:30Z</time>
      </trkpt>
      <trkpt lat="45.2176" lon="5.4769">
        <ele>185.05</ele>
        <time>2018-09-21T16:00:31Z</time>
      </trkpt>
      <trkpt lat="45.21731" lon="5.47664">
        <ele>185.05</ele>
        <time>2018-09-21T16:00:32Z</time>
      </trkpt>
      <trkpt lat="45.21704" lon="5.47639">
        <ele>185.05</ele>
        <time>2018-09-21T16:00:33Z</time>
      </trkpt>
      <trkpt lat="45.21678" lon="5.47615">
        <ele>185.05</ele>
        <time>2018-09-21T16:00:34Z</time>
      </trkpt>
      <trkpt lat="45.21653" lon="5.47591">
        <ele>185.05</ele>
        <time>2018-09-21T16:00:35Z</time>
      </trkpt>
      <trkpt lat="45.21628" lon="5.47566">
        <ele>185.05</ele>
        <time>2018-09-21T16:00:36Z</time>
      </trkpt>
      <trkpt lat="45.21603" lon="5.47542">
        <ele>185.05</ele>
        <time>2018-09-21T16:00:37Z</time>
      </trkpt>
      <trkpt lat="45.21578" lon="5.47517">
        <ele>185.05</ele>
        <time>2018-09-21T16:00:38Z</time>
      </trkpt>
      <trkpt lat="45.21553" lon="5.47491">
        <ele>185.05</ele>
        <time>2018-09-21T16:00:39Z</time>
      </trkpt>
      <trkpt lat="45.21528" lon="5.47464">
        <ele>185.05</ele>
        <time>2018-09-21T16:00:40Z</time>
      </trkpt>
      <trkpt lat="45.21504" lon="5.47436">
        <ele>184.35</ele>
        <time>2018-09-21T16:00:41Z</time>
      </trkpt>
      <trkpt lat="45.2148" lon="5.47408">
        <ele>184.14</ele>
        <time>2018-09-21T16:00:42Z</time>
      </trkpt>
      <trkpt lat="45.21457" lon="5.47379">
        <ele>184.08</ele>
        <time>2018-09-21T16:00:43Z</time>
      </trkpt>
      <trkpt lat="45.21434" lon="5.4735">
        <ele>184.06</ele>
        <time>2018-09-21T16:00:44Z</time>
      </trkpt>
      <trkpt lat="45.21411" lon="5.47319">
        <ele>184.05</ele>
        <time>2018-09-21T16:00:45Z</time>
      </trkpt>
      <trkpt lat="45.21388" lon="5.47288">
        <ele>184.05</ele>
        <time>2018-09-21T16:00:46Z</time>
      </trkpt>
      <trkpt lat="45.21366" lon="5.47256">
        <ele>184.05</ele>
        <time>2018-09-21T16:00:47Z</time>
      </trkpt>
      <trkpt lat="45.21344" lon="5.47223">
        <ele>184.05</ele>
        <time>2018-09-21T16:00:48Z</time>
      </trkpt>
      <trkpt lat="45.21323" lon="5.4719">
        <ele>183.35</ele>
        <time>2018-09-21T16:00:49Z</time>
      </trkpt>
      <trkpt lat="45.21302" lon="5.47156">
        <ele>183.14</ele>
        <time>2018-09-21T16:00:50Z</time>
      </trkpt>
      <trkpt lat="45.21281" lon="5.4712">
        <ele>183.08</ele>
        <time>2018-09-21T16:00:51Z</time>
      </trkpt>
      <trkpt lat="45.21261" lon="5.47085">
        <ele>183.06</ele>
        <time>2018-09-21T16:00:52Z</time>
      </trkpt>
      <trkpt lat="45.21241" lon="5.47048">
        <ele>183.05</ele>
        <time>2018-09-21T16:00:53Z</time>
      </trkpt>
      <trkpt lat="45.21222" lon="5.4701">
        <ele>183.05</ele>
        <time>2018-09-21T16:00:54Z</time>
      </trkpt>
      <trkpt lat="45.21202" lon="5.46973">
        <ele>183.05</ele>
        <time>2018-09-21T16:00:55Z</time>
      </trkpt>
      <trkpt lat="45.21184" lon="5.46935">
        <ele>183.75</ele>
        <time>2018-09-21T16:00:56Z</time>
      </trkpt>
      <trkpt lat="45.21166" lon="5.46896">
        <ele>183.96</ele>
        <time>2018-09-21T16:00:57Z</time>
      </trkpt>
      <trkpt lat="45.21149" lon="5.46857">
        <ele>184.02</ele>
        <time>2018-09-21T16:00:58Z</time>
      </trkpt>
      <trkpt lat="45.21132" lon="5.46817">
        <ele>184.74</ele>
        <time>2018-09-21T16:00:59Z</time>
      </trkpt>
      <trkpt lat="45.21117" lon="5.46777">
        <ele>185.66</ele>
        <time>2018-09-21T16:01:00Z</time>
      </trkpt>
      <trkpt lat="45.21101" lon="5.46737">
        <ele>185.93</ele>
        <time>2018-09-21T16:01:01Z</time>
      </trkpt>
      <trkpt lat="45.21086" lon="5.46695">
        <ele>187.41</ele>
        <time>2018-09-21T16:01:02Z</time>
      </trkpt>
      <trkpt lat="45.21072" lon="5.46653">
        <ele>188.56</ele>
        <time>2018-09-21T16:01:03Z</time>
      </trkpt>
      <trkpt lat="45.21059" lon="5.46611">
        <ele>189.6</ele>
        <time>2018-09-21T16:01:04Z</time>
      </trkpt>
      <trkpt lat="45.21046" lon="5.46569">
        <ele>190.61</ele>
        <time>2018-09-21T16:01:05Z</time>
      </trkpt>
      <trkpt lat="45.21034" lon="5.46527">
        <ele>192.32</ele>
        <time>2018-09-21T16:01:06Z</time>
      </trkpt>
      <trkpt lat="45.21023" lon="5.46482">
        <ele>193.53</ele>
        <time>2018-09-21T16:01:07Z</time>
      </trkpt>
      <trkpt lat="45.21012" lon="5.46438">
        <ele>195.29</ele>
        <time>2018-09-21T16:01:08Z</time>
      </trkpt>
      <trkpt lat="45.21002" lon="5.46392">
        <ele>197.22</ele>
        <time>2018-09-21T16:01:09Z</time>
      </trkpt>
      <trkpt lat="45.20992" lon="5.46346">
        <ele>198.5</ele>
        <time>2018-09-21T16:01:10Z</time>
      </trkpt>
      <trkpt lat="45.20982" lon="5.46301">
        <ele>200.28</ele>
        <time>2018-09-21T16:01:11Z</time>
      </trkpt>
      <trkpt lat="45.20973" lon="5.46255">
        <ele>202.22</ele>
        <time>2018-09-21T16:01:12Z</time>
      </trkpt>
      <trkpt lat="45.20965" lon="5.4621">
        <ele>203.5</ele>
        <time>2018-09-21T16:01:13Z</time>
      </trkpt>
      <trkpt lat="45.20958" lon="5.46164">
        <ele>203.88</ele>
        <time>2018-09-21T16:01:14Z</time>
      </trkpt>
      <trkpt lat="45.20952" lon="5.4612">
        <ele>204.7</ele>
        <time>2018-09-21T16:01:15Z</time>
      </trkpt>
      <trkpt lat="45.20947" lon="5.46075">
        <ele>205.64</ele>
        <time>2018-09-21T16:01:16Z</time>
      </trkpt>
      <trkpt lat="45.2094" lon="5.4603">
        <ele>207.33</ele>
        <time>2018-09-21T16:01:17Z</time>
      </trkpt>
      <trkpt lat="45.20934" lon="5.45985">
        <ele>209.23</ele>
        <time>2018-09-21T16:01:18Z</time>
      </trkpt>
      <trkpt lat="45.20928" lon="5.45939">
        <ele>210.5</ele>
        <time>2018-09-21T16:01:19Z</time>
      </trkpt>
      <trkpt lat="45.20923" lon="5.45894">
        <ele>211.59</ele>
        <time>2018-09-21T16:01:20Z</time>
      </trkpt>
      <trkpt lat="45.20917" lon="5.45849">
        <ele>213.31</ele>
        <time>2018-09-21T16:01:21Z</time>
      </trkpt>
      <trkpt lat="45.20912" lon="5.45803">
        <ele>215.23</ele>
        <time>2018-09-21T16:01:22Z</time>
      </trkpt>
      <trkpt lat="45.20906" lon="5.45757">
        <ele>216.5</ele>
        <time>2018-09-21T16:01:23Z</time>
      </trkpt>
      <trkpt lat="45.20901" lon="5.45711">
        <ele>217.59</ele>
        <time>2018-09-21T16:01:24Z</time>
      </trkpt>
      <trkpt lat="45.20895" lon="5.45665">
        <ele>219.31</ele>
        <time>2018-09-21T16:01:25Z</time>
      </trkpt>
      <trkpt lat="45.20888" lon="5.45619">
        <ele>220.53</ele>
        <time>2018-09-21T16:01:26Z</time>
      </trkpt>
      <trkpt lat="45.20882" lon="5.45574">
        <ele>220.89</ele>
        <time>2018-09-21T16:01:27Z</time>
      </trkpt>
      <trkpt lat="45.20875" lon="5.45531">
        <ele>221.7</ele>
        <time>2018-09-21T16:01:28Z</time>
      </trkpt>
      <trkpt lat="45.20866" lon="5.45487">
        <ele>222.64</ele>
        <time>2018-09-21T16:01:29Z</time>
      </trkpt>
      <trkpt lat="45.20857" lon="5.45444">
        <ele>223.63</ele>
        <time>2018-09-21T16:01:30Z</time>
      </trkpt>
      <trkpt lat="45.20848" lon="5.45402">
        <ele>224.62</ele>
        <time>2018-09-21T16:01:31Z</time>
      </trkpt>
      <trkpt lat="45.20837" lon="5.4536">
        <ele>224.92</ele>
        <time>2018-09-21T16:01:32Z</time>
      </trkpt>
      <trkpt lat="45.20828" lon="5.45318">
        <ele>225.01</ele>
        <time>2018-09-21T16:01:33Z</time>
      </trkpt>
      <trkpt lat="45.20818" lon="5.45275">
        <ele>225.74</ele>
        <time>2018-09-21T16:01:34Z</time>
      </trkpt>
      <trkpt lat="45.20806" lon="5.45233">
        <ele>225.96</ele>
        <time>2018-09-21T16:01:35Z</time>
      </trkpt>
      <trkpt lat="45.20795" lon="5.45191">
        <ele>226.72</ele>
        <time>2018-09-21T16:01:36Z</time>
      </trkpt>
      <trkpt lat="45.20783" lon="5.45149">
        <ele>227.65</ele>
        <time>2018-09-21T16:01:37Z</time>
      </trkpt>
      <trkpt lat="45.20772" lon="5.45106">
        <ele>227.93</ele>
        <time>2018-09-21T16:01:38Z</time>
      </trkpt>
      <trkpt lat="45.20761" lon="5.45063">
        <ele>228.71</ele>
        <time>2018-09-21T16:01:39Z</time>
      </trkpt>
      <trkpt lat="45.20749" lon="5.4502">
        <ele>228.95</ele>
        <time>2018-09-21T16:01:40Z</time>
      </trkpt>
      <trkpt lat="45.20738" lon="5.44977">
        <ele>229.72</ele>
        <time>2018-09-21T16:01:41Z</time>
      </trkpt>
      <trkpt lat="45.20726" lon="5.44933">
        <ele>229.95</ele>
        <time>2018-09-21T16:01:42Z</time>
      </trkpt>
      <trkpt lat="45.20713" lon="5.4489">
        <ele>230.02</ele>
        <time>2018-09-21T16:01:43Z</time>
      </trkpt>
      <trkpt lat="45.20701" lon="5.44847">
        <ele>230.04</ele>
        <time>2018-09-21T16:01:44Z</time>
      </trkpt>
      <trkpt lat="45.20689" lon="5.44804">
        <ele>230.75</ele>
        <time>2018-09-21T16:01:45Z</time>
      </trkpt>
      <trkpt lat="45.20677" lon="5.44761">
        <ele>230.96</ele>
        <time>2018-09-21T16:01:46Z</time>
      </trkpt>
      <trkpt lat="45.20666" lon="5.44717">
        <ele>231.02</ele>
        <time>2018-09-21T16:01:47Z</time>
      </trkpt>
      <trkpt lat="45.20654" lon="5.44675">
        <ele>231.04</ele>
        <time>2018-09-21T16:01:48Z</time>
      </trkpt>
      <trkpt lat="45.20643" lon="5.44635">
        <ele>231.05</ele>
        <time>2018-09-21T16:01:49Z</time>
      </trkpt>
      <trkpt lat="45.20633" lon="5.44596">
        <ele>231.05</ele>
        <time>2018-09-21T16:01:50Z</time>
      </trkpt>
      <trkpt lat="45.20622" lon="5.44558">
        <ele>231.75</ele>
        <time>2018-09-21T16:01:51Z</time>
      </trkpt>
      <trkpt lat="45.20611" lon="5.44519">
        <ele>231.96</ele>
        <time>2018-09-21T16:01:52Z</time>
      </trkpt>
      <trkpt lat="45.20602" lon="5.4448">
        <ele>232.72</ele>
        <time>2018-09-21T16:01:53Z</time>
      </trkpt>
      <trkpt lat="45.2059" lon="5.44441">
        <ele>232.95</ele>
        <time>2018-09-21T16:01:54Z</time>
      </trkpt>
      <trkpt lat="45.2058" lon="5.44403">
        <ele>232.32</ele>
        <time>2018-09-21T16:01:55Z</time>
      </trkpt>
      <trkpt lat="45.20569" lon="5.44363">
        <ele>232.83</ele>
        <time>2018-09-21T16:01:56Z</time>
      </trkpt>
      <trkpt lat="45.20558" lon="5.44324">
        <ele>232.98</ele>
        <time>2018-09-21T16:01:57Z</time>
      </trkpt>
      <trkpt lat="45.20548" lon="5.44285">
        <ele>233.03</ele>
        <time>2018-09-21T16:01:58Z</time>
      </trkpt>
      <trkpt lat="45.20537" lon="5.44246">
        <ele>233.74</ele>
        <time>2018-09-21T16:01:59Z</time>
      </trkpt>
      <trkpt lat="45.20526" lon="5.44207">
        <ele>233.96</ele>
        <time>2018-09-21T16:02:00Z</time>
      </trkpt>
      <trkpt lat="45.20515" lon="5.44169">
        <ele>234.02</ele>
        <time>2018-09-21T16:02:01Z</time>
      </trkpt>
      <trkpt lat="45.20505" lon="5.44131">
        <ele>234.04</ele>
        <time>2018-09-21T16:02:02Z</time>
      </trkpt>
      <trkpt lat="45.20494" lon="5.44093">
        <ele>234.75</ele>
        <time>2018-09-21T16:02:03Z</time>
      </trkpt>
      <trkpt lat="45.20484" lon="5.44054">
        <ele>234.96</ele>
        <time>2018-09-21T16:02:04Z</time>
      </trkpt>
      <trkpt lat="45.20474" lon="5.44015">
        <ele>235.02</ele>
        <time>2018-09-21T16:02:05Z</time>
      </trkpt>
      <trkpt lat="45.20463" lon="5.43976">
        <ele>235.74</ele>
        <time>2018-09-21T16:02:06Z</time>
      </trkpt>
      <trkpt lat="45.20453" lon="5.43937">
        <ele>235.96</ele>
        <time>2018-09-21T16:02:07Z</time>
      </trkpt>
      <trkpt lat="45.20443" lon="5.43898">
        <ele>236.02</ele>
        <time>2018-09-21T16:02:08Z</time>
      </trkpt>
      <trkpt lat="45.20432" lon="5.4386">
        <ele>236.74</ele>
        <time>2018-09-21T16:02:09Z</time>
      </trkpt>
      <trkpt lat="45.20422" lon="5.43821">
        <ele>236.96</ele>
        <time>2018-09-21T16:02:10Z</time>
      </trkpt>
      <trkpt lat="45.20411" lon="5.43782">
        <ele>237.72</ele>
        <time>2018-09-21T16:02:11Z</time>
      </trkpt>
      <trkpt lat="45.204" lon="5.43745">
        <ele>237.95</ele>
        <time>2018-09-21T16:02:12Z</time>
      </trkpt>
      <trkpt lat="45.2039" lon="5.43707">
        <ele>238.72</ele>
        <time>2018-09-21T16:02:13Z</time>
      </trkpt>
      <trkpt lat="45.2038" lon="5.43669">
        <ele>238.95</ele>
        <time>2018-09-21T16:02:14Z</time>
      </trkpt>
      <trkpt lat="45.2037" lon="5.43632">
        <ele>239.72</ele>
        <time>2018-09-21T16:02:15Z</time>
      </trkpt>
      <trkpt lat="45.2036" lon="5.43595">
        <ele>239.95</ele>
        <time>2018-09-21T16:02:16Z</time>
      </trkpt>
      <trkpt lat="45.2035" lon="5.43558">
        <ele>240.02</ele>
        <time>2018-09-21T16:02:17Z</time>
      </trkpt>
      <trkpt lat="45.20341" lon="5.43521">
        <ele>240.04</ele>
        <time>2018-09-21T16:02:18Z</time>
      </trkpt>
      <trkpt lat="45.20331" lon="5.43485">
        <ele>240.05</ele>
        <time>2018-09-21T16:02:19Z</time>
      </trkpt>
      <trkpt lat="45.20321" lon="5.43449">
        <ele>240.05</ele>
        <time>2018-09-21T16:02:20Z</time>
      </trkpt>
      <trkpt lat="45.2031" lon="5.43411">
        <ele>240.05</ele>
        <time>2018-09-21T16:02:21Z</time>
      </trkpt>
      <trkpt lat="45.203" lon="5.43374">
        <ele>240.75</ele>
        <time>2018-09-21T16:02:22Z</time>
      </trkpt>
      <trkpt lat="45.20289" lon="5.43337">
        <ele>240.96</ele>
        <time>2018-09-21T16:02:23Z</time>
      </trkpt>
      <trkpt lat="45.20279" lon="5.433">
        <ele>241.02</ele>
        <time>2018-09-21T16:02:24Z</time>
      </trkpt>
      <trkpt lat="45.20268" lon="5.43263">
        <ele>241.04</ele>
        <time>2018-09-21T16:02:25Z</time>
      </trkpt>
      <trkpt lat="45.20258" lon="5.43227">
        <ele>241.05</ele>
        <time>2018-09-21T16:02:26Z</time>
      </trkpt>
      <trkpt lat="45.20246" lon="5.43191">
        <ele>241.75</ele>
        <time>2018-09-21T16:02:27Z</time>
      </trkpt>
      <trkpt lat="45.20235" lon="5.43156">
        <ele>241.96</ele>
        <time>2018-09-21T16:02:28Z</time>
      </trkpt>
      <trkpt lat="45.20223" lon="5.4312">
        <ele>242.02</ele>
        <time>2018-09-21T16:02:29Z</time>
      </trkpt>
      <trkpt lat="45.20211" lon="5.43084">
        <ele>242.74</ele>
        <time>2018-09-21T16:02:30Z</time>
      </trkpt>
      <trkpt lat="45.20198" lon="5.43048">
        <ele>242.96</ele>
        <time>2018-09-21T16:02:31Z</time>
      </trkpt>
      <trkpt lat="45.20186" lon="5.43013">
        <ele>243.02</ele>
        <time>2018-09-21T16:02:32Z</time>
      </trkpt>
      <trkpt lat="45.20173" lon="5.42978">
        <ele>243.04</ele>
        <time>2018-09-21T16:02:33Z</time>
      </trkpt>
      <trkpt lat="45.2016" lon="5.42942">
        <ele>243.75</ele>
        <time>2018-09-21T16:02:34Z</time>
      </trkpt>
      <trkpt lat="45.20146" lon="5.42907">
        <ele>243.96</ele>
        <time>2018-09-21T16:02:35Z</time>
      </trkpt>
      <trkpt lat="45.20132" lon="5.42873">
        <ele>244.02</ele>
        <time>2018-09-21T16:02:36Z</time>
      </trkpt>
      <trkpt lat="45.20118" lon="5.42838">
        <ele>244.04</ele>
        <time>2018-09-21T16:02:37Z</time>
      </trkpt>
      <trkpt lat="45.20104" lon="5.42804">
        <ele>244.75</ele>
        <time>2018-09-21T16:02:38Z</time>
      </trkpt>
      <trkpt lat="45.20089" lon="5.42771">
        <ele>244.96</ele>
        <time>2018-09-21T16:02:39Z</time>
      </trkpt>
      <trkpt lat="45.20074" lon="5.42738">
        <ele>245.02</ele>
        <time>2018-09-21T16:02:40Z</time>
      </trkpt>
      <trkpt lat="45.2006" lon="5.42706">
        <ele>245.74</ele>
        <time>2018-09-21T16:02:41Z</time>
      </trkpt>
      <trkpt lat="45.20045" lon="5.42674">
        <ele>245.96</ele>
        <time>2018-09-21T16:02:42Z</time>
      </trkpt>
      <trkpt lat="45.2003" lon="5.42642">
        <ele>246.02</ele>
        <time>2018-09-21T16:02:43Z</time>
      </trkpt>
      <trkpt lat="45.20014" lon="5.42611">
        <ele>246.04</ele>
        <time>2018-09-21T16:02:44Z</time>
      </trkpt>
      <trkpt lat="45.19999" lon="5.42579">
        <ele>246.05</ele>
        <time>2018-09-21T16:02:45Z</time>
      </trkpt>
      <trkpt lat="45.19983" lon="5.42548">
        <ele>246.05</ele>
        <time>2018-09-21T16:02:46Z</time>
      </trkpt>
      <trkpt lat="45.19966" lon="5.42517">
        <ele>246.05</ele>
        <time>2018-09-21T16:02:47Z</time>
      </trkpt>
      <trkpt lat="45.19949" lon="5.42486">
        <ele>246.05</ele>
        <time>2018-09-21T16:02:48Z</time>
      </trkpt>
      <trkpt lat="45.19932" lon="5.42455">
        <ele>246.05</ele>
        <time>2018-09-21T16:02:49Z</time>
      </trkpt>
      <trkpt lat="45.19915" lon="5.42425">
        <ele>246.05</ele>
        <time>2018-09-21T16:02:50Z</time>
      </trkpt>
      <trkpt lat="45.19897" lon="5.42394">
        <ele>245.35</ele>
        <time>2018-09-21T16:02:51Z</time>
      </trkpt>
      <trkpt lat="45.19879" lon="5.42364">
        <ele>245.14</ele>
        <time>2018-09-21T16:02:52Z</time>
      </trkpt>
      <trkpt lat="45.19861" lon="5.42334">
        <ele>245.08</ele>
        <time>2018-09-21T16:02:53Z</time>
      </trkpt>
      <trkpt lat="45.19843" lon="5.42306">
        <ele>245.06</ele>
        <time>2018-09-21T16:02:54Z</time>
      </trkpt>
      <trkpt lat="45.19824" lon="5.42276">
        <ele>245.05</ele>
        <time>2018-09-21T16:02:55Z</time>
      </trkpt>
      <trkpt lat="45.19804" lon="5.42246">
        <ele>245.75</ele>
        <time>2018-09-21T16:02:56Z</time>
      </trkpt>
      <trkpt lat="45.19783" lon="5.42216">
        <ele>245.96</ele>
        <time>2018-09-21T16:02:57Z</time>
      </trkpt>
      <trkpt lat="45.19763" lon="5.42186">
        <ele>246.02</ele>
        <time>2018-09-21T16:02:58Z</time>
      </trkpt>
      <trkpt lat="45.19742" lon="5.42156">
        <ele>246.04</ele>
        <time>2018-09-21T16:02:59Z</time>
      </trkpt>
      <trkpt lat="45.19721" lon="5.42126">
        <ele>246.05</ele>
        <time>2018-09-21T16:03:00Z</time>
      </trkpt>
      <trkpt lat="45.19699" lon="5.42095">
        <ele>245.35</ele>
        <time>2018-09-21T16:03:01Z</time>
      </trkpt>
      <trkpt lat="45.19677" lon="5.42064">
        <ele>245.14</ele>
        <time>2018-09-21T16:03:02Z</time>
      </trkpt>
      <trkpt lat="45.19655" lon="5.42033">
        <ele>244.38</ele>
        <time>2018-09-21T16:03:03Z</time>
      </trkpt>
      <trkpt lat="45.19633" lon="5.42002">
        <ele>244.15</ele>
        <time>2018-09-21T16:03:04Z</time>
      </trkpt>
      <trkpt lat="45.19611" lon="5.41972">
        <ele>244.08</ele>
        <time>2018-09-21T16:03:05Z</time>
      </trkpt>
      <trkpt lat="45.19589" lon="5.41941">
        <ele>244.06</ele>
        <time>2018-09-21T16:03:06Z</time>
      </trkpt>
      <trkpt lat="45.19568" lon="5.41911">
        <ele>244.05</ele>
        <time>2018-09-21T16:03:07Z</time>
      </trkpt>
      <trkpt lat="45.19546" lon="5.41881">
        <ele>244.75</ele>
        <time>2018-09-21T16:03:08Z</time>
      </trkpt>
      <trkpt lat="45.19525" lon="5.41851">
        <ele>244.96</ele>
        <time>2018-09-21T16:03:09Z</time>
      </trkpt>
      <trkpt lat="45.19505" lon="5.41823">
        <ele>245.02</ele>
        <time>2018-09-21T16:03:10Z</time>
      </trkpt>
      <trkpt lat="45.19485" lon="5.41795">
        <ele>244.34</ele>
        <time>2018-09-21T16:03:11Z</time>
      </trkpt>
      <trkpt lat="45.19466" lon="5.41769">
        <ele>244.14</ele>
        <time>2018-09-21T16:03:12Z</time>
      </trkpt>
      <trkpt lat="45.19447" lon="5.41743">
        <ele>244.08</ele>
        <time>2018-09-21T16:03:13Z</time>
      </trkpt>
      <trkpt lat="45.19428" lon="5.41716">
        <ele>244.06</ele>
        <time>2018-09-21T16:03:14Z</time>
      </trkpt>
      <trkpt lat="45.19408" lon="5.41689">
        <ele>243.35</ele>
        <time>2018-09-21T16:03:15Z</time>
      </trkpt>
      <trkpt lat="45.19388" lon="5.41662">
        <ele>243.14</ele>
        <time>2018-09-21T16:03:16Z</time>
      </trkpt>
      <trkpt lat="45.19367" lon="5.41635">
        <ele>243.08</ele>
        <time>2018-09-21T16:03:17Z</time>
      </trkpt>
      <trkpt lat="45.19347" lon="5.41609">
        <ele>243.06</ele>
        <time>2018-09-21T16:03:18Z</time>
      </trkpt>
      <trkpt lat="45.19326" lon="5.41584">
        <ele>243.05</ele>
        <time>2018-09-21T16:03:19Z</time>
      </trkpt>
      <trkpt lat="45.19305" lon="5.41559">
        <ele>243.05</ele>
        <time>2018-09-21T16:03:20Z</time>
      </trkpt>
      <trkpt lat="45.19284" lon="5.41534">
        <ele>243.05</ele>
        <time>2018-09-21T16:03:21Z</time>
      </trkpt>
      <trkpt lat="45.19262" lon="5.4151">
        <ele>243.05</ele>
        <time>2018-09-21T16:03:22Z</time>
      </trkpt>
      <trkpt lat="45.19239" lon="5.41486">
        <ele>243.05</ele>
        <time>2018-09-21T16:03:23Z</time>
      </trkpt>
      <trkpt lat="45.19216" lon="5.41462">
        <ele>242.35</ele>
        <time>2018-09-21T16:03:24Z</time>
      </trkpt>
      <trkpt lat="45.19193" lon="5.41438">
        <ele>242.14</ele>
        <time>2018-09-21T16:03:25Z</time>
      </trkpt>
      <trkpt lat="45.19169" lon="5.41414">
        <ele>242.08</ele>
        <time>2018-09-21T16:03:26Z</time>
      </trkpt>
      <trkpt lat="45.19145" lon="5.41391">
        <ele>242.76</ele>
        <time>2018-09-21T16:03:27Z</time>
      </trkpt>
      <trkpt lat="45.19122" lon="5.41369">
        <ele>242.26</ele>
        <time>2018-09-21T16:03:28Z</time>
      </trkpt>
      <trkpt lat="45.19098" lon="5.41347">
        <ele>241.41</ele>
        <time>2018-09-21T16:03:29Z</time>
      </trkpt>
      <trkpt lat="45.19074" lon="5.41325">
        <ele>241.16</ele>
        <time>2018-09-21T16:03:30Z</time>
      </trkpt>
      <trkpt lat="45.1905" lon="5.41303">
        <ele>240.38</ele>
        <time>2018-09-21T16:03:31Z</time>
      </trkpt>
      <trkpt lat="45.19026" lon="5.4128">
        <ele>240.15</ele>
        <time>2018-09-21T16:03:32Z</time>
      </trkpt>
      <trkpt lat="45.19001" lon="5.41257">
        <ele>240.08</ele>
        <time>2018-09-21T16:03:33Z</time>
      </trkpt>
      <trkpt lat="45.18976" lon="5.41233">
        <ele>240.06</ele>
        <time>2018-09-21T16:03:34Z</time>
      </trkpt>
      <trkpt lat="45.18951" lon="5.41209">
        <ele>240.75</ele>
        <time>2018-09-21T16:03:35Z</time>
      </trkpt>
      <trkpt lat="45.18926" lon="5.41184">
        <ele>240.26</ele>
        <time>2018-09-21T16:03:36Z</time>
      </trkpt>
      <trkpt lat="45.18902" lon="5.41159">
        <ele>240.11</ele>
        <time>2018-09-21T16:03:37Z</time>
      </trkpt>
      <trkpt lat="45.18878" lon="5.41133">
        <ele>240.07</ele>
        <time>2018-09-21T16:03:38Z</time>
      </trkpt>
      <trkpt lat="45.18854" lon="5.41107">
        <ele>240.05</ele>
        <time>2018-09-21T16:03:39Z</time>
      </trkpt>
      <trkpt lat="45.18831" lon="5.41079">
        <ele>240.05</ele>
        <time>2018-09-21T16:03:40Z</time>
      </trkpt>
      <trkpt lat="45.18808" lon="5.4105">
        <ele>240.05</ele>
        <time>2018-09-21T16:03:41Z</time>
      </trkpt>
      <trkpt lat="45.18785" lon="5.41022">
        <ele>240.05</ele>
        <time>2018-09-21T16:03:42Z</time>
      </trkpt>
      <trkpt lat="45.18764" lon="5.40994">
        <ele>240.05</ele>
        <time>2018-09-21T16:03:43Z</time>
      </trkpt>
      <trkpt lat="45.18744" lon="5.40966">
        <ele>239.35</ele>
        <time>2018-09-21T16:03:44Z</time>
      </trkpt>
      <trkpt lat="45.18724" lon="5.40938">
        <ele>239.14</ele>
        <time>2018-09-21T16:03:45Z</time>
      </trkpt>
      <trkpt lat="45.18704" lon="5.4091">
        <ele>239.08</ele>
        <time>2018-09-21T16:03:46Z</time>
      </trkpt>
      <trkpt lat="45.18685" lon="5.40881">
        <ele>239.06</ele>
        <time>2018-09-21T16:03:47Z</time>
      </trkpt>
      <trkpt lat="45.18666" lon="5.40851">
        <ele>239.05</ele>
        <time>2018-09-21T16:03:48Z</time>
      </trkpt>
      <trkpt lat="45.18647" lon="5.40821">
        <ele>239.05</ele>
        <time>2018-09-21T16:03:49Z</time>
      </trkpt>
      <trkpt lat="45.18628" lon="5.4079">
        <ele>239.05</ele>
        <time>2018-09-21T16:03:50Z</time>
      </trkpt>
      <trkpt lat="45.18609" lon="5.40759">
        <ele>239.05</ele>
        <time>2018-09-21T16:03:51Z</time>
      </trkpt>
      <trkpt lat="45.18591" lon="5.40728">
        <ele>239.05</ele>
        <time>2018-09-21T16:03:52Z</time>
      </trkpt>
      <trkpt lat="45.18571" lon="5.40698">
        <ele>239.05</ele>
        <time>2018-09-21T16:03:53Z</time>
      </trkpt>
      <trkpt lat="45.18552" lon="5.40667">
        <ele>239.05</ele>
        <time>2018-09-21T16:03:54Z</time>
      </trkpt>
      <trkpt lat="45.18533" lon="5.40635">
        <ele>239.05</ele>
        <time>2018-09-21T16:03:55Z</time>
      </trkpt>
      <trkpt lat="45.18512" lon="5.40603">
        <ele>238.35</ele>
        <time>2018-09-21T16:03:56Z</time>
      </trkpt>
      <trkpt lat="45.18492" lon="5.40571">
        <ele>238.14</ele>
        <time>2018-09-21T16:03:57Z</time>
      </trkpt>
      <trkpt lat="45.18471" lon="5.40539">
        <ele>238.08</ele>
        <time>2018-09-21T16:03:58Z</time>
      </trkpt>
      <trkpt lat="45.18449" lon="5.40507">
        <ele>238.06</ele>
        <time>2018-09-21T16:03:59Z</time>
      </trkpt>
      <trkpt lat="45.18427" lon="5.40476">
        <ele>238.05</ele>
        <time>2018-09-21T16:04:00Z</time>
      </trkpt>
      <trkpt lat="45.18404" lon="5.40445">
        <ele>238.05</ele>
        <time>2018-09-21T16:04:01Z</time>
      </trkpt>
      <trkpt lat="45.18381" lon="5.40415">
        <ele>238.05</ele>
        <time>2018-09-21T16:04:02Z</time>
      </trkpt>
      <trkpt lat="45.18357" lon="5.40385">
        <ele>238.05</ele>
        <time>2018-09-21T16:04:03Z</time>
      </trkpt>
      <trkpt lat="45.18332" lon="5.40357">
        <ele>238.05</ele>
        <time>2018-09-21T16:04:04Z</time>
      </trkpt>
      <trkpt lat="45.18306" lon="5.40327">
        <ele>238.05</ele>
        <time>2018-09-21T16:04:05Z</time>
      </trkpt>
      <trkpt lat="45.18279" lon="5.40296">
        <ele>238.05</ele>
        <time>2018-09-21T16:04:06Z</time>
      </trkpt>
      <trkpt lat="45.18252" lon="5.40268">
        <ele>237.35</ele>
        <time>2018-09-21T16:04:07Z</time>
      </trkpt>
      <trkpt lat="45.18224" lon="5.4024">
        <ele>237.14</ele>
        <time>2018-09-21T16:04:08Z</time>
      </trkpt>
      <trkpt lat="45.18196" lon="5.40212">
        <ele>237.08</ele>
        <time>2018-09-21T16:04:09Z</time>
      </trkpt>
      <trkpt lat="45.18169" lon="5.40186">
        <ele>236.36</ele>
        <time>2018-09-21T16:04:10Z</time>
      </trkpt>
      <trkpt lat="45.18139" lon="5.40159">
        <ele>236.14</ele>
        <time>2018-09-21T16:04:11Z</time>
      </trkpt>
      <trkpt lat="45.18109" lon="5.40133">
        <ele>236.08</ele>
        <time>2018-09-21T16:04:12Z</time>
      </trkpt>
      <trkpt lat="45.18081" lon="5.40104">
        <ele>235.36</ele>
        <time>2018-09-21T16:04:13Z</time>
      </trkpt>
      <trkpt lat="45.18052" lon="5.40077">
        <ele>234.44</ele>
        <time>2018-09-21T16:04:14Z</time>
      </trkpt>
      <trkpt lat="45.18024" lon="5.40049">
        <ele>234.87</ele>
        <time>2018-09-21T16:04:15Z</time>
      </trkpt>
      <trkpt lat="45.17998" lon="5.4002">
        <ele>234.99</ele>
        <time>2018-09-21T16:04:16Z</time>
      </trkpt>
      <trkpt lat="45.17972" lon="5.39989">
        <ele>234.33</ele>
        <time>2018-09-21T16:04:17Z</time>
      </trkpt>
      <trkpt lat="45.17948" lon="5.39958">
        <ele>234.13</ele>
        <time>2018-09-21T16:04:18Z</time>
      </trkpt>
      <trkpt lat="45.17924" lon="5.39925">
        <ele>233.37</ele>
        <time>2018-09-21T16:04:19Z</time>
      </trkpt>
      <trkpt lat="45.179" lon="5.39891">
        <ele>232.45</ele>
        <time>2018-09-21T16:04:20Z</time>
      </trkpt>
      <trkpt lat="45.17877" lon="5.39857">
        <ele>232.17</ele>
        <time>2018-09-21T16:04:21Z</time>
      </trkpt>
      <trkpt lat="45.17855" lon="5.39821">
        <ele>231.38</ele>
        <time>2018-09-21T16:04:22Z</time>
      </trkpt>
      <trkpt lat="45.17834" lon="5.39783">
        <ele>231.15</ele>
        <time>2018-09-21T16:04:23Z</time>
      </trkpt>
      <trkpt lat="45.17814" lon="5.39745">
        <ele>230.38</ele>
        <time>2018-09-21T16:04:24Z</time>
      </trkpt>
      <trkpt lat="45.17796" lon="5.39707">
        <ele>229.45</ele>
        <time>2018-09-21T16:04:25Z</time>
      </trkpt>
      <trkpt lat="45.17779" lon="5.3967">
        <ele>228.47</ele>
        <time>2018-09-21T16:04:26Z</time>
      </trkpt>
      <trkpt lat="45.17764" lon="5.39632">
        <ele>227.47</ele>
        <time>2018-09-21T16:04:27Z</time>
      </trkpt>
      <trkpt lat="45.1775" lon="5.39593">
        <ele>226.48</ele>
        <time>2018-09-21T16:04:28Z</time>
      </trkpt>
      <trkpt lat="45.17736" lon="5.39555">
        <ele>225.48</ele>
        <time>2018-09-21T16:04:29Z</time>
      </trkpt>
      <trkpt lat="45.17722" lon="5.39517">
        <ele>224.48</ele>
        <time>2018-09-21T16:04:30Z</time>
      </trkpt>
      <trkpt lat="45.17708" lon="5.39479">
        <ele>224.18</ele>
        <time>2018-09-21T16:04:31Z</time>
      </trkpt>
      <trkpt lat="45.17695" lon="5.39441">
        <ele>222.69</ele>
        <time>2018-09-21T16:04:32Z</time>
      </trkpt>
      <trkpt lat="45.17682" lon="5.39402">
        <ele>221.54</ele>
        <time>2018-09-21T16:04:33Z</time>
      </trkpt>
      <trkpt lat="45.17668" lon="5.39362">
        <ele>220.5</ele>
        <time>2018-09-21T16:04:34Z</time>
      </trkpt>
      <trkpt lat="45.17654" lon="5.39323">
        <ele>219.48</ele>
        <time>2018-09-21T16:04:35Z</time>
      </trkpt>
      <trkpt lat="45.1764" lon="5.39283">
        <ele>218.48</ele>
        <time>2018-09-21T16:04:36Z</time>
      </trkpt>
      <trkpt lat="45.17625" lon="5.39244">
        <ele>217.48</ele>
        <time>2018-09-21T16:04:37Z</time>
      </trkpt>
      <trkpt lat="45.1761" lon="5.39205">
        <ele>217.18</ele>
        <time>2018-09-21T16:04:38Z</time>
      </trkpt>
      <trkpt lat="45.17595" lon="5.39168">
        <ele>216.39</ele>
        <time>2018-09-21T16:04:39Z</time>
      </trkpt>
      <trkpt lat="45.17578" lon="5.39132">
        <ele>215.45</ele>
        <time>2018-09-21T16:04:40Z</time>
      </trkpt>
      <trkpt lat="45.17561" lon="5.39096">
        <ele>215.17</ele>
        <time>2018-09-21T16:04:41Z</time>
      </trkpt>
      <trkpt lat="45.17544" lon="5.39059">
        <ele>214.39</ele>
        <time>2018-09-21T16:04:42Z</time>
      </trkpt>
      <trkpt lat="45.17527" lon="5.39024">
        <ele>214.15</ele>
        <time>2018-09-21T16:04:43Z</time>
      </trkpt>
      <trkpt lat="45.17509" lon="5.38989">
        <ele>214.08</ele>
        <time>2018-09-21T16:04:44Z</time>
      </trkpt>
      <trkpt lat="45.17491" lon="5.38954">
        <ele>214.06</ele>
        <time>2018-09-21T16:04:45Z</time>
      </trkpt>
      <trkpt lat="45.17473" lon="5.38919">
        <ele>214.75</ele>
        <time>2018-09-21T16:04:46Z</time>
      </trkpt>
      <trkpt lat="45.17456" lon="5.38884">
        <ele>214.96</ele>
        <time>2018-09-21T16:04:47Z</time>
      </trkpt>
      <trkpt lat="45.17438" lon="5.38851">
        <ele>215.72</ele>
        <time>2018-09-21T16:04:48Z</time>
      </trkpt>
      <trkpt lat="45.17419" lon="5.38818">
        <ele>216.65</ele>
        <time>2018-09-21T16:04:49Z</time>
      </trkpt>
      <trkpt lat="45.17402" lon="5.38786">
        <ele>216.93</ele>
        <time>2018-09-21T16:04:50Z</time>
      </trkpt>
      <trkpt lat="45.17384" lon="5.38756">
        <ele>217.01</ele>
        <time>2018-09-21T16:04:51Z</time>
      </trkpt>
      <trkpt lat="45.17367" lon="5.38725">
        <ele>217.74</ele>
        <time>2018-09-21T16:04:52Z</time>
      </trkpt>
      <trkpt lat="45.17351" lon="5.38695">
        <ele>218.66</ele>
        <time>2018-09-21T16:04:53Z</time>
      </trkpt>
      <trkpt lat="45.17335" lon="5.38664">
        <ele>218.93</ele>
        <time>2018-09-21T16:04:54Z</time>
      </trkpt>
      <trkpt lat="45.17318" lon="5.38633">
        <ele>219.01</ele>
        <time>2018-09-21T16:04:55Z</time>
      </trkpt>
      <trkpt lat="45.17302" lon="5.38601">
        <ele>219.74</ele>
        <time>2018-09-21T16:04:56Z</time>
      </trkpt>
      <trkpt lat="45.17286" lon="5.38568">
        <ele>219.96</ele>
        <time>2018-09-21T16:04:57Z</time>
      </trkpt>
      <trkpt lat="45.1727" lon="5.38533">
        <ele>220.72</ele>
        <time>2018-09-21T16:04:58Z</time>
      </trkpt>
      <trkpt lat="45.17254" lon="5.38498">
        <ele>220.25</ele>
        <time>2018-09-21T16:04:59Z</time>
      </trkpt>
      <trkpt lat="45.17236" lon="5.3846">
        <ele>220.81</ele>
        <time>2018-09-21T16:05:00Z</time>
      </trkpt>
      <trkpt lat="45.17218" lon="5.38421">
        <ele>220.98</ele>
        <time>2018-09-21T16:05:01Z</time>
      </trkpt>
      <trkpt lat="45.172" lon="5.38382">
        <ele>221.73</ele>
        <time>2018-09-21T16:05:02Z</time>
      </trkpt>
      <trkpt lat="45.17182" lon="5.38343">
        <ele>221.95</ele>
        <time>2018-09-21T16:05:03Z</time>
      </trkpt>
      <trkpt lat="45.17164" lon="5.38303">
        <ele>222.02</ele>
        <time>2018-09-21T16:05:04Z</time>
      </trkpt>
      <trkpt lat="45.17145" lon="5.38264">
        <ele>222.74</ele>
        <time>2018-09-21T16:05:05Z</time>
      </trkpt>
      <trkpt lat="45.17126" lon="5.38225">
        <ele>223.66</ele>
        <time>2018-09-21T16:05:06Z</time>
      </trkpt>
      <trkpt lat="45.17107" lon="5.38186">
        <ele>224.63</ele>
        <time>2018-09-21T16:05:07Z</time>
      </trkpt>
      <trkpt lat="45.17087" lon="5.38147">
        <ele>225.62</ele>
        <time>2018-09-21T16:05:08Z</time>
      </trkpt>
      <trkpt lat="45.17068" lon="5.38109">
        <ele>226.62</ele>
        <time>2018-09-21T16:05:09Z</time>
      </trkpt>
      <trkpt lat="45.17049" lon="5.38072">
        <ele>227.62</ele>
        <time>2018-09-21T16:05:10Z</time>
      </trkpt>
      <trkpt lat="45.17029" lon="5.38034">
        <ele>229.32</ele>
        <time>2018-09-21T16:05:11Z</time>
      </trkpt>
      <trkpt lat="45.1701" lon="5.37997">
        <ele>230.53</ele>
        <time>2018-09-21T16:05:12Z</time>
      </trkpt>
      <trkpt lat="45.1699" lon="5.37961">
        <ele>232.29</ele>
        <time>2018-09-21T16:05:13Z</time>
      </trkpt>
      <trkpt lat="45.1697" lon="5.37926">
        <ele>234.22</ele>
        <time>2018-09-21T16:05:14Z</time>
      </trkpt>
      <trkpt lat="45.16949" lon="5.37891">
        <ele>236.2</ele>
        <time>2018-09-21T16:05:15Z</time>
      </trkpt>
      <trkpt lat="45.16928" lon="5.37855">
        <ele>238.19</ele>
        <time>2018-09-21T16:05:16Z</time>
      </trkpt>
      <trkpt lat="45.16907" lon="5.3782">
        <ele>239.49</ele>
        <time>2018-09-21T16:05:17Z</time>
      </trkpt>
      <trkpt lat="45.16886" lon="5.37785">
        <ele>241.28</ele>
        <time>2018-09-21T16:05:18Z</time>
      </trkpt>
      <trkpt lat="45.16864" lon="5.3775">
        <ele>243.22</ele>
        <time>2018-09-21T16:05:19Z</time>
      </trkpt>
      <trkpt lat="45.16842" lon="5.37715">
        <ele>245.2</ele>
        <time>2018-09-21T16:05:20Z</time>
      </trkpt>
      <trkpt lat="45.1682" lon="5.37681">
        <ele>246.49</ele>
        <time>2018-09-21T16:05:21Z</time>
      </trkpt>
      <trkpt lat="45.16799" lon="5.37646">
        <ele>247.58</ele>
        <time>2018-09-21T16:05:22Z</time>
      </trkpt>
      <trkpt lat="45.16778" lon="5.37611">
        <ele>249.31</ele>
        <time>2018-09-21T16:05:23Z</time>
      </trkpt>
      <trkpt lat="45.16757" lon="5.37576">
        <ele>250.53</ele>
        <time>2018-09-21T16:05:24Z</time>
      </trkpt>
      <trkpt lat="45.16736" lon="5.37541">
        <ele>252.29</ele>
        <time>2018-09-21T16:05:25Z</time>
      </trkpt>
      <trkpt lat="45.16715" lon="5.37507">
        <ele>253.52</ele>
        <time>2018-09-21T16:05:26Z</time>
      </trkpt>
      <trkpt lat="45.16694" lon="5.37472">
        <ele>254.59</ele>
        <time>2018-09-21T16:05:27Z</time>
      </trkpt>
      <trkpt lat="45.16675" lon="5.37436">
        <ele>255.61</ele>
        <time>2018-09-21T16:05:28Z</time>
      </trkpt>
      <trkpt lat="45.16655" lon="5.37399">
        <ele>255.92</ele>
        <time>2018-09-21T16:05:29Z</time>
      </trkpt>
      <trkpt lat="45.16636" lon="5.37361">
        <ele>256.71</ele>
        <time>2018-09-21T16:05:30Z</time>
      </trkpt>
      <trkpt lat="45.16618" lon="5.37323">
        <ele>257.65</ele>
        <time>2018-09-21T16:05:31Z</time>
      </trkpt>
      <trkpt lat="45.16599" lon="5.37284">
        <ele>257.93</ele>
        <time>2018-09-21T16:05:32Z</time>
      </trkpt>
      <trkpt lat="45.1658" lon="5.37245">
        <ele>259.41</ele>
        <time>2018-09-21T16:05:33Z</time>
      </trkpt>
      <trkpt lat="45.16562" lon="5.37205">
        <ele>260.56</ele>
        <time>2018-09-21T16:05:34Z</time>
      </trkpt>
      <trkpt lat="45.16544" lon="5.37165">
        <ele>260.9</ele>
        <time>2018-09-21T16:05:35Z</time>
      </trkpt>
      <trkpt lat="45.16526" lon="5.37124">
        <ele>261.7</ele>
        <time>2018-09-21T16:05:36Z</time>
      </trkpt>
      <trkpt lat="45.16507" lon="5.37084">
        <ele>262.65</ele>
        <time>2018-09-21T16:05:37Z</time>
      </trkpt>
      <trkpt lat="45.16487" lon="5.37045">
        <ele>262.93</ele>
        <time>2018-09-21T16:05:38Z</time>
      </trkpt>
      <trkpt lat="45.16466" lon="5.37005">
        <ele>263.01</ele>
        <time>2018-09-21T16:05:39Z</time>
      </trkpt>
      <trkpt lat="45.16446" lon="5.36966">
        <ele>262.34</ele>
        <time>2018-09-21T16:05:40Z</time>
      </trkpt>
      <trkpt lat="45.16424" lon="5.36928">
        <ele>262.14</ele>
        <time>2018-09-21T16:05:41Z</time>
      </trkpt>
      <trkpt lat="45.16402" lon="5.36891">
        <ele>262.08</ele>
        <time>2018-09-21T16:05:42Z</time>
      </trkpt>
      <trkpt lat="45.1638" lon="5.36853">
        <ele>262.06</ele>
        <time>2018-09-21T16:05:43Z</time>
      </trkpt>
      <trkpt lat="45.16358" lon="5.36817">
        <ele>262.05</ele>
        <time>2018-09-21T16:05:44Z</time>
      </trkpt>
      <trkpt lat="45.16336" lon="5.3678">
        <ele>262.05</ele>
        <time>2018-09-21T16:05:45Z</time>
      </trkpt>
      <trkpt lat="45.16313" lon="5.36743">
        <ele>262.05</ele>
        <time>2018-09-21T16:05:46Z</time>
      </trkpt>
      <trkpt lat="45.16291" lon="5.36707">
        <ele>262.05</ele>
        <time>2018-09-21T16:05:47Z</time>
      </trkpt>
      <trkpt lat="45.16269" lon="5.36671">
        <ele>261.35</ele>
        <time>2018-09-21T16:05:48Z</time>
      </trkpt>
      <trkpt lat="45.16248" lon="5.36635">
        <ele>261.14</ele>
        <time>2018-09-21T16:05:49Z</time>
      </trkpt>
      <trkpt lat="45.16226" lon="5.36598">
        <ele>261.08</ele>
        <time>2018-09-21T16:05:50Z</time>
      </trkpt>
      <trkpt lat="45.16203" lon="5.36562">
        <ele>261.06</ele>
        <time>2018-09-21T16:05:51Z</time>
      </trkpt>
      <trkpt lat="45.16181" lon="5.36527">
        <ele>261.05</ele>
        <time>2018-09-21T16:05:52Z</time>
      </trkpt>
      <trkpt lat="45.16159" lon="5.3649">
        <ele>261.05</ele>
        <time>2018-09-21T16:05:53Z</time>
      </trkpt>
      <trkpt lat="45.16137" lon="5.36453">
        <ele>261.05</ele>
        <time>2018-09-21T16:05:54Z</time>
      </trkpt>
      <trkpt lat="45.16114" lon="5.36417">
        <ele>261.05</ele>
        <time>2018-09-21T16:05:55Z</time>
      </trkpt>
      <trkpt lat="45.16091" lon="5.36381">
        <ele>261.05</ele>
        <time>2018-09-21T16:05:56Z</time>
      </trkpt>
      <trkpt lat="45.16067" lon="5.36346">
        <ele>261.05</ele>
        <time>2018-09-21T16:05:57Z</time>
      </trkpt>
      <trkpt lat="45.16043" lon="5.36313">
        <ele>261.05</ele>
        <time>2018-09-21T16:05:58Z</time>
      </trkpt>
      <trkpt lat="45.16018" lon="5.3628">
        <ele>261.05</ele>
        <time>2018-09-21T16:05:59Z</time>
      </trkpt>
      <trkpt lat="45.15993" lon="5.36248">
        <ele>260.35</ele>
        <time>2018-09-21T16:06:00Z</time>
      </trkpt>
      <trkpt lat="45.15967" lon="5.36218">
        <ele>260.14</ele>
        <time>2018-09-21T16:06:01Z</time>
      </trkpt>
      <trkpt lat="45.1594" lon="5.36188">
        <ele>260.78</ele>
        <time>2018-09-21T16:06:02Z</time>
      </trkpt>
      <trkpt lat="45.15914" lon="5.36158">
        <ele>260.97</ele>
        <time>2018-09-21T16:06:03Z</time>
      </trkpt>
      <trkpt lat="45.15886" lon="5.36129">
        <ele>260.32</ele>
        <time>2018-09-21T16:06:04Z</time>
      </trkpt>
      <trkpt lat="45.15858" lon="5.36101">
        <ele>260.13</ele>
        <time>2018-09-21T16:06:05Z</time>
      </trkpt>
      <trkpt lat="45.1583" lon="5.36073">
        <ele>260.07</ele>
        <time>2018-09-21T16:06:06Z</time>
      </trkpt>
      <trkpt lat="45.15801" lon="5.36048">
        <ele>259.36</ele>
        <time>2018-09-21T16:06:07Z</time>
      </trkpt>
      <trkpt lat="45.15772" lon="5.36023">
        <ele>259.14</ele>
        <time>2018-09-21T16:06:08Z</time>
      </trkpt>
      <trkpt lat="45.15743" lon="5.36">
        <ele>259.08</ele>
        <time>2018-09-21T16:06:09Z</time>
      </trkpt>
      <trkpt lat="45.15715" lon="5.35977">
        <ele>259.06</ele>
        <time>2018-09-21T16:06:10Z</time>
      </trkpt>
      <trkpt lat="45.15685" lon="5.35956">
        <ele>258.35</ele>
        <time>2018-09-21T16:06:11Z</time>
      </trkpt>
      <trkpt lat="45.15656" lon="5.35936">
        <ele>258.14</ele>
        <time>2018-09-21T16:06:12Z</time>
      </trkpt>
      <trkpt lat="45.15626" lon="5.35916">
        <ele>258.08</ele>
        <time>2018-09-21T16:06:13Z</time>
      </trkpt>
      <trkpt lat="45.15596" lon="5.35896">
        <ele>257.36</ele>
        <time>2018-09-21T16:06:14Z</time>
      </trkpt>
      <trkpt lat="45.15566" lon="5.35877">
        <ele>257.14</ele>
        <time>2018-09-21T16:06:15Z</time>
      </trkpt>
      <trkpt lat="45.15536" lon="5.35858">
        <ele>256.38</ele>
        <time>2018-09-21T16:06:16Z</time>
      </trkpt>
      <trkpt lat="45.15505" lon="5.35839">
        <ele>256.15</ele>
        <time>2018-09-21T16:06:17Z</time>
      </trkpt>
      <trkpt lat="45.15475" lon="5.3582">
        <ele>255.38</ele>
        <time>2018-09-21T16:06:18Z</time>
      </trkpt>
      <trkpt lat="45.15446" lon="5.35799">
        <ele>255.15</ele>
        <time>2018-09-21T16:06:19Z</time>
      </trkpt>
      <trkpt lat="45.15416" lon="5.3578">
        <ele>255.08</ele>
        <time>2018-09-21T16:06:20Z</time>
      </trkpt>
      <trkpt lat="45.15387" lon="5.35759">
        <ele>255.06</ele>
        <time>2018-09-21T16:06:21Z</time>
      </trkpt>
      <trkpt lat="45.15357" lon="5.35737">
        <ele>255.05</ele>
        <time>2018-09-21T16:06:22Z</time>
      </trkpt>
      <trkpt lat="45.15328" lon="5.35714">
        <ele>254.35</ele>
        <time>2018-09-21T16:06:23Z</time>
      </trkpt>
      <trkpt lat="45.15299" lon="5.3569">
        <ele>254.14</ele>
        <time>2018-09-21T16:06:24Z</time>
      </trkpt>
      <trkpt lat="45.1527" lon="5.35665">
        <ele>254.08</ele>
        <time>2018-09-21T16:06:25Z</time>
      </trkpt>
      <trkpt lat="45.15242" lon="5.35639">
        <ele>253.36</ele>
        <time>2018-09-21T16:06:26Z</time>
      </trkpt>
      <trkpt lat="45.15215" lon="5.35613">
        <ele>253.14</ele>
        <time>2018-09-21T16:06:27Z</time>
      </trkpt>
      <trkpt lat="45.15187" lon="5.35586">
        <ele>253.08</ele>
        <time>2018-09-21T16:06:28Z</time>
      </trkpt>
      <trkpt lat="45.1516" lon="5.35557">
        <ele>253.06</ele>
        <time>2018-09-21T16:06:29Z</time>
      </trkpt>
      <trkpt lat="45.15134" lon="5.35528">
        <ele>252.35</ele>
        <time>2018-09-21T16:06:30Z</time>
      </trkpt>
      <trkpt lat="45.15108" lon="5.35498">
        <ele>251.44</ele>
        <time>2018-09-21T16:06:31Z</time>
      </trkpt>
      <trkpt lat="45.15082" lon="5.35468">
        <ele>251.87</ele>
        <time>2018-09-21T16:06:32Z</time>
      </trkpt>
      <trkpt lat="45.15056" lon="5.35436">
        <ele>251.29</ele>
        <time>2018-09-21T16:06:33Z</time>
      </trkpt>
      <trkpt lat="45.15031" lon="5.35405">
        <ele>251.82</ele>
        <time>2018-09-21T16:06:34Z</time>
      </trkpt>
      <trkpt lat="45.15006" lon="5.35372">
        <ele>251.28</ele>
        <time>2018-09-21T16:06:35Z</time>
      </trkpt>
      <trkpt lat="45.14982" lon="5.35338">
        <ele>251.12</ele>
        <time>2018-09-21T16:06:36Z</time>
      </trkpt>
      <trkpt lat="45.14958" lon="5.35305">
        <ele>251.07</ele>
        <time>2018-09-21T16:06:37Z</time>
      </trkpt>
      <trkpt lat="45.14936" lon="5.35269">
        <ele>251.06</ele>
        <time>2018-09-21T16:06:38Z</time>
      </trkpt>
      <trkpt lat="45.14914" lon="5.35233">
        <ele>251.05</ele>
        <time>2018-09-21T16:06:39Z</time>
      </trkpt>
      <trkpt lat="45.14892" lon="5.35197">
        <ele>251.05</ele>
        <time>2018-09-21T16:06:40Z</time>
      </trkpt>
      <trkpt lat="45.14871" lon="5.3516">
        <ele>251.05</ele>
        <time>2018-09-21T16:06:41Z</time>
      </trkpt>
      <trkpt lat="45.1485" lon="5.35123">
        <ele>251.05</ele>
        <time>2018-09-21T16:06:42Z</time>
      </trkpt>
      <trkpt lat="45.14829" lon="5.35085">
        <ele>251.05</ele>
        <time>2018-09-21T16:06:43Z</time>
      </trkpt>
      <trkpt lat="45.14809" lon="5.35046">
        <ele>251.05</ele>
        <time>2018-09-21T16:06:44Z</time>
      </trkpt>
      <trkpt lat="45.1479" lon="5.35006">
        <ele>251.05</ele>
        <time>2018-09-21T16:06:45Z</time>
      </trkpt>
      <trkpt lat="45.14771" lon="5.34966">
        <ele>251.05</ele>
        <time>2018-09-21T16:06:46Z</time>
      </trkpt>
      <trkpt lat="45.14752" lon="5.34925">
        <ele>251.05</ele>
        <time>2018-09-21T16:06:47Z</time>
      </trkpt>
      <trkpt lat="45.14735" lon="5.34883">
        <ele>251.05</ele>
        <time>2018-09-21T16:06:48Z</time>
      </trkpt>
      <trkpt lat="45.14717" lon="5.34842">
        <ele>251.05</ele>
        <time>2018-09-21T16:06:49Z</time>
      </trkpt>
      <trkpt lat="45.14701" lon="5.348">
        <ele>251.05</ele>
        <time>2018-09-21T16:06:50Z</time>
      </trkpt>
      <trkpt lat="45.14686" lon="5.34759">
        <ele>250.35</ele>
        <time>2018-09-21T16:06:51Z</time>
      </trkpt>
      <trkpt lat="45.14671" lon="5.34717">
        <ele>250.14</ele>
        <time>2018-09-21T16:06:52Z</time>
      </trkpt>
      <trkpt lat="45.14655" lon="5.34676">
        <ele>250.08</ele>
        <time>2018-09-21T16:06:53Z</time>
      </trkpt>
      <trkpt lat="45.14638" lon="5.34635">
        <ele>249.36</ele>
        <time>2018-09-21T16:06:54Z</time>
      </trkpt>
      <trkpt lat="45.14622" lon="5.34595">
        <ele>249.14</ele>
        <time>2018-09-21T16:06:55Z</time>
      </trkpt>
      <trkpt lat="45.14605" lon="5.34554">
        <ele>249.08</ele>
        <time>2018-09-21T16:06:56Z</time>
      </trkpt>
      <trkpt lat="45.14586" lon="5.34513">
        <ele>249.06</ele>
        <time>2018-09-21T16:06:57Z</time>
      </trkpt>
      <trkpt lat="45.14568" lon="5.34473">
        <ele>249.05</ele>
        <time>2018-09-21T16:06:58Z</time>
      </trkpt>
      <trkpt lat="45.14549" lon="5.34433">
        <ele>249.05</ele>
        <time>2018-09-21T16:06:59Z</time>
      </trkpt>
      <trkpt lat="45.1453" lon="5.34395">
        <ele>249.05</ele>
        <time>2018-09-21T16:07:00Z</time>
      </trkpt>
      <trkpt lat="45.14509" lon="5.34356">
        <ele>249.05</ele>
        <time>2018-09-21T16:07:01Z</time>
      </trkpt>
      <trkpt lat="45.14488" lon="5.34319">
        <ele>249.05</ele>
        <time>2018-09-21T16:07:02Z</time>
      </trkpt>
      <trkpt lat="45.14466" lon="5.34282">
        <ele>249.05</ele>
        <time>2018-09-21T16:07:03Z</time>
      </trkpt>
      <trkpt lat="45.14444" lon="5.34245">
        <ele>249.05</ele>
        <time>2018-09-21T16:07:04Z</time>
      </trkpt>
      <trkpt lat="45.1442" lon="5.34208">
        <ele>249.05</ele>
        <time>2018-09-21T16:07:05Z</time>
      </trkpt>
      <trkpt lat="45.14396" lon="5.3417">
        <ele>249.05</ele>
        <time>2018-09-21T16:07:06Z</time>
      </trkpt>
      <trkpt lat="45.14372" lon="5.34134">
        <ele>249.05</ele>
        <time>2018-09-21T16:07:07Z</time>
      </trkpt>
      <trkpt lat="45.14347" lon="5.34097">
        <ele>248.35</ele>
        <time>2018-09-21T16:07:08Z</time>
      </trkpt>
      <trkpt lat="45.14322" lon="5.34061">
        <ele>248.14</ele>
        <time>2018-09-21T16:07:09Z</time>
      </trkpt>
      <trkpt lat="45.14296" lon="5.34025">
        <ele>248.08</ele>
        <time>2018-09-21T16:07:10Z</time>
      </trkpt>
      <trkpt lat="45.1427" lon="5.33989">
        <ele>247.36</ele>
        <time>2018-09-21T16:07:11Z</time>
      </trkpt>
      <trkpt lat="45.14245" lon="5.33952">
        <ele>247.14</ele>
        <time>2018-09-21T16:07:12Z</time>
      </trkpt>
      <trkpt lat="45.1422" lon="5.33914">
        <ele>247.08</ele>
        <time>2018-09-21T16:07:13Z</time>
      </trkpt>
      <trkpt lat="45.14195" lon="5.33877">
        <ele>246.36</ele>
        <time>2018-09-21T16:07:14Z</time>
      </trkpt>
      <trkpt lat="45.14172" lon="5.33838">
        <ele>246.14</ele>
        <time>2018-09-21T16:07:15Z</time>
      </trkpt>
      <trkpt lat="45.14149" lon="5.33798">
        <ele>246.08</ele>
        <time>2018-09-21T16:07:16Z</time>
      </trkpt>
      <trkpt lat="45.14127" lon="5.33757">
        <ele>245.36</ele>
        <time>2018-09-21T16:07:17Z</time>
      </trkpt>
      <trkpt lat="45.14106" lon="5.33716">
        <ele>245.14</ele>
        <time>2018-09-21T16:07:18Z</time>
      </trkpt>
      <trkpt lat="45.14084" lon="5.33674">
        <ele>245.08</ele>
        <time>2018-09-21T16:07:19Z</time>
      </trkpt>
      <trkpt lat="45.14064" lon="5.33631">
        <ele>244.36</ele>
        <time>2018-09-21T16:07:20Z</time>
      </trkpt>
      <trkpt lat="45.14043" lon="5.33587">
        <ele>244.14</ele>
        <time>2018-09-21T16:07:21Z</time>
      </trkpt>
      <trkpt lat="45.14023" lon="5.33544">
        <ele>243.38</ele>
        <time>2018-09-21T16:07:22Z</time>
      </trkpt>
      <trkpt lat="45.14004" lon="5.335">
        <ele>243.85</ele>
        <time>2018-09-21T16:07:23Z</time>
      </trkpt>
      <trkpt lat="45.13985" lon="5.33456">
        <ele>243.99</ele>
        <time>2018-09-21T16:07:24Z</time>
      </trkpt>
      <trkpt lat="45.13967" lon="5.33411">
        <ele>243.33</ele>
        <time>2018-09-21T16:07:25Z</time>
      </trkpt>
      <trkpt lat="45.13949" lon="5.33367">
        <ele>243.13</ele>
        <time>2018-09-21T16:07:26Z</time>
      </trkpt>
      <trkpt lat="45.13931" lon="5.33324">
        <ele>243.07</ele>
        <time>2018-09-21T16:07:27Z</time>
      </trkpt>
      <trkpt lat="45.13913" lon="5.3328">
        <ele>243.06</ele>
        <time>2018-09-21T16:07:28Z</time>
      </trkpt>
      <trkpt lat="45.13895" lon="5.33238">
        <ele>243.05</ele>
        <time>2018-09-21T16:07:29Z</time>
      </trkpt>
      <trkpt lat="45.13877" lon="5.33195">
        <ele>243.75</ele>
        <time>2018-09-21T16:07:30Z</time>
      </trkpt>
      <trkpt lat="45.1386" lon="5.33154">
        <ele>243.96</ele>
        <time>2018-09-21T16:07:31Z</time>
      </trkpt>
      <trkpt lat="45.13843" lon="5.33112">
        <ele>245.42</ele>
        <time>2018-09-21T16:07:32Z</time>
      </trkpt>
      <trkpt lat="45.13826" lon="5.33069">
        <ele>246.56</ele>
        <time>2018-09-21T16:07:33Z</time>
      </trkpt>
      <trkpt lat="45.1381" lon="5.33026">
        <ele>246.9</ele>
        <time>2018-09-21T16:07:34Z</time>
      </trkpt>
      <trkpt lat="45.13793" lon="5.32985">
        <ele>248.41</ele>
        <time>2018-09-21T16:07:35Z</time>
      </trkpt>
      <trkpt lat="45.13777" lon="5.32944">
        <ele>249.56</ele>
        <time>2018-09-21T16:07:36Z</time>
      </trkpt>
      <trkpt lat="45.1376" lon="5.32903">
        <ele>250.6</ele>
        <time>2018-09-21T16:07:37Z</time>
      </trkpt>
      <trkpt lat="45.13743" lon="5.32862">
        <ele>251.61</ele>
        <time>2018-09-21T16:07:38Z</time>
      </trkpt>
      <trkpt lat="45.13725" lon="5.32821">
        <ele>253.32</ele>
        <time>2018-09-21T16:07:39Z</time>
      </trkpt>
      <trkpt lat="45.13708" lon="5.3278">
        <ele>255.23</ele>
        <time>2018-09-21T16:07:40Z</time>
      </trkpt>
      <trkpt lat="45.13691" lon="5.32739">
        <ele>257.2</ele>
        <time>2018-09-21T16:07:41Z</time>
      </trkpt>
      <trkpt lat="45.13673" lon="5.32698">
        <ele>258.5</ele>
        <time>2018-09-21T16:07:42Z</time>
      </trkpt>
      <trkpt lat="45.13655" lon="5.32658">
        <ele>259.58</ele>
        <time>2018-09-21T16:07:43Z</time>
      </trkpt>
      <trkpt lat="45.13638" lon="5.32617">
        <ele>260.61</ele>
        <time>2018-09-21T16:07:44Z</time>
      </trkpt>
      <trkpt lat="45.1362" lon="5.32575">
        <ele>261.62</ele>
        <time>2018-09-21T16:07:45Z</time>
      </trkpt>
      <trkpt lat="45.13604" lon="5.32534">
        <ele>263.32</ele>
        <time>2018-09-21T16:07:46Z</time>
      </trkpt>
      <trkpt lat="45.13587" lon="5.32494">
        <ele>265.23</ele>
        <time>2018-09-21T16:07:47Z</time>
      </trkpt>
      <trkpt lat="45.1357" lon="5.32453">
        <ele>266.5</ele>
        <time>2018-09-21T16:07:48Z</time>
      </trkpt>
      <trkpt lat="45.13552" lon="5.32412">
        <ele>267.59</ele>
        <time>2018-09-21T16:07:49Z</time>
      </trkpt>
      <trkpt lat="45.13535" lon="5.32371">
        <ele>268.61</ele>
        <time>2018-09-21T16:07:50Z</time>
      </trkpt>
      <trkpt lat="45.13518" lon="5.32329">
        <ele>269.62</ele>
        <time>2018-09-21T16:07:51Z</time>
      </trkpt>
      <trkpt lat="45.13501" lon="5.32287">
        <ele>269.92</ele>
        <time>2018-09-21T16:07:52Z</time>
      </trkpt>
      <trkpt lat="45.13484" lon="5.32245">
        <ele>271.41</ele>
        <time>2018-09-21T16:07:53Z</time>
      </trkpt>
      <trkpt lat="45.13467" lon="5.32203">
        <ele>271.86</ele>
        <time>2018-09-21T16:07:54Z</time>
      </trkpt>
      <trkpt lat="45.1345" lon="5.3216">
        <ele>272.69</ele>
        <time>2018-09-21T16:07:55Z</time>
      </trkpt>
      <trkpt lat="45.13433" lon="5.32116">
        <ele>272.94</ele>
        <time>2018-09-21T16:07:56Z</time>
      </trkpt>
      <trkpt lat="45.13417" lon="5.32071">
        <ele>273.02</ele>
        <time>2018-09-21T16:07:57Z</time>
      </trkpt>
      <trkpt lat="45.13403" lon="5.32025">
        <ele>273.74</ele>
        <time>2018-09-21T16:07:58Z</time>
      </trkpt>
      <trkpt lat="45.13388" lon="5.31978">
        <ele>273.96</ele>
        <time>2018-09-21T16:07:59Z</time>
      </trkpt>
      <trkpt lat="45.13374" lon="5.31931">
        <ele>274.02</ele>
        <time>2018-09-21T16:08:00Z</time>
      </trkpt>
      <trkpt lat="45.13361" lon="5.31884">
        <ele>274.74</ele>
        <time>2018-09-21T16:08:01Z</time>
      </trkpt>
      <trkpt lat="45.13349" lon="5.31835">
        <ele>274.26</ele>
        <time>2018-09-21T16:08:02Z</time>
      </trkpt>
      <trkpt lat="45.13337" lon="5.31787">
        <ele>274.11</ele>
        <time>2018-09-21T16:08:03Z</time>
      </trkpt>
      <trkpt lat="45.13326" lon="5.31739">
        <ele>273.37</ele>
        <time>2018-09-21T16:08:04Z</time>
      </trkpt>
      <trkpt lat="45.13316" lon="5.31692">
        <ele>272.44</ele>
        <time>2018-09-21T16:08:05Z</time>
      </trkpt>
      <trkpt lat="45.13306" lon="5.31645">
        <ele>272.17</ele>
        <time>2018-09-21T16:08:06Z</time>
      </trkpt>
      <trkpt lat="45.13297" lon="5.31599">
        <ele>272.08</ele>
        <time>2018-09-21T16:08:07Z</time>
      </trkpt>
      <trkpt lat="45.13288" lon="5.31554">
        <ele>272.06</ele>
        <time>2018-09-21T16:08:08Z</time>
      </trkpt>
      <trkpt lat="45.13279" lon="5.31508">
        <ele>271.35</ele>
        <time>2018-09-21T16:08:09Z</time>
      </trkpt>
      <trkpt lat="45.1327" lon="5.31463">
        <ele>271.14</ele>
        <time>2018-09-21T16:08:10Z</time>
      </trkpt>
      <trkpt lat="45.1326" lon="5.31419">
        <ele>271.08</ele>
        <time>2018-09-21T16:08:11Z</time>
      </trkpt>
      <trkpt lat="45.13251" lon="5.31375">
        <ele>270.36</ele>
        <time>2018-09-21T16:08:12Z</time>
      </trkpt>
      <trkpt lat="45.1324" lon="5.3133">
        <ele>270.14</ele>
        <time>2018-09-21T16:08:13Z</time>
      </trkpt>
      <trkpt lat="45.13229" lon="5.31285">
        <ele>270.08</ele>
        <time>2018-09-21T16:08:14Z</time>
      </trkpt>
      <trkpt lat="45.13216" lon="5.31238">
        <ele>270.06</ele>
        <time>2018-09-21T16:08:15Z</time>
      </trkpt>
      <trkpt lat="45.13203" lon="5.31192">
        <ele>269.35</ele>
        <time>2018-09-21T16:08:16Z</time>
      </trkpt>
      <trkpt lat="45.13189" lon="5.31145">
        <ele>268.44</ele>
        <time>2018-09-21T16:08:17Z</time>
      </trkpt>
      <trkpt lat="45.13174" lon="5.31098">
        <ele>268.87</ele>
        <time>2018-09-21T16:08:18Z</time>
      </trkpt>
      <trkpt lat="45.13157" lon="5.31052">
        <ele>268.29</ele>
        <time>2018-09-21T16:08:19Z</time>
      </trkpt>
      <trkpt lat="45.13141" lon="5.31006">
        <ele>268.12</ele>
        <time>2018-09-21T16:08:20Z</time>
      </trkpt>
      <trkpt lat="45.13123" lon="5.30961">
        <ele>268.07</ele>
        <time>2018-09-21T16:08:21Z</time>
      </trkpt>
      <trkpt lat="45.13106" lon="5.30916">
        <ele>267.36</ele>
        <time>2018-09-21T16:08:22Z</time>
      </trkpt>
      <trkpt lat="45.13087" lon="5.30872">
        <ele>267.84</ele>
        <time>2018-09-21T16:08:23Z</time>
      </trkpt>
      <trkpt lat="45.13068" lon="5.30829">
        <ele>267.29</ele>
        <time>2018-09-21T16:08:24Z</time>
      </trkpt>
      <trkpt lat="45.13047" lon="5.30787">
        <ele>267.12</ele>
        <time>2018-09-21T16:08:25Z</time>
      </trkpt>
      <trkpt lat="45.13026" lon="5.30746">
        <ele>267.07</ele>
        <time>2018-09-21T16:08:26Z</time>
      </trkpt>
      <trkpt lat="45.13005" lon="5.30704">
        <ele>267.06</ele>
        <time>2018-09-21T16:08:27Z</time>
      </trkpt>
      <trkpt lat="45.12984" lon="5.30663">
        <ele>267.05</ele>
        <time>2018-09-21T16:08:28Z</time>
      </trkpt>
      <trkpt lat="45.12962" lon="5.30623">
        <ele>266.35</ele>
        <time>2018-09-21T16:08:29Z</time>
      </trkpt>
      <trkpt lat="45.1294" lon="5.30584">
        <ele>266.14</ele>
        <time>2018-09-21T16:08:30Z</time>
      </trkpt>
      <trkpt lat="45.12917" lon="5.30546">
        <ele>266.08</ele>
        <time>2018-09-21T16:08:31Z</time>
      </trkpt>
      <trkpt lat="45.12893" lon="5.30507">
        <ele>265.36</ele>
        <time>2018-09-21T16:08:32Z</time>
      </trkpt>
      <trkpt lat="45.1287" lon="5.30469">
        <ele>265.14</ele>
        <time>2018-09-21T16:08:33Z</time>
      </trkpt>
      <trkpt lat="45.12846" lon="5.30431">
        <ele>265.08</ele>
        <time>2018-09-21T16:08:34Z</time>
      </trkpt>
      <trkpt lat="45.12823" lon="5.30393">
        <ele>265.06</ele>
        <time>2018-09-21T16:08:35Z</time>
      </trkpt>
      <trkpt lat="45.128" lon="5.30355">
        <ele>264.35</ele>
        <time>2018-09-21T16:08:36Z</time>
      </trkpt>
      <trkpt lat="45.12778" lon="5.30316">
        <ele>264.14</ele>
        <time>2018-09-21T16:08:37Z</time>
      </trkpt>
      <trkpt lat="45.12756" lon="5.30276">
        <ele>264.08</ele>
        <time>2018-09-21T16:08:38Z</time>
      </trkpt>
      <trkpt lat="45.12734" lon="5.30236">
        <ele>263.36</ele>
        <time>2018-09-21T16:08:39Z</time>
      </trkpt>
      <trkpt lat="45.12713" lon="5.30194">
        <ele>263.14</ele>
        <time>2018-09-21T16:08:40Z</time>
      </trkpt>
      <trkpt lat="45.12693" lon="5.30152">
        <ele>263.78</ele>
        <time>2018-09-21T16:08:41Z</time>
      </trkpt>
      <trkpt lat="45.12673" lon="5.30109">
        <ele>263.97</ele>
        <time>2018-09-21T16:08:42Z</time>
      </trkpt>
      <trkpt lat="45.12654" lon="5.30065">
        <ele>264.02</ele>
        <time>2018-09-21T16:08:43Z</time>
      </trkpt>
      <trkpt lat="45.12636" lon="5.30022">
        <ele>264.04</ele>
        <time>2018-09-21T16:08:44Z</time>
      </trkpt>
      <trkpt lat="45.12618" lon="5.29977">
        <ele>263.35</ele>
        <time>2018-09-21T16:08:45Z</time>
      </trkpt>
      <trkpt lat="45.12601" lon="5.29932">
        <ele>263.14</ele>
        <time>2018-09-21T16:08:46Z</time>
      </trkpt>
      <trkpt lat="45.12584" lon="5.29886">
        <ele>263.78</ele>
        <time>2018-09-21T16:08:47Z</time>
      </trkpt>
      <trkpt lat="45.12567" lon="5.29839">
        <ele>263.27</ele>
        <time>2018-09-21T16:08:48Z</time>
      </trkpt>
      <trkpt lat="45.12552" lon="5.29793">
        <ele>263.11</ele>
        <time>2018-09-21T16:08:49Z</time>
      </trkpt>
      <trkpt lat="45.12538" lon="5.29745">
        <ele>262.37</ele>
        <time>2018-09-21T16:08:50Z</time>
      </trkpt>
      <trkpt lat="45.12524" lon="5.29698">
        <ele>262.14</ele>
        <time>2018-09-21T16:08:51Z</time>
      </trkpt>
      <trkpt lat="45.12511" lon="5.29651">
        <ele>262.08</ele>
        <time>2018-09-21T16:08:52Z</time>
      </trkpt>
      <trkpt lat="45.12499" lon="5.29602">
        <ele>262.06</ele>
        <time>2018-09-21T16:08:53Z</time>
      </trkpt>
      <trkpt lat="45.12488" lon="5.29554">
        <ele>262.05</ele>
        <time>2018-09-21T16:08:54Z</time>
      </trkpt>
      <trkpt lat="45.12478" lon="5.29505">
        <ele>262.05</ele>
        <time>2018-09-21T16:08:55Z</time>
      </trkpt>
      <trkpt lat="45.12469" lon="5.29458">
        <ele>262.05</ele>
        <time>2018-09-21T16:08:56Z</time>
      </trkpt>
      <trkpt lat="45.1246" lon="5.29411">
        <ele>262.05</ele>
        <time>2018-09-21T16:08:57Z</time>
      </trkpt>
      <trkpt lat="45.12453" lon="5.29364">
        <ele>261.35</ele>
        <time>2018-09-21T16:08:58Z</time>
      </trkpt>
      <trkpt lat="45.12446" lon="5.29316">
        <ele>261.14</ele>
        <time>2018-09-21T16:08:59Z</time>
      </trkpt>
      <trkpt lat="45.1244" lon="5.29269">
        <ele>260.38</ele>
        <time>2018-09-21T16:09:00Z</time>
      </trkpt>
      <trkpt lat="45.12436" lon="5.29219">
        <ele>260.15</ele>
        <time>2018-09-21T16:09:01Z</time>
      </trkpt>
      <trkpt lat="45.12431" lon="5.29169">
        <ele>260.08</ele>
        <time>2018-09-21T16:09:02Z</time>
      </trkpt>
      <trkpt lat="45.12427" lon="5.2912">
        <ele>259.36</ele>
        <time>2018-09-21T16:09:03Z</time>
      </trkpt>
      <trkpt lat="45.12424" lon="5.29069">
        <ele>259.14</ele>
        <time>2018-09-21T16:09:04Z</time>
      </trkpt>
      <trkpt lat="45.12421" lon="5.29018">
        <ele>258.38</ele>
        <time>2018-09-21T16:09:05Z</time>
      </trkpt>
      <trkpt lat="45.1242" lon="5.28967">
        <ele>257.45</ele>
        <time>2018-09-21T16:09:06Z</time>
      </trkpt>
      <trkpt lat="45.12419" lon="5.28916">
        <ele>257.17</ele>
        <time>2018-09-21T16:09:07Z</time>
      </trkpt>
      <trkpt lat="45.12418" lon="5.28865">
        <ele>257.08</ele>
        <time>2018-09-21T16:09:08Z</time>
      </trkpt>
      <trkpt lat="45.12418" lon="5.28815">
        <ele>256.36</ele>
        <time>2018-09-21T16:09:09Z</time>
      </trkpt>
      <trkpt lat="45.12418" lon="5.28766">
        <ele>256.14</ele>
        <time>2018-09-21T16:09:10Z</time>
      </trkpt>
      <trkpt lat="45.12418" lon="5.28717">
        <ele>256.08</ele>
        <time>2018-09-21T16:09:11Z</time>
      </trkpt>
      <trkpt lat="45.12417" lon="5.28669">
        <ele>256.06</ele>
        <time>2018-09-21T16:09:12Z</time>
      </trkpt>
      <trkpt lat="45.12417" lon="5.28622">
        <ele>255.35</ele>
        <time>2018-09-21T16:09:13Z</time>
      </trkpt>
      <trkpt lat="45.12416" lon="5.28575">
        <ele>255.14</ele>
        <time>2018-09-21T16:09:14Z</time>
      </trkpt>
      <trkpt lat="45.12415" lon="5.28528">
        <ele>255.08</ele>
        <time>2018-09-21T16:09:15Z</time>
      </trkpt>
      <trkpt lat="45.12413" lon="5.2848">
        <ele>254.36</ele>
        <time>2018-09-21T16:09:16Z</time>
      </trkpt>
      <trkpt lat="45.1241" lon="5.28434">
        <ele>254.14</ele>
        <time>2018-09-21T16:09:17Z</time>
      </trkpt>
      <trkpt lat="45.12406" lon="5.28387">
        <ele>254.08</ele>
        <time>2018-09-21T16:09:18Z</time>
      </trkpt>
      <trkpt lat="45.12401" lon="5.2834">
        <ele>254.06</ele>
        <time>2018-09-21T16:09:19Z</time>
      </trkpt>
      <trkpt lat="45.12396" lon="5.28294">
        <ele>253.35</ele>
        <time>2018-09-21T16:09:20Z</time>
      </trkpt>
      <trkpt lat="45.1239" lon="5.28248">
        <ele>253.14</ele>
        <time>2018-09-21T16:09:21Z</time>
      </trkpt>
      <trkpt lat="45.12383" lon="5.28202">
        <ele>253.08</ele>
        <time>2018-09-21T16:09:22Z</time>
      </trkpt>
      <trkpt lat="45.12377" lon="5.28157">
        <ele>253.06</ele>
        <time>2018-09-21T16:09:23Z</time>
      </trkpt>
      <trkpt lat="45.12369" lon="5.28111">
        <ele>252.35</ele>
        <time>2018-09-21T16:09:24Z</time>
      </trkpt>
      <trkpt lat="45.12361" lon="5.28066">
        <ele>252.14</ele>
        <time>2018-09-21T16:09:25Z</time>
      </trkpt>
      <trkpt lat="45.12351" lon="5.28021">
        <ele>252.08</ele>
        <time>2018-09-21T16:09:26Z</time>
      </trkpt>
      <trkpt lat="45.12342" lon="5.27977">
        <ele>252.06</ele>
        <time>2018-09-21T16:09:27Z</time>
      </trkpt>
      <trkpt lat="45.12332" lon="5.27933">
        <ele>252.05</ele>
        <time>2018-09-21T16:09:28Z</time>
      </trkpt>
      <trkpt lat="45.12321" lon="5.2789">
        <ele>252.05</ele>
        <time>2018-09-21T16:09:29Z</time>
      </trkpt>
      <trkpt lat="45.1231" lon="5.27847">
        <ele>252.05</ele>
        <time>2018-09-21T16:09:30Z</time>
      </trkpt>
      <trkpt lat="45.12298" lon="5.27805">
        <ele>252.05</ele>
        <time>2018-09-21T16:09:31Z</time>
      </trkpt>
      <trkpt lat="45.12285" lon="5.27763">
        <ele>252.05</ele>
        <time>2018-09-21T16:09:32Z</time>
      </trkpt>
      <trkpt lat="45.12272" lon="5.27722">
        <ele>252.05</ele>
        <time>2018-09-21T16:09:33Z</time>
      </trkpt>
      <trkpt lat="45.12258" lon="5.2768">
        <ele>252.05</ele>
        <time>2018-09-21T16:09:34Z</time>
      </trkpt>
      <trkpt lat="45.12244" lon="5.27638">
        <ele>252.05</ele>
        <time>2018-09-21T16:09:35Z</time>
      </trkpt>
      <trkpt lat="45.12229" lon="5.27597">
        <ele>252.05</ele>
        <time>2018-09-21T16:09:36Z</time>
      </trkpt>
      <trkpt lat="45.12214" lon="5.27555">
        <ele>252.05</ele>
        <time>2018-09-21T16:09:37Z</time>
      </trkpt>
      <trkpt lat="45.12199" lon="5.27513">
        <ele>252.75</ele>
        <time>2018-09-21T16:09:38Z</time>
      </trkpt>
      <trkpt lat="45.12183" lon="5.27472">
        <ele>252.96</ele>
        <time>2018-09-21T16:09:39Z</time>
      </trkpt>
      <trkpt lat="45.12167" lon="5.27431">
        <ele>253.02</ele>
        <time>2018-09-21T16:09:40Z</time>
      </trkpt>
      <trkpt lat="45.12151" lon="5.27391">
        <ele>253.74</ele>
        <time>2018-09-21T16:09:41Z</time>
      </trkpt>
      <trkpt lat="45.12134" lon="5.2735">
        <ele>253.96</ele>
        <time>2018-09-21T16:09:42Z</time>
      </trkpt>
      <trkpt lat="45.12117" lon="5.2731">
        <ele>254.72</ele>
        <time>2018-09-21T16:09:43Z</time>
      </trkpt>
      <trkpt lat="45.12099" lon="5.2727">
        <ele>254.25</ele>
        <time>2018-09-21T16:09:44Z</time>
      </trkpt>
      <trkpt lat="45.12082" lon="5.2723">
        <ele>254.11</ele>
        <time>2018-09-21T16:09:45Z</time>
      </trkpt>
      <trkpt lat="45.12064" lon="5.27191">
        <ele>254.07</ele>
        <time>2018-09-21T16:09:46Z</time>
      </trkpt>
      <trkpt lat="45.12045" lon="5.27152">
        <ele>254.05</ele>
        <time>2018-09-21T16:09:47Z</time>
      </trkpt>
      <trkpt lat="45.12026" lon="5.27114">
        <ele>254.05</ele>
        <time>2018-09-21T16:09:48Z</time>
      </trkpt>
      <trkpt lat="45.12007" lon="5.27075">
        <ele>254.75</ele>
        <time>2018-09-21T16:09:49Z</time>
      </trkpt>
      <trkpt lat="45.11988" lon="5.27038">
        <ele>254.96</ele>
        <time>2018-09-21T16:09:50Z</time>
      </trkpt>
      <trkpt lat="45.11969" lon="5.27">
        <ele>254.32</ele>
        <time>2018-09-21T16:09:51Z</time>
      </trkpt>
      <trkpt lat="45.11949" lon="5.26963">
        <ele>254.83</ele>
        <time>2018-09-21T16:09:52Z</time>
      </trkpt>
      <trkpt lat="45.11929" lon="5.26927">
        <ele>254.28</ele>
        <time>2018-09-21T16:09:53Z</time>
      </trkpt>
      <trkpt lat="45.1191" lon="5.26891">
        <ele>254.12</ele>
        <time>2018-09-21T16:09:54Z</time>
      </trkpt>
      <trkpt lat="45.1189" lon="5.26856">
        <ele>254.07</ele>
        <time>2018-09-21T16:09:55Z</time>
      </trkpt>
      <trkpt lat="45.1187" lon="5.2682">
        <ele>253.36</ele>
        <time>2018-09-21T16:09:56Z</time>
      </trkpt>
      <trkpt lat="45.1185" lon="5.26784">
        <ele>253.14</ele>
        <time>2018-09-21T16:09:57Z</time>
      </trkpt>
      <trkpt lat="45.11829" lon="5.26748">
        <ele>252.38</ele>
        <time>2018-09-21T16:09:58Z</time>
      </trkpt>
      <trkpt lat="45.11808" lon="5.26712">
        <ele>252.15</ele>
        <time>2018-09-21T16:09:59Z</time>
      </trkpt>
      <trkpt lat="45.11788" lon="5.26676">
        <ele>252.08</ele>
        <time>2018-09-21T16:10:00Z</time>
      </trkpt>
      <trkpt lat="45.11767" lon="5.2664">
        <ele>252.06</ele>
        <time>2018-09-21T16:10:01Z</time>
      </trkpt>
      <trkpt lat="45.11746" lon="5.26603">
        <ele>251.35</ele>
        <time>2018-09-21T16:10:02Z</time>
      </trkpt>
      <trkpt lat="45.11725" lon="5.26566">
        <ele>251.14</ele>
        <time>2018-09-21T16:10:03Z</time>
      </trkpt>
      <trkpt lat="45.11704" lon="5.26528">
        <ele>250.38</ele>
        <time>2018-09-21T16:10:04Z</time>
      </trkpt>
      <trkpt lat="45.11683" lon="5.2649">
        <ele>250.15</ele>
        <time>2018-09-21T16:10:05Z</time>
      </trkpt>
      <trkpt lat="45.11664" lon="5.2645">
        <ele>249.38</ele>
        <time>2018-09-21T16:10:06Z</time>
      </trkpt>
      <trkpt lat="45.11645" lon="5.26409">
        <ele>248.45</ele>
        <time>2018-09-21T16:10:07Z</time>
      </trkpt>
      <trkpt lat="45.11627" lon="5.26367">
        <ele>248.17</ele>
        <time>2018-09-21T16:10:08Z</time>
      </trkpt>
      <trkpt lat="45.11609" lon="5.26326">
        <ele>247.38</ele>
        <time>2018-09-21T16:10:09Z</time>
      </trkpt>
      <trkpt lat="45.11591" lon="5.26284">
        <ele>246.45</ele>
        <time>2018-09-21T16:10:10Z</time>
      </trkpt>
      <trkpt lat="45.11573" lon="5.26241">
        <ele>245.47</ele>
        <time>2018-09-21T16:10:11Z</time>
      </trkpt>
      <trkpt lat="45.11555" lon="5.262">
        <ele>243.78</ele>
        <time>2018-09-21T16:10:12Z</time>
      </trkpt>
      <trkpt lat="45.11537" lon="5.26158">
        <ele>243.27</ele>
        <time>2018-09-21T16:10:13Z</time>
      </trkpt>
      <trkpt lat="45.11519" lon="5.26118">
        <ele>243.11</ele>
        <time>2018-09-21T16:10:14Z</time>
      </trkpt>
      <trkpt lat="45.11499" lon="5.26077">
        <ele>242.37</ele>
        <time>2018-09-21T16:10:15Z</time>
      </trkpt>
      <trkpt lat="45.11477" lon="5.26039">
        <ele>241.44</ele>
        <time>2018-09-21T16:10:16Z</time>
      </trkpt>
      <trkpt lat="45.11455" lon="5.26002">
        <ele>240.47</ele>
        <time>2018-09-21T16:10:17Z</time>
      </trkpt>
      <trkpt lat="45.11431" lon="5.25965">
        <ele>240.17</ele>
        <time>2018-09-21T16:10:18Z</time>
      </trkpt>
      <trkpt lat="45.11407" lon="5.2593">
        <ele>239.39</ele>
        <time>2018-09-21T16:10:19Z</time>
      </trkpt>
      <trkpt lat="45.11383" lon="5.25897">
        <ele>238.45</ele>
        <time>2018-09-21T16:10:20Z</time>
      </trkpt>
      <trkpt lat="45.11357" lon="5.25865">
        <ele>237.47</ele>
        <time>2018-09-21T16:10:21Z</time>
      </trkpt>
      <trkpt lat="45.11331" lon="5.25834">
        <ele>237.18</ele>
        <time>2018-09-21T16:10:22Z</time>
      </trkpt>
      <trkpt lat="45.11303" lon="5.25806">
        <ele>236.39</ele>
        <time>2018-09-21T16:10:23Z</time>
      </trkpt>
      <trkpt lat="45.11275" lon="5.25778">
        <ele>236.15</ele>
        <time>2018-09-21T16:10:24Z</time>
      </trkpt>
      <trkpt lat="45.11246" lon="5.25752">
        <ele>236.08</ele>
        <time>2018-09-21T16:10:25Z</time>
      </trkpt>
      <trkpt lat="45.11217" lon="5.25726">
        <ele>236.06</ele>
        <time>2018-09-21T16:10:26Z</time>
      </trkpt>
      <trkpt lat="45.11187" lon="5.25702">
        <ele>235.35</ele>
        <time>2018-09-21T16:10:27Z</time>
      </trkpt>
      <trkpt lat="45.11157" lon="5.25679">
        <ele>235.14</ele>
        <time>2018-09-21T16:10:28Z</time>
      </trkpt>
      <trkpt lat="45.11126" lon="5.25658">
        <ele>235.08</ele>
        <time>2018-09-21T16:10:29Z</time>
      </trkpt>
      <trkpt lat="45.11096" lon="5.25638">
        <ele>235.06</ele>
        <time>2018-09-21T16:10:30Z</time>
      </trkpt>
      <trkpt lat="45.11065" lon="5.25619">
        <ele>234.35</ele>
        <time>2018-09-21T16:10:31Z</time>
      </trkpt>
      <trkpt lat="45.11034" lon="5.25599">
        <ele>233.44</ele>
        <time>2018-09-21T16:10:32Z</time>
      </trkpt>
      <trkpt lat="45.11003" lon="5.25579">
        <ele>233.17</ele>
        <time>2018-09-21T16:10:33Z</time>
      </trkpt>
      <trkpt lat="45.10973" lon="5.25558">
        <ele>233.08</ele>
        <time>2018-09-21T16:10:34Z</time>
      </trkpt>
      <trkpt lat="45.10942" lon="5.25536">
        <ele>233.06</ele>
        <time>2018-09-21T16:10:35Z</time>
      </trkpt>
      <trkpt lat="45.10912" lon="5.25512">
        <ele>232.35</ele>
        <time>2018-09-21T16:10:36Z</time>
      </trkpt>
      <trkpt lat="45.10883" lon="5.25487">
        <ele>232.14</ele>
        <time>2018-09-21T16:10:37Z</time>
      </trkpt>
      <trkpt lat="45.10855" lon="5.2546">
        <ele>232.08</ele>
        <time>2018-09-21T16:10:38Z</time>
      </trkpt>
      <trkpt lat="45.10827" lon="5.2543">
        <ele>231.36</ele>
        <time>2018-09-21T16:10:39Z</time>
      </trkpt>
      <trkpt lat="45.108" lon="5.25401">
        <ele>231.14</ele>
        <time>2018-09-21T16:10:40Z</time>
      </trkpt>
      <trkpt lat="45.10774" lon="5.25369">
        <ele>231.08</ele>
        <time>2018-09-21T16:10:41Z</time>
      </trkpt>
      <trkpt lat="45.10747" lon="5.25336">
        <ele>230.36</ele>
        <time>2018-09-21T16:10:42Z</time>
      </trkpt>
      <trkpt lat="45.10722" lon="5.25302">
        <ele>229.44</ele>
        <time>2018-09-21T16:10:43Z</time>
      </trkpt>
      <trkpt lat="45.10697" lon="5.25266">
        <ele>228.47</ele>
        <time>2018-09-21T16:10:44Z</time>
      </trkpt>
      <trkpt lat="45.10672" lon="5.25229">
        <ele>227.47</ele>
        <time>2018-09-21T16:10:45Z</time>
      </trkpt>
      <trkpt lat="45.10648" lon="5.25191">
        <ele>227.18</ele>
        <time>2018-09-21T16:10:46Z</time>
      </trkpt>
      <trkpt lat="45.10624" lon="5.25152">
        <ele>226.39</ele>
        <time>2018-09-21T16:10:47Z</time>
      </trkpt>
      <trkpt lat="45.10601" lon="5.25113">
        <ele>226.15</ele>
        <time>2018-09-21T16:10:48Z</time>
      </trkpt>
      <trkpt lat="45.10579" lon="5.25072">
        <ele>225.38</ele>
        <time>2018-09-21T16:10:49Z</time>
      </trkpt>
      <trkpt lat="45.10556" lon="5.2503">
        <ele>224.45</ele>
        <time>2018-09-21T16:10:50Z</time>
      </trkpt>
      <trkpt lat="45.10534" lon="5.24988">
        <ele>223.83</ele>
        <time>2018-09-21T16:10:51Z</time>
      </trkpt>
      <trkpt lat="45.10513" lon="5.24944">
        <ele>222.95</ele>
        <time>2018-09-21T16:10:52Z</time>
      </trkpt>
      <trkpt lat="45.10492" lon="5.249">
        <ele>221.98</ele>
        <time>2018-09-21T16:10:53Z</time>
      </trkpt>
      <trkpt lat="45.10472" lon="5.24856">
        <ele>221.69</ele>
        <time>2018-09-21T16:10:54Z</time>
      </trkpt>
      <trkpt lat="45.10453" lon="5.24811">
        <ele>220.91</ele>
        <time>2018-09-21T16:10:55Z</time>
      </trkpt>
      <trkpt lat="45.10434" lon="5.24764">
        <ele>220.67</ele>
        <time>2018-09-21T16:10:56Z</time>
      </trkpt>
      <trkpt lat="45.10415" lon="5.24717">
        <ele>219.9</ele>
        <time>2018-09-21T16:10:57Z</time>
      </trkpt>
      <trkpt lat="45.10398" lon="5.24669">
        <ele>218.97</ele>
        <time>2018-09-21T16:10:58Z</time>
      </trkpt>
      <trkpt lat="45.10381" lon="5.24621">
        <ele>218.69</ele>
        <time>2018-09-21T16:10:59Z</time>
      </trkpt>
      <trkpt lat="45.10365" lon="5.24572">
        <ele>217.2</ele>
        <time>2018-09-21T16:11:00Z</time>
      </trkpt>
      <trkpt lat="45.1035" lon="5.24523">
        <ele>216.76</ele>
        <time>2018-09-21T16:11:01Z</time>
      </trkpt>
      <trkpt lat="45.10335" lon="5.24476">
        <ele>215.93</ele>
        <time>2018-09-21T16:11:02Z</time>
      </trkpt>
      <trkpt lat="45.10322" lon="5.24429">
        <ele>214.98</ele>
        <time>2018-09-21T16:11:03Z</time>
      </trkpt>
      <trkpt lat="45.1031" lon="5.24382">
        <ele>213.99</ele>
        <time>2018-09-21T16:11:04Z</time>
      </trkpt>
      <trkpt lat="45.10298" lon="5.24335">
        <ele>213.69</ele>
        <time>2018-09-21T16:11:05Z</time>
      </trkpt>
      <trkpt lat="45.10287" lon="5.24289">
        <ele>212.91</ele>
        <time>2018-09-21T16:11:06Z</time>
      </trkpt>
      <trkpt lat="45.10276" lon="5.24242">
        <ele>211.97</ele>
        <time>2018-09-21T16:11:07Z</time>
      </trkpt>
      <trkpt lat="45.10265" lon="5.24197">
        <ele>211.69</ele>
        <time>2018-09-21T16:11:08Z</time>
      </trkpt>
      <trkpt lat="45.10254" lon="5.24151">
        <ele>210.9</ele>
        <time>2018-09-21T16:11:09Z</time>
      </trkpt>
      <trkpt lat="45.10243" lon="5.24106">
        <ele>210.67</ele>
        <time>2018-09-21T16:11:10Z</time>
      </trkpt>
      <trkpt lat="45.10233" lon="5.2406">
        <ele>210.6</ele>
        <time>2018-09-21T16:11:11Z</time>
      </trkpt>
      <trkpt lat="45.10222" lon="5.24015">
        <ele>210.58</ele>
        <time>2018-09-21T16:11:12Z</time>
      </trkpt>
      <trkpt lat="45.10211" lon="5.23969">
        <ele>209.87</ele>
        <time>2018-09-21T16:11:13Z</time>
      </trkpt>
      <trkpt lat="45.102" lon="5.23925">
        <ele>208.96</ele>
        <time>2018-09-21T16:11:14Z</time>
      </trkpt>
      <trkpt lat="45.10188" lon="5.23881">
        <ele>208.69</ele>
        <time>2018-09-21T16:11:15Z</time>
      </trkpt>
      <trkpt lat="45.10176" lon="5.23837">
        <ele>207.9</ele>
        <time>2018-09-21T16:11:16Z</time>
      </trkpt>
      <trkpt lat="45.10163" lon="5.23794">
        <ele>206.97</ele>
        <time>2018-09-21T16:11:17Z</time>
      </trkpt>
      <trkpt lat="45.10149" lon="5.2375">
        <ele>206.69</ele>
        <time>2018-09-21T16:11:18Z</time>
      </trkpt>
      <trkpt lat="45.10135" lon="5.23706">
        <ele>205.2</ele>
        <time>2018-09-21T16:11:19Z</time>
      </trkpt>
      <trkpt lat="45.1012" lon="5.23663">
        <ele>204.06</ele>
        <time>2018-09-21T16:11:20Z</time>
      </trkpt>
      <trkpt lat="45.10105" lon="5.2362">
        <ele>203.72</ele>
        <time>2018-09-21T16:11:21Z</time>
      </trkpt>
      <trkpt lat="45.10091" lon="5.23576">
        <ele>202.91</ele>
        <time>2018-09-21T16:11:22Z</time>
      </trkpt>
      <trkpt lat="45.10076" lon="5.23532">
        <ele>202.67</ele>
        <time>2018-09-21T16:11:23Z</time>
      </trkpt>
      <trkpt lat="45.10062" lon="5.23488">
        <ele>201.2</ele>
        <time>2018-09-21T16:11:24Z</time>
      </trkpt>
      <trkpt lat="45.10047" lon="5.23444">
        <ele>200.06</ele>
        <time>2018-09-21T16:11:25Z</time>
      </trkpt>
      <trkpt lat="45.10031" lon="5.23399">
        <ele>199.71</ele>
        <time>2018-09-21T16:11:26Z</time>
      </trkpt>
      <trkpt lat="45.10016" lon="5.23355">
        <ele>198.91</ele>
        <time>2018-09-21T16:11:27Z</time>
      </trkpt>
      <trkpt lat="45.1" lon="5.23311">
        <ele>197.97</ele>
        <time>2018-09-21T16:11:28Z</time>
      </trkpt>
      <trkpt lat="45.09985" lon="5.23266">
        <ele>197.69</ele>
        <time>2018-09-21T16:11:29Z</time>
      </trkpt>
      <trkpt lat="45.09969" lon="5.23222">
        <ele>196.2</ele>
        <time>2018-09-21T16:11:30Z</time>
      </trkpt>
      <trkpt lat="45.09953" lon="5.23177">
        <ele>195.76</ele>
        <time>2018-09-21T16:11:31Z</time>
      </trkpt>
      <trkpt lat="45.09936" lon="5.23134">
        <ele>194.93</ele>
        <time>2018-09-21T16:11:32Z</time>
      </trkpt>
      <trkpt lat="45.09919" lon="5.2309">
        <ele>193.98</ele>
        <time>2018-09-21T16:11:33Z</time>
      </trkpt>
      <trkpt lat="45.09902" lon="5.23047">
        <ele>192.99</ele>
        <time>2018-09-21T16:11:34Z</time>
      </trkpt>
      <trkpt lat="45.09883" lon="5.23005">
        <ele>192.69</ele>
        <time>2018-09-21T16:11:35Z</time>
      </trkpt>
      <trkpt lat="45.09865" lon="5.22963">
        <ele>191.91</ele>
        <time>2018-09-21T16:11:36Z</time>
      </trkpt>
      <trkpt lat="45.09846" lon="5.22921">
        <ele>190.97</ele>
        <time>2018-09-21T16:11:37Z</time>
      </trkpt>
      <trkpt lat="45.09826" lon="5.2288">
        <ele>189.99</ele>
        <time>2018-09-21T16:11:38Z</time>
      </trkpt>
      <trkpt lat="45.09805" lon="5.22839">
        <ele>188.99</ele>
        <time>2018-09-21T16:11:39Z</time>
      </trkpt>
      <trkpt lat="45.09784" lon="5.22799">
        <ele>188</ele>
        <time>2018-09-21T16:11:40Z</time>
      </trkpt>
      <trkpt lat="45.09762" lon="5.22759">
        <ele>187.7</ele>
        <time>2018-09-21T16:11:41Z</time>
      </trkpt>
      <trkpt lat="45.0974" lon="5.2272">
        <ele>186.91</ele>
        <time>2018-09-21T16:11:42Z</time>
      </trkpt>
      <trkpt lat="45.09718" lon="5.22681">
        <ele>186.67</ele>
        <time>2018-09-21T16:11:43Z</time>
      </trkpt>
      <trkpt lat="45.09695" lon="5.22643">
        <ele>185.9</ele>
        <time>2018-09-21T16:11:44Z</time>
      </trkpt>
      <trkpt lat="45.09672" lon="5.22606">
        <ele>185.67</ele>
        <time>2018-09-21T16:11:45Z</time>
      </trkpt>
      <trkpt lat="45.09649" lon="5.22568">
        <ele>184.9</ele>
        <time>2018-09-21T16:11:46Z</time>
      </trkpt>
      <trkpt lat="45.09626" lon="5.22532">
        <ele>184.67</ele>
        <time>2018-09-21T16:11:47Z</time>
      </trkpt>
      <trkpt lat="45.09602" lon="5.22497">
        <ele>183.9</ele>
        <time>2018-09-21T16:11:48Z</time>
      </trkpt>
      <trkpt lat="45.09578" lon="5.22463">
        <ele>183.67</ele>
        <time>2018-09-21T16:11:49Z</time>
      </trkpt>
      <trkpt lat="45.09553" lon="5.22429">
        <ele>182.9</ele>
        <time>2018-09-21T16:11:50Z</time>
      </trkpt>
      <trkpt lat="45.09528" lon="5.22396">
        <ele>182.67</ele>
        <time>2018-09-21T16:11:51Z</time>
      </trkpt>
      <trkpt lat="45.09502" lon="5.22363">
        <ele>181.9</ele>
        <time>2018-09-21T16:11:52Z</time>
      </trkpt>
      <trkpt lat="45.09476" lon="5.22331">
        <ele>181.67</ele>
        <time>2018-09-21T16:11:53Z</time>
      </trkpt>
      <trkpt lat="45.09449" lon="5.22299">
        <ele>181.6</ele>
        <time>2018-09-21T16:11:54Z</time>
      </trkpt>
      <trkpt lat="45.09422" lon="5.22268">
        <ele>181.58</ele>
        <time>2018-09-21T16:11:55Z</time>
      </trkpt>
      <trkpt lat="45.09395" lon="5.22237">
        <ele>181.57</ele>
        <time>2018-09-21T16:11:56Z</time>
      </trkpt>
      <trkpt lat="45.09367" lon="5.22208">
        <ele>182.27</ele>
        <time>2018-09-21T16:11:57Z</time>
      </trkpt>
      <trkpt lat="45.09338" lon="5.22177">
        <ele>182.48</ele>
        <time>2018-09-21T16:11:58Z</time>
      </trkpt>
      <trkpt lat="45.0931" lon="5.22149">
        <ele>182.54</ele>
        <time>2018-09-21T16:11:59Z</time>
      </trkpt>
      <trkpt lat="45.09282" lon="5.22121">
        <ele>182.56</ele>
        <time>2018-09-21T16:12:00Z</time>
      </trkpt>
      <trkpt lat="45.09254" lon="5.22094">
        <ele>182.57</ele>
        <time>2018-09-21T16:12:01Z</time>
      </trkpt>
      <trkpt lat="45.09225" lon="5.22068">
        <ele>182.57</ele>
        <time>2018-09-21T16:12:02Z</time>
      </trkpt>
      <trkpt lat="45.09197" lon="5.22042">
        <ele>183.27</ele>
        <time>2018-09-21T16:12:03Z</time>
      </trkpt>
      <trkpt lat="45.09169" lon="5.22017">
        <ele>183.48</ele>
        <time>2018-09-21T16:12:04Z</time>
      </trkpt>
      <trkpt lat="45.09141" lon="5.21992">
        <ele>184.24</ele>
        <time>2018-09-21T16:12:05Z</time>
      </trkpt>
      <trkpt lat="45.09112" lon="5.21968">
        <ele>184.47</ele>
        <time>2018-09-21T16:12:06Z</time>
      </trkpt>
      <trkpt lat="45.09083" lon="5.21945">
        <ele>185.24</ele>
        <time>2018-09-21T16:12:07Z</time>
      </trkpt>
      <trkpt lat="45.09053" lon="5.21923">
        <ele>185.47</ele>
        <time>2018-09-21T16:12:08Z</time>
      </trkpt>
      <trkpt lat="45.09024" lon="5.21901">
        <ele>186.24</ele>
        <time>2018-09-21T16:12:09Z</time>
      </trkpt>
      <trkpt lat="45.08994" lon="5.2188">
        <ele>186.47</ele>
        <time>2018-09-21T16:12:10Z</time>
      </trkpt>
      <trkpt lat="45.08964" lon="5.21859">
        <ele>186.54</ele>
        <time>2018-09-21T16:12:11Z</time>
      </trkpt>
      <trkpt lat="45.08935" lon="5.21837">
        <ele>186.56</ele>
        <time>2018-09-21T16:12:12Z</time>
      </trkpt>
      <trkpt lat="45.08905" lon="5.21816">
        <ele>187.27</ele>
        <time>2018-09-21T16:12:13Z</time>
      </trkpt>
      <trkpt lat="45.08875" lon="5.21794">
        <ele>187.48</ele>
        <time>2018-09-21T16:12:14Z</time>
      </trkpt>
      <trkpt lat="45.08845" lon="5.21774">
        <ele>187.54</ele>
        <time>2018-09-21T16:12:15Z</time>
      </trkpt>
      <trkpt lat="45.08815" lon="5.21755">
        <ele>187.56</ele>
        <time>2018-09-21T16:12:16Z</time>
      </trkpt>
      <trkpt lat="45.08784" lon="5.21737">
        <ele>188.27</ele>
        <time>2018-09-21T16:12:17Z</time>
      </trkpt>
      <trkpt lat="45.08753" lon="5.21718">
        <ele>188.48</ele>
        <time>2018-09-21T16:12:18Z</time>
      </trkpt>
      <trkpt lat="45.08722" lon="5.21701">
        <ele>189.24</ele>
        <time>2018-09-21T16:12:19Z</time>
      </trkpt>
      <trkpt lat="45.08691" lon="5.21685">
        <ele>189.47</ele>
        <time>2018-09-21T16:12:20Z</time>
      </trkpt>
      <trkpt lat="45.0866" lon="5.2167">
        <ele>189.54</ele>
        <time>2018-09-21T16:12:21Z</time>
      </trkpt>
      <trkpt lat="45.08628" lon="5.21654">
        <ele>189.56</ele>
        <time>2018-09-21T16:12:22Z</time>
      </trkpt>
      <trkpt lat="45.08597" lon="5.21639">
        <ele>189.57</ele>
        <time>2018-09-21T16:12:23Z</time>
      </trkpt>
      <trkpt lat="45.08565" lon="5.21624">
        <ele>190.27</ele>
        <time>2018-09-21T16:12:24Z</time>
      </trkpt>
      <trkpt lat="45.08532" lon="5.2161">
        <ele>190.48</ele>
        <time>2018-09-21T16:12:25Z</time>
      </trkpt>
      <trkpt lat="45.085" lon="5.21595">
        <ele>190.54</ele>
        <time>2018-09-21T16:12:26Z</time>
      </trkpt>
      <trkpt lat="45.08468" lon="5.2158">
        <ele>191.26</ele>
        <time>2018-09-21T16:12:27Z</time>
      </trkpt>
      <trkpt lat="45.08436" lon="5.21566">
        <ele>191.48</ele>
        <time>2018-09-21T16:12:28Z</time>
      </trkpt>
      <trkpt lat="45.08403" lon="5.21552">
        <ele>191.54</ele>
        <time>2018-09-21T16:12:29Z</time>
      </trkpt>
      <trkpt lat="45.08371" lon="5.21538">
        <ele>191.56</ele>
        <time>2018-09-21T16:12:30Z</time>
      </trkpt>
      <trkpt lat="45.08339" lon="5.21524">
        <ele>191.57</ele>
        <time>2018-09-21T16:12:31Z</time>
      </trkpt>
      <trkpt lat="45.08306" lon="5.2151">
        <ele>192.27</ele>
        <time>2018-09-21T16:12:32Z</time>
      </trkpt>
      <trkpt lat="45.08274" lon="5.21496">
        <ele>192.48</ele>
        <time>2018-09-21T16:12:33Z</time>
      </trkpt>
      <trkpt lat="45.08242" lon="5.21483">
        <ele>192.54</ele>
        <time>2018-09-21T16:12:34Z</time>
      </trkpt>
      <trkpt lat="45.0821" lon="5.2147">
        <ele>192.56</ele>
        <time>2018-09-21T16:12:35Z</time>
      </trkpt>
      <trkpt lat="45.08178" lon="5.21457">
        <ele>193.27</ele>
        <time>2018-09-21T16:12:36Z</time>
      </trkpt>
      <trkpt lat="45.08146" lon="5.21444">
        <ele>193.48</ele>
        <time>2018-09-21T16:12:37Z</time>
      </trkpt>
      <trkpt lat="45.08115" lon="5.21431">
        <ele>193.54</ele>
        <time>2018-09-21T16:12:38Z</time>
      </trkpt>
      <trkpt lat="45.08083" lon="5.21418">
        <ele>193.56</ele>
        <time>2018-09-21T16:12:39Z</time>
      </trkpt>
      <trkpt lat="45.08052" lon="5.21404">
        <ele>193.57</ele>
        <time>2018-09-21T16:12:40Z</time>
      </trkpt>
      <trkpt lat="45.08021" lon="5.21392">
        <ele>193.57</ele>
        <time>2018-09-21T16:12:41Z</time>
      </trkpt>
      <trkpt lat="45.0799" lon="5.21379">
        <ele>193.57</ele>
        <time>2018-09-21T16:12:42Z</time>
      </trkpt>
      <trkpt lat="45.07959" lon="5.21365">
        <ele>193.57</ele>
        <time>2018-09-21T16:12:43Z</time>
      </trkpt>
      <trkpt lat="45.07928" lon="5.21352">
        <ele>194.27</ele>
        <time>2018-09-21T16:12:44Z</time>
      </trkpt>
      <trkpt lat="45.07896" lon="5.21337">
        <ele>193.78</ele>
        <time>2018-09-21T16:12:45Z</time>
      </trkpt>
      <trkpt lat="45.07864" lon="5.21322">
        <ele>194.33</ele>
        <time>2018-09-21T16:12:46Z</time>
      </trkpt>
      <trkpt lat="45.07832" lon="5.21307">
        <ele>194.5</ele>
        <time>2018-09-21T16:12:47Z</time>
      </trkpt>
      <trkpt lat="45.078" lon="5.21294">
        <ele>194.55</ele>
        <time>2018-09-21T16:12:48Z</time>
      </trkpt>
      <trkpt lat="45.07767" lon="5.21281">
        <ele>194.56</ele>
        <time>2018-09-21T16:12:49Z</time>
      </trkpt>
      <trkpt lat="45.07735" lon="5.21268">
        <ele>194.57</ele>
        <time>2018-09-21T16:12:50Z</time>
      </trkpt>
      <trkpt lat="45.07703" lon="5.21255">
        <ele>194.57</ele>
        <time>2018-09-21T16:12:51Z</time>
      </trkpt>
      <trkpt lat="45.0767" lon="5.21242">
        <ele>195.27</ele>
        <time>2018-09-21T16:12:52Z</time>
      </trkpt>
      <trkpt lat="45.07638" lon="5.21228">
        <ele>194.78</ele>
        <time>2018-09-21T16:12:53Z</time>
      </trkpt>
      <trkpt lat="45.07606" lon="5.21215">
        <ele>194.63</ele>
        <time>2018-09-21T16:12:54Z</time>
      </trkpt>
      <trkpt lat="45.07575" lon="5.21201">
        <ele>195.29</ele>
        <time>2018-09-21T16:12:55Z</time>
      </trkpt>
      <trkpt lat="45.07544" lon="5.21187">
        <ele>194.78</ele>
        <time>2018-09-21T16:12:56Z</time>
      </trkpt>
      <trkpt lat="45.07513" lon="5.21174">
        <ele>194.63</ele>
        <time>2018-09-21T16:12:57Z</time>
      </trkpt>
      <trkpt lat="45.07482" lon="5.21161">
        <ele>194.59</ele>
        <time>2018-09-21T16:12:58Z</time>
      </trkpt>
      <trkpt lat="45.07451" lon="5.21148">
        <ele>194.57</ele>
        <time>2018-09-21T16:12:59Z</time>
      </trkpt>
      <trkpt lat="45.0742" lon="5.21134">
        <ele>194.57</ele>
        <time>2018-09-21T16:13:00Z</time>
      </trkpt>
      <trkpt lat="45.07389" lon="5.2112">
        <ele>194.57</ele>
        <time>2018-09-21T16:13:01Z</time>
      </trkpt>
      <trkpt lat="45.07359" lon="5.21105">
        <ele>194.57</ele>
        <time>2018-09-21T16:13:02Z</time>
      </trkpt>
      <trkpt lat="45.07328" lon="5.2109">
        <ele>194.57</ele>
        <time>2018-09-21T16:13:03Z</time>
      </trkpt>
      <trkpt lat="45.07298" lon="5.21074">
        <ele>195.27</ele>
        <time>2018-09-21T16:13:04Z</time>
      </trkpt>
      <trkpt lat="45.07268" lon="5.21056">
        <ele>195.48</ele>
        <time>2018-09-21T16:13:05Z</time>
      </trkpt>
      <trkpt lat="45.07238" lon="5.21038">
        <ele>195.54</ele>
        <time>2018-09-21T16:13:06Z</time>
      </trkpt>
      <trkpt lat="45.07207" lon="5.21019">
        <ele>195.56</ele>
        <time>2018-09-21T16:13:07Z</time>
      </trkpt>
      <trkpt lat="45.07178" lon="5.20998">
        <ele>195.57</ele>
        <time>2018-09-21T16:13:08Z</time>
      </trkpt>
      <trkpt lat="45.07148" lon="5.20977">
        <ele>195.57</ele>
        <time>2018-09-21T16:13:09Z</time>
      </trkpt>
      <trkpt lat="45.07119" lon="5.20955">
        <ele>195.57</ele>
        <time>2018-09-21T16:13:10Z</time>
      </trkpt>
      <trkpt lat="45.07089" lon="5.20933">
        <ele>195.57</ele>
        <time>2018-09-21T16:13:11Z</time>
      </trkpt>
      <trkpt lat="45.0706" lon="5.2091">
        <ele>195.57</ele>
        <time>2018-09-21T16:13:12Z</time>
      </trkpt>
      <trkpt lat="45.07031" lon="5.20886">
        <ele>195.57</ele>
        <time>2018-09-21T16:13:13Z</time>
      </trkpt>
      <trkpt lat="45.07003" lon="5.20862">
        <ele>195.57</ele>
        <time>2018-09-21T16:13:14Z</time>
      </trkpt>
      <trkpt lat="45.06974" lon="5.20836">
        <ele>195.57</ele>
        <time>2018-09-21T16:13:15Z</time>
      </trkpt>
      <trkpt lat="45.06946" lon="5.20809">
        <ele>195.57</ele>
        <time>2018-09-21T16:13:16Z</time>
      </trkpt>
      <trkpt lat="45.06918" lon="5.20782">
        <ele>195.57</ele>
        <time>2018-09-21T16:13:17Z</time>
      </trkpt>
      <trkpt lat="45.06891" lon="5.20754">
        <ele>195.57</ele>
        <time>2018-09-21T16:13:18Z</time>
      </trkpt>
      <trkpt lat="45.06864" lon="5.20726">
        <ele>195.57</ele>
        <time>2018-09-21T16:13:19Z</time>
      </trkpt>
      <trkpt lat="45.06837" lon="5.20697">
        <ele>195.57</ele>
        <time>2018-09-21T16:13:20Z</time>
      </trkpt>
      <trkpt lat="45.06811" lon="5.20667">
        <ele>195.57</ele>
        <time>2018-09-21T16:13:21Z</time>
      </trkpt>
      <trkpt lat="45.06784" lon="5.20636">
        <ele>195.57</ele>
        <time>2018-09-21T16:13:22Z</time>
      </trkpt>
      <trkpt lat="45.06759" lon="5.20604">
        <ele>195.57</ele>
        <time>2018-09-21T16:13:23Z</time>
      </trkpt>
      <trkpt lat="45.06733" lon="5.20572">
        <ele>195.57</ele>
        <time>2018-09-21T16:13:24Z</time>
      </trkpt>
      <trkpt lat="45.06708" lon="5.2054">
        <ele>195.57</ele>
        <time>2018-09-21T16:13:25Z</time>
      </trkpt>
      <trkpt lat="45.06683" lon="5.20506">
        <ele>195.57</ele>
        <time>2018-09-21T16:13:26Z</time>
      </trkpt>
      <trkpt lat="45.06659" lon="5.20472">
        <ele>195.57</ele>
        <time>2018-09-21T16:13:27Z</time>
      </trkpt>
      <trkpt lat="45.06635" lon="5.20438">
        <ele>195.57</ele>
        <time>2018-09-21T16:13:28Z</time>
      </trkpt>
      <trkpt lat="45.06612" lon="5.20403">
        <ele>195.57</ele>
        <time>2018-09-21T16:13:29Z</time>
      </trkpt>
      <trkpt lat="45.0659" lon="5.20368">
        <ele>195.57</ele>
        <time>2018-09-21T16:13:30Z</time>
      </trkpt>
      <trkpt lat="45.06568" lon="5.20332">
        <ele>196.27</ele>
        <time>2018-09-21T16:13:31Z</time>
      </trkpt>
      <trkpt lat="45.06547" lon="5.20296">
        <ele>196.48</ele>
        <time>2018-09-21T16:13:32Z</time>
      </trkpt>
      <trkpt lat="45.06527" lon="5.2026">
        <ele>196.54</ele>
        <time>2018-09-21T16:13:33Z</time>
      </trkpt>
      <trkpt lat="45.06507" lon="5.20224">
        <ele>196.56</ele>
        <time>2018-09-21T16:13:34Z</time>
      </trkpt>
      <trkpt lat="45.06487" lon="5.2019">
        <ele>195.87</ele>
        <time>2018-09-21T16:13:35Z</time>
      </trkpt>
      <trkpt lat="45.06467" lon="5.20155">
        <ele>195.66</ele>
        <time>2018-09-21T16:13:36Z</time>
      </trkpt>
      <trkpt lat="45.06446" lon="5.20119">
        <ele>195.59</ele>
        <time>2018-09-21T16:13:37Z</time>
      </trkpt>
      <trkpt lat="45.06425" lon="5.20084">
        <ele>196.28</ele>
        <time>2018-09-21T16:13:38Z</time>
      </trkpt>
      <trkpt lat="45.06405" lon="5.20048">
        <ele>196.48</ele>
        <time>2018-09-21T16:13:39Z</time>
      </trkpt>
      <trkpt lat="45.06386" lon="5.20011">
        <ele>196.54</ele>
        <time>2018-09-21T16:13:40Z</time>
      </trkpt>
      <trkpt lat="45.06365" lon="5.19976">
        <ele>196.56</ele>
        <time>2018-09-21T16:13:41Z</time>
      </trkpt>
      <trkpt lat="45.06345" lon="5.1994">
        <ele>195.87</ele>
        <time>2018-09-21T16:13:42Z</time>
      </trkpt>
      <trkpt lat="45.06325" lon="5.19905">
        <ele>196.36</ele>
        <time>2018-09-21T16:13:43Z</time>
      </trkpt>
      <trkpt lat="45.06305" lon="5.19869">
        <ele>196.5</ele>
        <time>2018-09-21T16:13:44Z</time>
      </trkpt>
      <trkpt lat="45.06284" lon="5.19834">
        <ele>197.25</ele>
        <time>2018-09-21T16:13:45Z</time>
      </trkpt>
      <trkpt lat="45.06263" lon="5.19798">
        <ele>197.47</ele>
        <time>2018-09-21T16:13:46Z</time>
      </trkpt>
      <trkpt lat="45.06242" lon="5.19762">
        <ele>197.54</ele>
        <time>2018-09-21T16:13:47Z</time>
      </trkpt>
      <trkpt lat="45.06222" lon="5.19726">
        <ele>196.86</ele>
        <time>2018-09-21T16:13:48Z</time>
      </trkpt>
      <trkpt lat="45.06201" lon="5.1969">
        <ele>196.66</ele>
        <time>2018-09-21T16:13:49Z</time>
      </trkpt>
      <trkpt lat="45.06182" lon="5.19654">
        <ele>196.59</ele>
        <time>2018-09-21T16:13:50Z</time>
      </trkpt>
      <trkpt lat="45.06161" lon="5.19617">
        <ele>195.88</ele>
        <time>2018-09-21T16:13:51Z</time>
      </trkpt>
      <trkpt lat="45.06141" lon="5.19581">
        <ele>195.66</ele>
        <time>2018-09-21T16:13:52Z</time>
      </trkpt>
      <trkpt lat="45.06121" lon="5.19545">
        <ele>194.9</ele>
        <time>2018-09-21T16:13:53Z</time>
      </trkpt>
      <trkpt lat="45.061" lon="5.19509">
        <ele>194.67</ele>
        <time>2018-09-21T16:13:54Z</time>
      </trkpt>
      <trkpt lat="45.0608" lon="5.19473">
        <ele>194.6</ele>
        <time>2018-09-21T16:13:55Z</time>
      </trkpt>
      <trkpt lat="45.06059" lon="5.19437">
        <ele>195.28</ele>
        <time>2018-09-21T16:13:56Z</time>
      </trkpt>
      <trkpt lat="45.06039" lon="5.19401">
        <ele>195.48</ele>
        <time>2018-09-21T16:13:57Z</time>
      </trkpt>
      <trkpt lat="45.06019" lon="5.19365">
        <ele>194.84</ele>
        <time>2018-09-21T16:13:58Z</time>
      </trkpt>
      <trkpt lat="45.05998" lon="5.19329">
        <ele>194.65</ele>
        <time>2018-09-21T16:13:59Z</time>
      </trkpt>
      <trkpt lat="45.05978" lon="5.19294">
        <ele>194.59</ele>
        <time>2018-09-21T16:14:00Z</time>
      </trkpt>
      <trkpt lat="45.05958" lon="5.19257">
        <ele>194.58</ele>
        <time>2018-09-21T16:14:01Z</time>
      </trkpt>
      <trkpt lat="45.05938" lon="5.19221">
        <ele>194.57</ele>
        <time>2018-09-21T16:14:02Z</time>
      </trkpt>
      <trkpt lat="45.05919" lon="5.19184">
        <ele>194.57</ele>
        <time>2018-09-21T16:14:03Z</time>
      </trkpt>
      <trkpt lat="45.05899" lon="5.19148">
        <ele>194.57</ele>
        <time>2018-09-21T16:14:04Z</time>
      </trkpt>
      <trkpt lat="45.0588" lon="5.19112">
        <ele>194.57</ele>
        <time>2018-09-21T16:14:05Z</time>
      </trkpt>
      <trkpt lat="45.0586" lon="5.19076">
        <ele>193.87</ele>
        <time>2018-09-21T16:14:06Z</time>
      </trkpt>
      <trkpt lat="45.0584" lon="5.19041">
        <ele>193.66</ele>
        <time>2018-09-21T16:14:07Z</time>
      </trkpt>
      <trkpt lat="45.0582" lon="5.19006">
        <ele>192.9</ele>
        <time>2018-09-21T16:14:08Z</time>
      </trkpt>
      <trkpt lat="45.058" lon="5.1897">
        <ele>192.67</ele>
        <time>2018-09-21T16:14:09Z</time>
      </trkpt>
      <trkpt lat="45.0578" lon="5.18934">
        <ele>192.6</ele>
        <time>2018-09-21T16:14:10Z</time>
      </trkpt>
      <trkpt lat="45.0576" lon="5.18899">
        <ele>192.58</ele>
        <time>2018-09-21T16:14:11Z</time>
      </trkpt>
      <trkpt lat="45.0574" lon="5.18863">
        <ele>192.57</ele>
        <time>2018-09-21T16:14:12Z</time>
      </trkpt>
      <trkpt lat="45.0572" lon="5.18827">
        <ele>192.57</ele>
        <time>2018-09-21T16:14:13Z</time>
      </trkpt>
      <trkpt lat="45.057" lon="5.18793">
        <ele>191.87</ele>
        <time>2018-09-21T16:14:14Z</time>
      </trkpt>
      <trkpt lat="45.0568" lon="5.18756">
        <ele>191.66</ele>
        <time>2018-09-21T16:14:15Z</time>
      </trkpt>
      <trkpt lat="45.0566" lon="5.18719">
        <ele>191.6</ele>
        <time>2018-09-21T16:14:16Z</time>
      </trkpt>
      <trkpt lat="45.05639" lon="5.18684">
        <ele>191.58</ele>
        <time>2018-09-21T16:14:17Z</time>
      </trkpt>
      <trkpt lat="45.05619" lon="5.18647">
        <ele>190.87</ele>
        <time>2018-09-21T16:14:18Z</time>
      </trkpt>
      <trkpt lat="45.05599" lon="5.1861">
        <ele>191.36</ele>
        <time>2018-09-21T16:14:19Z</time>
      </trkpt>
      <trkpt lat="45.05578" lon="5.18574">
        <ele>191.51</ele>
        <time>2018-09-21T16:14:20Z</time>
      </trkpt>
      <trkpt lat="45.05558" lon="5.18537">
        <ele>192.25</ele>
        <time>2018-09-21T16:14:21Z</time>
      </trkpt>
      <trkpt lat="45.05539" lon="5.18501">
        <ele>192.47</ele>
        <time>2018-09-21T16:14:22Z</time>
      </trkpt>
      <trkpt lat="45.0552" lon="5.18464">
        <ele>193.24</ele>
        <time>2018-09-21T16:14:23Z</time>
      </trkpt>
      <trkpt lat="45.05501" lon="5.18427">
        <ele>193.47</ele>
        <time>2018-09-21T16:14:24Z</time>
      </trkpt>
      <trkpt lat="45.05483" lon="5.18389">
        <ele>194.24</ele>
        <time>2018-09-21T16:14:25Z</time>
      </trkpt>
      <trkpt lat="45.05466" lon="5.18353">
        <ele>194.47</ele>
        <time>2018-09-21T16:14:26Z</time>
      </trkpt>
      <trkpt lat="45.05448" lon="5.18316">
        <ele>194.54</ele>
        <time>2018-09-21T16:14:27Z</time>
      </trkpt>
      <trkpt lat="45.0543" lon="5.18279">
        <ele>194.56</ele>
        <time>2018-09-21T16:14:28Z</time>
      </trkpt>
      <trkpt lat="45.05412" lon="5.18242">
        <ele>194.57</ele>
        <time>2018-09-21T16:14:29Z</time>
      </trkpt>
      <trkpt lat="45.05394" lon="5.18205">
        <ele>195.27</ele>
        <time>2018-09-21T16:14:30Z</time>
      </trkpt>
      <trkpt lat="45.05377" lon="5.18167">
        <ele>195.48</ele>
        <time>2018-09-21T16:14:31Z</time>
      </trkpt>
      <trkpt lat="45.05359" lon="5.18129">
        <ele>194.84</ele>
        <time>2018-09-21T16:14:32Z</time>
      </trkpt>
      <trkpt lat="45.05342" lon="5.18091">
        <ele>195.35</ele>
        <time>2018-09-21T16:14:33Z</time>
      </trkpt>
      <trkpt lat="45.05325" lon="5.18053">
        <ele>195.5</ele>
        <time>2018-09-21T16:14:34Z</time>
      </trkpt>
      <trkpt lat="45.05309" lon="5.18014">
        <ele>195.55</ele>
        <time>2018-09-21T16:14:35Z</time>
      </trkpt>
      <trkpt lat="45.05292" lon="5.17974">
        <ele>195.56</ele>
        <time>2018-09-21T16:14:36Z</time>
      </trkpt>
      <trkpt lat="45.05275" lon="5.17934">
        <ele>196.27</ele>
        <time>2018-09-21T16:14:37Z</time>
      </trkpt>
      <trkpt lat="45.05258" lon="5.17893">
        <ele>196.48</ele>
        <time>2018-09-21T16:14:38Z</time>
      </trkpt>
      <trkpt lat="45.05242" lon="5.17852">
        <ele>196.54</ele>
        <time>2018-09-21T16:14:39Z</time>
      </trkpt>
      <trkpt lat="45.05225" lon="5.17811">
        <ele>197.26</ele>
        <time>2018-09-21T16:14:40Z</time>
      </trkpt>
      <trkpt lat="45.05208" lon="5.17769">
        <ele>197.48</ele>
        <time>2018-09-21T16:14:41Z</time>
      </trkpt>
      <trkpt lat="45.05192" lon="5.17728">
        <ele>196.84</ele>
        <time>2018-09-21T16:14:42Z</time>
      </trkpt>
      <trkpt lat="45.05176" lon="5.17687">
        <ele>196.65</ele>
        <time>2018-09-21T16:14:43Z</time>
      </trkpt>
      <trkpt lat="45.05161" lon="5.17646">
        <ele>197.29</ele>
        <time>2018-09-21T16:14:44Z</time>
      </trkpt>
      <trkpt lat="45.05145" lon="5.17604">
        <ele>197.49</ele>
        <time>2018-09-21T16:14:45Z</time>
      </trkpt>
      <trkpt lat="45.0513" lon="5.17561">
        <ele>197.54</ele>
        <time>2018-09-21T16:14:46Z</time>
      </trkpt>
      <trkpt lat="45.05116" lon="5.1752">
        <ele>197.56</ele>
        <time>2018-09-21T16:14:47Z</time>
      </trkpt>
      <trkpt lat="45.05101" lon="5.17478">
        <ele>197.57</ele>
        <time>2018-09-21T16:14:48Z</time>
      </trkpt>
      <trkpt lat="45.05086" lon="5.17435">
        <ele>197.57</ele>
        <time>2018-09-21T16:14:49Z</time>
      </trkpt>
      <trkpt lat="45.05072" lon="5.17393">
        <ele>197.57</ele>
        <time>2018-09-21T16:14:50Z</time>
      </trkpt>
      <trkpt lat="45.05058" lon="5.17351">
        <ele>197.57</ele>
        <time>2018-09-21T16:14:51Z</time>
      </trkpt>
      <trkpt lat="45.05044" lon="5.17309">
        <ele>197.57</ele>
        <time>2018-09-21T16:14:52Z</time>
      </trkpt>
      <trkpt lat="45.0503" lon="5.17267">
        <ele>197.57</ele>
        <time>2018-09-21T16:14:53Z</time>
      </trkpt>
      <trkpt lat="45.05017" lon="5.17224">
        <ele>198.27</ele>
        <time>2018-09-21T16:14:54Z</time>
      </trkpt>
      <trkpt lat="45.05003" lon="5.17182">
        <ele>197.78</ele>
        <time>2018-09-21T16:14:55Z</time>
      </trkpt>
      <trkpt lat="45.0499" lon="5.1714">
        <ele>197.63</ele>
        <time>2018-09-21T16:14:56Z</time>
      </trkpt>
      <trkpt lat="45.04977" lon="5.17097">
        <ele>197.59</ele>
        <time>2018-09-21T16:14:57Z</time>
      </trkpt>
      <trkpt lat="45.04963" lon="5.17055">
        <ele>197.57</ele>
        <time>2018-09-21T16:14:58Z</time>
      </trkpt>
      <trkpt lat="45.0495" lon="5.17013">
        <ele>197.57</ele>
        <time>2018-09-21T16:14:59Z</time>
      </trkpt>
      <trkpt lat="45.04937" lon="5.1697">
        <ele>197.57</ele>
        <time>2018-09-21T16:15:00Z</time>
      </trkpt>
      <trkpt lat="45.04924" lon="5.16927">
        <ele>196.87</ele>
        <time>2018-09-21T16:15:01Z</time>
      </trkpt>
      <trkpt lat="45.04912" lon="5.16884">
        <ele>196.66</ele>
        <time>2018-09-21T16:15:02Z</time>
      </trkpt>
      <trkpt lat="45.04898" lon="5.16841">
        <ele>195.2</ele>
        <time>2018-09-21T16:15:03Z</time>
      </trkpt>
      <trkpt lat="45.04886" lon="5.168">
        <ele>194.76</ele>
        <time>2018-09-21T16:15:04Z</time>
      </trkpt>
      <trkpt lat="45.04873" lon="5.16758">
        <ele>194.62</ele>
        <time>2018-09-21T16:15:05Z</time>
      </trkpt>
      <trkpt lat="45.0486" lon="5.16716">
        <ele>194.58</ele>
        <time>2018-09-21T16:15:06Z</time>
      </trkpt>
      <trkpt lat="45.04847" lon="5.16674">
        <ele>194.57</ele>
        <time>2018-09-21T16:15:07Z</time>
      </trkpt>
      <trkpt lat="45.04834" lon="5.16632">
        <ele>194.57</ele>
        <time>2018-09-21T16:15:08Z</time>
      </trkpt>
      <trkpt lat="45.04822" lon="5.1659">
        <ele>194.57</ele>
        <time>2018-09-21T16:15:09Z</time>
      </trkpt>
      <trkpt lat="45.0481" lon="5.16548">
        <ele>194.57</ele>
        <time>2018-09-21T16:15:10Z</time>
      </trkpt>
      <trkpt lat="45.04798" lon="5.16507">
        <ele>193.87</ele>
        <time>2018-09-21T16:15:11Z</time>
      </trkpt>
      <trkpt lat="45.04785" lon="5.16465">
        <ele>193.66</ele>
        <time>2018-09-21T16:15:12Z</time>
      </trkpt>
      <trkpt lat="45.04772" lon="5.16424">
        <ele>193.6</ele>
        <time>2018-09-21T16:15:13Z</time>
      </trkpt>
      <trkpt lat="45.0476" lon="5.16383">
        <ele>193.58</ele>
        <time>2018-09-21T16:15:14Z</time>
      </trkpt>
      <trkpt lat="45.04748" lon="5.16343">
        <ele>194.27</ele>
        <time>2018-09-21T16:15:15Z</time>
      </trkpt>
      <trkpt lat="45.04734" lon="5.16303">
        <ele>194.48</ele>
        <time>2018-09-21T16:15:16Z</time>
      </trkpt>
      <trkpt lat="45.04722" lon="5.16262">
        <ele>194.54</ele>
        <time>2018-09-21T16:15:17Z</time>
      </trkpt>
      <trkpt lat="45.0471" lon="5.16221">
        <ele>193.86</ele>
        <time>2018-09-21T16:15:18Z</time>
      </trkpt>
      <trkpt lat="45.04698" lon="5.1618">
        <ele>193.66</ele>
        <time>2018-09-21T16:15:19Z</time>
      </trkpt>
      <trkpt lat="45.04685" lon="5.16139">
        <ele>193.59</ele>
        <time>2018-09-21T16:15:20Z</time>
      </trkpt>
      <trkpt lat="45.04673" lon="5.16098">
        <ele>193.58</ele>
        <time>2018-09-21T16:15:21Z</time>
      </trkpt>
      <trkpt lat="45.0466" lon="5.16058">
        <ele>193.57</ele>
        <time>2018-09-21T16:15:22Z</time>
      </trkpt>
      <trkpt lat="45.04647" lon="5.16017">
        <ele>193.57</ele>
        <time>2018-09-21T16:15:23Z</time>
      </trkpt>
      <trkpt lat="45.04635" lon="5.15975">
        <ele>193.57</ele>
        <time>2018-09-21T16:15:24Z</time>
      </trkpt>
      <trkpt lat="45.04623" lon="5.15934">
        <ele>193.57</ele>
        <time>2018-09-21T16:15:25Z</time>
      </trkpt>
      <trkpt lat="45.0461" lon="5.15894">
        <ele>193.57</ele>
        <time>2018-09-21T16:15:26Z</time>
      </trkpt>
      <trkpt lat="45.04598" lon="5.15853">
        <ele>193.57</ele>
        <time>2018-09-21T16:15:27Z</time>
      </trkpt>
      <trkpt lat="45.04585" lon="5.15812">
        <ele>193.57</ele>
        <time>2018-09-21T16:15:28Z</time>
      </trkpt>
      <trkpt lat="45.04572" lon="5.15772">
        <ele>193.57</ele>
        <time>2018-09-21T16:15:29Z</time>
      </trkpt>
      <trkpt lat="45.04559" lon="5.15731">
        <ele>193.57</ele>
        <time>2018-09-21T16:15:30Z</time>
      </trkpt>
      <trkpt lat="45.04547" lon="5.1569">
        <ele>193.57</ele>
        <time>2018-09-21T16:15:31Z</time>
      </trkpt>
      <trkpt lat="45.04534" lon="5.15649">
        <ele>193.57</ele>
        <time>2018-09-21T16:15:32Z</time>
      </trkpt>
      <trkpt lat="45.04521" lon="5.15608">
        <ele>192.87</ele>
        <time>2018-09-21T16:15:33Z</time>
      </trkpt>
      <trkpt lat="45.04509" lon="5.15568">
        <ele>193.36</ele>
        <time>2018-09-21T16:15:34Z</time>
      </trkpt>
      <trkpt lat="45.04498" lon="5.15528">
        <ele>193.51</ele>
        <time>2018-09-21T16:15:35Z</time>
      </trkpt>
      <trkpt lat="45.04486" lon="5.15487">
        <ele>193.55</ele>
        <time>2018-09-21T16:15:36Z</time>
      </trkpt>
      <trkpt lat="45.04475" lon="5.15447">
        <ele>193.56</ele>
        <time>2018-09-21T16:15:37Z</time>
      </trkpt>
      <trkpt lat="45.04464" lon="5.15407">
        <ele>194.27</ele>
        <time>2018-09-21T16:15:38Z</time>
      </trkpt>
      <trkpt lat="45.04452" lon="5.15366">
        <ele>194.48</ele>
        <time>2018-09-21T16:15:39Z</time>
      </trkpt>
      <trkpt lat="45.0444" lon="5.15327">
        <ele>195.24</ele>
        <time>2018-09-21T16:15:40Z</time>
      </trkpt>
      <trkpt lat="45.04427" lon="5.15287">
        <ele>196.17</ele>
        <time>2018-09-21T16:15:41Z</time>
      </trkpt>
      <trkpt lat="45.04414" lon="5.15248">
        <ele>196.45</ele>
        <time>2018-09-21T16:15:42Z</time>
      </trkpt>
      <trkpt lat="45.04401" lon="5.15209">
        <ele>197.23</ele>
        <time>2018-09-21T16:15:43Z</time>
      </trkpt>
      <trkpt lat="45.04387" lon="5.15171">
        <ele>198.87</ele>
        <time>2018-09-21T16:15:44Z</time>
      </trkpt>
      <trkpt lat="45.04373" lon="5.15133">
        <ele>199.36</ele>
        <time>2018-09-21T16:15:45Z</time>
      </trkpt>
      <trkpt lat="45.04358" lon="5.15096">
        <ele>200.2</ele>
        <time>2018-09-21T16:15:46Z</time>
      </trkpt>
      <trkpt lat="45.04343" lon="5.15059">
        <ele>201.86</ele>
        <time>2018-09-21T16:15:47Z</time>
      </trkpt>
      <trkpt lat="45.04326" lon="5.15022">
        <ele>203.06</ele>
        <time>2018-09-21T16:15:48Z</time>
      </trkpt>
      <trkpt lat="45.0431" lon="5.14987">
        <ele>204.81</ele>
        <time>2018-09-21T16:15:49Z</time>
      </trkpt>
      <trkpt lat="45.04293" lon="5.14951">
        <ele>206.74</ele>
        <time>2018-09-21T16:15:50Z</time>
      </trkpt>
      <trkpt lat="45.04276" lon="5.14917">
        <ele>208.02</ele>
        <time>2018-09-21T16:15:51Z</time>
      </trkpt>
      <trkpt lat="45.04259" lon="5.14883">
        <ele>209.8</ele>
        <time>2018-09-21T16:15:52Z</time>
      </trkpt>
      <trkpt lat="45.04242" lon="5.1485">
        <ele>210.34</ele>
        <time>2018-09-21T16:15:53Z</time>
      </trkpt>
      <trkpt lat="45.04224" lon="5.14817">
        <ele>211.9</ele>
        <time>2018-09-21T16:15:54Z</time>
      </trkpt>
      <trkpt lat="45.04205" lon="5.14785">
        <ele>213.77</ele>
        <time>2018-09-21T16:15:55Z</time>
      </trkpt>
      <trkpt lat="45.04186" lon="5.14752">
        <ele>215.03</ele>
        <time>2018-09-21T16:15:56Z</time>
      </trkpt>
      <trkpt lat="45.04167" lon="5.14721">
        <ele>216.11</ele>
        <time>2018-09-21T16:15:57Z</time>
      </trkpt>
      <trkpt lat="45.04147" lon="5.14691">
        <ele>217.83</ele>
        <time>2018-09-21T16:15:58Z</time>
      </trkpt>
      <trkpt lat="45.04127" lon="5.14661">
        <ele>219.75</ele>
        <time>2018-09-21T16:15:59Z</time>
      </trkpt>
      <trkpt lat="45.04106" lon="5.14632">
        <ele>221.02</ele>
        <time>2018-09-21T16:16:00Z</time>
      </trkpt>
      <trkpt lat="45.04085" lon="5.14604">
        <ele>222.8</ele>
        <time>2018-09-21T16:16:01Z</time>
      </trkpt>
      <trkpt lat="45.04064" lon="5.14576">
        <ele>224.04</ele>
        <time>2018-09-21T16:16:02Z</time>
      </trkpt>
      <trkpt lat="45.04042" lon="5.14548">
        <ele>225.81</ele>
        <time>2018-09-21T16:16:03Z</time>
      </trkpt>
      <trkpt lat="45.04021" lon="5.14519">
        <ele>227.04</ele>
        <time>2018-09-21T16:16:04Z</time>
      </trkpt>
      <trkpt lat="45.03998" lon="5.14491">
        <ele>228.81</ele>
        <time>2018-09-21T16:16:05Z</time>
      </trkpt>
      <trkpt lat="45.03974" lon="5.14463">
        <ele>230.04</ele>
        <time>2018-09-21T16:16:06Z</time>
      </trkpt>
      <trkpt lat="45.0395" lon="5.14435">
        <ele>231.11</ele>
        <time>2018-09-21T16:16:07Z</time>
      </trkpt>
      <trkpt lat="45.03925" lon="5.14406">
        <ele>232.13</ele>
        <time>2018-09-21T16:16:08Z</time>
      </trkpt>
      <trkpt lat="45.03901" lon="5.14377">
        <ele>233.14</ele>
        <time>2018-09-21T16:16:09Z</time>
      </trkpt>
      <trkpt lat="45.03876" lon="5.14348">
        <ele>233.44</ele>
        <time>2018-09-21T16:16:10Z</time>
      </trkpt>
      <trkpt lat="45.03851" lon="5.14318">
        <ele>234.23</ele>
        <time>2018-09-21T16:16:11Z</time>
      </trkpt>
      <trkpt lat="45.03826" lon="5.14288">
        <ele>234.47</ele>
        <time>2018-09-21T16:16:12Z</time>
      </trkpt>
      <trkpt lat="45.03803" lon="5.14257">
        <ele>235.24</ele>
        <time>2018-09-21T16:16:13Z</time>
      </trkpt>
      <trkpt lat="45.03779" lon="5.14226">
        <ele>236.17</ele>
        <time>2018-09-21T16:16:14Z</time>
      </trkpt>
      <trkpt lat="45.03755" lon="5.14194">
        <ele>237.15</ele>
        <time>2018-09-21T16:16:15Z</time>
      </trkpt>
      <trkpt lat="45.03732" lon="5.14162">
        <ele>237.44</ele>
        <time>2018-09-21T16:16:16Z</time>
      </trkpt>
      <trkpt lat="45.03709" lon="5.14129">
        <ele>238.23</ele>
        <time>2018-09-21T16:16:17Z</time>
      </trkpt>
      <trkpt lat="45.03687" lon="5.14095">
        <ele>238.47</ele>
        <time>2018-09-21T16:16:18Z</time>
      </trkpt>
      <trkpt lat="45.03664" lon="5.14059">
        <ele>239.24</ele>
        <time>2018-09-21T16:16:19Z</time>
      </trkpt>
      <trkpt lat="45.03643" lon="5.14024">
        <ele>238.77</ele>
        <time>2018-09-21T16:16:20Z</time>
      </trkpt>
      <trkpt lat="45.03621" lon="5.13987">
        <ele>239.33</ele>
        <time>2018-09-21T16:16:21Z</time>
      </trkpt>
      <trkpt lat="45.03601" lon="5.1395">
        <ele>238.8</ele>
        <time>2018-09-21T16:16:22Z</time>
      </trkpt>
      <trkpt lat="45.0358" lon="5.13912">
        <ele>238.64</ele>
        <time>2018-09-21T16:16:23Z</time>
      </trkpt>
      <trkpt lat="45.0356" lon="5.13873">
        <ele>239.29</ele>
        <time>2018-09-21T16:16:24Z</time>
      </trkpt>
      <trkpt lat="45.03541" lon="5.13834">
        <ele>239.48</ele>
        <time>2018-09-21T16:16:25Z</time>
      </trkpt>
      <trkpt lat="45.03523" lon="5.13794">
        <ele>239.54</ele>
        <time>2018-09-21T16:16:26Z</time>
      </trkpt>
      <trkpt lat="45.03505" lon="5.13753">
        <ele>239.56</ele>
        <time>2018-09-21T16:16:27Z</time>
      </trkpt>
      <trkpt lat="45.03488" lon="5.13711">
        <ele>238.87</ele>
        <time>2018-09-21T16:16:28Z</time>
      </trkpt>
      <trkpt lat="45.03471" lon="5.1367">
        <ele>238.66</ele>
        <time>2018-09-21T16:16:29Z</time>
      </trkpt>
      <trkpt lat="45.03456" lon="5.13628">
        <ele>238.59</ele>
        <time>2018-09-21T16:16:30Z</time>
      </trkpt>
      <trkpt lat="45.03441" lon="5.13587">
        <ele>238.58</ele>
        <time>2018-09-21T16:16:31Z</time>
      </trkpt>
      <trkpt lat="45.03426" lon="5.13545">
        <ele>237.87</ele>
        <time>2018-09-21T16:16:32Z</time>
      </trkpt>
      <trkpt lat="45.03412" lon="5.13504">
        <ele>237.66</ele>
        <time>2018-09-21T16:16:33Z</time>
      </trkpt>
      <trkpt lat="45.034" lon="5.13463">
        <ele>236.9</ele>
        <time>2018-09-21T16:16:34Z</time>
      </trkpt>
      <trkpt lat="45.03386" lon="5.13423">
        <ele>236.67</ele>
        <time>2018-09-21T16:16:35Z</time>
      </trkpt>
      <trkpt lat="45.03374" lon="5.13381">
        <ele>236.6</ele>
        <time>2018-09-21T16:16:36Z</time>
      </trkpt>
      <trkpt lat="45.03364" lon="5.13338">
        <ele>235.88</ele>
        <time>2018-09-21T16:16:37Z</time>
      </trkpt>
      <trkpt lat="45.03353" lon="5.13297">
        <ele>235.66</ele>
        <time>2018-09-21T16:16:38Z</time>
      </trkpt>
      <trkpt lat="45.03344" lon="5.13256">
        <ele>234.9</ele>
        <time>2018-09-21T16:16:39Z</time>
      </trkpt>
      <trkpt lat="45.03336" lon="5.13215">
        <ele>233.97</ele>
        <time>2018-09-21T16:16:40Z</time>
      </trkpt>
      <trkpt lat="45.03327" lon="5.13174">
        <ele>232.29</ele>
        <time>2018-09-21T16:16:41Z</time>
      </trkpt>
      <trkpt lat="45.03319" lon="5.13132">
        <ele>231.78</ele>
        <time>2018-09-21T16:16:42Z</time>
      </trkpt>
      <trkpt lat="45.03311" lon="5.13091">
        <ele>230.23</ele>
        <time>2018-09-21T16:16:43Z</time>
      </trkpt>
      <trkpt lat="45.03304" lon="5.13049">
        <ele>229.07</ele>
        <time>2018-09-21T16:16:44Z</time>
      </trkpt>
      <trkpt lat="45.03297" lon="5.13007">
        <ele>227.32</ele>
        <time>2018-09-21T16:16:45Z</time>
      </trkpt>
      <trkpt lat="45.03291" lon="5.12965">
        <ele>226.09</ele>
        <time>2018-09-21T16:16:46Z</time>
      </trkpt>
      <trkpt lat="45.03286" lon="5.12923">
        <ele>225.03</ele>
        <time>2018-09-21T16:16:47Z</time>
      </trkpt>
      <trkpt lat="45.0328" lon="5.12882">
        <ele>224.01</ele>
        <time>2018-09-21T16:16:48Z</time>
      </trkpt>
      <trkpt lat="45.03274" lon="5.1284">
        <ele>223</ele>
        <time>2018-09-21T16:16:49Z</time>
      </trkpt>
      <trkpt lat="45.03268" lon="5.12798">
        <ele>222</ele>
        <time>2018-09-21T16:16:50Z</time>
      </trkpt>
      <trkpt lat="45.03262" lon="5.12756">
        <ele>221</ele>
        <time>2018-09-21T16:16:51Z</time>
      </trkpt>
      <trkpt lat="45.03256" lon="5.12715">
        <ele>220</ele>
        <time>2018-09-21T16:16:52Z</time>
      </trkpt>
      <trkpt lat="45.03251" lon="5.12674">
        <ele>219</ele>
        <time>2018-09-21T16:16:53Z</time>
      </trkpt>
      <trkpt lat="45.03245" lon="5.12633">
        <ele>218</ele>
        <time>2018-09-21T16:16:54Z</time>
      </trkpt>
      <trkpt lat="45.0324" lon="5.12593">
        <ele>217</ele>
        <time>2018-09-21T16:16:55Z</time>
      </trkpt>
      <trkpt lat="45.03234" lon="5.12552">
        <ele>216.7</ele>
        <time>2018-09-21T16:16:56Z</time>
      </trkpt>
      <trkpt lat="45.03228" lon="5.12512">
        <ele>216.61</ele>
        <time>2018-09-21T16:16:57Z</time>
      </trkpt>
      <trkpt lat="45.03223" lon="5.12471">
        <ele>215.88</ele>
        <time>2018-09-21T16:16:58Z</time>
      </trkpt>
      <trkpt lat="45.03218" lon="5.12431">
        <ele>215.66</ele>
        <time>2018-09-21T16:16:59Z</time>
      </trkpt>
      <trkpt lat="45.03212" lon="5.12391">
        <ele>214.9</ele>
        <time>2018-09-21T16:17:00Z</time>
      </trkpt>
      <trkpt lat="45.03207" lon="5.12351">
        <ele>214.67</ele>
        <time>2018-09-21T16:17:01Z</time>
      </trkpt>
      <trkpt lat="45.03201" lon="5.1231">
        <ele>213.9</ele>
        <time>2018-09-21T16:17:02Z</time>
      </trkpt>
      <trkpt lat="45.03195" lon="5.12269">
        <ele>213.67</ele>
        <time>2018-09-21T16:17:03Z</time>
      </trkpt>
      <trkpt lat="45.03189" lon="5.12228">
        <ele>213.6</ele>
        <time>2018-09-21T16:17:04Z</time>
      </trkpt>
      <trkpt lat="45.03183" lon="5.12186">
        <ele>213.58</ele>
        <time>2018-09-21T16:17:05Z</time>
      </trkpt>
      <trkpt lat="45.03177" lon="5.12143">
        <ele>212.87</ele>
        <time>2018-09-21T16:17:06Z</time>
      </trkpt>
      <trkpt lat="45.03171" lon="5.12101">
        <ele>212.66</ele>
        <time>2018-09-21T16:17:07Z</time>
      </trkpt>
      <trkpt lat="45.03165" lon="5.12059">
        <ele>213.3</ele>
        <time>2018-09-21T16:17:08Z</time>
      </trkpt>
      <trkpt lat="45.03159" lon="5.12017">
        <ele>213.49</ele>
        <time>2018-09-21T16:17:09Z</time>
      </trkpt>
      <trkpt lat="45.03152" lon="5.11975">
        <ele>213.54</ele>
        <time>2018-09-21T16:17:10Z</time>
      </trkpt>
      <trkpt lat="45.03146" lon="5.11932">
        <ele>212.86</ele>
        <time>2018-09-21T16:17:11Z</time>
      </trkpt>
      <trkpt lat="45.03139" lon="5.1189">
        <ele>212.66</ele>
        <time>2018-09-21T16:17:12Z</time>
      </trkpt>
      <trkpt lat="45.03132" lon="5.11849">
        <ele>212.59</ele>
        <time>2018-09-21T16:17:13Z</time>
      </trkpt>
      <trkpt lat="45.03124" lon="5.11807">
        <ele>212.58</ele>
        <time>2018-09-21T16:17:14Z</time>
      </trkpt>
      <trkpt lat="45.03117" lon="5.11764">
        <ele>212.57</ele>
        <time>2018-09-21T16:17:15Z</time>
      </trkpt>
      <trkpt lat="45.03109" lon="5.11722">
        <ele>212.57</ele>
        <time>2018-09-21T16:17:16Z</time>
      </trkpt>
      <trkpt lat="45.031" lon="5.11681">
        <ele>212.57</ele>
        <time>2018-09-21T16:17:17Z</time>
      </trkpt>
      <trkpt lat="45.03092" lon="5.11639">
        <ele>212.57</ele>
        <time>2018-09-21T16:17:18Z</time>
      </trkpt>
      <trkpt lat="45.03082" lon="5.11597">
        <ele>212.57</ele>
        <time>2018-09-21T16:17:19Z</time>
      </trkpt>
      <trkpt lat="45.03073" lon="5.11555">
        <ele>212.57</ele>
        <time>2018-09-21T16:17:20Z</time>
      </trkpt>
      <trkpt lat="45.03063" lon="5.11514">
        <ele>211.87</ele>
        <time>2018-09-21T16:17:21Z</time>
      </trkpt>
      <trkpt lat="45.03053" lon="5.11472">
        <ele>211.66</ele>
        <time>2018-09-21T16:17:22Z</time>
      </trkpt>
      <trkpt lat="45.03043" lon="5.11429">
        <ele>211.6</ele>
        <time>2018-09-21T16:17:23Z</time>
      </trkpt>
      <trkpt lat="45.03031" lon="5.11387">
        <ele>212.28</ele>
        <time>2018-09-21T16:17:24Z</time>
      </trkpt>
      <trkpt lat="45.0302" lon="5.11346">
        <ele>212.48</ele>
        <time>2018-09-21T16:17:25Z</time>
      </trkpt>
      <trkpt lat="45.03008" lon="5.11304">
        <ele>212.54</ele>
        <time>2018-09-21T16:17:26Z</time>
      </trkpt>
      <trkpt lat="45.02996" lon="5.11263">
        <ele>211.86</ele>
        <time>2018-09-21T16:17:27Z</time>
      </trkpt>
      <trkpt lat="45.02984" lon="5.11222">
        <ele>211.66</ele>
        <time>2018-09-21T16:17:28Z</time>
      </trkpt>
      <trkpt lat="45.02972" lon="5.11182">
        <ele>211.59</ele>
        <time>2018-09-21T16:17:29Z</time>
      </trkpt>
      <trkpt lat="45.02959" lon="5.11141">
        <ele>210.88</ele>
        <time>2018-09-21T16:17:30Z</time>
      </trkpt>
      <trkpt lat="45.02945" lon="5.11101">
        <ele>210.66</ele>
        <time>2018-09-21T16:17:31Z</time>
      </trkpt>
      <trkpt lat="45.02931" lon="5.11061">
        <ele>211.3</ele>
        <time>2018-09-21T16:17:32Z</time>
      </trkpt>
      <trkpt lat="45.02918" lon="5.11022">
        <ele>211.49</ele>
        <time>2018-09-21T16:17:33Z</time>
      </trkpt>
      <trkpt lat="45.02904" lon="5.10981">
        <ele>211.54</ele>
        <time>2018-09-21T16:17:34Z</time>
      </trkpt>
      <trkpt lat="45.0289" lon="5.1094">
        <ele>211.56</ele>
        <time>2018-09-21T16:17:35Z</time>
      </trkpt>
      <trkpt lat="45.02876" lon="5.10899">
        <ele>211.57</ele>
        <time>2018-09-21T16:17:36Z</time>
      </trkpt>
      <trkpt lat="45.02862" lon="5.10858">
        <ele>211.57</ele>
        <time>2018-09-21T16:17:37Z</time>
      </trkpt>
      <trkpt lat="45.02848" lon="5.10817">
        <ele>211.57</ele>
        <time>2018-09-21T16:17:38Z</time>
      </trkpt>
      <trkpt lat="45.02834" lon="5.10776">
        <ele>211.57</ele>
        <time>2018-09-21T16:17:39Z</time>
      </trkpt>
      <trkpt lat="45.0282" lon="5.10736">
        <ele>211.57</ele>
        <time>2018-09-21T16:17:40Z</time>
      </trkpt>
      <trkpt lat="45.02808" lon="5.10697">
        <ele>211.57</ele>
        <time>2018-09-21T16:17:41Z</time>
      </trkpt>
      <trkpt lat="45.02796" lon="5.10659">
        <ele>211.57</ele>
        <time>2018-09-21T16:17:42Z</time>
      </trkpt>
      <trkpt lat="45.02784" lon="5.1062">
        <ele>210.87</ele>
        <time>2018-09-21T16:17:43Z</time>
      </trkpt>
      <trkpt lat="45.02773" lon="5.10582">
        <ele>210.66</ele>
        <time>2018-09-21T16:17:44Z</time>
      </trkpt>
      <trkpt lat="45.02762" lon="5.10544">
        <ele>209.9</ele>
        <time>2018-09-21T16:17:45Z</time>
      </trkpt>
      <trkpt lat="45.02751" lon="5.10505">
        <ele>209.67</ele>
        <time>2018-09-21T16:17:46Z</time>
      </trkpt>
      <trkpt lat="45.0274" lon="5.10466">
        <ele>209.6</ele>
        <time>2018-09-21T16:17:47Z</time>
      </trkpt>
      <trkpt lat="45.02731" lon="5.10428">
        <ele>209.58</ele>
        <time>2018-09-21T16:17:48Z</time>
      </trkpt>
      <trkpt lat="45.02721" lon="5.10389">
        <ele>208.87</ele>
        <time>2018-09-21T16:17:49Z</time>
      </trkpt>
      <trkpt lat="45.02713" lon="5.10351">
        <ele>208.66</ele>
        <time>2018-09-21T16:17:50Z</time>
      </trkpt>
      <trkpt lat="45.02704" lon="5.10313">
        <ele>207.9</ele>
        <time>2018-09-21T16:17:51Z</time>
      </trkpt>
      <trkpt lat="45.02696" lon="5.10277">
        <ele>208.37</ele>
        <time>2018-09-21T16:17:52Z</time>
      </trkpt>
      <trkpt lat="45.02689" lon="5.1024">
        <ele>207.81</ele>
        <time>2018-09-21T16:17:53Z</time>
      </trkpt>
      <trkpt lat="45.02682" lon="5.10205">
        <ele>207.64</ele>
        <time>2018-09-21T16:17:54Z</time>
      </trkpt>
      <trkpt lat="45.02675" lon="5.10172">
        <ele>207.59</ele>
        <time>2018-09-21T16:17:55Z</time>
      </trkpt>
      <trkpt lat="45.02669" lon="5.1014">
        <ele>207.57</ele>
        <time>2018-09-21T16:17:56Z</time>
      </trkpt>
      <trkpt lat="45.02664" lon="5.10108">
        <ele>207.57</ele>
        <time>2018-09-21T16:17:57Z</time>
      </trkpt>
      <trkpt lat="45.02659" lon="5.10077">
        <ele>207.57</ele>
        <time>2018-09-21T16:17:58Z</time>
      </trkpt>
      <trkpt lat="45.02656" lon="5.10047">
        <ele>206.87</ele>
        <time>2018-09-21T16:17:59Z</time>
      </trkpt>
      <trkpt lat="45.02654" lon="5.10018">
        <ele>206.66</ele>
        <time>2018-09-21T16:18:00Z</time>
      </trkpt>
      <trkpt lat="45.02652" lon="5.09992">
        <ele>207.3</ele>
        <time>2018-09-21T16:18:01Z</time>
      </trkpt>
      <trkpt lat="45.02648" lon="5.09944">
        <ele>207.33</ele>
        <time>2018-09-21T16:18:03Z</time>
      </trkpt>
      <trkpt lat="45.02646" lon="5.09896">
        <ele>206.85</ele>
        <time>2018-09-21T16:18:05Z</time>
      </trkpt>
      <trkpt lat="45.02643" lon="5.09849">
        <ele>207.5</ele>
        <time>2018-09-21T16:18:07Z</time>
      </trkpt>
      <trkpt lat="45.02641" lon="5.09808">
        <ele>207.56</ele>
        <time>2018-09-21T16:18:09Z</time>
      </trkpt>
      <trkpt lat="45.02639" lon="5.09771">
        <ele>207.57</ele>
        <time>2018-09-21T16:18:11Z</time>
      </trkpt>
      <trkpt lat="45.02638" lon="5.09745">
        <ele>207.57</ele>
        <time>2018-09-21T16:18:13Z</time>
      </trkpt>
      <trkpt lat="45.02636" lon="5.09714">
        <ele>205.96</ele>
        <time>2018-09-21T16:18:17Z</time>
      </trkpt>
      <trkpt lat="45.02634" lon="5.09688">
        <ele>205.57</ele>
        <time>2018-09-21T16:18:22Z</time>
      </trkpt>
      <trkpt lat="45.02631" lon="5.09661">
        <ele>205.57</ele>
        <time>2018-09-21T16:18:28Z</time>
      </trkpt>
      <trkpt lat="45.02624" lon="5.09622">
        <ele>204.87</ele>
        <time>2018-09-21T16:18:31Z</time>
      </trkpt>
      <trkpt lat="45.02616" lon="5.09585">
        <ele>205.29</ele>
        <time>2018-09-21T16:18:33Z</time>
      </trkpt>
      <trkpt lat="45.02605" lon="5.09544">
        <ele>204.84</ele>
        <time>2018-09-21T16:18:35Z</time>
      </trkpt>
      <trkpt lat="45.02594" lon="5.09499">
        <ele>204.59</ele>
        <time>2018-09-21T16:18:37Z</time>
      </trkpt>
      <trkpt lat="45.02589" lon="5.09473">
        <ele>204.58</ele>
        <time>2018-09-21T16:18:38Z</time>
      </trkpt>
      <trkpt lat="45.02583" lon="5.09447">
        <ele>204.57</ele>
        <time>2018-09-21T16:18:39Z</time>
      </trkpt>
      <trkpt lat="45.02576" lon="5.0942">
        <ele>204.57</ele>
        <time>2018-09-21T16:18:40Z</time>
      </trkpt>
      <trkpt lat="45.02569" lon="5.09392">
        <ele>204.57</ele>
        <time>2018-09-21T16:18:41Z</time>
      </trkpt>
      <trkpt lat="45.02563" lon="5.09361">
        <ele>203.87</ele>
        <time>2018-09-21T16:18:42Z</time>
      </trkpt>
      <trkpt lat="45.02557" lon="5.09327">
        <ele>203.66</ele>
        <time>2018-09-21T16:18:43Z</time>
      </trkpt>
      <trkpt lat="45.0255" lon="5.09291">
        <ele>203.6</ele>
        <time>2018-09-21T16:18:44Z</time>
      </trkpt>
      <trkpt lat="45.02545" lon="5.09253">
        <ele>202.88</ele>
        <time>2018-09-21T16:18:45Z</time>
      </trkpt>
      <trkpt lat="45.0254" lon="5.09213">
        <ele>202.66</ele>
        <time>2018-09-21T16:18:46Z</time>
      </trkpt>
      <trkpt lat="45.02536" lon="5.09173">
        <ele>201.9</ele>
        <time>2018-09-21T16:18:47Z</time>
      </trkpt>
      <trkpt lat="45.02532" lon="5.0913">
        <ele>200.97</ele>
        <time>2018-09-21T16:18:48Z</time>
      </trkpt>
      <trkpt lat="45.02528" lon="5.09087">
        <ele>199.99</ele>
        <time>2018-09-21T16:18:49Z</time>
      </trkpt>
      <trkpt lat="45.02524" lon="5.09045">
        <ele>199.69</ele>
        <time>2018-09-21T16:18:50Z</time>
      </trkpt>
      <trkpt lat="45.0252" lon="5.09003">
        <ele>198.91</ele>
        <time>2018-09-21T16:18:51Z</time>
      </trkpt>
      <trkpt lat="45.02515" lon="5.08961">
        <ele>197.97</ele>
        <time>2018-09-21T16:18:52Z</time>
      </trkpt>
      <trkpt lat="45.02512" lon="5.0892">
        <ele>197.69</ele>
        <time>2018-09-21T16:18:53Z</time>
      </trkpt>
      <trkpt lat="45.02508" lon="5.08877">
        <ele>197.6</ele>
        <time>2018-09-21T16:18:54Z</time>
      </trkpt>
      <trkpt lat="45.02505" lon="5.08835">
        <ele>196.88</ele>
        <time>2018-09-21T16:18:55Z</time>
      </trkpt>
      <trkpt lat="45.025" lon="5.08793">
        <ele>196.66</ele>
        <time>2018-09-21T16:18:56Z</time>
      </trkpt>
      <trkpt lat="45.02495" lon="5.0875">
        <ele>196.6</ele>
        <time>2018-09-21T16:18:57Z</time>
      </trkpt>
      <trkpt lat="45.0249" lon="5.08708">
        <ele>196.58</ele>
        <time>2018-09-21T16:18:58Z</time>
      </trkpt>
      <trkpt lat="45.02484" lon="5.08666">
        <ele>196.57</ele>
        <time>2018-09-21T16:18:59Z</time>
      </trkpt>
      <trkpt lat="45.02478" lon="5.08624">
        <ele>195.87</ele>
        <time>2018-09-21T16:19:00Z</time>
      </trkpt>
      <trkpt lat="45.02471" lon="5.08583">
        <ele>196.36</ele>
        <time>2018-09-21T16:19:01Z</time>
      </trkpt>
      <trkpt lat="45.02465" lon="5.08541">
        <ele>195.81</ele>
        <time>2018-09-21T16:19:02Z</time>
      </trkpt>
      <trkpt lat="45.02458" lon="5.08499">
        <ele>195.64</ele>
        <time>2018-09-21T16:19:03Z</time>
      </trkpt>
      <trkpt lat="45.0245" lon="5.08457">
        <ele>195.59</ele>
        <time>2018-09-21T16:19:04Z</time>
      </trkpt>
      <trkpt lat="45.02443" lon="5.08414">
        <ele>195.57</ele>
        <time>2018-09-21T16:19:05Z</time>
      </trkpt>
      <trkpt lat="45.02434" lon="5.08371">
        <ele>195.57</ele>
        <time>2018-09-21T16:19:06Z</time>
      </trkpt>
      <trkpt lat="45.02426" lon="5.08328">
        <ele>194.87</ele>
        <time>2018-09-21T16:19:07Z</time>
      </trkpt>
      <trkpt lat="45.02418" lon="5.08286">
        <ele>194.66</ele>
        <time>2018-09-21T16:19:08Z</time>
      </trkpt>
      <trkpt lat="45.02409" lon="5.08244">
        <ele>194.6</ele>
        <time>2018-09-21T16:19:09Z</time>
      </trkpt>
      <trkpt lat="45.02399" lon="5.08202">
        <ele>194.58</ele>
        <time>2018-09-21T16:19:10Z</time>
      </trkpt>
      <trkpt lat="45.02389" lon="5.0816">
        <ele>194.57</ele>
        <time>2018-09-21T16:19:11Z</time>
      </trkpt>
      <trkpt lat="45.02379" lon="5.08117">
        <ele>194.57</ele>
        <time>2018-09-21T16:19:12Z</time>
      </trkpt>
      <trkpt lat="45.02369" lon="5.08076">
        <ele>194.57</ele>
        <time>2018-09-21T16:19:13Z</time>
      </trkpt>
      <trkpt lat="45.02359" lon="5.08033">
        <ele>194.57</ele>
        <time>2018-09-21T16:19:14Z</time>
      </trkpt>
      <trkpt lat="45.02349" lon="5.07989">
        <ele>194.57</ele>
        <time>2018-09-21T16:19:15Z</time>
      </trkpt>
      <trkpt lat="45.02339" lon="5.07946">
        <ele>194.57</ele>
        <time>2018-09-21T16:19:16Z</time>
      </trkpt>
      <trkpt lat="45.02329" lon="5.07902">
        <ele>194.57</ele>
        <time>2018-09-21T16:19:17Z</time>
      </trkpt>
      <trkpt lat="45.02319" lon="5.07858">
        <ele>194.57</ele>
        <time>2018-09-21T16:19:18Z</time>
      </trkpt>
      <trkpt lat="45.02309" lon="5.07814">
        <ele>193.87</ele>
        <time>2018-09-21T16:19:19Z</time>
      </trkpt>
      <trkpt lat="45.02299" lon="5.07769">
        <ele>193.66</ele>
        <time>2018-09-21T16:19:20Z</time>
      </trkpt>
      <trkpt lat="45.0229" lon="5.07726">
        <ele>193.6</ele>
        <time>2018-09-21T16:19:21Z</time>
      </trkpt>
      <trkpt lat="45.02282" lon="5.07682">
        <ele>192.88</ele>
        <time>2018-09-21T16:19:22Z</time>
      </trkpt>
      <trkpt lat="45.02274" lon="5.07637">
        <ele>192.66</ele>
        <time>2018-09-21T16:19:23Z</time>
      </trkpt>
      <trkpt lat="45.02267" lon="5.07593">
        <ele>192.6</ele>
        <time>2018-09-21T16:19:24Z</time>
      </trkpt>
      <trkpt lat="45.02259" lon="5.07549">
        <ele>192.58</ele>
        <time>2018-09-21T16:19:25Z</time>
      </trkpt>
      <trkpt lat="45.02253" lon="5.07505">
        <ele>191.87</ele>
        <time>2018-09-21T16:19:26Z</time>
      </trkpt>
      <trkpt lat="45.02248" lon="5.07461">
        <ele>191.66</ele>
        <time>2018-09-21T16:19:27Z</time>
      </trkpt>
      <trkpt lat="45.02243" lon="5.07417">
        <ele>191.6</ele>
        <time>2018-09-21T16:19:28Z</time>
      </trkpt>
      <trkpt lat="45.02238" lon="5.07371">
        <ele>191.58</ele>
        <time>2018-09-21T16:19:29Z</time>
      </trkpt>
      <trkpt lat="45.02232" lon="5.07325">
        <ele>191.57</ele>
        <time>2018-09-21T16:19:30Z</time>
      </trkpt>
      <trkpt lat="45.02228" lon="5.07276">
        <ele>191.57</ele>
        <time>2018-09-21T16:19:31Z</time>
      </trkpt>
      <trkpt lat="45.02224" lon="5.07229">
        <ele>191.57</ele>
        <time>2018-09-21T16:19:32Z</time>
      </trkpt>
      <trkpt lat="45.0222" lon="5.07182">
        <ele>190.87</ele>
        <time>2018-09-21T16:19:33Z</time>
      </trkpt>
      <trkpt lat="45.02217" lon="5.07136">
        <ele>191.36</ele>
        <time>2018-09-21T16:19:34Z</time>
      </trkpt>
      <trkpt lat="45.02214" lon="5.0709">
        <ele>191.51</ele>
        <time>2018-09-21T16:19:35Z</time>
      </trkpt>
      <trkpt lat="45.02211" lon="5.07045">
        <ele>190.85</ele>
        <time>2018-09-21T16:19:36Z</time>
      </trkpt>
      <trkpt lat="45.02208" lon="5.07">
        <ele>190.65</ele>
        <time>2018-09-21T16:19:37Z</time>
      </trkpt>
      <trkpt lat="45.02205" lon="5.06954">
        <ele>191.29</ele>
        <time>2018-09-21T16:19:38Z</time>
      </trkpt>
      <trkpt lat="45.02203" lon="5.06908">
        <ele>191.49</ele>
        <time>2018-09-21T16:19:39Z</time>
      </trkpt>
      <trkpt lat="45.022" lon="5.06863">
        <ele>190.84</ele>
        <time>2018-09-21T16:19:40Z</time>
      </trkpt>
      <trkpt lat="45.02198" lon="5.06818">
        <ele>190.65</ele>
        <time>2018-09-21T16:19:41Z</time>
      </trkpt>
      <trkpt lat="45.02195" lon="5.06772">
        <ele>190.59</ele>
        <time>2018-09-21T16:19:42Z</time>
      </trkpt>
      <trkpt lat="45.02192" lon="5.06727">
        <ele>190.58</ele>
        <time>2018-09-21T16:19:43Z</time>
      </trkpt>
      <trkpt lat="45.02189" lon="5.06681">
        <ele>189.87</ele>
        <time>2018-09-21T16:19:44Z</time>
      </trkpt>
      <trkpt lat="45.02187" lon="5.06636">
        <ele>189.66</ele>
        <time>2018-09-21T16:19:45Z</time>
      </trkpt>
      <trkpt lat="45.02184" lon="5.06591">
        <ele>189.6</ele>
        <time>2018-09-21T16:19:46Z</time>
      </trkpt>
      <trkpt lat="45.02181" lon="5.06546">
        <ele>189.58</ele>
        <time>2018-09-21T16:19:47Z</time>
      </trkpt>
      <trkpt lat="45.02178" lon="5.06502">
        <ele>189.57</ele>
        <time>2018-09-21T16:19:48Z</time>
      </trkpt>
      <trkpt lat="45.02175" lon="5.06458">
        <ele>189.57</ele>
        <time>2018-09-21T16:19:49Z</time>
      </trkpt>
      <trkpt lat="45.02173" lon="5.06413">
        <ele>189.57</ele>
        <time>2018-09-21T16:19:50Z</time>
      </trkpt>
      <trkpt lat="45.0217" lon="5.06368">
        <ele>189.57</ele>
        <time>2018-09-21T16:19:51Z</time>
      </trkpt>
      <trkpt lat="45.02168" lon="5.06323">
        <ele>189.57</ele>
        <time>2018-09-21T16:19:52Z</time>
      </trkpt>
      <trkpt lat="45.02165" lon="5.06278">
        <ele>189.57</ele>
        <time>2018-09-21T16:19:53Z</time>
      </trkpt>
      <trkpt lat="45.02163" lon="5.06231">
        <ele>189.57</ele>
        <time>2018-09-21T16:19:54Z</time>
      </trkpt>
      <trkpt lat="45.0216" lon="5.06186">
        <ele>189.57</ele>
        <time>2018-09-21T16:19:55Z</time>
      </trkpt>
      <trkpt lat="45.02158" lon="5.0614">
        <ele>188.87</ele>
        <time>2018-09-21T16:19:56Z</time>
      </trkpt>
      <trkpt lat="45.02156" lon="5.06094">
        <ele>189.36</ele>
        <time>2018-09-21T16:19:57Z</time>
      </trkpt>
      <trkpt lat="45.02154" lon="5.06048">
        <ele>188.8</ele>
        <time>2018-09-21T16:19:58Z</time>
      </trkpt>
      <trkpt lat="45.02152" lon="5.06002">
        <ele>188.64</ele>
        <time>2018-09-21T16:19:59Z</time>
      </trkpt>
      <trkpt lat="45.02149" lon="5.05955">
        <ele>188.59</ele>
        <time>2018-09-21T16:20:00Z</time>
      </trkpt>
      <trkpt lat="45.02146" lon="5.05908">
        <ele>189.27</ele>
        <time>2018-09-21T16:20:01Z</time>
      </trkpt>
      <trkpt lat="45.02144" lon="5.05861">
        <ele>188.78</ele>
        <time>2018-09-21T16:20:02Z</time>
      </trkpt>
      <trkpt lat="45.02141" lon="5.05815">
        <ele>189.33</ele>
        <time>2018-09-21T16:20:03Z</time>
      </trkpt>
      <trkpt lat="45.02139" lon="5.05768">
        <ele>188.8</ele>
        <time>2018-09-21T16:20:04Z</time>
      </trkpt>
      <trkpt lat="45.02136" lon="5.05721">
        <ele>188.64</ele>
        <time>2018-09-21T16:20:05Z</time>
      </trkpt>
      <trkpt lat="45.02133" lon="5.05674">
        <ele>188.59</ele>
        <time>2018-09-21T16:20:06Z</time>
      </trkpt>
      <trkpt lat="45.02131" lon="5.05627">
        <ele>188.57</ele>
        <time>2018-09-21T16:20:07Z</time>
      </trkpt>
      <trkpt lat="45.02129" lon="5.05581">
        <ele>187.87</ele>
        <time>2018-09-21T16:20:08Z</time>
      </trkpt>
      <trkpt lat="45.02126" lon="5.05534">
        <ele>187.66</ele>
        <time>2018-09-21T16:20:09Z</time>
      </trkpt>
      <trkpt lat="45.02123" lon="5.05487">
        <ele>187.6</ele>
        <time>2018-09-21T16:20:10Z</time>
      </trkpt>
      <trkpt lat="45.0212" lon="5.05441">
        <ele>187.58</ele>
        <time>2018-09-21T16:20:11Z</time>
      </trkpt>
      <trkpt lat="45.02117" lon="5.05395">
        <ele>187.57</ele>
        <time>2018-09-21T16:20:12Z</time>
      </trkpt>
      <trkpt lat="45.02115" lon="5.05349">
        <ele>187.57</ele>
        <time>2018-09-21T16:20:13Z</time>
      </trkpt>
      <trkpt lat="45.02112" lon="5.05303">
        <ele>187.57</ele>
        <time>2018-09-21T16:20:14Z</time>
      </trkpt>
      <trkpt lat="45.02108" lon="5.05257">
        <ele>187.57</ele>
        <time>2018-09-21T16:20:15Z</time>
      </trkpt>
      <trkpt lat="45.02105" lon="5.0521">
        <ele>187.57</ele>
        <time>2018-09-21T16:20:16Z</time>
      </trkpt>
      <trkpt lat="45.02102" lon="5.05165">
        <ele>186.87</ele>
        <time>2018-09-21T16:20:17Z</time>
      </trkpt>
      <trkpt lat="45.021" lon="5.05119">
        <ele>185.96</ele>
        <time>2018-09-21T16:20:18Z</time>
      </trkpt>
      <trkpt lat="45.02097" lon="5.05073">
        <ele>184.99</ele>
        <time>2018-09-21T16:20:19Z</time>
      </trkpt>
      <trkpt lat="45.02094" lon="5.05027">
        <ele>184.69</ele>
        <time>2018-09-21T16:20:20Z</time>
      </trkpt>
      <trkpt lat="45.02091" lon="5.04982">
        <ele>184.61</ele>
        <time>2018-09-21T16:20:21Z</time>
      </trkpt>
      <trkpt lat="45.02088" lon="5.04936">
        <ele>183.88</ele>
        <time>2018-09-21T16:20:22Z</time>
      </trkpt>
      <trkpt lat="45.02086" lon="5.0489">
        <ele>183.66</ele>
        <time>2018-09-21T16:20:23Z</time>
      </trkpt>
      <trkpt lat="45.02082" lon="5.04845">
        <ele>182.9</ele>
        <time>2018-09-21T16:20:24Z</time>
      </trkpt>
      <trkpt lat="45.0208" lon="5.04799">
        <ele>182.67</ele>
        <time>2018-09-21T16:20:25Z</time>
      </trkpt>
      <trkpt lat="45.02077" lon="5.04754">
        <ele>181.9</ele>
        <time>2018-09-21T16:20:26Z</time>
      </trkpt>
      <trkpt lat="45.02075" lon="5.04709">
        <ele>181.67</ele>
        <time>2018-09-21T16:20:27Z</time>
      </trkpt>
      <trkpt lat="45.02073" lon="5.04663">
        <ele>180.9</ele>
        <time>2018-09-21T16:20:28Z</time>
      </trkpt>
      <trkpt lat="45.0207" lon="5.04618">
        <ele>180.67</ele>
        <time>2018-09-21T16:20:29Z</time>
      </trkpt>
      <trkpt lat="45.02066" lon="5.04573">
        <ele>180.6</ele>
        <time>2018-09-21T16:20:30Z</time>
      </trkpt>
      <trkpt lat="45.02064" lon="5.04529">
        <ele>179.88</ele>
        <time>2018-09-21T16:20:31Z</time>
      </trkpt>
      <trkpt lat="45.02062" lon="5.04484">
        <ele>179.66</ele>
        <time>2018-09-21T16:20:32Z</time>
      </trkpt>
      <trkpt lat="45.0206" lon="5.04439">
        <ele>179.6</ele>
        <time>2018-09-21T16:20:33Z</time>
      </trkpt>
      <trkpt lat="45.02058" lon="5.04395">
        <ele>179.58</ele>
        <time>2018-09-21T16:20:34Z</time>
      </trkpt>
      <trkpt lat="45.02055" lon="5.0435">
        <ele>178.87</ele>
        <time>2018-09-21T16:20:35Z</time>
      </trkpt>
      <trkpt lat="45.02053" lon="5.04306">
        <ele>178.66</ele>
        <time>2018-09-21T16:20:36Z</time>
      </trkpt>
      <trkpt lat="45.0205" lon="5.04262">
        <ele>178.6</ele>
        <time>2018-09-21T16:20:37Z</time>
      </trkpt>
      <trkpt lat="45.02047" lon="5.04218">
        <ele>178.58</ele>
        <time>2018-09-21T16:20:38Z</time>
      </trkpt>
      <trkpt lat="45.02043" lon="5.04175">
        <ele>178.57</ele>
        <time>2018-09-21T16:20:39Z</time>
      </trkpt>
      <trkpt lat="45.02039" lon="5.04131">
        <ele>178.57</ele>
        <time>2018-09-21T16:20:40Z</time>
      </trkpt>
      <trkpt lat="45.02036" lon="5.04087">
        <ele>179.27</ele>
        <time>2018-09-21T16:20:41Z</time>
      </trkpt>
      <trkpt lat="45.02033" lon="5.04043">
        <ele>178.78</ele>
        <time>2018-09-21T16:20:42Z</time>
      </trkpt>
      <trkpt lat="45.0203" lon="5.03998">
        <ele>179.33</ele>
        <time>2018-09-21T16:20:43Z</time>
      </trkpt>
      <trkpt lat="45.02026" lon="5.03954">
        <ele>178.8</ele>
        <time>2018-09-21T16:20:44Z</time>
      </trkpt>
      <trkpt lat="45.02023" lon="5.03911">
        <ele>178.64</ele>
        <time>2018-09-21T16:20:45Z</time>
      </trkpt>
      <trkpt lat="45.02019" lon="5.03867">
        <ele>178.59</ele>
        <time>2018-09-21T16:20:46Z</time>
      </trkpt>
      <trkpt lat="45.02016" lon="5.03822">
        <ele>177.87</ele>
        <time>2018-09-21T16:20:47Z</time>
      </trkpt>
      <trkpt lat="45.02012" lon="5.03777">
        <ele>177.66</ele>
        <time>2018-09-21T16:20:48Z</time>
      </trkpt>
      <trkpt lat="45.02008" lon="5.03731">
        <ele>177.6</ele>
        <time>2018-09-21T16:20:49Z</time>
      </trkpt>
      <trkpt lat="45.02005" lon="5.03685">
        <ele>176.88</ele>
        <time>2018-09-21T16:20:50Z</time>
      </trkpt>
      <trkpt lat="45.02" lon="5.03638">
        <ele>176.66</ele>
        <time>2018-09-21T16:20:51Z</time>
      </trkpt>
      <trkpt lat="45.01996" lon="5.03592">
        <ele>177.3</ele>
        <time>2018-09-21T16:20:52Z</time>
      </trkpt>
      <trkpt lat="45.0199" lon="5.03546">
        <ele>177.49</ele>
        <time>2018-09-21T16:20:53Z</time>
      </trkpt>
      <trkpt lat="45.01982" lon="5.03501">
        <ele>177.54</ele>
        <time>2018-09-21T16:20:54Z</time>
      </trkpt>
      <trkpt lat="45.01973" lon="5.03456">
        <ele>177.56</ele>
        <time>2018-09-21T16:20:55Z</time>
      </trkpt>
      <trkpt lat="45.01961" lon="5.03414">
        <ele>177.57</ele>
        <time>2018-09-21T16:20:56Z</time>
      </trkpt>
      <trkpt lat="45.0195" lon="5.0337">
        <ele>176.87</ele>
        <time>2018-09-21T16:20:57Z</time>
      </trkpt>
      <trkpt lat="45.01935" lon="5.03331">
        <ele>177.36</ele>
        <time>2018-09-21T16:20:58Z</time>
      </trkpt>
      <trkpt lat="45.0192" lon="5.03291">
        <ele>177.5</ele>
        <time>2018-09-21T16:20:59Z</time>
      </trkpt>
      <trkpt lat="45.01905" lon="5.03253">
        <ele>177.55</ele>
        <time>2018-09-21T16:21:00Z</time>
      </trkpt>
      <trkpt lat="45.01887" lon="5.03217">
        <ele>178.26</ele>
        <time>2018-09-21T16:21:01Z</time>
      </trkpt>
      <trkpt lat="45.01871" lon="5.03179">
        <ele>178.48</ele>
        <time>2018-09-21T16:21:02Z</time>
      </trkpt>
      <trkpt lat="45.01852" lon="5.03146">
        <ele>179.24</ele>
        <time>2018-09-21T16:21:03Z</time>
      </trkpt>
      <trkpt lat="45.01835" lon="5.03115">
        <ele>180.17</ele>
        <time>2018-09-21T16:21:04Z</time>
      </trkpt>
      <trkpt lat="45.01817" lon="5.03087">
        <ele>181.15</ele>
        <time>2018-09-21T16:21:05Z</time>
      </trkpt>
      <trkpt lat="45.01801" lon="5.03061">
        <ele>181.44</ele>
        <time>2018-09-21T16:21:06Z</time>
      </trkpt>
      <trkpt lat="45.01785" lon="5.03036">
        <ele>181.53</ele>
        <time>2018-09-21T16:21:07Z</time>
      </trkpt>
      <trkpt lat="45.01769" lon="5.03011">
        <ele>182.26</ele>
        <time>2018-09-21T16:21:08Z</time>
      </trkpt>
      <trkpt lat="45.01754" lon="5.02986">
        <ele>182.47</ele>
        <time>2018-09-21T16:21:09Z</time>
      </trkpt>
      <trkpt lat="45.01737" lon="5.02959">
        <ele>183.24</ele>
        <time>2018-09-21T16:21:10Z</time>
      </trkpt>
      <trkpt lat="45.01719" lon="5.02932">
        <ele>183.47</ele>
        <time>2018-09-21T16:21:11Z</time>
      </trkpt>
      <trkpt lat="45.01701" lon="5.02902">
        <ele>183.54</ele>
        <time>2018-09-21T16:21:12Z</time>
      </trkpt>
      <trkpt lat="45.01683" lon="5.02873">
        <ele>183.56</ele>
        <time>2018-09-21T16:21:13Z</time>
      </trkpt>
      <trkpt lat="45.01665" lon="5.02842">
        <ele>184.27</ele>
        <time>2018-09-21T16:21:14Z</time>
      </trkpt>
      <trkpt lat="45.01646" lon="5.02813">
        <ele>183.78</ele>
        <time>2018-09-21T16:21:15Z</time>
      </trkpt>
      <trkpt lat="45.01627" lon="5.02782">
        <ele>183.63</ele>
        <time>2018-09-21T16:21:16Z</time>
      </trkpt>
      <trkpt lat="45.01608" lon="5.02753">
        <ele>183.59</ele>
        <time>2018-09-21T16:21:17Z</time>
      </trkpt>
      <trkpt lat="45.0159" lon="5.02722">
        <ele>183.57</ele>
        <time>2018-09-21T16:21:18Z</time>
      </trkpt>
      <trkpt lat="45.01571" lon="5.02692">
        <ele>183.57</ele>
        <time>2018-09-21T16:21:19Z</time>
      </trkpt>
      <trkpt lat="45.01552" lon="5.02662">
        <ele>183.57</ele>
        <time>2018-09-21T16:21:20Z</time>
      </trkpt>
      <trkpt lat="45.01533" lon="5.02632">
        <ele>183.57</ele>
        <time>2018-09-21T16:21:21Z</time>
      </trkpt>
      <trkpt lat="45.01514" lon="5.02601">
        <ele>183.57</ele>
        <time>2018-09-21T16:21:22Z</time>
      </trkpt>
      <trkpt lat="45.01495" lon="5.0257">
        <ele>183.57</ele>
        <time>2018-09-21T16:21:23Z</time>
      </trkpt>
      <trkpt lat="45.01476" lon="5.02539">
        <ele>183.57</ele>
        <time>2018-09-21T16:21:24Z</time>
      </trkpt>
      <trkpt lat="45.01458" lon="5.02508">
        <ele>183.57</ele>
        <time>2018-09-21T16:21:25Z</time>
      </trkpt>
      <trkpt lat="45.01439" lon="5.02477">
        <ele>183.57</ele>
        <time>2018-09-21T16:21:26Z</time>
      </trkpt>
      <trkpt lat="45.01421" lon="5.02447">
        <ele>182.87</ele>
        <time>2018-09-21T16:21:27Z</time>
      </trkpt>
      <trkpt lat="45.01403" lon="5.02418">
        <ele>182.66</ele>
        <time>2018-09-21T16:21:28Z</time>
      </trkpt>
      <trkpt lat="45.01386" lon="5.0239">
        <ele>182.6</ele>
        <time>2018-09-21T16:21:29Z</time>
      </trkpt>
      <trkpt lat="45.01367" lon="5.02362">
        <ele>182.58</ele>
        <time>2018-09-21T16:21:30Z</time>
      </trkpt>
      <trkpt lat="45.0135" lon="5.02333">
        <ele>182.57</ele>
        <time>2018-09-21T16:21:31Z</time>
      </trkpt>
      <trkpt lat="45.01332" lon="5.02305">
        <ele>182.57</ele>
        <time>2018-09-21T16:21:32Z</time>
      </trkpt>
      <trkpt lat="45.01315" lon="5.02278">
        <ele>182.57</ele>
        <time>2018-09-21T16:21:33Z</time>
      </trkpt>
      <trkpt lat="45.01298" lon="5.0225">
        <ele>182.57</ele>
        <time>2018-09-21T16:21:34Z</time>
      </trkpt>
      <trkpt lat="45.01281" lon="5.02222">
        <ele>181.87</ele>
        <time>2018-09-21T16:21:35Z</time>
      </trkpt>
      <trkpt lat="45.01264" lon="5.02195">
        <ele>181.66</ele>
        <time>2018-09-21T16:21:36Z</time>
      </trkpt>
      <trkpt lat="45.01247" lon="5.02166">
        <ele>180.9</ele>
        <time>2018-09-21T16:21:37Z</time>
      </trkpt>
      <trkpt lat="45.0123" lon="5.02139">
        <ele>180.67</ele>
        <time>2018-09-21T16:21:38Z</time>
      </trkpt>
      <trkpt lat="45.01213" lon="5.02111">
        <ele>180.6</ele>
        <time>2018-09-21T16:21:39Z</time>
      </trkpt>
      <trkpt lat="45.01195" lon="5.02084">
        <ele>180.58</ele>
        <time>2018-09-21T16:21:40Z</time>
      </trkpt>
      <trkpt lat="45.01178" lon="5.02056">
        <ele>179.87</ele>
        <time>2018-09-21T16:21:41Z</time>
      </trkpt>
      <trkpt lat="45.0116" lon="5.02028">
        <ele>179.66</ele>
        <time>2018-09-21T16:21:42Z</time>
      </trkpt>
      <trkpt lat="45.01143" lon="5.02">
        <ele>179.6</ele>
        <time>2018-09-21T16:21:43Z</time>
      </trkpt>
      <trkpt lat="45.01126" lon="5.01972">
        <ele>179.58</ele>
        <time>2018-09-21T16:21:44Z</time>
      </trkpt>
      <trkpt lat="45.01108" lon="5.01944">
        <ele>179.57</ele>
        <time>2018-09-21T16:21:45Z</time>
      </trkpt>
      <trkpt lat="45.01091" lon="5.01916">
        <ele>179.57</ele>
        <time>2018-09-21T16:21:46Z</time>
      </trkpt>
      <trkpt lat="45.01073" lon="5.01888">
        <ele>179.57</ele>
        <time>2018-09-21T16:21:47Z</time>
      </trkpt>
      <trkpt lat="45.01055" lon="5.0186">
        <ele>179.57</ele>
        <time>2018-09-21T16:21:48Z</time>
      </trkpt>
      <trkpt lat="45.01038" lon="5.01833">
        <ele>179.57</ele>
        <time>2018-09-21T16:21:49Z</time>
      </trkpt>
      <trkpt lat="45.0102" lon="5.01806">
        <ele>179.57</ele>
        <time>2018-09-21T16:21:50Z</time>
      </trkpt>
      <trkpt lat="45.01003" lon="5.01779">
        <ele>179.57</ele>
        <time>2018-09-21T16:21:51Z</time>
      </trkpt>
      <trkpt lat="45.00985" lon="5.01751">
        <ele>179.57</ele>
        <time>2018-09-21T16:21:52Z</time>
      </trkpt>
      <trkpt lat="45.00966" lon="5.01721">
        <ele>179.57</ele>
        <time>2018-09-21T16:21:53Z</time>
      </trkpt>
      <trkpt lat="45.00947" lon="5.01691">
        <ele>178.87</ele>
        <time>2018-09-21T16:21:54Z</time>
      </trkpt>
      <trkpt lat="45.00928" lon="5.01661">
        <ele>178.66</ele>
        <time>2018-09-21T16:21:55Z</time>
      </trkpt>
      <trkpt lat="45.00909" lon="5.0163">
        <ele>178.6</ele>
        <time>2018-09-21T16:21:56Z</time>
      </trkpt>
      <trkpt lat="45.0089" lon="5.01599">
        <ele>177.88</ele>
        <time>2018-09-21T16:21:57Z</time>
      </trkpt>
      <trkpt lat="45.00871" lon="5.01569">
        <ele>177.66</ele>
        <time>2018-09-21T16:21:58Z</time>
      </trkpt>
      <trkpt lat="45.00852" lon="5.01539">
        <ele>177.6</ele>
        <time>2018-09-21T16:21:59Z</time>
      </trkpt>
      <trkpt lat="45.00834" lon="5.01508">
        <ele>177.58</ele>
        <time>2018-09-21T16:22:00Z</time>
      </trkpt>
      <trkpt lat="45.00815" lon="5.01477">
        <ele>177.57</ele>
        <time>2018-09-21T16:22:01Z</time>
      </trkpt>
      <trkpt lat="45.00797" lon="5.01447">
        <ele>177.57</ele>
        <time>2018-09-21T16:22:02Z</time>
      </trkpt>
      <trkpt lat="45.00778" lon="5.01417">
        <ele>177.57</ele>
        <time>2018-09-21T16:22:03Z</time>
      </trkpt>
      <trkpt lat="45.0076" lon="5.01387">
        <ele>177.57</ele>
        <time>2018-09-21T16:22:04Z</time>
      </trkpt>
      <trkpt lat="45.00741" lon="5.01358">
        <ele>177.57</ele>
        <time>2018-09-21T16:22:05Z</time>
      </trkpt>
      <trkpt lat="45.00722" lon="5.01328">
        <ele>177.57</ele>
        <time>2018-09-21T16:22:06Z</time>
      </trkpt>
      <trkpt lat="45.00703" lon="5.01298">
        <ele>177.57</ele>
        <time>2018-09-21T16:22:07Z</time>
      </trkpt>
      <trkpt lat="45.00684" lon="5.01268">
        <ele>178.27</ele>
        <time>2018-09-21T16:22:08Z</time>
      </trkpt>
      <trkpt lat="45.00665" lon="5.01239">
        <ele>178.48</ele>
        <time>2018-09-21T16:22:09Z</time>
      </trkpt>
      <trkpt lat="45.00647" lon="5.01209">
        <ele>178.54</ele>
        <time>2018-09-21T16:22:10Z</time>
      </trkpt>
      <trkpt lat="45.00628" lon="5.01178">
        <ele>177.86</ele>
        <time>2018-09-21T16:22:11Z</time>
      </trkpt>
      <trkpt lat="45.00609" lon="5.01148">
        <ele>177.66</ele>
        <time>2018-09-21T16:22:12Z</time>
      </trkpt>
      <trkpt lat="45.0059" lon="5.01117">
        <ele>177.59</ele>
        <time>2018-09-21T16:22:13Z</time>
      </trkpt>
      <trkpt lat="45.00571" lon="5.01087">
        <ele>177.58</ele>
        <time>2018-09-21T16:22:14Z</time>
      </trkpt>
      <trkpt lat="45.00552" lon="5.01057">
        <ele>177.57</ele>
        <time>2018-09-21T16:22:15Z</time>
      </trkpt>
      <trkpt lat="45.00533" lon="5.01027">
        <ele>177.57</ele>
        <time>2018-09-21T16:22:16Z</time>
      </trkpt>
      <trkpt lat="45.00515" lon="5.00997">
        <ele>177.57</ele>
        <time>2018-09-21T16:22:17Z</time>
      </trkpt>
      <trkpt lat="45.00497" lon="5.00969">
        <ele>176.87</ele>
        <time>2018-09-21T16:22:18Z</time>
      </trkpt>
      <trkpt lat="45.00479" lon="5.00941">
        <ele>176.66</ele>
        <time>2018-09-21T16:22:19Z</time>
      </trkpt>
      <trkpt lat="45.00462" lon="5.00912">
        <ele>176.6</ele>
        <time>2018-09-21T16:22:20Z</time>
      </trkpt>
      <trkpt lat="45.00445" lon="5.00884">
        <ele>176.58</ele>
        <time>2018-09-21T16:22:21Z</time>
      </trkpt>
      <trkpt lat="45.00427" lon="5.00856">
        <ele>176.57</ele>
        <time>2018-09-21T16:22:22Z</time>
      </trkpt>
      <trkpt lat="45.0041" lon="5.00828">
        <ele>175.87</ele>
        <time>2018-09-21T16:22:23Z</time>
      </trkpt>
      <trkpt lat="45.00392" lon="5.008">
        <ele>175.66</ele>
        <time>2018-09-21T16:22:24Z</time>
      </trkpt>
      <trkpt lat="45.00374" lon="5.00773">
        <ele>175.6</ele>
        <time>2018-09-21T16:22:25Z</time>
      </trkpt>
      <trkpt lat="45.00355" lon="5.00745">
        <ele>175.58</ele>
        <time>2018-09-21T16:22:26Z</time>
      </trkpt>
      <trkpt lat="45.00336" lon="5.00716">
        <ele>175.57</ele>
        <time>2018-09-21T16:22:27Z</time>
      </trkpt>
      <trkpt lat="45.00317" lon="5.00686">
        <ele>174.87</ele>
        <time>2018-09-21T16:22:28Z</time>
      </trkpt>
      <trkpt lat="45.00298" lon="5.00657">
        <ele>174.66</ele>
        <time>2018-09-21T16:22:29Z</time>
      </trkpt>
      <trkpt lat="45.0028" lon="5.00627">
        <ele>174.6</ele>
        <time>2018-09-21T16:22:30Z</time>
      </trkpt>
      <trkpt lat="45.00261" lon="5.00597">
        <ele>174.58</ele>
        <time>2018-09-21T16:22:31Z</time>
      </trkpt>
      <trkpt lat="45.00242" lon="5.00567">
        <ele>174.57</ele>
        <time>2018-09-21T16:22:32Z</time>
      </trkpt>
      <trkpt lat="45.00224" lon="5.00537">
        <ele>174.57</ele>
        <time>2018-09-21T16:22:33Z</time>
      </trkpt>
      <trkpt lat="45.00206" lon="5.00508">
        <ele>174.57</ele>
        <time>2018-09-21T16:22:34Z</time>
      </trkpt>
      <trkpt lat="45.00187" lon="5.00478">
        <ele>173.87</ele>
        <time>2018-09-21T16:22:35Z</time>
      </trkpt>
      <trkpt lat="45.00169" lon="5.00449">
        <ele>173.66</ele>
        <time>2018-09-21T16:22:36Z</time>
      </trkpt>
      <trkpt lat="45.00151" lon="5.0042">
        <ele>173.6</ele>
        <time>2018-09-21T16:22:37Z</time>
      </trkpt>
      <trkpt lat="45.00132" lon="5.00391">
        <ele>173.58</ele>
        <time>2018-09-21T16:22:38Z</time>
      </trkpt>
      <trkpt lat="45.00114" lon="5.00362">
        <ele>173.57</ele>
        <time>2018-09-21T16:22:39Z</time>
      </trkpt>
      <trkpt lat="45.00096" lon="5.00334">
        <ele>173.57</ele>
        <time>2018-09-21T16:22:40Z</time>
      </trkpt>
      <trkpt lat="45.00078" lon="5.00305">
        <ele>173.57</ele>
        <time>2018-09-21T16:22:41Z</time>
      </trkpt>
      <trkpt lat="45.0006" lon="5.00275">
        <ele>173.57</ele>
        <time>2018-09-21T16:22:42Z</time>
      </trkpt>
      <trkpt lat="45.00041" lon="5.00246">
        <ele>173.57</ele>
        <time>2018-09-21T16:22:43Z</time>
      </trkpt>
      <trkpt lat="45.00023" lon="5.00216">
        <ele>173.57</ele>
        <time>2018-09-21T16:22:44Z</time>
      </trkpt>
      <trkpt lat="45.00004" lon="5.00186">
        <ele>173.57</ele>
        <time>2018-09-21T16:22:45Z</time>
      </trkpt>
      <trkpt lat="44.99984" lon="5.00154">
        <ele>173.57</ele>
        <time>2018-09-21T16:22:46Z</time>
      </trkpt>
      <trkpt lat="44.99964" lon="5.00124">
        <ele>173.57</ele>
        <time>2018-09-21T16:22:47Z</time>
      </trkpt>
      <trkpt lat="44.99944" lon="5.00092">
        <ele>173.57</ele>
        <time>2018-09-21T16:22:48Z</time>
      </trkpt>
      <trkpt lat="44.99924" lon="5.00061">
        <ele>173.57</ele>
        <time>2018-09-21T16:22:49Z</time>
      </trkpt>
      <trkpt lat="44.99904" lon="5.00029">
        <ele>173.57</ele>
        <time>2018-09-21T16:22:50Z</time>
      </trkpt>
      <trkpt lat="44.99885" lon="4.99998">
        <ele>173.57</ele>
        <time>2018-09-21T16:22:51Z</time>
      </trkpt>
      <trkpt lat="44.99866" lon="4.99968">
        <ele>173.57</ele>
        <time>2018-09-21T16:22:52Z</time>
      </trkpt>
      <trkpt lat="44.99847" lon="4.99937">
        <ele>173.57</ele>
        <time>2018-09-21T16:22:53Z</time>
      </trkpt>
      <trkpt lat="44.99827" lon="4.99907">
        <ele>172.87</ele>
        <time>2018-09-21T16:22:54Z</time>
      </trkpt>
      <trkpt lat="44.99808" lon="4.99877">
        <ele>172.66</ele>
        <time>2018-09-21T16:22:55Z</time>
      </trkpt>
      <trkpt lat="44.99789" lon="4.99847">
        <ele>173.29</ele>
        <time>2018-09-21T16:22:56Z</time>
      </trkpt>
      <trkpt lat="44.9977" lon="4.99817">
        <ele>173.49</ele>
        <time>2018-09-21T16:22:57Z</time>
      </trkpt>
      <trkpt lat="44.99752" lon="4.99787">
        <ele>173.54</ele>
        <time>2018-09-21T16:22:58Z</time>
      </trkpt>
      <trkpt lat="44.99733" lon="4.99757">
        <ele>173.56</ele>
        <time>2018-09-21T16:22:59Z</time>
      </trkpt>
      <trkpt lat="44.99714" lon="4.99728">
        <ele>173.57</ele>
        <time>2018-09-21T16:23:00Z</time>
      </trkpt>
      <trkpt lat="44.99696" lon="4.997">
        <ele>173.57</ele>
        <time>2018-09-21T16:23:01Z</time>
      </trkpt>
      <trkpt lat="44.99679" lon="4.99671">
        <ele>173.57</ele>
        <time>2018-09-21T16:23:02Z</time>
      </trkpt>
      <trkpt lat="44.99661" lon="4.99644">
        <ele>173.57</ele>
        <time>2018-09-21T16:23:03Z</time>
      </trkpt>
      <trkpt lat="44.99644" lon="4.99615">
        <ele>173.57</ele>
        <time>2018-09-21T16:23:04Z</time>
      </trkpt>
      <trkpt lat="44.99626" lon="4.99587">
        <ele>173.57</ele>
        <time>2018-09-21T16:23:05Z</time>
      </trkpt>
      <trkpt lat="44.99609" lon="4.99558">
        <ele>173.57</ele>
        <time>2018-09-21T16:23:06Z</time>
      </trkpt>
      <trkpt lat="44.99591" lon="4.99529">
        <ele>173.57</ele>
        <time>2018-09-21T16:23:07Z</time>
      </trkpt>
      <trkpt lat="44.99573" lon="4.995">
        <ele>173.57</ele>
        <time>2018-09-21T16:23:08Z</time>
      </trkpt>
      <trkpt lat="44.99555" lon="4.9947">
        <ele>173.57</ele>
        <time>2018-09-21T16:23:09Z</time>
      </trkpt>
      <trkpt lat="44.99537" lon="4.9944">
        <ele>174.27</ele>
        <time>2018-09-21T16:23:10Z</time>
      </trkpt>
      <trkpt lat="44.99518" lon="4.9941">
        <ele>174.48</ele>
        <time>2018-09-21T16:23:11Z</time>
      </trkpt>
      <trkpt lat="44.99499" lon="4.99381">
        <ele>174.54</ele>
        <time>2018-09-21T16:23:12Z</time>
      </trkpt>
      <trkpt lat="44.9948" lon="4.9935">
        <ele>173.86</ele>
        <time>2018-09-21T16:23:13Z</time>
      </trkpt>
      <trkpt lat="44.99462" lon="4.99321">
        <ele>173.66</ele>
        <time>2018-09-21T16:23:14Z</time>
      </trkpt>
      <trkpt lat="44.99445" lon="4.99291">
        <ele>172.89</ele>
        <time>2018-09-21T16:23:15Z</time>
      </trkpt>
      <trkpt lat="44.99427" lon="4.99263">
        <ele>172.67</ele>
        <time>2018-09-21T16:23:16Z</time>
      </trkpt>
      <trkpt lat="44.9941" lon="4.99234">
        <ele>172.6</ele>
        <time>2018-09-21T16:23:17Z</time>
      </trkpt>
      <trkpt lat="44.99392" lon="4.99206">
        <ele>172.58</ele>
        <time>2018-09-21T16:23:18Z</time>
      </trkpt>
      <trkpt lat="44.99375" lon="4.99178">
        <ele>172.57</ele>
        <time>2018-09-21T16:23:19Z</time>
      </trkpt>
      <trkpt lat="44.99358" lon="4.9915">
        <ele>172.57</ele>
        <time>2018-09-21T16:23:20Z</time>
      </trkpt>
      <trkpt lat="44.99341" lon="4.99122">
        <ele>171.87</ele>
        <time>2018-09-21T16:23:21Z</time>
      </trkpt>
      <trkpt lat="44.99324" lon="4.99094">
        <ele>171.66</ele>
        <time>2018-09-21T16:23:22Z</time>
      </trkpt>
      <trkpt lat="44.99308" lon="4.99065">
        <ele>171.6</ele>
        <time>2018-09-21T16:23:23Z</time>
      </trkpt>
      <trkpt lat="44.99292" lon="4.99036">
        <ele>171.58</ele>
        <time>2018-09-21T16:23:24Z</time>
      </trkpt>
      <trkpt lat="44.99276" lon="4.99007">
        <ele>171.57</ele>
        <time>2018-09-21T16:23:25Z</time>
      </trkpt>
      <trkpt lat="44.99259" lon="4.98978">
        <ele>171.57</ele>
        <time>2018-09-21T16:23:26Z</time>
      </trkpt>
      <trkpt lat="44.99243" lon="4.98949">
        <ele>171.57</ele>
        <time>2018-09-21T16:23:27Z</time>
      </trkpt>
      <trkpt lat="44.99226" lon="4.98919">
        <ele>171.57</ele>
        <time>2018-09-21T16:23:28Z</time>
      </trkpt>
      <trkpt lat="44.99209" lon="4.98889">
        <ele>171.57</ele>
        <time>2018-09-21T16:23:29Z</time>
      </trkpt>
      <trkpt lat="44.99191" lon="4.98857">
        <ele>171.57</ele>
        <time>2018-09-21T16:23:30Z</time>
      </trkpt>
      <trkpt lat="44.99171" lon="4.98826">
        <ele>171.57</ele>
        <time>2018-09-21T16:23:31Z</time>
      </trkpt>
      <trkpt lat="44.99152" lon="4.98794">
        <ele>171.57</ele>
        <time>2018-09-21T16:23:32Z</time>
      </trkpt>
      <trkpt lat="44.99132" lon="4.98763">
        <ele>170.87</ele>
        <time>2018-09-21T16:23:33Z</time>
      </trkpt>
      <trkpt lat="44.99112" lon="4.98732">
        <ele>170.66</ele>
        <time>2018-09-21T16:23:34Z</time>
      </trkpt>
      <trkpt lat="44.99092" lon="4.987">
        <ele>170.6</ele>
        <time>2018-09-21T16:23:35Z</time>
      </trkpt>
      <trkpt lat="44.99073" lon="4.98669">
        <ele>170.58</ele>
        <time>2018-09-21T16:23:36Z</time>
      </trkpt>
      <trkpt lat="44.99053" lon="4.98638">
        <ele>170.57</ele>
        <time>2018-09-21T16:23:37Z</time>
      </trkpt>
      <trkpt lat="44.99032" lon="4.98607">
        <ele>170.57</ele>
        <time>2018-09-21T16:23:38Z</time>
      </trkpt>
      <trkpt lat="44.99011" lon="4.98576">
        <ele>170.57</ele>
        <time>2018-09-21T16:23:39Z</time>
      </trkpt>
      <trkpt lat="44.9899" lon="4.98546">
        <ele>170.57</ele>
        <time>2018-09-21T16:23:40Z</time>
      </trkpt>
      <trkpt lat="44.98969" lon="4.98515">
        <ele>170.57</ele>
        <time>2018-09-21T16:23:41Z</time>
      </trkpt>
      <trkpt lat="44.98948" lon="4.98484">
        <ele>170.57</ele>
        <time>2018-09-21T16:23:42Z</time>
      </trkpt>
      <trkpt lat="44.98926" lon="4.98454">
        <ele>170.57</ele>
        <time>2018-09-21T16:23:43Z</time>
      </trkpt>
      <trkpt lat="44.98905" lon="4.98424">
        <ele>170.57</ele>
        <time>2018-09-21T16:23:44Z</time>
      </trkpt>
      <trkpt lat="44.98884" lon="4.98393">
        <ele>170.57</ele>
        <time>2018-09-21T16:23:45Z</time>
      </trkpt>
      <trkpt lat="44.98864" lon="4.98362">
        <ele>171.27</ele>
        <time>2018-09-21T16:23:46Z</time>
      </trkpt>
      <trkpt lat="44.98843" lon="4.98331">
        <ele>170.78</ele>
        <time>2018-09-21T16:23:47Z</time>
      </trkpt>
      <trkpt lat="44.98823" lon="4.983">
        <ele>170.63</ele>
        <time>2018-09-21T16:23:48Z</time>
      </trkpt>
      <trkpt lat="44.98803" lon="4.98269">
        <ele>170.59</ele>
        <time>2018-09-21T16:23:49Z</time>
      </trkpt>
      <trkpt lat="44.98783" lon="4.98237">
        <ele>170.57</ele>
        <time>2018-09-21T16:23:50Z</time>
      </trkpt>
      <trkpt lat="44.98763" lon="4.98205">
        <ele>169.87</ele>
        <time>2018-09-21T16:23:51Z</time>
      </trkpt>
      <trkpt lat="44.98743" lon="4.98173">
        <ele>169.66</ele>
        <time>2018-09-21T16:23:52Z</time>
      </trkpt>
      <trkpt lat="44.98723" lon="4.98141">
        <ele>168.9</ele>
        <time>2018-09-21T16:23:53Z</time>
      </trkpt>
      <trkpt lat="44.98704" lon="4.9811">
        <ele>168.67</ele>
        <time>2018-09-21T16:23:54Z</time>
      </trkpt>
      <trkpt lat="44.98684" lon="4.9808">
        <ele>168.6</ele>
        <time>2018-09-21T16:23:55Z</time>
      </trkpt>
      <trkpt lat="44.98666" lon="4.98051">
        <ele>168.58</ele>
        <time>2018-09-21T16:23:56Z</time>
      </trkpt>
      <trkpt lat="44.98647" lon="4.98022">
        <ele>168.57</ele>
        <time>2018-09-21T16:23:57Z</time>
      </trkpt>
      <trkpt lat="44.98629" lon="4.97992">
        <ele>167.87</ele>
        <time>2018-09-21T16:23:58Z</time>
      </trkpt>
      <trkpt lat="44.98609" lon="4.97962">
        <ele>167.66</ele>
        <time>2018-09-21T16:23:59Z</time>
      </trkpt>
      <trkpt lat="44.9859" lon="4.97931">
        <ele>167.6</ele>
        <time>2018-09-21T16:24:00Z</time>
      </trkpt>
      <trkpt lat="44.9857" lon="4.979">
        <ele>167.58</ele>
        <time>2018-09-21T16:24:01Z</time>
      </trkpt>
      <trkpt lat="44.98551" lon="4.97869">
        <ele>167.57</ele>
        <time>2018-09-21T16:24:02Z</time>
      </trkpt>
      <trkpt lat="44.98532" lon="4.97839">
        <ele>167.57</ele>
        <time>2018-09-21T16:24:03Z</time>
      </trkpt>
      <trkpt lat="44.98513" lon="4.97809">
        <ele>167.57</ele>
        <time>2018-09-21T16:24:04Z</time>
      </trkpt>
      <trkpt lat="44.98494" lon="4.97778">
        <ele>167.57</ele>
        <time>2018-09-21T16:24:05Z</time>
      </trkpt>
      <trkpt lat="44.98475" lon="4.97747">
        <ele>166.87</ele>
        <time>2018-09-21T16:24:06Z</time>
      </trkpt>
      <trkpt lat="44.98456" lon="4.97717">
        <ele>166.66</ele>
        <time>2018-09-21T16:24:07Z</time>
      </trkpt>
      <trkpt lat="44.98437" lon="4.97688">
        <ele>166.6</ele>
        <time>2018-09-21T16:24:08Z</time>
      </trkpt>
      <trkpt lat="44.98419" lon="4.97658">
        <ele>166.58</ele>
        <time>2018-09-21T16:24:09Z</time>
      </trkpt>
      <trkpt lat="44.98401" lon="4.97629">
        <ele>166.57</ele>
        <time>2018-09-21T16:24:10Z</time>
      </trkpt>
      <trkpt lat="44.98382" lon="4.97599">
        <ele>166.57</ele>
        <time>2018-09-21T16:24:11Z</time>
      </trkpt>
      <trkpt lat="44.98363" lon="4.97569">
        <ele>166.57</ele>
        <time>2018-09-21T16:24:12Z</time>
      </trkpt>
      <trkpt lat="44.98345" lon="4.9754">
        <ele>165.87</ele>
        <time>2018-09-21T16:24:13Z</time>
      </trkpt>
      <trkpt lat="44.98326" lon="4.9751">
        <ele>165.66</ele>
        <time>2018-09-21T16:24:14Z</time>
      </trkpt>
      <trkpt lat="44.98308" lon="4.97481">
        <ele>165.6</ele>
        <time>2018-09-21T16:24:15Z</time>
      </trkpt>
      <trkpt lat="44.9829" lon="4.97451">
        <ele>165.58</ele>
        <time>2018-09-21T16:24:16Z</time>
      </trkpt>
      <trkpt lat="44.98271" lon="4.97422">
        <ele>165.57</ele>
        <time>2018-09-21T16:24:17Z</time>
      </trkpt>
      <trkpt lat="44.98253" lon="4.97393">
        <ele>165.57</ele>
        <time>2018-09-21T16:24:18Z</time>
      </trkpt>
      <trkpt lat="44.98234" lon="4.97364">
        <ele>165.57</ele>
        <time>2018-09-21T16:24:19Z</time>
      </trkpt>
      <trkpt lat="44.98215" lon="4.97335">
        <ele>165.57</ele>
        <time>2018-09-21T16:24:20Z</time>
      </trkpt>
      <trkpt lat="44.98196" lon="4.97306">
        <ele>165.57</ele>
        <time>2018-09-21T16:24:21Z</time>
      </trkpt>
      <trkpt lat="44.98177" lon="4.97277">
        <ele>165.57</ele>
        <time>2018-09-21T16:24:22Z</time>
      </trkpt>
      <trkpt lat="44.98159" lon="4.97248">
        <ele>165.57</ele>
        <time>2018-09-21T16:24:23Z</time>
      </trkpt>
      <trkpt lat="44.9814" lon="4.9722">
        <ele>165.57</ele>
        <time>2018-09-21T16:24:24Z</time>
      </trkpt>
      <trkpt lat="44.98122" lon="4.97192">
        <ele>165.57</ele>
        <time>2018-09-21T16:24:25Z</time>
      </trkpt>
      <trkpt lat="44.98104" lon="4.97163">
        <ele>165.57</ele>
        <time>2018-09-21T16:24:26Z</time>
      </trkpt>
      <trkpt lat="44.98086" lon="4.97135">
        <ele>165.57</ele>
        <time>2018-09-21T16:24:27Z</time>
      </trkpt>
      <trkpt lat="44.98069" lon="4.97107">
        <ele>165.57</ele>
        <time>2018-09-21T16:24:28Z</time>
      </trkpt>
      <trkpt lat="44.98051" lon="4.97079">
        <ele>165.57</ele>
        <time>2018-09-21T16:24:29Z</time>
      </trkpt>
      <trkpt lat="44.98033" lon="4.97052">
        <ele>165.57</ele>
        <time>2018-09-21T16:24:30Z</time>
      </trkpt>
      <trkpt lat="44.98014" lon="4.97024">
        <ele>165.57</ele>
        <time>2018-09-21T16:24:31Z</time>
      </trkpt>
      <trkpt lat="44.97996" lon="4.96998">
        <ele>164.87</ele>
        <time>2018-09-21T16:24:32Z</time>
      </trkpt>
      <trkpt lat="44.97979" lon="4.96971">
        <ele>164.66</ele>
        <time>2018-09-21T16:24:33Z</time>
      </trkpt>
      <trkpt lat="44.97962" lon="4.96944">
        <ele>164.6</ele>
        <time>2018-09-21T16:24:34Z</time>
      </trkpt>
      <trkpt lat="44.97945" lon="4.96918">
        <ele>164.58</ele>
        <time>2018-09-21T16:24:35Z</time>
      </trkpt>
      <trkpt lat="44.97928" lon="4.96892">
        <ele>164.57</ele>
        <time>2018-09-21T16:24:36Z</time>
      </trkpt>
      <trkpt lat="44.9791" lon="4.96865">
        <ele>163.87</ele>
        <time>2018-09-21T16:24:37Z</time>
      </trkpt>
      <trkpt lat="44.97892" lon="4.96839">
        <ele>163.66</ele>
        <time>2018-09-21T16:24:38Z</time>
      </trkpt>
      <trkpt lat="44.97874" lon="4.96812">
        <ele>163.6</ele>
        <time>2018-09-21T16:24:39Z</time>
      </trkpt>
      <trkpt lat="44.97856" lon="4.96786">
        <ele>162.88</ele>
        <time>2018-09-21T16:24:40Z</time>
      </trkpt>
      <trkpt lat="44.97839" lon="4.9676">
        <ele>161.96</ele>
        <time>2018-09-21T16:24:41Z</time>
      </trkpt>
      <trkpt lat="44.97821" lon="4.96734">
        <ele>161.69</ele>
        <time>2018-09-21T16:24:42Z</time>
      </trkpt>
      <trkpt lat="44.97803" lon="4.96709">
        <ele>161.6</ele>
        <time>2018-09-21T16:24:43Z</time>
      </trkpt>
      <trkpt lat="44.97784" lon="4.96684">
        <ele>161.58</ele>
        <time>2018-09-21T16:24:44Z</time>
      </trkpt>
      <trkpt lat="44.97765" lon="4.9666">
        <ele>161.57</ele>
        <time>2018-09-21T16:24:45Z</time>
      </trkpt>
      <trkpt lat="44.97744" lon="4.96638">
        <ele>161.57</ele>
        <time>2018-09-21T16:24:46Z</time>
      </trkpt>
      <trkpt lat="44.97722" lon="4.96618">
        <ele>161.57</ele>
        <time>2018-09-21T16:24:47Z</time>
      </trkpt>
      <trkpt lat="44.977" lon="4.96597">
        <ele>161.57</ele>
        <time>2018-09-21T16:24:48Z</time>
      </trkpt>
      <trkpt lat="44.97678" lon="4.96577">
        <ele>161.57</ele>
        <time>2018-09-21T16:24:49Z</time>
      </trkpt>
      <trkpt lat="44.97656" lon="4.96559">
        <ele>161.57</ele>
        <time>2018-09-21T16:24:50Z</time>
      </trkpt>
      <trkpt lat="44.97632" lon="4.96542">
        <ele>161.57</ele>
        <time>2018-09-21T16:24:51Z</time>
      </trkpt>
      <trkpt lat="44.97609" lon="4.96526">
        <ele>161.57</ele>
        <time>2018-09-21T16:24:52Z</time>
      </trkpt>
      <trkpt lat="44.97585" lon="4.9651">
        <ele>161.57</ele>
        <time>2018-09-21T16:24:53Z</time>
      </trkpt>
      <trkpt lat="44.9756" lon="4.96495">
        <ele>161.57</ele>
        <time>2018-09-21T16:24:54Z</time>
      </trkpt>
      <trkpt lat="44.97534" lon="4.96483">
        <ele>162.27</ele>
        <time>2018-09-21T16:24:55Z</time>
      </trkpt>
      <trkpt lat="44.97508" lon="4.96472">
        <ele>162.48</ele>
        <time>2018-09-21T16:24:56Z</time>
      </trkpt>
      <trkpt lat="44.97482" lon="4.96463">
        <ele>162.54</ele>
        <time>2018-09-21T16:24:57Z</time>
      </trkpt>
      <trkpt lat="44.97455" lon="4.96455">
        <ele>162.56</ele>
        <time>2018-09-21T16:24:58Z</time>
      </trkpt>
      <trkpt lat="44.97428" lon="4.96448">
        <ele>162.57</ele>
        <time>2018-09-21T16:24:59Z</time>
      </trkpt>
      <trkpt lat="44.97401" lon="4.96441">
        <ele>162.57</ele>
        <time>2018-09-21T16:25:00Z</time>
      </trkpt>
      <trkpt lat="44.97374" lon="4.96437">
        <ele>162.57</ele>
        <time>2018-09-21T16:25:01Z</time>
      </trkpt>
      <trkpt lat="44.97347" lon="4.96433">
        <ele>162.57</ele>
        <time>2018-09-21T16:25:02Z</time>
      </trkpt>
      <trkpt lat="44.9732" lon="4.96429">
        <ele>162.57</ele>
        <time>2018-09-21T16:25:03Z</time>
      </trkpt>
      <trkpt lat="44.97293" lon="4.96426">
        <ele>162.57</ele>
        <time>2018-09-21T16:25:04Z</time>
      </trkpt>
      <trkpt lat="44.97266" lon="4.96423">
        <ele>162.57</ele>
        <time>2018-09-21T16:25:05Z</time>
      </trkpt>
      <trkpt lat="44.97238" lon="4.96419">
        <ele>161.87</ele>
        <time>2018-09-21T16:25:06Z</time>
      </trkpt>
      <trkpt lat="44.97211" lon="4.96414">
        <ele>161.66</ele>
        <time>2018-09-21T16:25:07Z</time>
      </trkpt>
      <trkpt lat="44.97183" lon="4.96407">
        <ele>161.6</ele>
        <time>2018-09-21T16:25:08Z</time>
      </trkpt>
      <trkpt lat="44.97156" lon="4.96399">
        <ele>161.58</ele>
        <time>2018-09-21T16:25:09Z</time>
      </trkpt>
      <trkpt lat="44.9713" lon="4.9639">
        <ele>161.57</ele>
        <time>2018-09-21T16:25:10Z</time>
      </trkpt>
      <trkpt lat="44.97103" lon="4.96379">
        <ele>161.57</ele>
        <time>2018-09-21T16:25:11Z</time>
      </trkpt>
      <trkpt lat="44.97078" lon="4.96367">
        <ele>161.57</ele>
        <time>2018-09-21T16:25:12Z</time>
      </trkpt>
      <trkpt lat="44.97052" lon="4.96354">
        <ele>160.87</ele>
        <time>2018-09-21T16:25:13Z</time>
      </trkpt>
      <trkpt lat="44.97027" lon="4.96339">
        <ele>161.36</ele>
        <time>2018-09-21T16:25:14Z</time>
      </trkpt>
      <trkpt lat="44.97002" lon="4.96324">
        <ele>160.81</ele>
        <time>2018-09-21T16:25:15Z</time>
      </trkpt>
      <trkpt lat="44.96977" lon="4.96309">
        <ele>160.64</ele>
        <time>2018-09-21T16:25:16Z</time>
      </trkpt>
      <trkpt lat="44.96953" lon="4.96292">
        <ele>160.59</ele>
        <time>2018-09-21T16:25:17Z</time>
      </trkpt>
      <trkpt lat="44.96929" lon="4.96277">
        <ele>160.57</ele>
        <time>2018-09-21T16:25:18Z</time>
      </trkpt>
      <trkpt lat="44.96904" lon="4.96261">
        <ele>160.57</ele>
        <time>2018-09-21T16:25:19Z</time>
      </trkpt>
      <trkpt lat="44.9688" lon="4.96246">
        <ele>160.57</ele>
        <time>2018-09-21T16:25:20Z</time>
      </trkpt>
      <trkpt lat="44.96855" lon="4.9623">
        <ele>159.87</ele>
        <time>2018-09-21T16:25:21Z</time>
      </trkpt>
      <trkpt lat="44.96831" lon="4.96215">
        <ele>160.36</ele>
        <time>2018-09-21T16:25:22Z</time>
      </trkpt>
      <trkpt lat="44.96807" lon="4.96199">
        <ele>160.51</ele>
        <time>2018-09-21T16:25:23Z</time>
      </trkpt>
      <trkpt lat="44.96782" lon="4.96183">
        <ele>160.55</ele>
        <time>2018-09-21T16:25:24Z</time>
      </trkpt>
      <trkpt lat="44.96758" lon="4.96167">
        <ele>160.56</ele>
        <time>2018-09-21T16:25:25Z</time>
      </trkpt>
      <trkpt lat="44.96733" lon="4.96152">
        <ele>160.57</ele>
        <time>2018-09-21T16:25:26Z</time>
      </trkpt>
      <trkpt lat="44.96709" lon="4.96135">
        <ele>160.57</ele>
        <time>2018-09-21T16:25:27Z</time>
      </trkpt>
      <trkpt lat="44.96684" lon="4.96118">
        <ele>160.57</ele>
        <time>2018-09-21T16:25:28Z</time>
      </trkpt>
      <trkpt lat="44.96659" lon="4.96101">
        <ele>161.27</ele>
        <time>2018-09-21T16:25:29Z</time>
      </trkpt>
      <trkpt lat="44.96634" lon="4.96083">
        <ele>161.48</ele>
        <time>2018-09-21T16:25:30Z</time>
      </trkpt>
      <trkpt lat="44.9661" lon="4.96063">
        <ele>161.54</ele>
        <time>2018-09-21T16:25:31Z</time>
      </trkpt>
      <trkpt lat="44.96586" lon="4.96041">
        <ele>160.86</ele>
        <time>2018-09-21T16:25:32Z</time>
      </trkpt>
      <trkpt lat="44.96563" lon="4.96017">
        <ele>160.66</ele>
        <time>2018-09-21T16:25:33Z</time>
      </trkpt>
      <trkpt lat="44.96541" lon="4.95992">
        <ele>160.59</ele>
        <time>2018-09-21T16:25:34Z</time>
      </trkpt>
      <trkpt lat="44.9652" lon="4.95966">
        <ele>160.58</ele>
        <time>2018-09-21T16:25:35Z</time>
      </trkpt>
      <trkpt lat="44.96499" lon="4.95939">
        <ele>160.57</ele>
        <time>2018-09-21T16:25:36Z</time>
      </trkpt>
      <trkpt lat="44.9648" lon="4.9591">
        <ele>160.57</ele>
        <time>2018-09-21T16:25:37Z</time>
      </trkpt>
      <trkpt lat="44.96461" lon="4.95881">
        <ele>160.57</ele>
        <time>2018-09-21T16:25:38Z</time>
      </trkpt>
      <trkpt lat="44.96443" lon="4.9585">
        <ele>160.57</ele>
        <time>2018-09-21T16:25:39Z</time>
      </trkpt>
      <trkpt lat="44.96425" lon="4.95819">
        <ele>160.57</ele>
        <time>2018-09-21T16:25:40Z</time>
      </trkpt>
      <trkpt lat="44.96409" lon="4.95786">
        <ele>160.57</ele>
        <time>2018-09-21T16:25:41Z</time>
      </trkpt>
      <trkpt lat="44.96394" lon="4.95752">
        <ele>160.57</ele>
        <time>2018-09-21T16:25:42Z</time>
      </trkpt>
      <trkpt lat="44.96381" lon="4.95716">
        <ele>159.87</ele>
        <time>2018-09-21T16:25:43Z</time>
      </trkpt>
      <trkpt lat="44.96368" lon="4.95681">
        <ele>159.66</ele>
        <time>2018-09-21T16:25:44Z</time>
      </trkpt>
      <trkpt lat="44.96358" lon="4.95643">
        <ele>159.6</ele>
        <time>2018-09-21T16:25:45Z</time>
      </trkpt>
      <trkpt lat="44.96348" lon="4.95605">
        <ele>159.58</ele>
        <time>2018-09-21T16:25:46Z</time>
      </trkpt>
      <trkpt lat="44.96339" lon="4.95568">
        <ele>158.87</ele>
        <time>2018-09-21T16:25:47Z</time>
      </trkpt>
      <trkpt lat="44.96331" lon="4.95529">
        <ele>158.66</ele>
        <time>2018-09-21T16:25:48Z</time>
      </trkpt>
      <trkpt lat="44.96323" lon="4.9549">
        <ele>158.6</ele>
        <time>2018-09-21T16:25:49Z</time>
      </trkpt>
      <trkpt lat="44.96315" lon="4.95451">
        <ele>158.58</ele>
        <time>2018-09-21T16:25:50Z</time>
      </trkpt>
      <trkpt lat="44.96306" lon="4.95413">
        <ele>157.87</ele>
        <time>2018-09-21T16:25:51Z</time>
      </trkpt>
      <trkpt lat="44.96296" lon="4.95374">
        <ele>158.36</ele>
        <time>2018-09-21T16:25:52Z</time>
      </trkpt>
      <trkpt lat="44.96288" lon="4.95336">
        <ele>158.51</ele>
        <time>2018-09-21T16:25:53Z</time>
      </trkpt>
      <trkpt lat="44.96281" lon="4.95299">
        <ele>157.85</ele>
        <time>2018-09-21T16:25:54Z</time>
      </trkpt>
      <trkpt lat="44.96273" lon="4.95262">
        <ele>157.65</ele>
        <time>2018-09-21T16:25:55Z</time>
      </trkpt>
      <trkpt lat="44.96266" lon="4.95224">
        <ele>157.59</ele>
        <time>2018-09-21T16:25:56Z</time>
      </trkpt>
      <trkpt lat="44.96259" lon="4.95187">
        <ele>157.58</ele>
        <time>2018-09-21T16:25:57Z</time>
      </trkpt>
      <trkpt lat="44.96252" lon="4.95149">
        <ele>157.57</ele>
        <time>2018-09-21T16:25:58Z</time>
      </trkpt>
      <trkpt lat="44.96245" lon="4.95112">
        <ele>156.87</ele>
        <time>2018-09-21T16:25:59Z</time>
      </trkpt>
      <trkpt lat="44.96238" lon="4.95075">
        <ele>156.66</ele>
        <time>2018-09-21T16:26:00Z</time>
      </trkpt>
      <trkpt lat="44.96229" lon="4.95039">
        <ele>156.6</ele>
        <time>2018-09-21T16:26:01Z</time>
      </trkpt>
      <trkpt lat="44.9622" lon="4.95001">
        <ele>156.58</ele>
        <time>2018-09-21T16:26:02Z</time>
      </trkpt>
      <trkpt lat="44.96212" lon="4.94964">
        <ele>156.57</ele>
        <time>2018-09-21T16:26:03Z</time>
      </trkpt>
      <trkpt lat="44.96204" lon="4.94927">
        <ele>156.57</ele>
        <time>2018-09-21T16:26:04Z</time>
      </trkpt>
      <trkpt lat="44.96197" lon="4.9489">
        <ele>156.57</ele>
        <time>2018-09-21T16:26:05Z</time>
      </trkpt>
      <trkpt lat="44.96189" lon="4.94854">
        <ele>155.87</ele>
        <time>2018-09-21T16:26:06Z</time>
      </trkpt>
      <trkpt lat="44.96182" lon="4.94819">
        <ele>155.66</ele>
        <time>2018-09-21T16:26:07Z</time>
      </trkpt>
      <trkpt lat="44.96175" lon="4.94786">
        <ele>155.6</ele>
        <time>2018-09-21T16:26:08Z</time>
      </trkpt>
      <trkpt lat="44.96168" lon="4.94754">
        <ele>155.58</ele>
        <time>2018-09-21T16:26:09Z</time>
      </trkpt>
      <trkpt lat="44.96159" lon="4.94719">
        <ele>154.87</ele>
        <time>2018-09-21T16:26:10Z</time>
      </trkpt>
      <trkpt lat="44.9615" lon="4.94684">
        <ele>154.66</ele>
        <time>2018-09-21T16:26:11Z</time>
      </trkpt>
      <trkpt lat="44.96142" lon="4.94647">
        <ele>154.6</ele>
        <time>2018-09-21T16:26:12Z</time>
      </trkpt>
      <trkpt lat="44.96134" lon="4.94608">
        <ele>154.58</ele>
        <time>2018-09-21T16:26:13Z</time>
      </trkpt>
      <trkpt lat="44.96126" lon="4.94569">
        <ele>154.57</ele>
        <time>2018-09-21T16:26:14Z</time>
      </trkpt>
      <trkpt lat="44.96118" lon="4.94531">
        <ele>154.57</ele>
        <time>2018-09-21T16:26:15Z</time>
      </trkpt>
      <trkpt lat="44.96109" lon="4.94493">
        <ele>154.57</ele>
        <time>2018-09-21T16:26:16Z</time>
      </trkpt>
      <trkpt lat="44.96101" lon="4.94455">
        <ele>155.27</ele>
        <time>2018-09-21T16:26:17Z</time>
      </trkpt>
      <trkpt lat="44.96093" lon="4.94418">
        <ele>155.48</ele>
        <time>2018-09-21T16:26:18Z</time>
      </trkpt>
      <trkpt lat="44.96085" lon="4.9438">
        <ele>156.24</ele>
        <time>2018-09-21T16:26:19Z</time>
      </trkpt>
      <trkpt lat="44.96076" lon="4.94342">
        <ele>156.47</ele>
        <time>2018-09-21T16:26:20Z</time>
      </trkpt>
      <trkpt lat="44.96068" lon="4.94304">
        <ele>157.24</ele>
        <time>2018-09-21T16:26:21Z</time>
      </trkpt>
      <trkpt lat="44.96059" lon="4.94266">
        <ele>157.47</ele>
        <time>2018-09-21T16:26:22Z</time>
      </trkpt>
      <trkpt lat="44.96051" lon="4.94228">
        <ele>158.24</ele>
        <time>2018-09-21T16:26:23Z</time>
      </trkpt>
      <trkpt lat="44.96043" lon="4.9419">
        <ele>158.47</ele>
        <time>2018-09-21T16:26:24Z</time>
      </trkpt>
      <trkpt lat="44.96034" lon="4.94153">
        <ele>159.24</ele>
        <time>2018-09-21T16:26:25Z</time>
      </trkpt>
      <trkpt lat="44.96026" lon="4.94116">
        <ele>159.47</ele>
        <time>2018-09-21T16:26:26Z</time>
      </trkpt>
      <trkpt lat="44.96017" lon="4.94079">
        <ele>159.54</ele>
        <time>2018-09-21T16:26:27Z</time>
      </trkpt>
      <trkpt lat="44.96007" lon="4.94043">
        <ele>159.56</ele>
        <time>2018-09-21T16:26:28Z</time>
      </trkpt>
      <trkpt lat="44.95996" lon="4.94007">
        <ele>159.57</ele>
        <time>2018-09-21T16:26:29Z</time>
      </trkpt>
      <trkpt lat="44.95984" lon="4.93972">
        <ele>160.27</ele>
        <time>2018-09-21T16:26:30Z</time>
      </trkpt>
      <trkpt lat="44.95971" lon="4.93938">
        <ele>160.48</ele>
        <time>2018-09-21T16:26:31Z</time>
      </trkpt>
      <trkpt lat="44.95957" lon="4.93905">
        <ele>159.84</ele>
        <time>2018-09-21T16:26:32Z</time>
      </trkpt>
      <trkpt lat="44.95942" lon="4.93874">
        <ele>160.35</ele>
        <time>2018-09-21T16:26:33Z</time>
      </trkpt>
      <trkpt lat="44.95925" lon="4.93842">
        <ele>159.8</ele>
        <time>2018-09-21T16:26:34Z</time>
      </trkpt>
      <trkpt lat="44.95907" lon="4.93813">
        <ele>159.64</ele>
        <time>2018-09-21T16:26:35Z</time>
      </trkpt>
      <trkpt lat="44.95888" lon="4.93784">
        <ele>159.59</ele>
        <time>2018-09-21T16:26:36Z</time>
      </trkpt>
      <trkpt lat="44.95869" lon="4.93756">
        <ele>159.57</ele>
        <time>2018-09-21T16:26:37Z</time>
      </trkpt>
      <trkpt lat="44.95848" lon="4.9373">
        <ele>159.57</ele>
        <time>2018-09-21T16:26:38Z</time>
      </trkpt>
      <trkpt lat="44.95827" lon="4.93705">
        <ele>159.57</ele>
        <time>2018-09-21T16:26:39Z</time>
      </trkpt>
      <trkpt lat="44.95805" lon="4.93682">
        <ele>158.87</ele>
        <time>2018-09-21T16:26:40Z</time>
      </trkpt>
      <trkpt lat="44.95783" lon="4.93659">
        <ele>159.36</ele>
        <time>2018-09-21T16:26:41Z</time>
      </trkpt>
      <trkpt lat="44.9576" lon="4.93636">
        <ele>159.51</ele>
        <time>2018-09-21T16:26:42Z</time>
      </trkpt>
      <trkpt lat="44.95737" lon="4.93616">
        <ele>159.55</ele>
        <time>2018-09-21T16:26:43Z</time>
      </trkpt>
      <trkpt lat="44.95714" lon="4.93598">
        <ele>159.56</ele>
        <time>2018-09-21T16:26:44Z</time>
      </trkpt>
      <trkpt lat="44.9569" lon="4.93583">
        <ele>159.57</ele>
        <time>2018-09-21T16:26:45Z</time>
      </trkpt>
      <trkpt lat="44.95666" lon="4.93568">
        <ele>159.57</ele>
        <time>2018-09-21T16:26:46Z</time>
      </trkpt>
      <trkpt lat="44.95641" lon="4.93555">
        <ele>158.87</ele>
        <time>2018-09-21T16:26:47Z</time>
      </trkpt>
      <trkpt lat="44.95616" lon="4.93542">
        <ele>158.66</ele>
        <time>2018-09-21T16:26:48Z</time>
      </trkpt>
      <trkpt lat="44.95591" lon="4.93532">
        <ele>157.89</ele>
        <time>2018-09-21T16:26:49Z</time>
      </trkpt>
      <trkpt lat="44.95565" lon="4.93523">
        <ele>156.97</ele>
        <time>2018-09-21T16:26:50Z</time>
      </trkpt>
      <trkpt lat="44.95538" lon="4.93515">
        <ele>156.69</ele>
        <time>2018-09-21T16:26:51Z</time>
      </trkpt>
      <trkpt lat="44.95511" lon="4.93509">
        <ele>156.6</ele>
        <time>2018-09-21T16:26:52Z</time>
      </trkpt>
      <trkpt lat="44.95484" lon="4.93506">
        <ele>155.88</ele>
        <time>2018-09-21T16:26:53Z</time>
      </trkpt>
      <trkpt lat="44.95457" lon="4.93503">
        <ele>155.66</ele>
        <time>2018-09-21T16:26:54Z</time>
      </trkpt>
      <trkpt lat="44.9543" lon="4.93501">
        <ele>155.6</ele>
        <time>2018-09-21T16:26:55Z</time>
      </trkpt>
      <trkpt lat="44.954" lon="4.93503">
        <ele>156.28</ele>
        <time>2018-09-21T16:26:56Z</time>
      </trkpt>
      <trkpt lat="44.95372" lon="4.93507">
        <ele>155.78</ele>
        <time>2018-09-21T16:26:57Z</time>
      </trkpt>
      <trkpt lat="44.95343" lon="4.93513">
        <ele>155.63</ele>
        <time>2018-09-21T16:26:58Z</time>
      </trkpt>
      <trkpt lat="44.95315" lon="4.9352">
        <ele>155.59</ele>
        <time>2018-09-21T16:26:59Z</time>
      </trkpt>
      <trkpt lat="44.95288" lon="4.9353">
        <ele>155.57</ele>
        <time>2018-09-21T16:27:00Z</time>
      </trkpt>
      <trkpt lat="44.95261" lon="4.93544">
        <ele>155.57</ele>
        <time>2018-09-21T16:27:01Z</time>
      </trkpt>
      <trkpt lat="44.95235" lon="4.93558">
        <ele>154.87</ele>
        <time>2018-09-21T16:27:02Z</time>
      </trkpt>
      <trkpt lat="44.95209" lon="4.93574">
        <ele>154.66</ele>
        <time>2018-09-21T16:27:03Z</time>
      </trkpt>
      <trkpt lat="44.95183" lon="4.93591">
        <ele>154.6</ele>
        <time>2018-09-21T16:27:04Z</time>
      </trkpt>
      <trkpt lat="44.95157" lon="4.93609">
        <ele>153.88</ele>
        <time>2018-09-21T16:27:05Z</time>
      </trkpt>
      <trkpt lat="44.95132" lon="4.93628">
        <ele>153.66</ele>
        <time>2018-09-21T16:27:06Z</time>
      </trkpt>
      <trkpt lat="44.95108" lon="4.9365">
        <ele>153.6</ele>
        <time>2018-09-21T16:27:07Z</time>
      </trkpt>
      <trkpt lat="44.95084" lon="4.93674">
        <ele>153.58</ele>
        <time>2018-09-21T16:27:08Z</time>
      </trkpt>
      <trkpt lat="44.95062" lon="4.93699">
        <ele>153.57</ele>
        <time>2018-09-21T16:27:09Z</time>
      </trkpt>
      <trkpt lat="44.9504" lon="4.93726">
        <ele>154.27</ele>
        <time>2018-09-21T16:27:10Z</time>
      </trkpt>
      <trkpt lat="44.95019" lon="4.93754">
        <ele>154.48</ele>
        <time>2018-09-21T16:27:11Z</time>
      </trkpt>
      <trkpt lat="44.94999" lon="4.93781">
        <ele>155.24</ele>
        <time>2018-09-21T16:27:12Z</time>
      </trkpt>
      <trkpt lat="44.94979" lon="4.93809">
        <ele>155.47</ele>
        <time>2018-09-21T16:27:13Z</time>
      </trkpt>
      <trkpt lat="44.94959" lon="4.93836">
        <ele>155.54</ele>
        <time>2018-09-21T16:27:14Z</time>
      </trkpt>
      <trkpt lat="44.94939" lon="4.93863">
        <ele>155.56</ele>
        <time>2018-09-21T16:27:15Z</time>
      </trkpt>
      <trkpt lat="44.94918" lon="4.9389">
        <ele>156.27</ele>
        <time>2018-09-21T16:27:16Z</time>
      </trkpt>
      <trkpt lat="44.94897" lon="4.93915">
        <ele>156.48</ele>
        <time>2018-09-21T16:27:17Z</time>
      </trkpt>
      <trkpt lat="44.94875" lon="4.9394">
        <ele>156.54</ele>
        <time>2018-09-21T16:27:18Z</time>
      </trkpt>
      <trkpt lat="44.94852" lon="4.93964">
        <ele>156.56</ele>
        <time>2018-09-21T16:27:19Z</time>
      </trkpt>
      <trkpt lat="44.94829" lon="4.93987">
        <ele>156.57</ele>
        <time>2018-09-21T16:27:20Z</time>
      </trkpt>
      <trkpt lat="44.94805" lon="4.94009">
        <ele>156.57</ele>
        <time>2018-09-21T16:27:21Z</time>
      </trkpt>
      <trkpt lat="44.9478" lon="4.9403">
        <ele>156.57</ele>
        <time>2018-09-21T16:27:22Z</time>
      </trkpt>
      <trkpt lat="44.94755" lon="4.9405">
        <ele>156.57</ele>
        <time>2018-09-21T16:27:23Z</time>
      </trkpt>
      <trkpt lat="44.9473" lon="4.94068">
        <ele>156.57</ele>
        <time>2018-09-21T16:27:24Z</time>
      </trkpt>
      <trkpt lat="44.94705" lon="4.94086">
        <ele>156.57</ele>
        <time>2018-09-21T16:27:25Z</time>
      </trkpt>
      <trkpt lat="44.94679" lon="4.94102">
        <ele>156.57</ele>
        <time>2018-09-21T16:27:26Z</time>
      </trkpt>
      <trkpt lat="44.94653" lon="4.94117">
        <ele>156.57</ele>
        <time>2018-09-21T16:27:27Z</time>
      </trkpt>
      <trkpt lat="44.94627" lon="4.94131">
        <ele>156.57</ele>
        <time>2018-09-21T16:27:28Z</time>
      </trkpt>
      <trkpt lat="44.94601" lon="4.94144">
        <ele>156.57</ele>
        <time>2018-09-21T16:27:29Z</time>
      </trkpt>
      <trkpt lat="44.94574" lon="4.94155">
        <ele>156.57</ele>
        <time>2018-09-21T16:27:30Z</time>
      </trkpt>
      <trkpt lat="44.94546" lon="4.94165">
        <ele>156.57</ele>
        <time>2018-09-21T16:27:31Z</time>
      </trkpt>
      <trkpt lat="44.94518" lon="4.94174">
        <ele>156.57</ele>
        <time>2018-09-21T16:27:32Z</time>
      </trkpt>
      <trkpt lat="44.94491" lon="4.94182">
        <ele>156.57</ele>
        <time>2018-09-21T16:27:33Z</time>
      </trkpt>
      <trkpt lat="44.94463" lon="4.94188">
        <ele>156.57</ele>
        <time>2018-09-21T16:27:34Z</time>
      </trkpt>
      <trkpt lat="44.94435" lon="4.94194">
        <ele>156.57</ele>
        <time>2018-09-21T16:27:35Z</time>
      </trkpt>
      <trkpt lat="44.94407" lon="4.94201">
        <ele>156.57</ele>
        <time>2018-09-21T16:27:36Z</time>
      </trkpt>
      <trkpt lat="44.94379" lon="4.94207">
        <ele>157.27</ele>
        <time>2018-09-21T16:27:37Z</time>
      </trkpt>
      <trkpt lat="44.94352" lon="4.94214">
        <ele>157.48</ele>
        <time>2018-09-21T16:27:38Z</time>
      </trkpt>
      <trkpt lat="44.94325" lon="4.94219">
        <ele>157.54</ele>
        <time>2018-09-21T16:27:39Z</time>
      </trkpt>
      <trkpt lat="44.94297" lon="4.94225">
        <ele>157.56</ele>
        <time>2018-09-21T16:27:40Z</time>
      </trkpt>
      <trkpt lat="44.9427" lon="4.9423">
        <ele>157.57</ele>
        <time>2018-09-21T16:27:41Z</time>
      </trkpt>
      <trkpt lat="44.94243" lon="4.94236">
        <ele>157.57</ele>
        <time>2018-09-21T16:27:42Z</time>
      </trkpt>
      <trkpt lat="44.94215" lon="4.94242">
        <ele>158.27</ele>
        <time>2018-09-21T16:27:43Z</time>
      </trkpt>
      <trkpt lat="44.94188" lon="4.94249">
        <ele>158.48</ele>
        <time>2018-09-21T16:27:44Z</time>
      </trkpt>
      <trkpt lat="44.94161" lon="4.94256">
        <ele>158.54</ele>
        <time>2018-09-21T16:27:45Z</time>
      </trkpt>
      <trkpt lat="44.94133" lon="4.94263">
        <ele>158.56</ele>
        <time>2018-09-21T16:27:46Z</time>
      </trkpt>
      <trkpt lat="44.94106" lon="4.94269">
        <ele>159.27</ele>
        <time>2018-09-21T16:27:47Z</time>
      </trkpt>
      <trkpt lat="44.94079" lon="4.94276">
        <ele>159.48</ele>
        <time>2018-09-21T16:27:48Z</time>
      </trkpt>
      <trkpt lat="44.94053" lon="4.94282">
        <ele>159.54</ele>
        <time>2018-09-21T16:27:49Z</time>
      </trkpt>
      <trkpt lat="44.94026" lon="4.9429">
        <ele>159.56</ele>
        <time>2018-09-21T16:27:50Z</time>
      </trkpt>
      <trkpt lat="44.93999" lon="4.94297">
        <ele>159.57</ele>
        <time>2018-09-21T16:27:51Z</time>
      </trkpt>
      <trkpt lat="44.93973" lon="4.94304">
        <ele>159.57</ele>
        <time>2018-09-21T16:27:52Z</time>
      </trkpt>
      <trkpt lat="44.93946" lon="4.94311">
        <ele>159.57</ele>
        <time>2018-09-21T16:27:53Z</time>
      </trkpt>
      <trkpt lat="44.93919" lon="4.94318">
        <ele>159.57</ele>
        <time>2018-09-21T16:27:54Z</time>
      </trkpt>
      <trkpt lat="44.93892" lon="4.94325">
        <ele>159.57</ele>
        <time>2018-09-21T16:27:55Z</time>
      </trkpt>
      <trkpt lat="44.93865" lon="4.94331">
        <ele>159.57</ele>
        <time>2018-09-21T16:27:56Z</time>
      </trkpt>
      <trkpt lat="44.93838" lon="4.94338">
        <ele>159.57</ele>
        <time>2018-09-21T16:27:57Z</time>
      </trkpt>
      <trkpt lat="44.93811" lon="4.94346">
        <ele>159.57</ele>
        <time>2018-09-21T16:27:58Z</time>
      </trkpt>
      <trkpt lat="44.93783" lon="4.94353">
        <ele>160.27</ele>
        <time>2018-09-21T16:27:59Z</time>
      </trkpt>
      <trkpt lat="44.93756" lon="4.9436">
        <ele>160.48</ele>
        <time>2018-09-21T16:28:00Z</time>
      </trkpt>
      <trkpt lat="44.93729" lon="4.94367">
        <ele>160.54</ele>
        <time>2018-09-21T16:28:01Z</time>
      </trkpt>
      <trkpt lat="44.93702" lon="4.94373">
        <ele>160.56</ele>
        <time>2018-09-21T16:28:02Z</time>
      </trkpt>
      <trkpt lat="44.93674" lon="4.94379">
        <ele>160.57</ele>
        <time>2018-09-21T16:28:03Z</time>
      </trkpt>
      <trkpt lat="44.93647" lon="4.94386">
        <ele>160.57</ele>
        <time>2018-09-21T16:28:04Z</time>
      </trkpt>
      <trkpt lat="44.9362" lon="4.94392">
        <ele>161.27</ele>
        <time>2018-09-21T16:28:05Z</time>
      </trkpt>
      <trkpt lat="44.93593" lon="4.94397">
        <ele>161.48</ele>
        <time>2018-09-21T16:28:06Z</time>
      </trkpt>
      <trkpt lat="44.93566" lon="4.94403">
        <ele>160.84</ele>
        <time>2018-09-21T16:28:07Z</time>
      </trkpt>
      <trkpt lat="44.93538" lon="4.94409">
        <ele>160.65</ele>
        <time>2018-09-21T16:28:08Z</time>
      </trkpt>
      <trkpt lat="44.93511" lon="4.94416">
        <ele>160.59</ele>
        <time>2018-09-21T16:28:09Z</time>
      </trkpt>
      <trkpt lat="44.93483" lon="4.94423">
        <ele>160.58</ele>
        <time>2018-09-21T16:28:10Z</time>
      </trkpt>
      <trkpt lat="44.93456" lon="4.9443">
        <ele>161.27</ele>
        <time>2018-09-21T16:28:11Z</time>
      </trkpt>
      <trkpt lat="44.93429" lon="4.94437">
        <ele>161.48</ele>
        <time>2018-09-21T16:28:12Z</time>
      </trkpt>
      <trkpt lat="44.93401" lon="4.94444">
        <ele>160.84</ele>
        <time>2018-09-21T16:28:13Z</time>
      </trkpt>
      <trkpt lat="44.93374" lon="4.9445">
        <ele>160.65</ele>
        <time>2018-09-21T16:28:14Z</time>
      </trkpt>
      <trkpt lat="44.93347" lon="4.94457">
        <ele>160.59</ele>
        <time>2018-09-21T16:28:15Z</time>
      </trkpt>
      <trkpt lat="44.93319" lon="4.94464">
        <ele>160.58</ele>
        <time>2018-09-21T16:28:16Z</time>
      </trkpt>
      <trkpt lat="44.93292" lon="4.94471">
        <ele>160.57</ele>
        <time>2018-09-21T16:28:17Z</time>
      </trkpt>
      <trkpt lat="44.93264" lon="4.94477">
        <ele>159.87</ele>
        <time>2018-09-21T16:28:18Z</time>
      </trkpt>
      <trkpt lat="44.93236" lon="4.94484">
        <ele>159.66</ele>
        <time>2018-09-21T16:28:19Z</time>
      </trkpt>
      <trkpt lat="44.93209" lon="4.94491">
        <ele>159.6</ele>
        <time>2018-09-21T16:28:20Z</time>
      </trkpt>
      <trkpt lat="44.93181" lon="4.94497">
        <ele>159.58</ele>
        <time>2018-09-21T16:28:21Z</time>
      </trkpt>
      <trkpt lat="44.93154" lon="4.94504">
        <ele>159.57</ele>
        <time>2018-09-21T16:28:22Z</time>
      </trkpt>
      <trkpt lat="44.93126" lon="4.94511">
        <ele>159.57</ele>
        <time>2018-09-21T16:28:23Z</time>
      </trkpt>
      <trkpt lat="44.93099" lon="4.94517">
        <ele>159.57</ele>
        <time>2018-09-21T16:28:24Z</time>
      </trkpt>
      <trkpt lat="44.93071" lon="4.94524">
        <ele>159.57</ele>
        <time>2018-09-21T16:28:25Z</time>
      </trkpt>
      <trkpt lat="44.93043" lon="4.9453">
        <ele>159.57</ele>
        <time>2018-09-21T16:28:26Z</time>
      </trkpt>
      <trkpt lat="44.93016" lon="4.94537">
        <ele>159.57</ele>
        <time>2018-09-21T16:28:27Z</time>
      </trkpt>
      <trkpt lat="44.92988" lon="4.94542">
        <ele>159.57</ele>
        <time>2018-09-21T16:28:28Z</time>
      </trkpt>
      <trkpt lat="44.9296" lon="4.94546">
        <ele>159.57</ele>
        <time>2018-09-21T16:28:29Z</time>
      </trkpt>
      <trkpt lat="44.92932" lon="4.94549">
        <ele>159.57</ele>
        <time>2018-09-21T16:28:30Z</time>
      </trkpt>
      <trkpt lat="44.92905" lon="4.94552">
        <ele>159.57</ele>
        <time>2018-09-21T16:28:31Z</time>
      </trkpt>
      <trkpt lat="44.92877" lon="4.94553">
        <ele>159.57</ele>
        <time>2018-09-21T16:28:32Z</time>
      </trkpt>
      <trkpt lat="44.92849" lon="4.94553">
        <ele>159.57</ele>
        <time>2018-09-21T16:28:33Z</time>
      </trkpt>
      <trkpt lat="44.92821" lon="4.94553">
        <ele>159.57</ele>
        <time>2018-09-21T16:28:34Z</time>
      </trkpt>
      <trkpt lat="44.92793" lon="4.94551">
        <ele>158.87</ele>
        <time>2018-09-21T16:28:35Z</time>
      </trkpt>
      <trkpt lat="44.92765" lon="4.94548">
        <ele>158.66</ele>
        <time>2018-09-21T16:28:36Z</time>
      </trkpt>
      <trkpt lat="44.92737" lon="4.94546">
        <ele>158.6</ele>
        <time>2018-09-21T16:28:37Z</time>
      </trkpt>
      <trkpt lat="44.9271" lon="4.94542">
        <ele>158.58</ele>
        <time>2018-09-21T16:28:38Z</time>
      </trkpt>
      <trkpt lat="44.92682" lon="4.94536">
        <ele>157.87</ele>
        <time>2018-09-21T16:28:39Z</time>
      </trkpt>
      <trkpt lat="44.92654" lon="4.9453">
        <ele>157.66</ele>
        <time>2018-09-21T16:28:40Z</time>
      </trkpt>
      <trkpt lat="44.92627" lon="4.94523">
        <ele>157.6</ele>
        <time>2018-09-21T16:28:41Z</time>
      </trkpt>
      <trkpt lat="44.92599" lon="4.94515">
        <ele>156.88</ele>
        <time>2018-09-21T16:28:42Z</time>
      </trkpt>
      <trkpt lat="44.92573" lon="4.94506">
        <ele>156.66</ele>
        <time>2018-09-21T16:28:43Z</time>
      </trkpt>
      <trkpt lat="44.92546" lon="4.94496">
        <ele>155.9</ele>
        <time>2018-09-21T16:28:44Z</time>
      </trkpt>
      <trkpt lat="44.9252" lon="4.94485">
        <ele>156.37</ele>
        <time>2018-09-21T16:28:45Z</time>
      </trkpt>
      <trkpt lat="44.92494" lon="4.94474">
        <ele>155.81</ele>
        <time>2018-09-21T16:28:46Z</time>
      </trkpt>
      <trkpt lat="44.92468" lon="4.9446">
        <ele>155.64</ele>
        <time>2018-09-21T16:28:47Z</time>
      </trkpt>
      <trkpt lat="44.92442" lon="4.94447">
        <ele>155.59</ele>
        <time>2018-09-21T16:28:48Z</time>
      </trkpt>
      <trkpt lat="44.92417" lon="4.94433">
        <ele>155.57</ele>
        <time>2018-09-21T16:28:49Z</time>
      </trkpt>
      <trkpt lat="44.92391" lon="4.94418">
        <ele>154.87</ele>
        <time>2018-09-21T16:28:50Z</time>
      </trkpt>
      <trkpt lat="44.92367" lon="4.94403">
        <ele>154.66</ele>
        <time>2018-09-21T16:28:51Z</time>
      </trkpt>
      <trkpt lat="44.92342" lon="4.94387">
        <ele>153.9</ele>
        <time>2018-09-21T16:28:52Z</time>
      </trkpt>
      <trkpt lat="44.92317" lon="4.9437">
        <ele>153.67</ele>
        <time>2018-09-21T16:28:53Z</time>
      </trkpt>
      <trkpt lat="44.92293" lon="4.94353">
        <ele>153.6</ele>
        <time>2018-09-21T16:28:54Z</time>
      </trkpt>
      <trkpt lat="44.92269" lon="4.94336">
        <ele>153.58</ele>
        <time>2018-09-21T16:28:55Z</time>
      </trkpt>
      <trkpt lat="44.92245" lon="4.94318">
        <ele>153.57</ele>
        <time>2018-09-21T16:28:56Z</time>
      </trkpt>
      <trkpt lat="44.92221" lon="4.94302">
        <ele>153.57</ele>
        <time>2018-09-21T16:28:57Z</time>
      </trkpt>
      <trkpt lat="44.92196" lon="4.94285">
        <ele>152.87</ele>
        <time>2018-09-21T16:28:58Z</time>
      </trkpt>
      <trkpt lat="44.92172" lon="4.94268">
        <ele>152.66</ele>
        <time>2018-09-21T16:28:59Z</time>
      </trkpt>
      <trkpt lat="44.92148" lon="4.94251">
        <ele>152.6</ele>
        <time>2018-09-21T16:29:00Z</time>
      </trkpt>
      <trkpt lat="44.92124" lon="4.94234">
        <ele>152.58</ele>
        <time>2018-09-21T16:29:01Z</time>
      </trkpt>
      <trkpt lat="44.921" lon="4.94217">
        <ele>152.57</ele>
        <time>2018-09-21T16:29:02Z</time>
      </trkpt>
      <trkpt lat="44.92076" lon="4.942">
        <ele>151.87</ele>
        <time>2018-09-21T16:29:03Z</time>
      </trkpt>
      <trkpt lat="44.92052" lon="4.94184">
        <ele>152.36</ele>
        <time>2018-09-21T16:29:04Z</time>
      </trkpt>
      <trkpt lat="44.92027" lon="4.94169">
        <ele>152.51</ele>
        <time>2018-09-21T16:29:05Z</time>
      </trkpt>
      <trkpt lat="44.92003" lon="4.94154">
        <ele>152.55</ele>
        <time>2018-09-21T16:29:06Z</time>
      </trkpt>
      <trkpt lat="44.91978" lon="4.9414">
        <ele>153.26</ele>
        <time>2018-09-21T16:29:07Z</time>
      </trkpt>
      <trkpt lat="44.91952" lon="4.94127">
        <ele>153.48</ele>
        <time>2018-09-21T16:29:08Z</time>
      </trkpt>
      <trkpt lat="44.91925" lon="4.94115">
        <ele>153.54</ele>
        <time>2018-09-21T16:29:09Z</time>
      </trkpt>
      <trkpt lat="44.91899" lon="4.94104">
        <ele>154.26</ele>
        <time>2018-09-21T16:29:10Z</time>
      </trkpt>
      <trkpt lat="44.91872" lon="4.94094">
        <ele>153.78</ele>
        <time>2018-09-21T16:29:11Z</time>
      </trkpt>
      <trkpt lat="44.91846" lon="4.94084">
        <ele>153.63</ele>
        <time>2018-09-21T16:29:12Z</time>
      </trkpt>
      <trkpt lat="44.91819" lon="4.94074">
        <ele>152.89</ele>
        <time>2018-09-21T16:29:13Z</time>
      </trkpt>
      <trkpt lat="44.91792" lon="4.94065">
        <ele>152.66</ele>
        <time>2018-09-21T16:29:14Z</time>
      </trkpt>
      <trkpt lat="44.91765" lon="4.94057">
        <ele>153.3</ele>
        <time>2018-09-21T16:29:15Z</time>
      </trkpt>
      <trkpt lat="44.91737" lon="4.9405">
        <ele>152.79</ele>
        <time>2018-09-21T16:29:16Z</time>
      </trkpt>
      <trkpt lat="44.9171" lon="4.94042">
        <ele>152.63</ele>
        <time>2018-09-21T16:29:17Z</time>
      </trkpt>
      <trkpt lat="44.91682" lon="4.94035">
        <ele>152.59</ele>
        <time>2018-09-21T16:29:18Z</time>
      </trkpt>
      <trkpt lat="44.91654" lon="4.94027">
        <ele>151.87</ele>
        <time>2018-09-21T16:29:19Z</time>
      </trkpt>
      <trkpt lat="44.91627" lon="4.94019">
        <ele>152.36</ele>
        <time>2018-09-21T16:29:20Z</time>
      </trkpt>
      <trkpt lat="44.916" lon="4.94011">
        <ele>152.51</ele>
        <time>2018-09-21T16:29:21Z</time>
      </trkpt>
      <trkpt lat="44.91573" lon="4.94003">
        <ele>152.55</ele>
        <time>2018-09-21T16:29:22Z</time>
      </trkpt>
      <trkpt lat="44.91546" lon="4.93995">
        <ele>151.86</ele>
        <time>2018-09-21T16:29:23Z</time>
      </trkpt>
      <trkpt lat="44.91519" lon="4.93987">
        <ele>151.66</ele>
        <time>2018-09-21T16:29:24Z</time>
      </trkpt>
      <trkpt lat="44.91491" lon="4.93978">
        <ele>151.59</ele>
        <time>2018-09-21T16:29:25Z</time>
      </trkpt>
      <trkpt lat="44.91463" lon="4.93969">
        <ele>151.58</ele>
        <time>2018-09-21T16:29:26Z</time>
      </trkpt>
      <trkpt lat="44.91435" lon="4.9396">
        <ele>151.57</ele>
        <time>2018-09-21T16:29:27Z</time>
      </trkpt>
      <trkpt lat="44.91408" lon="4.93949">
        <ele>151.57</ele>
        <time>2018-09-21T16:29:28Z</time>
      </trkpt>
      <trkpt lat="44.91381" lon="4.93938">
        <ele>151.57</ele>
        <time>2018-09-21T16:29:29Z</time>
      </trkpt>
      <trkpt lat="44.91354" lon="4.93925">
        <ele>151.57</ele>
        <time>2018-09-21T16:29:30Z</time>
      </trkpt>
      <trkpt lat="44.91327" lon="4.93912">
        <ele>151.57</ele>
        <time>2018-09-21T16:29:31Z</time>
      </trkpt>
      <trkpt lat="44.91301" lon="4.93897">
        <ele>150.87</ele>
        <time>2018-09-21T16:29:32Z</time>
      </trkpt>
      <trkpt lat="44.91275" lon="4.93883">
        <ele>150.66</ele>
        <time>2018-09-21T16:29:33Z</time>
      </trkpt>
      <trkpt lat="44.91249" lon="4.93869">
        <ele>150.6</ele>
        <time>2018-09-21T16:29:34Z</time>
      </trkpt>
      <trkpt lat="44.91224" lon="4.93854">
        <ele>150.58</ele>
        <time>2018-09-21T16:29:35Z</time>
      </trkpt>
      <trkpt lat="44.91198" lon="4.93838">
        <ele>150.57</ele>
        <time>2018-09-21T16:29:36Z</time>
      </trkpt>
      <trkpt lat="44.91173" lon="4.9382">
        <ele>150.57</ele>
        <time>2018-09-21T16:29:37Z</time>
      </trkpt>
      <trkpt lat="44.91149" lon="4.93802">
        <ele>150.57</ele>
        <time>2018-09-21T16:29:38Z</time>
      </trkpt>
      <trkpt lat="44.91125" lon="4.93783">
        <ele>150.57</ele>
        <time>2018-09-21T16:29:39Z</time>
      </trkpt>
      <trkpt lat="44.91101" lon="4.93763">
        <ele>150.57</ele>
        <time>2018-09-21T16:29:40Z</time>
      </trkpt>
      <trkpt lat="44.91078" lon="4.93741">
        <ele>150.57</ele>
        <time>2018-09-21T16:29:41Z</time>
      </trkpt>
      <trkpt lat="44.91055" lon="4.93719">
        <ele>150.57</ele>
        <time>2018-09-21T16:29:42Z</time>
      </trkpt>
      <trkpt lat="44.91033" lon="4.93696">
        <ele>150.57</ele>
        <time>2018-09-21T16:29:43Z</time>
      </trkpt>
      <trkpt lat="44.91011" lon="4.93672">
        <ele>149.87</ele>
        <time>2018-09-21T16:29:44Z</time>
      </trkpt>
      <trkpt lat="44.90989" lon="4.93649">
        <ele>149.66</ele>
        <time>2018-09-21T16:29:45Z</time>
      </trkpt>
      <trkpt lat="44.90968" lon="4.93623">
        <ele>149.6</ele>
        <time>2018-09-21T16:29:46Z</time>
      </trkpt>
      <trkpt lat="44.90947" lon="4.93598">
        <ele>149.58</ele>
        <time>2018-09-21T16:29:47Z</time>
      </trkpt>
      <trkpt lat="44.90926" lon="4.93572">
        <ele>150.27</ele>
        <time>2018-09-21T16:29:48Z</time>
      </trkpt>
      <trkpt lat="44.90906" lon="4.93546">
        <ele>150.48</ele>
        <time>2018-09-21T16:29:49Z</time>
      </trkpt>
      <trkpt lat="44.90886" lon="4.93519">
        <ele>150.54</ele>
        <time>2018-09-21T16:29:50Z</time>
      </trkpt>
      <trkpt lat="44.90866" lon="4.93492">
        <ele>150.56</ele>
        <time>2018-09-21T16:29:51Z</time>
      </trkpt>
      <trkpt lat="44.90846" lon="4.93464">
        <ele>150.57</ele>
        <time>2018-09-21T16:29:52Z</time>
      </trkpt>
      <trkpt lat="44.90826" lon="4.93437">
        <ele>150.57</ele>
        <time>2018-09-21T16:29:53Z</time>
      </trkpt>
      <trkpt lat="44.90806" lon="4.93409">
        <ele>150.57</ele>
        <time>2018-09-21T16:29:54Z</time>
      </trkpt>
      <trkpt lat="44.90786" lon="4.93382">
        <ele>151.27</ele>
        <time>2018-09-21T16:29:55Z</time>
      </trkpt>
      <trkpt lat="44.90766" lon="4.93355">
        <ele>151.48</ele>
        <time>2018-09-21T16:29:56Z</time>
      </trkpt>
      <trkpt lat="44.90746" lon="4.93327">
        <ele>151.54</ele>
        <time>2018-09-21T16:29:57Z</time>
      </trkpt>
      <trkpt lat="44.90727" lon="4.93298">
        <ele>151.56</ele>
        <time>2018-09-21T16:29:58Z</time>
      </trkpt>
      <trkpt lat="44.90708" lon="4.93268">
        <ele>151.57</ele>
        <time>2018-09-21T16:29:59Z</time>
      </trkpt>
      <trkpt lat="44.9069" lon="4.93238">
        <ele>151.57</ele>
        <time>2018-09-21T16:30:00Z</time>
      </trkpt>
      <trkpt lat="44.90673" lon="4.93208">
        <ele>151.57</ele>
        <time>2018-09-21T16:30:01Z</time>
      </trkpt>
      <trkpt lat="44.90655" lon="4.93178">
        <ele>151.57</ele>
        <time>2018-09-21T16:30:02Z</time>
      </trkpt>
      <trkpt lat="44.90639" lon="4.93147">
        <ele>151.57</ele>
        <time>2018-09-21T16:30:03Z</time>
      </trkpt>
      <trkpt lat="44.90622" lon="4.93116">
        <ele>151.57</ele>
        <time>2018-09-21T16:30:04Z</time>
      </trkpt>
      <trkpt lat="44.90606" lon="4.93085">
        <ele>151.57</ele>
        <time>2018-09-21T16:30:05Z</time>
      </trkpt>
      <trkpt lat="44.90591" lon="4.93054">
        <ele>150.87</ele>
        <time>2018-09-21T16:30:06Z</time>
      </trkpt>
      <trkpt lat="44.90576" lon="4.93021">
        <ele>150.66</ele>
        <time>2018-09-21T16:30:07Z</time>
      </trkpt>
      <trkpt lat="44.90562" lon="4.92989">
        <ele>150.6</ele>
        <time>2018-09-21T16:30:08Z</time>
      </trkpt>
      <trkpt lat="44.90547" lon="4.92958">
        <ele>150.58</ele>
        <time>2018-09-21T16:30:09Z</time>
      </trkpt>
      <trkpt lat="44.90534" lon="4.92926">
        <ele>150.57</ele>
        <time>2018-09-21T16:30:10Z</time>
      </trkpt>
      <trkpt lat="44.90521" lon="4.92893">
        <ele>150.57</ele>
        <time>2018-09-21T16:30:11Z</time>
      </trkpt>
      <trkpt lat="44.90508" lon="4.92861">
        <ele>150.57</ele>
        <time>2018-09-21T16:30:12Z</time>
      </trkpt>
      <trkpt lat="44.90496" lon="4.92828">
        <ele>150.57</ele>
        <time>2018-09-21T16:30:13Z</time>
      </trkpt>
      <trkpt lat="44.90484" lon="4.92796">
        <ele>150.57</ele>
        <time>2018-09-21T16:30:14Z</time>
      </trkpt>
      <trkpt lat="44.90473" lon="4.92762">
        <ele>150.57</ele>
        <time>2018-09-21T16:30:15Z</time>
      </trkpt>
      <trkpt lat="44.90462" lon="4.92728">
        <ele>150.57</ele>
        <time>2018-09-21T16:30:16Z</time>
      </trkpt>
      <trkpt lat="44.90452" lon="4.92694">
        <ele>150.57</ele>
        <time>2018-09-21T16:30:17Z</time>
      </trkpt>
      <trkpt lat="44.90441" lon="4.92659">
        <ele>150.57</ele>
        <time>2018-09-21T16:30:18Z</time>
      </trkpt>
      <trkpt lat="44.90431" lon="4.92623">
        <ele>150.57</ele>
        <time>2018-09-21T16:30:19Z</time>
      </trkpt>
      <trkpt lat="44.90422" lon="4.92586">
        <ele>149.87</ele>
        <time>2018-09-21T16:30:20Z</time>
      </trkpt>
      <trkpt lat="44.90414" lon="4.92548">
        <ele>149.66</ele>
        <time>2018-09-21T16:30:21Z</time>
      </trkpt>
      <trkpt lat="44.90407" lon="4.92511">
        <ele>149.6</ele>
        <time>2018-09-21T16:30:22Z</time>
      </trkpt>
      <trkpt lat="44.904" lon="4.92473">
        <ele>149.58</ele>
        <time>2018-09-21T16:30:23Z</time>
      </trkpt>
      <trkpt lat="44.90394" lon="4.92435">
        <ele>148.17</ele>
        <time>2018-09-21T16:30:24Z</time>
      </trkpt>
      <trkpt lat="44.90388" lon="4.92397">
        <ele>147.75</ele>
        <time>2018-09-21T16:30:25Z</time>
      </trkpt>
      <trkpt lat="44.90382" lon="4.92359">
        <ele>147.62</ele>
        <time>2018-09-21T16:30:26Z</time>
      </trkpt>
      <trkpt lat="44.90376" lon="4.9232">
        <ele>147.58</ele>
        <time>2018-09-21T16:30:27Z</time>
      </trkpt>
      <trkpt lat="44.90372" lon="4.92281">
        <ele>147.57</ele>
        <time>2018-09-21T16:30:28Z</time>
      </trkpt>
      <trkpt lat="44.90368" lon="4.92242">
        <ele>146.87</ele>
        <time>2018-09-21T16:30:29Z</time>
      </trkpt>
      <trkpt lat="44.90364" lon="4.92204">
        <ele>147.36</ele>
        <time>2018-09-21T16:30:30Z</time>
      </trkpt>
      <trkpt lat="44.90361" lon="4.92165">
        <ele>147.51</ele>
        <time>2018-09-21T16:30:31Z</time>
      </trkpt>
      <trkpt lat="44.90358" lon="4.92126">
        <ele>147.55</ele>
        <time>2018-09-21T16:30:32Z</time>
      </trkpt>
      <trkpt lat="44.90356" lon="4.92087">
        <ele>148.26</ele>
        <time>2018-09-21T16:30:33Z</time>
      </trkpt>
      <trkpt lat="44.90354" lon="4.92048">
        <ele>148.48</ele>
        <time>2018-09-21T16:30:34Z</time>
      </trkpt>
      <trkpt lat="44.90353" lon="4.92009">
        <ele>148.54</ele>
        <time>2018-09-21T16:30:35Z</time>
      </trkpt>
      <trkpt lat="44.90352" lon="4.91971">
        <ele>148.56</ele>
        <time>2018-09-21T16:30:36Z</time>
      </trkpt>
      <trkpt lat="44.90351" lon="4.91931">
        <ele>149.27</ele>
        <time>2018-09-21T16:30:37Z</time>
      </trkpt>
      <trkpt lat="44.90352" lon="4.91893">
        <ele>149.48</ele>
        <time>2018-09-21T16:30:38Z</time>
      </trkpt>
      <trkpt lat="44.90352" lon="4.91854">
        <ele>149.54</ele>
        <time>2018-09-21T16:30:39Z</time>
      </trkpt>
      <trkpt lat="44.90354" lon="4.91815">
        <ele>149.56</ele>
        <time>2018-09-21T16:30:40Z</time>
      </trkpt>
      <trkpt lat="44.90356" lon="4.91776">
        <ele>150.27</ele>
        <time>2018-09-21T16:30:41Z</time>
      </trkpt>
      <trkpt lat="44.90358" lon="4.91736">
        <ele>149.78</ele>
        <time>2018-09-21T16:30:42Z</time>
      </trkpt>
      <trkpt lat="44.90361" lon="4.91698">
        <ele>150.33</ele>
        <time>2018-09-21T16:30:43Z</time>
      </trkpt>
      <trkpt lat="44.90364" lon="4.91661">
        <ele>151.2</ele>
        <time>2018-09-21T16:30:44Z</time>
      </trkpt>
      <trkpt lat="44.90367" lon="4.91623">
        <ele>152.16</ele>
        <time>2018-09-21T16:30:45Z</time>
      </trkpt>
      <trkpt lat="44.9037" lon="4.91586">
        <ele>153.14</ele>
        <time>2018-09-21T16:30:46Z</time>
      </trkpt>
      <trkpt lat="44.90373" lon="4.91548">
        <ele>154.14</ele>
        <time>2018-09-21T16:30:47Z</time>
      </trkpt>
      <trkpt lat="44.90376" lon="4.91511">
        <ele>155.14</ele>
        <time>2018-09-21T16:30:48Z</time>
      </trkpt>
      <trkpt lat="44.9038" lon="4.91474">
        <ele>156.84</ele>
        <time>2018-09-21T16:30:49Z</time>
      </trkpt>
      <trkpt lat="44.90383" lon="4.91436">
        <ele>158.75</ele>
        <time>2018-09-21T16:30:50Z</time>
      </trkpt>
      <trkpt lat="44.90387" lon="4.91398">
        <ele>159.32</ele>
        <time>2018-09-21T16:30:51Z</time>
      </trkpt>
      <trkpt lat="44.90389" lon="4.91359">
        <ele>160.19</ele>
        <time>2018-09-21T16:30:52Z</time>
      </trkpt>
      <trkpt lat="44.90391" lon="4.91322">
        <ele>161.16</ele>
        <time>2018-09-21T16:30:53Z</time>
      </trkpt>
      <trkpt lat="44.90391" lon="4.91286">
        <ele>162.14</ele>
        <time>2018-09-21T16:30:54Z</time>
      </trkpt>
      <trkpt lat="44.90391" lon="4.91251">
        <ele>163.14</ele>
        <time>2018-09-21T16:30:55Z</time>
      </trkpt>
      <trkpt lat="44.9039" lon="4.91218">
        <ele>163.44</ele>
        <time>2018-09-21T16:30:56Z</time>
      </trkpt>
      <trkpt lat="44.90388" lon="4.91186">
        <ele>164.23</ele>
        <time>2018-09-21T16:30:57Z</time>
      </trkpt>
      <trkpt lat="44.90387" lon="4.91155">
        <ele>164.47</ele>
        <time>2018-09-21T16:30:58Z</time>
      </trkpt>
      <trkpt lat="44.90385" lon="4.91126">
        <ele>164.54</ele>
        <time>2018-09-21T16:30:59Z</time>
      </trkpt>
      <trkpt lat="44.90383" lon="4.91099">
        <ele>165.26</ele>
        <time>2018-09-21T16:31:00Z</time>
      </trkpt>
      <trkpt lat="44.90377" lon="4.9105">
        <ele>166.45</ele>
        <time>2018-09-21T16:31:02Z</time>
      </trkpt>
      <trkpt lat="44.90371" lon="4.91002">
        <ele>167.26</ele>
        <time>2018-09-21T16:31:04Z</time>
      </trkpt>
      <trkpt lat="44.90364" lon="4.90953">
        <ele>168.24</ele>
        <time>2018-09-21T16:31:06Z</time>
      </trkpt>
      <trkpt lat="44.90357" lon="4.90905">
        <ele>168.54</ele>
        <time>2018-09-21T16:31:08Z</time>
      </trkpt>
      <trkpt lat="44.90348" lon="4.9086">
        <ele>168.57</ele>
        <time>2018-09-21T16:31:10Z</time>
      </trkpt>
      <trkpt lat="44.9034" lon="4.90819">
        <ele>169.48</ele>
        <time>2018-09-21T16:31:12Z</time>
      </trkpt>
      <trkpt lat="44.90333" lon="4.90778">
        <ele>169.56</ele>
        <time>2018-09-21T16:31:14Z</time>
      </trkpt>
      <trkpt lat="44.90326" lon="4.90737">
        <ele>170.27</ele>
        <time>2018-09-21T16:31:16Z</time>
      </trkpt>
      <trkpt lat="44.90318" lon="4.90696">
        <ele>170.54</ele>
        <time>2018-09-21T16:31:18Z</time>
      </trkpt>
      <trkpt lat="44.90311" lon="4.90655">
        <ele>171.48</ele>
        <time>2018-09-21T16:31:20Z</time>
      </trkpt>
      <trkpt lat="44.90305" lon="4.90618">
        <ele>171.56</ele>
        <time>2018-09-21T16:31:22Z</time>
      </trkpt>
      <trkpt lat="44.90298" lon="4.90581">
        <ele>171.57</ele>
        <time>2018-09-21T16:31:24Z</time>
      </trkpt>
      <trkpt lat="44.90291" lon="4.90544">
        <ele>171.57</ele>
        <time>2018-09-21T16:31:26Z</time>
      </trkpt>
      <trkpt lat="44.90284" lon="4.90506">
        <ele>172.48</ele>
        <time>2018-09-21T16:31:28Z</time>
      </trkpt>
      <trkpt lat="44.90278" lon="4.90473">
        <ele>172.56</ele>
        <time>2018-09-21T16:31:30Z</time>
      </trkpt>
      <trkpt lat="44.90273" lon="4.90442">
        <ele>172.57</ele>
        <time>2018-09-21T16:31:32Z</time>
      </trkpt>
      <trkpt lat="44.90267" lon="4.90414">
        <ele>173.48</ele>
        <time>2018-09-21T16:31:34Z</time>
      </trkpt>
      <trkpt lat="44.90262" lon="4.90382">
        <ele>173.56</ele>
        <time>2018-09-21T16:31:36Z</time>
      </trkpt>
      <trkpt lat="44.90255" lon="4.90345">
        <ele>172.66</ele>
        <time>2018-09-21T16:31:38Z</time>
      </trkpt>
      <trkpt lat="44.90249" lon="4.90306">
        <ele>171.88</ele>
        <time>2018-09-21T16:31:40Z</time>
      </trkpt>
      <trkpt lat="44.90242" lon="4.90267">
        <ele>171.6</ele>
        <time>2018-09-21T16:31:42Z</time>
      </trkpt>
      <trkpt lat="44.90235" lon="4.90228">
        <ele>170.87</ele>
        <time>2018-09-21T16:31:44Z</time>
      </trkpt>
      <trkpt lat="44.90229" lon="4.90192">
        <ele>171.51</ele>
        <time>2018-09-21T16:31:46Z</time>
      </trkpt>
      <trkpt lat="44.90222" lon="4.90157">
        <ele>172.26</ele>
        <time>2018-09-21T16:31:48Z</time>
      </trkpt>
      <trkpt lat="44.90215" lon="4.90122">
        <ele>173.24</ele>
        <time>2018-09-21T16:31:50Z</time>
      </trkpt>
      <trkpt lat="44.9021" lon="4.90089">
        <ele>173.54</ele>
        <time>2018-09-21T16:31:52Z</time>
      </trkpt>
      <trkpt lat="44.90204" lon="4.90054">
        <ele>174.48</ele>
        <time>2018-09-21T16:31:54Z</time>
      </trkpt>
      <trkpt lat="44.902" lon="4.90017">
        <ele>174.56</ele>
        <time>2018-09-21T16:31:56Z</time>
      </trkpt>
      <trkpt lat="44.90195" lon="4.8998">
        <ele>175.48</ele>
        <time>2018-09-21T16:31:58Z</time>
      </trkpt>
      <trkpt lat="44.90191" lon="4.89947">
        <ele>175.56</ele>
        <time>2018-09-21T16:32:00Z</time>
      </trkpt>
      <trkpt lat="44.90189" lon="4.89913">
        <ele>175.57</ele>
        <time>2018-09-21T16:32:02Z</time>
      </trkpt>
      <trkpt lat="44.90186" lon="4.89877">
        <ele>175.57</ele>
        <time>2018-09-21T16:32:04Z</time>
      </trkpt>
      <trkpt lat="44.90185" lon="4.8984">
        <ele>174.87</ele>
        <time>2018-09-21T16:32:06Z</time>
      </trkpt>
      <trkpt lat="44.90185" lon="4.89804">
        <ele>174.6</ele>
        <time>2018-09-21T16:32:08Z</time>
      </trkpt>
      <trkpt lat="44.90185" lon="4.8977">
        <ele>174.57</ele>
        <time>2018-09-21T16:32:10Z</time>
      </trkpt>
      <trkpt lat="44.90186" lon="4.89734">
        <ele>174.57</ele>
        <time>2018-09-21T16:32:12Z</time>
      </trkpt>
      <trkpt lat="44.90188" lon="4.89697">
        <ele>174.57</ele>
        <time>2018-09-21T16:32:14Z</time>
      </trkpt>
      <trkpt lat="44.9019" lon="4.89662">
        <ele>173.66</ele>
        <time>2018-09-21T16:32:16Z</time>
      </trkpt>
      <trkpt lat="44.90193" lon="4.89625">
        <ele>172.88</ele>
        <time>2018-09-21T16:32:18Z</time>
      </trkpt>
      <trkpt lat="44.90197" lon="4.8959">
        <ele>171.69</ele>
        <time>2018-09-21T16:32:20Z</time>
      </trkpt>
      <trkpt lat="44.90201" lon="4.89558">
        <ele>170.88</ele>
        <time>2018-09-21T16:32:22Z</time>
      </trkpt>
      <trkpt lat="44.90205" lon="4.89526">
        <ele>169.69</ele>
        <time>2018-09-21T16:32:24Z</time>
      </trkpt>
      <trkpt lat="44.90211" lon="4.89493">
        <ele>167.97</ele>
        <time>2018-09-21T16:32:26Z</time>
      </trkpt>
      <trkpt lat="44.90217" lon="4.89459">
        <ele>166.69</ele>
        <time>2018-09-21T16:32:28Z</time>
      </trkpt>
      <trkpt lat="44.90224" lon="4.89424">
        <ele>165.88</ele>
        <time>2018-09-21T16:32:30Z</time>
      </trkpt>
      <trkpt lat="44.9023" lon="4.89393">
        <ele>163.99</ele>
        <time>2018-09-21T16:32:32Z</time>
      </trkpt>
      <trkpt lat="44.90238" lon="4.89364">
        <ele>161.97</ele>
        <time>2018-09-21T16:32:35Z</time>
      </trkpt>
      <trkpt lat="44.90245" lon="4.89332">
        <ele>159.91</ele>
        <time>2018-09-21T16:32:38Z</time>
      </trkpt>
      <trkpt lat="44.90253" lon="4.89299">
        <ele>159.58</ele>
        <time>2018-09-21T16:32:41Z</time>
      </trkpt>
      <trkpt lat="44.90261" lon="4.89271">
        <ele>157.69</ele>
        <time>2018-09-21T16:32:44Z</time>
      </trkpt>
      <trkpt lat="44.90267" lon="4.89246">
        <ele>155.9</ele>
        <time>2018-09-21T16:32:47Z</time>
      </trkpt>
      <trkpt lat="44.90273" lon="4.89221">
        <ele>154.9</ele>
        <time>2018-09-21T16:32:49Z</time>
      </trkpt>
      <trkpt lat="44.90279" lon="4.89193">
        <ele>154.6</ele>
        <time>2018-09-21T16:32:51Z</time>
      </trkpt>
      <trkpt lat="44.90286" lon="4.89163">
        <ele>152.96</ele>
        <time>2018-09-21T16:32:53Z</time>
      </trkpt>
      <trkpt lat="44.90292" lon="4.89131">
        <ele>151.9</ele>
        <time>2018-09-21T16:32:55Z</time>
      </trkpt>
      <trkpt lat="44.90298" lon="4.891">
        <ele>149.97</ele>
        <time>2018-09-21T16:32:58Z</time>
      </trkpt>
      <trkpt lat="44.90303" lon="4.8907">
        <ele>147.9</ele>
        <time>2018-09-21T16:33:02Z</time>
      </trkpt>
      <trkpt lat="44.90306" lon="4.89044">
        <ele>147.81</ele>
        <time>2018-09-21T16:33:04Z</time>
      </trkpt>
      <trkpt lat="44.9031" lon="4.89011">
        <ele>146.68</ele>
        <time>2018-09-21T16:33:06Z</time>
      </trkpt>
      <trkpt lat="44.90313" lon="4.88978">
        <ele>145.18</ele>
        <time>2018-09-21T16:33:08Z</time>
      </trkpt>
      <trkpt lat="44.90315" lon="4.88951">
        <ele>143.92</ele>
        <time>2018-09-21T16:33:10Z</time>
      </trkpt>
      <trkpt lat="44.90316" lon="4.88917">
        <ele>142.6</ele>
        <time>2018-09-21T16:33:13Z</time>
      </trkpt>
      <trkpt lat="44.90316" lon="4.88889">
        <ele>141.87</ele>
        <time>2018-09-21T16:33:15Z</time>
      </trkpt>
      <trkpt lat="44.90317" lon="4.88858">
        <ele>139.99</ele>
        <time>2018-09-21T16:33:17Z</time>
      </trkpt>
      <trkpt lat="44.90317" lon="4.88828">
        <ele>138.91</ele>
        <time>2018-09-21T16:33:19Z</time>
      </trkpt>
      <trkpt lat="44.90317" lon="4.88795">
        <ele>136.99</ele>
        <time>2018-09-21T16:33:21Z</time>
      </trkpt>
      <trkpt lat="44.90317" lon="4.8876">
        <ele>135.91</ele>
        <time>2018-09-21T16:33:23Z</time>
      </trkpt>
      <trkpt lat="44.90318" lon="4.88724">
        <ele>133.99</ele>
        <time>2018-09-21T16:33:25Z</time>
      </trkpt>
      <trkpt lat="44.90319" lon="4.88689">
        <ele>132</ele>
        <time>2018-09-21T16:33:27Z</time>
      </trkpt>
      <trkpt lat="44.90322" lon="4.88653">
        <ele>130.7</ele>
        <time>2018-09-21T16:33:29Z</time>
      </trkpt>
      <trkpt lat="44.90326" lon="4.88619">
        <ele>129.67</ele>
        <time>2018-09-21T16:33:31Z</time>
      </trkpt>
      <trkpt lat="44.90331" lon="4.88586">
        <ele>128.67</ele>
        <time>2018-09-21T16:33:33Z</time>
      </trkpt>
      <trkpt lat="44.90338" lon="4.88552">
        <ele>128.37</ele>
        <time>2018-09-21T16:33:35Z</time>
      </trkpt>
      <trkpt lat="44.90345" lon="4.8852">
        <ele>128.55</ele>
        <time>2018-09-21T16:33:37Z</time>
      </trkpt>
      <trkpt lat="44.90356" lon="4.88488">
        <ele>128.57</ele>
        <time>2018-09-21T16:33:39Z</time>
      </trkpt>
      <trkpt lat="44.90368" lon="4.88454">
        <ele>128.57</ele>
        <time>2018-09-21T16:33:41Z</time>
      </trkpt>
      <trkpt lat="44.90383" lon="4.88422">
        <ele>128.57</ele>
        <time>2018-09-21T16:33:43Z</time>
      </trkpt>
      <trkpt lat="44.90399" lon="4.88387">
        <ele>127.87</ele>
        <time>2018-09-21T16:33:45Z</time>
      </trkpt>
      <trkpt lat="44.90415" lon="4.88353">
        <ele>127.6</ele>
        <time>2018-09-21T16:33:47Z</time>
      </trkpt>
      <trkpt lat="44.90428" lon="4.88322">
        <ele>126.66</ele>
        <time>2018-09-21T16:33:49Z</time>
      </trkpt>
      <trkpt lat="44.90441" lon="4.88292">
        <ele>125.88</ele>
        <time>2018-09-21T16:33:51Z</time>
      </trkpt>
      <trkpt lat="44.90451" lon="4.88266">
        <ele>125.81</ele>
        <time>2018-09-21T16:33:53Z</time>
      </trkpt>
      <trkpt lat="44.90461" lon="4.88243">
        <ele>125.59</ele>
        <time>2018-09-21T16:33:55Z</time>
      </trkpt>
      <trkpt lat="44.90473" lon="4.88215">
        <ele>124.87</ele>
        <time>2018-09-21T16:33:58Z</time>
      </trkpt>
      <trkpt lat="44.90484" lon="4.88189">
        <ele>123.17</ele>
        <time>2018-09-21T16:34:02Z</time>
      </trkpt>
      <trkpt lat="44.90493" lon="4.88164">
        <ele>122.3</ele>
        <time>2018-09-21T16:34:06Z</time>
      </trkpt>
      <trkpt lat="44.90504" lon="4.88134">
        <ele>121.59</ele>
        <time>2018-09-21T16:34:10Z</time>
      </trkpt>
      <trkpt lat="44.90511" lon="4.88108">
        <ele>120.58</ele>
        <time>2018-09-21T16:34:14Z</time>
      </trkpt>
      <trkpt lat="44.90512" lon="4.8808">
        <ele>120.78</ele>
        <time>2018-09-21T16:34:18Z</time>
      </trkpt>
      <trkpt lat="44.90512" lon="4.8805">
        <ele>120.57</ele>
        <time>2018-09-21T16:34:22Z</time>
      </trkpt>
      <trkpt lat="44.90512" lon="4.88024">
        <ele>122.58</ele>
        <time>2018-09-21T16:34:46Z</time>
      </trkpt>
      <trkpt lat="44.90513" lon="4.87994">
        <ele>115.48</ele>
        <time>2018-09-21T16:35:14Z</time>
      </trkpt>
      <trkpt lat="44.90512" lon="4.87967">
        <ele>115.78</ele>
        <time>2018-09-21T16:35:17Z</time>
      </trkpt>
      <trkpt lat="44.90508" lon="4.87941">
        <ele>116.84</ele>
        <time>2018-09-21T16:35:23Z</time>
      </trkpt>
      <trkpt lat="44.90506" lon="4.87907">
        <ele>116.57</ele>
        <time>2018-09-21T16:35:27Z</time>
      </trkpt>
      <trkpt lat="44.905" lon="4.87876">
        <ele>116.57</ele>
        <time>2018-09-21T16:35:30Z</time>
      </trkpt>
      <trkpt lat="44.90493" lon="4.87852">
        <ele>116.57</ele>
        <time>2018-09-21T16:35:32Z</time>
      </trkpt>
      <trkpt lat="44.90484" lon="4.87822">
        <ele>115.6</ele>
        <time>2018-09-21T16:35:35Z</time>
      </trkpt>
      <trkpt lat="44.90476" lon="4.87791">
        <ele>113.9</ele>
        <time>2018-09-21T16:35:38Z</time>
      </trkpt>
      <trkpt lat="44.90469" lon="4.87758">
        <ele>112.88</ele>
        <time>2018-09-21T16:35:41Z</time>
      </trkpt>
      <trkpt lat="44.90462" lon="4.87727">
        <ele>111.67</ele>
        <time>2018-09-21T16:35:44Z</time>
      </trkpt>
      <trkpt lat="44.90457" lon="4.87702">
        <ele>112.54</ele>
        <time>2018-09-21T16:35:47Z</time>
      </trkpt>
      <trkpt lat="44.9045" lon="4.87677">
        <ele>112.57</ele>
        <time>2018-09-21T16:36:25Z</time>
      </trkpt>
      <trkpt lat="44.90444" lon="4.87645">
        <ele>112.59</ele>
        <time>2018-09-21T16:36:29Z</time>
      </trkpt>
      <trkpt lat="44.9044" lon="4.87616">
        <ele>113.54</ele>
        <time>2018-09-21T16:36:32Z</time>
      </trkpt>
      <trkpt lat="44.90437" lon="4.87585">
        <ele>113.57</ele>
        <time>2018-09-21T16:36:35Z</time>
      </trkpt>
      <trkpt lat="44.90434" lon="4.8756">
        <ele>114.27</ele>
        <time>2018-09-21T16:36:37Z</time>
      </trkpt>
      <trkpt lat="44.90431" lon="4.87525">
        <ele>113.63</ele>
        <time>2018-09-21T16:36:39Z</time>
      </trkpt>
      <trkpt lat="44.90426" lon="4.87485">
        <ele>114.48</ele>
        <time>2018-09-21T16:36:41Z</time>
      </trkpt>
      <trkpt lat="44.9042" lon="4.87444">
        <ele>113.65</ele>
        <time>2018-09-21T16:36:43Z</time>
      </trkpt>
      <trkpt lat="44.90403" lon="4.8741">
        <ele>113.58</ele>
        <time>2018-09-21T16:36:45Z</time>
      </trkpt>
      <trkpt lat="44.90378" lon="4.87392">
        <ele>113.57</ele>
        <time>2018-09-21T16:36:47Z</time>
      </trkpt>
      <trkpt lat="44.9035" lon="4.8739">
        <ele>112.66</ele>
        <time>2018-09-21T16:36:49Z</time>
      </trkpt>
      <trkpt lat="44.90325" lon="4.87406">
        <ele>111.67</ele>
        <time>2018-09-21T16:36:51Z</time>
      </trkpt>
      <trkpt lat="44.90301" lon="4.87431">
        <ele>110.88</ele>
        <time>2018-09-21T16:36:53Z</time>
      </trkpt>
      <trkpt lat="44.90276" lon="4.87457">
        <ele>111.51</ele>
        <time>2018-09-21T16:36:55Z</time>
      </trkpt>
      <trkpt lat="44.9025" lon="4.87484">
        <ele>110.65</ele>
        <time>2018-09-21T16:36:57Z</time>
      </trkpt>
      <trkpt lat="44.90235" lon="4.87498">
        <ele>111.29</ele>
        <time>2018-09-21T16:36:58Z</time>
      </trkpt>
      <trkpt lat="44.90218" lon="4.8751">
        <ele>110.79</ele>
        <time>2018-09-21T16:36:59Z</time>
      </trkpt>
      <trkpt lat="44.902" lon="4.87516">
        <ele>111.33</ele>
        <time>2018-09-21T16:37:00Z</time>
      </trkpt>
      <trkpt lat="44.90182" lon="4.87517">
        <ele>110.8</ele>
        <time>2018-09-21T16:37:01Z</time>
      </trkpt>
      <trkpt lat="44.90162" lon="4.87516">
        <ele>110.64</ele>
        <time>2018-09-21T16:37:02Z</time>
      </trkpt>
      <trkpt lat="44.90142" lon="4.87512">
        <ele>110.59</ele>
        <time>2018-09-21T16:37:03Z</time>
      </trkpt>
      <trkpt lat="44.90121" lon="4.87508">
        <ele>110.57</ele>
        <time>2018-09-21T16:37:04Z</time>
      </trkpt>
      <trkpt lat="44.90098" lon="4.87505">
        <ele>110.57</ele>
        <time>2018-09-21T16:37:05Z</time>
      </trkpt>
      <trkpt lat="44.90073" lon="4.87501">
        <ele>110.57</ele>
        <time>2018-09-21T16:37:06Z</time>
      </trkpt>
      <trkpt lat="44.90045" lon="4.87496">
        <ele>110.57</ele>
        <time>2018-09-21T16:37:07Z</time>
      </trkpt>
      <trkpt lat="44.90018" lon="4.87489">
        <ele>109.87</ele>
        <time>2018-09-21T16:37:08Z</time>
      </trkpt>
      <trkpt lat="44.89989" lon="4.87482">
        <ele>109.66</ele>
        <time>2018-09-21T16:37:09Z</time>
      </trkpt>
      <trkpt lat="44.89959" lon="4.87473">
        <ele>109.6</ele>
        <time>2018-09-21T16:37:10Z</time>
      </trkpt>
      <trkpt lat="44.89928" lon="4.87464">
        <ele>109.58</ele>
        <time>2018-09-21T16:37:11Z</time>
      </trkpt>
      <trkpt lat="44.89897" lon="4.87454">
        <ele>108.87</ele>
        <time>2018-09-21T16:37:12Z</time>
      </trkpt>
      <trkpt lat="44.89865" lon="4.87445">
        <ele>108.66</ele>
        <time>2018-09-21T16:37:13Z</time>
      </trkpt>
      <trkpt lat="44.89834" lon="4.87435">
        <ele>107.9</ele>
        <time>2018-09-21T16:37:14Z</time>
      </trkpt>
      <trkpt lat="44.89803" lon="4.87424">
        <ele>107.67</ele>
        <time>2018-09-21T16:37:15Z</time>
      </trkpt>
      <trkpt lat="44.89772" lon="4.87412">
        <ele>107.6</ele>
        <time>2018-09-21T16:37:16Z</time>
      </trkpt>
      <trkpt lat="44.8974" lon="4.87401">
        <ele>107.58</ele>
        <time>2018-09-21T16:37:17Z</time>
      </trkpt>
      <trkpt lat="44.89709" lon="4.87388">
        <ele>106.87</ele>
        <time>2018-09-21T16:37:18Z</time>
      </trkpt>
      <trkpt lat="44.89677" lon="4.87376">
        <ele>106.66</ele>
        <time>2018-09-21T16:37:19Z</time>
      </trkpt>
      <trkpt lat="44.89645" lon="4.87363">
        <ele>106.6</ele>
        <time>2018-09-21T16:37:20Z</time>
      </trkpt>
      <trkpt lat="44.89614" lon="4.87349">
        <ele>106.58</ele>
        <time>2018-09-21T16:37:21Z</time>
      </trkpt>
      <trkpt lat="44.89582" lon="4.87335">
        <ele>106.57</ele>
        <time>2018-09-21T16:37:22Z</time>
      </trkpt>
      <trkpt lat="44.89552" lon="4.87321">
        <ele>106.57</ele>
        <time>2018-09-21T16:37:23Z</time>
      </trkpt>
      <trkpt lat="44.89521" lon="4.87307">
        <ele>106.57</ele>
        <time>2018-09-21T16:37:24Z</time>
      </trkpt>
      <trkpt lat="44.8949" lon="4.87293">
        <ele>106.57</ele>
        <time>2018-09-21T16:37:25Z</time>
      </trkpt>
      <trkpt lat="44.8946" lon="4.87279">
        <ele>106.57</ele>
        <time>2018-09-21T16:37:26Z</time>
      </trkpt>
      <trkpt lat="44.89429" lon="4.87265">
        <ele>106.57</ele>
        <time>2018-09-21T16:37:27Z</time>
      </trkpt>
      <trkpt lat="44.89397" lon="4.87251">
        <ele>105.87</ele>
        <time>2018-09-21T16:37:28Z</time>
      </trkpt>
      <trkpt lat="44.89366" lon="4.87237">
        <ele>104.96</ele>
        <time>2018-09-21T16:37:29Z</time>
      </trkpt>
      <trkpt lat="44.89334" lon="4.87222">
        <ele>104.68</ele>
        <time>2018-09-21T16:37:30Z</time>
      </trkpt>
      <trkpt lat="44.89303" lon="4.87208">
        <ele>104.6</ele>
        <time>2018-09-21T16:37:31Z</time>
      </trkpt>
      <trkpt lat="44.89271" lon="4.87194">
        <ele>105.28</ele>
        <time>2018-09-21T16:37:32Z</time>
      </trkpt>
      <trkpt lat="44.8924" lon="4.8718">
        <ele>105.48</ele>
        <time>2018-09-21T16:37:33Z</time>
      </trkpt>
      <trkpt lat="44.89209" lon="4.87166">
        <ele>105.54</ele>
        <time>2018-09-21T16:37:34Z</time>
      </trkpt>
      <trkpt lat="44.89179" lon="4.87152">
        <ele>105.56</ele>
        <time>2018-09-21T16:37:35Z</time>
      </trkpt>
      <trkpt lat="44.89149" lon="4.87138">
        <ele>105.57</ele>
        <time>2018-09-21T16:37:36Z</time>
      </trkpt>
      <trkpt lat="44.89119" lon="4.87124">
        <ele>105.57</ele>
        <time>2018-09-21T16:37:37Z</time>
      </trkpt>
      <trkpt lat="44.89089" lon="4.8711">
        <ele>105.57</ele>
        <time>2018-09-21T16:37:38Z</time>
      </trkpt>
      <trkpt lat="44.89059" lon="4.87097">
        <ele>106.27</ele>
        <time>2018-09-21T16:37:39Z</time>
      </trkpt>
      <trkpt lat="44.89029" lon="4.87083">
        <ele>105.78</ele>
        <time>2018-09-21T16:37:40Z</time>
      </trkpt>
      <trkpt lat="44.89" lon="4.87069">
        <ele>105.63</ele>
        <time>2018-09-21T16:37:41Z</time>
      </trkpt>
      <trkpt lat="44.8897" lon="4.87056">
        <ele>105.59</ele>
        <time>2018-09-21T16:37:42Z</time>
      </trkpt>
      <trkpt lat="44.88941" lon="4.87043">
        <ele>105.57</ele>
        <time>2018-09-21T16:37:43Z</time>
      </trkpt>
      <trkpt lat="44.88913" lon="4.8703">
        <ele>105.57</ele>
        <time>2018-09-21T16:37:44Z</time>
      </trkpt>
      <trkpt lat="44.88886" lon="4.87018">
        <ele>105.57</ele>
        <time>2018-09-21T16:37:45Z</time>
      </trkpt>
      <trkpt lat="44.8886" lon="4.87006">
        <ele>105.57</ele>
        <time>2018-09-21T16:37:46Z</time>
      </trkpt>
      <trkpt lat="44.88834" lon="4.86994">
        <ele>105.57</ele>
        <time>2018-09-21T16:37:47Z</time>
      </trkpt>
      <trkpt lat="44.88808" lon="4.86983">
        <ele>105.57</ele>
        <time>2018-09-21T16:37:48Z</time>
      </trkpt>
      <trkpt lat="44.88783" lon="4.86971">
        <ele>105.57</ele>
        <time>2018-09-21T16:37:49Z</time>
      </trkpt>
      <trkpt lat="44.88758" lon="4.8696">
        <ele>106.27</ele>
        <time>2018-09-21T16:37:50Z</time>
      </trkpt>
      <trkpt lat="44.88732" lon="4.86949">
        <ele>105.78</ele>
        <time>2018-09-21T16:37:51Z</time>
      </trkpt>
      <trkpt lat="44.88707" lon="4.86938">
        <ele>105.63</ele>
        <time>2018-09-21T16:37:52Z</time>
      </trkpt>
      <trkpt lat="44.88681" lon="4.86927">
        <ele>105.59</ele>
        <time>2018-09-21T16:37:53Z</time>
      </trkpt>
      <trkpt lat="44.88653" lon="4.86917">
        <ele>105.57</ele>
        <time>2018-09-21T16:37:54Z</time>
      </trkpt>
      <trkpt lat="44.88625" lon="4.86905">
        <ele>105.57</ele>
        <time>2018-09-21T16:37:55Z</time>
      </trkpt>
      <trkpt lat="44.88596" lon="4.86893">
        <ele>105.57</ele>
        <time>2018-09-21T16:37:56Z</time>
      </trkpt>
      <trkpt lat="44.88568" lon="4.86881">
        <ele>105.57</ele>
        <time>2018-09-21T16:37:57Z</time>
      </trkpt>
      <trkpt lat="44.8854" lon="4.86869">
        <ele>106.27</ele>
        <time>2018-09-21T16:37:58Z</time>
      </trkpt>
      <trkpt lat="44.88513" lon="4.86857">
        <ele>107.18</ele>
        <time>2018-09-21T16:37:59Z</time>
      </trkpt>
      <trkpt lat="44.88487" lon="4.86844">
        <ele>107.45</ele>
        <time>2018-09-21T16:38:00Z</time>
      </trkpt>
      <trkpt lat="44.88462" lon="4.86833">
        <ele>108.23</ele>
        <time>2018-09-21T16:38:01Z</time>
      </trkpt>
      <trkpt lat="44.88436" lon="4.86821">
        <ele>108.47</ele>
        <time>2018-09-21T16:38:02Z</time>
      </trkpt>
      <trkpt lat="44.88411" lon="4.86809">
        <ele>108.54</ele>
        <time>2018-09-21T16:38:03Z</time>
      </trkpt>
      <trkpt lat="44.88386" lon="4.86796">
        <ele>108.56</ele>
        <time>2018-09-21T16:38:04Z</time>
      </trkpt>
      <trkpt lat="44.88361" lon="4.86784">
        <ele>109.27</ele>
        <time>2018-09-21T16:38:05Z</time>
      </trkpt>
      <trkpt lat="44.88337" lon="4.86772">
        <ele>109.48</ele>
        <time>2018-09-21T16:38:06Z</time>
      </trkpt>
      <trkpt lat="44.88311" lon="4.86759">
        <ele>110.24</ele>
        <time>2018-09-21T16:38:07Z</time>
      </trkpt>
      <trkpt lat="44.88286" lon="4.86747">
        <ele>110.47</ele>
        <time>2018-09-21T16:38:08Z</time>
      </trkpt>
      <trkpt lat="44.88261" lon="4.86734">
        <ele>109.84</ele>
        <time>2018-09-21T16:38:09Z</time>
      </trkpt>
      <trkpt lat="44.88235" lon="4.86722">
        <ele>110.35</ele>
        <time>2018-09-21T16:38:10Z</time>
      </trkpt>
      <trkpt lat="44.8821" lon="4.86711">
        <ele>110.5</ele>
        <time>2018-09-21T16:38:11Z</time>
      </trkpt>
      <trkpt lat="44.88185" lon="4.86699">
        <ele>110.55</ele>
        <time>2018-09-21T16:38:12Z</time>
      </trkpt>
      <trkpt lat="44.88159" lon="4.86687">
        <ele>110.56</ele>
        <time>2018-09-21T16:38:13Z</time>
      </trkpt>
      <trkpt lat="44.88134" lon="4.86676">
        <ele>111.27</ele>
        <time>2018-09-21T16:38:14Z</time>
      </trkpt>
      <trkpt lat="44.88109" lon="4.86665">
        <ele>111.48</ele>
        <time>2018-09-21T16:38:15Z</time>
      </trkpt>
      <trkpt lat="44.88083" lon="4.86654">
        <ele>111.54</ele>
        <time>2018-09-21T16:38:16Z</time>
      </trkpt>
      <trkpt lat="44.88058" lon="4.86644">
        <ele>111.56</ele>
        <time>2018-09-21T16:38:17Z</time>
      </trkpt>
      <trkpt lat="44.88033" lon="4.86634">
        <ele>112.27</ele>
        <time>2018-09-21T16:38:18Z</time>
      </trkpt>
      <trkpt lat="44.88008" lon="4.86624">
        <ele>112.48</ele>
        <time>2018-09-21T16:38:19Z</time>
      </trkpt>
      <trkpt lat="44.87983" lon="4.86615">
        <ele>112.54</ele>
        <time>2018-09-21T16:38:20Z</time>
      </trkpt>
      <trkpt lat="44.87958" lon="4.86605">
        <ele>112.56</ele>
        <time>2018-09-21T16:38:21Z</time>
      </trkpt>
      <trkpt lat="44.87934" lon="4.86595">
        <ele>112.57</ele>
        <time>2018-09-21T16:38:22Z</time>
      </trkpt>
      <trkpt lat="44.87909" lon="4.86586">
        <ele>112.57</ele>
        <time>2018-09-21T16:38:23Z</time>
      </trkpt>
      <trkpt lat="44.87884" lon="4.86577">
        <ele>112.57</ele>
        <time>2018-09-21T16:38:24Z</time>
      </trkpt>
      <trkpt lat="44.87858" lon="4.86568">
        <ele>112.57</ele>
        <time>2018-09-21T16:38:25Z</time>
      </trkpt>
      <trkpt lat="44.87832" lon="4.86559">
        <ele>112.57</ele>
        <time>2018-09-21T16:38:26Z</time>
      </trkpt>
      <trkpt lat="44.87806" lon="4.86551">
        <ele>111.87</ele>
        <time>2018-09-21T16:38:27Z</time>
      </trkpt>
      <trkpt lat="44.87781" lon="4.86544">
        <ele>112.36</ele>
        <time>2018-09-21T16:38:28Z</time>
      </trkpt>
      <trkpt lat="44.87755" lon="4.86537">
        <ele>111.81</ele>
        <time>2018-09-21T16:38:29Z</time>
      </trkpt>
      <trkpt lat="44.87729" lon="4.8653">
        <ele>111.64</ele>
        <time>2018-09-21T16:38:30Z</time>
      </trkpt>
      <trkpt lat="44.87703" lon="4.86523">
        <ele>111.59</ele>
        <time>2018-09-21T16:38:31Z</time>
      </trkpt>
      <trkpt lat="44.87678" lon="4.86517">
        <ele>111.57</ele>
        <time>2018-09-21T16:38:32Z</time>
      </trkpt>
      <trkpt lat="44.87652" lon="4.86511">
        <ele>110.87</ele>
        <time>2018-09-21T16:38:33Z</time>
      </trkpt>
      <trkpt lat="44.87626" lon="4.86505">
        <ele>110.66</ele>
        <time>2018-09-21T16:38:34Z</time>
      </trkpt>
      <trkpt lat="44.876" lon="4.865">
        <ele>109.9</ele>
        <time>2018-09-21T16:38:35Z</time>
      </trkpt>
      <trkpt lat="44.87573" lon="4.86495">
        <ele>109.67</ele>
        <time>2018-09-21T16:38:36Z</time>
      </trkpt>
      <trkpt lat="44.87547" lon="4.8649">
        <ele>109.6</ele>
        <time>2018-09-21T16:38:37Z</time>
      </trkpt>
      <trkpt lat="44.87521" lon="4.86486">
        <ele>108.88</ele>
        <time>2018-09-21T16:38:38Z</time>
      </trkpt>
      <trkpt lat="44.87494" lon="4.86483">
        <ele>108.66</ele>
        <time>2018-09-21T16:38:39Z</time>
      </trkpt>
      <trkpt lat="44.87468" lon="4.8648">
        <ele>108.6</ele>
        <time>2018-09-21T16:38:40Z</time>
      </trkpt>
      <trkpt lat="44.87442" lon="4.86477">
        <ele>108.58</ele>
        <time>2018-09-21T16:38:41Z</time>
      </trkpt>
      <trkpt lat="44.87415" lon="4.86475">
        <ele>108.57</ele>
        <time>2018-09-21T16:38:42Z</time>
      </trkpt>
      <trkpt lat="44.87389" lon="4.86473">
        <ele>108.57</ele>
        <time>2018-09-21T16:38:43Z</time>
      </trkpt>
      <trkpt lat="44.87362" lon="4.86472">
        <ele>108.57</ele>
        <time>2018-09-21T16:38:44Z</time>
      </trkpt>
      <trkpt lat="44.87335" lon="4.8647">
        <ele>107.87</ele>
        <time>2018-09-21T16:38:45Z</time>
      </trkpt>
      <trkpt lat="44.87309" lon="4.86469">
        <ele>107.66</ele>
        <time>2018-09-21T16:38:46Z</time>
      </trkpt>
      <trkpt lat="44.87282" lon="4.86468">
        <ele>107.6</ele>
        <time>2018-09-21T16:38:47Z</time>
      </trkpt>
      <trkpt lat="44.87255" lon="4.86468">
        <ele>107.58</ele>
        <time>2018-09-21T16:38:48Z</time>
      </trkpt>
      <trkpt lat="44.87229" lon="4.86468">
        <ele>107.57</ele>
        <time>2018-09-21T16:38:49Z</time>
      </trkpt>
      <trkpt lat="44.87202" lon="4.86468">
        <ele>107.57</ele>
        <time>2018-09-21T16:38:50Z</time>
      </trkpt>
      <trkpt lat="44.87176" lon="4.86469">
        <ele>107.57</ele>
        <time>2018-09-21T16:38:51Z</time>
      </trkpt>
      <trkpt lat="44.8715" lon="4.86469">
        <ele>107.57</ele>
        <time>2018-09-21T16:38:52Z</time>
      </trkpt>
      <trkpt lat="44.87124" lon="4.8647">
        <ele>107.57</ele>
        <time>2018-09-21T16:38:53Z</time>
      </trkpt>
      <trkpt lat="44.87098" lon="4.86473">
        <ele>107.57</ele>
        <time>2018-09-21T16:38:54Z</time>
      </trkpt>
      <trkpt lat="44.87072" lon="4.86475">
        <ele>107.57</ele>
        <time>2018-09-21T16:38:55Z</time>
      </trkpt>
      <trkpt lat="44.87047" lon="4.86478">
        <ele>107.57</ele>
        <time>2018-09-21T16:38:56Z</time>
      </trkpt>
      <trkpt lat="44.87021" lon="4.86481">
        <ele>107.57</ele>
        <time>2018-09-21T16:38:57Z</time>
      </trkpt>
      <trkpt lat="44.86996" lon="4.86484">
        <ele>106.87</ele>
        <time>2018-09-21T16:38:58Z</time>
      </trkpt>
      <trkpt lat="44.86971" lon="4.86487">
        <ele>106.66</ele>
        <time>2018-09-21T16:38:59Z</time>
      </trkpt>
      <trkpt lat="44.86946" lon="4.86491">
        <ele>107.29</ele>
        <time>2018-09-21T16:39:00Z</time>
      </trkpt>
      <trkpt lat="44.86921" lon="4.86495">
        <ele>107.49</ele>
        <time>2018-09-21T16:39:01Z</time>
      </trkpt>
      <trkpt lat="44.86896" lon="4.86499">
        <ele>108.24</ele>
        <time>2018-09-21T16:39:02Z</time>
      </trkpt>
      <trkpt lat="44.86872" lon="4.86503">
        <ele>108.47</ele>
        <time>2018-09-21T16:39:03Z</time>
      </trkpt>
      <trkpt lat="44.86848" lon="4.86508">
        <ele>108.54</ele>
        <time>2018-09-21T16:39:04Z</time>
      </trkpt>
      <trkpt lat="44.86823" lon="4.86513">
        <ele>107.86</ele>
        <time>2018-09-21T16:39:05Z</time>
      </trkpt>
      <trkpt lat="44.86799" lon="4.86518">
        <ele>108.36</ele>
        <time>2018-09-21T16:39:06Z</time>
      </trkpt>
      <trkpt lat="44.86774" lon="4.86523">
        <ele>108.5</ele>
        <time>2018-09-21T16:39:07Z</time>
      </trkpt>
      <trkpt lat="44.86748" lon="4.86529">
        <ele>108.55</ele>
        <time>2018-09-21T16:39:08Z</time>
      </trkpt>
      <trkpt lat="44.86722" lon="4.86534">
        <ele>108.56</ele>
        <time>2018-09-21T16:39:09Z</time>
      </trkpt>
      <trkpt lat="44.86696" lon="4.8654">
        <ele>108.57</ele>
        <time>2018-09-21T16:39:10Z</time>
      </trkpt>
      <trkpt lat="44.8667" lon="4.86545">
        <ele>108.57</ele>
        <time>2018-09-21T16:39:11Z</time>
      </trkpt>
      <trkpt lat="44.86645" lon="4.86552">
        <ele>108.57</ele>
        <time>2018-09-21T16:39:12Z</time>
      </trkpt>
      <trkpt lat="44.86619" lon="4.86558">
        <ele>108.57</ele>
        <time>2018-09-21T16:39:13Z</time>
      </trkpt>
      <trkpt lat="44.86595" lon="4.86563">
        <ele>108.57</ele>
        <time>2018-09-21T16:39:14Z</time>
      </trkpt>
      <trkpt lat="44.8657" lon="4.86569">
        <ele>108.57</ele>
        <time>2018-09-21T16:39:15Z</time>
      </trkpt>
      <trkpt lat="44.86545" lon="4.86575">
        <ele>108.57</ele>
        <time>2018-09-21T16:39:16Z</time>
      </trkpt>
      <trkpt lat="44.8652" lon="4.86581">
        <ele>109.27</ele>
        <time>2018-09-21T16:39:17Z</time>
      </trkpt>
      <trkpt lat="44.86495" lon="4.86588">
        <ele>109.48</ele>
        <time>2018-09-21T16:39:18Z</time>
      </trkpt>
      <trkpt lat="44.8647" lon="4.86594">
        <ele>109.54</ele>
        <time>2018-09-21T16:39:19Z</time>
      </trkpt>
      <trkpt lat="44.86445" lon="4.866">
        <ele>109.56</ele>
        <time>2018-09-21T16:39:20Z</time>
      </trkpt>
      <trkpt lat="44.8642" lon="4.86606">
        <ele>109.57</ele>
        <time>2018-09-21T16:39:21Z</time>
      </trkpt>
      <trkpt lat="44.86395" lon="4.86611">
        <ele>109.57</ele>
        <time>2018-09-21T16:39:22Z</time>
      </trkpt>
      <trkpt lat="44.8637" lon="4.86617">
        <ele>109.57</ele>
        <time>2018-09-21T16:39:23Z</time>
      </trkpt>
      <trkpt lat="44.86345" lon="4.86622">
        <ele>109.57</ele>
        <time>2018-09-21T16:39:24Z</time>
      </trkpt>
      <trkpt lat="44.8632" lon="4.86627">
        <ele>108.87</ele>
        <time>2018-09-21T16:39:25Z</time>
      </trkpt>
      <trkpt lat="44.86295" lon="4.86632">
        <ele>108.66</ele>
        <time>2018-09-21T16:39:26Z</time>
      </trkpt>
      <trkpt lat="44.86269" lon="4.86636">
        <ele>108.6</ele>
        <time>2018-09-21T16:39:27Z</time>
      </trkpt>
      <trkpt lat="44.86244" lon="4.86641">
        <ele>108.58</ele>
        <time>2018-09-21T16:39:28Z</time>
      </trkpt>
      <trkpt lat="44.86218" lon="4.86644">
        <ele>107.87</ele>
        <time>2018-09-21T16:39:29Z</time>
      </trkpt>
      <trkpt lat="44.86193" lon="4.86648">
        <ele>107.66</ele>
        <time>2018-09-21T16:39:30Z</time>
      </trkpt>
      <trkpt lat="44.86168" lon="4.86652">
        <ele>107.6</ele>
        <time>2018-09-21T16:39:31Z</time>
      </trkpt>
      <trkpt lat="44.86142" lon="4.86655">
        <ele>106.88</ele>
        <time>2018-09-21T16:39:32Z</time>
      </trkpt>
      <trkpt lat="44.86117" lon="4.86658">
        <ele>106.66</ele>
        <time>2018-09-21T16:39:33Z</time>
      </trkpt>
      <trkpt lat="44.86091" lon="4.86661">
        <ele>106.6</ele>
        <time>2018-09-21T16:39:34Z</time>
      </trkpt>
      <trkpt lat="44.86066" lon="4.86664">
        <ele>106.58</ele>
        <time>2018-09-21T16:39:35Z</time>
      </trkpt>
      <trkpt lat="44.86041" lon="4.86667">
        <ele>105.87</ele>
        <time>2018-09-21T16:39:36Z</time>
      </trkpt>
      <trkpt lat="44.86015" lon="4.86668">
        <ele>105.66</ele>
        <time>2018-09-21T16:39:37Z</time>
      </trkpt>
      <trkpt lat="44.8599" lon="4.8667">
        <ele>104.9</ele>
        <time>2018-09-21T16:39:38Z</time>
      </trkpt>
      <trkpt lat="44.85965" lon="4.86672">
        <ele>105.37</ele>
        <time>2018-09-21T16:39:39Z</time>
      </trkpt>
      <trkpt lat="44.85939" lon="4.86673">
        <ele>105.51</ele>
        <time>2018-09-21T16:39:40Z</time>
      </trkpt>
      <trkpt lat="44.85914" lon="4.86674">
        <ele>104.85</ele>
        <time>2018-09-21T16:39:41Z</time>
      </trkpt>
      <trkpt lat="44.85888" lon="4.86675">
        <ele>104.65</ele>
        <time>2018-09-21T16:39:42Z</time>
      </trkpt>
      <trkpt lat="44.85863" lon="4.86676">
        <ele>104.59</ele>
        <time>2018-09-21T16:39:43Z</time>
      </trkpt>
      <trkpt lat="44.85838" lon="4.86676">
        <ele>105.28</ele>
        <time>2018-09-21T16:39:44Z</time>
      </trkpt>
      <trkpt lat="44.85813" lon="4.86676">
        <ele>105.48</ele>
        <time>2018-09-21T16:39:45Z</time>
      </trkpt>
      <trkpt lat="44.85788" lon="4.86676">
        <ele>106.24</ele>
        <time>2018-09-21T16:39:46Z</time>
      </trkpt>
      <trkpt lat="44.85764" lon="4.86675">
        <ele>106.47</ele>
        <time>2018-09-21T16:39:47Z</time>
      </trkpt>
      <trkpt lat="44.85739" lon="4.86674">
        <ele>107.24</ele>
        <time>2018-09-21T16:39:48Z</time>
      </trkpt>
      <trkpt lat="44.85715" lon="4.86673">
        <ele>106.77</ele>
        <time>2018-09-21T16:39:49Z</time>
      </trkpt>
      <trkpt lat="44.8569" lon="4.86671">
        <ele>105.93</ele>
        <time>2018-09-21T16:39:50Z</time>
      </trkpt>
      <trkpt lat="44.85666" lon="4.8667">
        <ele>105.68</ele>
        <time>2018-09-21T16:39:51Z</time>
      </trkpt>
      <trkpt lat="44.85642" lon="4.86668">
        <ele>106.3</ele>
        <time>2018-09-21T16:39:52Z</time>
      </trkpt>
      <trkpt lat="44.85617" lon="4.86665">
        <ele>106.49</ele>
        <time>2018-09-21T16:39:53Z</time>
      </trkpt>
      <trkpt lat="44.85593" lon="4.86664">
        <ele>106.54</ele>
        <time>2018-09-21T16:39:54Z</time>
      </trkpt>
      <trkpt lat="44.85568" lon="4.86661">
        <ele>107.26</ele>
        <time>2018-09-21T16:39:55Z</time>
      </trkpt>
      <trkpt lat="44.85544" lon="4.86658">
        <ele>107.48</ele>
        <time>2018-09-21T16:39:56Z</time>
      </trkpt>
      <trkpt lat="44.8552" lon="4.86655">
        <ele>108.24</ele>
        <time>2018-09-21T16:39:57Z</time>
      </trkpt>
      <trkpt lat="44.85496" lon="4.86651">
        <ele>108.47</ele>
        <time>2018-09-21T16:39:58Z</time>
      </trkpt>
      <trkpt lat="44.85472" lon="4.86647">
        <ele>108.54</ele>
        <time>2018-09-21T16:39:59Z</time>
      </trkpt>
      <trkpt lat="44.85447" lon="4.86643">
        <ele>109.26</ele>
        <time>2018-09-21T16:40:00Z</time>
      </trkpt>
      <trkpt lat="44.85422" lon="4.8664">
        <ele>109.48</ele>
        <time>2018-09-21T16:40:01Z</time>
      </trkpt>
      <trkpt lat="44.85398" lon="4.86636">
        <ele>109.54</ele>
        <time>2018-09-21T16:40:02Z</time>
      </trkpt>
      <trkpt lat="44.85373" lon="4.86631">
        <ele>109.56</ele>
        <time>2018-09-21T16:40:03Z</time>
      </trkpt>
      <trkpt lat="44.85349" lon="4.86627">
        <ele>109.57</ele>
        <time>2018-09-21T16:40:04Z</time>
      </trkpt>
      <trkpt lat="44.85324" lon="4.86622">
        <ele>110.27</ele>
        <time>2018-09-21T16:40:05Z</time>
      </trkpt>
      <trkpt lat="44.85299" lon="4.86617">
        <ele>109.78</ele>
        <time>2018-09-21T16:40:06Z</time>
      </trkpt>
      <trkpt lat="44.85274" lon="4.86613">
        <ele>110.33</ele>
        <time>2018-09-21T16:40:07Z</time>
      </trkpt>
      <trkpt lat="44.85249" lon="4.86608">
        <ele>109.8</ele>
        <time>2018-09-21T16:40:08Z</time>
      </trkpt>
      <trkpt lat="44.85224" lon="4.86602">
        <ele>109.64</ele>
        <time>2018-09-21T16:40:09Z</time>
      </trkpt>
      <trkpt lat="44.85199" lon="4.86597">
        <ele>109.59</ele>
        <time>2018-09-21T16:40:10Z</time>
      </trkpt>
      <trkpt lat="44.85173" lon="4.86591">
        <ele>109.57</ele>
        <time>2018-09-21T16:40:11Z</time>
      </trkpt>
      <trkpt lat="44.85147" lon="4.86586">
        <ele>109.57</ele>
        <time>2018-09-21T16:40:12Z</time>
      </trkpt>
      <trkpt lat="44.8512" lon="4.86581">
        <ele>108.87</ele>
        <time>2018-09-21T16:40:13Z</time>
      </trkpt>
      <trkpt lat="44.85092" lon="4.86576">
        <ele>108.66</ele>
        <time>2018-09-21T16:40:14Z</time>
      </trkpt>
      <trkpt lat="44.85063" lon="4.8657">
        <ele>108.6</ele>
        <time>2018-09-21T16:40:15Z</time>
      </trkpt>
      <trkpt lat="44.85033" lon="4.86564">
        <ele>108.58</ele>
        <time>2018-09-21T16:40:16Z</time>
      </trkpt>
      <trkpt lat="44.85001" lon="4.86558">
        <ele>108.57</ele>
        <time>2018-09-21T16:40:17Z</time>
      </trkpt>
      <trkpt lat="44.84967" lon="4.86551">
        <ele>108.57</ele>
        <time>2018-09-21T16:40:18Z</time>
      </trkpt>
      <trkpt lat="44.84933" lon="4.86543">
        <ele>108.57</ele>
        <time>2018-09-21T16:40:19Z</time>
      </trkpt>
      <trkpt lat="44.849" lon="4.86536">
        <ele>108.57</ele>
        <time>2018-09-21T16:40:20Z</time>
      </trkpt>
      <trkpt lat="44.84866" lon="4.8653">
        <ele>108.57</ele>
        <time>2018-09-21T16:40:21Z</time>
      </trkpt>
      <trkpt lat="44.84832" lon="4.86523">
        <ele>108.57</ele>
        <time>2018-09-21T16:40:22Z</time>
      </trkpt>
      <trkpt lat="44.84799" lon="4.86515">
        <ele>107.87</ele>
        <time>2018-09-21T16:40:23Z</time>
      </trkpt>
      <trkpt lat="44.84767" lon="4.86508">
        <ele>108.36</ele>
        <time>2018-09-21T16:40:24Z</time>
      </trkpt>
      <trkpt lat="44.84734" lon="4.86501">
        <ele>108.5</ele>
        <time>2018-09-21T16:40:25Z</time>
      </trkpt>
      <trkpt lat="44.84703" lon="4.86494">
        <ele>108.55</ele>
        <time>2018-09-21T16:40:26Z</time>
      </trkpt>
      <trkpt lat="44.84671" lon="4.86488">
        <ele>108.56</ele>
        <time>2018-09-21T16:40:27Z</time>
      </trkpt>
      <trkpt lat="44.84639" lon="4.8648">
        <ele>108.57</ele>
        <time>2018-09-21T16:40:28Z</time>
      </trkpt>
      <trkpt lat="44.84608" lon="4.86473">
        <ele>107.87</ele>
        <time>2018-09-21T16:40:29Z</time>
      </trkpt>
      <trkpt lat="44.84575" lon="4.86466">
        <ele>108.36</ele>
        <time>2018-09-21T16:40:30Z</time>
      </trkpt>
      <trkpt lat="44.84543" lon="4.86458">
        <ele>108.5</ele>
        <time>2018-09-21T16:40:31Z</time>
      </trkpt>
      <trkpt lat="44.84511" lon="4.86451">
        <ele>108.55</ele>
        <time>2018-09-21T16:40:32Z</time>
      </trkpt>
      <trkpt lat="44.84478" lon="4.86443">
        <ele>108.56</ele>
        <time>2018-09-21T16:40:33Z</time>
      </trkpt>
      <trkpt lat="44.84445" lon="4.86436">
        <ele>108.57</ele>
        <time>2018-09-21T16:40:34Z</time>
      </trkpt>
      <trkpt lat="44.84412" lon="4.86429">
        <ele>108.57</ele>
        <time>2018-09-21T16:40:35Z</time>
      </trkpt>
      <trkpt lat="44.8438" lon="4.86422">
        <ele>108.57</ele>
        <time>2018-09-21T16:40:36Z</time>
      </trkpt>
      <trkpt lat="44.84346" lon="4.86415">
        <ele>108.57</ele>
        <time>2018-09-21T16:40:37Z</time>
      </trkpt>
      <trkpt lat="44.84313" lon="4.86408">
        <ele>108.57</ele>
        <time>2018-09-21T16:40:38Z</time>
      </trkpt>
      <trkpt lat="44.8428" lon="4.86402">
        <ele>109.27</ele>
        <time>2018-09-21T16:40:39Z</time>
      </trkpt>
      <trkpt lat="44.84247" lon="4.86394">
        <ele>109.48</ele>
        <time>2018-09-21T16:40:40Z</time>
      </trkpt>
      <trkpt lat="44.84215" lon="4.86387">
        <ele>109.54</ele>
        <time>2018-09-21T16:40:41Z</time>
      </trkpt>
      <trkpt lat="44.84182" lon="4.86379">
        <ele>109.56</ele>
        <time>2018-09-21T16:40:42Z</time>
      </trkpt>
      <trkpt lat="44.84148" lon="4.86372">
        <ele>109.57</ele>
        <time>2018-09-21T16:40:43Z</time>
      </trkpt>
      <trkpt lat="44.84116" lon="4.86364">
        <ele>110.27</ele>
        <time>2018-09-21T16:40:44Z</time>
      </trkpt>
      <trkpt lat="44.84083" lon="4.86357">
        <ele>110.48</ele>
        <time>2018-09-21T16:40:45Z</time>
      </trkpt>
      <trkpt lat="44.8405" lon="4.86351">
        <ele>111.24</ele>
        <time>2018-09-21T16:40:46Z</time>
      </trkpt>
      <trkpt lat="44.84017" lon="4.86343">
        <ele>111.47</ele>
        <time>2018-09-21T16:40:47Z</time>
      </trkpt>
      <trkpt lat="44.83984" lon="4.86336">
        <ele>111.54</ele>
        <time>2018-09-21T16:40:48Z</time>
      </trkpt>
      <trkpt lat="44.83952" lon="4.86328">
        <ele>112.26</ele>
        <time>2018-09-21T16:40:49Z</time>
      </trkpt>
      <trkpt lat="44.83919" lon="4.8632">
        <ele>112.48</ele>
        <time>2018-09-21T16:40:50Z</time>
      </trkpt>
      <trkpt lat="44.83885" lon="4.86313">
        <ele>112.54</ele>
        <time>2018-09-21T16:40:51Z</time>
      </trkpt>
      <trkpt lat="44.83852" lon="4.86305">
        <ele>113.26</ele>
        <time>2018-09-21T16:40:52Z</time>
      </trkpt>
      <trkpt lat="44.83819" lon="4.86297">
        <ele>112.78</ele>
        <time>2018-09-21T16:40:53Z</time>
      </trkpt>
      <trkpt lat="44.83786" lon="4.8629">
        <ele>112.63</ele>
        <time>2018-09-21T16:40:54Z</time>
      </trkpt>
      <trkpt lat="44.83752" lon="4.86282">
        <ele>113.29</ele>
        <time>2018-09-21T16:40:55Z</time>
      </trkpt>
      <trkpt lat="44.83719" lon="4.86274">
        <ele>113.48</ele>
        <time>2018-09-21T16:40:56Z</time>
      </trkpt>
      <trkpt lat="44.83685" lon="4.86266">
        <ele>112.84</ele>
        <time>2018-09-21T16:40:57Z</time>
      </trkpt>
      <trkpt lat="44.83651" lon="4.86258">
        <ele>113.35</ele>
        <time>2018-09-21T16:40:58Z</time>
      </trkpt>
      <trkpt lat="44.83617" lon="4.8625">
        <ele>113.5</ele>
        <time>2018-09-21T16:40:59Z</time>
      </trkpt>
      <trkpt lat="44.83583" lon="4.86242">
        <ele>113.55</ele>
        <time>2018-09-21T16:41:00Z</time>
      </trkpt>
      <trkpt lat="44.8355" lon="4.86234">
        <ele>112.86</ele>
        <time>2018-09-21T16:41:01Z</time>
      </trkpt>
      <trkpt lat="44.83517" lon="4.86226">
        <ele>111.96</ele>
        <time>2018-09-21T16:41:02Z</time>
      </trkpt>
      <trkpt lat="44.83484" lon="4.86218">
        <ele>111.68</ele>
        <time>2018-09-21T16:41:03Z</time>
      </trkpt>
      <trkpt lat="44.83451" lon="4.8621">
        <ele>111.6</ele>
        <time>2018-09-21T16:41:04Z</time>
      </trkpt>
      <trkpt lat="44.83418" lon="4.86202">
        <ele>111.58</ele>
        <time>2018-09-21T16:41:05Z</time>
      </trkpt>
      <trkpt lat="44.83385" lon="4.86194">
        <ele>111.57</ele>
        <time>2018-09-21T16:41:06Z</time>
      </trkpt>
      <trkpt lat="44.83353" lon="4.86187">
        <ele>111.57</ele>
        <time>2018-09-21T16:41:07Z</time>
      </trkpt>
      <trkpt lat="44.83322" lon="4.86179">
        <ele>111.57</ele>
        <time>2018-09-21T16:41:08Z</time>
      </trkpt>
      <trkpt lat="44.83293" lon="4.86171">
        <ele>111.57</ele>
        <time>2018-09-21T16:41:09Z</time>
      </trkpt>
      <trkpt lat="44.83264" lon="4.86165">
        <ele>111.57</ele>
        <time>2018-09-21T16:41:10Z</time>
      </trkpt>
      <trkpt lat="44.83235" lon="4.86157">
        <ele>111.57</ele>
        <time>2018-09-21T16:41:11Z</time>
      </trkpt>
      <trkpt lat="44.83207" lon="4.8615">
        <ele>111.57</ele>
        <time>2018-09-21T16:41:12Z</time>
      </trkpt>
      <trkpt lat="44.83178" lon="4.86143">
        <ele>111.57</ele>
        <time>2018-09-21T16:41:13Z</time>
      </trkpt>
      <trkpt lat="44.8315" lon="4.86137">
        <ele>111.57</ele>
        <time>2018-09-21T16:41:14Z</time>
      </trkpt>
      <trkpt lat="44.83122" lon="4.8613">
        <ele>111.57</ele>
        <time>2018-09-21T16:41:15Z</time>
      </trkpt>
      <trkpt lat="44.83093" lon="4.86122">
        <ele>111.57</ele>
        <time>2018-09-21T16:41:16Z</time>
      </trkpt>
      <trkpt lat="44.83064" lon="4.86115">
        <ele>111.57</ele>
        <time>2018-09-21T16:41:17Z</time>
      </trkpt>
      <trkpt lat="44.83034" lon="4.86108">
        <ele>111.57</ele>
        <time>2018-09-21T16:41:18Z</time>
      </trkpt>
      <trkpt lat="44.83004" lon="4.861">
        <ele>111.57</ele>
        <time>2018-09-21T16:41:19Z</time>
      </trkpt>
      <trkpt lat="44.82973" lon="4.86093">
        <ele>111.57</ele>
        <time>2018-09-21T16:41:20Z</time>
      </trkpt>
      <trkpt lat="44.82943" lon="4.86086">
        <ele>111.57</ele>
        <time>2018-09-21T16:41:21Z</time>
      </trkpt>
      <trkpt lat="44.82913" lon="4.86079">
        <ele>111.57</ele>
        <time>2018-09-21T16:41:22Z</time>
      </trkpt>
      <trkpt lat="44.82883" lon="4.86072">
        <ele>111.57</ele>
        <time>2018-09-21T16:41:23Z</time>
      </trkpt>
      <trkpt lat="44.82852" lon="4.86065">
        <ele>111.57</ele>
        <time>2018-09-21T16:41:24Z</time>
      </trkpt>
      <trkpt lat="44.82823" lon="4.86058">
        <ele>111.57</ele>
        <time>2018-09-21T16:41:25Z</time>
      </trkpt>
      <trkpt lat="44.82792" lon="4.86051">
        <ele>111.57</ele>
        <time>2018-09-21T16:41:26Z</time>
      </trkpt>
      <trkpt lat="44.82763" lon="4.86044">
        <ele>111.57</ele>
        <time>2018-09-21T16:41:27Z</time>
      </trkpt>
      <trkpt lat="44.82733" lon="4.86037">
        <ele>111.57</ele>
        <time>2018-09-21T16:41:28Z</time>
      </trkpt>
      <trkpt lat="44.82703" lon="4.86028">
        <ele>111.57</ele>
        <time>2018-09-21T16:41:29Z</time>
      </trkpt>
      <trkpt lat="44.82672" lon="4.86021">
        <ele>110.87</ele>
        <time>2018-09-21T16:41:30Z</time>
      </trkpt>
      <trkpt lat="44.82641" lon="4.86013">
        <ele>110.66</ele>
        <time>2018-09-21T16:41:31Z</time>
      </trkpt>
      <trkpt lat="44.82611" lon="4.86005">
        <ele>111.29</ele>
        <time>2018-09-21T16:41:32Z</time>
      </trkpt>
      <trkpt lat="44.82581" lon="4.85997">
        <ele>110.79</ele>
        <time>2018-09-21T16:41:33Z</time>
      </trkpt>
      <trkpt lat="44.8255" lon="4.8599">
        <ele>111.33</ele>
        <time>2018-09-21T16:41:34Z</time>
      </trkpt>
      <trkpt lat="44.82521" lon="4.85982">
        <ele>110.8</ele>
        <time>2018-09-21T16:41:35Z</time>
      </trkpt>
      <trkpt lat="44.8249" lon="4.85975">
        <ele>110.64</ele>
        <time>2018-09-21T16:41:36Z</time>
      </trkpt>
      <trkpt lat="44.82459" lon="4.85967">
        <ele>110.59</ele>
        <time>2018-09-21T16:41:37Z</time>
      </trkpt>
      <trkpt lat="44.82428" lon="4.8596">
        <ele>110.57</ele>
        <time>2018-09-21T16:41:38Z</time>
      </trkpt>
      <trkpt lat="44.82397" lon="4.85953">
        <ele>110.57</ele>
        <time>2018-09-21T16:41:39Z</time>
      </trkpt>
      <trkpt lat="44.82366" lon="4.85945">
        <ele>110.57</ele>
        <time>2018-09-21T16:41:40Z</time>
      </trkpt>
      <trkpt lat="44.82335" lon="4.85937">
        <ele>110.57</ele>
        <time>2018-09-21T16:41:41Z</time>
      </trkpt>
      <trkpt lat="44.82304" lon="4.85929">
        <ele>110.57</ele>
        <time>2018-09-21T16:41:42Z</time>
      </trkpt>
      <trkpt lat="44.82273" lon="4.85921">
        <ele>110.57</ele>
        <time>2018-09-21T16:41:43Z</time>
      </trkpt>
      <trkpt lat="44.82242" lon="4.85913">
        <ele>110.57</ele>
        <time>2018-09-21T16:41:44Z</time>
      </trkpt>
      <trkpt lat="44.8221" lon="4.85906">
        <ele>110.57</ele>
        <time>2018-09-21T16:41:45Z</time>
      </trkpt>
      <trkpt lat="44.82179" lon="4.85897">
        <ele>110.57</ele>
        <time>2018-09-21T16:41:46Z</time>
      </trkpt>
      <trkpt lat="44.82148" lon="4.85889">
        <ele>109.87</ele>
        <time>2018-09-21T16:41:47Z</time>
      </trkpt>
      <trkpt lat="44.82117" lon="4.8588">
        <ele>109.66</ele>
        <time>2018-09-21T16:41:48Z</time>
      </trkpt>
      <trkpt lat="44.82086" lon="4.85871">
        <ele>109.6</ele>
        <time>2018-09-21T16:41:49Z</time>
      </trkpt>
      <trkpt lat="44.82054" lon="4.85862">
        <ele>109.58</ele>
        <time>2018-09-21T16:41:50Z</time>
      </trkpt>
      <trkpt lat="44.82022" lon="4.85853">
        <ele>108.87</ele>
        <time>2018-09-21T16:41:51Z</time>
      </trkpt>
      <trkpt lat="44.81991" lon="4.85844">
        <ele>108.66</ele>
        <time>2018-09-21T16:41:52Z</time>
      </trkpt>
      <trkpt lat="44.81959" lon="4.85835">
        <ele>108.6</ele>
        <time>2018-09-21T16:41:53Z</time>
      </trkpt>
      <trkpt lat="44.81928" lon="4.85826">
        <ele>108.58</ele>
        <time>2018-09-21T16:41:54Z</time>
      </trkpt>
      <trkpt lat="44.81897" lon="4.85817">
        <ele>108.57</ele>
        <time>2018-09-21T16:41:55Z</time>
      </trkpt>
      <trkpt lat="44.81865" lon="4.85808">
        <ele>108.57</ele>
        <time>2018-09-21T16:41:56Z</time>
      </trkpt>
      <trkpt lat="44.81834" lon="4.85796">
        <ele>108.57</ele>
        <time>2018-09-21T16:41:57Z</time>
      </trkpt>
      <trkpt lat="44.81803" lon="4.85785">
        <ele>108.57</ele>
        <time>2018-09-21T16:41:58Z</time>
      </trkpt>
      <trkpt lat="44.81772" lon="4.85773">
        <ele>109.27</ele>
        <time>2018-09-21T16:41:59Z</time>
      </trkpt>
      <trkpt lat="44.81741" lon="4.85762">
        <ele>109.48</ele>
        <time>2018-09-21T16:42:00Z</time>
      </trkpt>
      <trkpt lat="44.81709" lon="4.8575">
        <ele>109.54</ele>
        <time>2018-09-21T16:42:01Z</time>
      </trkpt>
      <trkpt lat="44.81677" lon="4.85737">
        <ele>109.56</ele>
        <time>2018-09-21T16:42:02Z</time>
      </trkpt>
      <trkpt lat="44.81645" lon="4.85724">
        <ele>109.57</ele>
        <time>2018-09-21T16:42:03Z</time>
      </trkpt>
      <trkpt lat="44.81613" lon="4.8571">
        <ele>108.87</ele>
        <time>2018-09-21T16:42:04Z</time>
      </trkpt>
      <trkpt lat="44.81581" lon="4.85697">
        <ele>108.66</ele>
        <time>2018-09-21T16:42:05Z</time>
      </trkpt>
      <trkpt lat="44.81549" lon="4.85683">
        <ele>107.89</ele>
        <time>2018-09-21T16:42:06Z</time>
      </trkpt>
      <trkpt lat="44.81517" lon="4.85669">
        <ele>107.67</ele>
        <time>2018-09-21T16:42:07Z</time>
      </trkpt>
      <trkpt lat="44.81485" lon="4.85656">
        <ele>107.6</ele>
        <time>2018-09-21T16:42:08Z</time>
      </trkpt>
      <trkpt lat="44.81452" lon="4.85642">
        <ele>107.58</ele>
        <time>2018-09-21T16:42:09Z</time>
      </trkpt>
      <trkpt lat="44.8142" lon="4.85629">
        <ele>107.57</ele>
        <time>2018-09-21T16:42:10Z</time>
      </trkpt>
      <trkpt lat="44.81388" lon="4.85616">
        <ele>107.57</ele>
        <time>2018-09-21T16:42:11Z</time>
      </trkpt>
      <trkpt lat="44.81356" lon="4.85603">
        <ele>107.57</ele>
        <time>2018-09-21T16:42:12Z</time>
      </trkpt>
      <trkpt lat="44.81325" lon="4.8559">
        <ele>107.57</ele>
        <time>2018-09-21T16:42:13Z</time>
      </trkpt>
      <trkpt lat="44.81293" lon="4.85576">
        <ele>107.57</ele>
        <time>2018-09-21T16:42:14Z</time>
      </trkpt>
      <trkpt lat="44.81261" lon="4.85562">
        <ele>106.87</ele>
        <time>2018-09-21T16:42:15Z</time>
      </trkpt>
      <trkpt lat="44.81229" lon="4.85548">
        <ele>106.66</ele>
        <time>2018-09-21T16:42:16Z</time>
      </trkpt>
      <trkpt lat="44.81197" lon="4.85534">
        <ele>106.6</ele>
        <time>2018-09-21T16:42:17Z</time>
      </trkpt>
      <trkpt lat="44.81165" lon="4.8552">
        <ele>106.58</ele>
        <time>2018-09-21T16:42:18Z</time>
      </trkpt>
      <trkpt lat="44.81134" lon="4.85505">
        <ele>106.57</ele>
        <time>2018-09-21T16:42:19Z</time>
      </trkpt>
      <trkpt lat="44.81102" lon="4.8549">
        <ele>106.57</ele>
        <time>2018-09-21T16:42:20Z</time>
      </trkpt>
      <trkpt lat="44.8107" lon="4.85476">
        <ele>106.57</ele>
        <time>2018-09-21T16:42:21Z</time>
      </trkpt>
      <trkpt lat="44.81039" lon="4.8546">
        <ele>106.57</ele>
        <time>2018-09-21T16:42:22Z</time>
      </trkpt>
      <trkpt lat="44.81006" lon="4.85444">
        <ele>106.57</ele>
        <time>2018-09-21T16:42:23Z</time>
      </trkpt>
      <trkpt lat="44.80974" lon="4.85426">
        <ele>105.87</ele>
        <time>2018-09-21T16:42:24Z</time>
      </trkpt>
      <trkpt lat="44.80942" lon="4.85408">
        <ele>105.66</ele>
        <time>2018-09-21T16:42:25Z</time>
      </trkpt>
      <trkpt lat="44.80909" lon="4.8539">
        <ele>105.6</ele>
        <time>2018-09-21T16:42:26Z</time>
      </trkpt>
      <trkpt lat="44.80876" lon="4.85372">
        <ele>105.58</ele>
        <time>2018-09-21T16:42:27Z</time>
      </trkpt>
      <trkpt lat="44.80843" lon="4.85352">
        <ele>105.57</ele>
        <time>2018-09-21T16:42:28Z</time>
      </trkpt>
      <trkpt lat="44.8081" lon="4.85332">
        <ele>105.57</ele>
        <time>2018-09-21T16:42:29Z</time>
      </trkpt>
      <trkpt lat="44.80777" lon="4.85312">
        <ele>105.57</ele>
        <time>2018-09-21T16:42:30Z</time>
      </trkpt>
      <trkpt lat="44.80744" lon="4.8529">
        <ele>105.57</ele>
        <time>2018-09-21T16:42:31Z</time>
      </trkpt>
      <trkpt lat="44.80711" lon="4.85269">
        <ele>105.57</ele>
        <time>2018-09-21T16:42:32Z</time>
      </trkpt>
      <trkpt lat="44.80679" lon="4.85247">
        <ele>105.57</ele>
        <time>2018-09-21T16:42:33Z</time>
      </trkpt>
      <trkpt lat="44.80646" lon="4.85225">
        <ele>105.57</ele>
        <time>2018-09-21T16:42:34Z</time>
      </trkpt>
      <trkpt lat="44.80613" lon="4.85203">
        <ele>105.57</ele>
        <time>2018-09-21T16:42:35Z</time>
      </trkpt>
      <trkpt lat="44.80582" lon="4.85181">
        <ele>104.87</ele>
        <time>2018-09-21T16:42:36Z</time>
      </trkpt>
      <trkpt lat="44.8055" lon="4.85159">
        <ele>104.66</ele>
        <time>2018-09-21T16:42:37Z</time>
      </trkpt>
      <trkpt lat="44.8052" lon="4.85136">
        <ele>105.29</ele>
        <time>2018-09-21T16:42:38Z</time>
      </trkpt>
      <trkpt lat="44.80489" lon="4.85113">
        <ele>104.79</ele>
        <time>2018-09-21T16:42:39Z</time>
      </trkpt>
      <trkpt lat="44.80459" lon="4.8509">
        <ele>105.33</ele>
        <time>2018-09-21T16:42:40Z</time>
      </trkpt>
      <trkpt lat="44.80429" lon="4.85067">
        <ele>105.5</ele>
        <time>2018-09-21T16:42:41Z</time>
      </trkpt>
      <trkpt lat="44.80399" lon="4.85043">
        <ele>105.55</ele>
        <time>2018-09-21T16:42:42Z</time>
      </trkpt>
      <trkpt lat="44.80369" lon="4.85019">
        <ele>104.86</ele>
        <time>2018-09-21T16:42:43Z</time>
      </trkpt>
      <trkpt lat="44.80339" lon="4.84994">
        <ele>105.36</ele>
        <time>2018-09-21T16:42:44Z</time>
      </trkpt>
      <trkpt lat="44.80309" lon="4.84969">
        <ele>105.5</ele>
        <time>2018-09-21T16:42:45Z</time>
      </trkpt>
      <trkpt lat="44.8028" lon="4.84945">
        <ele>104.85</ele>
        <time>2018-09-21T16:42:46Z</time>
      </trkpt>
      <trkpt lat="44.80251" lon="4.8492">
        <ele>104.65</ele>
        <time>2018-09-21T16:42:47Z</time>
      </trkpt>
      <trkpt lat="44.80223" lon="4.84896">
        <ele>103.89</ele>
        <time>2018-09-21T16:42:48Z</time>
      </trkpt>
      <trkpt lat="44.80196" lon="4.84873">
        <ele>103.67</ele>
        <time>2018-09-21T16:42:49Z</time>
      </trkpt>
      <trkpt lat="44.8017" lon="4.84851">
        <ele>103.6</ele>
        <time>2018-09-21T16:42:50Z</time>
      </trkpt>
      <trkpt lat="44.80144" lon="4.84829">
        <ele>103.58</ele>
        <time>2018-09-21T16:42:51Z</time>
      </trkpt>
      <trkpt lat="44.80118" lon="4.84807">
        <ele>103.57</ele>
        <time>2018-09-21T16:42:52Z</time>
      </trkpt>
      <trkpt lat="44.80092" lon="4.84785">
        <ele>103.57</ele>
        <time>2018-09-21T16:42:53Z</time>
      </trkpt>
      <trkpt lat="44.80064" lon="4.84762">
        <ele>102.87</ele>
        <time>2018-09-21T16:42:54Z</time>
      </trkpt>
      <trkpt lat="44.80037" lon="4.84738">
        <ele>102.66</ele>
        <time>2018-09-21T16:42:55Z</time>
      </trkpt>
      <trkpt lat="44.8001" lon="4.84715">
        <ele>102.6</ele>
        <time>2018-09-21T16:42:56Z</time>
      </trkpt>
      <trkpt lat="44.79982" lon="4.84692">
        <ele>102.58</ele>
        <time>2018-09-21T16:42:57Z</time>
      </trkpt>
      <trkpt lat="44.79955" lon="4.84669">
        <ele>102.57</ele>
        <time>2018-09-21T16:42:58Z</time>
      </trkpt>
      <trkpt lat="44.79928" lon="4.84646">
        <ele>102.57</ele>
        <time>2018-09-21T16:42:59Z</time>
      </trkpt>
      <trkpt lat="44.79901" lon="4.84623">
        <ele>103.27</ele>
        <time>2018-09-21T16:43:00Z</time>
      </trkpt>
      <trkpt lat="44.79874" lon="4.846">
        <ele>103.48</ele>
        <time>2018-09-21T16:43:01Z</time>
      </trkpt>
      <trkpt lat="44.79847" lon="4.84577">
        <ele>103.54</ele>
        <time>2018-09-21T16:43:02Z</time>
      </trkpt>
      <trkpt lat="44.79821" lon="4.84554">
        <ele>103.56</ele>
        <time>2018-09-21T16:43:03Z</time>
      </trkpt>
      <trkpt lat="44.79795" lon="4.84532">
        <ele>103.57</ele>
        <time>2018-09-21T16:43:04Z</time>
      </trkpt>
      <trkpt lat="44.7977" lon="4.84511">
        <ele>103.57</ele>
        <time>2018-09-21T16:43:05Z</time>
      </trkpt>
      <trkpt lat="44.79745" lon="4.8449">
        <ele>103.57</ele>
        <time>2018-09-21T16:43:06Z</time>
      </trkpt>
      <trkpt lat="44.7972" lon="4.84469">
        <ele>104.97</ele>
        <time>2018-09-21T16:43:07Z</time>
      </trkpt>
      <trkpt lat="44.79694" lon="4.84447">
        <ele>105.39</ele>
        <time>2018-09-21T16:43:08Z</time>
      </trkpt>
      <trkpt lat="44.79669" lon="4.84426">
        <ele>105.51</ele>
        <time>2018-09-21T16:43:09Z</time>
      </trkpt>
      <trkpt lat="44.79645" lon="4.84406">
        <ele>105.55</ele>
        <time>2018-09-21T16:43:10Z</time>
      </trkpt>
      <trkpt lat="44.79621" lon="4.84386">
        <ele>105.56</ele>
        <time>2018-09-21T16:43:11Z</time>
      </trkpt>
      <trkpt lat="44.79598" lon="4.84366">
        <ele>105.57</ele>
        <time>2018-09-21T16:43:12Z</time>
      </trkpt>
      <trkpt lat="44.79575" lon="4.84346">
        <ele>105.57</ele>
        <time>2018-09-21T16:43:13Z</time>
      </trkpt>
      <trkpt lat="44.79553" lon="4.84326">
        <ele>105.57</ele>
        <time>2018-09-21T16:43:14Z</time>
      </trkpt>
      <trkpt lat="44.79529" lon="4.84306">
        <ele>105.57</ele>
        <time>2018-09-21T16:43:15Z</time>
      </trkpt>
      <trkpt lat="44.79505" lon="4.84286">
        <ele>105.57</ele>
        <time>2018-09-21T16:43:16Z</time>
      </trkpt>
      <trkpt lat="44.79481" lon="4.84266">
        <ele>104.87</ele>
        <time>2018-09-21T16:43:17Z</time>
      </trkpt>
      <trkpt lat="44.79456" lon="4.84246">
        <ele>105.36</ele>
        <time>2018-09-21T16:43:18Z</time>
      </trkpt>
      <trkpt lat="44.79432" lon="4.84225">
        <ele>104.81</ele>
        <time>2018-09-21T16:43:19Z</time>
      </trkpt>
      <trkpt lat="44.79407" lon="4.84204">
        <ele>104.64</ele>
        <time>2018-09-21T16:43:20Z</time>
      </trkpt>
      <trkpt lat="44.79384" lon="4.84184">
        <ele>105.29</ele>
        <time>2018-09-21T16:43:21Z</time>
      </trkpt>
      <trkpt lat="44.79362" lon="4.84165">
        <ele>105.48</ele>
        <time>2018-09-21T16:43:22Z</time>
      </trkpt>
      <trkpt lat="44.7934" lon="4.84146">
        <ele>105.54</ele>
        <time>2018-09-21T16:43:23Z</time>
      </trkpt>
      <trkpt lat="44.79317" lon="4.84127">
        <ele>105.56</ele>
        <time>2018-09-21T16:43:24Z</time>
      </trkpt>
      <trkpt lat="44.79295" lon="4.84109">
        <ele>105.57</ele>
        <time>2018-09-21T16:43:25Z</time>
      </trkpt>
      <trkpt lat="44.79273" lon="4.8409">
        <ele>105.57</ele>
        <time>2018-09-21T16:43:26Z</time>
      </trkpt>
      <trkpt lat="44.7925" lon="4.8407">
        <ele>106.27</ele>
        <time>2018-09-21T16:43:27Z</time>
      </trkpt>
      <trkpt lat="44.79228" lon="4.84051">
        <ele>106.48</ele>
        <time>2018-09-21T16:43:28Z</time>
      </trkpt>
      <trkpt lat="44.79204" lon="4.84031">
        <ele>106.54</ele>
        <time>2018-09-21T16:43:29Z</time>
      </trkpt>
      <trkpt lat="44.7918" lon="4.84011">
        <ele>106.56</ele>
        <time>2018-09-21T16:43:30Z</time>
      </trkpt>
      <trkpt lat="44.79155" lon="4.8399">
        <ele>105.87</ele>
        <time>2018-09-21T16:43:31Z</time>
      </trkpt>
      <trkpt lat="44.7913" lon="4.83968">
        <ele>105.66</ele>
        <time>2018-09-21T16:43:32Z</time>
      </trkpt>
      <trkpt lat="44.79105" lon="4.83947">
        <ele>105.59</ele>
        <time>2018-09-21T16:43:33Z</time>
      </trkpt>
      <trkpt lat="44.79081" lon="4.83926">
        <ele>105.58</ele>
        <time>2018-09-21T16:43:34Z</time>
      </trkpt>
      <trkpt lat="44.79058" lon="4.83904">
        <ele>105.57</ele>
        <time>2018-09-21T16:43:35Z</time>
      </trkpt>
      <trkpt lat="44.79035" lon="4.83882">
        <ele>105.57</ele>
        <time>2018-09-21T16:43:36Z</time>
      </trkpt>
      <trkpt lat="44.79012" lon="4.83859">
        <ele>105.57</ele>
        <time>2018-09-21T16:43:37Z</time>
      </trkpt>
      <trkpt lat="44.78989" lon="4.83836">
        <ele>104.87</ele>
        <time>2018-09-21T16:43:38Z</time>
      </trkpt>
      <trkpt lat="44.78965" lon="4.83812">
        <ele>104.66</ele>
        <time>2018-09-21T16:43:39Z</time>
      </trkpt>
      <trkpt lat="44.7894" lon="4.83788">
        <ele>104.6</ele>
        <time>2018-09-21T16:43:40Z</time>
      </trkpt>
      <trkpt lat="44.78918" lon="4.83762">
        <ele>104.58</ele>
        <time>2018-09-21T16:43:41Z</time>
      </trkpt>
      <trkpt lat="44.78895" lon="4.83737">
        <ele>104.57</ele>
        <time>2018-09-21T16:43:42Z</time>
      </trkpt>
      <trkpt lat="44.78871" lon="4.83711">
        <ele>104.57</ele>
        <time>2018-09-21T16:43:43Z</time>
      </trkpt>
      <trkpt lat="44.78847" lon="4.83683">
        <ele>104.57</ele>
        <time>2018-09-21T16:43:44Z</time>
      </trkpt>
      <trkpt lat="44.78824" lon="4.83656">
        <ele>104.57</ele>
        <time>2018-09-21T16:43:45Z</time>
      </trkpt>
      <trkpt lat="44.788" lon="4.83626">
        <ele>104.57</ele>
        <time>2018-09-21T16:43:46Z</time>
      </trkpt>
      <trkpt lat="44.78776" lon="4.83596">
        <ele>104.57</ele>
        <time>2018-09-21T16:43:47Z</time>
      </trkpt>
      <trkpt lat="44.78753" lon="4.83564">
        <ele>103.87</ele>
        <time>2018-09-21T16:43:48Z</time>
      </trkpt>
      <trkpt lat="44.78731" lon="4.83533">
        <ele>103.66</ele>
        <time>2018-09-21T16:43:49Z</time>
      </trkpt>
      <trkpt lat="44.78709" lon="4.83501">
        <ele>103.6</ele>
        <time>2018-09-21T16:43:50Z</time>
      </trkpt>
      <trkpt lat="44.78688" lon="4.83469">
        <ele>103.58</ele>
        <time>2018-09-21T16:43:51Z</time>
      </trkpt>
      <trkpt lat="44.78667" lon="4.83436">
        <ele>103.57</ele>
        <time>2018-09-21T16:43:52Z</time>
      </trkpt>
      <trkpt lat="44.78646" lon="4.83404">
        <ele>103.57</ele>
        <time>2018-09-21T16:43:53Z</time>
      </trkpt>
      <trkpt lat="44.78626" lon="4.8337">
        <ele>103.57</ele>
        <time>2018-09-21T16:43:54Z</time>
      </trkpt>
      <trkpt lat="44.78607" lon="4.83336">
        <ele>103.57</ele>
        <time>2018-09-21T16:43:55Z</time>
      </trkpt>
      <trkpt lat="44.78587" lon="4.83302">
        <ele>103.57</ele>
        <time>2018-09-21T16:43:56Z</time>
      </trkpt>
      <trkpt lat="44.78567" lon="4.83268">
        <ele>103.57</ele>
        <time>2018-09-21T16:43:57Z</time>
      </trkpt>
      <trkpt lat="44.78549" lon="4.83233">
        <ele>103.57</ele>
        <time>2018-09-21T16:43:58Z</time>
      </trkpt>
      <trkpt lat="44.7853" lon="4.83198">
        <ele>104.27</ele>
        <time>2018-09-21T16:43:59Z</time>
      </trkpt>
      <trkpt lat="44.78512" lon="4.83163">
        <ele>104.48</ele>
        <time>2018-09-21T16:44:00Z</time>
      </trkpt>
      <trkpt lat="44.78496" lon="4.83127">
        <ele>105.24</ele>
        <time>2018-09-21T16:44:01Z</time>
      </trkpt>
      <trkpt lat="44.7848" lon="4.83093">
        <ele>105.47</ele>
        <time>2018-09-21T16:44:02Z</time>
      </trkpt>
      <trkpt lat="44.78464" lon="4.83058">
        <ele>105.54</ele>
        <time>2018-09-21T16:44:03Z</time>
      </trkpt>
      <trkpt lat="44.78449" lon="4.83022">
        <ele>106.26</ele>
        <time>2018-09-21T16:44:04Z</time>
      </trkpt>
      <trkpt lat="44.78433" lon="4.82986">
        <ele>106.48</ele>
        <time>2018-09-21T16:44:05Z</time>
      </trkpt>
      <trkpt lat="44.78418" lon="4.82948">
        <ele>106.54</ele>
        <time>2018-09-21T16:44:06Z</time>
      </trkpt>
      <trkpt lat="44.78403" lon="4.82911">
        <ele>106.56</ele>
        <time>2018-09-21T16:44:07Z</time>
      </trkpt>
      <trkpt lat="44.78389" lon="4.82873">
        <ele>106.57</ele>
        <time>2018-09-21T16:44:08Z</time>
      </trkpt>
      <trkpt lat="44.78375" lon="4.82833">
        <ele>106.57</ele>
        <time>2018-09-21T16:44:09Z</time>
      </trkpt>
      <trkpt lat="44.78361" lon="4.82793">
        <ele>106.57</ele>
        <time>2018-09-21T16:44:10Z</time>
      </trkpt>
      <trkpt lat="44.78347" lon="4.82752">
        <ele>106.57</ele>
        <time>2018-09-21T16:44:11Z</time>
      </trkpt>
      <trkpt lat="44.78334" lon="4.82711">
        <ele>105.87</ele>
        <time>2018-09-21T16:44:12Z</time>
      </trkpt>
      <trkpt lat="44.78322" lon="4.8267">
        <ele>105.66</ele>
        <time>2018-09-21T16:44:13Z</time>
      </trkpt>
      <trkpt lat="44.78311" lon="4.8263">
        <ele>105.6</ele>
        <time>2018-09-21T16:44:14Z</time>
      </trkpt>
      <trkpt lat="44.783" lon="4.8259">
        <ele>105.58</ele>
        <time>2018-09-21T16:44:15Z</time>
      </trkpt>
      <trkpt lat="44.78291" lon="4.82553">
        <ele>105.57</ele>
        <time>2018-09-21T16:44:16Z</time>
      </trkpt>
      <trkpt lat="44.78281" lon="4.82517">
        <ele>105.57</ele>
        <time>2018-09-21T16:44:17Z</time>
      </trkpt>
      <trkpt lat="44.78272" lon="4.82481">
        <ele>105.57</ele>
        <time>2018-09-21T16:44:18Z</time>
      </trkpt>
      <trkpt lat="44.78263" lon="4.82446">
        <ele>105.57</ele>
        <time>2018-09-21T16:44:19Z</time>
      </trkpt>
      <trkpt lat="44.78254" lon="4.82413">
        <ele>105.57</ele>
        <time>2018-09-21T16:44:20Z</time>
      </trkpt>
      <trkpt lat="44.78246" lon="4.82379">
        <ele>105.57</ele>
        <time>2018-09-21T16:44:21Z</time>
      </trkpt>
      <trkpt lat="44.78239" lon="4.82345">
        <ele>106.27</ele>
        <time>2018-09-21T16:44:22Z</time>
      </trkpt>
      <trkpt lat="44.78232" lon="4.82311">
        <ele>106.48</ele>
        <time>2018-09-21T16:44:23Z</time>
      </trkpt>
      <trkpt lat="44.78225" lon="4.82276">
        <ele>106.54</ele>
        <time>2018-09-21T16:44:24Z</time>
      </trkpt>
      <trkpt lat="44.78218" lon="4.82239">
        <ele>107.26</ele>
        <time>2018-09-21T16:44:25Z</time>
      </trkpt>
      <trkpt lat="44.7821" lon="4.82202">
        <ele>107.48</ele>
        <time>2018-09-21T16:44:26Z</time>
      </trkpt>
      <trkpt lat="44.78201" lon="4.82165">
        <ele>108.24</ele>
        <time>2018-09-21T16:44:27Z</time>
      </trkpt>
      <trkpt lat="44.78192" lon="4.82128">
        <ele>108.47</ele>
        <time>2018-09-21T16:44:28Z</time>
      </trkpt>
      <trkpt lat="44.78183" lon="4.8209">
        <ele>109.24</ele>
        <time>2018-09-21T16:44:29Z</time>
      </trkpt>
      <trkpt lat="44.78173" lon="4.82053">
        <ele>109.47</ele>
        <time>2018-09-21T16:44:30Z</time>
      </trkpt>
      <trkpt lat="44.78163" lon="4.82016">
        <ele>109.54</ele>
        <time>2018-09-21T16:44:31Z</time>
      </trkpt>
      <trkpt lat="44.78153" lon="4.81978">
        <ele>110.26</ele>
        <time>2018-09-21T16:44:32Z</time>
      </trkpt>
      <trkpt lat="44.78143" lon="4.8194">
        <ele>111.18</ele>
        <time>2018-09-21T16:44:33Z</time>
      </trkpt>
      <trkpt lat="44.78134" lon="4.81899">
        <ele>111.45</ele>
        <time>2018-09-21T16:44:34Z</time>
      </trkpt>
      <trkpt lat="44.78124" lon="4.81857">
        <ele>112.23</ele>
        <time>2018-09-21T16:44:35Z</time>
      </trkpt>
      <trkpt lat="44.78114" lon="4.81816">
        <ele>112.47</ele>
        <time>2018-09-21T16:44:36Z</time>
      </trkpt>
      <trkpt lat="44.78103" lon="4.81777">
        <ele>112.54</ele>
        <time>2018-09-21T16:44:37Z</time>
      </trkpt>
      <trkpt lat="44.78091" lon="4.81737">
        <ele>112.56</ele>
        <time>2018-09-21T16:44:38Z</time>
      </trkpt>
      <trkpt lat="44.7808" lon="4.81699">
        <ele>112.57</ele>
        <time>2018-09-21T16:44:39Z</time>
      </trkpt>
      <trkpt lat="44.78068" lon="4.81661">
        <ele>112.57</ele>
        <time>2018-09-21T16:44:40Z</time>
      </trkpt>
      <trkpt lat="44.78057" lon="4.81624">
        <ele>112.57</ele>
        <time>2018-09-21T16:44:41Z</time>
      </trkpt>
      <trkpt lat="44.78045" lon="4.81588">
        <ele>111.87</ele>
        <time>2018-09-21T16:44:42Z</time>
      </trkpt>
      <trkpt lat="44.78033" lon="4.81552">
        <ele>111.66</ele>
        <time>2018-09-21T16:44:43Z</time>
      </trkpt>
      <trkpt lat="44.7802" lon="4.81515">
        <ele>111.59</ele>
        <time>2018-09-21T16:44:44Z</time>
      </trkpt>
      <trkpt lat="44.78006" lon="4.8148">
        <ele>110.88</ele>
        <time>2018-09-21T16:44:45Z</time>
      </trkpt>
      <trkpt lat="44.77993" lon="4.81445">
        <ele>110.66</ele>
        <time>2018-09-21T16:44:46Z</time>
      </trkpt>
      <trkpt lat="44.77979" lon="4.81409">
        <ele>109.9</ele>
        <time>2018-09-21T16:44:47Z</time>
      </trkpt>
      <trkpt lat="44.77965" lon="4.81374">
        <ele>108.97</ele>
        <time>2018-09-21T16:44:48Z</time>
      </trkpt>
      <trkpt lat="44.7795" lon="4.81339">
        <ele>108.69</ele>
        <time>2018-09-21T16:44:49Z</time>
      </trkpt>
      <trkpt lat="44.77935" lon="4.81305">
        <ele>108.6</ele>
        <time>2018-09-21T16:44:50Z</time>
      </trkpt>
      <trkpt lat="44.77919" lon="4.8127">
        <ele>107.88</ele>
        <time>2018-09-21T16:44:51Z</time>
      </trkpt>
      <trkpt lat="44.77902" lon="4.81235">
        <ele>106.96</ele>
        <time>2018-09-21T16:44:52Z</time>
      </trkpt>
      <trkpt lat="44.77886" lon="4.812">
        <ele>105.99</ele>
        <time>2018-09-21T16:44:53Z</time>
      </trkpt>
      <trkpt lat="44.77869" lon="4.81165">
        <ele>105.69</ele>
        <time>2018-09-21T16:44:54Z</time>
      </trkpt>
      <trkpt lat="44.77851" lon="4.8113">
        <ele>105.61</ele>
        <time>2018-09-21T16:44:55Z</time>
      </trkpt>
      <trkpt lat="44.77833" lon="4.81095">
        <ele>105.58</ele>
        <time>2018-09-21T16:44:56Z</time>
      </trkpt>
      <trkpt lat="44.77815" lon="4.81061">
        <ele>104.87</ele>
        <time>2018-09-21T16:44:57Z</time>
      </trkpt>
      <trkpt lat="44.77797" lon="4.81028">
        <ele>104.66</ele>
        <time>2018-09-21T16:44:58Z</time>
      </trkpt>
      <trkpt lat="44.77778" lon="4.80994">
        <ele>103.9</ele>
        <time>2018-09-21T16:44:59Z</time>
      </trkpt>
      <trkpt lat="44.77759" lon="4.80961">
        <ele>103.67</ele>
        <time>2018-09-21T16:45:00Z</time>
      </trkpt>
      <trkpt lat="44.7774" lon="4.8093">
        <ele>103.6</ele>
        <time>2018-09-21T16:45:01Z</time>
      </trkpt>
      <trkpt lat="44.77722" lon="4.80899">
        <ele>102.88</ele>
        <time>2018-09-21T16:45:02Z</time>
      </trkpt>
      <trkpt lat="44.77703" lon="4.8087">
        <ele>102.66</ele>
        <time>2018-09-21T16:45:03Z</time>
      </trkpt>
      <trkpt lat="44.77685" lon="4.80842">
        <ele>102.6</ele>
        <time>2018-09-21T16:45:04Z</time>
      </trkpt>
      <trkpt lat="44.77667" lon="4.80815">
        <ele>102.58</ele>
        <time>2018-09-21T16:45:05Z</time>
      </trkpt>
      <trkpt lat="44.77649" lon="4.80788">
        <ele>102.57</ele>
        <time>2018-09-21T16:45:06Z</time>
      </trkpt>
      <trkpt lat="44.7763" lon="4.80763">
        <ele>102.57</ele>
        <time>2018-09-21T16:45:07Z</time>
      </trkpt>
      <trkpt lat="44.77611" lon="4.80737">
        <ele>102.57</ele>
        <time>2018-09-21T16:45:08Z</time>
      </trkpt>
      <trkpt lat="44.77592" lon="4.80711">
        <ele>102.57</ele>
        <time>2018-09-21T16:45:09Z</time>
      </trkpt>
      <trkpt lat="44.77572" lon="4.80686">
        <ele>102.57</ele>
        <time>2018-09-21T16:45:10Z</time>
      </trkpt>
      <trkpt lat="44.77553" lon="4.80662">
        <ele>101.87</ele>
        <time>2018-09-21T16:45:11Z</time>
      </trkpt>
      <trkpt lat="44.77534" lon="4.80637">
        <ele>101.66</ele>
        <time>2018-09-21T16:45:12Z</time>
      </trkpt>
      <trkpt lat="44.77515" lon="4.80612">
        <ele>101.6</ele>
        <time>2018-09-21T16:45:13Z</time>
      </trkpt>
      <trkpt lat="44.77496" lon="4.80588">
        <ele>101.58</ele>
        <time>2018-09-21T16:45:14Z</time>
      </trkpt>
      <trkpt lat="44.77476" lon="4.80563">
        <ele>100.87</ele>
        <time>2018-09-21T16:45:15Z</time>
      </trkpt>
      <trkpt lat="44.77455" lon="4.80539">
        <ele>100.66</ele>
        <time>2018-09-21T16:45:16Z</time>
      </trkpt>
      <trkpt lat="44.77433" lon="4.80516">
        <ele>101.3</ele>
        <time>2018-09-21T16:45:17Z</time>
      </trkpt>
      <trkpt lat="44.77411" lon="4.80492">
        <ele>101.49</ele>
        <time>2018-09-21T16:45:18Z</time>
      </trkpt>
      <trkpt lat="44.7739" lon="4.80468">
        <ele>100.84</ele>
        <time>2018-09-21T16:45:19Z</time>
      </trkpt>
      <trkpt lat="44.77367" lon="4.80445">
        <ele>100.65</ele>
        <time>2018-09-21T16:45:20Z</time>
      </trkpt>
      <trkpt lat="44.77345" lon="4.80423">
        <ele>101.29</ele>
        <time>2018-09-21T16:45:21Z</time>
      </trkpt>
      <trkpt lat="44.77323" lon="4.80399">
        <ele>100.79</ele>
        <time>2018-09-21T16:45:22Z</time>
      </trkpt>
      <trkpt lat="44.77301" lon="4.80376">
        <ele>100.63</ele>
        <time>2018-09-21T16:45:23Z</time>
      </trkpt>
      <trkpt lat="44.77278" lon="4.80353">
        <ele>100.59</ele>
        <time>2018-09-21T16:45:24Z</time>
      </trkpt>
      <trkpt lat="44.77256" lon="4.80331">
        <ele>101.27</ele>
        <time>2018-09-21T16:45:25Z</time>
      </trkpt>
      <trkpt lat="44.77233" lon="4.8031">
        <ele>101.48</ele>
        <time>2018-09-21T16:45:26Z</time>
      </trkpt>
      <trkpt lat="44.7721" lon="4.80289">
        <ele>101.54</ele>
        <time>2018-09-21T16:45:27Z</time>
      </trkpt>
      <trkpt lat="44.77186" lon="4.80268">
        <ele>101.56</ele>
        <time>2018-09-21T16:45:28Z</time>
      </trkpt>
      <trkpt lat="44.77162" lon="4.80248">
        <ele>101.57</ele>
        <time>2018-09-21T16:45:29Z</time>
      </trkpt>
      <trkpt lat="44.77137" lon="4.80227">
        <ele>100.87</ele>
        <time>2018-09-21T16:45:30Z</time>
      </trkpt>
      <trkpt lat="44.77111" lon="4.80206">
        <ele>101.36</ele>
        <time>2018-09-21T16:45:31Z</time>
      </trkpt>
      <trkpt lat="44.77084" lon="4.80185">
        <ele>101.5</ele>
        <time>2018-09-21T16:45:32Z</time>
      </trkpt>
      <trkpt lat="44.77058" lon="4.80164">
        <ele>101.55</ele>
        <time>2018-09-21T16:45:33Z</time>
      </trkpt>
      <trkpt lat="44.77031" lon="4.80143">
        <ele>101.56</ele>
        <time>2018-09-21T16:45:34Z</time>
      </trkpt>
      <trkpt lat="44.77003" lon="4.80122">
        <ele>102.27</ele>
        <time>2018-09-21T16:45:35Z</time>
      </trkpt>
      <trkpt lat="44.76976" lon="4.80102">
        <ele>102.48</ele>
        <time>2018-09-21T16:45:36Z</time>
      </trkpt>
      <trkpt lat="44.76947" lon="4.80082">
        <ele>103.24</ele>
        <time>2018-09-21T16:45:37Z</time>
      </trkpt>
      <trkpt lat="44.7692" lon="4.80062">
        <ele>103.47</ele>
        <time>2018-09-21T16:45:38Z</time>
      </trkpt>
      <trkpt lat="44.76892" lon="4.80042">
        <ele>103.54</ele>
        <time>2018-09-21T16:45:39Z</time>
      </trkpt>
      <trkpt lat="44.76864" lon="4.80024">
        <ele>104.26</ele>
        <time>2018-09-21T16:45:40Z</time>
      </trkpt>
      <trkpt lat="44.76837" lon="4.80005">
        <ele>104.48</ele>
        <time>2018-09-21T16:45:41Z</time>
      </trkpt>
      <trkpt lat="44.76809" lon="4.79987">
        <ele>104.54</ele>
        <time>2018-09-21T16:45:42Z</time>
      </trkpt>
      <trkpt lat="44.76782" lon="4.79969">
        <ele>104.56</ele>
        <time>2018-09-21T16:45:43Z</time>
      </trkpt>
      <trkpt lat="44.76755" lon="4.79952">
        <ele>104.57</ele>
        <time>2018-09-21T16:45:44Z</time>
      </trkpt>
      <trkpt lat="44.76727" lon="4.79935">
        <ele>104.57</ele>
        <time>2018-09-21T16:45:45Z</time>
      </trkpt>
      <trkpt lat="44.767" lon="4.79918">
        <ele>104.57</ele>
        <time>2018-09-21T16:45:46Z</time>
      </trkpt>
      <trkpt lat="44.76674" lon="4.79903">
        <ele>104.57</ele>
        <time>2018-09-21T16:45:47Z</time>
      </trkpt>
      <trkpt lat="44.76648" lon="4.79887">
        <ele>104.57</ele>
        <time>2018-09-21T16:45:48Z</time>
      </trkpt>
      <trkpt lat="44.76623" lon="4.79872">
        <ele>104.57</ele>
        <time>2018-09-21T16:45:49Z</time>
      </trkpt>
      <trkpt lat="44.76597" lon="4.79857">
        <ele>104.57</ele>
        <time>2018-09-21T16:45:50Z</time>
      </trkpt>
      <trkpt lat="44.76572" lon="4.79842">
        <ele>104.57</ele>
        <time>2018-09-21T16:45:51Z</time>
      </trkpt>
      <trkpt lat="44.76548" lon="4.79828">
        <ele>103.87</ele>
        <time>2018-09-21T16:45:52Z</time>
      </trkpt>
      <trkpt lat="44.76527" lon="4.79815">
        <ele>103.66</ele>
        <time>2018-09-21T16:45:53Z</time>
      </trkpt>
      <trkpt lat="44.76506" lon="4.79803">
        <ele>102.89</ele>
        <time>2018-09-21T16:45:54Z</time>
      </trkpt>
      <trkpt lat="44.76485" lon="4.79791">
        <ele>102.67</ele>
        <time>2018-09-21T16:45:55Z</time>
      </trkpt>
      <trkpt lat="44.76466" lon="4.7978">
        <ele>102.6</ele>
        <time>2018-09-21T16:45:56Z</time>
      </trkpt>
      <trkpt lat="44.76447" lon="4.7977">
        <ele>102.58</ele>
        <time>2018-09-21T16:45:57Z</time>
      </trkpt>
      <trkpt lat="44.76428" lon="4.79759">
        <ele>102.57</ele>
        <time>2018-09-21T16:45:58Z</time>
      </trkpt>
      <trkpt lat="44.76411" lon="4.79749">
        <ele>102.57</ele>
        <time>2018-09-21T16:45:59Z</time>
      </trkpt>
      <trkpt lat="44.76393" lon="4.79739">
        <ele>102.57</ele>
        <time>2018-09-21T16:46:00Z</time>
      </trkpt>
      <trkpt lat="44.76375" lon="4.79729">
        <ele>102.57</ele>
        <time>2018-09-21T16:46:01Z</time>
      </trkpt>
      <trkpt lat="44.76356" lon="4.79718">
        <ele>102.57</ele>
        <time>2018-09-21T16:46:02Z</time>
      </trkpt>
      <trkpt lat="44.76336" lon="4.79708">
        <ele>102.57</ele>
        <time>2018-09-21T16:46:03Z</time>
      </trkpt>
      <trkpt lat="44.76315" lon="4.79698">
        <ele>102.57</ele>
        <time>2018-09-21T16:46:04Z</time>
      </trkpt>
      <trkpt lat="44.76292" lon="4.79688">
        <ele>101.87</ele>
        <time>2018-09-21T16:46:05Z</time>
      </trkpt>
      <trkpt lat="44.7627" lon="4.79677">
        <ele>100.96</ele>
        <time>2018-09-21T16:46:06Z</time>
      </trkpt>
      <trkpt lat="44.76248" lon="4.79665">
        <ele>101.39</ele>
        <time>2018-09-21T16:46:07Z</time>
      </trkpt>
      <trkpt lat="44.76226" lon="4.79653">
        <ele>101.51</ele>
        <time>2018-09-21T16:46:08Z</time>
      </trkpt>
      <trkpt lat="44.76204" lon="4.7964">
        <ele>100.85</ele>
        <time>2018-09-21T16:46:09Z</time>
      </trkpt>
      <trkpt lat="44.76181" lon="4.79627">
        <ele>100.65</ele>
        <time>2018-09-21T16:46:10Z</time>
      </trkpt>
      <trkpt lat="44.76158" lon="4.79616">
        <ele>100.59</ele>
        <time>2018-09-21T16:46:11Z</time>
      </trkpt>
      <trkpt lat="44.76137" lon="4.79604">
        <ele>100.58</ele>
        <time>2018-09-21T16:46:12Z</time>
      </trkpt>
      <trkpt lat="44.76114" lon="4.79592">
        <ele>99.87</ele>
        <time>2018-09-21T16:46:13Z</time>
      </trkpt>
      <trkpt lat="44.76089" lon="4.79578">
        <ele>99.66</ele>
        <time>2018-09-21T16:46:14Z</time>
      </trkpt>
      <trkpt lat="44.76065" lon="4.79565">
        <ele>99.6</ele>
        <time>2018-09-21T16:46:15Z</time>
      </trkpt>
      <trkpt lat="44.76044" lon="4.79552">
        <ele>99.58</ele>
        <time>2018-09-21T16:46:16Z</time>
      </trkpt>
      <trkpt lat="44.76026" lon="4.79539">
        <ele>98.87</ele>
        <time>2018-09-21T16:46:17Z</time>
      </trkpt>
      <trkpt lat="44.76009" lon="4.79529">
        <ele>98.66</ele>
        <time>2018-09-21T16:46:18Z</time>
      </trkpt>
      <trkpt lat="44.7598" lon="4.79509">
        <ele>97.88</ele>
        <time>2018-09-21T16:46:20Z</time>
      </trkpt>
      <trkpt lat="44.75953" lon="4.79492">
        <ele>97.6</ele>
        <time>2018-09-21T16:46:22Z</time>
      </trkpt>
      <trkpt lat="44.75927" lon="4.79474">
        <ele>97.57</ele>
        <time>2018-09-21T16:46:24Z</time>
      </trkpt>
      <trkpt lat="44.75905" lon="4.79451">
        <ele>97.57</ele>
        <time>2018-09-21T16:46:26Z</time>
      </trkpt>
      <trkpt lat="44.75888" lon="4.79424">
        <ele>98.48</ele>
        <time>2018-09-21T16:46:28Z</time>
      </trkpt>
      <trkpt lat="44.75879" lon="4.79394">
        <ele>99.47</ele>
        <time>2018-09-21T16:46:30Z</time>
      </trkpt>
      <trkpt lat="44.75874" lon="4.79362">
        <ele>100.47</ele>
        <time>2018-09-21T16:46:32Z</time>
      </trkpt>
      <trkpt lat="44.7587" lon="4.79329">
        <ele>101.26</ele>
        <time>2018-09-21T16:46:34Z</time>
      </trkpt>
      <trkpt lat="44.75865" lon="4.79296">
        <ele>101.54</ele>
        <time>2018-09-21T16:46:36Z</time>
      </trkpt>
      <trkpt lat="44.75855" lon="4.79268">
        <ele>101.57</ele>
        <time>2018-09-21T16:46:38Z</time>
      </trkpt>
      <trkpt lat="44.7584" lon="4.79245">
        <ele>101.57</ele>
        <time>2018-09-21T16:46:40Z</time>
      </trkpt>
      <trkpt lat="44.75821" lon="4.79224">
        <ele>100.66</ele>
        <time>2018-09-21T16:46:42Z</time>
      </trkpt>
      <trkpt lat="44.75798" lon="4.79206">
        <ele>98.27</ele>
        <time>2018-09-21T16:46:44Z</time>
      </trkpt>
      <trkpt lat="44.75777" lon="4.7919">
        <ele>97.63</ele>
        <time>2018-09-21T16:46:46Z</time>
      </trkpt>
      <trkpt lat="44.75756" lon="4.79175">
        <ele>97.57</ele>
        <time>2018-09-21T16:46:48Z</time>
      </trkpt>
      <trkpt lat="44.75738" lon="4.7916">
        <ele>97.57</ele>
        <time>2018-09-21T16:46:50Z</time>
      </trkpt>
      <trkpt lat="44.75717" lon="4.7914">
        <ele>98.54</ele>
        <time>2018-09-21T16:46:53Z</time>
      </trkpt>
      <trkpt lat="44.75701" lon="4.79128">
        <ele>97.66</ele>
        <time>2018-09-21T16:46:57Z</time>
      </trkpt>
      <trkpt lat="44.7569" lon="4.79106">
        <ele>96.97</ele>
        <time>2018-09-21T16:47:55Z</time>
      </trkpt>
      <trkpt lat="44.7567" lon="4.79099">
        <ele>96.39</ele>
        <time>2018-09-21T16:47:57Z</time>
      </trkpt>
      <trkpt lat="44.75652" lon="4.79091">
        <ele>95.85</ele>
        <time>2018-09-21T16:47:59Z</time>
      </trkpt>
      <trkpt lat="44.75628" lon="4.79077">
        <ele>96.55</ele>
        <time>2018-09-21T16:48:02Z</time>
      </trkpt>
      <trkpt lat="44.75606" lon="4.79062">
        <ele>95.87</ele>
        <time>2018-09-21T16:48:05Z</time>
      </trkpt>
      <trkpt lat="44.75585" lon="4.79049">
        <ele>94.88</ele>
        <time>2018-09-21T16:48:08Z</time>
      </trkpt>
      <trkpt lat="44.75565" lon="4.7903">
        <ele>95.54</ele>
        <time>2018-09-21T16:48:12Z</time>
      </trkpt>
      <trkpt lat="44.75552" lon="4.79002">
        <ele>96.27</ele>
        <time>2018-09-21T16:48:15Z</time>
      </trkpt>
      <trkpt lat="44.75547" lon="4.7897">
        <ele>95.86</ele>
        <time>2018-09-21T16:48:18Z</time>
      </trkpt>
      <trkpt lat="44.75545" lon="4.7893">
        <ele>95.58</ele>
        <time>2018-09-21T16:48:21Z</time>
      </trkpt>
      <trkpt lat="44.75544" lon="4.78898">
        <ele>94.87</ele>
        <time>2018-09-21T16:48:23Z</time>
      </trkpt>
      <trkpt lat="44.75544" lon="4.78863">
        <ele>94.6</ele>
        <time>2018-09-21T16:48:25Z</time>
      </trkpt>
      <trkpt lat="44.75546" lon="4.78824">
        <ele>94.57</ele>
        <time>2018-09-21T16:48:27Z</time>
      </trkpt>
      <trkpt lat="44.75548" lon="4.78783">
        <ele>93.66</ele>
        <time>2018-09-21T16:48:29Z</time>
      </trkpt>
      <trkpt lat="44.75549" lon="4.78742">
        <ele>93.58</ele>
        <time>2018-09-21T16:48:31Z</time>
      </trkpt>
      <trkpt lat="44.75549" lon="4.78699">
        <ele>93.57</ele>
        <time>2018-09-21T16:48:33Z</time>
      </trkpt>
      <trkpt lat="44.7555" lon="4.78655">
        <ele>92.45</ele>
        <time>2018-09-21T16:48:35Z</time>
      </trkpt>
      <trkpt lat="44.75549" lon="4.78614">
        <ele>92.56</ele>
        <time>2018-09-21T16:48:37Z</time>
      </trkpt>
      <trkpt lat="44.7555" lon="4.78572">
        <ele>92.57</ele>
        <time>2018-09-21T16:48:39Z</time>
      </trkpt>
      <trkpt lat="44.7555" lon="4.7853">
        <ele>93.48</ele>
        <time>2018-09-21T16:48:41Z</time>
      </trkpt>
      <trkpt lat="44.75549" lon="4.78485">
        <ele>94.26</ele>
        <time>2018-09-21T16:48:43Z</time>
      </trkpt>
      <trkpt lat="44.75552" lon="4.78438">
        <ele>93.63</ele>
        <time>2018-09-21T16:48:45Z</time>
      </trkpt>
      <trkpt lat="44.75554" lon="4.78388">
        <ele>92.87</ele>
        <time>2018-09-21T16:48:47Z</time>
      </trkpt>
      <trkpt lat="44.75555" lon="4.78363">
        <ele>92.66</ele>
        <time>2018-09-21T16:48:48Z</time>
      </trkpt>
      <trkpt lat="44.75556" lon="4.78336">
        <ele>91.9</ele>
        <time>2018-09-21T16:48:49Z</time>
      </trkpt>
      <trkpt lat="44.75557" lon="4.78309">
        <ele>91.67</ele>
        <time>2018-09-21T16:48:50Z</time>
      </trkpt>
      <trkpt lat="44.75558" lon="4.78281">
        <ele>91.6</ele>
        <time>2018-09-21T16:48:51Z</time>
      </trkpt>
      <trkpt lat="44.75559" lon="4.78254">
        <ele>91.58</ele>
        <time>2018-09-21T16:48:52Z</time>
      </trkpt>
      <trkpt lat="44.75559" lon="4.78225">
        <ele>92.27</ele>
        <time>2018-09-21T16:48:53Z</time>
      </trkpt>
      <trkpt lat="44.7556" lon="4.78197">
        <ele>92.48</ele>
        <time>2018-09-21T16:48:54Z</time>
      </trkpt>
      <trkpt lat="44.7556" lon="4.78168">
        <ele>92.54</ele>
        <time>2018-09-21T16:48:55Z</time>
      </trkpt>
      <trkpt lat="44.7556" lon="4.7814">
        <ele>92.56</ele>
        <time>2018-09-21T16:48:56Z</time>
      </trkpt>
      <trkpt lat="44.75561" lon="4.78111">
        <ele>92.57</ele>
        <time>2018-09-21T16:48:57Z</time>
      </trkpt>
      <trkpt lat="44.75563" lon="4.78082">
        <ele>91.87</ele>
        <time>2018-09-21T16:48:58Z</time>
      </trkpt>
      <trkpt lat="44.75564" lon="4.78054">
        <ele>91.66</ele>
        <time>2018-09-21T16:48:59Z</time>
      </trkpt>
      <trkpt lat="44.75565" lon="4.78025">
        <ele>91.59</ele>
        <time>2018-09-21T16:49:00Z</time>
      </trkpt>
      <trkpt lat="44.75565" lon="4.77998">
        <ele>91.58</ele>
        <time>2018-09-21T16:49:01Z</time>
      </trkpt>
      <trkpt lat="44.75566" lon="4.77969">
        <ele>91.57</ele>
        <time>2018-09-21T16:49:02Z</time>
      </trkpt>
      <trkpt lat="44.75567" lon="4.7794">
        <ele>90.87</ele>
        <time>2018-09-21T16:49:03Z</time>
      </trkpt>
      <trkpt lat="44.75568" lon="4.7791">
        <ele>89.96</ele>
        <time>2018-09-21T16:49:04Z</time>
      </trkpt>
      <trkpt lat="44.75569" lon="4.77882">
        <ele>89.69</ele>
        <time>2018-09-21T16:49:05Z</time>
      </trkpt>
      <trkpt lat="44.7557" lon="4.77854">
        <ele>89.6</ele>
        <time>2018-09-21T16:49:06Z</time>
      </trkpt>
      <trkpt lat="44.7557" lon="4.77827">
        <ele>89.58</ele>
        <time>2018-09-21T16:49:07Z</time>
      </trkpt>
      <trkpt lat="44.75571" lon="4.77799">
        <ele>89.57</ele>
        <time>2018-09-21T16:49:08Z</time>
      </trkpt>
      <trkpt lat="44.75572" lon="4.77772">
        <ele>90.27</ele>
        <time>2018-09-21T16:49:09Z</time>
      </trkpt>
      <trkpt lat="44.75573" lon="4.77745">
        <ele>89.78</ele>
        <time>2018-09-21T16:49:10Z</time>
      </trkpt>
      <trkpt lat="44.75573" lon="4.77719">
        <ele>89.63</ele>
        <time>2018-09-21T16:49:11Z</time>
      </trkpt>
      <trkpt lat="44.75575" lon="4.77669">
        <ele>89.57</ele>
        <time>2018-09-21T16:49:13Z</time>
      </trkpt>
      <trkpt lat="44.75576" lon="4.77621">
        <ele>89.57</ele>
        <time>2018-09-21T16:49:15Z</time>
      </trkpt>
      <trkpt lat="44.75578" lon="4.77573">
        <ele>88.87</ele>
        <time>2018-09-21T16:49:17Z</time>
      </trkpt>
      <trkpt lat="44.7558" lon="4.77524">
        <ele>88.81</ele>
        <time>2018-09-21T16:49:19Z</time>
      </trkpt>
      <trkpt lat="44.75582" lon="4.77475">
        <ele>88.59</ele>
        <time>2018-09-21T16:49:21Z</time>
      </trkpt>
      <trkpt lat="44.75583" lon="4.77426">
        <ele>88.57</ele>
        <time>2018-09-21T16:49:23Z</time>
      </trkpt>
      <trkpt lat="44.75584" lon="4.77401">
        <ele>88.57</ele>
        <time>2018-09-21T16:49:24Z</time>
      </trkpt>
      <trkpt lat="44.75585" lon="4.77375">
        <ele>88.57</ele>
        <time>2018-09-21T16:49:25Z</time>
      </trkpt>
      <trkpt lat="44.75586" lon="4.77348">
        <ele>88.57</ele>
        <time>2018-09-21T16:49:26Z</time>
      </trkpt>
      <trkpt lat="44.75587" lon="4.77321">
        <ele>88.57</ele>
        <time>2018-09-21T16:49:27Z</time>
      </trkpt>
      <trkpt lat="44.75588" lon="4.77293">
        <ele>87.87</ele>
        <time>2018-09-21T16:49:28Z</time>
      </trkpt>
      <trkpt lat="44.75588" lon="4.77266">
        <ele>87.66</ele>
        <time>2018-09-21T16:49:29Z</time>
      </trkpt>
      <trkpt lat="44.75589" lon="4.77239">
        <ele>87.6</ele>
        <time>2018-09-21T16:49:30Z</time>
      </trkpt>
      <trkpt lat="44.75589" lon="4.77211">
        <ele>87.58</ele>
        <time>2018-09-21T16:49:31Z</time>
      </trkpt>
      <trkpt lat="44.7559" lon="4.77184">
        <ele>87.57</ele>
        <time>2018-09-21T16:49:32Z</time>
      </trkpt>
      <trkpt lat="44.75591" lon="4.77157">
        <ele>87.57</ele>
        <time>2018-09-21T16:49:33Z</time>
      </trkpt>
      <trkpt lat="44.75592" lon="4.77129">
        <ele>87.57</ele>
        <time>2018-09-21T16:49:34Z</time>
      </trkpt>
      <trkpt lat="44.75593" lon="4.77102">
        <ele>87.57</ele>
        <time>2018-09-21T16:49:35Z</time>
      </trkpt>
      <trkpt lat="44.75594" lon="4.77076">
        <ele>87.57</ele>
        <time>2018-09-21T16:49:36Z</time>
      </trkpt>
      <trkpt lat="44.75595" lon="4.7705">
        <ele>86.87</ele>
        <time>2018-09-21T16:49:37Z</time>
      </trkpt>
      <trkpt lat="44.75595" lon="4.77024">
        <ele>86.66</ele>
        <time>2018-09-21T16:49:38Z</time>
      </trkpt>
      <trkpt lat="44.75595" lon="4.76998">
        <ele>86.6</ele>
        <time>2018-09-21T16:49:39Z</time>
      </trkpt>
      <trkpt lat="44.75596" lon="4.76972">
        <ele>86.58</ele>
        <time>2018-09-21T16:49:40Z</time>
      </trkpt>
      <trkpt lat="44.75596" lon="4.76946">
        <ele>86.57</ele>
        <time>2018-09-21T16:49:41Z</time>
      </trkpt>
      <trkpt lat="44.75599" lon="4.76896">
        <ele>87.27</ele>
        <time>2018-09-21T16:49:43Z</time>
      </trkpt>
      <trkpt lat="44.75599" lon="4.76871">
        <ele>87.48</ele>
        <time>2018-09-21T16:49:44Z</time>
      </trkpt>
      <trkpt lat="44.75599" lon="4.76844">
        <ele>87.54</ele>
        <time>2018-09-21T16:49:45Z</time>
      </trkpt>
      <trkpt lat="44.75599" lon="4.76814">
        <ele>87.56</ele>
        <time>2018-09-21T16:49:46Z</time>
      </trkpt>
      <trkpt lat="44.756" lon="4.76782">
        <ele>87.57</ele>
        <time>2018-09-21T16:49:47Z</time>
      </trkpt>
      <trkpt lat="44.75601" lon="4.76748">
        <ele>88.27</ele>
        <time>2018-09-21T16:49:48Z</time>
      </trkpt>
      <trkpt lat="44.75602" lon="4.76712">
        <ele>87.78</ele>
        <time>2018-09-21T16:49:49Z</time>
      </trkpt>
      <trkpt lat="44.75603" lon="4.76678">
        <ele>87.63</ele>
        <time>2018-09-21T16:49:50Z</time>
      </trkpt>
      <trkpt lat="44.75605" lon="4.76646">
        <ele>87.59</ele>
        <time>2018-09-21T16:49:51Z</time>
      </trkpt>
      <trkpt lat="44.75607" lon="4.76616">
        <ele>88.27</ele>
        <time>2018-09-21T16:49:52Z</time>
      </trkpt>
      <trkpt lat="44.75608" lon="4.76586">
        <ele>88.48</ele>
        <time>2018-09-21T16:49:53Z</time>
      </trkpt>
      <trkpt lat="44.7561" lon="4.76557">
        <ele>88.54</ele>
        <time>2018-09-21T16:49:54Z</time>
      </trkpt>
      <trkpt lat="44.75611" lon="4.76529">
        <ele>88.56</ele>
        <time>2018-09-21T16:49:55Z</time>
      </trkpt>
      <trkpt lat="44.75612" lon="4.76501">
        <ele>88.57</ele>
        <time>2018-09-21T16:49:56Z</time>
      </trkpt>
      <trkpt lat="44.75613" lon="4.76473">
        <ele>88.57</ele>
        <time>2018-09-21T16:49:57Z</time>
      </trkpt>
      <trkpt lat="44.75614" lon="4.76446">
        <ele>88.57</ele>
        <time>2018-09-21T16:49:58Z</time>
      </trkpt>
      <trkpt lat="44.75614" lon="4.76418">
        <ele>88.57</ele>
        <time>2018-09-21T16:49:59Z</time>
      </trkpt>
      <trkpt lat="44.75615" lon="4.76392">
        <ele>88.57</ele>
        <time>2018-09-21T16:50:00Z</time>
      </trkpt>
      <trkpt lat="44.75616" lon="4.76365">
        <ele>88.57</ele>
        <time>2018-09-21T16:50:01Z</time>
      </trkpt>
      <trkpt lat="44.75617" lon="4.76339">
        <ele>88.57</ele>
        <time>2018-09-21T16:50:02Z</time>
      </trkpt>
      <trkpt lat="44.75618" lon="4.76313">
        <ele>88.57</ele>
        <time>2018-09-21T16:50:03Z</time>
      </trkpt>
      <trkpt lat="44.75619" lon="4.76288">
        <ele>88.57</ele>
        <time>2018-09-21T16:50:04Z</time>
      </trkpt>
      <trkpt lat="44.7562" lon="4.76237">
        <ele>88.57</ele>
        <time>2018-09-21T16:50:06Z</time>
      </trkpt>
      <trkpt lat="44.75621" lon="4.76192">
        <ele>88.57</ele>
        <time>2018-09-21T16:50:08Z</time>
      </trkpt>
      <trkpt lat="44.75623" lon="4.76151">
        <ele>88.57</ele>
        <time>2018-09-21T16:50:10Z</time>
      </trkpt>
      <trkpt lat="44.75626" lon="4.76118">
        <ele>89.27</ele>
        <time>2018-09-21T16:50:12Z</time>
      </trkpt>
      <trkpt lat="44.75632" lon="4.76091">
        <ele>89.54</ele>
        <time>2018-09-21T16:50:14Z</time>
      </trkpt>
      <trkpt lat="44.75635" lon="4.76054">
        <ele>89.57</ele>
        <time>2018-09-21T16:50:17Z</time>
      </trkpt>
      <trkpt lat="44.75624" lon="4.76019">
        <ele>89.78</ele>
        <time>2018-09-21T16:50:19Z</time>
      </trkpt>
      <trkpt lat="44.75621" lon="4.75977">
        <ele>90.5</ele>
        <time>2018-09-21T16:50:21Z</time>
      </trkpt>
      <trkpt lat="44.75621" lon="4.75951">
        <ele>90.55</ele>
        <time>2018-09-21T16:50:22Z</time>
      </trkpt>
      <trkpt lat="44.75623" lon="4.75924">
        <ele>90.56</ele>
        <time>2018-09-21T16:50:23Z</time>
      </trkpt>
      <trkpt lat="44.75624" lon="4.75899">
        <ele>90.57</ele>
        <time>2018-09-21T16:50:24Z</time>
      </trkpt>
      <trkpt lat="44.75626" lon="4.75849">
        <ele>91.27</ele>
        <time>2018-09-21T16:50:26Z</time>
      </trkpt>
      <trkpt lat="44.75627" lon="4.75821">
        <ele>91.48</ele>
        <time>2018-09-21T16:50:27Z</time>
      </trkpt>
      <trkpt lat="44.75628" lon="4.75792">
        <ele>90.84</ele>
        <time>2018-09-21T16:50:28Z</time>
      </trkpt>
      <trkpt lat="44.7563" lon="4.75764">
        <ele>89.95</ele>
        <time>2018-09-21T16:50:29Z</time>
      </trkpt>
      <trkpt lat="44.75631" lon="4.75735">
        <ele>90.38</ele>
        <time>2018-09-21T16:50:30Z</time>
      </trkpt>
      <trkpt lat="44.75632" lon="4.75708">
        <ele>90.51</ele>
        <time>2018-09-21T16:50:31Z</time>
      </trkpt>
      <trkpt lat="44.75633" lon="4.75681">
        <ele>89.85</ele>
        <time>2018-09-21T16:50:32Z</time>
      </trkpt>
      <trkpt lat="44.75634" lon="4.75654">
        <ele>89.65</ele>
        <time>2018-09-21T16:50:33Z</time>
      </trkpt>
      <trkpt lat="44.75635" lon="4.75628">
        <ele>89.59</ele>
        <time>2018-09-21T16:50:34Z</time>
      </trkpt>
      <trkpt lat="44.75637" lon="4.75602">
        <ele>89.58</ele>
        <time>2018-09-21T16:50:35Z</time>
      </trkpt>
      <trkpt lat="44.7564" lon="4.75553">
        <ele>89.57</ele>
        <time>2018-09-21T16:50:37Z</time>
      </trkpt>
      <trkpt lat="44.7564" lon="4.75509">
        <ele>89.57</ele>
        <time>2018-09-21T16:50:39Z</time>
      </trkpt>
      <trkpt lat="44.75637" lon="4.7547">
        <ele>90.48</ele>
        <time>2018-09-21T16:50:41Z</time>
      </trkpt>
      <trkpt lat="44.75633" lon="4.75437">
        <ele>92.17</ele>
        <time>2018-09-21T16:50:43Z</time>
      </trkpt>
      <trkpt lat="44.7563" lon="4.75404">
        <ele>94.14</ele>
        <time>2018-09-21T16:50:45Z</time>
      </trkpt>
      <trkpt lat="44.75626" lon="4.75371">
        <ele>96.14</ele>
        <time>2018-09-21T16:50:47Z</time>
      </trkpt>
      <trkpt lat="44.75622" lon="4.75336">
        <ele>98.14</ele>
        <time>2018-09-21T16:50:49Z</time>
      </trkpt>
      <trkpt lat="44.75619" lon="4.75302">
        <ele>98.53</ele>
        <time>2018-09-21T16:50:51Z</time>
      </trkpt>
      <trkpt lat="44.75615" lon="4.75267">
        <ele>98.56</ele>
        <time>2018-09-21T16:50:53Z</time>
      </trkpt>
      <trkpt lat="44.75612" lon="4.75231">
        <ele>98.57</ele>
        <time>2018-09-21T16:50:55Z</time>
      </trkpt>
      <trkpt lat="44.75608" lon="4.75195">
        <ele>97.87</ele>
        <time>2018-09-21T16:50:57Z</time>
      </trkpt>
      <trkpt lat="44.75603" lon="4.7516">
        <ele>97.6</ele>
        <time>2018-09-21T16:50:59Z</time>
      </trkpt>
      <trkpt lat="44.75599" lon="4.75127">
        <ele>96.87</ele>
        <time>2018-09-21T16:51:01Z</time>
      </trkpt>
      <trkpt lat="44.75596" lon="4.75094">
        <ele>96.6</ele>
        <time>2018-09-21T16:51:03Z</time>
      </trkpt>
      <trkpt lat="44.75596" lon="4.75067">
        <ele>95.66</ele>
        <time>2018-09-21T16:51:05Z</time>
      </trkpt>
      <trkpt lat="44.75614" lon="4.75046">
        <ele>93.9</ele>
        <time>2018-09-21T16:51:08Z</time>
      </trkpt>
      <trkpt lat="44.75635" lon="4.75044">
        <ele>92.69</ele>
        <time>2018-09-21T16:51:10Z</time>
      </trkpt>
      <trkpt lat="44.75655" lon="4.75036">
        <ele>91.67</ele>
        <time>2018-09-21T16:51:12Z</time>
      </trkpt>
      <trkpt lat="44.75671" lon="4.75011">
        <ele>91.84</ele>
        <time>2018-09-21T16:51:15Z</time>
      </trkpt>
      <trkpt lat="44.75661" lon="4.74982">
        <ele>91.27</ele>
        <time>2018-09-21T16:51:17Z</time>
      </trkpt>
      <trkpt lat="44.75638" lon="4.74976">
        <ele>90.3</ele>
        <time>2018-09-21T16:51:19Z</time>
      </trkpt>
      <trkpt lat="44.75616" lon="4.74969">
        <ele>90.91</ele>
        <time>2018-09-21T16:51:22Z</time>
      </trkpt>
      <trkpt lat="44.75601" lon="4.7495">
        <ele>89.8</ele>
        <time>2018-09-21T16:51:25Z</time>
      </trkpt>
      <trkpt lat="44.75597" lon="4.74916">
        <ele>91.53</ele>
        <time>2018-09-21T16:51:28Z</time>
      </trkpt>
      <trkpt lat="44.756" lon="4.74888">
        <ele>91.24</ele>
        <time>2018-09-21T16:51:30Z</time>
      </trkpt>
      <trkpt lat="44.75603" lon="4.74862">
        <ele>92.12</ele>
        <time>2018-09-21T16:51:32Z</time>
      </trkpt>
      <trkpt lat="44.75605" lon="4.74835">
        <ele>93.11</ele>
        <time>2018-09-21T16:51:34Z</time>
      </trkpt>
      <trkpt lat="44.75611" lon="4.74799">
        <ele>93.91</ele>
        <time>2018-09-21T16:51:37Z</time>
      </trkpt>
      <trkpt lat="44.75618" lon="4.74775">
        <ele>94.18</ele>
        <time>2018-09-21T16:51:39Z</time>
      </trkpt>
      <trkpt lat="44.75629" lon="4.74752">
        <ele>95.82</ele>
        <time>2018-09-21T16:51:41Z</time>
      </trkpt>
      <trkpt lat="44.75646" lon="4.74733">
        <ele>97.08</ele>
        <time>2018-09-21T16:51:43Z</time>
      </trkpt>
      <trkpt lat="44.75663" lon="4.74714">
        <ele>97.9</ele>
        <time>2018-09-21T16:51:45Z</time>
      </trkpt>
      <trkpt lat="44.75679" lon="4.74685">
        <ele>98.88</ele>
        <time>2018-09-21T16:51:47Z</time>
      </trkpt>
      <trkpt lat="44.7569" lon="4.74639">
        <ele>100.79</ele>
        <time>2018-09-21T16:51:49Z</time>
      </trkpt>
      <trkpt lat="44.757" lon="4.74596">
        <ele>101.17</ele>
        <time>2018-09-21T16:51:51Z</time>
      </trkpt>
      <trkpt lat="44.75723" lon="4.74558">
        <ele>100.29</ele>
        <time>2018-09-21T16:51:53Z</time>
      </trkpt>
      <trkpt lat="44.75753" lon="4.74533">
        <ele>100.92</ele>
        <time>2018-09-21T16:51:55Z</time>
      </trkpt>
      <trkpt lat="44.75772" lon="4.74536">
        <ele>101.82</ele>
        <time>2018-09-21T16:51:56Z</time>
      </trkpt>
      <trkpt lat="44.75794" lon="4.74542">
        <ele>100.69</ele>
        <time>2018-09-21T16:51:57Z</time>
      </trkpt>
      <trkpt lat="44.75818" lon="4.74534">
        <ele>100.35</ele>
        <time>2018-09-21T16:51:58Z</time>
      </trkpt>
      <trkpt lat="44.75839" lon="4.74531">
        <ele>99.55</ele>
        <time>2018-09-21T16:51:59Z</time>
      </trkpt>
      <trkpt lat="44.75862" lon="4.74526">
        <ele>99.31</ele>
        <time>2018-09-21T16:52:00Z</time>
      </trkpt>
      <trkpt lat="44.75882" lon="4.7451">
        <ele>99.24</ele>
        <time>2018-09-21T16:52:01Z</time>
      </trkpt>
      <trkpt lat="44.759" lon="4.74491">
        <ele>98.52</ele>
        <time>2018-09-21T16:52:02Z</time>
      </trkpt>
      <trkpt lat="44.75914" lon="4.74469">
        <ele>97.6</ele>
        <time>2018-09-21T16:52:03Z</time>
      </trkpt>
      <trkpt lat="44.75925" lon="4.7444">
        <ele>98.03</ele>
        <time>2018-09-21T16:52:04Z</time>
      </trkpt>
      <trkpt lat="44.75932" lon="4.74409">
        <ele>97.45</ele>
        <time>2018-09-21T16:52:05Z</time>
      </trkpt>
      <trkpt lat="44.75937" lon="4.74374">
        <ele>97.28</ele>
        <time>2018-09-21T16:52:06Z</time>
      </trkpt>
      <trkpt lat="44.75937" lon="4.7434">
        <ele>97.23</ele>
        <time>2018-09-21T16:52:07Z</time>
      </trkpt>
      <trkpt lat="44.75937" lon="4.74308">
        <ele>97.21</ele>
        <time>2018-09-21T16:52:08Z</time>
      </trkpt>
      <trkpt lat="44.75921" lon="4.74269">
        <ele>98.61</ele>
        <time>2018-09-21T16:52:09Z</time>
      </trkpt>
      <trkpt lat="44.75913" lon="4.74234">
        <ele>99.03</ele>
        <time>2018-09-21T16:52:10Z</time>
      </trkpt>
      <trkpt lat="44.75907" lon="4.74203">
        <ele>99.85</ele>
        <time>2018-09-21T16:52:11Z</time>
      </trkpt>
      <trkpt lat="44.75901" lon="4.74169">
        <ele>100.1</ele>
        <time>2018-09-21T16:52:12Z</time>
      </trkpt>
      <trkpt lat="44.75894" lon="4.74138">
        <ele>100.88</ele>
        <time>2018-09-21T16:52:13Z</time>
      </trkpt>
      <trkpt lat="44.75888" lon="4.74107">
        <ele>101.81</ele>
        <time>2018-09-21T16:52:14Z</time>
      </trkpt>
      <trkpt lat="44.75881" lon="4.74077">
        <ele>102.09</ele>
        <time>2018-09-21T16:52:15Z</time>
      </trkpt>
      <trkpt lat="44.75875" lon="4.74048">
        <ele>102.17</ele>
        <time>2018-09-21T16:52:16Z</time>
      </trkpt>
      <trkpt lat="44.7587" lon="4.74017">
        <ele>102.2</ele>
        <time>2018-09-21T16:52:17Z</time>
      </trkpt>
      <trkpt lat="44.75864" lon="4.73987">
        <ele>102.2</ele>
        <time>2018-09-21T16:52:18Z</time>
      </trkpt>
      <trkpt lat="44.75858" lon="4.73957">
        <ele>102.21</ele>
        <time>2018-09-21T16:52:19Z</time>
      </trkpt>
      <trkpt lat="44.75852" lon="4.73927">
        <ele>102.21</ele>
        <time>2018-09-21T16:52:20Z</time>
      </trkpt>
      <trkpt lat="44.75846" lon="4.73897">
        <ele>102.21</ele>
        <time>2018-09-21T16:52:21Z</time>
      </trkpt>
      <trkpt lat="44.75841" lon="4.73865">
        <ele>101.51</ele>
        <time>2018-09-21T16:52:22Z</time>
      </trkpt>
      <trkpt lat="44.75837" lon="4.73834">
        <ele>101.3</ele>
        <time>2018-09-21T16:52:23Z</time>
      </trkpt>
      <trkpt lat="44.75834" lon="4.73803">
        <ele>101.24</ele>
        <time>2018-09-21T16:52:24Z</time>
      </trkpt>
      <trkpt lat="44.75832" lon="4.73774">
        <ele>101.92</ele>
        <time>2018-09-21T16:52:25Z</time>
      </trkpt>
      <trkpt lat="44.75835" lon="4.73739">
        <ele>100.72</ele>
        <time>2018-09-21T16:52:26Z</time>
      </trkpt>
      <trkpt lat="44.75843" lon="4.73709">
        <ele>100.36</ele>
        <time>2018-09-21T16:52:27Z</time>
      </trkpt>
      <trkpt lat="44.75849" lon="4.73681">
        <ele>100.25</ele>
        <time>2018-09-21T16:52:28Z</time>
      </trkpt>
      <trkpt lat="44.75855" lon="4.73651">
        <ele>100.22</ele>
        <time>2018-09-21T16:52:29Z</time>
      </trkpt>
      <trkpt lat="44.75861" lon="4.73621">
        <ele>100.21</ele>
        <time>2018-09-21T16:52:30Z</time>
      </trkpt>
      <trkpt lat="44.75867" lon="4.7359">
        <ele>99.51</ele>
        <time>2018-09-21T16:52:31Z</time>
      </trkpt>
      <trkpt lat="44.75873" lon="4.7356">
        <ele>99.3</ele>
        <time>2018-09-21T16:52:32Z</time>
      </trkpt>
      <trkpt lat="44.7588" lon="4.73531">
        <ele>99.24</ele>
        <time>2018-09-21T16:52:33Z</time>
      </trkpt>
      <trkpt lat="44.75889" lon="4.73504">
        <ele>99.22</ele>
        <time>2018-09-21T16:52:34Z</time>
      </trkpt>
      <trkpt lat="44.759" lon="4.73478">
        <ele>99.21</ele>
        <time>2018-09-21T16:52:35Z</time>
      </trkpt>
      <trkpt lat="44.75912" lon="4.73453">
        <ele>99.91</ele>
        <time>2018-09-21T16:52:36Z</time>
      </trkpt>
      <trkpt lat="44.75931" lon="4.73436">
        <ele>100.12</ele>
        <time>2018-09-21T16:52:37Z</time>
      </trkpt>
      <trkpt lat="44.7595" lon="4.73422">
        <ele>100.18</ele>
        <time>2018-09-21T16:52:38Z</time>
      </trkpt>
      <trkpt lat="44.75969" lon="4.73409">
        <ele>100.9</ele>
        <time>2018-09-21T16:52:39Z</time>
      </trkpt>
      <trkpt lat="44.75988" lon="4.73395">
        <ele>101.12</ele>
        <time>2018-09-21T16:52:40Z</time>
      </trkpt>
      <trkpt lat="44.76006" lon="4.73377">
        <ele>101.18</ele>
        <time>2018-09-21T16:52:41Z</time>
      </trkpt>
      <trkpt lat="44.76023" lon="4.73359">
        <ele>101.2</ele>
        <time>2018-09-21T16:52:42Z</time>
      </trkpt>
      <trkpt lat="44.76035" lon="4.73333">
        <ele>101.91</ele>
        <time>2018-09-21T16:52:43Z</time>
      </trkpt>
      <trkpt lat="44.76048" lon="4.7331">
        <ele>102.12</ele>
        <time>2018-09-21T16:52:44Z</time>
      </trkpt>
      <trkpt lat="44.76062" lon="4.73286">
        <ele>102.18</ele>
        <time>2018-09-21T16:52:45Z</time>
      </trkpt>
      <trkpt lat="44.76074" lon="4.73262">
        <ele>102.9</ele>
        <time>2018-09-21T16:52:46Z</time>
      </trkpt>
      <trkpt lat="44.76084" lon="4.73236">
        <ele>103.12</ele>
        <time>2018-09-21T16:52:47Z</time>
      </trkpt>
      <trkpt lat="44.76092" lon="4.73206">
        <ele>102.48</ele>
        <time>2018-09-21T16:52:48Z</time>
      </trkpt>
      <trkpt lat="44.76098" lon="4.73177">
        <ele>102.99</ele>
        <time>2018-09-21T16:52:49Z</time>
      </trkpt>
      <trkpt lat="44.76103" lon="4.73146">
        <ele>103.14</ele>
        <time>2018-09-21T16:52:50Z</time>
      </trkpt>
      <trkpt lat="44.76108" lon="4.73117">
        <ele>103.89</ele>
        <time>2018-09-21T16:52:51Z</time>
      </trkpt>
      <trkpt lat="44.76114" lon="4.73087">
        <ele>104.11</ele>
        <time>2018-09-21T16:52:52Z</time>
      </trkpt>
      <trkpt lat="44.76119" lon="4.73055">
        <ele>104.18</ele>
        <time>2018-09-21T16:52:53Z</time>
      </trkpt>
      <trkpt lat="44.76124" lon="4.73022">
        <ele>104.2</ele>
        <time>2018-09-21T16:52:54Z</time>
      </trkpt>
      <trkpt lat="44.76131" lon="4.72989">
        <ele>104.21</ele>
        <time>2018-09-21T16:52:55Z</time>
      </trkpt>
      <trkpt lat="44.76138" lon="4.72959">
        <ele>104.91</ele>
        <time>2018-09-21T16:52:56Z</time>
      </trkpt>
      <trkpt lat="44.76143" lon="4.72931">
        <ele>105.12</ele>
        <time>2018-09-21T16:52:57Z</time>
      </trkpt>
      <trkpt lat="44.76147" lon="4.72905">
        <ele>105.88</ele>
        <time>2018-09-21T16:52:58Z</time>
      </trkpt>
      <trkpt lat="44.76153" lon="4.72862">
        <ele>106.88</ele>
        <time>2018-09-21T16:53:00Z</time>
      </trkpt>
      <trkpt lat="44.76151" lon="4.72821">
        <ele>107.18</ele>
        <time>2018-09-21T16:53:02Z</time>
      </trkpt>
      <trkpt lat="44.76143" lon="4.72783">
        <ele>107.21</ele>
        <time>2018-09-21T16:53:04Z</time>
      </trkpt>
      <trkpt lat="44.76139" lon="4.72742">
        <ele>107.21</ele>
        <time>2018-09-21T16:53:06Z</time>
      </trkpt>
      <trkpt lat="44.76139" lon="4.72705">
        <ele>108.12</ele>
        <time>2018-09-21T16:53:08Z</time>
      </trkpt>
      <trkpt lat="44.76142" lon="4.72672">
        <ele>107.29</ele>
        <time>2018-09-21T16:53:10Z</time>
      </trkpt>
      <trkpt lat="44.76145" lon="4.72641">
        <ele>108.83</ele>
        <time>2018-09-21T16:53:12Z</time>
      </trkpt>
      <trkpt lat="44.76145" lon="4.72614">
        <ele>109.87</ele>
        <time>2018-09-21T16:53:14Z</time>
      </trkpt>
      <trkpt lat="44.76145" lon="4.72578">
        <ele>111.11</ele>
        <time>2018-09-21T16:53:17Z</time>
      </trkpt>
      <trkpt lat="44.76145" lon="4.72542">
        <ele>112.12</ele>
        <time>2018-09-21T16:53:20Z</time>
      </trkpt>
      <trkpt lat="44.76142" lon="4.72514">
        <ele>113.88</ele>
        <time>2018-09-21T16:53:23Z</time>
      </trkpt>
      <trkpt lat="44.76139" lon="4.72481">
        <ele>114.2</ele>
        <time>2018-09-21T16:53:26Z</time>
      </trkpt>
      <trkpt lat="44.76137" lon="4.72446">
        <ele>114.27</ele>
        <time>2018-09-21T16:53:29Z</time>
      </trkpt>
      <trkpt lat="44.76135" lon="4.72417">
        <ele>113.3</ele>
        <time>2018-09-21T16:53:34Z</time>
      </trkpt>
      <trkpt lat="44.7613" lon="4.72392">
        <ele>113.23</ele>
        <time>2018-09-21T16:53:38Z</time>
      </trkpt>
      <trkpt lat="44.7613" lon="4.7236">
        <ele>115.81</ele>
        <time>2018-09-21T16:53:42Z</time>
      </trkpt>
      <trkpt lat="44.76133" lon="4.72332">
        <ele>117.11</ele>
        <time>2018-09-21T16:53:45Z</time>
      </trkpt>
      <trkpt lat="44.76138" lon="4.72302">
        <ele>115.31</ele>
        <time>2018-09-21T16:53:49Z</time>
      </trkpt>
      <trkpt lat="44.76139" lon="4.72275">
        <ele>116.13</ele>
        <time>2018-09-21T16:53:51Z</time>
      </trkpt>
      <trkpt lat="44.76144" lon="4.72248">
        <ele>115.29</ele>
        <time>2018-09-21T16:53:53Z</time>
      </trkpt>
      <trkpt lat="44.76144" lon="4.72216">
        <ele>113.96</ele>
        <time>2018-09-21T16:53:56Z</time>
      </trkpt>
      <trkpt lat="44.76149" lon="4.72187">
        <ele>111.29</ele>
        <time>2018-09-21T16:54:00Z</time>
      </trkpt>
      <trkpt lat="44.76151" lon="4.72153">
        <ele>110.51</ele>
        <time>2018-09-21T16:54:03Z</time>
      </trkpt>
      <trkpt lat="44.76155" lon="4.72125">
        <ele>110.24</ele>
        <time>2018-09-21T16:54:05Z</time>
      </trkpt>
      <trkpt lat="44.7616" lon="4.72091">
        <ele>111.18</ele>
        <time>2018-09-21T16:54:08Z</time>
      </trkpt>
      <trkpt lat="44.76161" lon="4.72064">
        <ele>111.91</ele>
        <time>2018-09-21T16:54:10Z</time>
      </trkpt>
      <trkpt lat="44.76156" lon="4.72035">
        <ele>112.88</ele>
        <time>2018-09-21T16:54:12Z</time>
      </trkpt>
      <trkpt lat="44.76147" lon="4.72004">
        <ele>113.18</ele>
        <time>2018-09-21T16:54:14Z</time>
      </trkpt>
      <trkpt lat="44.76137" lon="4.71974">
        <ele>113.21</ele>
        <time>2018-09-21T16:54:16Z</time>
      </trkpt>
      <trkpt lat="44.76125" lon="4.71939">
        <ele>113.21</ele>
        <time>2018-09-21T16:54:18Z</time>
      </trkpt>
      <trkpt lat="44.76114" lon="4.71902">
        <ele>113.91</ele>
        <time>2018-09-21T16:54:20Z</time>
      </trkpt>
      <trkpt lat="44.76104" lon="4.71864">
        <ele>113.48</ele>
        <time>2018-09-21T16:54:22Z</time>
      </trkpt>
      <trkpt lat="44.76093" lon="4.71828">
        <ele>113.93</ele>
        <time>2018-09-21T16:54:24Z</time>
      </trkpt>
      <trkpt lat="44.76082" lon="4.7179">
        <ele>114.18</ele>
        <time>2018-09-21T16:54:26Z</time>
      </trkpt>
      <trkpt lat="44.7607" lon="4.7175">
        <ele>115.12</ele>
        <time>2018-09-21T16:54:28Z</time>
      </trkpt>
      <trkpt lat="44.76062" lon="4.71726">
        <ele>115.18</ele>
        <time>2018-09-21T16:54:29Z</time>
      </trkpt>
      <trkpt lat="44.76054" lon="4.71699">
        <ele>115.2</ele>
        <time>2018-09-21T16:54:30Z</time>
      </trkpt>
      <trkpt lat="44.76046" lon="4.71672">
        <ele>115.91</ele>
        <time>2018-09-21T16:54:31Z</time>
      </trkpt>
      <trkpt lat="44.76039" lon="4.71645">
        <ele>116.12</ele>
        <time>2018-09-21T16:54:32Z</time>
      </trkpt>
      <trkpt lat="44.76031" lon="4.71618">
        <ele>116.18</ele>
        <time>2018-09-21T16:54:33Z</time>
      </trkpt>
      <trkpt lat="44.76024" lon="4.71592">
        <ele>116.9</ele>
        <time>2018-09-21T16:54:34Z</time>
      </trkpt>
      <trkpt lat="44.76017" lon="4.71568">
        <ele>117.12</ele>
        <time>2018-09-21T16:54:35Z</time>
      </trkpt>
      <trkpt lat="44.76009" lon="4.71544">
        <ele>117.18</ele>
        <time>2018-09-21T16:54:36Z</time>
      </trkpt>
      <trkpt lat="44.76" lon="4.7152">
        <ele>117.9</ele>
        <time>2018-09-21T16:54:37Z</time>
      </trkpt>
      <trkpt lat="44.7599" lon="4.71498">
        <ele>118.12</ele>
        <time>2018-09-21T16:54:38Z</time>
      </trkpt>
      <trkpt lat="44.7598" lon="4.71476">
        <ele>118.18</ele>
        <time>2018-09-21T16:54:39Z</time>
      </trkpt>
      <trkpt lat="44.75969" lon="4.71453">
        <ele>118.2</ele>
        <time>2018-09-21T16:54:40Z</time>
      </trkpt>
      <trkpt lat="44.75958" lon="4.71428">
        <ele>117.51</ele>
        <time>2018-09-21T16:54:41Z</time>
      </trkpt>
      <trkpt lat="44.75946" lon="4.71401">
        <ele>117.3</ele>
        <time>2018-09-21T16:54:42Z</time>
      </trkpt>
      <trkpt lat="44.75933" lon="4.71375">
        <ele>117.93</ele>
        <time>2018-09-21T16:54:43Z</time>
      </trkpt>
      <trkpt lat="44.75921" lon="4.71347">
        <ele>117.43</ele>
        <time>2018-09-21T16:54:44Z</time>
      </trkpt>
      <trkpt lat="44.75909" lon="4.7132">
        <ele>117.27</ele>
        <time>2018-09-21T16:54:45Z</time>
      </trkpt>
      <trkpt lat="44.75898" lon="4.71294">
        <ele>117.23</ele>
        <time>2018-09-21T16:54:46Z</time>
      </trkpt>
      <trkpt lat="44.75885" lon="4.71268">
        <ele>117.91</ele>
        <time>2018-09-21T16:54:47Z</time>
      </trkpt>
      <trkpt lat="44.75873" lon="4.71243">
        <ele>118.12</ele>
        <time>2018-09-21T16:54:48Z</time>
      </trkpt>
      <trkpt lat="44.75862" lon="4.71217">
        <ele>118.18</ele>
        <time>2018-09-21T16:54:49Z</time>
      </trkpt>
      <trkpt lat="44.75852" lon="4.71192">
        <ele>118.2</ele>
        <time>2018-09-21T16:54:50Z</time>
      </trkpt>
      <trkpt lat="44.75841" lon="4.71164">
        <ele>118.21</ele>
        <time>2018-09-21T16:54:51Z</time>
      </trkpt>
      <trkpt lat="44.75828" lon="4.7114">
        <ele>117.51</ele>
        <time>2018-09-21T16:54:52Z</time>
      </trkpt>
      <trkpt lat="44.75817" lon="4.71115">
        <ele>118</ele>
        <time>2018-09-21T16:54:53Z</time>
      </trkpt>
      <trkpt lat="44.75804" lon="4.71091">
        <ele>118.14</ele>
        <time>2018-09-21T16:54:54Z</time>
      </trkpt>
      <trkpt lat="44.75794" lon="4.71066">
        <ele>118.19</ele>
        <time>2018-09-21T16:54:55Z</time>
      </trkpt>
      <trkpt lat="44.75783" lon="4.71042">
        <ele>118.2</ele>
        <time>2018-09-21T16:54:56Z</time>
      </trkpt>
      <trkpt lat="44.75771" lon="4.71017">
        <ele>118.91</ele>
        <time>2018-09-21T16:54:57Z</time>
      </trkpt>
      <trkpt lat="44.75759" lon="4.70992">
        <ele>118.42</ele>
        <time>2018-09-21T16:54:58Z</time>
      </trkpt>
      <trkpt lat="44.75748" lon="4.70968">
        <ele>118.27</ele>
        <time>2018-09-21T16:54:59Z</time>
      </trkpt>
      <trkpt lat="44.75737" lon="4.70944">
        <ele>118.23</ele>
        <time>2018-09-21T16:55:00Z</time>
      </trkpt>
      <trkpt lat="44.75726" lon="4.7092">
        <ele>118.21</ele>
        <time>2018-09-21T16:55:01Z</time>
      </trkpt>
      <trkpt lat="44.75716" lon="4.70896">
        <ele>118.21</ele>
        <time>2018-09-21T16:55:02Z</time>
      </trkpt>
      <trkpt lat="44.75704" lon="4.70871">
        <ele>118.21</ele>
        <time>2018-09-21T16:55:03Z</time>
      </trkpt>
      <trkpt lat="44.75693" lon="4.70847">
        <ele>118.91</ele>
        <time>2018-09-21T16:55:04Z</time>
      </trkpt>
      <trkpt lat="44.75682" lon="4.70824">
        <ele>119.12</ele>
        <time>2018-09-21T16:55:05Z</time>
      </trkpt>
      <trkpt lat="44.75671" lon="4.70801">
        <ele>119.88</ele>
        <time>2018-09-21T16:55:06Z</time>
      </trkpt>
      <trkpt lat="44.7566" lon="4.70778">
        <ele>120.11</ele>
        <time>2018-09-21T16:55:07Z</time>
      </trkpt>
      <trkpt lat="44.75651" lon="4.70756">
        <ele>120.18</ele>
        <time>2018-09-21T16:55:08Z</time>
      </trkpt>
      <trkpt lat="44.7564" lon="4.70735">
        <ele>120.2</ele>
        <time>2018-09-21T16:55:09Z</time>
      </trkpt>
      <trkpt lat="44.75631" lon="4.70713">
        <ele>120.21</ele>
        <time>2018-09-21T16:55:10Z</time>
      </trkpt>
      <trkpt lat="44.75612" lon="4.70673">
        <ele>120.21</ele>
        <time>2018-09-21T16:55:12Z</time>
      </trkpt>
      <trkpt lat="44.75597" lon="4.70636">
        <ele>120.21</ele>
        <time>2018-09-21T16:55:14Z</time>
      </trkpt>
      <trkpt lat="44.75581" lon="4.706">
        <ele>120.91</ele>
        <time>2018-09-21T16:55:16Z</time>
      </trkpt>
      <trkpt lat="44.75571" lon="4.7056">
        <ele>120.97</ele>
        <time>2018-09-21T16:55:18Z</time>
      </trkpt>
      <trkpt lat="44.75564" lon="4.7052">
        <ele>121.19</ele>
        <time>2018-09-21T16:55:20Z</time>
      </trkpt>
      <trkpt lat="44.75558" lon="4.70481">
        <ele>121.21</ele>
        <time>2018-09-21T16:55:22Z</time>
      </trkpt>
      <trkpt lat="44.75553" lon="4.70443">
        <ele>122.12</ele>
        <time>2018-09-21T16:55:24Z</time>
      </trkpt>
      <trkpt lat="44.75548" lon="4.70405">
        <ele>123.81</ele>
        <time>2018-09-21T16:55:26Z</time>
      </trkpt>
      <trkpt lat="44.75542" lon="4.70369">
        <ele>124.87</ele>
        <time>2018-09-21T16:55:28Z</time>
      </trkpt>
      <trkpt lat="44.75536" lon="4.7033">
        <ele>125.18</ele>
        <time>2018-09-21T16:55:30Z</time>
      </trkpt>
      <trkpt lat="44.75531" lon="4.70293">
        <ele>125.21</ele>
        <time>2018-09-21T16:55:32Z</time>
      </trkpt>
      <trkpt lat="44.75526" lon="4.70254">
        <ele>126.12</ele>
        <time>2018-09-21T16:55:34Z</time>
      </trkpt>
      <trkpt lat="44.7552" lon="4.70214">
        <ele>127.11</ele>
        <time>2018-09-21T16:55:36Z</time>
      </trkpt>
      <trkpt lat="44.75514" lon="4.70173">
        <ele>127.2</ele>
        <time>2018-09-21T16:55:38Z</time>
      </trkpt>
      <trkpt lat="44.75509" lon="4.70134">
        <ele>128.12</ele>
        <time>2018-09-21T16:55:40Z</time>
      </trkpt>
      <trkpt lat="44.75503" lon="4.70095">
        <ele>128.2</ele>
        <time>2018-09-21T16:55:42Z</time>
      </trkpt>
      <trkpt lat="44.75498" lon="4.70058">
        <ele>128.21</ele>
        <time>2018-09-21T16:55:44Z</time>
      </trkpt>
      <trkpt lat="44.75492" lon="4.70021">
        <ele>128.91</ele>
        <time>2018-09-21T16:55:46Z</time>
      </trkpt>
      <trkpt lat="44.75488" lon="4.69986">
        <ele>129.88</ele>
        <time>2018-09-21T16:55:48Z</time>
      </trkpt>
      <trkpt lat="44.75482" lon="4.69951">
        <ele>130.18</ele>
        <time>2018-09-21T16:55:50Z</time>
      </trkpt>
      <trkpt lat="44.75478" lon="4.69916">
        <ele>131.12</ele>
        <time>2018-09-21T16:55:52Z</time>
      </trkpt>
      <trkpt lat="44.7547" lon="4.69883">
        <ele>130.29</ele>
        <time>2018-09-21T16:55:54Z</time>
      </trkpt>
      <trkpt lat="44.75459" lon="4.69852">
        <ele>129.52</ele>
        <time>2018-09-21T16:55:56Z</time>
      </trkpt>
      <trkpt lat="44.75448" lon="4.6982">
        <ele>129.24</ele>
        <time>2018-09-21T16:55:58Z</time>
      </trkpt>
      <trkpt lat="44.75436" lon="4.69788">
        <ele>129.21</ele>
        <time>2018-09-21T16:56:00Z</time>
      </trkpt>
      <trkpt lat="44.75425" lon="4.69754">
        <ele>129.21</ele>
        <time>2018-09-21T16:56:02Z</time>
      </trkpt>
      <trkpt lat="44.75413" lon="4.69722">
        <ele>129.42</ele>
        <time>2018-09-21T16:56:04Z</time>
      </trkpt>
      <trkpt lat="44.75402" lon="4.69687">
        <ele>128.53</ele>
        <time>2018-09-21T16:56:06Z</time>
      </trkpt>
      <trkpt lat="44.7539" lon="4.69652">
        <ele>128.94</ele>
        <time>2018-09-21T16:56:08Z</time>
      </trkpt>
      <trkpt lat="44.75378" lon="4.69614">
        <ele>129.18</ele>
        <time>2018-09-21T16:56:10Z</time>
      </trkpt>
      <trkpt lat="44.75364" lon="4.69576">
        <ele>129.21</ele>
        <time>2018-09-21T16:56:12Z</time>
      </trkpt>
      <trkpt lat="44.75351" lon="4.69537">
        <ele>129.91</ele>
        <time>2018-09-21T16:56:14Z</time>
      </trkpt>
      <trkpt lat="44.75338" lon="4.69499">
        <ele>130.18</ele>
        <time>2018-09-21T16:56:16Z</time>
      </trkpt>
      <trkpt lat="44.75326" lon="4.69461">
        <ele>129.3</ele>
        <time>2018-09-21T16:56:18Z</time>
      </trkpt>
      <trkpt lat="44.75313" lon="4.69422">
        <ele>129.22</ele>
        <time>2018-09-21T16:56:20Z</time>
      </trkpt>
      <trkpt lat="44.753" lon="4.69385">
        <ele>129.21</ele>
        <time>2018-09-21T16:56:22Z</time>
      </trkpt>
      <trkpt lat="44.75287" lon="4.69347">
        <ele>130.12</ele>
        <time>2018-09-21T16:56:24Z</time>
      </trkpt>
      <trkpt lat="44.75274" lon="4.69309">
        <ele>130.2</ele>
        <time>2018-09-21T16:56:26Z</time>
      </trkpt>
      <trkpt lat="44.75261" lon="4.69272">
        <ele>130.21</ele>
        <time>2018-09-21T16:56:28Z</time>
      </trkpt>
      <trkpt lat="44.75247" lon="4.69235">
        <ele>130.21</ele>
        <time>2018-09-21T16:56:30Z</time>
      </trkpt>
      <trkpt lat="44.75233" lon="4.69194">
        <ele>130.21</ele>
        <time>2018-09-21T16:56:32Z</time>
      </trkpt>
      <trkpt lat="44.75218" lon="4.69154">
        <ele>129.3</ele>
        <time>2018-09-21T16:56:34Z</time>
      </trkpt>
      <trkpt lat="44.75204" lon="4.69114">
        <ele>129.22</ele>
        <time>2018-09-21T16:56:36Z</time>
      </trkpt>
      <trkpt lat="44.75189" lon="4.69073">
        <ele>129.21</ele>
        <time>2018-09-21T16:56:38Z</time>
      </trkpt>
      <trkpt lat="44.75175" lon="4.69035">
        <ele>129.42</ele>
        <time>2018-09-21T16:56:40Z</time>
      </trkpt>
      <trkpt lat="44.75162" lon="4.68995">
        <ele>129.23</ele>
        <time>2018-09-21T16:56:42Z</time>
      </trkpt>
      <trkpt lat="44.75147" lon="4.68954">
        <ele>130.82</ele>
        <time>2018-09-21T16:56:44Z</time>
      </trkpt>
      <trkpt lat="44.75138" lon="4.68912">
        <ele>131.87</ele>
        <time>2018-09-21T16:56:46Z</time>
      </trkpt>
      <trkpt lat="44.7514" lon="4.68865">
        <ele>132.88</ele>
        <time>2018-09-21T16:56:48Z</time>
      </trkpt>
      <trkpt lat="44.75155" lon="4.6882">
        <ele>133.18</ele>
        <time>2018-09-21T16:56:50Z</time>
      </trkpt>
      <trkpt lat="44.75162" lon="4.68797">
        <ele>133.9</ele>
        <time>2018-09-21T16:56:51Z</time>
      </trkpt>
      <trkpt lat="44.7517" lon="4.68772">
        <ele>134.82</ele>
        <time>2018-09-21T16:56:52Z</time>
      </trkpt>
      <trkpt lat="44.75177" lon="4.68746">
        <ele>135.09</ele>
        <time>2018-09-21T16:56:53Z</time>
      </trkpt>
      <trkpt lat="44.75185" lon="4.68722">
        <ele>135.17</ele>
        <time>2018-09-21T16:56:54Z</time>
      </trkpt>
      <trkpt lat="44.75194" lon="4.68696">
        <ele>135.2</ele>
        <time>2018-09-21T16:56:55Z</time>
      </trkpt>
      <trkpt lat="44.75204" lon="4.68671">
        <ele>134.5</ele>
        <time>2018-09-21T16:56:56Z</time>
      </trkpt>
      <trkpt lat="44.75215" lon="4.68649">
        <ele>134.3</ele>
        <time>2018-09-21T16:56:57Z</time>
      </trkpt>
      <trkpt lat="44.75229" lon="4.6863">
        <ele>134.93</ele>
        <time>2018-09-21T16:56:58Z</time>
      </trkpt>
      <trkpt lat="44.75243" lon="4.68611">
        <ele>135.13</ele>
        <time>2018-09-21T16:56:59Z</time>
      </trkpt>
      <trkpt lat="44.75257" lon="4.68589">
        <ele>135.18</ele>
        <time>2018-09-21T16:57:00Z</time>
      </trkpt>
      <trkpt lat="44.75271" lon="4.68566">
        <ele>135.9</ele>
        <time>2018-09-21T16:57:01Z</time>
      </trkpt>
      <trkpt lat="44.75282" lon="4.68543">
        <ele>136.12</ele>
        <time>2018-09-21T16:57:02Z</time>
      </trkpt>
      <trkpt lat="44.7529" lon="4.68518">
        <ele>136.18</ele>
        <time>2018-09-21T16:57:03Z</time>
      </trkpt>
      <trkpt lat="44.75289" lon="4.68481">
        <ele>136.9</ele>
        <time>2018-09-21T16:57:04Z</time>
      </trkpt>
      <trkpt lat="44.75293" lon="4.68452">
        <ele>137.82</ele>
        <time>2018-09-21T16:57:05Z</time>
      </trkpt>
      <trkpt lat="44.75296" lon="4.68426">
        <ele>138.09</ele>
        <time>2018-09-21T16:57:06Z</time>
      </trkpt>
      <trkpt lat="44.75299" lon="4.68401">
        <ele>138.17</ele>
        <time>2018-09-21T16:57:07Z</time>
      </trkpt>
      <trkpt lat="44.75302" lon="4.68352">
        <ele>138.2</ele>
        <time>2018-09-21T16:57:09Z</time>
      </trkpt>
      <trkpt lat="44.75299" lon="4.68326">
        <ele>138.91</ele>
        <time>2018-09-21T16:57:10Z</time>
      </trkpt>
      <trkpt lat="44.75296" lon="4.68301">
        <ele>139.82</ele>
        <time>2018-09-21T16:57:11Z</time>
      </trkpt>
      <trkpt lat="44.75291" lon="4.68276">
        <ele>140.79</ele>
        <time>2018-09-21T16:57:12Z</time>
      </trkpt>
      <trkpt lat="44.75286" lon="4.68249">
        <ele>141.08</ele>
        <time>2018-09-21T16:57:13Z</time>
      </trkpt>
      <trkpt lat="44.75282" lon="4.68222">
        <ele>141.17</ele>
        <time>2018-09-21T16:57:14Z</time>
      </trkpt>
      <trkpt lat="44.75278" lon="4.68196">
        <ele>141.2</ele>
        <time>2018-09-21T16:57:15Z</time>
      </trkpt>
      <trkpt lat="44.75273" lon="4.68169">
        <ele>140.5</ele>
        <time>2018-09-21T16:57:16Z</time>
      </trkpt>
      <trkpt lat="44.75267" lon="4.68142">
        <ele>140.3</ele>
        <time>2018-09-21T16:57:17Z</time>
      </trkpt>
      <trkpt lat="44.75262" lon="4.68117">
        <ele>140.93</ele>
        <time>2018-09-21T16:57:18Z</time>
      </trkpt>
      <trkpt lat="44.75257" lon="4.68092">
        <ele>141.13</ele>
        <time>2018-09-21T16:57:19Z</time>
      </trkpt>
      <trkpt lat="44.75251" lon="4.68067">
        <ele>141.18</ele>
        <time>2018-09-21T16:57:20Z</time>
      </trkpt>
      <trkpt lat="44.75243" lon="4.68044">
        <ele>141.2</ele>
        <time>2018-09-21T16:57:21Z</time>
      </trkpt>
      <trkpt lat="44.75233" lon="4.68022">
        <ele>141.21</ele>
        <time>2018-09-21T16:57:22Z</time>
      </trkpt>
      <trkpt lat="44.75223" lon="4.67999">
        <ele>141.21</ele>
        <time>2018-09-21T16:57:23Z</time>
      </trkpt>
      <trkpt lat="44.7521" lon="4.67977">
        <ele>141.21</ele>
        <time>2018-09-21T16:57:24Z</time>
      </trkpt>
      <trkpt lat="44.75194" lon="4.6796">
        <ele>141.21</ele>
        <time>2018-09-21T16:57:25Z</time>
      </trkpt>
      <trkpt lat="44.75181" lon="4.6794">
        <ele>141.21</ele>
        <time>2018-09-21T16:57:26Z</time>
      </trkpt>
      <trkpt lat="44.75166" lon="4.67922">
        <ele>141.21</ele>
        <time>2018-09-21T16:57:27Z</time>
      </trkpt>
      <trkpt lat="44.75153" lon="4.67904">
        <ele>141.21</ele>
        <time>2018-09-21T16:57:28Z</time>
      </trkpt>
      <trkpt lat="44.75139" lon="4.67887">
        <ele>141.21</ele>
        <time>2018-09-21T16:57:29Z</time>
      </trkpt>
      <trkpt lat="44.75125" lon="4.67869">
        <ele>141.21</ele>
        <time>2018-09-21T16:57:30Z</time>
      </trkpt>
      <trkpt lat="44.7511" lon="4.67854">
        <ele>141.21</ele>
        <time>2018-09-21T16:57:31Z</time>
      </trkpt>
      <trkpt lat="44.75093" lon="4.67841">
        <ele>141.21</ele>
        <time>2018-09-21T16:57:32Z</time>
      </trkpt>
      <trkpt lat="44.75075" lon="4.67831">
        <ele>141.91</ele>
        <time>2018-09-21T16:57:33Z</time>
      </trkpt>
      <trkpt lat="44.75057" lon="4.67823">
        <ele>141.42</ele>
        <time>2018-09-21T16:57:34Z</time>
      </trkpt>
      <trkpt lat="44.75038" lon="4.67817">
        <ele>141.27</ele>
        <time>2018-09-21T16:57:35Z</time>
      </trkpt>
      <trkpt lat="44.75018" lon="4.67811">
        <ele>141.23</ele>
        <time>2018-09-21T16:57:36Z</time>
      </trkpt>
      <trkpt lat="44.74999" lon="4.67805">
        <ele>141.88</ele>
        <time>2018-09-21T16:57:37Z</time>
      </trkpt>
      <trkpt lat="44.74979" lon="4.67798">
        <ele>142.77</ele>
        <time>2018-09-21T16:57:38Z</time>
      </trkpt>
      <trkpt lat="44.74961" lon="4.67791">
        <ele>143.04</ele>
        <time>2018-09-21T16:57:39Z</time>
      </trkpt>
      <trkpt lat="44.74943" lon="4.67784">
        <ele>143.12</ele>
        <time>2018-09-21T16:57:40Z</time>
      </trkpt>
      <trkpt lat="44.74926" lon="4.67773">
        <ele>143.15</ele>
        <time>2018-09-21T16:57:41Z</time>
      </trkpt>
      <trkpt lat="44.74909" lon="4.67763">
        <ele>143.15</ele>
        <time>2018-09-21T16:57:42Z</time>
      </trkpt>
      <trkpt lat="44.74879" lon="4.67741">
        <ele>144.07</ele>
        <time>2018-09-21T16:57:44Z</time>
      </trkpt>
      <trkpt lat="44.74849" lon="4.67719">
        <ele>145.06</ele>
        <time>2018-09-21T16:57:46Z</time>
      </trkpt>
      <trkpt lat="44.74823" lon="4.67698">
        <ele>144.45</ele>
        <time>2018-09-21T16:57:48Z</time>
      </trkpt>
      <trkpt lat="44.74797" lon="4.67675">
        <ele>144.88</ele>
        <time>2018-09-21T16:57:50Z</time>
      </trkpt>
      <trkpt lat="44.74777" lon="4.67648">
        <ele>145.13</ele>
        <time>2018-09-21T16:57:52Z</time>
      </trkpt>
      <trkpt lat="44.74761" lon="4.67618">
        <ele>145.15</ele>
        <time>2018-09-21T16:57:54Z</time>
      </trkpt>
      <trkpt lat="44.74746" lon="4.67588">
        <ele>145.16</ele>
        <time>2018-09-21T16:57:56Z</time>
      </trkpt>
      <trkpt lat="44.74728" lon="4.67558">
        <ele>145.16</ele>
        <time>2018-09-21T16:57:58Z</time>
      </trkpt>
      <trkpt lat="44.74713" lon="4.67528">
        <ele>145.86</ele>
        <time>2018-09-21T16:58:00Z</time>
      </trkpt>
      <trkpt lat="44.74697" lon="4.67497">
        <ele>146.13</ele>
        <time>2018-09-21T16:58:02Z</time>
      </trkpt>
      <trkpt lat="44.74682" lon="4.67466">
        <ele>145.24</ele>
        <time>2018-09-21T16:58:04Z</time>
      </trkpt>
      <trkpt lat="44.74665" lon="4.67436">
        <ele>144.46</ele>
        <time>2018-09-21T16:58:06Z</time>
      </trkpt>
      <trkpt lat="44.74652" lon="4.67401">
        <ele>145.09</ele>
        <time>2018-09-21T16:58:08Z</time>
      </trkpt>
      <trkpt lat="44.74641" lon="4.67364">
        <ele>145.15</ele>
        <time>2018-09-21T16:58:10Z</time>
      </trkpt>
      <trkpt lat="44.74631" lon="4.67327">
        <ele>145.16</ele>
        <time>2018-09-21T16:58:12Z</time>
      </trkpt>
      <trkpt lat="44.7462" lon="4.67288">
        <ele>145.16</ele>
        <time>2018-09-21T16:58:14Z</time>
      </trkpt>
      <trkpt lat="44.74609" lon="4.67249">
        <ele>145.37</ele>
        <time>2018-09-21T16:58:16Z</time>
      </trkpt>
      <trkpt lat="44.74598" lon="4.67211">
        <ele>146.09</ele>
        <time>2018-09-21T16:58:18Z</time>
      </trkpt>
      <trkpt lat="44.74585" lon="4.67174">
        <ele>146.15</ele>
        <time>2018-09-21T16:58:20Z</time>
      </trkpt>
      <trkpt lat="44.74568" lon="4.67142">
        <ele>147.07</ele>
        <time>2018-09-21T16:58:22Z</time>
      </trkpt>
      <trkpt lat="44.74551" lon="4.6711">
        <ele>148.06</ele>
        <time>2018-09-21T16:58:24Z</time>
      </trkpt>
      <trkpt lat="44.74535" lon="4.67078">
        <ele>148.85</ele>
        <time>2018-09-21T16:58:26Z</time>
      </trkpt>
      <trkpt lat="44.7452" lon="4.67046">
        <ele>148.22</ele>
        <time>2018-09-21T16:58:28Z</time>
      </trkpt>
      <trkpt lat="44.74504" lon="4.67015">
        <ele>148.86</ele>
        <time>2018-09-21T16:58:30Z</time>
      </trkpt>
      <trkpt lat="44.74488" lon="4.66986">
        <ele>149.83</ele>
        <time>2018-09-21T16:58:32Z</time>
      </trkpt>
      <trkpt lat="44.74474" lon="4.66956">
        <ele>150.13</ele>
        <time>2018-09-21T16:58:34Z</time>
      </trkpt>
      <trkpt lat="44.74458" lon="4.66926">
        <ele>150.15</ele>
        <time>2018-09-21T16:58:36Z</time>
      </trkpt>
      <trkpt lat="44.74441" lon="4.66897">
        <ele>150.16</ele>
        <time>2018-09-21T16:58:38Z</time>
      </trkpt>
      <trkpt lat="44.74426" lon="4.66867">
        <ele>151.07</ele>
        <time>2018-09-21T16:58:40Z</time>
      </trkpt>
      <trkpt lat="44.7441" lon="4.66836">
        <ele>151.15</ele>
        <time>2018-09-21T16:58:42Z</time>
      </trkpt>
      <trkpt lat="44.74392" lon="4.66804">
        <ele>151.16</ele>
        <time>2018-09-21T16:58:44Z</time>
      </trkpt>
      <trkpt lat="44.74372" lon="4.66768">
        <ele>151.86</ele>
        <time>2018-09-21T16:58:46Z</time>
      </trkpt>
      <trkpt lat="44.74353" lon="4.6673">
        <ele>152.13</ele>
        <time>2018-09-21T16:58:48Z</time>
      </trkpt>
      <trkpt lat="44.74333" lon="4.66691">
        <ele>152.85</ele>
        <time>2018-09-21T16:58:50Z</time>
      </trkpt>
      <trkpt lat="44.74315" lon="4.66648">
        <ele>153.13</ele>
        <time>2018-09-21T16:58:52Z</time>
      </trkpt>
      <trkpt lat="44.74307" lon="4.66625">
        <ele>153.85</ele>
        <time>2018-09-21T16:58:53Z</time>
      </trkpt>
      <trkpt lat="44.74301" lon="4.66601">
        <ele>154.06</ele>
        <time>2018-09-21T16:58:54Z</time>
      </trkpt>
      <trkpt lat="44.74295" lon="4.66576">
        <ele>154.83</ele>
        <time>2018-09-21T16:58:55Z</time>
      </trkpt>
      <trkpt lat="44.7429" lon="4.6655">
        <ele>155.06</ele>
        <time>2018-09-21T16:58:56Z</time>
      </trkpt>
      <trkpt lat="44.74288" lon="4.66524">
        <ele>155.13</ele>
        <time>2018-09-21T16:58:57Z</time>
      </trkpt>
      <trkpt lat="44.74287" lon="4.66498">
        <ele>155.15</ele>
        <time>2018-09-21T16:58:58Z</time>
      </trkpt>
      <trkpt lat="44.74297" lon="4.66452">
        <ele>154.95</ele>
        <time>2018-09-21T16:59:00Z</time>
      </trkpt>
      <trkpt lat="44.74306" lon="4.6641">
        <ele>155.14</ele>
        <time>2018-09-21T16:59:02Z</time>
      </trkpt>
      <trkpt lat="44.74315" lon="4.66369">
        <ele>156.07</ele>
        <time>2018-09-21T16:59:04Z</time>
      </trkpt>
      <trkpt lat="44.7432" lon="4.66322">
        <ele>157.06</ele>
        <time>2018-09-21T16:59:06Z</time>
      </trkpt>
      <trkpt lat="44.74319" lon="4.66295">
        <ele>157.83</ele>
        <time>2018-09-21T16:59:07Z</time>
      </trkpt>
      <trkpt lat="44.7431" lon="4.66248">
        <ele>157.22</ele>
        <time>2018-09-21T16:59:09Z</time>
      </trkpt>
      <trkpt lat="44.74289" lon="4.66208">
        <ele>158.07</ele>
        <time>2018-09-21T16:59:11Z</time>
      </trkpt>
      <trkpt lat="44.74269" lon="4.66167">
        <ele>158.15</ele>
        <time>2018-09-21T16:59:13Z</time>
      </trkpt>
      <trkpt lat="44.74258" lon="4.66146">
        <ele>158.15</ele>
        <time>2018-09-21T16:59:14Z</time>
      </trkpt>
      <trkpt lat="44.74245" lon="4.66122">
        <ele>158.86</ele>
        <time>2018-09-21T16:59:15Z</time>
      </trkpt>
      <trkpt lat="44.74232" lon="4.66098">
        <ele>159.07</ele>
        <time>2018-09-21T16:59:16Z</time>
      </trkpt>
      <trkpt lat="44.74219" lon="4.66074">
        <ele>159.13</ele>
        <time>2018-09-21T16:59:17Z</time>
      </trkpt>
      <trkpt lat="44.74206" lon="4.66049">
        <ele>159.15</ele>
        <time>2018-09-21T16:59:18Z</time>
      </trkpt>
      <trkpt lat="44.74194" lon="4.66024">
        <ele>159.15</ele>
        <time>2018-09-21T16:59:19Z</time>
      </trkpt>
      <trkpt lat="44.74181" lon="4.66">
        <ele>159.86</ele>
        <time>2018-09-21T16:59:20Z</time>
      </trkpt>
      <trkpt lat="44.74167" lon="4.65977">
        <ele>160.07</ele>
        <time>2018-09-21T16:59:21Z</time>
      </trkpt>
      <trkpt lat="44.74152" lon="4.65956">
        <ele>160.13</ele>
        <time>2018-09-21T16:59:22Z</time>
      </trkpt>
      <trkpt lat="44.74136" lon="4.65937">
        <ele>160.15</ele>
        <time>2018-09-21T16:59:23Z</time>
      </trkpt>
      <trkpt lat="44.7412" lon="4.65918">
        <ele>160.15</ele>
        <time>2018-09-21T16:59:24Z</time>
      </trkpt>
      <trkpt lat="44.74104" lon="4.65902">
        <ele>160.16</ele>
        <time>2018-09-21T16:59:25Z</time>
      </trkpt>
      <trkpt lat="44.74088" lon="4.65886">
        <ele>160.16</ele>
        <time>2018-09-21T16:59:26Z</time>
      </trkpt>
      <trkpt lat="44.74074" lon="4.65866">
        <ele>160.86</ele>
        <time>2018-09-21T16:59:27Z</time>
      </trkpt>
      <trkpt lat="44.7406" lon="4.65846">
        <ele>161.07</ele>
        <time>2018-09-21T16:59:28Z</time>
      </trkpt>
      <trkpt lat="44.74051" lon="4.65822">
        <ele>161.13</ele>
        <time>2018-09-21T16:59:29Z</time>
      </trkpt>
      <trkpt lat="44.7404" lon="4.65797">
        <ele>161.15</ele>
        <time>2018-09-21T16:59:30Z</time>
      </trkpt>
      <trkpt lat="44.7403" lon="4.65774">
        <ele>161.15</ele>
        <time>2018-09-21T16:59:31Z</time>
      </trkpt>
      <trkpt lat="44.74021" lon="4.6575">
        <ele>161.16</ele>
        <time>2018-09-21T16:59:32Z</time>
      </trkpt>
      <trkpt lat="44.74014" lon="4.65727">
        <ele>161.86</ele>
        <time>2018-09-21T16:59:33Z</time>
      </trkpt>
      <trkpt lat="44.74013" lon="4.65699">
        <ele>162.07</ele>
        <time>2018-09-21T16:59:34Z</time>
      </trkpt>
      <trkpt lat="44.74015" lon="4.6567">
        <ele>162.83</ele>
        <time>2018-09-21T16:59:35Z</time>
      </trkpt>
      <trkpt lat="44.74013" lon="4.65643">
        <ele>163.06</ele>
        <time>2018-09-21T16:59:36Z</time>
      </trkpt>
      <trkpt lat="44.74008" lon="4.65615">
        <ele>163.83</ele>
        <time>2018-09-21T16:59:37Z</time>
      </trkpt>
      <trkpt lat="44.74002" lon="4.65589">
        <ele>164.06</ele>
        <time>2018-09-21T16:59:38Z</time>
      </trkpt>
      <trkpt lat="44.73997" lon="4.65562">
        <ele>164.13</ele>
        <time>2018-09-21T16:59:39Z</time>
      </trkpt>
      <trkpt lat="44.73991" lon="4.65536">
        <ele>164.85</ele>
        <time>2018-09-21T16:59:40Z</time>
      </trkpt>
      <trkpt lat="44.73985" lon="4.65508">
        <ele>165.06</ele>
        <time>2018-09-21T16:59:41Z</time>
      </trkpt>
      <trkpt lat="44.73981" lon="4.65481">
        <ele>165.13</ele>
        <time>2018-09-21T16:59:42Z</time>
      </trkpt>
      <trkpt lat="44.73976" lon="4.65453">
        <ele>165.85</ele>
        <time>2018-09-21T16:59:43Z</time>
      </trkpt>
      <trkpt lat="44.73972" lon="4.65425">
        <ele>166.06</ele>
        <time>2018-09-21T16:59:44Z</time>
      </trkpt>
      <trkpt lat="44.73969" lon="4.65397">
        <ele>166.13</ele>
        <time>2018-09-21T16:59:45Z</time>
      </trkpt>
      <trkpt lat="44.73968" lon="4.65369">
        <ele>166.15</ele>
        <time>2018-09-21T16:59:46Z</time>
      </trkpt>
      <trkpt lat="44.73966" lon="4.65341">
        <ele>165.45</ele>
        <time>2018-09-21T16:59:47Z</time>
      </trkpt>
      <trkpt lat="44.73965" lon="4.65314">
        <ele>165.95</ele>
        <time>2018-09-21T16:59:48Z</time>
      </trkpt>
      <trkpt lat="44.73964" lon="4.65286">
        <ele>166.09</ele>
        <time>2018-09-21T16:59:49Z</time>
      </trkpt>
      <trkpt lat="44.73962" lon="4.65258">
        <ele>165.44</ele>
        <time>2018-09-21T16:59:50Z</time>
      </trkpt>
      <trkpt lat="44.7396" lon="4.6523">
        <ele>165.24</ele>
        <time>2018-09-21T16:59:51Z</time>
      </trkpt>
      <trkpt lat="44.73959" lon="4.65202">
        <ele>165.88</ele>
        <time>2018-09-21T16:59:52Z</time>
      </trkpt>
      <trkpt lat="44.73958" lon="4.65173">
        <ele>166.07</ele>
        <time>2018-09-21T16:59:53Z</time>
      </trkpt>
      <trkpt lat="44.73956" lon="4.65144">
        <ele>167.53</ele>
        <time>2018-09-21T16:59:54Z</time>
      </trkpt>
      <trkpt lat="44.73956" lon="4.65115">
        <ele>167.27</ele>
        <time>2018-09-21T16:59:55Z</time>
      </trkpt>
      <trkpt lat="44.73957" lon="4.65085">
        <ele>167.89</ele>
        <time>2018-09-21T16:59:56Z</time>
      </trkpt>
      <trkpt lat="44.73958" lon="4.65056">
        <ele>168.08</ele>
        <time>2018-09-21T16:59:57Z</time>
      </trkpt>
      <trkpt lat="44.73958" lon="4.65027">
        <ele>168.83</ele>
        <time>2018-09-21T16:59:58Z</time>
      </trkpt>
      <trkpt lat="44.73957" lon="4.64999">
        <ele>169.06</ele>
        <time>2018-09-21T16:59:59Z</time>
      </trkpt>
      <trkpt lat="44.73954" lon="4.6497">
        <ele>169.83</ele>
        <time>2018-09-21T17:00:00Z</time>
      </trkpt>
      <trkpt lat="44.73948" lon="4.64942">
        <ele>170.76</ele>
        <time>2018-09-21T17:00:01Z</time>
      </trkpt>
      <trkpt lat="44.73942" lon="4.64915">
        <ele>171.04</ele>
        <time>2018-09-21T17:00:02Z</time>
      </trkpt>
      <trkpt lat="44.73935" lon="4.64888">
        <ele>171.12</ele>
        <time>2018-09-21T17:00:03Z</time>
      </trkpt>
      <trkpt lat="44.73928" lon="4.64861">
        <ele>171.15</ele>
        <time>2018-09-21T17:00:04Z</time>
      </trkpt>
      <trkpt lat="44.73919" lon="4.64835">
        <ele>171.85</ele>
        <time>2018-09-21T17:00:05Z</time>
      </trkpt>
      <trkpt lat="44.7391" lon="4.64809">
        <ele>172.07</ele>
        <time>2018-09-21T17:00:06Z</time>
      </trkpt>
      <trkpt lat="44.739" lon="4.64784">
        <ele>172.13</ele>
        <time>2018-09-21T17:00:07Z</time>
      </trkpt>
      <trkpt lat="44.73888" lon="4.64761">
        <ele>172.15</ele>
        <time>2018-09-21T17:00:08Z</time>
      </trkpt>
      <trkpt lat="44.73876" lon="4.64739">
        <ele>171.45</ele>
        <time>2018-09-21T17:00:09Z</time>
      </trkpt>
      <trkpt lat="44.73864" lon="4.64716">
        <ele>170.55</ele>
        <time>2018-09-21T17:00:10Z</time>
      </trkpt>
      <trkpt lat="44.73855" lon="4.64692">
        <ele>170.97</ele>
        <time>2018-09-21T17:00:11Z</time>
      </trkpt>
      <trkpt lat="44.73847" lon="4.64666">
        <ele>170.4</ele>
        <time>2018-09-21T17:00:12Z</time>
      </trkpt>
      <trkpt lat="44.73843" lon="4.64639">
        <ele>170.23</ele>
        <time>2018-09-21T17:00:13Z</time>
      </trkpt>
      <trkpt lat="44.73838" lon="4.64609">
        <ele>170.88</ele>
        <time>2018-09-21T17:00:14Z</time>
      </trkpt>
      <trkpt lat="44.73834" lon="4.64581">
        <ele>171.07</ele>
        <time>2018-09-21T17:00:15Z</time>
      </trkpt>
      <trkpt lat="44.7383" lon="4.64552">
        <ele>171.13</ele>
        <time>2018-09-21T17:00:16Z</time>
      </trkpt>
      <trkpt lat="44.73826" lon="4.64524">
        <ele>171.15</ele>
        <time>2018-09-21T17:00:17Z</time>
      </trkpt>
      <trkpt lat="44.73822" lon="4.64496">
        <ele>171.15</ele>
        <time>2018-09-21T17:00:18Z</time>
      </trkpt>
      <trkpt lat="44.73818" lon="4.64469">
        <ele>171.16</ele>
        <time>2018-09-21T17:00:19Z</time>
      </trkpt>
      <trkpt lat="44.73814" lon="4.64441">
        <ele>171.86</ele>
        <time>2018-09-21T17:00:20Z</time>
      </trkpt>
      <trkpt lat="44.7381" lon="4.64414">
        <ele>172.07</ele>
        <time>2018-09-21T17:00:21Z</time>
      </trkpt>
      <trkpt lat="44.73807" lon="4.64387">
        <ele>171.43</ele>
        <time>2018-09-21T17:00:22Z</time>
      </trkpt>
      <trkpt lat="44.73803" lon="4.6436">
        <ele>171.24</ele>
        <time>2018-09-21T17:00:23Z</time>
      </trkpt>
      <trkpt lat="44.73798" lon="4.64333">
        <ele>171.18</ele>
        <time>2018-09-21T17:00:24Z</time>
      </trkpt>
      <trkpt lat="44.73794" lon="4.64305">
        <ele>171.86</ele>
        <time>2018-09-21T17:00:25Z</time>
      </trkpt>
      <trkpt lat="44.73789" lon="4.64277">
        <ele>172.07</ele>
        <time>2018-09-21T17:00:26Z</time>
      </trkpt>
      <trkpt lat="44.73783" lon="4.64249">
        <ele>172.13</ele>
        <time>2018-09-21T17:00:27Z</time>
      </trkpt>
      <trkpt lat="44.73774" lon="4.64223">
        <ele>171.45</ele>
        <time>2018-09-21T17:00:28Z</time>
      </trkpt>
      <trkpt lat="44.73764" lon="4.64196">
        <ele>171.24</ele>
        <time>2018-09-21T17:00:29Z</time>
      </trkpt>
      <trkpt lat="44.73753" lon="4.64171">
        <ele>171.88</ele>
        <time>2018-09-21T17:00:30Z</time>
      </trkpt>
      <trkpt lat="44.73743" lon="4.64145">
        <ele>172.07</ele>
        <time>2018-09-21T17:00:31Z</time>
      </trkpt>
      <trkpt lat="44.73732" lon="4.64119">
        <ele>172.13</ele>
        <time>2018-09-21T17:00:32Z</time>
      </trkpt>
      <trkpt lat="44.73721" lon="4.64094">
        <ele>172.15</ele>
        <time>2018-09-21T17:00:33Z</time>
      </trkpt>
      <trkpt lat="44.73711" lon="4.64069">
        <ele>172.15</ele>
        <time>2018-09-21T17:00:34Z</time>
      </trkpt>
      <trkpt lat="44.73701" lon="4.64044">
        <ele>172.86</ele>
        <time>2018-09-21T17:00:35Z</time>
      </trkpt>
      <trkpt lat="44.7369" lon="4.6402">
        <ele>173.07</ele>
        <time>2018-09-21T17:00:36Z</time>
      </trkpt>
      <trkpt lat="44.73681" lon="4.63994">
        <ele>173.13</ele>
        <time>2018-09-21T17:00:37Z</time>
      </trkpt>
      <trkpt lat="44.73672" lon="4.63969">
        <ele>173.15</ele>
        <time>2018-09-21T17:00:38Z</time>
      </trkpt>
      <trkpt lat="44.73664" lon="4.63943">
        <ele>173.85</ele>
        <time>2018-09-21T17:00:39Z</time>
      </trkpt>
      <trkpt lat="44.73659" lon="4.63916">
        <ele>173.37</ele>
        <time>2018-09-21T17:00:40Z</time>
      </trkpt>
      <trkpt lat="44.73654" lon="4.6389">
        <ele>173.92</ele>
        <time>2018-09-21T17:00:41Z</time>
      </trkpt>
      <trkpt lat="44.73651" lon="4.63863">
        <ele>174.09</ele>
        <time>2018-09-21T17:00:42Z</time>
      </trkpt>
      <trkpt lat="44.73649" lon="4.63837">
        <ele>174.84</ele>
        <time>2018-09-21T17:00:43Z</time>
      </trkpt>
      <trkpt lat="44.73646" lon="4.63809">
        <ele>175.06</ele>
        <time>2018-09-21T17:00:44Z</time>
      </trkpt>
      <trkpt lat="44.73644" lon="4.63781">
        <ele>175.13</ele>
        <time>2018-09-21T17:00:45Z</time>
      </trkpt>
      <trkpt lat="44.73642" lon="4.63752">
        <ele>175.85</ele>
        <time>2018-09-21T17:00:46Z</time>
      </trkpt>
      <trkpt lat="44.7364" lon="4.63723">
        <ele>176.76</ele>
        <time>2018-09-21T17:00:47Z</time>
      </trkpt>
      <trkpt lat="44.73637" lon="4.63695">
        <ele>177.04</ele>
        <time>2018-09-21T17:00:48Z</time>
      </trkpt>
      <trkpt lat="44.73635" lon="4.63667">
        <ele>177.82</ele>
        <time>2018-09-21T17:00:49Z</time>
      </trkpt>
      <trkpt lat="44.73632" lon="4.6364">
        <ele>178.06</ele>
        <time>2018-09-21T17:00:50Z</time>
      </trkpt>
      <trkpt lat="44.7363" lon="4.63612">
        <ele>178.83</ele>
        <time>2018-09-21T17:00:51Z</time>
      </trkpt>
      <trkpt lat="44.73628" lon="4.63584">
        <ele>179.06</ele>
        <time>2018-09-21T17:00:52Z</time>
      </trkpt>
      <trkpt lat="44.73625" lon="4.63555">
        <ele>179.83</ele>
        <time>2018-09-21T17:00:53Z</time>
      </trkpt>
      <trkpt lat="44.73621" lon="4.63526">
        <ele>180.06</ele>
        <time>2018-09-21T17:00:54Z</time>
      </trkpt>
      <trkpt lat="44.73618" lon="4.63499">
        <ele>180.13</ele>
        <time>2018-09-21T17:00:55Z</time>
      </trkpt>
      <trkpt lat="44.73613" lon="4.63472">
        <ele>180.85</ele>
        <time>2018-09-21T17:00:56Z</time>
      </trkpt>
      <trkpt lat="44.73604" lon="4.63447">
        <ele>181.76</ele>
        <time>2018-09-21T17:00:57Z</time>
      </trkpt>
      <trkpt lat="44.73594" lon="4.63423">
        <ele>182.74</ele>
        <time>2018-09-21T17:00:58Z</time>
      </trkpt>
      <trkpt lat="44.73583" lon="4.63397">
        <ele>182.33</ele>
        <time>2018-09-21T17:00:59Z</time>
      </trkpt>
      <trkpt lat="44.73572" lon="4.63373">
        <ele>182.21</ele>
        <time>2018-09-21T17:01:00Z</time>
      </trkpt>
      <trkpt lat="44.7356" lon="4.63348">
        <ele>182.87</ele>
        <time>2018-09-21T17:01:01Z</time>
      </trkpt>
      <trkpt lat="44.73549" lon="4.63324">
        <ele>183.77</ele>
        <time>2018-09-21T17:01:02Z</time>
      </trkpt>
      <trkpt lat="44.73537" lon="4.63301">
        <ele>184.74</ele>
        <time>2018-09-21T17:01:03Z</time>
      </trkpt>
      <trkpt lat="44.73525" lon="4.63278">
        <ele>184.33</ele>
        <time>2018-09-21T17:01:04Z</time>
      </trkpt>
      <trkpt lat="44.73514" lon="4.63255">
        <ele>184.21</ele>
        <time>2018-09-21T17:01:05Z</time>
      </trkpt>
      <trkpt lat="44.73503" lon="4.63233">
        <ele>184.17</ele>
        <time>2018-09-21T17:01:06Z</time>
      </trkpt>
      <trkpt lat="44.73493" lon="4.63211">
        <ele>184.16</ele>
        <time>2018-09-21T17:01:07Z</time>
      </trkpt>
      <trkpt lat="44.73486" lon="4.63187">
        <ele>183.46</ele>
        <time>2018-09-21T17:01:08Z</time>
      </trkpt>
      <trkpt lat="44.73479" lon="4.63163">
        <ele>183.25</ele>
        <time>2018-09-21T17:01:09Z</time>
      </trkpt>
      <trkpt lat="44.73474" lon="4.63138">
        <ele>183.18</ele>
        <time>2018-09-21T17:01:10Z</time>
      </trkpt>
      <trkpt lat="44.73482" lon="4.63114">
        <ele>183.87</ele>
        <time>2018-09-21T17:01:11Z</time>
      </trkpt>
      <trkpt lat="44.73488" lon="4.63088">
        <ele>184.07</ele>
        <time>2018-09-21T17:01:12Z</time>
      </trkpt>
      <trkpt lat="44.73492" lon="4.63061">
        <ele>184.83</ele>
        <time>2018-09-21T17:01:13Z</time>
      </trkpt>
      <trkpt lat="44.73497" lon="4.63033">
        <ele>185.76</ele>
        <time>2018-09-21T17:01:14Z</time>
      </trkpt>
      <trkpt lat="44.73502" lon="4.63005">
        <ele>185.34</ele>
        <time>2018-09-21T17:01:15Z</time>
      </trkpt>
      <trkpt lat="44.73507" lon="4.62978">
        <ele>185.91</ele>
        <time>2018-09-21T17:01:16Z</time>
      </trkpt>
      <trkpt lat="44.73511" lon="4.62953">
        <ele>186.78</ele>
        <time>2018-09-21T17:01:17Z</time>
      </trkpt>
      <trkpt lat="44.73516" lon="4.62928">
        <ele>186.34</ele>
        <time>2018-09-21T17:01:18Z</time>
      </trkpt>
      <trkpt lat="44.73524" lon="4.62883">
        <ele>187.08</ele>
        <time>2018-09-21T17:01:20Z</time>
      </trkpt>
      <trkpt lat="44.73531" lon="4.62841">
        <ele>187.85</ele>
        <time>2018-09-21T17:01:22Z</time>
      </trkpt>
      <trkpt lat="44.73542" lon="4.62807">
        <ele>189.04</ele>
        <time>2018-09-21T17:01:24Z</time>
      </trkpt>
      <trkpt lat="44.7356" lon="4.62782">
        <ele>188.45</ele>
        <time>2018-09-21T17:01:26Z</time>
      </trkpt>
      <trkpt lat="44.73583" lon="4.62762">
        <ele>187.48</ele>
        <time>2018-09-21T17:01:28Z</time>
      </trkpt>
      <trkpt lat="44.73607" lon="4.62745">
        <ele>187.19</ele>
        <time>2018-09-21T17:01:30Z</time>
      </trkpt>
      <trkpt lat="44.73627" lon="4.62714">
        <ele>188.07</ele>
        <time>2018-09-21T17:01:32Z</time>
      </trkpt>
      <trkpt lat="44.73643" lon="4.62678">
        <ele>189.76</ele>
        <time>2018-09-21T17:01:34Z</time>
      </trkpt>
      <trkpt lat="44.73651" lon="4.62633">
        <ele>189.21</ele>
        <time>2018-09-21T17:01:36Z</time>
      </trkpt>
      <trkpt lat="44.7366" lon="4.62592">
        <ele>189.16</ele>
        <time>2018-09-21T17:01:38Z</time>
      </trkpt>
      <trkpt lat="44.73669" lon="4.62557">
        <ele>188.25</ele>
        <time>2018-09-21T17:01:40Z</time>
      </trkpt>
      <trkpt lat="44.73671" lon="4.62523">
        <ele>189.08</ele>
        <time>2018-09-21T17:01:42Z</time>
      </trkpt>
      <trkpt lat="44.73664" lon="4.62492">
        <ele>189.85</ele>
        <time>2018-09-21T17:01:44Z</time>
      </trkpt>
      <trkpt lat="44.73651" lon="4.6246">
        <ele>190.83</ele>
        <time>2018-09-21T17:01:46Z</time>
      </trkpt>
      <trkpt lat="44.73637" lon="4.62429">
        <ele>191.83</ele>
        <time>2018-09-21T17:01:48Z</time>
      </trkpt>
      <trkpt lat="44.73624" lon="4.62399">
        <ele>192.83</ele>
        <time>2018-09-21T17:01:50Z</time>
      </trkpt>
      <trkpt lat="44.73611" lon="4.62369">
        <ele>194.04</ele>
        <time>2018-09-21T17:01:52Z</time>
      </trkpt>
      <trkpt lat="44.73599" lon="4.62341">
        <ele>194.85</ele>
        <time>2018-09-21T17:01:54Z</time>
      </trkpt>
      <trkpt lat="44.73588" lon="4.62313">
        <ele>195.13</ele>
        <time>2018-09-21T17:01:56Z</time>
      </trkpt>
      <trkpt lat="44.73584" lon="4.62282">
        <ele>195.36</ele>
        <time>2018-09-21T17:01:58Z</time>
      </trkpt>
      <trkpt lat="44.73589" lon="4.6225">
        <ele>196.58</ele>
        <time>2018-09-21T17:02:00Z</time>
      </trkpt>
      <trkpt lat="44.73601" lon="4.6222">
        <ele>197.1</ele>
        <time>2018-09-21T17:02:02Z</time>
      </trkpt>
      <trkpt lat="44.73616" lon="4.62194">
        <ele>198.76</ele>
        <time>2018-09-21T17:02:04Z</time>
      </trkpt>
      <trkpt lat="44.73632" lon="4.62168">
        <ele>199.82</ele>
        <time>2018-09-21T17:02:06Z</time>
      </trkpt>
      <trkpt lat="44.73652" lon="4.6214">
        <ele>200.13</ele>
        <time>2018-09-21T17:02:08Z</time>
      </trkpt>
      <trkpt lat="44.73679" lon="4.62111">
        <ele>200.85</ele>
        <time>2018-09-21T17:02:10Z</time>
      </trkpt>
      <trkpt lat="44.73703" lon="4.62076">
        <ele>203.44</ele>
        <time>2018-09-21T17:02:12Z</time>
      </trkpt>
      <trkpt lat="44.73716" lon="4.62056">
        <ele>204.64</ele>
        <time>2018-09-21T17:02:13Z</time>
      </trkpt>
      <trkpt lat="44.73725" lon="4.62031">
        <ele>204.3</ele>
        <time>2018-09-21T17:02:14Z</time>
      </trkpt>
      <trkpt lat="44.7373" lon="4.62005">
        <ele>204.2</ele>
        <time>2018-09-21T17:02:15Z</time>
      </trkpt>
      <trkpt lat="44.73731" lon="4.61976">
        <ele>204.87</ele>
        <time>2018-09-21T17:02:16Z</time>
      </trkpt>
      <trkpt lat="44.73727" lon="4.61946">
        <ele>205.07</ele>
        <time>2018-09-21T17:02:17Z</time>
      </trkpt>
      <trkpt lat="44.73712" lon="4.61922">
        <ele>205.83</ele>
        <time>2018-09-21T17:02:18Z</time>
      </trkpt>
      <trkpt lat="44.73704" lon="4.61893">
        <ele>204.66</ele>
        <time>2018-09-21T17:02:19Z</time>
      </trkpt>
      <trkpt lat="44.73694" lon="4.61872">
        <ele>204.31</ele>
        <time>2018-09-21T17:02:20Z</time>
      </trkpt>
      <trkpt lat="44.73661" lon="4.61848">
        <ele>202.56</ele>
        <time>2018-09-21T17:02:22Z</time>
      </trkpt>
      <trkpt lat="44.73641" lon="4.61837">
        <ele>202.28</ele>
        <time>2018-09-21T17:02:23Z</time>
      </trkpt>
      <trkpt lat="44.73604" lon="4.61828">
        <ele>202.17</ele>
        <time>2018-09-21T17:02:25Z</time>
      </trkpt>
      <trkpt lat="44.73584" lon="4.61849">
        <ele>202.86</ele>
        <time>2018-09-21T17:02:26Z</time>
      </trkpt>
      <trkpt lat="44.73554" lon="4.61854">
        <ele>204.95</ele>
        <time>2018-09-21T17:02:28Z</time>
      </trkpt>
      <trkpt lat="44.73527" lon="4.61838">
        <ele>206.05</ele>
        <time>2018-09-21T17:02:30Z</time>
      </trkpt>
      <trkpt lat="44.73501" lon="4.61812">
        <ele>206.85</ele>
        <time>2018-09-21T17:02:32Z</time>
      </trkpt>
      <trkpt lat="44.73486" lon="4.6176">
        <ele>206.43</ele>
        <time>2018-09-21T17:02:34Z</time>
      </trkpt>
      <trkpt lat="44.73477" lon="4.61735">
        <ele>206.94</ele>
        <time>2018-09-21T17:02:35Z</time>
      </trkpt>
      <trkpt lat="44.73486" lon="4.6169">
        <ele>209.24</ele>
        <time>2018-09-21T17:02:37Z</time>
      </trkpt>
      <trkpt lat="44.73495" lon="4.61651">
        <ele>210.28</ele>
        <time>2018-09-21T17:02:39Z</time>
      </trkpt>
      <trkpt lat="44.73526" lon="4.61614">
        <ele>209.47</ele>
        <time>2018-09-21T17:02:41Z</time>
      </trkpt>
      <trkpt lat="44.73554" lon="4.61606">
        <ele>209.25</ele>
        <time>2018-09-21T17:02:42Z</time>
      </trkpt>
      <trkpt lat="44.73574" lon="4.61601">
        <ele>209.89</ele>
        <time>2018-09-21T17:02:43Z</time>
      </trkpt>
      <trkpt lat="44.73596" lon="4.61599">
        <ele>210.78</ele>
        <time>2018-09-21T17:02:44Z</time>
      </trkpt>
      <trkpt lat="44.73615" lon="4.61613">
        <ele>211.04</ele>
        <time>2018-09-21T17:02:45Z</time>
      </trkpt>
      <trkpt lat="44.73648" lon="4.61622">
        <ele>212.06</ele>
        <time>2018-09-21T17:02:47Z</time>
      </trkpt>
      <trkpt lat="44.73679" lon="4.61619">
        <ele>213.27</ele>
        <time>2018-09-21T17:02:49Z</time>
      </trkpt>
      <trkpt lat="44.73702" lon="4.61592">
        <ele>214.78</ele>
        <time>2018-09-21T17:02:51Z</time>
      </trkpt>
      <trkpt lat="44.73718" lon="4.61564">
        <ele>216.03</ele>
        <time>2018-09-21T17:02:53Z</time>
      </trkpt>
      <trkpt lat="44.73705" lon="4.61524">
        <ele>218.46</ele>
        <time>2018-09-21T17:02:55Z</time>
      </trkpt>
      <trkpt lat="44.7369" lon="4.61486">
        <ele>219.09</ele>
        <time>2018-09-21T17:02:57Z</time>
      </trkpt>
      <trkpt lat="44.73676" lon="4.61446">
        <ele>219.85</ele>
        <time>2018-09-21T17:02:59Z</time>
      </trkpt>
      <trkpt lat="44.73662" lon="4.61408">
        <ele>221.04</ele>
        <time>2018-09-21T17:03:01Z</time>
      </trkpt>
      <trkpt lat="44.73648" lon="4.61371">
        <ele>223.46</ele>
        <time>2018-09-21T17:03:03Z</time>
      </trkpt>
      <trkpt lat="44.73634" lon="4.61334">
        <ele>225</ele>
        <time>2018-09-21T17:03:05Z</time>
      </trkpt>
      <trkpt lat="44.7362" lon="4.61297">
        <ele>227.45</ele>
        <time>2018-09-21T17:03:07Z</time>
      </trkpt>
      <trkpt lat="44.73608" lon="4.61259">
        <ele>229</ele>
        <time>2018-09-21T17:03:09Z</time>
      </trkpt>
      <trkpt lat="44.73601" lon="4.61214">
        <ele>230.54</ele>
        <time>2018-09-21T17:03:11Z</time>
      </trkpt>
      <trkpt lat="44.73595" lon="4.61171">
        <ele>232.71</ele>
        <time>2018-09-21T17:03:13Z</time>
      </trkpt>
      <trkpt lat="44.73583" lon="4.61132">
        <ele>234.73</ele>
        <time>2018-09-21T17:03:15Z</time>
      </trkpt>
      <trkpt lat="44.73565" lon="4.61098">
        <ele>236.73</ele>
        <time>2018-09-21T17:03:17Z</time>
      </trkpt>
      <trkpt lat="44.73545" lon="4.61062">
        <ele>237.82</ele>
        <time>2018-09-21T17:03:19Z</time>
      </trkpt>
      <trkpt lat="44.73524" lon="4.61027">
        <ele>239.74</ele>
        <time>2018-09-21T17:03:21Z</time>
      </trkpt>
      <trkpt lat="44.73499" lon="4.61003">
        <ele>241.73</ele>
        <time>2018-09-21T17:03:23Z</time>
      </trkpt>
      <trkpt lat="44.73472" lon="4.60986">
        <ele>241.21</ele>
        <time>2018-09-21T17:03:25Z</time>
      </trkpt>
      <trkpt lat="44.73462" lon="4.60952">
        <ele>243.68</ele>
        <time>2018-09-21T17:03:27Z</time>
      </trkpt>
      <trkpt lat="44.73463" lon="4.6091">
        <ele>245.93</ele>
        <time>2018-09-21T17:03:29Z</time>
      </trkpt>
      <trkpt lat="44.73472" lon="4.60886">
        <ele>246.79</ele>
        <time>2018-09-21T17:03:30Z</time>
      </trkpt>
      <trkpt lat="44.73475" lon="4.60839">
        <ele>247.82</ele>
        <time>2018-09-21T17:03:32Z</time>
      </trkpt>
      <trkpt lat="44.73466" lon="4.60793">
        <ele>248.13</ele>
        <time>2018-09-21T17:03:34Z</time>
      </trkpt>
      <trkpt lat="44.73451" lon="4.60779">
        <ele>249.55</ele>
        <time>2018-09-21T17:03:35Z</time>
      </trkpt>
      <trkpt lat="44.73425" lon="4.60747">
        <ele>252.62</ele>
        <time>2018-09-21T17:03:37Z</time>
      </trkpt>
      <trkpt lat="44.73398" lon="4.60719">
        <ele>256.33</ele>
        <time>2018-09-21T17:03:39Z</time>
      </trkpt>
      <trkpt lat="44.73382" lon="4.60692">
        <ele>257.78</ele>
        <time>2018-09-21T17:03:41Z</time>
      </trkpt>
      <trkpt lat="44.73375" lon="4.6066">
        <ele>256.72</ele>
        <time>2018-09-21T17:03:43Z</time>
      </trkpt>
      <trkpt lat="44.73383" lon="4.60636">
        <ele>256</ele>
        <time>2018-09-21T17:03:45Z</time>
      </trkpt>
      <trkpt lat="44.73407" lon="4.60609">
        <ele>257.75</ele>
        <time>2018-09-21T17:03:47Z</time>
      </trkpt>
      <trkpt lat="44.73425" lon="4.60584">
        <ele>259.44</ele>
        <time>2018-09-21T17:03:48Z</time>
      </trkpt>
      <trkpt lat="44.73447" lon="4.60551">
        <ele>261</ele>
        <time>2018-09-21T17:03:50Z</time>
      </trkpt>
      <trkpt lat="44.73467" lon="4.60522">
        <ele>264.36</ele>
        <time>2018-09-21T17:03:52Z</time>
      </trkpt>
      <trkpt lat="44.73486" lon="4.6049">
        <ele>266.91</ele>
        <time>2018-09-21T17:03:54Z</time>
      </trkpt>
      <trkpt lat="44.73504" lon="4.6046">
        <ele>268.04</ele>
        <time>2018-09-21T17:03:56Z</time>
      </trkpt>
      <trkpt lat="44.73522" lon="4.60433">
        <ele>268.36</ele>
        <time>2018-09-21T17:03:58Z</time>
      </trkpt>
      <trkpt lat="44.73536" lon="4.60399">
        <ele>269.08</ele>
        <time>2018-09-21T17:04:00Z</time>
      </trkpt>
      <trkpt lat="44.73544" lon="4.60364">
        <ele>271.67</ele>
        <time>2018-09-21T17:04:02Z</time>
      </trkpt>
      <trkpt lat="44.73547" lon="4.6033">
        <ele>273.72</ele>
        <time>2018-09-21T17:04:04Z</time>
      </trkpt>
      <trkpt lat="44.73544" lon="4.60292">
        <ele>275.52</ele>
        <time>2018-09-21T17:04:06Z</time>
      </trkpt>
      <trkpt lat="44.73537" lon="4.60255">
        <ele>277.71</ele>
        <time>2018-09-21T17:04:08Z</time>
      </trkpt>
      <trkpt lat="44.73523" lon="4.60223">
        <ele>280.64</ele>
        <time>2018-09-21T17:04:10Z</time>
      </trkpt>
      <trkpt lat="44.73508" lon="4.60195">
        <ele>282.02</ele>
        <time>2018-09-21T17:04:12Z</time>
      </trkpt>
      <trkpt lat="44.73493" lon="4.60172">
        <ele>282.84</ele>
        <time>2018-09-21T17:04:14Z</time>
      </trkpt>
      <trkpt lat="44.73482" lon="4.60151">
        <ele>284.04</ele>
        <time>2018-09-21T17:04:16Z</time>
      </trkpt>
      <trkpt lat="44.73474" lon="4.60127">
        <ele>286.74</ele>
        <time>2018-09-21T17:04:19Z</time>
      </trkpt>
      <trkpt lat="44.73471" lon="4.60094">
        <ele>288.82</ele>
        <time>2018-09-21T17:04:22Z</time>
      </trkpt>
      <trkpt lat="44.73472" lon="4.60059">
        <ele>291.03</ele>
        <time>2018-09-21T17:04:25Z</time>
      </trkpt>
      <trkpt lat="44.73471" lon="4.60028">
        <ele>292.83</ele>
        <time>2018-09-21T17:04:28Z</time>
      </trkpt>
      <trkpt lat="44.73472" lon="4.59997">
        <ele>293.85</ele>
        <time>2018-09-21T17:04:31Z</time>
      </trkpt>
      <trkpt lat="44.73472" lon="4.59968">
        <ele>295.12</ele>
        <time>2018-09-21T17:04:34Z</time>
      </trkpt>
      <trkpt lat="44.73471" lon="4.59942">
        <ele>296.13</ele>
        <time>2018-09-21T17:04:37Z</time>
      </trkpt>
      <trkpt lat="44.73471" lon="4.59915">
        <ele>297.13</ele>
        <time>2018-09-21T17:04:40Z</time>
      </trkpt>
      <trkpt lat="44.73472" lon="4.59886">
        <ele>297.86</ele>
        <time>2018-09-21T17:04:43Z</time>
      </trkpt>
      <trkpt lat="44.73472" lon="4.59854">
        <ele>297.45</ele>
        <time>2018-09-21T17:04:46Z</time>
      </trkpt>
      <trkpt lat="44.73473" lon="4.5982">
        <ele>298.14</ele>
        <time>2018-09-21T17:04:49Z</time>
      </trkpt>
      <trkpt lat="44.73474" lon="4.59791">
        <ele>298.16</ele>
        <time>2018-09-21T17:04:53Z</time>
      </trkpt>
      <trkpt lat="44.73478" lon="4.59759">
        <ele>297.17</ele>
        <time>2018-09-21T17:04:57Z</time>
      </trkpt>
      <trkpt lat="44.73487" lon="4.5973">
        <ele>299.85</ele>
        <time>2018-09-21T17:05:02Z</time>
      </trkpt>
      <trkpt lat="44.73495" lon="4.59703">
        <ele>299.18</ele>
        <time>2018-09-21T17:05:05Z</time>
      </trkpt>
      <trkpt lat="44.735" lon="4.59676">
        <ele>299.86</ele>
        <time>2018-09-21T17:05:08Z</time>
      </trkpt>
      <trkpt lat="44.73508" lon="4.59645">
        <ele>300.36</ele>
        <time>2018-09-21T17:05:12Z</time>
      </trkpt>
      <trkpt lat="44.73512" lon="4.59619">
        <ele>301.01</ele>
        <time>2018-09-21T17:05:15Z</time>
      </trkpt>
      <trkpt lat="44.73518" lon="4.59587">
        <ele>303.04</ele>
        <time>2018-09-21T17:05:19Z</time>
      </trkpt>
      <trkpt lat="44.73519" lon="4.59556">
        <ele>305.74</ele>
        <time>2018-09-21T17:05:22Z</time>
      </trkpt>
      <trkpt lat="44.73518" lon="4.59523">
        <ele>308.73</ele>
        <time>2018-09-21T17:05:25Z</time>
      </trkpt>
      <trkpt lat="44.73509" lon="4.59493">
        <ele>311.03</ele>
        <time>2018-09-21T17:05:28Z</time>
      </trkpt>
      <trkpt lat="44.73496" lon="4.5946">
        <ele>311.15</ele>
        <time>2018-09-21T17:05:31Z</time>
      </trkpt>
      <trkpt lat="44.73485" lon="4.59438">
        <ele>312.07</ele>
        <time>2018-09-21T17:05:33Z</time>
      </trkpt>
      <trkpt lat="44.73469" lon="4.5942">
        <ele>313.06</ele>
        <time>2018-09-21T17:05:35Z</time>
      </trkpt>
      <trkpt lat="44.73447" lon="4.59405">
        <ele>312.24</ele>
        <time>2018-09-21T17:05:37Z</time>
      </trkpt>
      <trkpt lat="44.7343" lon="4.59391">
        <ele>311.95</ele>
        <time>2018-09-21T17:05:39Z</time>
      </trkpt>
      <trkpt lat="44.73409" lon="4.5939">
        <ele>311.93</ele>
        <time>2018-09-21T17:05:41Z</time>
      </trkpt>
      <trkpt lat="44.73387" lon="4.59388">
        <ele>314.17</ele>
        <time>2018-09-21T17:05:43Z</time>
      </trkpt>
      <trkpt lat="44.73367" lon="4.59387">
        <ele>315.77</ele>
        <time>2018-09-21T17:05:45Z</time>
      </trkpt>
      <trkpt lat="44.73348" lon="4.59382">
        <ele>315.63</ele>
        <time>2018-09-21T17:05:47Z</time>
      </trkpt>
      <trkpt lat="44.73327" lon="4.5938">
        <ele>315.9</ele>
        <time>2018-09-21T17:05:49Z</time>
      </trkpt>
      <trkpt lat="44.73308" lon="4.59376">
        <ele>319.35</ele>
        <time>2018-09-21T17:05:51Z</time>
      </trkpt>
      <trkpt lat="44.7329" lon="4.59358">
        <ele>320.78</ele>
        <time>2018-09-21T17:05:53Z</time>
      </trkpt>
      <trkpt lat="44.73276" lon="4.59333">
        <ele>321.82</ele>
        <time>2018-09-21T17:05:55Z</time>
      </trkpt>
      <trkpt lat="44.7326" lon="4.59304">
        <ele>322.13</ele>
        <time>2018-09-21T17:05:57Z</time>
      </trkpt>
      <trkpt lat="44.73244" lon="4.59276">
        <ele>322.85</ele>
        <time>2018-09-21T17:05:59Z</time>
      </trkpt>
      <trkpt lat="44.73231" lon="4.59247">
        <ele>322.92</ele>
        <time>2018-09-21T17:06:01Z</time>
      </trkpt>
      <trkpt lat="44.73217" lon="4.5922">
        <ele>322.44</ele>
        <time>2018-09-21T17:06:03Z</time>
      </trkpt>
      <trkpt lat="44.73202" lon="4.59196">
        <ele>318.75</ele>
        <time>2018-09-21T17:06:05Z</time>
      </trkpt>
      <trkpt lat="44.73188" lon="4.59169">
        <ele>321.43</ele>
        <time>2018-09-21T17:06:07Z</time>
      </trkpt>
      <trkpt lat="44.73174" lon="4.59141">
        <ele>321.88</ele>
        <time>2018-09-21T17:06:09Z</time>
      </trkpt>
      <trkpt lat="44.73161" lon="4.59113">
        <ele>323.04</ele>
        <time>2018-09-21T17:06:11Z</time>
      </trkpt>
      <trkpt lat="44.73149" lon="4.59082">
        <ele>324.76</ele>
        <time>2018-09-21T17:06:13Z</time>
      </trkpt>
      <trkpt lat="44.73142" lon="4.59047">
        <ele>325.82</ele>
        <time>2018-09-21T17:06:15Z</time>
      </trkpt>
      <trkpt lat="44.73139" lon="4.59008">
        <ele>325.22</ele>
        <time>2018-09-21T17:06:17Z</time>
      </trkpt>
      <trkpt lat="44.73138" lon="4.58978">
        <ele>326.77</ele>
        <time>2018-09-21T17:06:19Z</time>
      </trkpt>
      <trkpt lat="44.73138" lon="4.58944">
        <ele>329.03</ele>
        <time>2018-09-21T17:06:22Z</time>
      </trkpt>
      <trkpt lat="44.73142" lon="4.58915">
        <ele>331.74</ele>
        <time>2018-09-21T17:06:25Z</time>
      </trkpt>
      <trkpt lat="44.73149" lon="4.58887">
        <ele>333.82</ele>
        <time>2018-09-21T17:06:28Z</time>
      </trkpt>
      <trkpt lat="44.73158" lon="4.58858">
        <ele>335.12</ele>
        <time>2018-09-21T17:06:31Z</time>
      </trkpt>
      <trkpt lat="44.73166" lon="4.58833">
        <ele>335.15</ele>
        <time>2018-09-21T17:06:33Z</time>
      </trkpt>
      <trkpt lat="44.73177" lon="4.58806">
        <ele>335.86</ele>
        <time>2018-09-21T17:06:35Z</time>
      </trkpt>
      <trkpt lat="44.73186" lon="4.58779">
        <ele>336.13</ele>
        <time>2018-09-21T17:06:37Z</time>
      </trkpt>
      <trkpt lat="44.73194" lon="4.58753">
        <ele>336.85</ele>
        <time>2018-09-21T17:06:39Z</time>
      </trkpt>
      <trkpt lat="44.73202" lon="4.58728">
        <ele>337.83</ele>
        <time>2018-09-21T17:06:41Z</time>
      </trkpt>
      <trkpt lat="44.7321" lon="4.58702">
        <ele>338.13</ele>
        <time>2018-09-21T17:06:43Z</time>
      </trkpt>
      <trkpt lat="44.7322" lon="4.58675">
        <ele>338.15</ele>
        <time>2018-09-21T17:06:45Z</time>
      </trkpt>
      <trkpt lat="44.7323" lon="4.58647">
        <ele>338.16</ele>
        <time>2018-09-21T17:06:47Z</time>
      </trkpt>
      <trkpt lat="44.73239" lon="4.58619">
        <ele>339.07</ele>
        <time>2018-09-21T17:06:49Z</time>
      </trkpt>
      <trkpt lat="44.73248" lon="4.5859">
        <ele>339.15</ele>
        <time>2018-09-21T17:06:51Z</time>
      </trkpt>
      <trkpt lat="44.73252" lon="4.58558">
        <ele>340.77</ele>
        <time>2018-09-21T17:06:53Z</time>
      </trkpt>
      <trkpt lat="44.73253" lon="4.58524">
        <ele>341.12</ele>
        <time>2018-09-21T17:06:55Z</time>
      </trkpt>
      <trkpt lat="44.7325" lon="4.58495">
        <ele>341.85</ele>
        <time>2018-09-21T17:06:57Z</time>
      </trkpt>
      <trkpt lat="44.73246" lon="4.58468">
        <ele>342.83</ele>
        <time>2018-09-21T17:06:59Z</time>
      </trkpt>
      <trkpt lat="44.73241" lon="4.58439">
        <ele>344.06</ele>
        <time>2018-09-21T17:07:02Z</time>
      </trkpt>
      <trkpt lat="44.73235" lon="4.58403">
        <ele>344.16</ele>
        <time>2018-09-21T17:07:06Z</time>
      </trkpt>
      <trkpt lat="44.7323" lon="4.58367">
        <ele>346.74</ele>
        <time>2018-09-21T17:07:09Z</time>
      </trkpt>
      <trkpt lat="44.73225" lon="4.5833">
        <ele>348.03</ele>
        <time>2018-09-21T17:07:11Z</time>
      </trkpt>
      <trkpt lat="44.73221" lon="4.58295">
        <ele>348.85</ele>
        <time>2018-09-21T17:07:13Z</time>
      </trkpt>
      <trkpt lat="44.73215" lon="4.58263">
        <ele>349.83</ele>
        <time>2018-09-21T17:07:15Z</time>
      </trkpt>
      <trkpt lat="44.73206" lon="4.58229">
        <ele>351.04</ele>
        <time>2018-09-21T17:07:17Z</time>
      </trkpt>
      <trkpt lat="44.73191" lon="4.58196">
        <ele>351.15</ele>
        <time>2018-09-21T17:07:19Z</time>
      </trkpt>
      <trkpt lat="44.73166" lon="4.5817">
        <ele>352.77</ele>
        <time>2018-09-21T17:07:21Z</time>
      </trkpt>
      <trkpt lat="44.73145" lon="4.58141">
        <ele>353.12</ele>
        <time>2018-09-21T17:07:23Z</time>
      </trkpt>
      <trkpt lat="44.73123" lon="4.58115">
        <ele>351.54</ele>
        <time>2018-09-21T17:07:25Z</time>
      </trkpt>
      <trkpt lat="44.731" lon="4.58089">
        <ele>352.1</ele>
        <time>2018-09-21T17:07:27Z</time>
      </trkpt>
      <trkpt lat="44.73079" lon="4.58063">
        <ele>353.76</ele>
        <time>2018-09-21T17:07:29Z</time>
      </trkpt>
      <trkpt lat="44.73061" lon="4.58035">
        <ele>353.91</ele>
        <time>2018-09-21T17:07:31Z</time>
      </trkpt>
      <trkpt lat="44.7305" lon="4.58001">
        <ele>355.74</ele>
        <time>2018-09-21T17:07:33Z</time>
      </trkpt>
      <trkpt lat="44.73042" lon="4.57966">
        <ele>357.03</ele>
        <time>2018-09-21T17:07:35Z</time>
      </trkpt>
      <trkpt lat="44.73035" lon="4.57929">
        <ele>358.76</ele>
        <time>2018-09-21T17:07:37Z</time>
      </trkpt>
      <trkpt lat="44.73027" lon="4.57893">
        <ele>359.33</ele>
        <time>2018-09-21T17:07:39Z</time>
      </trkpt>
      <trkpt lat="44.73019" lon="4.57859">
        <ele>360.78</ele>
        <time>2018-09-21T17:07:41Z</time>
      </trkpt>
      <trkpt lat="44.73011" lon="4.57823">
        <ele>360.21</ele>
        <time>2018-09-21T17:07:43Z</time>
      </trkpt>
      <trkpt lat="44.73003" lon="4.57788">
        <ele>361.07</ele>
        <time>2018-09-21T17:07:45Z</time>
      </trkpt>
      <trkpt lat="44.72996" lon="4.57754">
        <ele>362.76</ele>
        <time>2018-09-21T17:07:47Z</time>
      </trkpt>
      <trkpt lat="44.72988" lon="4.5772">
        <ele>364.73</ele>
        <time>2018-09-21T17:07:49Z</time>
      </trkpt>
      <trkpt lat="44.72981" lon="4.57686">
        <ele>366.03</ele>
        <time>2018-09-21T17:07:51Z</time>
      </trkpt>
      <trkpt lat="44.72973" lon="4.57653">
        <ele>366.85</ele>
        <time>2018-09-21T17:07:53Z</time>
      </trkpt>
      <trkpt lat="44.72965" lon="4.5762">
        <ele>368.04</ele>
        <time>2018-09-21T17:07:55Z</time>
      </trkpt>
      <trkpt lat="44.72957" lon="4.57587">
        <ele>369.06</ele>
        <time>2018-09-21T17:07:57Z</time>
      </trkpt>
      <trkpt lat="44.72949" lon="4.57555">
        <ele>369.85</ele>
        <time>2018-09-21T17:07:59Z</time>
      </trkpt>
      <trkpt lat="44.72943" lon="4.57524">
        <ele>371.04</ele>
        <time>2018-09-21T17:08:01Z</time>
      </trkpt>
      <trkpt lat="44.72936" lon="4.57495">
        <ele>372.76</ele>
        <time>2018-09-21T17:08:03Z</time>
      </trkpt>
      <trkpt lat="44.7293" lon="4.57468">
        <ele>374.03</ele>
        <time>2018-09-21T17:08:05Z</time>
      </trkpt>
      <trkpt lat="44.72925" lon="4.5744">
        <ele>374.15</ele>
        <time>2018-09-21T17:08:07Z</time>
      </trkpt>
      <trkpt lat="44.72918" lon="4.57413">
        <ele>375.07</ele>
        <time>2018-09-21T17:08:09Z</time>
      </trkpt>
      <trkpt lat="44.72911" lon="4.57387">
        <ele>375.15</ele>
        <time>2018-09-21T17:08:11Z</time>
      </trkpt>
      <trkpt lat="44.72904" lon="4.57358">
        <ele>376.07</ele>
        <time>2018-09-21T17:08:13Z</time>
      </trkpt>
      <trkpt lat="44.72899" lon="4.57323">
        <ele>376.36</ele>
        <time>2018-09-21T17:08:15Z</time>
      </trkpt>
      <trkpt lat="44.72891" lon="4.57288">
        <ele>377.09</ele>
        <time>2018-09-21T17:08:17Z</time>
      </trkpt>
      <trkpt lat="44.72884" lon="4.5725">
        <ele>378.76</ele>
        <time>2018-09-21T17:08:19Z</time>
      </trkpt>
      <trkpt lat="44.7288" lon="4.57209">
        <ele>379.82</ele>
        <time>2018-09-21T17:08:21Z</time>
      </trkpt>
      <trkpt lat="44.72882" lon="4.57168">
        <ele>377.89</ele>
        <time>2018-09-21T17:08:23Z</time>
      </trkpt>
      <trkpt lat="44.72891" lon="4.57133">
        <ele>380.44</ele>
        <time>2018-09-21T17:08:25Z</time>
      </trkpt>
      <trkpt lat="44.72902" lon="4.57098">
        <ele>382.7</ele>
        <time>2018-09-21T17:08:27Z</time>
      </trkpt>
      <trkpt lat="44.72915" lon="4.57061">
        <ele>384.03</ele>
        <time>2018-09-21T17:08:29Z</time>
      </trkpt>
      <trkpt lat="44.72924" lon="4.57037">
        <ele>384.82</ele>
        <time>2018-09-21T17:08:30Z</time>
      </trkpt>
      <trkpt lat="44.72939" lon="4.56998">
        <ele>386.74</ele>
        <time>2018-09-21T17:08:32Z</time>
      </trkpt>
      <trkpt lat="44.72948" lon="4.56964">
        <ele>388.03</ele>
        <time>2018-09-21T17:08:34Z</time>
      </trkpt>
      <trkpt lat="44.72952" lon="4.56928">
        <ele>389.06</ele>
        <time>2018-09-21T17:08:36Z</time>
      </trkpt>
      <trkpt lat="44.72951" lon="4.56892">
        <ele>389.85</ele>
        <time>2018-09-21T17:08:38Z</time>
      </trkpt>
      <trkpt lat="44.72945" lon="4.56855">
        <ele>390.83</ele>
        <time>2018-09-21T17:08:40Z</time>
      </trkpt>
      <trkpt lat="44.72939" lon="4.56819">
        <ele>391.83</ele>
        <time>2018-09-21T17:08:42Z</time>
      </trkpt>
      <trkpt lat="44.72932" lon="4.5678">
        <ele>393.74</ele>
        <time>2018-09-21T17:08:44Z</time>
      </trkpt>
      <trkpt lat="44.72926" lon="4.56742">
        <ele>394.82</ele>
        <time>2018-09-21T17:08:46Z</time>
      </trkpt>
      <trkpt lat="44.72921" lon="4.56711">
        <ele>396.04</ele>
        <time>2018-09-21T17:08:48Z</time>
      </trkpt>
      <trkpt lat="44.72917" lon="4.56683">
        <ele>396.15</ele>
        <time>2018-09-21T17:08:50Z</time>
      </trkpt>
      <trkpt lat="44.72915" lon="4.56657">
        <ele>396.86</ele>
        <time>2018-09-21T17:08:52Z</time>
      </trkpt>
      <trkpt lat="44.72923" lon="4.56626">
        <ele>397.62</ele>
        <time>2018-09-21T17:08:54Z</time>
      </trkpt>
      <trkpt lat="44.72937" lon="4.56595">
        <ele>399.72</ele>
        <time>2018-09-21T17:08:56Z</time>
      </trkpt>
      <trkpt lat="44.72949" lon="4.56556">
        <ele>401.73</ele>
        <time>2018-09-21T17:08:58Z</time>
      </trkpt>
      <trkpt lat="44.7295" lon="4.56511">
        <ele>402.82</ele>
        <time>2018-09-21T17:09:00Z</time>
      </trkpt>
      <trkpt lat="44.72945" lon="4.5646">
        <ele>403.13</ele>
        <time>2018-09-21T17:09:02Z</time>
      </trkpt>
      <trkpt lat="44.72933" lon="4.56428">
        <ele>403.15</ele>
        <time>2018-09-21T17:09:03Z</time>
      </trkpt>
      <trkpt lat="44.72926" lon="4.564">
        <ele>403.15</ele>
        <time>2018-09-21T17:09:04Z</time>
      </trkpt>
      <trkpt lat="44.72919" lon="4.56375">
        <ele>404.56</ele>
        <time>2018-09-21T17:09:05Z</time>
      </trkpt>
      <trkpt lat="44.72912" lon="4.56347">
        <ele>405.68</ele>
        <time>2018-09-21T17:09:06Z</time>
      </trkpt>
      <trkpt lat="44.72906" lon="4.56322">
        <ele>406.71</ele>
        <time>2018-09-21T17:09:07Z</time>
      </trkpt>
      <trkpt lat="44.729" lon="4.56296">
        <ele>408.42</ele>
        <time>2018-09-21T17:09:08Z</time>
      </trkpt>
      <trkpt lat="44.72896" lon="4.5627">
        <ele>408.94</ele>
        <time>2018-09-21T17:09:09Z</time>
      </trkpt>
      <trkpt lat="44.72888" lon="4.56246">
        <ele>409.09</ele>
        <time>2018-09-21T17:09:10Z</time>
      </trkpt>
      <trkpt lat="44.72876" lon="4.56225">
        <ele>410.54</ele>
        <time>2018-09-21T17:09:11Z</time>
      </trkpt>
      <trkpt lat="44.72863" lon="4.56203">
        <ele>410.97</ele>
        <time>2018-09-21T17:09:12Z</time>
      </trkpt>
      <trkpt lat="44.72839" lon="4.56165">
        <ele>411.84</ele>
        <time>2018-09-21T17:09:14Z</time>
      </trkpt>
      <trkpt lat="44.72829" lon="4.56141">
        <ele>412.76</ele>
        <time>2018-09-21T17:09:15Z</time>
      </trkpt>
      <trkpt lat="44.7284" lon="4.56097">
        <ele>412.21</ele>
        <time>2018-09-21T17:09:17Z</time>
      </trkpt>
      <trkpt lat="44.72852" lon="4.56053">
        <ele>413.77</ele>
        <time>2018-09-21T17:09:19Z</time>
      </trkpt>
      <trkpt lat="44.72857" lon="4.56009">
        <ele>414.82</ele>
        <time>2018-09-21T17:09:21Z</time>
      </trkpt>
      <trkpt lat="44.7284" lon="4.55986">
        <ele>415.76</ele>
        <time>2018-09-21T17:09:22Z</time>
      </trkpt>
      <trkpt lat="44.72815" lon="4.55951">
        <ele>417.73</ele>
        <time>2018-09-21T17:09:24Z</time>
      </trkpt>
      <trkpt lat="44.72795" lon="4.55909">
        <ele>419.03</ele>
        <time>2018-09-21T17:09:26Z</time>
      </trkpt>
      <trkpt lat="44.728" lon="4.55847">
        <ele>418.94</ele>
        <time>2018-09-21T17:09:28Z</time>
      </trkpt>
      <trkpt lat="44.72802" lon="4.55816">
        <ele>419.09</ele>
        <time>2018-09-21T17:09:29Z</time>
      </trkpt>
      <trkpt lat="44.72802" lon="4.55785">
        <ele>419.84</ele>
        <time>2018-09-21T17:09:30Z</time>
      </trkpt>
      <trkpt lat="44.72792" lon="4.55756">
        <ele>421.46</ele>
        <time>2018-09-21T17:09:31Z</time>
      </trkpt>
      <trkpt lat="44.72784" lon="4.55725">
        <ele>424.05</ele>
        <time>2018-09-21T17:09:32Z</time>
      </trkpt>
      <trkpt lat="44.72777" lon="4.55697">
        <ele>425.52</ele>
        <time>2018-09-21T17:09:33Z</time>
      </trkpt>
      <trkpt lat="44.72773" lon="4.55672">
        <ele>426.67</ele>
        <time>2018-09-21T17:09:34Z</time>
      </trkpt>
      <trkpt lat="44.72776" lon="4.55625">
        <ele>427.81</ele>
        <time>2018-09-21T17:09:36Z</time>
      </trkpt>
      <trkpt lat="44.72785" lon="4.55598">
        <ele>428.75</ele>
        <time>2018-09-21T17:09:37Z</time>
      </trkpt>
      <trkpt lat="44.72789" lon="4.55573">
        <ele>431.14</ele>
        <time>2018-09-21T17:09:38Z</time>
      </trkpt>
      <trkpt lat="44.72791" lon="4.55542">
        <ele>433.25</ele>
        <time>2018-09-21T17:09:39Z</time>
      </trkpt>
      <trkpt lat="44.7279" lon="4.55511">
        <ele>434.59</ele>
        <time>2018-09-21T17:09:40Z</time>
      </trkpt>
      <trkpt lat="44.72787" lon="4.55482">
        <ele>434.99</ele>
        <time>2018-09-21T17:09:41Z</time>
      </trkpt>
      <trkpt lat="44.7278" lon="4.55455">
        <ele>435.11</ele>
        <time>2018-09-21T17:09:42Z</time>
      </trkpt>
      <trkpt lat="44.72772" lon="4.55429">
        <ele>435.14</ele>
        <time>2018-09-21T17:09:43Z</time>
      </trkpt>
      <trkpt lat="44.72752" lon="4.55415">
        <ele>437.25</ele>
        <time>2018-09-21T17:09:44Z</time>
      </trkpt>
      <trkpt lat="44.72736" lon="4.55399">
        <ele>437.89</ele>
        <time>2018-09-21T17:09:45Z</time>
      </trkpt>
      <trkpt lat="44.72716" lon="4.55388">
        <ele>439.48</ele>
        <time>2018-09-21T17:09:46Z</time>
      </trkpt>
      <trkpt lat="44.72699" lon="4.55374">
        <ele>441.35</ele>
        <time>2018-09-21T17:09:47Z</time>
      </trkpt>
      <trkpt lat="44.72685" lon="4.55357">
        <ele>442.62</ele>
        <time>2018-09-21T17:09:48Z</time>
      </trkpt>
      <trkpt lat="44.72663" lon="4.55323">
        <ele>444.02</ele>
        <time>2018-09-21T17:09:50Z</time>
      </trkpt>
      <trkpt lat="44.72643" lon="4.5529">
        <ele>445.54</ele>
        <time>2018-09-21T17:09:52Z</time>
      </trkpt>
      <trkpt lat="44.72636" lon="4.55265">
        <ele>446.67</ele>
        <time>2018-09-21T17:09:53Z</time>
      </trkpt>
      <trkpt lat="44.72627" lon="4.55241">
        <ele>447.01</ele>
        <time>2018-09-21T17:09:54Z</time>
      </trkpt>
      <trkpt lat="44.72618" lon="4.55211">
        <ele>447.81</ele>
        <time>2018-09-21T17:09:55Z</time>
      </trkpt>
      <trkpt lat="44.72609" lon="4.55177">
        <ele>448.75</ele>
        <time>2018-09-21T17:09:56Z</time>
      </trkpt>
      <trkpt lat="44.72599" lon="4.55145">
        <ele>450.44</ele>
        <time>2018-09-21T17:09:57Z</time>
      </trkpt>
      <trkpt lat="44.7259" lon="4.55112">
        <ele>451.64</ele>
        <time>2018-09-21T17:09:58Z</time>
      </trkpt>
      <trkpt lat="44.72582" lon="4.5508">
        <ele>452.7</ele>
        <time>2018-09-21T17:09:59Z</time>
      </trkpt>
      <trkpt lat="44.72576" lon="4.55046">
        <ele>453.72</ele>
        <time>2018-09-21T17:10:00Z</time>
      </trkpt>
      <trkpt lat="44.72574" lon="4.55012">
        <ele>454.73</ele>
        <time>2018-09-21T17:10:01Z</time>
      </trkpt>
      <trkpt lat="44.72573" lon="4.54978">
        <ele>455.73</ele>
        <time>2018-09-21T17:10:02Z</time>
      </trkpt>
      <trkpt lat="44.72576" lon="4.54946">
        <ele>456.03</ele>
        <time>2018-09-21T17:10:03Z</time>
      </trkpt>
      <trkpt lat="44.72583" lon="4.54914">
        <ele>456.82</ele>
        <time>2018-09-21T17:10:04Z</time>
      </trkpt>
      <trkpt lat="44.72598" lon="4.54885">
        <ele>458.46</ele>
        <time>2018-09-21T17:10:05Z</time>
      </trkpt>
      <trkpt lat="44.72609" lon="4.54854">
        <ele>460.35</ele>
        <time>2018-09-21T17:10:06Z</time>
      </trkpt>
      <trkpt lat="44.7262" lon="4.54823">
        <ele>461.61</ele>
        <time>2018-09-21T17:10:07Z</time>
      </trkpt>
      <trkpt lat="44.72626" lon="4.54787">
        <ele>463.39</ele>
        <time>2018-09-21T17:10:08Z</time>
      </trkpt>
      <trkpt lat="44.72636" lon="4.54755">
        <ele>464.63</ele>
        <time>2018-09-21T17:10:09Z</time>
      </trkpt>
      <trkpt lat="44.72649" lon="4.54724">
        <ele>465.7</ele>
        <time>2018-09-21T17:10:10Z</time>
      </trkpt>
      <trkpt lat="44.72662" lon="4.54694">
        <ele>466.72</ele>
        <time>2018-09-21T17:10:11Z</time>
      </trkpt>
      <trkpt lat="44.72675" lon="4.54664">
        <ele>468.43</ele>
        <time>2018-09-21T17:10:12Z</time>
      </trkpt>
      <trkpt lat="44.7269" lon="4.54635">
        <ele>470.34</ele>
        <time>2018-09-21T17:10:13Z</time>
      </trkpt>
      <trkpt lat="44.72708" lon="4.54607">
        <ele>471.61</ele>
        <time>2018-09-21T17:10:14Z</time>
      </trkpt>
      <trkpt lat="44.72722" lon="4.54579">
        <ele>473.39</ele>
        <time>2018-09-21T17:10:15Z</time>
      </trkpt>
      <trkpt lat="44.72734" lon="4.54549">
        <ele>473.93</ele>
        <time>2018-09-21T17:10:16Z</time>
      </trkpt>
      <trkpt lat="44.72744" lon="4.54521">
        <ele>474.79</ele>
        <time>2018-09-21T17:10:17Z</time>
      </trkpt>
      <trkpt lat="44.72756" lon="4.54494">
        <ele>475.05</ele>
        <time>2018-09-21T17:10:18Z</time>
      </trkpt>
      <trkpt lat="44.72769" lon="4.54469">
        <ele>475.12</ele>
        <time>2018-09-21T17:10:19Z</time>
      </trkpt>
      <trkpt lat="44.72785" lon="4.54448">
        <ele>475.15</ele>
        <time>2018-09-21T17:10:20Z</time>
      </trkpt>
      <trkpt lat="44.72804" lon="4.54438">
        <ele>475.85</ele>
        <time>2018-09-21T17:10:21Z</time>
      </trkpt>
      <trkpt lat="44.72828" lon="4.54437">
        <ele>476.77</ele>
        <time>2018-09-21T17:10:22Z</time>
      </trkpt>
      <trkpt lat="44.72845" lon="4.54425">
        <ele>477.74</ele>
        <time>2018-09-21T17:10:23Z</time>
      </trkpt>
      <trkpt lat="44.72876" lon="4.54392">
        <ele>478.82</ele>
        <time>2018-09-21T17:10:25Z</time>
      </trkpt>
      <trkpt lat="44.72887" lon="4.54369">
        <ele>479.06</ele>
        <time>2018-09-21T17:10:26Z</time>
      </trkpt>
      <trkpt lat="44.72897" lon="4.54346">
        <ele>479.83</ele>
        <time>2018-09-21T17:10:27Z</time>
      </trkpt>
      <trkpt lat="44.72903" lon="4.54306">
        <ele>480.06</ele>
        <time>2018-09-21T17:10:28Z</time>
      </trkpt>
      <trkpt lat="44.72908" lon="4.54274">
        <ele>480.83</ele>
        <time>2018-09-21T17:10:29Z</time>
      </trkpt>
      <trkpt lat="44.72903" lon="4.54242">
        <ele>482.46</ele>
        <time>2018-09-21T17:10:30Z</time>
      </trkpt>
      <trkpt lat="44.72883" lon="4.54204">
        <ele>482.95</ele>
        <time>2018-09-21T17:10:31Z</time>
      </trkpt>
      <trkpt lat="44.72875" lon="4.54174">
        <ele>483.79</ele>
        <time>2018-09-21T17:10:32Z</time>
      </trkpt>
      <trkpt lat="44.72876" lon="4.54142">
        <ele>485.45</ele>
        <time>2018-09-21T17:10:33Z</time>
      </trkpt>
      <trkpt lat="44.72877" lon="4.54112">
        <ele>486.64</ele>
        <time>2018-09-21T17:10:34Z</time>
      </trkpt>
      <trkpt lat="44.72876" lon="4.54084">
        <ele>487.7</ele>
        <time>2018-09-21T17:10:35Z</time>
      </trkpt>
      <trkpt lat="44.72868" lon="4.54056">
        <ele>490.12</ele>
        <time>2018-09-21T17:10:36Z</time>
      </trkpt>
      <trkpt lat="44.72859" lon="4.54028">
        <ele>490.85</ele>
        <time>2018-09-21T17:10:37Z</time>
      </trkpt>
      <trkpt lat="44.72842" lon="4.54001">
        <ele>492.46</ele>
        <time>2018-09-21T17:10:38Z</time>
      </trkpt>
      <trkpt lat="44.72829" lon="4.53975">
        <ele>493.65</ele>
        <time>2018-09-21T17:10:39Z</time>
      </trkpt>
      <trkpt lat="44.72816" lon="4.5395">
        <ele>494.7</ele>
        <time>2018-09-21T17:10:40Z</time>
      </trkpt>
      <trkpt lat="44.72795" lon="4.5391">
        <ele>494.21</ele>
        <time>2018-09-21T17:10:42Z</time>
      </trkpt>
      <trkpt lat="44.72779" lon="4.53882">
        <ele>494.16</ele>
        <time>2018-09-21T17:10:44Z</time>
      </trkpt>
      <trkpt lat="44.72762" lon="4.53918">
        <ele>494.16</ele>
        <time>2018-09-21T17:10:46Z</time>
      </trkpt>
      <trkpt lat="44.72749" lon="4.5397">
        <ele>496.96</ele>
        <time>2018-09-21T17:10:47Z</time>
      </trkpt>
      <trkpt lat="44.72751" lon="4.54027">
        <ele>498.26</ele>
        <time>2018-09-21T17:10:49Z</time>
      </trkpt>
      <trkpt lat="44.72743" lon="4.54072">
        <ele>497.47</ele>
        <time>2018-09-21T17:10:51Z</time>
      </trkpt>
      <trkpt lat="44.72725" lon="4.54119">
        <ele>498.79</ele>
        <time>2018-09-21T17:10:53Z</time>
      </trkpt>
      <trkpt lat="44.7272" lon="4.54149">
        <ele>497.65</ele>
        <time>2018-09-21T17:10:54Z</time>
      </trkpt>
      <trkpt lat="44.72712" lon="4.54174">
        <ele>498</ele>
        <time>2018-09-21T17:10:55Z</time>
      </trkpt>
      <trkpt lat="44.72695" lon="4.54218">
        <ele>500.66</ele>
        <time>2018-09-21T17:10:57Z</time>
      </trkpt>
      <trkpt lat="44.72669" lon="4.54241">
        <ele>502.02</ele>
        <time>2018-09-21T17:10:59Z</time>
      </trkpt>
      <trkpt lat="44.72632" lon="4.54185">
        <ele>503.52</ele>
        <time>2018-09-21T17:11:00Z</time>
      </trkpt>
      <trkpt lat="44.7261" lon="4.54177">
        <ele>504.66</ele>
        <time>2018-09-21T17:11:01Z</time>
      </trkpt>
      <trkpt lat="44.72587" lon="4.54176">
        <ele>506.41</ele>
        <time>2018-09-21T17:11:02Z</time>
      </trkpt>
      <trkpt lat="44.72567" lon="4.5417">
        <ele>507.63</ele>
        <time>2018-09-21T17:11:03Z</time>
      </trkpt>
      <trkpt lat="44.72547" lon="4.54165">
        <ele>508</ele>
        <time>2018-09-21T17:11:04Z</time>
      </trkpt>
      <trkpt lat="44.72529" lon="4.54156">
        <ele>508.81</ele>
        <time>2018-09-21T17:11:05Z</time>
      </trkpt>
      <trkpt lat="44.72509" lon="4.54142">
        <ele>510.45</ele>
        <time>2018-09-21T17:11:06Z</time>
      </trkpt>
      <trkpt lat="44.72485" lon="4.54114">
        <ele>511.65</ele>
        <time>2018-09-21T17:11:07Z</time>
      </trkpt>
      <trkpt lat="44.72465" lon="4.54097">
        <ele>512.7</ele>
        <time>2018-09-21T17:11:08Z</time>
      </trkpt>
      <trkpt lat="44.72444" lon="4.5408">
        <ele>513.02</ele>
        <time>2018-09-21T17:11:09Z</time>
      </trkpt>
      <trkpt lat="44.72423" lon="4.5406">
        <ele>513.82</ele>
        <time>2018-09-21T17:11:10Z</time>
      </trkpt>
      <trkpt lat="44.72405" lon="4.54037">
        <ele>514.05</ele>
        <time>2018-09-21T17:11:11Z</time>
      </trkpt>
      <trkpt lat="44.7239" lon="4.54013">
        <ele>514.83</ele>
        <time>2018-09-21T17:11:12Z</time>
      </trkpt>
      <trkpt lat="44.72379" lon="4.53992">
        <ele>515.76</ele>
        <time>2018-09-21T17:11:13Z</time>
      </trkpt>
      <trkpt lat="44.72366" lon="4.53955">
        <ele>517.73</ele>
        <time>2018-09-21T17:11:15Z</time>
      </trkpt>
      <trkpt lat="44.72344" lon="4.5393">
        <ele>518.82</ele>
        <time>2018-09-21T17:11:17Z</time>
      </trkpt>
      <trkpt lat="44.72312" lon="4.53934">
        <ele>520.04</ele>
        <time>2018-09-21T17:11:19Z</time>
      </trkpt>
      <trkpt lat="44.72293" lon="4.53915">
        <ele>520.12</ele>
        <time>2018-09-21T17:11:20Z</time>
      </trkpt>
      <trkpt lat="44.72272" lon="4.53902">
        <ele>521.55</ele>
        <time>2018-09-21T17:11:21Z</time>
      </trkpt>
      <trkpt lat="44.72251" lon="4.53886">
        <ele>522.67</ele>
        <time>2018-09-21T17:11:22Z</time>
      </trkpt>
      <trkpt lat="44.72231" lon="4.5387">
        <ele>523.01</ele>
        <time>2018-09-21T17:11:23Z</time>
      </trkpt>
      <trkpt lat="44.72212" lon="4.53852">
        <ele>523.81</ele>
        <time>2018-09-21T17:11:24Z</time>
      </trkpt>
      <trkpt lat="44.72195" lon="4.53833">
        <ele>523.35</ele>
        <time>2018-09-21T17:11:25Z</time>
      </trkpt>
      <trkpt lat="44.72179" lon="4.53813">
        <ele>523.22</ele>
        <time>2018-09-21T17:11:26Z</time>
      </trkpt>
      <trkpt lat="44.72169" lon="4.53787">
        <ele>523.87</ele>
        <time>2018-09-21T17:11:27Z</time>
      </trkpt>
      <trkpt lat="44.72159" lon="4.53758">
        <ele>524.77</ele>
        <time>2018-09-21T17:11:28Z</time>
      </trkpt>
      <trkpt lat="44.72149" lon="4.5373">
        <ele>525.04</ele>
        <time>2018-09-21T17:11:29Z</time>
      </trkpt>
      <trkpt lat="44.72152" lon="4.5369">
        <ele>523.72</ele>
        <time>2018-09-21T17:11:30Z</time>
      </trkpt>
      <trkpt lat="44.72154" lon="4.53663">
        <ele>524.73</ele>
        <time>2018-09-21T17:11:31Z</time>
      </trkpt>
      <trkpt lat="44.72159" lon="4.53634">
        <ele>524.33</ele>
        <time>2018-09-21T17:11:32Z</time>
      </trkpt>
      <trkpt lat="44.72164" lon="4.53586">
        <ele>525.99</ele>
        <time>2018-09-21T17:11:34Z</time>
      </trkpt>
      <trkpt lat="44.72161" lon="4.53558">
        <ele>526.11</ele>
        <time>2018-09-21T17:11:35Z</time>
      </trkpt>
      <trkpt lat="44.72144" lon="4.53524">
        <ele>525.45</ele>
        <time>2018-09-21T17:11:37Z</time>
      </trkpt>
      <trkpt lat="44.72117" lon="4.53525">
        <ele>528.75</ele>
        <time>2018-09-21T17:11:38Z</time>
      </trkpt>
      <trkpt lat="44.72106" lon="4.53499">
        <ele>533.53</ele>
        <time>2018-09-21T17:11:40Z</time>
      </trkpt>
      <trkpt lat="44.72114" lon="4.53456">
        <ele>540.62</ele>
        <time>2018-09-21T17:11:43Z</time>
      </trkpt>
      <trkpt lat="44.72123" lon="4.53411">
        <ele>545.45</ele>
        <time>2018-09-21T17:11:45Z</time>
      </trkpt>
      <trkpt lat="44.7212" lon="4.53385">
        <ele>547.34</ele>
        <time>2018-09-21T17:11:46Z</time>
      </trkpt>
      <trkpt lat="44.7211" lon="4.53329">
        <ele>548.99</ele>
        <time>2018-09-21T17:11:48Z</time>
      </trkpt>
      <trkpt lat="44.721" lon="4.53306">
        <ele>549.11</ele>
        <time>2018-09-21T17:11:49Z</time>
      </trkpt>
      <trkpt lat="44.72084" lon="4.53286">
        <ele>549.14</ele>
        <time>2018-09-21T17:11:50Z</time>
      </trkpt>
      <trkpt lat="44.72063" lon="4.53275">
        <ele>551.25</ele>
        <time>2018-09-21T17:11:51Z</time>
      </trkpt>
      <trkpt lat="44.72044" lon="4.53266">
        <ele>553.29</ele>
        <time>2018-09-21T17:11:52Z</time>
      </trkpt>
      <trkpt lat="44.72023" lon="4.53268">
        <ele>553.2</ele>
        <time>2018-09-21T17:11:53Z</time>
      </trkpt>
      <trkpt lat="44.71998" lon="4.53281">
        <ele>554.57</ele>
        <time>2018-09-21T17:11:54Z</time>
      </trkpt>
      <trkpt lat="44.71976" lon="4.53283">
        <ele>556.38</ele>
        <time>2018-09-21T17:11:55Z</time>
      </trkpt>
      <trkpt lat="44.71947" lon="4.53275">
        <ele>559.4</ele>
        <time>2018-09-21T17:11:57Z</time>
      </trkpt>
      <trkpt lat="44.71937" lon="4.53241">
        <ele>559.88</ele>
        <time>2018-09-21T17:11:59Z</time>
      </trkpt>
      <trkpt lat="44.71937" lon="4.53202">
        <ele>561.74</ele>
        <time>2018-09-21T17:12:01Z</time>
      </trkpt>
      <trkpt lat="44.71942" lon="4.53175">
        <ele>563.43</ele>
        <time>2018-09-21T17:12:02Z</time>
      </trkpt>
      <trkpt lat="44.7195" lon="4.53134">
        <ele>566.04</ele>
        <time>2018-09-21T17:12:03Z</time>
      </trkpt>
      <trkpt lat="44.71954" lon="4.53105">
        <ele>566.82</ele>
        <time>2018-09-21T17:12:04Z</time>
      </trkpt>
      <trkpt lat="44.71955" lon="4.53077">
        <ele>566.36</ele>
        <time>2018-09-21T17:12:05Z</time>
      </trkpt>
      <trkpt lat="44.71954" lon="4.53048">
        <ele>566.92</ele>
        <time>2018-09-21T17:12:06Z</time>
      </trkpt>
      <trkpt lat="44.71949" lon="4.53001">
        <ele>567.84</ele>
        <time>2018-09-21T17:12:08Z</time>
      </trkpt>
      <trkpt lat="44.71952" lon="4.5296">
        <ele>569.74</ele>
        <time>2018-09-21T17:12:10Z</time>
      </trkpt>
      <trkpt lat="44.71974" lon="4.5293">
        <ele>571.73</ele>
        <time>2018-09-21T17:12:12Z</time>
      </trkpt>
      <trkpt lat="44.71999" lon="4.52909">
        <ele>574.64</ele>
        <time>2018-09-21T17:12:14Z</time>
      </trkpt>
      <trkpt lat="44.72016" lon="4.52878">
        <ele>576.93</ele>
        <time>2018-09-21T17:12:16Z</time>
      </trkpt>
      <trkpt lat="44.72027" lon="4.52839">
        <ele>577.14</ele>
        <time>2018-09-21T17:12:18Z</time>
      </trkpt>
      <trkpt lat="44.72027" lon="4.52809">
        <ele>579.25</ele>
        <time>2018-09-21T17:12:19Z</time>
      </trkpt>
      <trkpt lat="44.72022" lon="4.52776">
        <ele>580.59</ele>
        <time>2018-09-21T17:12:20Z</time>
      </trkpt>
      <trkpt lat="44.7202" lon="4.5275">
        <ele>581.69</ele>
        <time>2018-09-21T17:12:21Z</time>
      </trkpt>
      <trkpt lat="44.72028" lon="4.52707">
        <ele>583.02</ele>
        <time>2018-09-21T17:12:23Z</time>
      </trkpt>
      <trkpt lat="44.7204" lon="4.5268">
        <ele>584.55</ele>
        <time>2018-09-21T17:12:25Z</time>
      </trkpt>
      <trkpt lat="44.72072" lon="4.52663">
        <ele>584.4</ele>
        <time>2018-09-21T17:12:27Z</time>
      </trkpt>
      <trkpt lat="44.72091" lon="4.52667">
        <ele>583.53</ele>
        <time>2018-09-21T17:12:28Z</time>
      </trkpt>
      <trkpt lat="44.72124" lon="4.52686">
        <ele>584.8</ele>
        <time>2018-09-21T17:12:30Z</time>
      </trkpt>
      <trkpt lat="44.72148" lon="4.52695">
        <ele>587.85</ele>
        <time>2018-09-21T17:12:31Z</time>
      </trkpt>
      <trkpt lat="44.7217" lon="4.52697">
        <ele>590.86</ele>
        <time>2018-09-21T17:12:32Z</time>
      </trkpt>
      <trkpt lat="44.72193" lon="4.52694">
        <ele>592.47</ele>
        <time>2018-09-21T17:12:33Z</time>
      </trkpt>
      <trkpt lat="44.72216" lon="4.52689">
        <ele>592.95</ele>
        <time>2018-09-21T17:12:34Z</time>
      </trkpt>
      <trkpt lat="44.72238" lon="4.52681">
        <ele>594.5</ele>
        <time>2018-09-21T17:12:35Z</time>
      </trkpt>
      <trkpt lat="44.72259" lon="4.52671">
        <ele>596.36</ele>
        <time>2018-09-21T17:12:36Z</time>
      </trkpt>
      <trkpt lat="44.72278" lon="4.52658">
        <ele>597.62</ele>
        <time>2018-09-21T17:12:37Z</time>
      </trkpt>
      <trkpt lat="44.72295" lon="4.52642">
        <ele>598</ele>
        <time>2018-09-21T17:12:38Z</time>
      </trkpt>
      <trkpt lat="44.72309" lon="4.52622">
        <ele>599.51</ele>
        <time>2018-09-21T17:12:39Z</time>
      </trkpt>
      <trkpt lat="44.7232" lon="4.52594">
        <ele>601.36</ele>
        <time>2018-09-21T17:12:40Z</time>
      </trkpt>
      <trkpt lat="44.72331" lon="4.5257">
        <ele>602.62</ele>
        <time>2018-09-21T17:12:41Z</time>
      </trkpt>
      <trkpt lat="44.72343" lon="4.52546">
        <ele>604.4</ele>
        <time>2018-09-21T17:12:42Z</time>
      </trkpt>
      <trkpt lat="44.72351" lon="4.5252">
        <ele>605.63</ele>
        <time>2018-09-21T17:12:43Z</time>
      </trkpt>
      <trkpt lat="44.72357" lon="4.52494">
        <ele>606</ele>
        <time>2018-09-21T17:12:44Z</time>
      </trkpt>
      <trkpt lat="44.72354" lon="4.52464">
        <ele>606.81</ele>
        <time>2018-09-21T17:12:45Z</time>
      </trkpt>
      <trkpt lat="44.72352" lon="4.52436">
        <ele>607.05</ele>
        <time>2018-09-21T17:12:46Z</time>
      </trkpt>
      <trkpt lat="44.72345" lon="4.52409">
        <ele>608.53</ele>
        <time>2018-09-21T17:12:47Z</time>
      </trkpt>
      <trkpt lat="44.72338" lon="4.52383">
        <ele>608.97</ele>
        <time>2018-09-21T17:12:48Z</time>
      </trkpt>
      <trkpt lat="44.7233" lon="4.52354">
        <ele>609.8</ele>
        <time>2018-09-21T17:12:49Z</time>
      </trkpt>
      <trkpt lat="44.72317" lon="4.52326">
        <ele>610.75</ele>
        <time>2018-09-21T17:12:50Z</time>
      </trkpt>
      <trkpt lat="44.72303" lon="4.52298">
        <ele>612.43</ele>
        <time>2018-09-21T17:12:51Z</time>
      </trkpt>
      <trkpt lat="44.7229" lon="4.52271">
        <ele>612.94</ele>
        <time>2018-09-21T17:12:52Z</time>
      </trkpt>
      <trkpt lat="44.72278" lon="4.52246">
        <ele>613.09</ele>
        <time>2018-09-21T17:12:53Z</time>
      </trkpt>
      <trkpt lat="44.72268" lon="4.52219">
        <ele>613.14</ele>
        <time>2018-09-21T17:12:54Z</time>
      </trkpt>
      <trkpt lat="44.72262" lon="4.52193">
        <ele>612.45</ele>
        <time>2018-09-21T17:12:55Z</time>
      </trkpt>
      <trkpt lat="44.72256" lon="4.52165">
        <ele>612.25</ele>
        <time>2018-09-21T17:12:56Z</time>
      </trkpt>
      <trkpt lat="44.72256" lon="4.52137">
        <ele>613.58</ele>
        <time>2018-09-21T17:12:57Z</time>
      </trkpt>
      <trkpt lat="44.72256" lon="4.52109">
        <ele>614.68</ele>
        <time>2018-09-21T17:12:58Z</time>
      </trkpt>
      <trkpt lat="44.72257" lon="4.52082">
        <ele>615.72</ele>
        <time>2018-09-21T17:12:59Z</time>
      </trkpt>
      <trkpt lat="44.72259" lon="4.52055">
        <ele>616.72</ele>
        <time>2018-09-21T17:13:00Z</time>
      </trkpt>
      <trkpt lat="44.72263" lon="4.52028">
        <ele>617.03</ele>
        <time>2018-09-21T17:13:01Z</time>
      </trkpt>
      <trkpt lat="44.72273" lon="4.52006">
        <ele>618.52</ele>
        <time>2018-09-21T17:13:02Z</time>
      </trkpt>
      <trkpt lat="44.72282" lon="4.51983">
        <ele>620.37</ele>
        <time>2018-09-21T17:13:03Z</time>
      </trkpt>
      <trkpt lat="44.72291" lon="4.5196">
        <ele>621.62</ele>
        <time>2018-09-21T17:13:04Z</time>
      </trkpt>
      <trkpt lat="44.723" lon="4.51938">
        <ele>622.7</ele>
        <time>2018-09-21T17:13:05Z</time>
      </trkpt>
      <trkpt lat="44.72309" lon="4.51914">
        <ele>623.72</ele>
        <time>2018-09-21T17:13:06Z</time>
      </trkpt>
      <trkpt lat="44.72319" lon="4.51891">
        <ele>624.73</ele>
        <time>2018-09-21T17:13:07Z</time>
      </trkpt>
      <trkpt lat="44.72329" lon="4.51869">
        <ele>625.73</ele>
        <time>2018-09-21T17:13:08Z</time>
      </trkpt>
      <trkpt lat="44.72343" lon="4.51849">
        <ele>626.73</ele>
        <time>2018-09-21T17:13:09Z</time>
      </trkpt>
      <trkpt lat="44.7237" lon="4.51821">
        <ele>628.73</ele>
        <time>2018-09-21T17:13:11Z</time>
      </trkpt>
      <trkpt lat="44.72392" lon="4.51789">
        <ele>630.73</ele>
        <time>2018-09-21T17:13:13Z</time>
      </trkpt>
      <trkpt lat="44.72405" lon="4.5175">
        <ele>632.03</ele>
        <time>2018-09-21T17:13:15Z</time>
      </trkpt>
      <trkpt lat="44.7241" lon="4.5171">
        <ele>633.76</ele>
        <time>2018-09-21T17:13:17Z</time>
      </trkpt>
      <trkpt lat="44.72412" lon="4.51681">
        <ele>635.03</ele>
        <time>2018-09-21T17:13:19Z</time>
      </trkpt>
      <trkpt lat="44.72412" lon="4.51649">
        <ele>636.83</ele>
        <time>2018-09-21T17:13:22Z</time>
      </trkpt>
      <trkpt lat="44.72404" lon="4.51623">
        <ele>637.16</ele>
        <time>2018-09-21T17:13:28Z</time>
      </trkpt>
      <trkpt lat="44.72385" lon="4.51599">
        <ele>648.22</ele>
        <time>2018-09-21T17:16:20Z</time>
      </trkpt>
      <trkpt lat="44.72373" lon="4.51575">
        <ele>648.16</ele>
        <time>2018-09-21T17:16:22Z</time>
      </trkpt>
      <trkpt lat="44.72368" lon="4.51539">
        <ele>648.16</ele>
        <time>2018-09-21T17:16:24Z</time>
      </trkpt>
      <trkpt lat="44.72375" lon="4.51501">
        <ele>648.86</ele>
        <time>2018-09-21T17:16:26Z</time>
      </trkpt>
      <trkpt lat="44.72382" lon="4.51462">
        <ele>650.04</ele>
        <time>2018-09-21T17:16:28Z</time>
      </trkpt>
      <trkpt lat="44.72383" lon="4.51421">
        <ele>649.45</ele>
        <time>2018-09-21T17:16:30Z</time>
      </trkpt>
      <trkpt lat="44.72369" lon="4.51383">
        <ele>648.27</ele>
        <time>2018-09-21T17:16:32Z</time>
      </trkpt>
      <trkpt lat="44.72353" lon="4.51363">
        <ele>648.19</ele>
        <time>2018-09-21T17:16:33Z</time>
      </trkpt>
      <trkpt lat="44.7234" lon="4.51344">
        <ele>648.87</ele>
        <time>2018-09-21T17:16:34Z</time>
      </trkpt>
      <trkpt lat="44.72318" lon="4.51306">
        <ele>648.22</ele>
        <time>2018-09-21T17:16:36Z</time>
      </trkpt>
      <trkpt lat="44.723" lon="4.51271">
        <ele>649.07</ele>
        <time>2018-09-21T17:16:38Z</time>
      </trkpt>
      <trkpt lat="44.72284" lon="4.51245">
        <ele>650.76</ele>
        <time>2018-09-21T17:16:40Z</time>
      </trkpt>
      <trkpt lat="44.72272" lon="4.51218">
        <ele>651.82</ele>
        <time>2018-09-21T17:16:42Z</time>
      </trkpt>
      <trkpt lat="44.72267" lon="4.51178">
        <ele>652.13</ele>
        <time>2018-09-21T17:16:44Z</time>
      </trkpt>
      <trkpt lat="44.72264" lon="4.51153">
        <ele>652.85</ele>
        <time>2018-09-21T17:16:45Z</time>
      </trkpt>
      <trkpt lat="44.72261" lon="4.51127">
        <ele>653.76</ele>
        <time>2018-09-21T17:16:46Z</time>
      </trkpt>
      <trkpt lat="44.72256" lon="4.5108">
        <ele>655.03</ele>
        <time>2018-09-21T17:16:48Z</time>
      </trkpt>
      <trkpt lat="44.72262" lon="4.51042">
        <ele>656.55</ele>
        <time>2018-09-21T17:16:50Z</time>
      </trkpt>
      <trkpt lat="44.72284" lon="4.51005">
        <ele>656.4</ele>
        <time>2018-09-21T17:16:52Z</time>
      </trkpt>
      <trkpt lat="44.72329" lon="4.50985">
        <ele>656.88</ele>
        <time>2018-09-21T17:16:54Z</time>
      </trkpt>
      <trkpt lat="44.72347" lon="4.5097">
        <ele>658.47</ele>
        <time>2018-09-21T17:16:55Z</time>
      </trkpt>
      <trkpt lat="44.72373" lon="4.50945">
        <ele>659.8</ele>
        <time>2018-09-21T17:16:57Z</time>
      </trkpt>
      <trkpt lat="44.72398" lon="4.50932">
        <ele>660.12</ele>
        <time>2018-09-21T17:16:59Z</time>
      </trkpt>
      <trkpt lat="44.72415" lon="4.50959">
        <ele>660.15</ele>
        <time>2018-09-21T17:17:00Z</time>
      </trkpt>
      <trkpt lat="44.72446" lon="4.50984">
        <ele>660.16</ele>
        <time>2018-09-21T17:17:02Z</time>
      </trkpt>
      <trkpt lat="44.72475" lon="4.50994">
        <ele>660.16</ele>
        <time>2018-09-21T17:17:04Z</time>
      </trkpt>
      <trkpt lat="44.72509" lon="4.50979">
        <ele>660.37</ele>
        <time>2018-09-21T17:17:06Z</time>
      </trkpt>
      <trkpt lat="44.72523" lon="4.50958">
        <ele>661.62</ele>
        <time>2018-09-21T17:17:07Z</time>
      </trkpt>
      <trkpt lat="44.7254" lon="4.50935">
        <ele>662.7</ele>
        <time>2018-09-21T17:17:08Z</time>
      </trkpt>
      <trkpt lat="44.72556" lon="4.5092">
        <ele>663.02</ele>
        <time>2018-09-21T17:17:09Z</time>
      </trkpt>
      <trkpt lat="44.72575" lon="4.50912">
        <ele>662.42</ele>
        <time>2018-09-21T17:17:10Z</time>
      </trkpt>
      <trkpt lat="44.72595" lon="4.50909">
        <ele>662.93</ele>
        <time>2018-09-21T17:17:11Z</time>
      </trkpt>
      <trkpt lat="44.72615" lon="4.50912">
        <ele>663.79</ele>
        <time>2018-09-21T17:17:12Z</time>
      </trkpt>
      <trkpt lat="44.72635" lon="4.50908">
        <ele>665.45</ele>
        <time>2018-09-21T17:17:13Z</time>
      </trkpt>
      <trkpt lat="44.72655" lon="4.50898">
        <ele>667.34</ele>
        <time>2018-09-21T17:17:14Z</time>
      </trkpt>
      <trkpt lat="44.7268" lon="4.50887">
        <ele>668.61</ele>
        <time>2018-09-21T17:17:15Z</time>
      </trkpt>
      <trkpt lat="44.72703" lon="4.50881">
        <ele>670.39</ele>
        <time>2018-09-21T17:17:16Z</time>
      </trkpt>
      <trkpt lat="44.72726" lon="4.50874">
        <ele>670.93</ele>
        <time>2018-09-21T17:17:17Z</time>
      </trkpt>
      <trkpt lat="44.72746" lon="4.50871">
        <ele>671.09</ele>
        <time>2018-09-21T17:17:18Z</time>
      </trkpt>
      <trkpt lat="44.72766" lon="4.50869">
        <ele>671.84</ele>
        <time>2018-09-21T17:17:19Z</time>
      </trkpt>
      <trkpt lat="44.72794" lon="4.50852">
        <ele>673.53</ele>
        <time>2018-09-21T17:17:21Z</time>
      </trkpt>
      <trkpt lat="44.72819" lon="4.50822">
        <ele>675.5</ele>
        <time>2018-09-21T17:17:23Z</time>
      </trkpt>
      <trkpt lat="44.72837" lon="4.50775">
        <ele>675.19</ele>
        <time>2018-09-21T17:17:25Z</time>
      </trkpt>
      <trkpt lat="44.72842" lon="4.50746">
        <ele>675.87</ele>
        <time>2018-09-21T17:17:26Z</time>
      </trkpt>
      <trkpt lat="44.72841" lon="4.50711">
        <ele>676.07</ele>
        <time>2018-09-21T17:17:27Z</time>
      </trkpt>
      <trkpt lat="44.72838" lon="4.50677">
        <ele>676.83</ele>
        <time>2018-09-21T17:17:28Z</time>
      </trkpt>
      <trkpt lat="44.72836" lon="4.50649">
        <ele>677.06</ele>
        <time>2018-09-21T17:17:29Z</time>
      </trkpt>
      <trkpt lat="44.72834" lon="4.50622">
        <ele>677.83</ele>
        <time>2018-09-21T17:17:30Z</time>
      </trkpt>
      <trkpt lat="44.72841" lon="4.50593">
        <ele>678.76</ele>
        <time>2018-09-21T17:17:31Z</time>
      </trkpt>
      <trkpt lat="44.72849" lon="4.50566">
        <ele>680.44</ele>
        <time>2018-09-21T17:17:32Z</time>
      </trkpt>
      <trkpt lat="44.72858" lon="4.50538">
        <ele>682.34</ele>
        <time>2018-09-21T17:17:33Z</time>
      </trkpt>
      <trkpt lat="44.72866" lon="4.50511">
        <ele>682.91</ele>
        <time>2018-09-21T17:17:34Z</time>
      </trkpt>
      <trkpt lat="44.7287" lon="4.50486">
        <ele>684.48</ele>
        <time>2018-09-21T17:17:35Z</time>
      </trkpt>
      <trkpt lat="44.72872" lon="4.50437">
        <ele>686.01</ele>
        <time>2018-09-21T17:17:37Z</time>
      </trkpt>
      <trkpt lat="44.7287" lon="4.5041">
        <ele>686.11</ele>
        <time>2018-09-21T17:17:38Z</time>
      </trkpt>
      <trkpt lat="44.7286" lon="4.50378">
        <ele>686.84</ele>
        <time>2018-09-21T17:17:39Z</time>
      </trkpt>
      <trkpt lat="44.72852" lon="4.50345">
        <ele>687.06</ele>
        <time>2018-09-21T17:17:40Z</time>
      </trkpt>
      <trkpt lat="44.72836" lon="4.50297">
        <ele>687.13</ele>
        <time>2018-09-21T17:17:41Z</time>
      </trkpt>
      <trkpt lat="44.72824" lon="4.50258">
        <ele>687.15</ele>
        <time>2018-09-21T17:17:42Z</time>
      </trkpt>
      <trkpt lat="44.72814" lon="4.5022">
        <ele>688.55</ele>
        <time>2018-09-21T17:17:43Z</time>
      </trkpt>
      <trkpt lat="44.72803" lon="4.50183">
        <ele>690.38</ele>
        <time>2018-09-21T17:17:44Z</time>
      </trkpt>
      <trkpt lat="44.72793" lon="4.50145">
        <ele>691.62</ele>
        <time>2018-09-21T17:17:45Z</time>
      </trkpt>
      <trkpt lat="44.72782" lon="4.50107">
        <ele>692</ele>
        <time>2018-09-21T17:17:46Z</time>
      </trkpt>
      <trkpt lat="44.72772" lon="4.50071">
        <ele>692.11</ele>
        <time>2018-09-21T17:17:47Z</time>
      </trkpt>
      <trkpt lat="44.72762" lon="4.50034">
        <ele>692.84</ele>
        <time>2018-09-21T17:17:48Z</time>
      </trkpt>
      <trkpt lat="44.7275" lon="4.5">
        <ele>695.16</ele>
        <time>2018-09-21T17:17:49Z</time>
      </trkpt>
      <trkpt lat="44.72738" lon="4.49966">
        <ele>697.26</ele>
        <time>2018-09-21T17:17:50Z</time>
      </trkpt>
      <trkpt lat="44.72726" lon="4.49932">
        <ele>698.59</ele>
        <time>2018-09-21T17:17:51Z</time>
      </trkpt>
      <trkpt lat="44.72715" lon="4.49897">
        <ele>699.69</ele>
        <time>2018-09-21T17:17:52Z</time>
      </trkpt>
      <trkpt lat="44.72704" lon="4.49865">
        <ele>700.72</ele>
        <time>2018-09-21T17:17:53Z</time>
      </trkpt>
      <trkpt lat="44.72692" lon="4.49834">
        <ele>703.82</ele>
        <time>2018-09-21T17:17:54Z</time>
      </trkpt>
      <trkpt lat="44.72682" lon="4.49801">
        <ele>705.46</ele>
        <time>2018-09-21T17:17:55Z</time>
      </trkpt>
      <trkpt lat="44.72672" lon="4.49769">
        <ele>706.65</ele>
        <time>2018-09-21T17:17:56Z</time>
      </trkpt>
      <trkpt lat="44.72663" lon="4.49736">
        <ele>707</ele>
        <time>2018-09-21T17:17:57Z</time>
      </trkpt>
      <trkpt lat="44.72653" lon="4.49706">
        <ele>708.51</ele>
        <time>2018-09-21T17:17:58Z</time>
      </trkpt>
      <trkpt lat="44.72643" lon="4.49678">
        <ele>711.06</ele>
        <time>2018-09-21T17:17:59Z</time>
      </trkpt>
      <trkpt lat="44.72633" lon="4.49652">
        <ele>712.53</ele>
        <time>2018-09-21T17:18:00Z</time>
      </trkpt>
      <trkpt lat="44.72621" lon="4.4963">
        <ele>712.97</ele>
        <time>2018-09-21T17:18:01Z</time>
      </trkpt>
      <trkpt lat="44.72606" lon="4.49611">
        <ele>713.1</ele>
        <time>2018-09-21T17:18:02Z</time>
      </trkpt>
      <trkpt lat="44.72593" lon="4.4959">
        <ele>714.54</ele>
        <time>2018-09-21T17:18:03Z</time>
      </trkpt>
      <trkpt lat="44.72571" lon="4.49578">
        <ele>714.97</ele>
        <time>2018-09-21T17:18:04Z</time>
      </trkpt>
      <trkpt lat="44.7255" lon="4.49567">
        <ele>715.8</ele>
        <time>2018-09-21T17:18:05Z</time>
      </trkpt>
      <trkpt lat="44.72529" lon="4.49554">
        <ele>716.05</ele>
        <time>2018-09-21T17:18:06Z</time>
      </trkpt>
      <trkpt lat="44.72508" lon="4.49541">
        <ele>715.42</ele>
        <time>2018-09-21T17:18:07Z</time>
      </trkpt>
      <trkpt lat="44.72487" lon="4.49528">
        <ele>715.24</ele>
        <time>2018-09-21T17:18:08Z</time>
      </trkpt>
      <trkpt lat="44.72464" lon="4.49516">
        <ele>714.48</ele>
        <time>2018-09-21T17:18:09Z</time>
      </trkpt>
      <trkpt lat="44.72443" lon="4.49502">
        <ele>714.95</ele>
        <time>2018-09-21T17:18:10Z</time>
      </trkpt>
      <trkpt lat="44.72411" lon="4.49506">
        <ele>716.5</ele>
        <time>2018-09-21T17:18:11Z</time>
      </trkpt>
      <trkpt lat="44.72386" lon="4.49504">
        <ele>716.96</ele>
        <time>2018-09-21T17:18:12Z</time>
      </trkpt>
      <trkpt lat="44.72362" lon="4.49507">
        <ele>717.8</ele>
        <time>2018-09-21T17:18:13Z</time>
      </trkpt>
      <trkpt lat="44.72338" lon="4.49512">
        <ele>719.45</ele>
        <time>2018-09-21T17:18:14Z</time>
      </trkpt>
      <trkpt lat="44.72314" lon="4.49517">
        <ele>720.64</ele>
        <time>2018-09-21T17:18:15Z</time>
      </trkpt>
      <trkpt lat="44.72293" lon="4.49522">
        <ele>721.7</ele>
        <time>2018-09-21T17:18:16Z</time>
      </trkpt>
      <trkpt lat="44.72272" lon="4.49528">
        <ele>722.02</ele>
        <time>2018-09-21T17:18:17Z</time>
      </trkpt>
      <trkpt lat="44.72251" lon="4.49531">
        <ele>722.12</ele>
        <time>2018-09-21T17:18:18Z</time>
      </trkpt>
      <trkpt lat="44.72221" lon="4.49522">
        <ele>723.76</ele>
        <time>2018-09-21T17:18:20Z</time>
      </trkpt>
      <trkpt lat="44.72203" lon="4.49509">
        <ele>724.74</ele>
        <time>2018-09-21T17:18:21Z</time>
      </trkpt>
      <trkpt lat="44.72185" lon="4.49501">
        <ele>725.73</ele>
        <time>2018-09-21T17:18:22Z</time>
      </trkpt>
      <trkpt lat="44.72166" lon="4.49491">
        <ele>726.73</ele>
        <time>2018-09-21T17:18:23Z</time>
      </trkpt>
      <trkpt lat="44.72144" lon="4.49487">
        <ele>728.43</ele>
        <time>2018-09-21T17:18:24Z</time>
      </trkpt>
      <trkpt lat="44.72125" lon="4.49485">
        <ele>729.64</ele>
        <time>2018-09-21T17:18:25Z</time>
      </trkpt>
      <trkpt lat="44.72105" lon="4.49494">
        <ele>733.5</ele>
        <time>2018-09-21T17:18:26Z</time>
      </trkpt>
      <trkpt lat="44.72085" lon="4.49497">
        <ele>736.76</ele>
        <time>2018-09-21T17:18:27Z</time>
      </trkpt>
      <trkpt lat="44.72064" lon="4.49499">
        <ele>739.14</ele>
        <time>2018-09-21T17:18:28Z</time>
      </trkpt>
      <trkpt lat="44.72045" lon="4.49497">
        <ele>740.55</ele>
        <time>2018-09-21T17:18:29Z</time>
      </trkpt>
      <trkpt lat="44.72026" lon="4.49491">
        <ele>742.38</ele>
        <time>2018-09-21T17:18:30Z</time>
      </trkpt>
      <trkpt lat="44.72009" lon="4.49474">
        <ele>742.92</ele>
        <time>2018-09-21T17:18:31Z</time>
      </trkpt>
      <trkpt lat="44.71992" lon="4.49452">
        <ele>743.79</ele>
        <time>2018-09-21T17:18:32Z</time>
      </trkpt>
      <trkpt lat="44.71976" lon="4.49433">
        <ele>745.45</ele>
        <time>2018-09-21T17:18:33Z</time>
      </trkpt>
      <trkpt lat="44.71963" lon="4.49409">
        <ele>748.04</ele>
        <time>2018-09-21T17:18:34Z</time>
      </trkpt>
      <trkpt lat="44.71954" lon="4.49383">
        <ele>750.22</ele>
        <time>2018-09-21T17:18:35Z</time>
      </trkpt>
      <trkpt lat="44.71945" lon="4.49348">
        <ele>752.28</ele>
        <time>2018-09-21T17:18:36Z</time>
      </trkpt>
      <trkpt lat="44.71933" lon="4.49325">
        <ele>754.29</ele>
        <time>2018-09-21T17:18:37Z</time>
      </trkpt>
      <trkpt lat="44.71906" lon="4.49297">
        <ele>755.08</ele>
        <time>2018-09-21T17:18:39Z</time>
      </trkpt>
      <trkpt lat="44.71875" lon="4.4928">
        <ele>758.16</ele>
        <time>2018-09-21T17:18:41Z</time>
      </trkpt>
      <trkpt lat="44.71853" lon="4.49275">
        <ele>759.98</ele>
        <time>2018-09-21T17:18:43Z</time>
      </trkpt>
      <trkpt lat="44.71838" lon="4.4929">
        <ele>771.7</ele>
        <time>2018-09-21T17:18:52Z</time>
      </trkpt>
      <trkpt lat="44.71819" lon="4.49284">
        <ele>782.34</ele>
        <time>2018-09-21T17:30:33Z</time>
      </trkpt>
      <trkpt lat="44.71796" lon="4.49281">
        <ele>782.17</ele>
        <time>2018-09-21T17:30:35Z</time>
      </trkpt>
      <trkpt lat="44.71765" lon="4.49282">
        <ele>780.55</ele>
        <time>2018-09-21T17:30:37Z</time>
      </trkpt>
      <trkpt lat="44.71744" lon="4.49268">
        <ele>779.49</ele>
        <time>2018-09-21T17:30:39Z</time>
      </trkpt>
      <trkpt lat="44.71735" lon="4.49236">
        <ele>778</ele>
        <time>2018-09-21T17:30:41Z</time>
      </trkpt>
      <trkpt lat="44.71727" lon="4.49196">
        <ele>776.53</ele>
        <time>2018-09-21T17:30:43Z</time>
      </trkpt>
      <trkpt lat="44.7172" lon="4.49152">
        <ele>775.49</ele>
        <time>2018-09-21T17:30:45Z</time>
      </trkpt>
      <trkpt lat="44.71713" lon="4.49109">
        <ele>775.89</ele>
        <time>2018-09-21T17:30:47Z</time>
      </trkpt>
      <trkpt lat="44.71706" lon="4.49065">
        <ele>774.31</ele>
        <time>2018-09-21T17:30:49Z</time>
      </trkpt>
      <trkpt lat="44.71697" lon="4.49025">
        <ele>773.47</ele>
        <time>2018-09-21T17:30:51Z</time>
      </trkpt>
      <trkpt lat="44.71692" lon="4.48985">
        <ele>772.7</ele>
        <time>2018-09-21T17:30:53Z</time>
      </trkpt>
      <trkpt lat="44.71685" lon="4.48942">
        <ele>771.51</ele>
        <time>2018-09-21T17:30:55Z</time>
      </trkpt>
      <trkpt lat="44.7168" lon="4.48899">
        <ele>771.19</ele>
        <time>2018-09-21T17:30:57Z</time>
      </trkpt>
      <trkpt lat="44.71679" lon="4.4886">
        <ele>769.55</ele>
        <time>2018-09-21T17:30:59Z</time>
      </trkpt>
      <trkpt lat="44.71686" lon="4.48831">
        <ele>765.76</ele>
        <time>2018-09-21T17:31:01Z</time>
      </trkpt>
      <trkpt lat="44.71694" lon="4.48799">
        <ele>760.56</ele>
        <time>2018-09-21T17:31:04Z</time>
      </trkpt>
      <trkpt lat="44.71683" lon="4.48774">
        <ele>757.37</ele>
        <time>2018-09-21T17:31:07Z</time>
      </trkpt>
      <trkpt lat="44.71665" lon="4.48776">
        <ele>757.16</ele>
        <time>2018-09-21T17:31:10Z</time>
      </trkpt>
      <trkpt lat="44.71634" lon="4.48793">
        <ele>756.25</ele>
        <time>2018-09-21T17:31:12Z</time>
      </trkpt>
      <trkpt lat="44.71608" lon="4.48795">
        <ele>755.47</ele>
        <time>2018-09-21T17:31:14Z</time>
      </trkpt>
      <trkpt lat="44.71582" lon="4.48765">
        <ele>754.27</ele>
        <time>2018-09-21T17:31:16Z</time>
      </trkpt>
      <trkpt lat="44.71574" lon="4.48733">
        <ele>752.79</ele>
        <time>2018-09-21T17:31:17Z</time>
      </trkpt>
      <trkpt lat="44.71557" lon="4.48705">
        <ele>751.51</ele>
        <time>2018-09-21T17:31:19Z</time>
      </trkpt>
      <trkpt lat="44.71543" lon="4.48688">
        <ele>748.88</ele>
        <time>2018-09-21T17:31:21Z</time>
      </trkpt>
      <trkpt lat="44.71521" lon="4.4869">
        <ele>746.23</ele>
        <time>2018-09-21T17:31:24Z</time>
      </trkpt>
      <trkpt lat="44.71511" lon="4.48715">
        <ele>742.88</ele>
        <time>2018-09-21T17:31:27Z</time>
      </trkpt>
      <trkpt lat="44.71529" lon="4.48747">
        <ele>741.67</ele>
        <time>2018-09-21T17:31:28Z</time>
      </trkpt>
      <trkpt lat="44.71539" lon="4.4877">
        <ele>740.61</ele>
        <time>2018-09-21T17:31:29Z</time>
      </trkpt>
      <trkpt lat="44.71549" lon="4.48794">
        <ele>739.59</ele>
        <time>2018-09-21T17:31:30Z</time>
      </trkpt>
      <trkpt lat="44.71559" lon="4.48817">
        <ele>737.89</ele>
        <time>2018-09-21T17:31:31Z</time>
      </trkpt>
      <trkpt lat="44.71578" lon="4.48859">
        <ele>735.61</ele>
        <time>2018-09-21T17:31:33Z</time>
      </trkpt>
      <trkpt lat="44.71586" lon="4.489">
        <ele>734.29</ele>
        <time>2018-09-21T17:31:35Z</time>
      </trkpt>
      <trkpt lat="44.71577" lon="4.48952">
        <ele>732.56</ele>
        <time>2018-09-21T17:31:37Z</time>
      </trkpt>
      <trkpt lat="44.71572" lon="4.48977">
        <ele>731.58</ele>
        <time>2018-09-21T17:31:38Z</time>
      </trkpt>
      <trkpt lat="44.71558" lon="4.49016">
        <ele>728.18</ele>
        <time>2018-09-21T17:31:40Z</time>
      </trkpt>
      <trkpt lat="44.71536" lon="4.49036">
        <ele>725.64</ele>
        <time>2018-09-21T17:31:42Z</time>
      </trkpt>
      <trkpt lat="44.71512" lon="4.49041">
        <ele>724.5</ele>
        <time>2018-09-21T17:31:44Z</time>
      </trkpt>
      <trkpt lat="44.71488" lon="4.49004">
        <ele>722.86</ele>
        <time>2018-09-21T17:31:45Z</time>
      </trkpt>
      <trkpt lat="44.71469" lon="4.48987">
        <ele>721.67</ele>
        <time>2018-09-21T17:31:46Z</time>
      </trkpt>
      <trkpt lat="44.71448" lon="4.48977">
        <ele>719.91</ele>
        <time>2018-09-21T17:31:47Z</time>
      </trkpt>
      <trkpt lat="44.71428" lon="4.4897">
        <ele>717.98</ele>
        <time>2018-09-21T17:31:48Z</time>
      </trkpt>
      <trkpt lat="44.71408" lon="4.48963">
        <ele>716.7</ele>
        <time>2018-09-21T17:31:49Z</time>
      </trkpt>
      <trkpt lat="44.71384" lon="4.4897">
        <ele>716.32</ele>
        <time>2018-09-21T17:31:50Z</time>
      </trkpt>
      <trkpt lat="44.7136" lon="4.48973">
        <ele>715.51</ele>
        <time>2018-09-21T17:31:51Z</time>
      </trkpt>
      <trkpt lat="44.71336" lon="4.48976">
        <ele>714.56</ele>
        <time>2018-09-21T17:31:52Z</time>
      </trkpt>
      <trkpt lat="44.71311" lon="4.48973">
        <ele>713.58</ele>
        <time>2018-09-21T17:31:53Z</time>
      </trkpt>
      <trkpt lat="44.71286" lon="4.48969">
        <ele>711.18</ele>
        <time>2018-09-21T17:31:54Z</time>
      </trkpt>
      <trkpt lat="44.71262" lon="4.48963">
        <ele>709.76</ele>
        <time>2018-09-21T17:31:55Z</time>
      </trkpt>
      <trkpt lat="44.71237" lon="4.48957">
        <ele>707.94</ele>
        <time>2018-09-21T17:31:56Z</time>
      </trkpt>
      <trkpt lat="44.71213" lon="4.48952">
        <ele>705.99</ele>
        <time>2018-09-21T17:31:57Z</time>
      </trkpt>
      <trkpt lat="44.71189" lon="4.48946">
        <ele>704.01</ele>
        <time>2018-09-21T17:31:58Z</time>
      </trkpt>
      <trkpt lat="44.71165" lon="4.48941">
        <ele>702.01</ele>
        <time>2018-09-21T17:31:59Z</time>
      </trkpt>
      <trkpt lat="44.71142" lon="4.48934">
        <ele>700.71</ele>
        <time>2018-09-21T17:32:00Z</time>
      </trkpt>
      <trkpt lat="44.71122" lon="4.48923">
        <ele>698.92</ele>
        <time>2018-09-21T17:32:01Z</time>
      </trkpt>
      <trkpt lat="44.71101" lon="4.48912">
        <ele>697.69</ele>
        <time>2018-09-21T17:32:02Z</time>
      </trkpt>
      <trkpt lat="44.71082" lon="4.48893">
        <ele>696.62</ele>
        <time>2018-09-21T17:32:03Z</time>
      </trkpt>
      <trkpt lat="44.71064" lon="4.48871">
        <ele>695.59</ele>
        <time>2018-09-21T17:32:04Z</time>
      </trkpt>
      <trkpt lat="44.71047" lon="4.48849">
        <ele>693.89</ele>
        <time>2018-09-21T17:32:05Z</time>
      </trkpt>
      <trkpt lat="44.71031" lon="4.48827">
        <ele>692.68</ele>
        <time>2018-09-21T17:32:06Z</time>
      </trkpt>
      <trkpt lat="44.71014" lon="4.48806">
        <ele>690.91</ele>
        <time>2018-09-21T17:32:07Z</time>
      </trkpt>
      <trkpt lat="44.70999" lon="4.48788">
        <ele>689.68</ele>
        <time>2018-09-21T17:32:08Z</time>
      </trkpt>
      <trkpt lat="44.70982" lon="4.48773">
        <ele>687.92</ele>
        <time>2018-09-21T17:32:09Z</time>
      </trkpt>
      <trkpt lat="44.70964" lon="4.48763">
        <ele>686.68</ele>
        <time>2018-09-21T17:32:10Z</time>
      </trkpt>
      <trkpt lat="44.70946" lon="4.48756">
        <ele>684.92</ele>
        <time>2018-09-21T17:32:11Z</time>
      </trkpt>
      <trkpt lat="44.70928" lon="4.4875">
        <ele>684.38</ele>
        <time>2018-09-21T17:32:12Z</time>
      </trkpt>
      <trkpt lat="44.70899" lon="4.48748">
        <ele>681.66</ele>
        <time>2018-09-21T17:32:14Z</time>
      </trkpt>
      <trkpt lat="44.70883" lon="4.48766">
        <ele>680.61</ele>
        <time>2018-09-21T17:32:15Z</time>
      </trkpt>
      <trkpt lat="44.70865" lon="4.48786">
        <ele>678.89</ele>
        <time>2018-09-21T17:32:16Z</time>
      </trkpt>
      <trkpt lat="44.70841" lon="4.4881">
        <ele>676.28</ele>
        <time>2018-09-21T17:32:17Z</time>
      </trkpt>
      <trkpt lat="44.70821" lon="4.48825">
        <ele>674.09</ele>
        <time>2018-09-21T17:32:18Z</time>
      </trkpt>
      <trkpt lat="44.708" lon="4.48836">
        <ele>673.44</ele>
        <time>2018-09-21T17:32:19Z</time>
      </trkpt>
      <trkpt lat="44.70778" lon="4.48843">
        <ele>672.54</ele>
        <time>2018-09-21T17:32:20Z</time>
      </trkpt>
      <trkpt lat="44.70758" lon="4.48849">
        <ele>672.27</ele>
        <time>2018-09-21T17:32:21Z</time>
      </trkpt>
      <trkpt lat="44.70738" lon="4.48852">
        <ele>672.19</ele>
        <time>2018-09-21T17:32:22Z</time>
      </trkpt>
      <trkpt lat="44.7072" lon="4.48854">
        <ele>672.17</ele>
        <time>2018-09-21T17:32:23Z</time>
      </trkpt>
      <trkpt lat="44.70691" lon="4.48838">
        <ele>672.16</ele>
        <time>2018-09-21T17:32:25Z</time>
      </trkpt>
      <trkpt lat="44.70669" lon="4.48788">
        <ele>671.25</ele>
        <time>2018-09-21T17:32:27Z</time>
      </trkpt>
      <trkpt lat="44.70663" lon="4.4876">
        <ele>669.08</ele>
        <time>2018-09-21T17:32:28Z</time>
      </trkpt>
      <trkpt lat="44.70665" lon="4.48724">
        <ele>667.04</ele>
        <time>2018-09-21T17:32:29Z</time>
      </trkpt>
      <trkpt lat="44.70668" lon="4.48686">
        <ele>666.42</ele>
        <time>2018-09-21T17:32:30Z</time>
      </trkpt>
      <trkpt lat="44.70666" lon="4.48653">
        <ele>666.24</ele>
        <time>2018-09-21T17:32:31Z</time>
      </trkpt>
      <trkpt lat="44.70658" lon="4.48627">
        <ele>664.78</ele>
        <time>2018-09-21T17:32:32Z</time>
      </trkpt>
      <trkpt lat="44.70653" lon="4.48598">
        <ele>664.34</ele>
        <time>2018-09-21T17:32:33Z</time>
      </trkpt>
      <trkpt lat="44.70646" lon="4.48571">
        <ele>662.81</ele>
        <time>2018-09-21T17:32:34Z</time>
      </trkpt>
      <trkpt lat="44.70639" lon="4.48544">
        <ele>660.95</ele>
        <time>2018-09-21T17:32:35Z</time>
      </trkpt>
      <trkpt lat="44.70632" lon="4.48518">
        <ele>659.7</ele>
        <time>2018-09-21T17:32:36Z</time>
      </trkpt>
      <trkpt lat="44.70623" lon="4.48491">
        <ele>657.92</ele>
        <time>2018-09-21T17:32:37Z</time>
      </trkpt>
      <trkpt lat="44.70614" lon="4.48469">
        <ele>655.99</ele>
        <time>2018-09-21T17:32:38Z</time>
      </trkpt>
      <trkpt lat="44.70596" lon="4.48437">
        <ele>653.41</ele>
        <time>2018-09-21T17:32:40Z</time>
      </trkpt>
      <trkpt lat="44.70583" lon="4.48416">
        <ele>647.09</ele>
        <time>2018-09-21T17:32:59Z</time>
      </trkpt>
      <trkpt lat="44.70558" lon="4.48392">
        <ele>644.84</ele>
        <time>2018-09-21T17:33:01Z</time>
      </trkpt>
      <trkpt lat="44.70542" lon="4.48378">
        <ele>642.96</ele>
        <time>2018-09-21T17:33:02Z</time>
      </trkpt>
      <trkpt lat="44.70526" lon="4.4836">
        <ele>641</ele>
        <time>2018-09-21T17:33:03Z</time>
      </trkpt>
      <trkpt lat="44.7051" lon="4.48338">
        <ele>639.01</ele>
        <time>2018-09-21T17:33:04Z</time>
      </trkpt>
      <trkpt lat="44.70495" lon="4.48315">
        <ele>637.71</ele>
        <time>2018-09-21T17:33:05Z</time>
      </trkpt>
      <trkpt lat="44.7048" lon="4.48289">
        <ele>636.62</ele>
        <time>2018-09-21T17:33:06Z</time>
      </trkpt>
      <trkpt lat="44.70468" lon="4.48264">
        <ele>634.9</ele>
        <time>2018-09-21T17:33:07Z</time>
      </trkpt>
      <trkpt lat="44.70455" lon="4.48241">
        <ele>632.98</ele>
        <time>2018-09-21T17:33:08Z</time>
      </trkpt>
      <trkpt lat="44.70441" lon="4.48222">
        <ele>630.3</ele>
        <time>2018-09-21T17:33:09Z</time>
      </trkpt>
      <trkpt lat="44.70425" lon="4.48207">
        <ele>628.1</ele>
        <time>2018-09-21T17:33:10Z</time>
      </trkpt>
      <trkpt lat="44.70408" lon="4.48196">
        <ele>626.04</ele>
        <time>2018-09-21T17:33:11Z</time>
      </trkpt>
      <trkpt lat="44.70389" lon="4.48188">
        <ele>624.02</ele>
        <time>2018-09-21T17:33:12Z</time>
      </trkpt>
      <trkpt lat="44.70369" lon="4.48183">
        <ele>622.02</ele>
        <time>2018-09-21T17:33:13Z</time>
      </trkpt>
      <trkpt lat="44.70349" lon="4.4818">
        <ele>621.41</ele>
        <time>2018-09-21T17:33:14Z</time>
      </trkpt>
      <trkpt lat="44.70331" lon="4.48181">
        <ele>620.53</ele>
        <time>2018-09-21T17:33:15Z</time>
      </trkpt>
      <trkpt lat="44.70308" lon="4.48191">
        <ele>618.17</ele>
        <time>2018-09-21T17:33:16Z</time>
      </trkpt>
      <trkpt lat="44.70283" lon="4.48198">
        <ele>616.76</ele>
        <time>2018-09-21T17:33:17Z</time>
      </trkpt>
      <trkpt lat="44.70258" lon="4.48203">
        <ele>614.94</ele>
        <time>2018-09-21T17:33:18Z</time>
      </trkpt>
      <trkpt lat="44.70232" lon="4.48203">
        <ele>614.39</ele>
        <time>2018-09-21T17:33:19Z</time>
      </trkpt>
      <trkpt lat="44.70203" lon="4.48196">
        <ele>613.53</ele>
        <time>2018-09-21T17:33:20Z</time>
      </trkpt>
      <trkpt lat="44.70176" lon="4.48183">
        <ele>613.27</ele>
        <time>2018-09-21T17:33:21Z</time>
      </trkpt>
      <trkpt lat="44.70151" lon="4.48184">
        <ele>611.79</ele>
        <time>2018-09-21T17:33:22Z</time>
      </trkpt>
      <trkpt lat="44.70125" lon="4.4818">
        <ele>611.35</ele>
        <time>2018-09-21T17:33:23Z</time>
      </trkpt>
      <trkpt lat="44.70099" lon="4.48178">
        <ele>610.51</ele>
        <time>2018-09-21T17:33:24Z</time>
      </trkpt>
      <trkpt lat="44.70068" lon="4.48185">
        <ele>609.56</ele>
        <time>2018-09-21T17:33:25Z</time>
      </trkpt>
      <trkpt lat="44.70039" lon="4.4819">
        <ele>608.58</ele>
        <time>2018-09-21T17:33:26Z</time>
      </trkpt>
      <trkpt lat="44.70011" lon="4.48195">
        <ele>606.18</ele>
        <time>2018-09-21T17:33:27Z</time>
      </trkpt>
      <trkpt lat="44.69986" lon="4.48198">
        <ele>604.07</ele>
        <time>2018-09-21T17:33:28Z</time>
      </trkpt>
      <trkpt lat="44.69962" lon="4.48202">
        <ele>602.03</ele>
        <time>2018-09-21T17:33:29Z</time>
      </trkpt>
      <trkpt lat="44.69939" lon="4.48205">
        <ele>600.02</ele>
        <time>2018-09-21T17:33:30Z</time>
      </trkpt>
      <trkpt lat="44.69919" lon="4.48202">
        <ele>598.02</ele>
        <time>2018-09-21T17:33:31Z</time>
      </trkpt>
      <trkpt lat="44.699" lon="4.48196">
        <ele>596.01</ele>
        <time>2018-09-21T17:33:32Z</time>
      </trkpt>
      <trkpt lat="44.69882" lon="4.48179">
        <ele>594.01</ele>
        <time>2018-09-21T17:33:33Z</time>
      </trkpt>
      <trkpt lat="44.69875" lon="4.48149">
        <ele>593.41</ele>
        <time>2018-09-21T17:33:34Z</time>
      </trkpt>
      <trkpt lat="44.69862" lon="4.48125">
        <ele>592.53</ele>
        <time>2018-09-21T17:33:35Z</time>
      </trkpt>
      <trkpt lat="44.69854" lon="4.48093">
        <ele>589.47</ele>
        <time>2018-09-21T17:33:36Z</time>
      </trkpt>
      <trkpt lat="44.69845" lon="4.48049">
        <ele>586.45</ele>
        <time>2018-09-21T17:33:37Z</time>
      </trkpt>
      <trkpt lat="44.69834" lon="4.48015">
        <ele>584.15</ele>
        <time>2018-09-21T17:33:38Z</time>
      </trkpt>
      <trkpt lat="44.6982" lon="4.47978">
        <ele>582.75</ele>
        <time>2018-09-21T17:33:39Z</time>
      </trkpt>
      <trkpt lat="44.69802" lon="4.47942">
        <ele>581.64</ele>
        <time>2018-09-21T17:33:40Z</time>
      </trkpt>
      <trkpt lat="44.69781" lon="4.47915">
        <ele>581.3</ele>
        <time>2018-09-21T17:33:41Z</time>
      </trkpt>
      <trkpt lat="44.69762" lon="4.47883">
        <ele>579.8</ele>
        <time>2018-09-21T17:33:42Z</time>
      </trkpt>
      <trkpt lat="44.69745" lon="4.47858">
        <ele>577.95</ele>
        <time>2018-09-21T17:33:43Z</time>
      </trkpt>
      <trkpt lat="44.69728" lon="4.47834">
        <ele>576.69</ele>
        <time>2018-09-21T17:33:44Z</time>
      </trkpt>
      <trkpt lat="44.6971" lon="4.47813">
        <ele>575.62</ele>
        <time>2018-09-21T17:33:45Z</time>
      </trkpt>
      <trkpt lat="44.69688" lon="4.4779">
        <ele>573.9</ele>
        <time>2018-09-21T17:33:46Z</time>
      </trkpt>
      <trkpt lat="44.6967" lon="4.47769">
        <ele>572.68</ele>
        <time>2018-09-21T17:33:47Z</time>
      </trkpt>
      <trkpt lat="44.69643" lon="4.47759">
        <ele>573.01</ele>
        <time>2018-09-21T17:33:48Z</time>
      </trkpt>
      <trkpt lat="44.6961" lon="4.47753">
        <ele>573.11</ele>
        <time>2018-09-21T17:33:49Z</time>
      </trkpt>
      <trkpt lat="44.69578" lon="4.47748">
        <ele>571.74</ele>
        <time>2018-09-21T17:33:50Z</time>
      </trkpt>
      <trkpt lat="44.69552" lon="4.47738">
        <ele>569.23</ele>
        <time>2018-09-21T17:33:51Z</time>
      </trkpt>
      <trkpt lat="44.69527" lon="4.47729">
        <ele>566.38</ele>
        <time>2018-09-21T17:33:52Z</time>
      </trkpt>
      <trkpt lat="44.69504" lon="4.47721">
        <ele>564.12</ele>
        <time>2018-09-21T17:33:53Z</time>
      </trkpt>
      <trkpt lat="44.69484" lon="4.47712">
        <ele>559.95</ele>
        <time>2018-09-21T17:33:54Z</time>
      </trkpt>
      <trkpt lat="44.69466" lon="4.47703">
        <ele>557.29</ele>
        <time>2018-09-21T17:33:55Z</time>
      </trkpt>
      <trkpt lat="44.69448" lon="4.4769">
        <ele>555.8</ele>
        <time>2018-09-21T17:33:56Z</time>
      </trkpt>
      <trkpt lat="44.69434" lon="4.4767">
        <ele>555.35</ele>
        <time>2018-09-21T17:33:57Z</time>
      </trkpt>
      <trkpt lat="44.6942" lon="4.47647">
        <ele>553.81</ele>
        <time>2018-09-21T17:33:58Z</time>
      </trkpt>
      <trkpt lat="44.69405" lon="4.47625">
        <ele>553.35</ele>
        <time>2018-09-21T17:33:59Z</time>
      </trkpt>
      <trkpt lat="44.69388" lon="4.476">
        <ele>553.22</ele>
        <time>2018-09-21T17:34:00Z</time>
      </trkpt>
      <trkpt lat="44.69373" lon="4.47572">
        <ele>553.87</ele>
        <time>2018-09-21T17:34:01Z</time>
      </trkpt>
      <trkpt lat="44.69359" lon="4.47551">
        <ele>552.67</ele>
        <time>2018-09-21T17:34:02Z</time>
      </trkpt>
      <trkpt lat="44.69344" lon="4.47529">
        <ele>550.91</ele>
        <time>2018-09-21T17:34:03Z</time>
      </trkpt>
      <trkpt lat="44.69324" lon="4.47513">
        <ele>548.28</ele>
        <time>2018-09-21T17:34:04Z</time>
      </trkpt>
      <trkpt lat="44.69305" lon="4.47496">
        <ele>546.79</ele>
        <time>2018-09-21T17:34:05Z</time>
      </trkpt>
      <trkpt lat="44.69285" lon="4.4748">
        <ele>546.35</ele>
        <time>2018-09-21T17:34:06Z</time>
      </trkpt>
      <trkpt lat="44.69267" lon="4.47468">
        <ele>544.81</ele>
        <time>2018-09-21T17:34:07Z</time>
      </trkpt>
      <trkpt lat="44.69248" lon="4.47463">
        <ele>544.35</ele>
        <time>2018-09-21T17:34:08Z</time>
      </trkpt>
      <trkpt lat="44.69227" lon="4.47453">
        <ele>542.82</ele>
        <time>2018-09-21T17:34:09Z</time>
      </trkpt>
      <trkpt lat="44.69213" lon="4.47434">
        <ele>540.25</ele>
        <time>2018-09-21T17:34:10Z</time>
      </trkpt>
      <trkpt lat="44.69209" lon="4.47404">
        <ele>539.49</ele>
        <time>2018-09-21T17:34:11Z</time>
      </trkpt>
      <trkpt lat="44.69202" lon="4.47376">
        <ele>538.56</ele>
        <time>2018-09-21T17:34:12Z</time>
      </trkpt>
      <trkpt lat="44.69202" lon="4.47347">
        <ele>538.98</ele>
        <time>2018-09-21T17:34:13Z</time>
      </trkpt>
      <trkpt lat="44.69198" lon="4.47319">
        <ele>538.4</ele>
        <time>2018-09-21T17:34:14Z</time>
      </trkpt>
      <trkpt lat="44.69192" lon="4.47295">
        <ele>537.53</ele>
        <time>2018-09-21T17:34:15Z</time>
      </trkpt>
      <trkpt lat="44.69177" lon="4.47275">
        <ele>535.87</ele>
        <time>2018-09-21T17:34:16Z</time>
      </trkpt>
      <trkpt lat="44.69161" lon="4.47254">
        <ele>533.97</ele>
        <time>2018-09-21T17:34:17Z</time>
      </trkpt>
      <trkpt lat="44.69141" lon="4.47235">
        <ele>532.7</ele>
        <time>2018-09-21T17:34:18Z</time>
      </trkpt>
      <trkpt lat="44.69118" lon="4.47215">
        <ele>530.92</ele>
        <time>2018-09-21T17:34:19Z</time>
      </trkpt>
      <trkpt lat="44.69091" lon="4.47193">
        <ele>529.69</ele>
        <time>2018-09-21T17:34:20Z</time>
      </trkpt>
      <trkpt lat="44.69064" lon="4.4717">
        <ele>528.62</ele>
        <time>2018-09-21T17:34:21Z</time>
      </trkpt>
      <trkpt lat="44.69035" lon="4.47147">
        <ele>526.19</ele>
        <time>2018-09-21T17:34:22Z</time>
      </trkpt>
      <trkpt lat="44.69007" lon="4.47122">
        <ele>524.07</ele>
        <time>2018-09-21T17:34:23Z</time>
      </trkpt>
      <trkpt lat="44.68979" lon="4.47097">
        <ele>522.03</ele>
        <time>2018-09-21T17:34:24Z</time>
      </trkpt>
      <trkpt lat="44.68951" lon="4.47073">
        <ele>520.02</ele>
        <time>2018-09-21T17:34:25Z</time>
      </trkpt>
      <trkpt lat="44.68923" lon="4.47049">
        <ele>518.72</ele>
        <time>2018-09-21T17:34:26Z</time>
      </trkpt>
      <trkpt lat="44.68896" lon="4.47024">
        <ele>516.92</ele>
        <time>2018-09-21T17:34:27Z</time>
      </trkpt>
      <trkpt lat="44.68868" lon="4.47001">
        <ele>514.99</ele>
        <time>2018-09-21T17:34:28Z</time>
      </trkpt>
      <trkpt lat="44.6884" lon="4.46977">
        <ele>513.71</ele>
        <time>2018-09-21T17:34:29Z</time>
      </trkpt>
      <trkpt lat="44.68813" lon="4.46955">
        <ele>511.92</ele>
        <time>2018-09-21T17:34:30Z</time>
      </trkpt>
      <trkpt lat="44.68787" lon="4.46934">
        <ele>510.69</ele>
        <time>2018-09-21T17:34:31Z</time>
      </trkpt>
      <trkpt lat="44.68765" lon="4.46914">
        <ele>509.62</ele>
        <time>2018-09-21T17:34:32Z</time>
      </trkpt>
      <trkpt lat="44.68743" lon="4.46896">
        <ele>508.59</ele>
        <time>2018-09-21T17:34:33Z</time>
      </trkpt>
      <trkpt lat="44.68721" lon="4.46877">
        <ele>507.59</ele>
        <time>2018-09-21T17:34:34Z</time>
      </trkpt>
      <trkpt lat="44.68701" lon="4.46856">
        <ele>507.99</ele>
        <time>2018-09-21T17:34:35Z</time>
      </trkpt>
      <trkpt lat="44.68683" lon="4.46835">
        <ele>508.11</ele>
        <time>2018-09-21T17:34:36Z</time>
      </trkpt>
      <trkpt lat="44.68673" lon="4.46797">
        <ele>506.74</ele>
        <time>2018-09-21T17:34:37Z</time>
      </trkpt>
      <trkpt lat="44.68657" lon="4.46767">
        <ele>505.63</ele>
        <time>2018-09-21T17:34:38Z</time>
      </trkpt>
      <trkpt lat="44.6864" lon="4.46737">
        <ele>503.9</ele>
        <time>2018-09-21T17:34:39Z</time>
      </trkpt>
      <trkpt lat="44.68624" lon="4.46708">
        <ele>501.98</ele>
        <time>2018-09-21T17:34:40Z</time>
      </trkpt>
      <trkpt lat="44.68608" lon="4.4668">
        <ele>500</ele>
        <time>2018-09-21T17:34:41Z</time>
      </trkpt>
      <trkpt lat="44.6859" lon="4.46654">
        <ele>498.71</ele>
        <time>2018-09-21T17:34:42Z</time>
      </trkpt>
      <trkpt lat="44.68571" lon="4.46629">
        <ele>496.92</ele>
        <time>2018-09-21T17:34:43Z</time>
      </trkpt>
      <trkpt lat="44.6855" lon="4.46606">
        <ele>496.39</ele>
        <time>2018-09-21T17:34:44Z</time>
      </trkpt>
      <trkpt lat="44.68529" lon="4.46586">
        <ele>495.53</ele>
        <time>2018-09-21T17:34:45Z</time>
      </trkpt>
      <trkpt lat="44.68508" lon="4.46565">
        <ele>493.17</ele>
        <time>2018-09-21T17:34:46Z</time>
      </trkpt>
      <trkpt lat="44.68484" lon="4.46547">
        <ele>492.46</ele>
        <time>2018-09-21T17:34:47Z</time>
      </trkpt>
      <trkpt lat="44.68461" lon="4.46529">
        <ele>490.15</ele>
        <time>2018-09-21T17:34:48Z</time>
      </trkpt>
      <trkpt lat="44.68437" lon="4.46511">
        <ele>488.05</ele>
        <time>2018-09-21T17:34:49Z</time>
      </trkpt>
      <trkpt lat="44.68414" lon="4.46492">
        <ele>486.03</ele>
        <time>2018-09-21T17:34:50Z</time>
      </trkpt>
      <trkpt lat="44.68391" lon="4.46473">
        <ele>484.02</ele>
        <time>2018-09-21T17:34:51Z</time>
      </trkpt>
      <trkpt lat="44.68368" lon="4.46456">
        <ele>482.02</ele>
        <time>2018-09-21T17:34:52Z</time>
      </trkpt>
      <trkpt lat="44.68346" lon="4.46439">
        <ele>481.41</ele>
        <time>2018-09-21T17:34:53Z</time>
      </trkpt>
      <trkpt lat="44.68324" lon="4.46422">
        <ele>479.13</ele>
        <time>2018-09-21T17:34:54Z</time>
      </trkpt>
      <trkpt lat="44.68302" lon="4.46405">
        <ele>477.05</ele>
        <time>2018-09-21T17:34:55Z</time>
      </trkpt>
      <trkpt lat="44.68287" lon="4.46384">
        <ele>474.32</ele>
        <time>2018-09-21T17:34:56Z</time>
      </trkpt>
      <trkpt lat="44.68276" lon="4.46364">
        <ele>472.11</ele>
        <time>2018-09-21T17:34:57Z</time>
      </trkpt>
      <trkpt lat="44.68259" lon="4.4632">
        <ele>469.63</ele>
        <time>2018-09-21T17:34:59Z</time>
      </trkpt>
      <trkpt lat="44.68256" lon="4.46291">
        <ele>468.6</ele>
        <time>2018-09-21T17:35:00Z</time>
      </trkpt>
      <trkpt lat="44.68267" lon="4.46241">
        <ele>468.41</ele>
        <time>2018-09-21T17:35:02Z</time>
      </trkpt>
      <trkpt lat="44.68267" lon="4.46194">
        <ele>465.38</ele>
        <time>2018-09-21T17:35:04Z</time>
      </trkpt>
      <trkpt lat="44.68262" lon="4.46168">
        <ele>464.52</ele>
        <time>2018-09-21T17:35:05Z</time>
      </trkpt>
      <trkpt lat="44.68244" lon="4.46127">
        <ele>462.37</ele>
        <time>2018-09-21T17:35:07Z</time>
      </trkpt>
      <trkpt lat="44.68209" lon="4.46128">
        <ele>460.82</ele>
        <time>2018-09-21T17:35:08Z</time>
      </trkpt>
      <trkpt lat="44.68179" lon="4.46124">
        <ele>458.96</ele>
        <time>2018-09-21T17:35:09Z</time>
      </trkpt>
      <trkpt lat="44.68158" lon="4.46112">
        <ele>457.7</ele>
        <time>2018-09-21T17:35:10Z</time>
      </trkpt>
      <trkpt lat="44.68138" lon="4.46105">
        <ele>455.22</ele>
        <time>2018-09-21T17:35:11Z</time>
      </trkpt>
      <trkpt lat="44.68119" lon="4.461">
        <ele>454.48</ele>
        <time>2018-09-21T17:35:12Z</time>
      </trkpt>
      <trkpt lat="44.68099" lon="4.46096">
        <ele>453.55</ele>
        <time>2018-09-21T17:35:13Z</time>
      </trkpt>
      <trkpt lat="44.6808" lon="4.46094">
        <ele>451.88</ele>
        <time>2018-09-21T17:35:14Z</time>
      </trkpt>
      <trkpt lat="44.68054" lon="4.46107">
        <ele>449.97</ele>
        <time>2018-09-21T17:35:15Z</time>
      </trkpt>
      <trkpt lat="44.68033" lon="4.46111">
        <ele>448</ele>
        <time>2018-09-21T17:35:16Z</time>
      </trkpt>
      <trkpt lat="44.6801" lon="4.46115">
        <ele>446.71</ele>
        <time>2018-09-21T17:35:17Z</time>
      </trkpt>
      <trkpt lat="44.67987" lon="4.46112">
        <ele>445.62</ele>
        <time>2018-09-21T17:35:18Z</time>
      </trkpt>
      <trkpt lat="44.67964" lon="4.46107">
        <ele>443.2</ele>
        <time>2018-09-21T17:35:19Z</time>
      </trkpt>
      <trkpt lat="44.67941" lon="4.46101">
        <ele>441.77</ele>
        <time>2018-09-21T17:35:20Z</time>
      </trkpt>
      <trkpt lat="44.67917" lon="4.46099">
        <ele>439.94</ele>
        <time>2018-09-21T17:35:21Z</time>
      </trkpt>
      <trkpt lat="44.67893" lon="4.46096">
        <ele>437.99</ele>
        <time>2018-09-21T17:35:22Z</time>
      </trkpt>
      <trkpt lat="44.67868" lon="4.46095">
        <ele>436.01</ele>
        <time>2018-09-21T17:35:23Z</time>
      </trkpt>
      <trkpt lat="44.67842" lon="4.46094">
        <ele>434.01</ele>
        <time>2018-09-21T17:35:24Z</time>
      </trkpt>
      <trkpt lat="44.67816" lon="4.46095">
        <ele>432.01</ele>
        <time>2018-09-21T17:35:25Z</time>
      </trkpt>
      <trkpt lat="44.67791" lon="4.46093">
        <ele>429.31</ele>
        <time>2018-09-21T17:35:26Z</time>
      </trkpt>
      <trkpt lat="44.67765" lon="4.46091">
        <ele>427.1</ele>
        <time>2018-09-21T17:35:27Z</time>
      </trkpt>
      <trkpt lat="44.67741" lon="4.46082">
        <ele>425.04</ele>
        <time>2018-09-21T17:35:28Z</time>
      </trkpt>
      <trkpt lat="44.67715" lon="4.46074">
        <ele>423.72</ele>
        <time>2018-09-21T17:35:29Z</time>
      </trkpt>
      <trkpt lat="44.67691" lon="4.46061">
        <ele>421.93</ele>
        <time>2018-09-21T17:35:30Z</time>
      </trkpt>
      <trkpt lat="44.67668" lon="4.46048">
        <ele>419.99</ele>
        <time>2018-09-21T17:35:31Z</time>
      </trkpt>
      <trkpt lat="44.67646" lon="4.46039">
        <ele>418.01</ele>
        <time>2018-09-21T17:35:32Z</time>
      </trkpt>
      <trkpt lat="44.67623" lon="4.46034">
        <ele>415.31</ele>
        <time>2018-09-21T17:35:33Z</time>
      </trkpt>
      <trkpt lat="44.676" lon="4.46031">
        <ele>413.8</ele>
        <time>2018-09-21T17:35:34Z</time>
      </trkpt>
      <trkpt lat="44.67576" lon="4.46035">
        <ele>412.65</ele>
        <time>2018-09-21T17:35:35Z</time>
      </trkpt>
      <trkpt lat="44.67552" lon="4.46037">
        <ele>410.91</ele>
        <time>2018-09-21T17:35:36Z</time>
      </trkpt>
      <trkpt lat="44.6753" lon="4.46039">
        <ele>410.38</ele>
        <time>2018-09-21T17:35:37Z</time>
      </trkpt>
      <trkpt lat="44.67508" lon="4.46041">
        <ele>408.82</ele>
        <time>2018-09-21T17:35:38Z</time>
      </trkpt>
      <trkpt lat="44.6749" lon="4.46036">
        <ele>406.26</ele>
        <time>2018-09-21T17:35:39Z</time>
      </trkpt>
      <trkpt lat="44.67473" lon="4.46029">
        <ele>404.09</ele>
        <time>2018-09-21T17:35:40Z</time>
      </trkpt>
      <trkpt lat="44.67456" lon="4.46019">
        <ele>402.04</ele>
        <time>2018-09-21T17:35:41Z</time>
      </trkpt>
      <trkpt lat="44.67427" lon="4.45992">
        <ele>400.33</ele>
        <time>2018-09-21T17:35:43Z</time>
      </trkpt>
      <trkpt lat="44.67405" lon="4.45956">
        <ele>399.47</ele>
        <time>2018-09-21T17:35:45Z</time>
      </trkpt>
      <trkpt lat="44.67381" lon="4.4592">
        <ele>398.49</ele>
        <time>2018-09-21T17:35:47Z</time>
      </trkpt>
      <trkpt lat="44.67353" lon="4.4589">
        <ele>396.58</ele>
        <time>2018-09-21T17:35:49Z</time>
      </trkpt>
      <trkpt lat="44.67337" lon="4.45876">
        <ele>394.88</ele>
        <time>2018-09-21T17:35:50Z</time>
      </trkpt>
      <trkpt lat="44.67319" lon="4.45861">
        <ele>392.97</ele>
        <time>2018-09-21T17:35:51Z</time>
      </trkpt>
      <trkpt lat="44.67299" lon="4.45848">
        <ele>391</ele>
        <time>2018-09-21T17:35:52Z</time>
      </trkpt>
      <trkpt lat="44.67279" lon="4.45835">
        <ele>389.71</ele>
        <time>2018-09-21T17:35:53Z</time>
      </trkpt>
      <trkpt lat="44.67256" lon="4.45823">
        <ele>388.62</ele>
        <time>2018-09-21T17:35:54Z</time>
      </trkpt>
      <trkpt lat="44.67233" lon="4.4581">
        <ele>387.6</ele>
        <time>2018-09-21T17:35:55Z</time>
      </trkpt>
      <trkpt lat="44.67209" lon="4.45796">
        <ele>386.59</ele>
        <time>2018-09-21T17:35:56Z</time>
      </trkpt>
      <trkpt lat="44.67183" lon="4.45779">
        <ele>386.29</ele>
        <time>2018-09-21T17:35:57Z</time>
      </trkpt>
      <trkpt lat="44.67157" lon="4.45761">
        <ele>385.5</ele>
        <time>2018-09-21T17:35:58Z</time>
      </trkpt>
      <trkpt lat="44.67128" lon="4.45743">
        <ele>384.56</ele>
        <time>2018-09-21T17:35:59Z</time>
      </trkpt>
      <trkpt lat="44.671" lon="4.45723">
        <ele>383.58</ele>
        <time>2018-09-21T17:36:00Z</time>
      </trkpt>
      <trkpt lat="44.67074" lon="4.45701">
        <ele>382.58</ele>
        <time>2018-09-21T17:36:01Z</time>
      </trkpt>
      <trkpt lat="44.67048" lon="4.4568">
        <ele>381.58</ele>
        <time>2018-09-21T17:36:02Z</time>
      </trkpt>
      <trkpt lat="44.67024" lon="4.45661">
        <ele>380.59</ele>
        <time>2018-09-21T17:36:03Z</time>
      </trkpt>
      <trkpt lat="44.67003" lon="4.45646">
        <ele>379.59</ele>
        <time>2018-09-21T17:36:04Z</time>
      </trkpt>
      <trkpt lat="44.66971" lon="4.45623">
        <ele>377.59</ele>
        <time>2018-09-21T17:36:06Z</time>
      </trkpt>
      <trkpt lat="44.66954" lon="4.45612">
        <ele>376.59</ele>
        <time>2018-09-21T17:36:07Z</time>
      </trkpt>
      <trkpt lat="44.66936" lon="4.456">
        <ele>375.59</ele>
        <time>2018-09-21T17:36:08Z</time>
      </trkpt>
      <trkpt lat="44.6692" lon="4.45587">
        <ele>374.59</ele>
        <time>2018-09-21T17:36:09Z</time>
      </trkpt>
      <trkpt lat="44.66902" lon="4.45576">
        <ele>373.59</ele>
        <time>2018-09-21T17:36:10Z</time>
      </trkpt>
      <trkpt lat="44.66885" lon="4.45563">
        <ele>371.89</ele>
        <time>2018-09-21T17:36:11Z</time>
      </trkpt>
      <trkpt lat="44.66866" lon="4.4555">
        <ele>369.98</ele>
        <time>2018-09-21T17:36:12Z</time>
      </trkpt>
      <trkpt lat="44.66849" lon="4.45535">
        <ele>368.7</ele>
        <time>2018-09-21T17:36:13Z</time>
      </trkpt>
      <trkpt lat="44.66835" lon="4.45515">
        <ele>366.22</ele>
        <time>2018-09-21T17:36:14Z</time>
      </trkpt>
      <trkpt lat="44.66821" lon="4.45494">
        <ele>364.08</ele>
        <time>2018-09-21T17:36:15Z</time>
      </trkpt>
      <trkpt lat="44.66807" lon="4.45473">
        <ele>362.73</ele>
        <time>2018-09-21T17:36:16Z</time>
      </trkpt>
      <trkpt lat="44.66793" lon="4.45452">
        <ele>360.93</ele>
        <time>2018-09-21T17:36:17Z</time>
      </trkpt>
      <trkpt lat="44.6678" lon="4.45433">
        <ele>358.29</ele>
        <time>2018-09-21T17:36:18Z</time>
      </trkpt>
      <trkpt lat="44.66767" lon="4.45415">
        <ele>356.8</ele>
        <time>2018-09-21T17:36:19Z</time>
      </trkpt>
      <trkpt lat="44.66756" lon="4.45395">
        <ele>353.55</ele>
        <time>2018-09-21T17:36:20Z</time>
      </trkpt>
      <trkpt lat="44.66739" lon="4.45356">
        <ele>352.28</ele>
        <time>2018-09-21T17:36:22Z</time>
      </trkpt>
      <trkpt lat="44.66723" lon="4.45323">
        <ele>346.64</ele>
        <time>2018-09-21T17:36:24Z</time>
      </trkpt>
      <trkpt lat="44.66695" lon="4.45306">
        <ele>342.28</ele>
        <time>2018-09-21T17:36:26Z</time>
      </trkpt>
      <trkpt lat="44.66664" lon="4.45301">
        <ele>340.35</ele>
        <time>2018-09-21T17:36:28Z</time>
      </trkpt>
      <trkpt lat="44.66642" lon="4.45309">
        <ele>338.81</ele>
        <time>2018-09-21T17:36:29Z</time>
      </trkpt>
      <trkpt lat="44.66622" lon="4.45312">
        <ele>337.65</ele>
        <time>2018-09-21T17:36:30Z</time>
      </trkpt>
      <trkpt lat="44.66601" lon="4.45315">
        <ele>336.61</ele>
        <time>2018-09-21T17:36:31Z</time>
      </trkpt>
      <trkpt lat="44.66581" lon="4.45319">
        <ele>335.59</ele>
        <time>2018-09-21T17:36:32Z</time>
      </trkpt>
      <trkpt lat="44.66561" lon="4.45322">
        <ele>334.59</ele>
        <time>2018-09-21T17:36:33Z</time>
      </trkpt>
      <trkpt lat="44.66542" lon="4.45322">
        <ele>333.59</ele>
        <time>2018-09-21T17:36:34Z</time>
      </trkpt>
      <trkpt lat="44.66523" lon="4.4532">
        <ele>333.29</ele>
        <time>2018-09-21T17:36:35Z</time>
      </trkpt>
      <trkpt lat="44.66505" lon="4.45312">
        <ele>331.8</ele>
        <time>2018-09-21T17:36:36Z</time>
      </trkpt>
      <trkpt lat="44.66486" lon="4.45306">
        <ele>331.35</ele>
        <time>2018-09-21T17:36:37Z</time>
      </trkpt>
      <trkpt lat="44.66466" lon="4.45295">
        <ele>330.51</ele>
        <time>2018-09-21T17:36:38Z</time>
      </trkpt>
      <trkpt lat="44.66446" lon="4.45276">
        <ele>328.16</ele>
        <time>2018-09-21T17:36:39Z</time>
      </trkpt>
      <trkpt lat="44.66425" lon="4.45258">
        <ele>326.06</ele>
        <time>2018-09-21T17:36:40Z</time>
      </trkpt>
      <trkpt lat="44.66403" lon="4.45239">
        <ele>324.73</ele>
        <time>2018-09-21T17:36:41Z</time>
      </trkpt>
      <trkpt lat="44.66382" lon="4.4522">
        <ele>323.63</ele>
        <time>2018-09-21T17:36:42Z</time>
      </trkpt>
      <trkpt lat="44.66358" lon="4.452">
        <ele>321.9</ele>
        <time>2018-09-21T17:36:43Z</time>
      </trkpt>
      <trkpt lat="44.66337" lon="4.45181">
        <ele>320.68</ele>
        <time>2018-09-21T17:36:44Z</time>
      </trkpt>
      <trkpt lat="44.66315" lon="4.45162">
        <ele>319.61</ele>
        <time>2018-09-21T17:36:45Z</time>
      </trkpt>
      <trkpt lat="44.66291" lon="4.45143">
        <ele>318.59</ele>
        <time>2018-09-21T17:36:46Z</time>
      </trkpt>
      <trkpt lat="44.6627" lon="4.45123">
        <ele>316.19</ele>
        <time>2018-09-21T17:36:47Z</time>
      </trkpt>
      <trkpt lat="44.66247" lon="4.45104">
        <ele>314.77</ele>
        <time>2018-09-21T17:36:48Z</time>
      </trkpt>
      <trkpt lat="44.66225" lon="4.45086">
        <ele>312.94</ele>
        <time>2018-09-21T17:36:49Z</time>
      </trkpt>
      <trkpt lat="44.66204" lon="4.45067">
        <ele>311.69</ele>
        <time>2018-09-21T17:36:50Z</time>
      </trkpt>
      <trkpt lat="44.66184" lon="4.45048">
        <ele>309.92</ele>
        <time>2018-09-21T17:36:51Z</time>
      </trkpt>
      <trkpt lat="44.66162" lon="4.4503">
        <ele>309.39</ele>
        <time>2018-09-21T17:36:52Z</time>
      </trkpt>
      <trkpt lat="44.66142" lon="4.45014">
        <ele>308.53</ele>
        <time>2018-09-21T17:36:53Z</time>
      </trkpt>
      <trkpt lat="44.66123" lon="4.44996">
        <ele>306.87</ele>
        <time>2018-09-21T17:36:54Z</time>
      </trkpt>
      <trkpt lat="44.66102" lon="4.4498">
        <ele>305.67</ele>
        <time>2018-09-21T17:36:55Z</time>
      </trkpt>
      <trkpt lat="44.66079" lon="4.44968">
        <ele>303.91</ele>
        <time>2018-09-21T17:36:56Z</time>
      </trkpt>
      <trkpt lat="44.66056" lon="4.44959">
        <ele>302.68</ele>
        <time>2018-09-21T17:36:57Z</time>
      </trkpt>
      <trkpt lat="44.66031" lon="4.44953">
        <ele>301.61</ele>
        <time>2018-09-21T17:36:58Z</time>
      </trkpt>
      <trkpt lat="44.66006" lon="4.44947">
        <ele>300.59</ele>
        <time>2018-09-21T17:36:59Z</time>
      </trkpt>
      <trkpt lat="44.65981" lon="4.44944">
        <ele>299.59</ele>
        <time>2018-09-21T17:37:00Z</time>
      </trkpt>
      <trkpt lat="44.65956" lon="4.44941">
        <ele>297.89</ele>
        <time>2018-09-21T17:37:01Z</time>
      </trkpt>
      <trkpt lat="44.65931" lon="4.44938">
        <ele>297.38</ele>
        <time>2018-09-21T17:37:02Z</time>
      </trkpt>
      <trkpt lat="44.65907" lon="4.44935">
        <ele>296.52</ele>
        <time>2018-09-21T17:37:03Z</time>
      </trkpt>
      <trkpt lat="44.65882" lon="4.44929">
        <ele>295.57</ele>
        <time>2018-09-21T17:37:04Z</time>
      </trkpt>
      <trkpt lat="44.65858" lon="4.4492">
        <ele>295.28</ele>
        <time>2018-09-21T17:37:05Z</time>
      </trkpt>
      <trkpt lat="44.65834" lon="4.4491">
        <ele>294.49</ele>
        <time>2018-09-21T17:37:06Z</time>
      </trkpt>
      <trkpt lat="44.6581" lon="4.44898">
        <ele>294.26</ele>
        <time>2018-09-21T17:37:07Z</time>
      </trkpt>
      <trkpt lat="44.65787" lon="4.44878">
        <ele>293.49</ele>
        <time>2018-09-21T17:37:08Z</time>
      </trkpt>
      <trkpt lat="44.65765" lon="4.4486">
        <ele>293.26</ele>
        <time>2018-09-21T17:37:09Z</time>
      </trkpt>
      <trkpt lat="44.65743" lon="4.44839">
        <ele>291.79</ele>
        <time>2018-09-21T17:37:10Z</time>
      </trkpt>
      <trkpt lat="44.65722" lon="4.44818">
        <ele>290.65</ele>
        <time>2018-09-21T17:37:11Z</time>
      </trkpt>
      <trkpt lat="44.65701" lon="4.44799">
        <ele>289.6</ele>
        <time>2018-09-21T17:37:12Z</time>
      </trkpt>
      <trkpt lat="44.65681" lon="4.44779">
        <ele>287.89</ele>
        <time>2018-09-21T17:37:13Z</time>
      </trkpt>
      <trkpt lat="44.65661" lon="4.44759">
        <ele>286.68</ele>
        <time>2018-09-21T17:37:14Z</time>
      </trkpt>
      <trkpt lat="44.65641" lon="4.4474">
        <ele>286.31</ele>
        <time>2018-09-21T17:37:15Z</time>
      </trkpt>
      <trkpt lat="44.65619" lon="4.44721">
        <ele>284.8</ele>
        <time>2018-09-21T17:37:16Z</time>
      </trkpt>
      <trkpt lat="44.65598" lon="4.44703">
        <ele>283.65</ele>
        <time>2018-09-21T17:37:17Z</time>
      </trkpt>
      <trkpt lat="44.65577" lon="4.44684">
        <ele>283.31</ele>
        <time>2018-09-21T17:37:18Z</time>
      </trkpt>
      <trkpt lat="44.65555" lon="4.44667">
        <ele>282.5</ele>
        <time>2018-09-21T17:37:19Z</time>
      </trkpt>
      <trkpt lat="44.65534" lon="4.44648">
        <ele>282.26</ele>
        <time>2018-09-21T17:37:20Z</time>
      </trkpt>
      <trkpt lat="44.65516" lon="4.44631">
        <ele>281.49</ele>
        <time>2018-09-21T17:37:21Z</time>
      </trkpt>
      <trkpt lat="44.65498" lon="4.44616">
        <ele>281.26</ele>
        <time>2018-09-21T17:37:22Z</time>
      </trkpt>
      <trkpt lat="44.65472" lon="4.44592">
        <ele>281.17</ele>
        <time>2018-09-21T17:37:24Z</time>
      </trkpt>
      <trkpt lat="44.65447" lon="4.44568">
        <ele>281.16</ele>
        <time>2018-09-21T17:37:26Z</time>
      </trkpt>
      <trkpt lat="44.65424" lon="4.44545">
        <ele>280.46</ele>
        <time>2018-09-21T17:37:28Z</time>
      </trkpt>
      <trkpt lat="44.65402" lon="4.44524">
        <ele>280.39</ele>
        <time>2018-09-21T17:37:30Z</time>
      </trkpt>
      <trkpt lat="44.65383" lon="4.44506">
        <ele>280.18</ele>
        <time>2018-09-21T17:37:32Z</time>
      </trkpt>
      <trkpt lat="44.65367" lon="4.44488">
        <ele>278.55</ele>
        <time>2018-09-21T17:37:34Z</time>
      </trkpt>
      <trkpt lat="44.65344" lon="4.44467">
        <ele>278.19</ele>
        <time>2018-09-21T17:37:36Z</time>
      </trkpt>
      <trkpt lat="44.65324" lon="4.44449">
        <ele>278.16</ele>
        <time>2018-09-21T17:37:38Z</time>
      </trkpt>
      <trkpt lat="44.65303" lon="4.44434">
        <ele>278.16</ele>
        <time>2018-09-21T17:37:40Z</time>
      </trkpt>
      <trkpt lat="44.65286" lon="4.44413">
        <ele>276.55</ele>
        <time>2018-09-21T17:37:42Z</time>
      </trkpt>
      <trkpt lat="44.65266" lon="4.44396">
        <ele>276.19</ele>
        <time>2018-09-21T17:37:44Z</time>
      </trkpt>
      <trkpt lat="44.65246" lon="4.44375">
        <ele>276.37</ele>
        <time>2018-09-21T17:37:46Z</time>
      </trkpt>
      <trkpt lat="44.65226" lon="4.44354">
        <ele>276.18</ele>
        <time>2018-09-21T17:37:48Z</time>
      </trkpt>
      <trkpt lat="44.65207" lon="4.44335">
        <ele>275.46</ele>
        <time>2018-09-21T17:37:50Z</time>
      </trkpt>
      <trkpt lat="44.65189" lon="4.44319">
        <ele>274.69</ele>
        <time>2018-09-21T17:37:52Z</time>
      </trkpt>
      <trkpt lat="44.65171" lon="4.44301">
        <ele>273.51</ele>
        <time>2018-09-21T17:37:54Z</time>
      </trkpt>
      <trkpt lat="44.65152" lon="4.44281">
        <ele>272.28</ele>
        <time>2018-09-21T17:37:56Z</time>
      </trkpt>
      <trkpt lat="44.65131" lon="4.44261">
        <ele>270.35</ele>
        <time>2018-09-21T17:37:58Z</time>
      </trkpt>
      <trkpt lat="44.65111" lon="4.4424">
        <ele>269.26</ele>
        <time>2018-09-21T17:38:00Z</time>
      </trkpt>
      <trkpt lat="44.65091" lon="4.44218">
        <ele>269.17</ele>
        <time>2018-09-21T17:38:02Z</time>
      </trkpt>
      <trkpt lat="44.65068" lon="4.44196">
        <ele>268.25</ele>
        <time>2018-09-21T17:38:04Z</time>
      </trkpt>
      <trkpt lat="44.65045" lon="4.44173">
        <ele>267.26</ele>
        <time>2018-09-21T17:38:06Z</time>
      </trkpt>
      <trkpt lat="44.65021" lon="4.44149">
        <ele>264.65</ele>
        <time>2018-09-21T17:38:08Z</time>
      </trkpt>
      <trkpt lat="44.64999" lon="4.44126">
        <ele>264.2</ele>
        <time>2018-09-21T17:38:10Z</time>
      </trkpt>
      <trkpt lat="44.64978" lon="4.44105">
        <ele>262.34</ele>
        <time>2018-09-21T17:38:12Z</time>
      </trkpt>
      <trkpt lat="44.64955" lon="4.44083">
        <ele>260.56</ele>
        <time>2018-09-21T17:38:14Z</time>
      </trkpt>
      <trkpt lat="44.64933" lon="4.4406">
        <ele>260.19</ele>
        <time>2018-09-21T17:38:16Z</time>
      </trkpt>
      <trkpt lat="44.6491" lon="4.44035">
        <ele>258.55</ele>
        <time>2018-09-21T17:38:18Z</time>
      </trkpt>
      <trkpt lat="44.64887" lon="4.4401">
        <ele>258.19</ele>
        <time>2018-09-21T17:38:20Z</time>
      </trkpt>
      <trkpt lat="44.64865" lon="4.43986">
        <ele>258.16</ele>
        <time>2018-09-21T17:38:22Z</time>
      </trkpt>
      <trkpt lat="44.64843" lon="4.43964">
        <ele>258.16</ele>
        <time>2018-09-21T17:38:24Z</time>
      </trkpt>
      <trkpt lat="44.64822" lon="4.43943">
        <ele>259.56</ele>
        <time>2018-09-21T17:38:26Z</time>
      </trkpt>
      <trkpt lat="44.64798" lon="4.43918">
        <ele>261.01</ele>
        <time>2018-09-21T17:38:28Z</time>
      </trkpt>
      <trkpt lat="44.64778" lon="4.43896">
        <ele>261.14</ele>
        <time>2018-09-21T17:38:30Z</time>
      </trkpt>
      <trkpt lat="44.6476" lon="4.43879">
        <ele>261.16</ele>
        <time>2018-09-21T17:38:32Z</time>
      </trkpt>
      <trkpt lat="44.64743" lon="4.43862">
        <ele>262.07</ele>
        <time>2018-09-21T17:38:34Z</time>
      </trkpt>
      <trkpt lat="44.64725" lon="4.43844">
        <ele>262.15</ele>
        <time>2018-09-21T17:38:36Z</time>
      </trkpt>
      <trkpt lat="44.64708" lon="4.43825">
        <ele>261.95</ele>
        <time>2018-09-21T17:38:38Z</time>
      </trkpt>
      <trkpt lat="44.64689" lon="4.43803">
        <ele>261.44</ele>
        <time>2018-09-21T17:38:40Z</time>
      </trkpt>
      <trkpt lat="44.64669" lon="4.43783">
        <ele>262.09</ele>
        <time>2018-09-21T17:38:42Z</time>
      </trkpt>
      <trkpt lat="44.64651" lon="4.43757">
        <ele>262.15</ele>
        <time>2018-09-21T17:38:44Z</time>
      </trkpt>
      <trkpt lat="44.64633" lon="4.43726">
        <ele>262.16</ele>
        <time>2018-09-21T17:38:46Z</time>
      </trkpt>
      <trkpt lat="44.64614" lon="4.43691">
        <ele>263.07</ele>
        <time>2018-09-21T17:38:48Z</time>
      </trkpt>
      <trkpt lat="44.64593" lon="4.43654">
        <ele>262.94</ele>
        <time>2018-09-21T17:38:50Z</time>
      </trkpt>
      <trkpt lat="44.64573" lon="4.43622">
        <ele>263.84</ele>
        <time>2018-09-21T17:38:52Z</time>
      </trkpt>
      <trkpt lat="44.64555" lon="4.4359">
        <ele>265.04</ele>
        <time>2018-09-21T17:38:54Z</time>
      </trkpt>
      <trkpt lat="44.64536" lon="4.4356">
        <ele>266.06</ele>
        <time>2018-09-21T17:38:56Z</time>
      </trkpt>
      <trkpt lat="44.64515" lon="4.43526">
        <ele>265.94</ele>
        <time>2018-09-21T17:38:58Z</time>
      </trkpt>
      <trkpt lat="44.64505" lon="4.43505">
        <ele>266.09</ele>
        <time>2018-09-21T17:38:59Z</time>
      </trkpt>
      <trkpt lat="44.6449" lon="4.43474">
        <ele>264.04</ele>
        <time>2018-09-21T17:39:00Z</time>
      </trkpt>
      <trkpt lat="44.64478" lon="4.4345">
        <ele>262.02</ele>
        <time>2018-09-21T17:39:01Z</time>
      </trkpt>
      <trkpt lat="44.64462" lon="4.43426">
        <ele>261.42</ele>
        <time>2018-09-21T17:39:02Z</time>
      </trkpt>
      <trkpt lat="44.64443" lon="4.43403">
        <ele>261.23</ele>
        <time>2018-09-21T17:39:03Z</time>
      </trkpt>
      <trkpt lat="44.64422" lon="4.43379">
        <ele>261.18</ele>
        <time>2018-09-21T17:39:04Z</time>
      </trkpt>
      <trkpt lat="44.64403" lon="4.43355">
        <ele>259.76</ele>
        <time>2018-09-21T17:39:05Z</time>
      </trkpt>
      <trkpt lat="44.64385" lon="4.43332">
        <ele>258.64</ele>
        <time>2018-09-21T17:39:06Z</time>
      </trkpt>
      <trkpt lat="44.64368" lon="4.43307">
        <ele>259.7</ele>
        <time>2018-09-21T17:39:07Z</time>
      </trkpt>
      <trkpt lat="44.64348" lon="4.43284">
        <ele>260.72</ele>
        <time>2018-09-21T17:39:08Z</time>
      </trkpt>
      <trkpt lat="44.64329" lon="4.43261">
        <ele>260.33</ele>
        <time>2018-09-21T17:39:09Z</time>
      </trkpt>
      <trkpt lat="44.6431" lon="4.43239">
        <ele>258.81</ele>
        <time>2018-09-21T17:39:10Z</time>
      </trkpt>
      <trkpt lat="44.64292" lon="4.43217">
        <ele>257.65</ele>
        <time>2018-09-21T17:39:11Z</time>
      </trkpt>
      <trkpt lat="44.64273" lon="4.43195">
        <ele>255.91</ele>
        <time>2018-09-21T17:39:12Z</time>
      </trkpt>
      <trkpt lat="44.64255" lon="4.43173">
        <ele>255.38</ele>
        <time>2018-09-21T17:39:13Z</time>
      </trkpt>
      <trkpt lat="44.64238" lon="4.43153">
        <ele>255.22</ele>
        <time>2018-09-21T17:39:14Z</time>
      </trkpt>
      <trkpt lat="44.64221" lon="4.4313">
        <ele>253.08</ele>
        <time>2018-09-21T17:39:15Z</time>
      </trkpt>
      <trkpt lat="44.64203" lon="4.43108">
        <ele>251.73</ele>
        <time>2018-09-21T17:39:16Z</time>
      </trkpt>
      <trkpt lat="44.64185" lon="4.43086">
        <ele>251.33</ele>
        <time>2018-09-21T17:39:17Z</time>
      </trkpt>
      <trkpt lat="44.64167" lon="4.43063">
        <ele>251.21</ele>
        <time>2018-09-21T17:39:18Z</time>
      </trkpt>
      <trkpt lat="44.64149" lon="4.43041">
        <ele>250.47</ele>
        <time>2018-09-21T17:39:19Z</time>
      </trkpt>
      <trkpt lat="44.64131" lon="4.43019">
        <ele>249.55</ele>
        <time>2018-09-21T17:39:20Z</time>
      </trkpt>
      <trkpt lat="44.64112" lon="4.42997">
        <ele>248.58</ele>
        <time>2018-09-21T17:39:21Z</time>
      </trkpt>
      <trkpt lat="44.64094" lon="4.42974">
        <ele>248.98</ele>
        <time>2018-09-21T17:39:22Z</time>
      </trkpt>
      <trkpt lat="44.64076" lon="4.42952">
        <ele>248.4</ele>
        <time>2018-09-21T17:39:23Z</time>
      </trkpt>
      <trkpt lat="44.64058" lon="4.4293">
        <ele>247.53</ele>
        <time>2018-09-21T17:39:24Z</time>
      </trkpt>
      <trkpt lat="44.6404" lon="4.42906">
        <ele>246.57</ele>
        <time>2018-09-21T17:39:25Z</time>
      </trkpt>
      <trkpt lat="44.64023" lon="4.42884">
        <ele>245.58</ele>
        <time>2018-09-21T17:39:26Z</time>
      </trkpt>
      <trkpt lat="44.64006" lon="4.4286">
        <ele>244.58</ele>
        <time>2018-09-21T17:39:27Z</time>
      </trkpt>
      <trkpt lat="44.63991" lon="4.42832">
        <ele>244.99</ele>
        <time>2018-09-21T17:39:28Z</time>
      </trkpt>
      <trkpt lat="44.63977" lon="4.42806">
        <ele>244.41</ele>
        <time>2018-09-21T17:39:29Z</time>
      </trkpt>
      <trkpt lat="44.63962" lon="4.42779">
        <ele>244.23</ele>
        <time>2018-09-21T17:39:30Z</time>
      </trkpt>
      <trkpt lat="44.63948" lon="4.42752">
        <ele>244.18</ele>
        <time>2018-09-21T17:39:31Z</time>
      </trkpt>
      <trkpt lat="44.63934" lon="4.42725">
        <ele>244.16</ele>
        <time>2018-09-21T17:39:32Z</time>
      </trkpt>
      <trkpt lat="44.63921" lon="4.42697">
        <ele>244.16</ele>
        <time>2018-09-21T17:39:33Z</time>
      </trkpt>
      <trkpt lat="44.63909" lon="4.42669">
        <ele>244.16</ele>
        <time>2018-09-21T17:39:34Z</time>
      </trkpt>
      <trkpt lat="44.63896" lon="4.42642">
        <ele>244.16</ele>
        <time>2018-09-21T17:39:35Z</time>
      </trkpt>
      <trkpt lat="44.63881" lon="4.42617">
        <ele>244.86</ele>
        <time>2018-09-21T17:39:36Z</time>
      </trkpt>
      <trkpt lat="44.63861" lon="4.42599">
        <ele>244.37</ele>
        <time>2018-09-21T17:39:37Z</time>
      </trkpt>
      <trkpt lat="44.63843" lon="4.42582">
        <ele>243.52</ele>
        <time>2018-09-21T17:39:38Z</time>
      </trkpt>
      <trkpt lat="44.63823" lon="4.42565">
        <ele>243.27</ele>
        <time>2018-09-21T17:39:39Z</time>
      </trkpt>
      <trkpt lat="44.63802" lon="4.4255">
        <ele>242.49</ele>
        <time>2018-09-21T17:39:40Z</time>
      </trkpt>
      <trkpt lat="44.63779" lon="4.42534">
        <ele>242.26</ele>
        <time>2018-09-21T17:39:41Z</time>
      </trkpt>
      <trkpt lat="44.63756" lon="4.42518">
        <ele>241.49</ele>
        <time>2018-09-21T17:39:42Z</time>
      </trkpt>
      <trkpt lat="44.63734" lon="4.42503">
        <ele>241.26</ele>
        <time>2018-09-21T17:39:43Z</time>
      </trkpt>
      <trkpt lat="44.63711" lon="4.42488">
        <ele>240.49</ele>
        <time>2018-09-21T17:39:44Z</time>
      </trkpt>
      <trkpt lat="44.63688" lon="4.42473">
        <ele>240.26</ele>
        <time>2018-09-21T17:39:45Z</time>
      </trkpt>
      <trkpt lat="44.63665" lon="4.42458">
        <ele>239.49</ele>
        <time>2018-09-21T17:39:46Z</time>
      </trkpt>
      <trkpt lat="44.63642" lon="4.42442">
        <ele>239.26</ele>
        <time>2018-09-21T17:39:47Z</time>
      </trkpt>
      <trkpt lat="44.63619" lon="4.42428">
        <ele>238.49</ele>
        <time>2018-09-21T17:39:48Z</time>
      </trkpt>
      <trkpt lat="44.63596" lon="4.42412">
        <ele>237.56</ele>
        <time>2018-09-21T17:39:49Z</time>
      </trkpt>
      <trkpt lat="44.63573" lon="4.42397">
        <ele>237.28</ele>
        <time>2018-09-21T17:39:50Z</time>
      </trkpt>
      <trkpt lat="44.63549" lon="4.42382">
        <ele>236.49</ele>
        <time>2018-09-21T17:39:51Z</time>
      </trkpt>
      <trkpt lat="44.63526" lon="4.42366">
        <ele>236.26</ele>
        <time>2018-09-21T17:39:52Z</time>
      </trkpt>
      <trkpt lat="44.63502" lon="4.4235">
        <ele>235.49</ele>
        <time>2018-09-21T17:39:53Z</time>
      </trkpt>
      <trkpt lat="44.63479" lon="4.42335">
        <ele>235.96</ele>
        <time>2018-09-21T17:39:54Z</time>
      </trkpt>
      <trkpt lat="44.63455" lon="4.42319">
        <ele>235.4</ele>
        <time>2018-09-21T17:39:55Z</time>
      </trkpt>
      <trkpt lat="44.63432" lon="4.42303">
        <ele>235.23</ele>
        <time>2018-09-21T17:39:56Z</time>
      </trkpt>
      <trkpt lat="44.63409" lon="4.42288">
        <ele>235.18</ele>
        <time>2018-09-21T17:39:57Z</time>
      </trkpt>
      <trkpt lat="44.63386" lon="4.42274">
        <ele>235.16</ele>
        <time>2018-09-21T17:39:58Z</time>
      </trkpt>
      <trkpt lat="44.63363" lon="4.42259">
        <ele>234.46</ele>
        <time>2018-09-21T17:39:59Z</time>
      </trkpt>
      <trkpt lat="44.6334" lon="4.42244">
        <ele>234.25</ele>
        <time>2018-09-21T17:40:00Z</time>
      </trkpt>
      <trkpt lat="44.63317" lon="4.4223">
        <ele>233.48</ele>
        <time>2018-09-21T17:40:01Z</time>
      </trkpt>
      <trkpt lat="44.63295" lon="4.42214">
        <ele>233.26</ele>
        <time>2018-09-21T17:40:02Z</time>
      </trkpt>
      <trkpt lat="44.63274" lon="4.42198">
        <ele>232.49</ele>
        <time>2018-09-21T17:40:03Z</time>
      </trkpt>
      <trkpt lat="44.63252" lon="4.42184">
        <ele>232.26</ele>
        <time>2018-09-21T17:40:04Z</time>
      </trkpt>
      <trkpt lat="44.6323" lon="4.4217">
        <ele>231.49</ele>
        <time>2018-09-21T17:40:05Z</time>
      </trkpt>
      <trkpt lat="44.63208" lon="4.42156">
        <ele>231.26</ele>
        <time>2018-09-21T17:40:06Z</time>
      </trkpt>
      <trkpt lat="44.63187" lon="4.42142">
        <ele>231.19</ele>
        <time>2018-09-21T17:40:07Z</time>
      </trkpt>
      <trkpt lat="44.63166" lon="4.42127">
        <ele>230.47</ele>
        <time>2018-09-21T17:40:08Z</time>
      </trkpt>
      <trkpt lat="44.63145" lon="4.42116">
        <ele>230.95</ele>
        <time>2018-09-21T17:40:09Z</time>
      </trkpt>
      <trkpt lat="44.63122" lon="4.42102">
        <ele>231.09</ele>
        <time>2018-09-21T17:40:10Z</time>
      </trkpt>
      <trkpt lat="44.63099" lon="4.42089">
        <ele>230.44</ele>
        <time>2018-09-21T17:40:11Z</time>
      </trkpt>
      <trkpt lat="44.63077" lon="4.42078">
        <ele>228.84</ele>
        <time>2018-09-21T17:40:12Z</time>
      </trkpt>
      <trkpt lat="44.63053" lon="4.42067">
        <ele>226.26</ele>
        <time>2018-09-21T17:40:13Z</time>
      </trkpt>
      <trkpt lat="44.63035" lon="4.42049">
        <ele>221.99</ele>
        <time>2018-09-21T17:40:14Z</time>
      </trkpt>
      <trkpt lat="44.6301" lon="4.42044">
        <ele>219.31</ele>
        <time>2018-09-21T17:40:15Z</time>
      </trkpt>
      <trkpt lat="44.62983" lon="4.42034">
        <ele>217.1</ele>
        <time>2018-09-21T17:40:16Z</time>
      </trkpt>
      <trkpt lat="44.62958" lon="4.42029">
        <ele>215.74</ele>
        <time>2018-09-21T17:40:17Z</time>
      </trkpt>
      <trkpt lat="44.62932" lon="4.42028">
        <ele>213.93</ele>
        <time>2018-09-21T17:40:18Z</time>
      </trkpt>
      <trkpt lat="44.62905" lon="4.42023">
        <ele>213.39</ele>
        <time>2018-09-21T17:40:19Z</time>
      </trkpt>
      <trkpt lat="44.6288" lon="4.42021">
        <ele>212.53</ele>
        <time>2018-09-21T17:40:20Z</time>
      </trkpt>
      <trkpt lat="44.62855" lon="4.42017">
        <ele>210.87</ele>
        <time>2018-09-21T17:40:21Z</time>
      </trkpt>
      <trkpt lat="44.62831" lon="4.42014">
        <ele>208.27</ele>
        <time>2018-09-21T17:40:22Z</time>
      </trkpt>
      <trkpt lat="44.62806" lon="4.42009">
        <ele>206.79</ele>
        <time>2018-09-21T17:40:23Z</time>
      </trkpt>
      <trkpt lat="44.62784" lon="4.41997">
        <ele>204.95</ele>
        <time>2018-09-21T17:40:24Z</time>
      </trkpt>
      <trkpt lat="44.6276" lon="4.41987">
        <ele>204.39</ele>
        <time>2018-09-21T17:40:25Z</time>
      </trkpt>
      <trkpt lat="44.62737" lon="4.41974">
        <ele>203.53</ele>
        <time>2018-09-21T17:40:26Z</time>
      </trkpt>
      <trkpt lat="44.62714" lon="4.41962">
        <ele>203.27</ele>
        <time>2018-09-21T17:40:27Z</time>
      </trkpt>
      <trkpt lat="44.62692" lon="4.41949">
        <ele>203.19</ele>
        <time>2018-09-21T17:40:28Z</time>
      </trkpt>
      <trkpt lat="44.62669" lon="4.41939">
        <ele>203.17</ele>
        <time>2018-09-21T17:40:29Z</time>
      </trkpt>
      <trkpt lat="44.62647" lon="4.41929">
        <ele>203.86</ele>
        <time>2018-09-21T17:40:30Z</time>
      </trkpt>
      <trkpt lat="44.62613" lon="4.4191">
        <ele>203.22</ele>
        <time>2018-09-21T17:40:32Z</time>
      </trkpt>
      <trkpt lat="44.62591" lon="4.41892">
        <ele>200.58</ele>
        <time>2018-09-21T17:40:35Z</time>
      </trkpt>
      <trkpt lat="44.62578" lon="4.4187">
        <ele>202.05</ele>
        <time>2018-09-21T17:40:38Z</time>
      </trkpt>
      <trkpt lat="44.62552" lon="4.41867">
        <ele>204.61</ele>
        <time>2018-09-21T17:40:41Z</time>
      </trkpt>
      <trkpt lat="44.62525" lon="4.41857">
        <ele>204.57</ele>
        <time>2018-09-21T17:40:44Z</time>
      </trkpt>
      <trkpt lat="44.62497" lon="4.41841">
        <ele>204.19</ele>
        <time>2018-09-21T17:40:46Z</time>
      </trkpt>
      <trkpt lat="44.6246" lon="4.41816">
        <ele>202.55</ele>
        <time>2018-09-21T17:40:48Z</time>
      </trkpt>
      <trkpt lat="44.6244" lon="4.41801">
        <ele>202.98</ele>
        <time>2018-09-21T17:40:49Z</time>
      </trkpt>
      <trkpt lat="44.62421" lon="4.41788">
        <ele>204.5</ele>
        <time>2018-09-21T17:40:50Z</time>
      </trkpt>
      <trkpt lat="44.62402" lon="4.4177">
        <ele>205.66</ele>
        <time>2018-09-21T17:40:51Z</time>
      </trkpt>
      <trkpt lat="44.62383" lon="4.41753">
        <ele>206.01</ele>
        <time>2018-09-21T17:40:52Z</time>
      </trkpt>
      <trkpt lat="44.62367" lon="4.41737">
        <ele>206.11</ele>
        <time>2018-09-21T17:40:53Z</time>
      </trkpt>
      <trkpt lat="44.6235" lon="4.41721">
        <ele>206.14</ele>
        <time>2018-09-21T17:40:54Z</time>
      </trkpt>
      <trkpt lat="44.62334" lon="4.41705">
        <ele>205.45</ele>
        <time>2018-09-21T17:40:55Z</time>
      </trkpt>
      <trkpt lat="44.62318" lon="4.41689">
        <ele>204.55</ele>
        <time>2018-09-21T17:40:56Z</time>
      </trkpt>
      <trkpt lat="44.623" lon="4.41664">
        <ele>203.57</ele>
        <time>2018-09-21T17:40:57Z</time>
      </trkpt>
      <trkpt lat="44.62282" lon="4.41643">
        <ele>203.28</ele>
        <time>2018-09-21T17:40:58Z</time>
      </trkpt>
      <trkpt lat="44.62265" lon="4.41622">
        <ele>202.49</ele>
        <time>2018-09-21T17:40:59Z</time>
      </trkpt>
      <trkpt lat="44.62249" lon="4.41595">
        <ele>202.96</ele>
        <time>2018-09-21T17:41:00Z</time>
      </trkpt>
      <trkpt lat="44.62232" lon="4.4157">
        <ele>203.1</ele>
        <time>2018-09-21T17:41:01Z</time>
      </trkpt>
      <trkpt lat="44.62215" lon="4.41543">
        <ele>203.14</ele>
        <time>2018-09-21T17:41:02Z</time>
      </trkpt>
      <trkpt lat="44.62197" lon="4.41515">
        <ele>201.05</ele>
        <time>2018-09-21T17:41:03Z</time>
      </trkpt>
      <trkpt lat="44.62178" lon="4.41488">
        <ele>199.73</ele>
        <time>2018-09-21T17:41:04Z</time>
      </trkpt>
      <trkpt lat="44.62161" lon="4.41461">
        <ele>198.63</ele>
        <time>2018-09-21T17:41:05Z</time>
      </trkpt>
      <trkpt lat="44.62143" lon="4.41433">
        <ele>197.6</ele>
        <time>2018-09-21T17:41:06Z</time>
      </trkpt>
      <trkpt lat="44.62125" lon="4.41407">
        <ele>197.29</ele>
        <time>2018-09-21T17:41:07Z</time>
      </trkpt>
      <trkpt lat="44.62109" lon="4.41381">
        <ele>197.2</ele>
        <time>2018-09-21T17:41:08Z</time>
      </trkpt>
      <trkpt lat="44.62091" lon="4.41354">
        <ele>199.27</ele>
        <time>2018-09-21T17:41:09Z</time>
      </trkpt>
      <trkpt lat="44.62074" lon="4.41329">
        <ele>199.19</ele>
        <time>2018-09-21T17:41:10Z</time>
      </trkpt>
      <trkpt lat="44.62058" lon="4.41303">
        <ele>199.87</ele>
        <time>2018-09-21T17:41:11Z</time>
      </trkpt>
      <trkpt lat="44.62042" lon="4.41275">
        <ele>200.07</ele>
        <time>2018-09-21T17:41:12Z</time>
      </trkpt>
      <trkpt lat="44.62025" lon="4.41249">
        <ele>200.13</ele>
        <time>2018-09-21T17:41:13Z</time>
      </trkpt>
      <trkpt lat="44.62008" lon="4.41225">
        <ele>199.45</ele>
        <time>2018-09-21T17:41:14Z</time>
      </trkpt>
      <trkpt lat="44.61991" lon="4.41198">
        <ele>199.94</ele>
        <time>2018-09-21T17:41:15Z</time>
      </trkpt>
      <trkpt lat="44.61974" lon="4.41173">
        <ele>200.09</ele>
        <time>2018-09-21T17:41:16Z</time>
      </trkpt>
      <trkpt lat="44.61957" lon="4.41147">
        <ele>200.14</ele>
        <time>2018-09-21T17:41:17Z</time>
      </trkpt>
      <trkpt lat="44.61939" lon="4.41122">
        <ele>200.15</ele>
        <time>2018-09-21T17:41:18Z</time>
      </trkpt>
      <trkpt lat="44.61922" lon="4.41099">
        <ele>200.86</ele>
        <time>2018-09-21T17:41:19Z</time>
      </trkpt>
      <trkpt lat="44.61905" lon="4.41071">
        <ele>201.07</ele>
        <time>2018-09-21T17:41:20Z</time>
      </trkpt>
      <trkpt lat="44.61888" lon="4.41047">
        <ele>201.13</ele>
        <time>2018-09-21T17:41:21Z</time>
      </trkpt>
      <trkpt lat="44.6187" lon="4.41025">
        <ele>201.85</ele>
        <time>2018-09-21T17:41:22Z</time>
      </trkpt>
      <trkpt lat="44.61853" lon="4.41008">
        <ele>202.76</ele>
        <time>2018-09-21T17:41:23Z</time>
      </trkpt>
      <trkpt lat="44.61831" lon="4.40987">
        <ele>203.04</ele>
        <time>2018-09-21T17:41:24Z</time>
      </trkpt>
      <trkpt lat="44.61811" lon="4.40969">
        <ele>203.12</ele>
        <time>2018-09-21T17:41:25Z</time>
      </trkpt>
      <trkpt lat="44.61789" lon="4.40955">
        <ele>203.85</ele>
        <time>2018-09-21T17:41:26Z</time>
      </trkpt>
      <trkpt lat="44.61768" lon="4.40942">
        <ele>204.06</ele>
        <time>2018-09-21T17:41:27Z</time>
      </trkpt>
      <trkpt lat="44.61748" lon="4.4093">
        <ele>204.13</ele>
        <time>2018-09-21T17:41:28Z</time>
      </trkpt>
      <trkpt lat="44.61726" lon="4.4092">
        <ele>204.15</ele>
        <time>2018-09-21T17:41:29Z</time>
      </trkpt>
      <trkpt lat="44.61704" lon="4.40912">
        <ele>204.85</ele>
        <time>2018-09-21T17:41:30Z</time>
      </trkpt>
      <trkpt lat="44.61682" lon="4.40905">
        <ele>205.07</ele>
        <time>2018-09-21T17:41:31Z</time>
      </trkpt>
      <trkpt lat="44.61661" lon="4.40899">
        <ele>205.13</ele>
        <time>2018-09-21T17:41:32Z</time>
      </trkpt>
      <trkpt lat="44.61638" lon="4.40894">
        <ele>205.15</ele>
        <time>2018-09-21T17:41:33Z</time>
      </trkpt>
      <trkpt lat="44.61617" lon="4.40888">
        <ele>206.55</ele>
        <time>2018-09-21T17:41:34Z</time>
      </trkpt>
      <trkpt lat="44.61596" lon="4.40884">
        <ele>206.28</ele>
        <time>2018-09-21T17:41:35Z</time>
      </trkpt>
      <trkpt lat="44.61574" lon="4.40876">
        <ele>206.19</ele>
        <time>2018-09-21T17:41:36Z</time>
      </trkpt>
      <trkpt lat="44.61552" lon="4.40873">
        <ele>206.17</ele>
        <time>2018-09-21T17:41:37Z</time>
      </trkpt>
      <trkpt lat="44.61531" lon="4.4087">
        <ele>205.46</ele>
        <time>2018-09-21T17:41:38Z</time>
      </trkpt>
      <trkpt lat="44.61509" lon="4.40865">
        <ele>204.55</ele>
        <time>2018-09-21T17:41:39Z</time>
      </trkpt>
      <trkpt lat="44.61488" lon="4.40861">
        <ele>204.27</ele>
        <time>2018-09-21T17:41:40Z</time>
      </trkpt>
      <trkpt lat="44.6147" lon="4.40855">
        <ele>203.49</ele>
        <time>2018-09-21T17:41:41Z</time>
      </trkpt>
      <trkpt lat="44.61437" lon="4.40846">
        <ele>204.31</ele>
        <time>2018-09-21T17:41:43Z</time>
      </trkpt>
      <trkpt lat="44.61403" lon="4.40833">
        <ele>202.56</ele>
        <time>2018-09-21T17:41:45Z</time>
      </trkpt>
      <trkpt lat="44.61373" lon="4.40817">
        <ele>202.89</ele>
        <time>2018-09-21T17:41:47Z</time>
      </trkpt>
      <trkpt lat="44.61349" lon="4.40811">
        <ele>204.04</ele>
        <time>2018-09-21T17:41:49Z</time>
      </trkpt>
      <trkpt lat="44.61332" lon="4.40802">
        <ele>204.85</ele>
        <time>2018-09-21T17:41:52Z</time>
      </trkpt>
      <trkpt lat="44.61322" lon="4.40778">
        <ele>206.21</ele>
        <time>2018-09-21T17:41:56Z</time>
      </trkpt>
      <trkpt lat="44.61302" lon="4.40749">
        <ele>206.16</ele>
        <time>2018-09-21T17:41:58Z</time>
      </trkpt>
      <trkpt lat="44.61279" lon="4.40743">
        <ele>204.55</ele>
        <time>2018-09-21T17:42:00Z</time>
      </trkpt>
      <trkpt lat="44.61245" lon="4.4073">
        <ele>205.1</ele>
        <time>2018-09-21T17:42:02Z</time>
      </trkpt>
      <trkpt lat="44.61213" lon="4.40705">
        <ele>203.54</ele>
        <time>2018-09-21T17:42:04Z</time>
      </trkpt>
      <trkpt lat="44.61196" lon="4.40689">
        <ele>202.57</ele>
        <time>2018-09-21T17:42:05Z</time>
      </trkpt>
      <trkpt lat="44.61169" lon="4.40671">
        <ele>202.28</ele>
        <time>2018-09-21T17:42:06Z</time>
      </trkpt>
      <trkpt lat="44.61144" lon="4.40652">
        <ele>202.89</ele>
        <time>2018-09-21T17:42:07Z</time>
      </trkpt>
      <trkpt lat="44.61119" lon="4.40633">
        <ele>202.38</ele>
        <time>2018-09-21T17:42:08Z</time>
      </trkpt>
      <trkpt lat="44.61093" lon="4.40612">
        <ele>202.92</ele>
        <time>2018-09-21T17:42:09Z</time>
      </trkpt>
      <trkpt lat="44.6107" lon="4.40588">
        <ele>202.39</ele>
        <time>2018-09-21T17:42:10Z</time>
      </trkpt>
      <trkpt lat="44.61047" lon="4.40565">
        <ele>202.23</ele>
        <time>2018-09-21T17:42:11Z</time>
      </trkpt>
      <trkpt lat="44.61024" lon="4.40543">
        <ele>201.48</ele>
        <time>2018-09-21T17:42:12Z</time>
      </trkpt>
      <trkpt lat="44.61004" lon="4.40523">
        <ele>201.25</ele>
        <time>2018-09-21T17:42:13Z</time>
      </trkpt>
      <trkpt lat="44.60984" lon="4.40503">
        <ele>200.49</ele>
        <time>2018-09-21T17:42:14Z</time>
      </trkpt>
      <trkpt lat="44.60964" lon="4.40483">
        <ele>200.26</ele>
        <time>2018-09-21T17:42:15Z</time>
      </trkpt>
      <trkpt lat="44.60945" lon="4.40464">
        <ele>199.49</ele>
        <time>2018-09-21T17:42:16Z</time>
      </trkpt>
      <trkpt lat="44.60925" lon="4.40444">
        <ele>199.26</ele>
        <time>2018-09-21T17:42:17Z</time>
      </trkpt>
      <trkpt lat="44.60904" lon="4.40424">
        <ele>198.49</ele>
        <time>2018-09-21T17:42:18Z</time>
      </trkpt>
      <trkpt lat="44.60884" lon="4.40405">
        <ele>198.26</ele>
        <time>2018-09-21T17:42:19Z</time>
      </trkpt>
      <trkpt lat="44.60863" lon="4.40385">
        <ele>197.49</ele>
        <time>2018-09-21T17:42:20Z</time>
      </trkpt>
      <trkpt lat="44.60844" lon="4.40364">
        <ele>197.96</ele>
        <time>2018-09-21T17:42:21Z</time>
      </trkpt>
      <trkpt lat="44.60823" lon="4.40343">
        <ele>198.1</ele>
        <time>2018-09-21T17:42:22Z</time>
      </trkpt>
      <trkpt lat="44.60801" lon="4.40321">
        <ele>197.44</ele>
        <time>2018-09-21T17:42:23Z</time>
      </trkpt>
      <trkpt lat="44.60781" lon="4.40298">
        <ele>197.24</ele>
        <time>2018-09-21T17:42:24Z</time>
      </trkpt>
      <trkpt lat="44.6076" lon="4.40277">
        <ele>196.48</ele>
        <time>2018-09-21T17:42:25Z</time>
      </trkpt>
      <trkpt lat="44.60739" lon="4.40255">
        <ele>196.25</ele>
        <time>2018-09-21T17:42:26Z</time>
      </trkpt>
      <trkpt lat="44.60718" lon="4.40233">
        <ele>196.19</ele>
        <time>2018-09-21T17:42:27Z</time>
      </trkpt>
      <trkpt lat="44.60698" lon="4.4021">
        <ele>195.47</ele>
        <time>2018-09-21T17:42:28Z</time>
      </trkpt>
      <trkpt lat="44.60678" lon="4.40188">
        <ele>195.25</ele>
        <time>2018-09-21T17:42:29Z</time>
      </trkpt>
      <trkpt lat="44.60657" lon="4.40165">
        <ele>194.48</ele>
        <time>2018-09-21T17:42:30Z</time>
      </trkpt>
      <trkpt lat="44.60637" lon="4.40143">
        <ele>194.26</ele>
        <time>2018-09-21T17:42:31Z</time>
      </trkpt>
      <trkpt lat="44.60616" lon="4.40121">
        <ele>193.49</ele>
        <time>2018-09-21T17:42:32Z</time>
      </trkpt>
      <trkpt lat="44.60595" lon="4.40099">
        <ele>193.26</ele>
        <time>2018-09-21T17:42:33Z</time>
      </trkpt>
      <trkpt lat="44.60573" lon="4.40079">
        <ele>192.49</ele>
        <time>2018-09-21T17:42:34Z</time>
      </trkpt>
      <trkpt lat="44.60553" lon="4.40057">
        <ele>191.56</ele>
        <time>2018-09-21T17:42:35Z</time>
      </trkpt>
      <trkpt lat="44.60532" lon="4.40036">
        <ele>191.98</ele>
        <time>2018-09-21T17:42:36Z</time>
      </trkpt>
      <trkpt lat="44.60513" lon="4.40013">
        <ele>192.1</ele>
        <time>2018-09-21T17:42:37Z</time>
      </trkpt>
      <trkpt lat="44.60491" lon="4.3999">
        <ele>191.44</ele>
        <time>2018-09-21T17:42:38Z</time>
      </trkpt>
      <trkpt lat="44.60472" lon="4.39969">
        <ele>191.24</ele>
        <time>2018-09-21T17:42:39Z</time>
      </trkpt>
      <trkpt lat="44.6045" lon="4.39946">
        <ele>190.48</ele>
        <time>2018-09-21T17:42:40Z</time>
      </trkpt>
      <trkpt lat="44.60429" lon="4.39925">
        <ele>190.25</ele>
        <time>2018-09-21T17:42:41Z</time>
      </trkpt>
      <trkpt lat="44.60409" lon="4.39904">
        <ele>190.19</ele>
        <time>2018-09-21T17:42:42Z</time>
      </trkpt>
      <trkpt lat="44.60387" lon="4.39884">
        <ele>190.17</ele>
        <time>2018-09-21T17:42:43Z</time>
      </trkpt>
      <trkpt lat="44.60366" lon="4.39865">
        <ele>190.86</ele>
        <time>2018-09-21T17:42:44Z</time>
      </trkpt>
      <trkpt lat="44.60345" lon="4.39846">
        <ele>191.07</ele>
        <time>2018-09-21T17:42:45Z</time>
      </trkpt>
      <trkpt lat="44.60325" lon="4.39826">
        <ele>190.43</ele>
        <time>2018-09-21T17:42:46Z</time>
      </trkpt>
      <trkpt lat="44.60306" lon="4.39807">
        <ele>190.24</ele>
        <time>2018-09-21T17:42:47Z</time>
      </trkpt>
      <trkpt lat="44.60286" lon="4.39789">
        <ele>190.88</ele>
        <time>2018-09-21T17:42:48Z</time>
      </trkpt>
      <trkpt lat="44.60267" lon="4.39771">
        <ele>191.77</ele>
        <time>2018-09-21T17:42:49Z</time>
      </trkpt>
      <trkpt lat="44.60248" lon="4.39754">
        <ele>192.74</ele>
        <time>2018-09-21T17:42:50Z</time>
      </trkpt>
      <trkpt lat="44.60229" lon="4.39736">
        <ele>193.73</ele>
        <time>2018-09-21T17:42:51Z</time>
      </trkpt>
      <trkpt lat="44.6021" lon="4.39719">
        <ele>194.03</ele>
        <time>2018-09-21T17:42:52Z</time>
      </trkpt>
      <trkpt lat="44.60192" lon="4.39702">
        <ele>194.12</ele>
        <time>2018-09-21T17:42:53Z</time>
      </trkpt>
      <trkpt lat="44.60173" lon="4.39684">
        <ele>194.15</ele>
        <time>2018-09-21T17:42:54Z</time>
      </trkpt>
      <trkpt lat="44.60155" lon="4.39667">
        <ele>194.15</ele>
        <time>2018-09-21T17:42:55Z</time>
      </trkpt>
      <trkpt lat="44.60135" lon="4.39649">
        <ele>194.16</ele>
        <time>2018-09-21T17:42:56Z</time>
      </trkpt>
      <trkpt lat="44.60115" lon="4.3963">
        <ele>193.46</ele>
        <time>2018-09-21T17:42:57Z</time>
      </trkpt>
      <trkpt lat="44.60096" lon="4.39612">
        <ele>193.95</ele>
        <time>2018-09-21T17:42:58Z</time>
      </trkpt>
      <trkpt lat="44.6008" lon="4.39595">
        <ele>194.79</ele>
        <time>2018-09-21T17:42:59Z</time>
      </trkpt>
      <trkpt lat="44.6006" lon="4.39579">
        <ele>195.05</ele>
        <time>2018-09-21T17:43:00Z</time>
      </trkpt>
      <trkpt lat="44.6004" lon="4.39562">
        <ele>195.12</ele>
        <time>2018-09-21T17:43:01Z</time>
      </trkpt>
      <trkpt lat="44.6002" lon="4.39546">
        <ele>195.15</ele>
        <time>2018-09-21T17:43:02Z</time>
      </trkpt>
      <trkpt lat="44.59999" lon="4.39532">
        <ele>195.15</ele>
        <time>2018-09-21T17:43:03Z</time>
      </trkpt>
      <trkpt lat="44.5998" lon="4.39519">
        <ele>194.46</ele>
        <time>2018-09-21T17:43:04Z</time>
      </trkpt>
      <trkpt lat="44.59962" lon="4.39509">
        <ele>194.25</ele>
        <time>2018-09-21T17:43:05Z</time>
      </trkpt>
      <trkpt lat="44.59945" lon="4.395">
        <ele>194.18</ele>
        <time>2018-09-21T17:43:06Z</time>
      </trkpt>
      <trkpt lat="44.59917" lon="4.39486">
        <ele>194.16</ele>
        <time>2018-09-21T17:43:08Z</time>
      </trkpt>
      <trkpt lat="44.59898" lon="4.39475">
        <ele>193.46</ele>
        <time>2018-09-21T17:43:10Z</time>
      </trkpt>
      <trkpt lat="44.59881" lon="4.39454">
        <ele>191.28</ele>
        <time>2018-09-21T17:43:13Z</time>
      </trkpt>
      <trkpt lat="44.59865" lon="4.3944">
        <ele>190.68</ele>
        <time>2018-09-21T17:43:15Z</time>
      </trkpt>
      <trkpt lat="44.59844" lon="4.39453">
        <ele>191.11</ele>
        <time>2018-09-21T17:43:17Z</time>
      </trkpt>
      <trkpt lat="44.59819" lon="4.39458">
        <ele>191.85</ele>
        <time>2018-09-21T17:43:19Z</time>
      </trkpt>
      <trkpt lat="44.59788" lon="4.39451">
        <ele>190.52</ele>
        <time>2018-09-21T17:43:21Z</time>
      </trkpt>
      <trkpt lat="44.59771" lon="4.39446">
        <ele>189.57</ele>
        <time>2018-09-21T17:43:22Z</time>
      </trkpt>
      <trkpt lat="44.59745" lon="4.39441">
        <ele>189.28</ele>
        <time>2018-09-21T17:43:23Z</time>
      </trkpt>
      <trkpt lat="44.59718" lon="4.39437">
        <ele>189.89</ele>
        <time>2018-09-21T17:43:24Z</time>
      </trkpt>
      <trkpt lat="44.59695" lon="4.3943">
        <ele>190.08</ele>
        <time>2018-09-21T17:43:25Z</time>
      </trkpt>
      <trkpt lat="44.59673" lon="4.3942">
        <ele>190.13</ele>
        <time>2018-09-21T17:43:26Z</time>
      </trkpt>
      <trkpt lat="44.59651" lon="4.39411">
        <ele>190.15</ele>
        <time>2018-09-21T17:43:27Z</time>
      </trkpt>
      <trkpt lat="44.59631" lon="4.39402">
        <ele>190.15</ele>
        <time>2018-09-21T17:43:28Z</time>
      </trkpt>
      <trkpt lat="44.59614" lon="4.39392">
        <ele>190.86</ele>
        <time>2018-09-21T17:43:29Z</time>
      </trkpt>
      <trkpt lat="44.59583" lon="4.39371">
        <ele>190.43</ele>
        <time>2018-09-21T17:43:31Z</time>
      </trkpt>
      <trkpt lat="44.59548" lon="4.39346">
        <ele>191.09</ele>
        <time>2018-09-21T17:43:33Z</time>
      </trkpt>
      <trkpt lat="44.5953" lon="4.39329">
        <ele>191.14</ele>
        <time>2018-09-21T17:43:34Z</time>
      </trkpt>
      <trkpt lat="44.59513" lon="4.3931">
        <ele>190.45</ele>
        <time>2018-09-21T17:43:35Z</time>
      </trkpt>
      <trkpt lat="44.59499" lon="4.39292">
        <ele>189.55</ele>
        <time>2018-09-21T17:43:36Z</time>
      </trkpt>
      <trkpt lat="44.59485" lon="4.39273">
        <ele>189.27</ele>
        <time>2018-09-21T17:43:37Z</time>
      </trkpt>
      <trkpt lat="44.59466" lon="4.39243">
        <ele>186.86</ele>
        <time>2018-09-21T17:43:39Z</time>
      </trkpt>
      <trkpt lat="44.59452" lon="4.39215">
        <ele>186.43</ele>
        <time>2018-09-21T17:43:41Z</time>
      </trkpt>
      <trkpt lat="44.59443" lon="4.39187">
        <ele>185.48</ele>
        <time>2018-09-21T17:43:43Z</time>
      </trkpt>
      <trkpt lat="44.59441" lon="4.39158">
        <ele>182.88</ele>
        <time>2018-09-21T17:43:45Z</time>
      </trkpt>
      <trkpt lat="44.59438" lon="4.39133">
        <ele>182.22</ele>
        <time>2018-09-21T17:43:47Z</time>
      </trkpt>
      <trkpt lat="44.59418" lon="4.39104">
        <ele>182.16</ele>
        <time>2018-09-21T17:43:50Z</time>
      </trkpt>
      <trkpt lat="44.59403" lon="4.39072">
        <ele>181.25</ele>
        <time>2018-09-21T17:43:52Z</time>
      </trkpt>
      <trkpt lat="44.59387" lon="4.39031">
        <ele>181.87</ele>
        <time>2018-09-21T17:43:54Z</time>
      </trkpt>
      <trkpt lat="44.59378" lon="4.39002">
        <ele>182.07</ele>
        <time>2018-09-21T17:43:55Z</time>
      </trkpt>
      <trkpt lat="44.59369" lon="4.38975">
        <ele>182.13</ele>
        <time>2018-09-21T17:43:56Z</time>
      </trkpt>
      <trkpt lat="44.5937" lon="4.38935">
        <ele>182.15</ele>
        <time>2018-09-21T17:43:57Z</time>
      </trkpt>
      <trkpt lat="44.59367" lon="4.38902">
        <ele>183.55</ele>
        <time>2018-09-21T17:43:58Z</time>
      </trkpt>
      <trkpt lat="44.59362" lon="4.3887">
        <ele>184.68</ele>
        <time>2018-09-21T17:43:59Z</time>
      </trkpt>
      <trkpt lat="44.59355" lon="4.38838">
        <ele>185.71</ele>
        <time>2018-09-21T17:44:00Z</time>
      </trkpt>
      <trkpt lat="44.59349" lon="4.38804">
        <ele>185.32</ele>
        <time>2018-09-21T17:44:01Z</time>
      </trkpt>
      <trkpt lat="44.59343" lon="4.38773">
        <ele>185.91</ele>
        <time>2018-09-21T17:44:02Z</time>
      </trkpt>
      <trkpt lat="44.59334" lon="4.38746">
        <ele>186.78</ele>
        <time>2018-09-21T17:44:03Z</time>
      </trkpt>
      <trkpt lat="44.59321" lon="4.38714">
        <ele>187.04</ele>
        <time>2018-09-21T17:44:04Z</time>
      </trkpt>
      <trkpt lat="44.59298" lon="4.38692">
        <ele>187.82</ele>
        <time>2018-09-21T17:44:05Z</time>
      </trkpt>
      <trkpt lat="44.5928" lon="4.3867">
        <ele>187.36</ele>
        <time>2018-09-21T17:44:06Z</time>
      </trkpt>
      <trkpt lat="44.5926" lon="4.3865">
        <ele>187.92</ele>
        <time>2018-09-21T17:44:07Z</time>
      </trkpt>
      <trkpt lat="44.59242" lon="4.38635">
        <ele>189.48</ele>
        <time>2018-09-21T17:44:08Z</time>
      </trkpt>
      <trkpt lat="44.5922" lon="4.38621">
        <ele>189.96</ele>
        <time>2018-09-21T17:44:09Z</time>
      </trkpt>
      <trkpt lat="44.592" lon="4.38606">
        <ele>190.1</ele>
        <time>2018-09-21T17:44:10Z</time>
      </trkpt>
      <trkpt lat="44.59173" lon="4.38604">
        <ele>190.14</ele>
        <time>2018-09-21T17:44:11Z</time>
      </trkpt>
      <trkpt lat="44.59148" lon="4.38601">
        <ele>190.85</ele>
        <time>2018-09-21T17:44:12Z</time>
      </trkpt>
      <trkpt lat="44.59123" lon="4.38598">
        <ele>191.07</ele>
        <time>2018-09-21T17:44:13Z</time>
      </trkpt>
      <trkpt lat="44.59097" lon="4.386">
        <ele>191.13</ele>
        <time>2018-09-21T17:44:14Z</time>
      </trkpt>
      <trkpt lat="44.59071" lon="4.38602">
        <ele>190.45</ele>
        <time>2018-09-21T17:44:15Z</time>
      </trkpt>
      <trkpt lat="44.59044" lon="4.38605">
        <ele>190.94</ele>
        <time>2018-09-21T17:44:16Z</time>
      </trkpt>
      <trkpt lat="44.59018" lon="4.38609">
        <ele>191.79</ele>
        <time>2018-09-21T17:44:17Z</time>
      </trkpt>
      <trkpt lat="44.58992" lon="4.38612">
        <ele>191.35</ele>
        <time>2018-09-21T17:44:18Z</time>
      </trkpt>
      <trkpt lat="44.58966" lon="4.38613">
        <ele>191.91</ele>
        <time>2018-09-21T17:44:19Z</time>
      </trkpt>
      <trkpt lat="44.5894" lon="4.38611">
        <ele>192.08</ele>
        <time>2018-09-21T17:44:20Z</time>
      </trkpt>
      <trkpt lat="44.58914" lon="4.38605">
        <ele>190.74</ele>
        <time>2018-09-21T17:44:21Z</time>
      </trkpt>
      <trkpt lat="44.58889" lon="4.38596">
        <ele>190.33</ele>
        <time>2018-09-21T17:44:22Z</time>
      </trkpt>
      <trkpt lat="44.58864" lon="4.38587">
        <ele>190.21</ele>
        <time>2018-09-21T17:44:23Z</time>
      </trkpt>
      <trkpt lat="44.58838" lon="4.38579">
        <ele>190.17</ele>
        <time>2018-09-21T17:44:24Z</time>
      </trkpt>
      <trkpt lat="44.58813" lon="4.3857">
        <ele>190.16</ele>
        <time>2018-09-21T17:44:25Z</time>
      </trkpt>
      <trkpt lat="44.58788" lon="4.38563">
        <ele>190.16</ele>
        <time>2018-09-21T17:44:26Z</time>
      </trkpt>
      <trkpt lat="44.58763" lon="4.38556">
        <ele>190.16</ele>
        <time>2018-09-21T17:44:27Z</time>
      </trkpt>
      <trkpt lat="44.58738" lon="4.38551">
        <ele>190.16</ele>
        <time>2018-09-21T17:44:28Z</time>
      </trkpt>
      <trkpt lat="44.58712" lon="4.38546">
        <ele>190.16</ele>
        <time>2018-09-21T17:44:29Z</time>
      </trkpt>
      <trkpt lat="44.58687" lon="4.38543">
        <ele>189.46</ele>
        <time>2018-09-21T17:44:30Z</time>
      </trkpt>
      <trkpt lat="44.58661" lon="4.3854">
        <ele>189.25</ele>
        <time>2018-09-21T17:44:31Z</time>
      </trkpt>
      <trkpt lat="44.58634" lon="4.38537">
        <ele>189.18</ele>
        <time>2018-09-21T17:44:32Z</time>
      </trkpt>
      <trkpt lat="44.58609" lon="4.38535">
        <ele>188.47</ele>
        <time>2018-09-21T17:44:33Z</time>
      </trkpt>
      <trkpt lat="44.58582" lon="4.38531">
        <ele>188.25</ele>
        <time>2018-09-21T17:44:34Z</time>
      </trkpt>
      <trkpt lat="44.58556" lon="4.38527">
        <ele>187.48</ele>
        <time>2018-09-21T17:44:35Z</time>
      </trkpt>
      <trkpt lat="44.5853" lon="4.38521">
        <ele>187.26</ele>
        <time>2018-09-21T17:44:36Z</time>
      </trkpt>
      <trkpt lat="44.58504" lon="4.38514">
        <ele>186.49</ele>
        <time>2018-09-21T17:44:37Z</time>
      </trkpt>
      <trkpt lat="44.58478" lon="4.38506">
        <ele>185.56</ele>
        <time>2018-09-21T17:44:38Z</time>
      </trkpt>
      <trkpt lat="44.58453" lon="4.38497">
        <ele>185.28</ele>
        <time>2018-09-21T17:44:39Z</time>
      </trkpt>
      <trkpt lat="44.58428" lon="4.38487">
        <ele>185.19</ele>
        <time>2018-09-21T17:44:40Z</time>
      </trkpt>
      <trkpt lat="44.58403" lon="4.38476">
        <ele>184.47</ele>
        <time>2018-09-21T17:44:41Z</time>
      </trkpt>
      <trkpt lat="44.5838" lon="4.38465">
        <ele>184.25</ele>
        <time>2018-09-21T17:44:42Z</time>
      </trkpt>
      <trkpt lat="44.58357" lon="4.38452">
        <ele>183.48</ele>
        <time>2018-09-21T17:44:43Z</time>
      </trkpt>
      <trkpt lat="44.58333" lon="4.38439">
        <ele>183.26</ele>
        <time>2018-09-21T17:44:44Z</time>
      </trkpt>
      <trkpt lat="44.58311" lon="4.38427">
        <ele>183.19</ele>
        <time>2018-09-21T17:44:45Z</time>
      </trkpt>
      <trkpt lat="44.5829" lon="4.38409">
        <ele>183.87</ele>
        <time>2018-09-21T17:44:46Z</time>
      </trkpt>
      <trkpt lat="44.58263" lon="4.3839">
        <ele>183.37</ele>
        <time>2018-09-21T17:44:47Z</time>
      </trkpt>
      <trkpt lat="44.58242" lon="4.38371">
        <ele>183.22</ele>
        <time>2018-09-21T17:44:48Z</time>
      </trkpt>
      <trkpt lat="44.58221" lon="4.38352">
        <ele>182.48</ele>
        <time>2018-09-21T17:44:49Z</time>
      </trkpt>
      <trkpt lat="44.58201" lon="4.38335">
        <ele>181.55</ele>
        <time>2018-09-21T17:44:50Z</time>
      </trkpt>
      <trkpt lat="44.58182" lon="4.38318">
        <ele>181.28</ele>
        <time>2018-09-21T17:44:51Z</time>
      </trkpt>
      <trkpt lat="44.58161" lon="4.38301">
        <ele>181.19</ele>
        <time>2018-09-21T17:44:52Z</time>
      </trkpt>
      <trkpt lat="44.58138" lon="4.38285">
        <ele>181.17</ele>
        <time>2018-09-21T17:44:53Z</time>
      </trkpt>
      <trkpt lat="44.58115" lon="4.38268">
        <ele>181.16</ele>
        <time>2018-09-21T17:44:54Z</time>
      </trkpt>
      <trkpt lat="44.58097" lon="4.38252">
        <ele>181.16</ele>
        <time>2018-09-21T17:44:55Z</time>
      </trkpt>
      <trkpt lat="44.58074" lon="4.38235">
        <ele>182.56</ele>
        <time>2018-09-21T17:44:56Z</time>
      </trkpt>
      <trkpt lat="44.58052" lon="4.38219">
        <ele>182.98</ele>
        <time>2018-09-21T17:44:57Z</time>
      </trkpt>
      <trkpt lat="44.58028" lon="4.38205">
        <ele>183.8</ele>
        <time>2018-09-21T17:44:58Z</time>
      </trkpt>
      <trkpt lat="44.58004" lon="4.38189">
        <ele>184.05</ele>
        <time>2018-09-21T17:44:59Z</time>
      </trkpt>
      <trkpt lat="44.5798" lon="4.38174">
        <ele>183.43</ele>
        <time>2018-09-21T17:45:00Z</time>
      </trkpt>
      <trkpt lat="44.57957" lon="4.3816">
        <ele>182.54</ele>
        <time>2018-09-21T17:45:01Z</time>
      </trkpt>
      <trkpt lat="44.57936" lon="4.38147">
        <ele>182.27</ele>
        <time>2018-09-21T17:45:02Z</time>
      </trkpt>
      <trkpt lat="44.57915" lon="4.38135">
        <ele>181.49</ele>
        <time>2018-09-21T17:45:03Z</time>
      </trkpt>
      <trkpt lat="44.57893" lon="4.38124">
        <ele>181.26</ele>
        <time>2018-09-21T17:45:04Z</time>
      </trkpt>
      <trkpt lat="44.57868" lon="4.38115">
        <ele>179.79</ele>
        <time>2018-09-21T17:45:05Z</time>
      </trkpt>
      <trkpt lat="44.57845" lon="4.38097">
        <ele>179.35</ele>
        <time>2018-09-21T17:45:06Z</time>
      </trkpt>
      <trkpt lat="44.57822" lon="4.38082">
        <ele>179.91</ele>
        <time>2018-09-21T17:45:07Z</time>
      </trkpt>
      <trkpt lat="44.57799" lon="4.38069">
        <ele>180.08</ele>
        <time>2018-09-21T17:45:08Z</time>
      </trkpt>
      <trkpt lat="44.57776" lon="4.38055">
        <ele>180.14</ele>
        <time>2018-09-21T17:45:09Z</time>
      </trkpt>
      <trkpt lat="44.57754" lon="4.38042">
        <ele>180.15</ele>
        <time>2018-09-21T17:45:10Z</time>
      </trkpt>
      <trkpt lat="44.5773" lon="4.3803">
        <ele>180.16</ele>
        <time>2018-09-21T17:45:11Z</time>
      </trkpt>
      <trkpt lat="44.57708" lon="4.38015">
        <ele>179.46</ele>
        <time>2018-09-21T17:45:12Z</time>
      </trkpt>
      <trkpt lat="44.57686" lon="4.38001">
        <ele>179.25</ele>
        <time>2018-09-21T17:45:13Z</time>
      </trkpt>
      <trkpt lat="44.57664" lon="4.37985">
        <ele>179.18</ele>
        <time>2018-09-21T17:45:14Z</time>
      </trkpt>
      <trkpt lat="44.57642" lon="4.37969">
        <ele>179.17</ele>
        <time>2018-09-21T17:45:15Z</time>
      </trkpt>
      <trkpt lat="44.57621" lon="4.37954">
        <ele>179.16</ele>
        <time>2018-09-21T17:45:16Z</time>
      </trkpt>
      <trkpt lat="44.576" lon="4.37939">
        <ele>179.16</ele>
        <time>2018-09-21T17:45:17Z</time>
      </trkpt>
      <trkpt lat="44.5758" lon="4.37924">
        <ele>179.16</ele>
        <time>2018-09-21T17:45:18Z</time>
      </trkpt>
      <trkpt lat="44.57559" lon="4.37909">
        <ele>179.16</ele>
        <time>2018-09-21T17:45:19Z</time>
      </trkpt>
      <trkpt lat="44.57539" lon="4.37893">
        <ele>178.46</ele>
        <time>2018-09-21T17:45:20Z</time>
      </trkpt>
      <trkpt lat="44.57519" lon="4.37878">
        <ele>178.25</ele>
        <time>2018-09-21T17:45:21Z</time>
      </trkpt>
      <trkpt lat="44.57499" lon="4.37863">
        <ele>178.88</ele>
        <time>2018-09-21T17:45:22Z</time>
      </trkpt>
      <trkpt lat="44.57479" lon="4.37847">
        <ele>178.38</ele>
        <time>2018-09-21T17:45:23Z</time>
      </trkpt>
      <trkpt lat="44.57459" lon="4.37831">
        <ele>178.22</ele>
        <time>2018-09-21T17:45:24Z</time>
      </trkpt>
      <trkpt lat="44.57438" lon="4.37816">
        <ele>177.48</ele>
        <time>2018-09-21T17:45:25Z</time>
      </trkpt>
      <trkpt lat="44.57418" lon="4.378">
        <ele>177.95</ele>
        <time>2018-09-21T17:45:26Z</time>
      </trkpt>
      <trkpt lat="44.57398" lon="4.37786">
        <ele>178.1</ele>
        <time>2018-09-21T17:45:27Z</time>
      </trkpt>
      <trkpt lat="44.57377" lon="4.37771">
        <ele>178.14</ele>
        <time>2018-09-21T17:45:28Z</time>
      </trkpt>
      <trkpt lat="44.57358" lon="4.37758">
        <ele>177.45</ele>
        <time>2018-09-21T17:45:29Z</time>
      </trkpt>
      <trkpt lat="44.57335" lon="4.37742">
        <ele>177.25</ele>
        <time>2018-09-21T17:45:30Z</time>
      </trkpt>
      <trkpt lat="44.57314" lon="4.37729">
        <ele>177.88</ele>
        <time>2018-09-21T17:45:31Z</time>
      </trkpt>
      <trkpt lat="44.57293" lon="4.37713">
        <ele>177.37</ele>
        <time>2018-09-21T17:45:32Z</time>
      </trkpt>
      <trkpt lat="44.57272" lon="4.37699">
        <ele>177.92</ele>
        <time>2018-09-21T17:45:33Z</time>
      </trkpt>
      <trkpt lat="44.5725" lon="4.37686">
        <ele>178.79</ele>
        <time>2018-09-21T17:45:34Z</time>
      </trkpt>
      <trkpt lat="44.57228" lon="4.37671">
        <ele>179.75</ele>
        <time>2018-09-21T17:45:35Z</time>
      </trkpt>
      <trkpt lat="44.57206" lon="4.37657">
        <ele>180.03</ele>
        <time>2018-09-21T17:45:36Z</time>
      </trkpt>
      <trkpt lat="44.57183" lon="4.37645">
        <ele>181.52</ele>
        <time>2018-09-21T17:45:37Z</time>
      </trkpt>
      <trkpt lat="44.57161" lon="4.3763">
        <ele>181.97</ele>
        <time>2018-09-21T17:45:38Z</time>
      </trkpt>
      <trkpt lat="44.57136" lon="4.37618">
        <ele>182.1</ele>
        <time>2018-09-21T17:45:39Z</time>
      </trkpt>
      <trkpt lat="44.57114" lon="4.37606">
        <ele>183.54</ele>
        <time>2018-09-21T17:45:40Z</time>
      </trkpt>
      <trkpt lat="44.57092" lon="4.37591">
        <ele>184.67</ele>
        <time>2018-09-21T17:45:41Z</time>
      </trkpt>
      <trkpt lat="44.57071" lon="4.37579">
        <ele>185.01</ele>
        <time>2018-09-21T17:45:42Z</time>
      </trkpt>
      <trkpt lat="44.57049" lon="4.37566">
        <ele>185.11</ele>
        <time>2018-09-21T17:45:43Z</time>
      </trkpt>
      <trkpt lat="44.57028" lon="4.37551">
        <ele>185.14</ele>
        <time>2018-09-21T17:45:44Z</time>
      </trkpt>
      <trkpt lat="44.57007" lon="4.37536">
        <ele>185.85</ele>
        <time>2018-09-21T17:45:45Z</time>
      </trkpt>
      <trkpt lat="44.56986" lon="4.37522">
        <ele>186.77</ele>
        <time>2018-09-21T17:45:46Z</time>
      </trkpt>
      <trkpt lat="44.56965" lon="4.37507">
        <ele>187.04</ele>
        <time>2018-09-21T17:45:47Z</time>
      </trkpt>
      <trkpt lat="44.56943" lon="4.37492">
        <ele>187.12</ele>
        <time>2018-09-21T17:45:48Z</time>
      </trkpt>
      <trkpt lat="44.56921" lon="4.37478">
        <ele>187.85</ele>
        <time>2018-09-21T17:45:49Z</time>
      </trkpt>
      <trkpt lat="44.56899" lon="4.37462">
        <ele>188.76</ele>
        <time>2018-09-21T17:45:50Z</time>
      </trkpt>
      <trkpt lat="44.56878" lon="4.37445">
        <ele>189.04</ele>
        <time>2018-09-21T17:45:51Z</time>
      </trkpt>
      <trkpt lat="44.56857" lon="4.37431">
        <ele>189.82</ele>
        <time>2018-09-21T17:45:52Z</time>
      </trkpt>
      <trkpt lat="44.56834" lon="4.37415">
        <ele>190.76</ele>
        <time>2018-09-21T17:45:53Z</time>
      </trkpt>
      <trkpt lat="44.56813" lon="4.374">
        <ele>191.04</ele>
        <time>2018-09-21T17:45:54Z</time>
      </trkpt>
      <trkpt lat="44.56792" lon="4.37384">
        <ele>191.12</ele>
        <time>2018-09-21T17:45:55Z</time>
      </trkpt>
      <trkpt lat="44.56772" lon="4.3737">
        <ele>191.15</ele>
        <time>2018-09-21T17:45:56Z</time>
      </trkpt>
      <trkpt lat="44.5675" lon="4.37356">
        <ele>191.85</ele>
        <time>2018-09-21T17:45:57Z</time>
      </trkpt>
      <trkpt lat="44.56732" lon="4.37343">
        <ele>193.47</ele>
        <time>2018-09-21T17:45:58Z</time>
      </trkpt>
      <trkpt lat="44.56708" lon="4.37326">
        <ele>194.65</ele>
        <time>2018-09-21T17:45:59Z</time>
      </trkpt>
      <trkpt lat="44.56686" lon="4.37309">
        <ele>195</ele>
        <time>2018-09-21T17:46:00Z</time>
      </trkpt>
      <trkpt lat="44.56661" lon="4.37289">
        <ele>193.71</ele>
        <time>2018-09-21T17:46:01Z</time>
      </trkpt>
      <trkpt lat="44.56641" lon="4.37269">
        <ele>193.32</ele>
        <time>2018-09-21T17:46:02Z</time>
      </trkpt>
      <trkpt lat="44.56618" lon="4.3725">
        <ele>193.21</ele>
        <time>2018-09-21T17:46:03Z</time>
      </trkpt>
      <trkpt lat="44.56596" lon="4.37231">
        <ele>193.87</ele>
        <time>2018-09-21T17:46:04Z</time>
      </trkpt>
      <trkpt lat="44.56573" lon="4.37212">
        <ele>194.77</ele>
        <time>2018-09-21T17:46:05Z</time>
      </trkpt>
      <trkpt lat="44.56553" lon="4.37193">
        <ele>196.44</ele>
        <time>2018-09-21T17:46:06Z</time>
      </trkpt>
      <trkpt lat="44.56533" lon="4.37175">
        <ele>197.64</ele>
        <time>2018-09-21T17:46:07Z</time>
      </trkpt>
      <trkpt lat="44.5651" lon="4.37156">
        <ele>198</ele>
        <time>2018-09-21T17:46:08Z</time>
      </trkpt>
      <trkpt lat="44.56487" lon="4.37136">
        <ele>198.11</ele>
        <time>2018-09-21T17:46:09Z</time>
      </trkpt>
      <trkpt lat="44.56466" lon="4.37116">
        <ele>198.84</ele>
        <time>2018-09-21T17:46:10Z</time>
      </trkpt>
      <trkpt lat="44.56447" lon="4.37095">
        <ele>199.06</ele>
        <time>2018-09-21T17:46:11Z</time>
      </trkpt>
      <trkpt lat="44.56428" lon="4.37075">
        <ele>199.13</ele>
        <time>2018-09-21T17:46:12Z</time>
      </trkpt>
      <trkpt lat="44.56409" lon="4.37054">
        <ele>199.15</ele>
        <time>2018-09-21T17:46:13Z</time>
      </trkpt>
      <trkpt lat="44.56389" lon="4.37034">
        <ele>199.15</ele>
        <time>2018-09-21T17:46:14Z</time>
      </trkpt>
      <trkpt lat="44.56369" lon="4.37013">
        <ele>199.16</ele>
        <time>2018-09-21T17:46:15Z</time>
      </trkpt>
      <trkpt lat="44.56348" lon="4.36992">
        <ele>199.86</ele>
        <time>2018-09-21T17:46:16Z</time>
      </trkpt>
      <trkpt lat="44.56328" lon="4.36971">
        <ele>200.07</ele>
        <time>2018-09-21T17:46:17Z</time>
      </trkpt>
      <trkpt lat="44.56306" lon="4.36949">
        <ele>200.83</ele>
        <time>2018-09-21T17:46:18Z</time>
      </trkpt>
      <trkpt lat="44.56286" lon="4.36929">
        <ele>201.76</ele>
        <time>2018-09-21T17:46:19Z</time>
      </trkpt>
      <trkpt lat="44.56265" lon="4.36907">
        <ele>202.04</ele>
        <time>2018-09-21T17:46:20Z</time>
      </trkpt>
      <trkpt lat="44.56246" lon="4.36885">
        <ele>202.82</ele>
        <time>2018-09-21T17:46:21Z</time>
      </trkpt>
      <trkpt lat="44.56227" lon="4.36863">
        <ele>203.76</ele>
        <time>2018-09-21T17:46:22Z</time>
      </trkpt>
      <trkpt lat="44.56208" lon="4.36841">
        <ele>204.04</ele>
        <time>2018-09-21T17:46:23Z</time>
      </trkpt>
      <trkpt lat="44.56189" lon="4.36819">
        <ele>204.82</ele>
        <time>2018-09-21T17:46:24Z</time>
      </trkpt>
      <trkpt lat="44.5617" lon="4.36798">
        <ele>205.76</ele>
        <time>2018-09-21T17:46:25Z</time>
      </trkpt>
      <trkpt lat="44.56152" lon="4.36775">
        <ele>205.34</ele>
        <time>2018-09-21T17:46:26Z</time>
      </trkpt>
      <trkpt lat="44.56133" lon="4.36753">
        <ele>205.21</ele>
        <time>2018-09-21T17:46:27Z</time>
      </trkpt>
      <trkpt lat="44.56115" lon="4.36731">
        <ele>205.87</ele>
        <time>2018-09-21T17:46:28Z</time>
      </trkpt>
      <trkpt lat="44.56096" lon="4.36709">
        <ele>206.77</ele>
        <time>2018-09-21T17:46:29Z</time>
      </trkpt>
      <trkpt lat="44.56079" lon="4.36686">
        <ele>207.04</ele>
        <time>2018-09-21T17:46:30Z</time>
      </trkpt>
      <trkpt lat="44.56061" lon="4.36664">
        <ele>207.82</ele>
        <time>2018-09-21T17:46:31Z</time>
      </trkpt>
      <trkpt lat="44.56043" lon="4.36641">
        <ele>207.36</ele>
        <time>2018-09-21T17:46:32Z</time>
      </trkpt>
      <trkpt lat="44.56026" lon="4.3662">
        <ele>207.92</ele>
        <time>2018-09-21T17:46:33Z</time>
      </trkpt>
      <trkpt lat="44.56008" lon="4.36597">
        <ele>208.78</ele>
        <time>2018-09-21T17:46:34Z</time>
      </trkpt>
      <trkpt lat="44.5599" lon="4.36574">
        <ele>209.05</ele>
        <time>2018-09-21T17:46:35Z</time>
      </trkpt>
      <trkpt lat="44.55973" lon="4.36551">
        <ele>208.42</ele>
        <time>2018-09-21T17:46:36Z</time>
      </trkpt>
      <trkpt lat="44.55955" lon="4.36528">
        <ele>208.24</ele>
        <time>2018-09-21T17:46:37Z</time>
      </trkpt>
      <trkpt lat="44.55937" lon="4.36503">
        <ele>209.58</ele>
        <time>2018-09-21T17:46:38Z</time>
      </trkpt>
      <trkpt lat="44.5592" lon="4.36479">
        <ele>209.98</ele>
        <time>2018-09-21T17:46:39Z</time>
      </trkpt>
      <trkpt lat="44.55903" lon="4.36455">
        <ele>210.81</ele>
        <time>2018-09-21T17:46:40Z</time>
      </trkpt>
      <trkpt lat="44.55885" lon="4.3643">
        <ele>210.35</ele>
        <time>2018-09-21T17:46:41Z</time>
      </trkpt>
      <trkpt lat="44.55868" lon="4.36408">
        <ele>210.92</ele>
        <time>2018-09-21T17:46:42Z</time>
      </trkpt>
      <trkpt lat="44.55852" lon="4.36385">
        <ele>210.38</ele>
        <time>2018-09-21T17:46:43Z</time>
      </trkpt>
      <trkpt lat="44.55836" lon="4.36362">
        <ele>210.93</ele>
        <time>2018-09-21T17:46:44Z</time>
      </trkpt>
      <trkpt lat="44.55819" lon="4.3634">
        <ele>211.79</ele>
        <time>2018-09-21T17:46:45Z</time>
      </trkpt>
      <trkpt lat="44.55804" lon="4.36318">
        <ele>210.65</ele>
        <time>2018-09-21T17:46:46Z</time>
      </trkpt>
      <trkpt lat="44.55789" lon="4.36297">
        <ele>211.7</ele>
        <time>2018-09-21T17:46:47Z</time>
      </trkpt>
      <trkpt lat="44.55774" lon="4.36276">
        <ele>212.72</ele>
        <time>2018-09-21T17:46:48Z</time>
      </trkpt>
      <trkpt lat="44.5576" lon="4.36256">
        <ele>213.73</ele>
        <time>2018-09-21T17:46:49Z</time>
      </trkpt>
      <trkpt lat="44.55746" lon="4.36236">
        <ele>214.73</ele>
        <time>2018-09-21T17:46:50Z</time>
      </trkpt>
      <trkpt lat="44.55733" lon="4.36216">
        <ele>215.73</ele>
        <time>2018-09-21T17:46:51Z</time>
      </trkpt>
      <trkpt lat="44.55719" lon="4.36196">
        <ele>216.73</ele>
        <time>2018-09-21T17:46:52Z</time>
      </trkpt>
      <trkpt lat="44.55703" lon="4.36178">
        <ele>217.03</ele>
        <time>2018-09-21T17:46:53Z</time>
      </trkpt>
      <trkpt lat="44.55686" lon="4.36159">
        <ele>217.12</ele>
        <time>2018-09-21T17:46:54Z</time>
      </trkpt>
      <trkpt lat="44.55667" lon="4.3614">
        <ele>217.85</ele>
        <time>2018-09-21T17:46:55Z</time>
      </trkpt>
      <trkpt lat="44.55648" lon="4.36119">
        <ele>217.36</ele>
        <time>2018-09-21T17:46:56Z</time>
      </trkpt>
      <trkpt lat="44.55627" lon="4.36099">
        <ele>217.92</ele>
        <time>2018-09-21T17:46:57Z</time>
      </trkpt>
      <trkpt lat="44.55605" lon="4.36078">
        <ele>218.79</ele>
        <time>2018-09-21T17:46:58Z</time>
      </trkpt>
      <trkpt lat="44.55584" lon="4.36058">
        <ele>219.75</ele>
        <time>2018-09-21T17:46:59Z</time>
      </trkpt>
      <trkpt lat="44.55563" lon="4.36039">
        <ele>221.43</ele>
        <time>2018-09-21T17:47:00Z</time>
      </trkpt>
      <trkpt lat="44.55542" lon="4.36021">
        <ele>221.94</ele>
        <time>2018-09-21T17:47:01Z</time>
      </trkpt>
      <trkpt lat="44.5552" lon="4.36005">
        <ele>222.09</ele>
        <time>2018-09-21T17:47:02Z</time>
      </trkpt>
      <trkpt lat="44.55499" lon="4.35989">
        <ele>223.54</ele>
        <time>2018-09-21T17:47:03Z</time>
      </trkpt>
      <trkpt lat="44.55477" lon="4.35974">
        <ele>223.97</ele>
        <time>2018-09-21T17:47:04Z</time>
      </trkpt>
      <trkpt lat="44.55455" lon="4.35959">
        <ele>224.1</ele>
        <time>2018-09-21T17:47:05Z</time>
      </trkpt>
      <trkpt lat="44.55433" lon="4.35947">
        <ele>223.44</ele>
        <time>2018-09-21T17:47:06Z</time>
      </trkpt>
      <trkpt lat="44.5541" lon="4.35935">
        <ele>223.94</ele>
        <time>2018-09-21T17:47:07Z</time>
      </trkpt>
      <trkpt lat="44.55387" lon="4.35924">
        <ele>225.49</ele>
        <time>2018-09-21T17:47:08Z</time>
      </trkpt>
      <trkpt lat="44.55365" lon="4.35912">
        <ele>225.96</ele>
        <time>2018-09-21T17:47:09Z</time>
      </trkpt>
      <trkpt lat="44.55341" lon="4.35901">
        <ele>226.8</ele>
        <time>2018-09-21T17:47:10Z</time>
      </trkpt>
      <trkpt lat="44.55318" lon="4.35891">
        <ele>226.35</ele>
        <time>2018-09-21T17:47:11Z</time>
      </trkpt>
      <trkpt lat="44.55295" lon="4.35883">
        <ele>226.21</ele>
        <time>2018-09-21T17:47:12Z</time>
      </trkpt>
      <trkpt lat="44.55271" lon="4.35875">
        <ele>226.17</ele>
        <time>2018-09-21T17:47:13Z</time>
      </trkpt>
      <trkpt lat="44.55249" lon="4.35868">
        <ele>226.16</ele>
        <time>2018-09-21T17:47:14Z</time>
      </trkpt>
      <trkpt lat="44.55226" lon="4.35863">
        <ele>226.86</ele>
        <time>2018-09-21T17:47:15Z</time>
      </trkpt>
      <trkpt lat="44.55201" lon="4.35853">
        <ele>226.37</ele>
        <time>2018-09-21T17:47:16Z</time>
      </trkpt>
      <trkpt lat="44.55176" lon="4.35845">
        <ele>226.92</ele>
        <time>2018-09-21T17:47:17Z</time>
      </trkpt>
      <trkpt lat="44.55151" lon="4.35836">
        <ele>226.39</ele>
        <time>2018-09-21T17:47:18Z</time>
      </trkpt>
      <trkpt lat="44.55127" lon="4.35827">
        <ele>225.53</ele>
        <time>2018-09-21T17:47:19Z</time>
      </trkpt>
      <trkpt lat="44.55102" lon="4.35819">
        <ele>225.27</ele>
        <time>2018-09-21T17:47:20Z</time>
      </trkpt>
      <trkpt lat="44.55078" lon="4.3581">
        <ele>225.19</ele>
        <time>2018-09-21T17:47:21Z</time>
      </trkpt>
      <trkpt lat="44.55054" lon="4.358">
        <ele>225.17</ele>
        <time>2018-09-21T17:47:22Z</time>
      </trkpt>
      <trkpt lat="44.55029" lon="4.3579">
        <ele>224.46</ele>
        <time>2018-09-21T17:47:23Z</time>
      </trkpt>
      <trkpt lat="44.55006" lon="4.3578">
        <ele>223.55</ele>
        <time>2018-09-21T17:47:24Z</time>
      </trkpt>
      <trkpt lat="44.54982" lon="4.35771">
        <ele>223.27</ele>
        <time>2018-09-21T17:47:25Z</time>
      </trkpt>
      <trkpt lat="44.54958" lon="4.35764">
        <ele>223.89</ele>
        <time>2018-09-21T17:47:26Z</time>
      </trkpt>
      <trkpt lat="44.54934" lon="4.35758">
        <ele>223.38</ele>
        <time>2018-09-21T17:47:27Z</time>
      </trkpt>
      <trkpt lat="44.5491" lon="4.35752">
        <ele>223.22</ele>
        <time>2018-09-21T17:47:28Z</time>
      </trkpt>
      <trkpt lat="44.54887" lon="4.35746">
        <ele>223.18</ele>
        <time>2018-09-21T17:47:29Z</time>
      </trkpt>
      <trkpt lat="44.54864" lon="4.3574">
        <ele>223.16</ele>
        <time>2018-09-21T17:47:30Z</time>
      </trkpt>
      <trkpt lat="44.5484" lon="4.35733">
        <ele>222.46</ele>
        <time>2018-09-21T17:47:31Z</time>
      </trkpt>
      <trkpt lat="44.54817" lon="4.35724">
        <ele>222.25</ele>
        <time>2018-09-21T17:47:32Z</time>
      </trkpt>
      <trkpt lat="44.54793" lon="4.35715">
        <ele>222.88</ele>
        <time>2018-09-21T17:47:33Z</time>
      </trkpt>
      <trkpt lat="44.54768" lon="4.35709">
        <ele>223.08</ele>
        <time>2018-09-21T17:47:34Z</time>
      </trkpt>
      <trkpt lat="44.54744" lon="4.35701">
        <ele>223.13</ele>
        <time>2018-09-21T17:47:35Z</time>
      </trkpt>
      <trkpt lat="44.54719" lon="4.35695">
        <ele>222.45</ele>
        <time>2018-09-21T17:47:36Z</time>
      </trkpt>
      <trkpt lat="44.54694" lon="4.35688">
        <ele>221.54</ele>
        <time>2018-09-21T17:47:37Z</time>
      </trkpt>
      <trkpt lat="44.5467" lon="4.35684">
        <ele>222.67</ele>
        <time>2018-09-21T17:47:38Z</time>
      </trkpt>
      <trkpt lat="44.54645" lon="4.35679">
        <ele>223.01</ele>
        <time>2018-09-21T17:47:39Z</time>
      </trkpt>
      <trkpt lat="44.54621" lon="4.35672">
        <ele>222.41</ele>
        <time>2018-09-21T17:47:40Z</time>
      </trkpt>
      <trkpt lat="44.54597" lon="4.35664">
        <ele>222.23</ele>
        <time>2018-09-21T17:47:41Z</time>
      </trkpt>
      <trkpt lat="44.54572" lon="4.35656">
        <ele>221.48</ele>
        <time>2018-09-21T17:47:42Z</time>
      </trkpt>
      <trkpt lat="44.54549" lon="4.35648">
        <ele>221.25</ele>
        <time>2018-09-21T17:47:43Z</time>
      </trkpt>
      <trkpt lat="44.54526" lon="4.35637">
        <ele>220.49</ele>
        <time>2018-09-21T17:47:44Z</time>
      </trkpt>
      <trkpt lat="44.54502" lon="4.35627">
        <ele>220.26</ele>
        <time>2018-09-21T17:47:45Z</time>
      </trkpt>
      <trkpt lat="44.54479" lon="4.35617">
        <ele>219.49</ele>
        <time>2018-09-21T17:47:46Z</time>
      </trkpt>
      <trkpt lat="44.54457" lon="4.35603">
        <ele>219.26</ele>
        <time>2018-09-21T17:47:47Z</time>
      </trkpt>
      <trkpt lat="44.54435" lon="4.35587">
        <ele>218.49</ele>
        <time>2018-09-21T17:47:48Z</time>
      </trkpt>
      <trkpt lat="44.54414" lon="4.35571">
        <ele>218.96</ele>
        <time>2018-09-21T17:47:49Z</time>
      </trkpt>
      <trkpt lat="44.54393" lon="4.35554">
        <ele>219.1</ele>
        <time>2018-09-21T17:47:50Z</time>
      </trkpt>
      <trkpt lat="44.54372" lon="4.35538">
        <ele>219.14</ele>
        <time>2018-09-21T17:47:51Z</time>
      </trkpt>
      <trkpt lat="44.54352" lon="4.35519">
        <ele>219.85</ele>
        <time>2018-09-21T17:47:52Z</time>
      </trkpt>
      <trkpt lat="44.54331" lon="4.35501">
        <ele>220.07</ele>
        <time>2018-09-21T17:47:53Z</time>
      </trkpt>
      <trkpt lat="44.54312" lon="4.35478">
        <ele>220.13</ele>
        <time>2018-09-21T17:47:54Z</time>
      </trkpt>
      <trkpt lat="44.54292" lon="4.35452">
        <ele>220.15</ele>
        <time>2018-09-21T17:47:55Z</time>
      </trkpt>
      <trkpt lat="44.54273" lon="4.35427">
        <ele>220.85</ele>
        <time>2018-09-21T17:47:56Z</time>
      </trkpt>
      <trkpt lat="44.54255" lon="4.35402">
        <ele>221.07</ele>
        <time>2018-09-21T17:47:57Z</time>
      </trkpt>
      <trkpt lat="44.54238" lon="4.35377">
        <ele>221.83</ele>
        <time>2018-09-21T17:47:58Z</time>
      </trkpt>
      <trkpt lat="44.54223" lon="4.35353">
        <ele>222.76</ele>
        <time>2018-09-21T17:47:59Z</time>
      </trkpt>
      <trkpt lat="44.54209" lon="4.35329">
        <ele>223.04</ele>
        <time>2018-09-21T17:48:00Z</time>
      </trkpt>
      <trkpt lat="44.54195" lon="4.35303">
        <ele>223.82</ele>
        <time>2018-09-21T17:48:01Z</time>
      </trkpt>
      <trkpt lat="44.54184" lon="4.3528">
        <ele>225.46</ele>
        <time>2018-09-21T17:48:02Z</time>
      </trkpt>
      <trkpt lat="44.54171" lon="4.35256">
        <ele>223.85</ele>
        <time>2018-09-21T17:48:03Z</time>
      </trkpt>
      <trkpt lat="44.5416" lon="4.35232">
        <ele>223.36</ele>
        <time>2018-09-21T17:48:04Z</time>
      </trkpt>
      <trkpt lat="44.54149" lon="4.35208">
        <ele>223.92</ele>
        <time>2018-09-21T17:48:05Z</time>
      </trkpt>
      <trkpt lat="44.54137" lon="4.35186">
        <ele>223.39</ele>
        <time>2018-09-21T17:48:06Z</time>
      </trkpt>
      <trkpt lat="44.54129" lon="4.35154">
        <ele>222.48</ele>
        <time>2018-09-21T17:48:08Z</time>
      </trkpt>
      <trkpt lat="44.54119" lon="4.3512">
        <ele>222.19</ele>
        <time>2018-09-21T17:48:10Z</time>
      </trkpt>
      <trkpt lat="44.54107" lon="4.35101">
        <ele>221.46</ele>
        <time>2018-09-21T17:48:12Z</time>
      </trkpt>
      <trkpt lat="44.54089" lon="4.35101">
        <ele>221.95</ele>
        <time>2018-09-21T17:48:13Z</time>
      </trkpt>
      <trkpt lat="44.54058" lon="4.35074">
        <ele>222.14</ele>
        <time>2018-09-21T17:48:15Z</time>
      </trkpt>
      <trkpt lat="44.54043" lon="4.35056">
        <ele>221.45</ele>
        <time>2018-09-21T17:48:16Z</time>
      </trkpt>
      <trkpt lat="44.54027" lon="4.35036">
        <ele>221.25</ele>
        <time>2018-09-21T17:48:17Z</time>
      </trkpt>
      <trkpt lat="44.54009" lon="4.35017">
        <ele>221.18</ele>
        <time>2018-09-21T17:48:18Z</time>
      </trkpt>
      <trkpt lat="44.53996" lon="4.34993">
        <ele>220.46</ele>
        <time>2018-09-21T17:48:19Z</time>
      </trkpt>
      <trkpt lat="44.53983" lon="4.34968">
        <ele>220.95</ele>
        <time>2018-09-21T17:48:20Z</time>
      </trkpt>
      <trkpt lat="44.53973" lon="4.34941">
        <ele>220.39</ele>
        <time>2018-09-21T17:48:21Z</time>
      </trkpt>
      <trkpt lat="44.53964" lon="4.34914">
        <ele>220.23</ele>
        <time>2018-09-21T17:48:22Z</time>
      </trkpt>
      <trkpt lat="44.53956" lon="4.34887">
        <ele>220.18</ele>
        <time>2018-09-21T17:48:23Z</time>
      </trkpt>
      <trkpt lat="44.53947" lon="4.34861">
        <ele>220.86</ele>
        <time>2018-09-21T17:48:24Z</time>
      </trkpt>
      <trkpt lat="44.53934" lon="4.34835">
        <ele>220.37</ele>
        <time>2018-09-21T17:48:25Z</time>
      </trkpt>
      <trkpt lat="44.53922" lon="4.3481">
        <ele>220.22</ele>
        <time>2018-09-21T17:48:26Z</time>
      </trkpt>
      <trkpt lat="44.53906" lon="4.34789">
        <ele>218.78</ele>
        <time>2018-09-21T17:48:27Z</time>
      </trkpt>
      <trkpt lat="44.53889" lon="4.34773">
        <ele>216.94</ele>
        <time>2018-09-21T17:48:28Z</time>
      </trkpt>
      <trkpt lat="44.53871" lon="4.34755">
        <ele>214.99</ele>
        <time>2018-09-21T17:48:29Z</time>
      </trkpt>
      <trkpt lat="44.53856" lon="4.34735">
        <ele>214.41</ele>
        <time>2018-09-21T17:48:30Z</time>
      </trkpt>
      <trkpt lat="44.53839" lon="4.34719">
        <ele>214.23</ele>
        <time>2018-09-21T17:48:31Z</time>
      </trkpt>
      <trkpt lat="44.53822" lon="4.34708">
        <ele>213.48</ele>
        <time>2018-09-21T17:48:32Z</time>
      </trkpt>
      <trkpt lat="44.53805" lon="4.34695">
        <ele>211.85</ele>
        <time>2018-09-21T17:48:33Z</time>
      </trkpt>
      <trkpt lat="44.53788" lon="4.34681">
        <ele>211.37</ele>
        <time>2018-09-21T17:48:34Z</time>
      </trkpt>
      <trkpt lat="44.53772" lon="4.34666">
        <ele>211.22</ele>
        <time>2018-09-21T17:48:35Z</time>
      </trkpt>
      <trkpt lat="44.53754" lon="4.34653">
        <ele>210.48</ele>
        <time>2018-09-21T17:48:36Z</time>
      </trkpt>
      <trkpt lat="44.53738" lon="4.34639">
        <ele>209.55</ele>
        <time>2018-09-21T17:48:37Z</time>
      </trkpt>
      <trkpt lat="44.53721" lon="4.34626">
        <ele>207.88</ele>
        <time>2018-09-21T17:48:38Z</time>
      </trkpt>
      <trkpt lat="44.53704" lon="4.34607">
        <ele>206.67</ele>
        <time>2018-09-21T17:48:39Z</time>
      </trkpt>
      <trkpt lat="44.5369" lon="4.34588">
        <ele>205.61</ele>
        <time>2018-09-21T17:48:40Z</time>
      </trkpt>
      <trkpt lat="44.53678" lon="4.34565">
        <ele>204.59</ele>
        <time>2018-09-21T17:48:41Z</time>
      </trkpt>
      <trkpt lat="44.53665" lon="4.34546">
        <ele>203.59</ele>
        <time>2018-09-21T17:48:42Z</time>
      </trkpt>
      <trkpt lat="44.53635" lon="4.34514">
        <ele>201.1</ele>
        <time>2018-09-21T17:48:44Z</time>
      </trkpt>
      <trkpt lat="44.53617" lon="4.345">
        <ele>200.44</ele>
        <time>2018-09-21T17:48:45Z</time>
      </trkpt>
      <trkpt lat="44.53595" lon="4.34489">
        <ele>199.54</ele>
        <time>2018-09-21T17:48:46Z</time>
      </trkpt>
      <trkpt lat="44.5357" lon="4.34476">
        <ele>198.57</ele>
        <time>2018-09-21T17:48:47Z</time>
      </trkpt>
      <trkpt lat="44.53547" lon="4.34463">
        <ele>197.58</ele>
        <time>2018-09-21T17:48:48Z</time>
      </trkpt>
      <trkpt lat="44.53524" lon="4.34449">
        <ele>196.58</ele>
        <time>2018-09-21T17:48:49Z</time>
      </trkpt>
      <trkpt lat="44.53502" lon="4.34435">
        <ele>196.29</ele>
        <time>2018-09-21T17:48:50Z</time>
      </trkpt>
      <trkpt lat="44.53481" lon="4.3442">
        <ele>196.2</ele>
        <time>2018-09-21T17:48:51Z</time>
      </trkpt>
      <trkpt lat="44.53461" lon="4.34403">
        <ele>196.17</ele>
        <time>2018-09-21T17:48:52Z</time>
      </trkpt>
      <trkpt lat="44.53441" lon="4.34386">
        <ele>196.86</ele>
        <time>2018-09-21T17:48:53Z</time>
      </trkpt>
      <trkpt lat="44.5342" lon="4.3437">
        <ele>196.37</ele>
        <time>2018-09-21T17:48:54Z</time>
      </trkpt>
      <trkpt lat="44.53402" lon="4.34345">
        <ele>194.82</ele>
        <time>2018-09-21T17:48:55Z</time>
      </trkpt>
      <trkpt lat="44.53384" lon="4.34323">
        <ele>193.66</ele>
        <time>2018-09-21T17:48:56Z</time>
      </trkpt>
      <trkpt lat="44.53368" lon="4.34304">
        <ele>192.61</ele>
        <time>2018-09-21T17:48:57Z</time>
      </trkpt>
      <trkpt lat="44.53351" lon="4.34287">
        <ele>191.59</ele>
        <time>2018-09-21T17:48:58Z</time>
      </trkpt>
      <trkpt lat="44.53335" lon="4.3427">
        <ele>190.59</ele>
        <time>2018-09-21T17:48:59Z</time>
      </trkpt>
      <trkpt lat="44.53319" lon="4.34252">
        <ele>189.59</ele>
        <time>2018-09-21T17:49:00Z</time>
      </trkpt>
      <trkpt lat="44.53303" lon="4.34235">
        <ele>189.29</ele>
        <time>2018-09-21T17:49:01Z</time>
      </trkpt>
      <trkpt lat="44.53288" lon="4.34217">
        <ele>189.2</ele>
        <time>2018-09-21T17:49:02Z</time>
      </trkpt>
      <trkpt lat="44.53272" lon="4.34202">
        <ele>189.17</ele>
        <time>2018-09-21T17:49:03Z</time>
      </trkpt>
      <trkpt lat="44.53258" lon="4.34186">
        <ele>188.46</ele>
        <time>2018-09-21T17:49:04Z</time>
      </trkpt>
      <trkpt lat="44.53236" lon="4.34161">
        <ele>187.48</ele>
        <time>2018-09-21T17:49:06Z</time>
      </trkpt>
      <trkpt lat="44.53221" lon="4.3414">
        <ele>186.49</ele>
        <time>2018-09-21T17:49:08Z</time>
      </trkpt>
      <trkpt lat="44.53209" lon="4.34117">
        <ele>186.1</ele>
        <time>2018-09-21T17:49:12Z</time>
      </trkpt>
      <trkpt lat="44.53189" lon="4.341">
        <ele>187.07</ele>
        <time>2018-09-21T17:49:15Z</time>
      </trkpt>
      <trkpt lat="44.53163" lon="4.34087">
        <ele>187.36</ele>
        <time>2018-09-21T17:49:17Z</time>
      </trkpt>
      <trkpt lat="44.53143" lon="4.34073">
        <ele>187.22</ele>
        <time>2018-09-21T17:49:18Z</time>
      </trkpt>
      <trkpt lat="44.53126" lon="4.3406">
        <ele>186.48</ele>
        <time>2018-09-21T17:49:19Z</time>
      </trkpt>
      <trkpt lat="44.53107" lon="4.34047">
        <ele>186.25</ele>
        <time>2018-09-21T17:49:20Z</time>
      </trkpt>
      <trkpt lat="44.53088" lon="4.34034">
        <ele>186.19</ele>
        <time>2018-09-21T17:49:21Z</time>
      </trkpt>
      <trkpt lat="44.53067" lon="4.34018">
        <ele>186.17</ele>
        <time>2018-09-21T17:49:22Z</time>
      </trkpt>
      <trkpt lat="44.53048" lon="4.34004">
        <ele>186.16</ele>
        <time>2018-09-21T17:49:23Z</time>
      </trkpt>
      <trkpt lat="44.53029" lon="4.33991">
        <ele>185.46</ele>
        <time>2018-09-21T17:49:24Z</time>
      </trkpt>
      <trkpt lat="44.53012" lon="4.33979">
        <ele>184.55</ele>
        <time>2018-09-21T17:49:25Z</time>
      </trkpt>
      <trkpt lat="44.52994" lon="4.33968">
        <ele>183.57</ele>
        <time>2018-09-21T17:49:26Z</time>
      </trkpt>
      <trkpt lat="44.52976" lon="4.33957">
        <ele>183.28</ele>
        <time>2018-09-21T17:49:27Z</time>
      </trkpt>
      <trkpt lat="44.52959" lon="4.33944">
        <ele>181.09</ele>
        <time>2018-09-21T17:49:28Z</time>
      </trkpt>
      <trkpt lat="44.52941" lon="4.33936">
        <ele>181.14</ele>
        <time>2018-09-21T17:49:29Z</time>
      </trkpt>
      <trkpt lat="44.52922" lon="4.33928">
        <ele>179.75</ele>
        <time>2018-09-21T17:49:30Z</time>
      </trkpt>
      <trkpt lat="44.52904" lon="4.33922">
        <ele>180.04</ele>
        <time>2018-09-21T17:49:31Z</time>
      </trkpt>
      <trkpt lat="44.52886" lon="4.33918">
        <ele>180.12</ele>
        <time>2018-09-21T17:49:32Z</time>
      </trkpt>
      <trkpt lat="44.52866" lon="4.33916">
        <ele>180.15</ele>
        <time>2018-09-21T17:49:33Z</time>
      </trkpt>
      <trkpt lat="44.52847" lon="4.33914">
        <ele>179.45</ele>
        <time>2018-09-21T17:49:34Z</time>
      </trkpt>
      <trkpt lat="44.5281" lon="4.33905">
        <ele>176.66</ele>
        <time>2018-09-21T17:49:36Z</time>
      </trkpt>
      <trkpt lat="44.52791" lon="4.33901">
        <ele>175.61</ele>
        <time>2018-09-21T17:49:37Z</time>
      </trkpt>
      <trkpt lat="44.52772" lon="4.33897">
        <ele>175.29</ele>
        <time>2018-09-21T17:49:38Z</time>
      </trkpt>
      <trkpt lat="44.52754" lon="4.33889">
        <ele>175.2</ele>
        <time>2018-09-21T17:49:39Z</time>
      </trkpt>
      <trkpt lat="44.5272" lon="4.33876">
        <ele>173.55</ele>
        <time>2018-09-21T17:49:41Z</time>
      </trkpt>
      <trkpt lat="44.52689" lon="4.33867">
        <ele>173.89</ele>
        <time>2018-09-21T17:49:43Z</time>
      </trkpt>
      <trkpt lat="44.52655" lon="4.33864">
        <ele>173.22</ele>
        <time>2018-09-21T17:49:45Z</time>
      </trkpt>
      <trkpt lat="44.5262" lon="4.33862">
        <ele>173.16</ele>
        <time>2018-09-21T17:49:47Z</time>
      </trkpt>
      <trkpt lat="44.52584" lon="4.33856">
        <ele>173.16</ele>
        <time>2018-09-21T17:49:49Z</time>
      </trkpt>
      <trkpt lat="44.52565" lon="4.33853">
        <ele>173.16</ele>
        <time>2018-09-21T17:49:50Z</time>
      </trkpt>
      <trkpt lat="44.52547" lon="4.33851">
        <ele>172.46</ele>
        <time>2018-09-21T17:49:51Z</time>
      </trkpt>
      <trkpt lat="44.52528" lon="4.33849">
        <ele>171.55</ele>
        <time>2018-09-21T17:49:52Z</time>
      </trkpt>
      <trkpt lat="44.52508" lon="4.33849">
        <ele>171.27</ele>
        <time>2018-09-21T17:49:53Z</time>
      </trkpt>
      <trkpt lat="44.52489" lon="4.33848">
        <ele>171.19</ele>
        <time>2018-09-21T17:49:54Z</time>
      </trkpt>
      <trkpt lat="44.5247" lon="4.33847">
        <ele>171.87</ele>
        <time>2018-09-21T17:49:55Z</time>
      </trkpt>
      <trkpt lat="44.52452" lon="4.33849">
        <ele>171.37</ele>
        <time>2018-09-21T17:49:56Z</time>
      </trkpt>
      <trkpt lat="44.52432" lon="4.3385">
        <ele>171.22</ele>
        <time>2018-09-21T17:49:57Z</time>
      </trkpt>
      <trkpt lat="44.52414" lon="4.33851">
        <ele>171.18</ele>
        <time>2018-09-21T17:49:58Z</time>
      </trkpt>
      <trkpt lat="44.52396" lon="4.33852">
        <ele>170.46</ele>
        <time>2018-09-21T17:49:59Z</time>
      </trkpt>
      <trkpt lat="44.52361" lon="4.33856">
        <ele>170.18</ele>
        <time>2018-09-21T17:50:01Z</time>
      </trkpt>
      <trkpt lat="44.52329" lon="4.33852">
        <ele>168.55</ele>
        <time>2018-09-21T17:50:03Z</time>
      </trkpt>
      <trkpt lat="44.52297" lon="4.3384">
        <ele>167.28</ele>
        <time>2018-09-21T17:50:05Z</time>
      </trkpt>
      <trkpt lat="44.5227" lon="4.3382">
        <ele>168.36</ele>
        <time>2018-09-21T17:50:07Z</time>
      </trkpt>
      <trkpt lat="44.52244" lon="4.33797">
        <ele>168.39</ele>
        <time>2018-09-21T17:50:09Z</time>
      </trkpt>
      <trkpt lat="44.52221" lon="4.33774">
        <ele>167.27</ele>
        <time>2018-09-21T17:50:11Z</time>
      </trkpt>
      <trkpt lat="44.52197" lon="4.33747">
        <ele>168.99</ele>
        <time>2018-09-21T17:50:13Z</time>
      </trkpt>
      <trkpt lat="44.52185" lon="4.33722">
        <ele>169.11</ele>
        <time>2018-09-21T17:50:14Z</time>
      </trkpt>
      <trkpt lat="44.52173" lon="4.33697">
        <ele>168.44</ele>
        <time>2018-09-21T17:50:15Z</time>
      </trkpt>
      <trkpt lat="44.52163" lon="4.33671">
        <ele>166.84</ele>
        <time>2018-09-21T17:50:16Z</time>
      </trkpt>
      <trkpt lat="44.52152" lon="4.33648">
        <ele>165.66</ele>
        <time>2018-09-21T17:50:17Z</time>
      </trkpt>
      <trkpt lat="44.52133" lon="4.33608">
        <ele>164.5</ele>
        <time>2018-09-21T17:50:19Z</time>
      </trkpt>
      <trkpt lat="44.52113" lon="4.3357">
        <ele>164.19</ele>
        <time>2018-09-21T17:50:21Z</time>
      </trkpt>
      <trkpt lat="44.52096" lon="4.33533">
        <ele>163.25</ele>
        <time>2018-09-21T17:50:23Z</time>
      </trkpt>
      <trkpt lat="44.52078" lon="4.33496">
        <ele>162.47</ele>
        <time>2018-09-21T17:50:25Z</time>
      </trkpt>
      <trkpt lat="44.52067" lon="4.33473">
        <ele>162.25</ele>
        <time>2018-09-21T17:50:26Z</time>
      </trkpt>
      <trkpt lat="44.52058" lon="4.33446">
        <ele>162.18</ele>
        <time>2018-09-21T17:50:27Z</time>
      </trkpt>
      <trkpt lat="44.52054" lon="4.33418">
        <ele>162.87</ele>
        <time>2018-09-21T17:50:28Z</time>
      </trkpt>
      <trkpt lat="44.52049" lon="4.33394">
        <ele>163.07</ele>
        <time>2018-09-21T17:50:29Z</time>
      </trkpt>
      <trkpt lat="44.5204" lon="4.33348">
        <ele>162.45</ele>
        <time>2018-09-21T17:50:31Z</time>
      </trkpt>
      <trkpt lat="44.52031" lon="4.33306">
        <ele>162.18</ele>
        <time>2018-09-21T17:50:33Z</time>
      </trkpt>
      <trkpt lat="44.52028" lon="4.33281">
        <ele>161.46</ele>
        <time>2018-09-21T17:50:34Z</time>
      </trkpt>
      <trkpt lat="44.52025" lon="4.33241">
        <ele>160.48</ele>
        <time>2018-09-21T17:50:36Z</time>
      </trkpt>
      <trkpt lat="44.52042" lon="4.33201">
        <ele>159.49</ele>
        <time>2018-09-21T17:50:38Z</time>
      </trkpt>
      <trkpt lat="44.52059" lon="4.33163">
        <ele>159.19</ele>
        <time>2018-09-21T17:50:40Z</time>
      </trkpt>
      <trkpt lat="44.52081" lon="4.33118">
        <ele>158.25</ele>
        <time>2018-09-21T17:50:42Z</time>
      </trkpt>
      <trkpt lat="44.52094" lon="4.33097">
        <ele>157.48</ele>
        <time>2018-09-21T17:50:43Z</time>
      </trkpt>
      <trkpt lat="44.52106" lon="4.33075">
        <ele>156.56</ele>
        <time>2018-09-21T17:50:44Z</time>
      </trkpt>
      <trkpt lat="44.52117" lon="4.33053">
        <ele>155.58</ele>
        <time>2018-09-21T17:50:45Z</time>
      </trkpt>
      <trkpt lat="44.52126" lon="4.3303">
        <ele>154.58</ele>
        <time>2018-09-21T17:50:46Z</time>
      </trkpt>
      <trkpt lat="44.52133" lon="4.32986">
        <ele>153.29</ele>
        <time>2018-09-21T17:50:48Z</time>
      </trkpt>
      <trkpt lat="44.5213" lon="4.32939">
        <ele>153.17</ele>
        <time>2018-09-21T17:50:50Z</time>
      </trkpt>
      <trkpt lat="44.52117" lon="4.32899">
        <ele>153.16</ele>
        <time>2018-09-21T17:50:52Z</time>
      </trkpt>
      <trkpt lat="44.52103" lon="4.32865">
        <ele>153.86</ele>
        <time>2018-09-21T17:50:54Z</time>
      </trkpt>
      <trkpt lat="44.5209" lon="4.32834">
        <ele>155.74</ele>
        <time>2018-09-21T17:50:56Z</time>
      </trkpt>
      <trkpt lat="44.52077" lon="4.32806">
        <ele>157.03</ele>
        <time>2018-09-21T17:50:58Z</time>
      </trkpt>
      <trkpt lat="44.52063" lon="4.32777">
        <ele>157.15</ele>
        <time>2018-09-21T17:51:00Z</time>
      </trkpt>
      <trkpt lat="44.5205" lon="4.32749">
        <ele>157.16</ele>
        <time>2018-09-21T17:51:02Z</time>
      </trkpt>
      <trkpt lat="44.52036" lon="4.32718">
        <ele>157.86</ele>
        <time>2018-09-21T17:51:04Z</time>
      </trkpt>
      <trkpt lat="44.52023" lon="4.32687">
        <ele>158.13</ele>
        <time>2018-09-21T17:51:06Z</time>
      </trkpt>
      <trkpt lat="44.5201" lon="4.32663">
        <ele>160.46</ele>
        <time>2018-09-21T17:51:08Z</time>
      </trkpt>
      <trkpt lat="44.51998" lon="4.32639">
        <ele>161.09</ele>
        <time>2018-09-21T17:51:10Z</time>
      </trkpt>
      <trkpt lat="44.51987" lon="4.32612">
        <ele>161.15</ele>
        <time>2018-09-21T17:51:12Z</time>
      </trkpt>
      <trkpt lat="44.51972" lon="4.32578">
        <ele>161.37</ele>
        <time>2018-09-21T17:51:14Z</time>
      </trkpt>
      <trkpt lat="44.51956" lon="4.32539">
        <ele>161.18</ele>
        <time>2018-09-21T17:51:16Z</time>
      </trkpt>
      <trkpt lat="44.51936" lon="4.32503">
        <ele>160.67</ele>
        <time>2018-09-21T17:51:18Z</time>
      </trkpt>
      <trkpt lat="44.51925" lon="4.32465">
        <ele>158.38</ele>
        <time>2018-09-21T17:51:20Z</time>
      </trkpt>
      <trkpt lat="44.5191" lon="4.3243">
        <ele>159.09</ele>
        <time>2018-09-21T17:51:22Z</time>
      </trkpt>
      <trkpt lat="44.51893" lon="4.32392">
        <ele>160.06</ele>
        <time>2018-09-21T17:51:24Z</time>
      </trkpt>
      <trkpt lat="44.51873" lon="4.32351">
        <ele>160.15</ele>
        <time>2018-09-21T17:51:26Z</time>
      </trkpt>
      <trkpt lat="44.51861" lon="4.3233">
        <ele>159.45</ele>
        <time>2018-09-21T17:51:27Z</time>
      </trkpt>
      <trkpt lat="44.51849" lon="4.32308">
        <ele>159.25</ele>
        <time>2018-09-21T17:51:28Z</time>
      </trkpt>
      <trkpt lat="44.51835" lon="4.32287">
        <ele>158.48</ele>
        <time>2018-09-21T17:51:29Z</time>
      </trkpt>
      <trkpt lat="44.51818" lon="4.3227">
        <ele>158.96</ele>
        <time>2018-09-21T17:51:30Z</time>
      </trkpt>
      <trkpt lat="44.51802" lon="4.32254">
        <ele>158.4</ele>
        <time>2018-09-21T17:51:31Z</time>
      </trkpt>
      <trkpt lat="44.51785" lon="4.32237">
        <ele>158.93</ele>
        <time>2018-09-21T17:51:32Z</time>
      </trkpt>
      <trkpt lat="44.51768" lon="4.3222">
        <ele>159.79</ele>
        <time>2018-09-21T17:51:33Z</time>
      </trkpt>
      <trkpt lat="44.51751" lon="4.32205">
        <ele>160.05</ele>
        <time>2018-09-21T17:51:34Z</time>
      </trkpt>
      <trkpt lat="44.51734" lon="4.32188">
        <ele>159.42</ele>
        <time>2018-09-21T17:51:35Z</time>
      </trkpt>
      <trkpt lat="44.51717" lon="4.32173">
        <ele>159.94</ele>
        <time>2018-09-21T17:51:36Z</time>
      </trkpt>
      <trkpt lat="44.517" lon="4.32157">
        <ele>160.79</ele>
        <time>2018-09-21T17:51:37Z</time>
      </trkpt>
      <trkpt lat="44.51683" lon="4.32139">
        <ele>161.05</ele>
        <time>2018-09-21T17:51:38Z</time>
      </trkpt>
      <trkpt lat="44.51665" lon="4.32122">
        <ele>161.12</ele>
        <time>2018-09-21T17:51:39Z</time>
      </trkpt>
      <trkpt lat="44.51648" lon="4.32105">
        <ele>160.45</ele>
        <time>2018-09-21T17:51:40Z</time>
      </trkpt>
      <trkpt lat="44.5163" lon="4.32087">
        <ele>159.54</ele>
        <time>2018-09-21T17:51:41Z</time>
      </trkpt>
      <trkpt lat="44.51612" lon="4.3207">
        <ele>159.27</ele>
        <time>2018-09-21T17:51:42Z</time>
      </trkpt>
      <trkpt lat="44.51594" lon="4.32052">
        <ele>160.59</ele>
        <time>2018-09-21T17:51:43Z</time>
      </trkpt>
      <trkpt lat="44.51574" lon="4.32033">
        <ele>159.59</ele>
        <time>2018-09-21T17:51:44Z</time>
      </trkpt>
      <trkpt lat="44.51555" lon="4.32016">
        <ele>159.99</ele>
        <time>2018-09-21T17:51:45Z</time>
      </trkpt>
      <trkpt lat="44.51536" lon="4.31998">
        <ele>160.11</ele>
        <time>2018-09-21T17:51:46Z</time>
      </trkpt>
      <trkpt lat="44.51516" lon="4.3198">
        <ele>160.14</ele>
        <time>2018-09-21T17:51:47Z</time>
      </trkpt>
      <trkpt lat="44.51497" lon="4.31961">
        <ele>160.15</ele>
        <time>2018-09-21T17:51:48Z</time>
      </trkpt>
      <trkpt lat="44.51477" lon="4.31944">
        <ele>160.86</ele>
        <time>2018-09-21T17:51:49Z</time>
      </trkpt>
      <trkpt lat="44.51459" lon="4.31926">
        <ele>161.07</ele>
        <time>2018-09-21T17:51:50Z</time>
      </trkpt>
      <trkpt lat="44.51442" lon="4.31906">
        <ele>160.43</ele>
        <time>2018-09-21T17:51:51Z</time>
      </trkpt>
      <trkpt lat="44.51425" lon="4.31887">
        <ele>160.94</ele>
        <time>2018-09-21T17:51:52Z</time>
      </trkpt>
      <trkpt lat="44.51411" lon="4.31869">
        <ele>161.09</ele>
        <time>2018-09-21T17:51:53Z</time>
      </trkpt>
      <trkpt lat="44.51397" lon="4.31847">
        <ele>161.14</ele>
        <time>2018-09-21T17:51:54Z</time>
      </trkpt>
      <trkpt lat="44.51383" lon="4.31823">
        <ele>160.45</ele>
        <time>2018-09-21T17:51:55Z</time>
      </trkpt>
      <trkpt lat="44.51355" lon="4.31788">
        <ele>162.21</ele>
        <time>2018-09-21T17:51:57Z</time>
      </trkpt>
      <trkpt lat="44.51325" lon="4.3176">
        <ele>163.77</ele>
        <time>2018-09-21T17:51:59Z</time>
      </trkpt>
      <trkpt lat="44.5131" lon="4.31746">
        <ele>164.04</ele>
        <time>2018-09-21T17:52:00Z</time>
      </trkpt>
      <trkpt lat="44.51281" lon="4.31741">
        <ele>164.85</ele>
        <time>2018-09-21T17:52:02Z</time>
      </trkpt>
      <trkpt lat="44.51255" lon="4.31729">
        <ele>165.13</ele>
        <time>2018-09-21T17:52:04Z</time>
      </trkpt>
      <trkpt lat="44.51233" lon="4.31719">
        <ele>167.46</ele>
        <time>2018-09-21T17:52:06Z</time>
      </trkpt>
      <trkpt lat="44.51218" lon="4.31705">
        <ele>168.09</ele>
        <time>2018-09-21T17:52:08Z</time>
      </trkpt>
      <trkpt lat="44.51204" lon="4.31676">
        <ele>169.77</ele>
        <time>2018-09-21T17:52:11Z</time>
      </trkpt>
      <trkpt lat="44.51182" lon="4.31675">
        <ele>170.08</ele>
        <time>2018-09-21T17:52:14Z</time>
      </trkpt>
      <trkpt lat="44.51156" lon="4.31685">
        <ele>170.15</ele>
        <time>2018-09-21T17:52:16Z</time>
      </trkpt>
      <trkpt lat="44.51122" lon="4.31696">
        <ele>169.25</ele>
        <time>2018-09-21T17:52:18Z</time>
      </trkpt>
      <trkpt lat="44.51101" lon="4.31694">
        <ele>168.48</ele>
        <time>2018-09-21T17:52:19Z</time>
      </trkpt>
      <trkpt lat="44.51081" lon="4.31695">
        <ele>166.86</ele>
        <time>2018-09-21T17:52:20Z</time>
      </trkpt>
      <trkpt lat="44.51061" lon="4.31694">
        <ele>164.97</ele>
        <time>2018-09-21T17:52:21Z</time>
      </trkpt>
      <trkpt lat="44.51042" lon="4.31693">
        <ele>163.7</ele>
        <time>2018-09-21T17:52:22Z</time>
      </trkpt>
      <trkpt lat="44.51024" lon="4.31692">
        <ele>163.32</ele>
        <time>2018-09-21T17:52:23Z</time>
      </trkpt>
      <trkpt lat="44.51005" lon="4.31693">
        <ele>162.51</ele>
        <time>2018-09-21T17:52:24Z</time>
      </trkpt>
      <trkpt lat="44.50986" lon="4.31692">
        <ele>161.56</ele>
        <time>2018-09-21T17:52:25Z</time>
      </trkpt>
      <trkpt lat="44.50968" lon="4.3169">
        <ele>160.58</ele>
        <time>2018-09-21T17:52:26Z</time>
      </trkpt>
      <trkpt lat="44.50948" lon="4.31687">
        <ele>160.98</ele>
        <time>2018-09-21T17:52:27Z</time>
      </trkpt>
      <trkpt lat="44.50929" lon="4.31681">
        <ele>161.8</ele>
        <time>2018-09-21T17:52:28Z</time>
      </trkpt>
      <trkpt lat="44.5091" lon="4.3167">
        <ele>162.05</ele>
        <time>2018-09-21T17:52:29Z</time>
      </trkpt>
      <trkpt lat="44.50892" lon="4.31657">
        <ele>161.43</ele>
        <time>2018-09-21T17:52:30Z</time>
      </trkpt>
      <trkpt lat="44.50872" lon="4.31645">
        <ele>159.84</ele>
        <time>2018-09-21T17:52:31Z</time>
      </trkpt>
      <trkpt lat="44.50853" lon="4.31631">
        <ele>157.96</ele>
        <time>2018-09-21T17:52:32Z</time>
      </trkpt>
      <trkpt lat="44.50834" lon="4.31618">
        <ele>156</ele>
        <time>2018-09-21T17:52:33Z</time>
      </trkpt>
      <trkpt lat="44.50814" lon="4.31604">
        <ele>154.01</ele>
        <time>2018-09-21T17:52:34Z</time>
      </trkpt>
      <trkpt lat="44.50795" lon="4.31588">
        <ele>152.01</ele>
        <time>2018-09-21T17:52:35Z</time>
      </trkpt>
      <trkpt lat="44.50778" lon="4.3157">
        <ele>150.71</ele>
        <time>2018-09-21T17:52:36Z</time>
      </trkpt>
      <trkpt lat="44.50764" lon="4.31549">
        <ele>150.32</ele>
        <time>2018-09-21T17:52:37Z</time>
      </trkpt>
      <trkpt lat="44.50748" lon="4.3153">
        <ele>149.51</ele>
        <time>2018-09-21T17:52:38Z</time>
      </trkpt>
      <trkpt lat="44.50738" lon="4.31509">
        <ele>149.26</ele>
        <time>2018-09-21T17:52:39Z</time>
      </trkpt>
      <trkpt lat="44.50734" lon="4.31479">
        <ele>149.19</ele>
        <time>2018-09-21T17:52:40Z</time>
      </trkpt>
      <trkpt lat="44.50728" lon="4.31448">
        <ele>149.17</ele>
        <time>2018-09-21T17:52:41Z</time>
      </trkpt>
      <trkpt lat="44.50718" lon="4.3142">
        <ele>148.46</ele>
        <time>2018-09-21T17:52:42Z</time>
      </trkpt>
      <trkpt lat="44.50707" lon="4.31394">
        <ele>148.25</ele>
        <time>2018-09-21T17:52:43Z</time>
      </trkpt>
      <trkpt lat="44.50694" lon="4.31371">
        <ele>148.18</ele>
        <time>2018-09-21T17:52:44Z</time>
      </trkpt>
      <trkpt lat="44.50682" lon="4.31344">
        <ele>147.47</ele>
        <time>2018-09-21T17:52:45Z</time>
      </trkpt>
      <trkpt lat="44.50672" lon="4.31315">
        <ele>146.55</ele>
        <time>2018-09-21T17:52:46Z</time>
      </trkpt>
      <trkpt lat="44.50658" lon="4.3129">
        <ele>145.57</ele>
        <time>2018-09-21T17:52:47Z</time>
      </trkpt>
      <trkpt lat="44.50645" lon="4.31265">
        <ele>145.98</ele>
        <time>2018-09-21T17:52:48Z</time>
      </trkpt>
      <trkpt lat="44.50633" lon="4.31241">
        <ele>146.8</ele>
        <time>2018-09-21T17:52:49Z</time>
      </trkpt>
      <trkpt lat="44.5062" lon="4.31217">
        <ele>147.05</ele>
        <time>2018-09-21T17:52:50Z</time>
      </trkpt>
      <trkpt lat="44.50607" lon="4.31194">
        <ele>147.13</ele>
        <time>2018-09-21T17:52:51Z</time>
      </trkpt>
      <trkpt lat="44.50595" lon="4.31171">
        <ele>147.85</ele>
        <time>2018-09-21T17:52:52Z</time>
      </trkpt>
      <trkpt lat="44.50584" lon="4.3115">
        <ele>148.06</ele>
        <time>2018-09-21T17:52:53Z</time>
      </trkpt>
      <trkpt lat="44.50573" lon="4.3113">
        <ele>148.13</ele>
        <time>2018-09-21T17:52:54Z</time>
      </trkpt>
      <trkpt lat="44.50552" lon="4.3109">
        <ele>149.76</ele>
        <time>2018-09-21T17:52:56Z</time>
      </trkpt>
      <trkpt lat="44.50531" lon="4.31053">
        <ele>149.91</ele>
        <time>2018-09-21T17:52:58Z</time>
      </trkpt>
      <trkpt lat="44.50514" lon="4.31018">
        <ele>150.13</ele>
        <time>2018-09-21T17:53:00Z</time>
      </trkpt>
      <trkpt lat="44.50499" lon="4.30978">
        <ele>150.16</ele>
        <time>2018-09-21T17:53:02Z</time>
      </trkpt>
      <trkpt lat="44.50487" lon="4.30933">
        <ele>149.25</ele>
        <time>2018-09-21T17:53:04Z</time>
      </trkpt>
      <trkpt lat="44.50482" lon="4.30908">
        <ele>148.48</ele>
        <time>2018-09-21T17:53:05Z</time>
      </trkpt>
      <trkpt lat="44.50477" lon="4.30883">
        <ele>148.96</ele>
        <time>2018-09-21T17:53:06Z</time>
      </trkpt>
      <trkpt lat="44.50473" lon="4.30858">
        <ele>149.1</ele>
        <time>2018-09-21T17:53:07Z</time>
      </trkpt>
      <trkpt lat="44.50467" lon="4.30834">
        <ele>149.14</ele>
        <time>2018-09-21T17:53:08Z</time>
      </trkpt>
      <trkpt lat="44.50462" lon="4.30784">
        <ele>149.16</ele>
        <time>2018-09-21T17:53:10Z</time>
      </trkpt>
      <trkpt lat="44.50462" lon="4.30758">
        <ele>149.16</ele>
        <time>2018-09-21T17:53:11Z</time>
      </trkpt>
      <trkpt lat="44.50464" lon="4.30727">
        <ele>149.16</ele>
        <time>2018-09-21T17:53:12Z</time>
      </trkpt>
      <trkpt lat="44.50469" lon="4.30699">
        <ele>149.86</ele>
        <time>2018-09-21T17:53:13Z</time>
      </trkpt>
      <trkpt lat="44.50475" lon="4.30672">
        <ele>150.07</ele>
        <time>2018-09-21T17:53:14Z</time>
      </trkpt>
      <trkpt lat="44.50479" lon="4.30643">
        <ele>151.53</ele>
        <time>2018-09-21T17:53:15Z</time>
      </trkpt>
      <trkpt lat="44.50482" lon="4.30613">
        <ele>153.37</ele>
        <time>2018-09-21T17:53:16Z</time>
      </trkpt>
      <trkpt lat="44.50483" lon="4.30585">
        <ele>154.62</ele>
        <time>2018-09-21T17:53:17Z</time>
      </trkpt>
      <trkpt lat="44.5048" lon="4.30556">
        <ele>156.4</ele>
        <time>2018-09-21T17:53:18Z</time>
      </trkpt>
      <trkpt lat="44.50473" lon="4.30528">
        <ele>156.93</ele>
        <time>2018-09-21T17:53:19Z</time>
      </trkpt>
      <trkpt lat="44.50467" lon="4.30502">
        <ele>157.09</ele>
        <time>2018-09-21T17:53:20Z</time>
      </trkpt>
      <trkpt lat="44.50461" lon="4.30476">
        <ele>157.84</ele>
        <time>2018-09-21T17:53:21Z</time>
      </trkpt>
      <trkpt lat="44.50455" lon="4.30451">
        <ele>157.36</ele>
        <time>2018-09-21T17:53:22Z</time>
      </trkpt>
      <trkpt lat="44.50449" lon="4.30426">
        <ele>157.22</ele>
        <time>2018-09-21T17:53:23Z</time>
      </trkpt>
      <trkpt lat="44.50442" lon="4.30403">
        <ele>157.88</ele>
        <time>2018-09-21T17:53:24Z</time>
      </trkpt>
      <trkpt lat="44.50429" lon="4.30361">
        <ele>157.43</ele>
        <time>2018-09-21T17:53:26Z</time>
      </trkpt>
      <trkpt lat="44.50417" lon="4.30322">
        <ele>157.88</ele>
        <time>2018-09-21T17:53:28Z</time>
      </trkpt>
      <trkpt lat="44.50404" lon="4.30286">
        <ele>159.53</ele>
        <time>2018-09-21T17:53:30Z</time>
      </trkpt>
      <trkpt lat="44.50393" lon="4.30248">
        <ele>160.1</ele>
        <time>2018-09-21T17:53:32Z</time>
      </trkpt>
      <trkpt lat="44.50386" lon="4.30209">
        <ele>161.06</ele>
        <time>2018-09-21T17:53:34Z</time>
      </trkpt>
      <trkpt lat="44.50381" lon="4.3017">
        <ele>161.15</ele>
        <time>2018-09-21T17:53:36Z</time>
      </trkpt>
      <trkpt lat="44.50379" lon="4.30131">
        <ele>161.16</ele>
        <time>2018-09-21T17:53:38Z</time>
      </trkpt>
      <trkpt lat="44.50377" lon="4.30094">
        <ele>160.46</ele>
        <time>2018-09-21T17:53:40Z</time>
      </trkpt>
      <trkpt lat="44.50372" lon="4.30054">
        <ele>160.18</ele>
        <time>2018-09-21T17:53:42Z</time>
      </trkpt>
      <trkpt lat="44.50366" lon="4.30014">
        <ele>159.95</ele>
        <time>2018-09-21T17:53:44Z</time>
      </trkpt>
      <trkpt lat="44.50358" lon="4.29974">
        <ele>161.05</ele>
        <time>2018-09-21T17:53:46Z</time>
      </trkpt>
      <trkpt lat="44.50348" lon="4.29932">
        <ele>162.06</ele>
        <time>2018-09-21T17:53:48Z</time>
      </trkpt>
      <trkpt lat="44.50337" lon="4.29892">
        <ele>162.85</ele>
        <time>2018-09-21T17:53:50Z</time>
      </trkpt>
      <trkpt lat="44.50326" lon="4.2985">
        <ele>162.22</ele>
        <time>2018-09-21T17:53:52Z</time>
      </trkpt>
      <trkpt lat="44.50314" lon="4.29808">
        <ele>161.46</ele>
        <time>2018-09-21T17:53:54Z</time>
      </trkpt>
      <trkpt lat="44.503" lon="4.29764">
        <ele>160.48</ele>
        <time>2018-09-21T17:53:56Z</time>
      </trkpt>
      <trkpt lat="44.50293" lon="4.2974">
        <ele>160.96</ele>
        <time>2018-09-21T17:53:57Z</time>
      </trkpt>
      <trkpt lat="44.50285" lon="4.29715">
        <ele>161.1</ele>
        <time>2018-09-21T17:53:58Z</time>
      </trkpt>
      <trkpt lat="44.50276" lon="4.29689">
        <ele>160.44</ele>
        <time>2018-09-21T17:53:59Z</time>
      </trkpt>
      <trkpt lat="44.50261" lon="4.29662">
        <ele>159.54</ele>
        <time>2018-09-21T17:54:00Z</time>
      </trkpt>
      <trkpt lat="44.50249" lon="4.29635">
        <ele>160.67</ele>
        <time>2018-09-21T17:54:01Z</time>
      </trkpt>
      <trkpt lat="44.50238" lon="4.29606">
        <ele>160.31</ele>
        <time>2018-09-21T17:54:02Z</time>
      </trkpt>
      <trkpt lat="44.50228" lon="4.29579">
        <ele>160.9</ele>
        <time>2018-09-21T17:54:03Z</time>
      </trkpt>
      <trkpt lat="44.50218" lon="4.29553">
        <ele>161.78</ele>
        <time>2018-09-21T17:54:04Z</time>
      </trkpt>
      <trkpt lat="44.50201" lon="4.29514">
        <ele>162.12</ele>
        <time>2018-09-21T17:54:06Z</time>
      </trkpt>
      <trkpt lat="44.50184" lon="4.29478">
        <ele>162.85</ele>
        <time>2018-09-21T17:54:08Z</time>
      </trkpt>
      <trkpt lat="44.50174" lon="4.29455">
        <ele>163.77</ele>
        <time>2018-09-21T17:54:09Z</time>
      </trkpt>
      <trkpt lat="44.50164" lon="4.29431">
        <ele>163.34</ele>
        <time>2018-09-21T17:54:10Z</time>
      </trkpt>
      <trkpt lat="44.50156" lon="4.29405">
        <ele>162.51</ele>
        <time>2018-09-21T17:54:11Z</time>
      </trkpt>
      <trkpt lat="44.50146" lon="4.29381">
        <ele>162.26</ele>
        <time>2018-09-21T17:54:12Z</time>
      </trkpt>
      <trkpt lat="44.50136" lon="4.29359">
        <ele>162.19</ele>
        <time>2018-09-21T17:54:13Z</time>
      </trkpt>
      <trkpt lat="44.50115" lon="4.2931">
        <ele>163.98</ele>
        <time>2018-09-21T17:54:15Z</time>
      </trkpt>
      <trkpt lat="44.50104" lon="4.29286">
        <ele>164.8</ele>
        <time>2018-09-21T17:54:16Z</time>
      </trkpt>
      <trkpt lat="44.50088" lon="4.29254">
        <ele>165.75</ele>
        <time>2018-09-21T17:54:17Z</time>
      </trkpt>
      <trkpt lat="44.50073" lon="4.29222">
        <ele>166.04</ele>
        <time>2018-09-21T17:54:18Z</time>
      </trkpt>
      <trkpt lat="44.5006" lon="4.29187">
        <ele>166.12</ele>
        <time>2018-09-21T17:54:19Z</time>
      </trkpt>
      <trkpt lat="44.50047" lon="4.29156">
        <ele>166.15</ele>
        <time>2018-09-21T17:54:20Z</time>
      </trkpt>
      <trkpt lat="44.50033" lon="4.29123">
        <ele>166.15</ele>
        <time>2018-09-21T17:54:21Z</time>
      </trkpt>
      <trkpt lat="44.50021" lon="4.29092">
        <ele>165.46</ele>
        <time>2018-09-21T17:54:22Z</time>
      </trkpt>
      <trkpt lat="44.5001" lon="4.29068">
        <ele>166.65</ele>
        <time>2018-09-21T17:54:23Z</time>
      </trkpt>
      <trkpt lat="44.5" lon="4.29043">
        <ele>167.7</ele>
        <time>2018-09-21T17:54:24Z</time>
      </trkpt>
      <trkpt lat="44.49991" lon="4.29015">
        <ele>168.02</ele>
        <time>2018-09-21T17:54:25Z</time>
      </trkpt>
      <trkpt lat="44.49983" lon="4.28987">
        <ele>168.12</ele>
        <time>2018-09-21T17:54:26Z</time>
      </trkpt>
      <trkpt lat="44.49974" lon="4.28958">
        <ele>168.84</ele>
        <time>2018-09-21T17:54:27Z</time>
      </trkpt>
      <trkpt lat="44.49967" lon="4.2893">
        <ele>169.06</ele>
        <time>2018-09-21T17:54:28Z</time>
      </trkpt>
      <trkpt lat="44.49959" lon="4.28902">
        <ele>169.13</ele>
        <time>2018-09-21T17:54:29Z</time>
      </trkpt>
      <trkpt lat="44.4995" lon="4.28873">
        <ele>169.15</ele>
        <time>2018-09-21T17:54:30Z</time>
      </trkpt>
      <trkpt lat="44.4994" lon="4.28846">
        <ele>169.85</ele>
        <time>2018-09-21T17:54:31Z</time>
      </trkpt>
      <trkpt lat="44.49928" lon="4.2882">
        <ele>170.77</ele>
        <time>2018-09-21T17:54:32Z</time>
      </trkpt>
      <trkpt lat="44.49917" lon="4.28794">
        <ele>171.74</ele>
        <time>2018-09-21T17:54:33Z</time>
      </trkpt>
      <trkpt lat="44.49904" lon="4.28769">
        <ele>172.03</ele>
        <time>2018-09-21T17:54:34Z</time>
      </trkpt>
      <trkpt lat="44.49892" lon="4.28746">
        <ele>173.52</ele>
        <time>2018-09-21T17:54:35Z</time>
      </trkpt>
      <trkpt lat="44.4988" lon="4.28723">
        <ele>173.97</ele>
        <time>2018-09-21T17:54:36Z</time>
      </trkpt>
      <trkpt lat="44.4987" lon="4.287">
        <ele>174.1</ele>
        <time>2018-09-21T17:54:37Z</time>
      </trkpt>
      <trkpt lat="44.49851" lon="4.28659">
        <ele>175.97</ele>
        <time>2018-09-21T17:54:39Z</time>
      </trkpt>
      <trkpt lat="44.4983" lon="4.28615">
        <ele>175.93</ele>
        <time>2018-09-21T17:54:41Z</time>
      </trkpt>
      <trkpt lat="44.49822" lon="4.2859">
        <ele>176.09</ele>
        <time>2018-09-21T17:54:42Z</time>
      </trkpt>
      <trkpt lat="44.49813" lon="4.28564">
        <ele>176.84</ele>
        <time>2018-09-21T17:54:43Z</time>
      </trkpt>
      <trkpt lat="44.49803" lon="4.28539">
        <ele>177.06</ele>
        <time>2018-09-21T17:54:44Z</time>
      </trkpt>
      <trkpt lat="44.49796" lon="4.28509">
        <ele>177.83</ele>
        <time>2018-09-21T17:54:45Z</time>
      </trkpt>
      <trkpt lat="44.49788" lon="4.28483">
        <ele>178.06</ele>
        <time>2018-09-21T17:54:46Z</time>
      </trkpt>
      <trkpt lat="44.4978" lon="4.28458">
        <ele>179.53</ele>
        <time>2018-09-21T17:54:47Z</time>
      </trkpt>
      <trkpt lat="44.49775" lon="4.28431">
        <ele>179.27</ele>
        <time>2018-09-21T17:54:48Z</time>
      </trkpt>
      <trkpt lat="44.49769" lon="4.28406">
        <ele>178.49</ele>
        <time>2018-09-21T17:54:49Z</time>
      </trkpt>
      <trkpt lat="44.49763" lon="4.28381">
        <ele>178.26</ele>
        <time>2018-09-21T17:54:50Z</time>
      </trkpt>
      <trkpt lat="44.4975" lon="4.28334">
        <ele>178.87</ele>
        <time>2018-09-21T17:54:52Z</time>
      </trkpt>
      <trkpt lat="44.49743" lon="4.28308">
        <ele>179.07</ele>
        <time>2018-09-21T17:54:53Z</time>
      </trkpt>
      <trkpt lat="44.49736" lon="4.28281">
        <ele>178.43</ele>
        <time>2018-09-21T17:54:54Z</time>
      </trkpt>
      <trkpt lat="44.49727" lon="4.28254">
        <ele>178.94</ele>
        <time>2018-09-21T17:54:55Z</time>
      </trkpt>
      <trkpt lat="44.49717" lon="4.28228">
        <ele>179.79</ele>
        <time>2018-09-21T17:54:56Z</time>
      </trkpt>
      <trkpt lat="44.49707" lon="4.28204">
        <ele>180.05</ele>
        <time>2018-09-21T17:54:57Z</time>
      </trkpt>
      <trkpt lat="44.49698" lon="4.28182">
        <ele>179.42</ele>
        <time>2018-09-21T17:54:58Z</time>
      </trkpt>
      <trkpt lat="44.49682" lon="4.28141">
        <ele>177.57</ele>
        <time>2018-09-21T17:55:00Z</time>
      </trkpt>
      <trkpt lat="44.49667" lon="4.28104">
        <ele>177.19</ele>
        <time>2018-09-21T17:55:02Z</time>
      </trkpt>
      <trkpt lat="44.49653" lon="4.28084">
        <ele>177.17</ele>
        <time>2018-09-21T17:55:03Z</time>
      </trkpt>
      <trkpt lat="44.4963" lon="4.28047">
        <ele>178.77</ele>
        <time>2018-09-21T17:55:05Z</time>
      </trkpt>
      <trkpt lat="44.49615" lon="4.28028">
        <ele>176.94</ele>
        <time>2018-09-21T17:55:06Z</time>
      </trkpt>
      <trkpt lat="44.49593" lon="4.28007">
        <ele>176.39</ele>
        <time>2018-09-21T17:55:07Z</time>
      </trkpt>
      <trkpt lat="44.49577" lon="4.27986">
        <ele>175.53</ele>
        <time>2018-09-21T17:55:08Z</time>
      </trkpt>
      <trkpt lat="44.49559" lon="4.27968">
        <ele>174.57</ele>
        <time>2018-09-21T17:55:09Z</time>
      </trkpt>
      <trkpt lat="44.49539" lon="4.27952">
        <ele>173.58</ele>
        <time>2018-09-21T17:55:10Z</time>
      </trkpt>
      <trkpt lat="44.49519" lon="4.27937">
        <ele>173.98</ele>
        <time>2018-09-21T17:55:11Z</time>
      </trkpt>
      <trkpt lat="44.49499" lon="4.27922">
        <ele>173.41</ele>
        <time>2018-09-21T17:55:12Z</time>
      </trkpt>
      <trkpt lat="44.4948" lon="4.27907">
        <ele>173.93</ele>
        <time>2018-09-21T17:55:13Z</time>
      </trkpt>
      <trkpt lat="44.49461" lon="4.27892">
        <ele>174.09</ele>
        <time>2018-09-21T17:55:14Z</time>
      </trkpt>
      <trkpt lat="44.49442" lon="4.27878">
        <ele>174.14</ele>
        <time>2018-09-21T17:55:15Z</time>
      </trkpt>
      <trkpt lat="44.49423" lon="4.27866">
        <ele>174.85</ele>
        <time>2018-09-21T17:55:16Z</time>
      </trkpt>
      <trkpt lat="44.49406" lon="4.27851">
        <ele>174.37</ele>
        <time>2018-09-21T17:55:17Z</time>
      </trkpt>
      <trkpt lat="44.49389" lon="4.27835">
        <ele>174.22</ele>
        <time>2018-09-21T17:55:18Z</time>
      </trkpt>
      <trkpt lat="44.49373" lon="4.27815">
        <ele>172.78</ele>
        <time>2018-09-21T17:55:19Z</time>
      </trkpt>
      <trkpt lat="44.49358" lon="4.27794">
        <ele>171.64</ele>
        <time>2018-09-21T17:55:20Z</time>
      </trkpt>
      <trkpt lat="44.49343" lon="4.27772">
        <ele>172</ele>
        <time>2018-09-21T17:55:21Z</time>
      </trkpt>
      <trkpt lat="44.49328" lon="4.2775">
        <ele>170.71</ele>
        <time>2018-09-21T17:55:22Z</time>
      </trkpt>
      <trkpt lat="44.49314" lon="4.27727">
        <ele>170.32</ele>
        <time>2018-09-21T17:55:23Z</time>
      </trkpt>
      <trkpt lat="44.49299" lon="4.27704">
        <ele>169.51</ele>
        <time>2018-09-21T17:55:24Z</time>
      </trkpt>
      <trkpt lat="44.49285" lon="4.27682">
        <ele>169.26</ele>
        <time>2018-09-21T17:55:25Z</time>
      </trkpt>
      <trkpt lat="44.49271" lon="4.2766">
        <ele>168.49</ele>
        <time>2018-09-21T17:55:26Z</time>
      </trkpt>
      <trkpt lat="44.49258" lon="4.27639">
        <ele>167.56</ele>
        <time>2018-09-21T17:55:27Z</time>
      </trkpt>
      <trkpt lat="44.49246" lon="4.27619">
        <ele>167.28</ele>
        <time>2018-09-21T17:55:28Z</time>
      </trkpt>
      <trkpt lat="44.49235" lon="4.27599">
        <ele>167.19</ele>
        <time>2018-09-21T17:55:29Z</time>
      </trkpt>
      <trkpt lat="44.49214" lon="4.27562">
        <ele>166.46</ele>
        <time>2018-09-21T17:55:31Z</time>
      </trkpt>
      <trkpt lat="44.49195" lon="4.27527">
        <ele>166.18</ele>
        <time>2018-09-21T17:55:33Z</time>
      </trkpt>
      <trkpt lat="44.49177" lon="4.27499">
        <ele>167.07</ele>
        <time>2018-09-21T17:55:35Z</time>
      </trkpt>
      <trkpt lat="44.49162" lon="4.27475">
        <ele>167.15</ele>
        <time>2018-09-21T17:55:37Z</time>
      </trkpt>
      <trkpt lat="44.4915" lon="4.27456">
        <ele>167.16</ele>
        <time>2018-09-21T17:55:39Z</time>
      </trkpt>
      <trkpt lat="44.49139" lon="4.27435">
        <ele>167.86</ele>
        <time>2018-09-21T17:55:41Z</time>
      </trkpt>
      <trkpt lat="44.4913" lon="4.27413">
        <ele>168.13</ele>
        <time>2018-09-21T17:55:43Z</time>
      </trkpt>
      <trkpt lat="44.49112" lon="4.27399">
        <ele>168.15</ele>
        <time>2018-09-21T17:55:45Z</time>
      </trkpt>
      <trkpt lat="44.49094" lon="4.27386">
        <ele>167.25</ele>
        <time>2018-09-21T17:55:47Z</time>
      </trkpt>
      <trkpt lat="44.4907" lon="4.27356">
        <ele>168.08</ele>
        <time>2018-09-21T17:55:49Z</time>
      </trkpt>
      <trkpt lat="44.49045" lon="4.27322">
        <ele>165.63</ele>
        <time>2018-09-21T17:55:51Z</time>
      </trkpt>
      <trkpt lat="44.49019" lon="4.2729">
        <ele>164.29</ele>
        <time>2018-09-21T17:55:53Z</time>
      </trkpt>
      <trkpt lat="44.48994" lon="4.27259">
        <ele>164.17</ele>
        <time>2018-09-21T17:55:55Z</time>
      </trkpt>
      <trkpt lat="44.48967" lon="4.27227">
        <ele>163.25</ele>
        <time>2018-09-21T17:55:57Z</time>
      </trkpt>
      <trkpt lat="44.48941" lon="4.27194">
        <ele>163.17</ele>
        <time>2018-09-21T17:55:59Z</time>
      </trkpt>
      <trkpt lat="44.48927" lon="4.27177">
        <ele>162.46</ele>
        <time>2018-09-21T17:56:00Z</time>
      </trkpt>
      <trkpt lat="44.489" lon="4.27144">
        <ele>162.39</ele>
        <time>2018-09-21T17:56:02Z</time>
      </trkpt>
      <trkpt lat="44.4887" lon="4.27114">
        <ele>162.18</ele>
        <time>2018-09-21T17:56:04Z</time>
      </trkpt>
      <trkpt lat="44.4884" lon="4.2709">
        <ele>162.16</ele>
        <time>2018-09-21T17:56:06Z</time>
      </trkpt>
      <trkpt lat="44.48809" lon="4.27067">
        <ele>162.16</ele>
        <time>2018-09-21T17:56:08Z</time>
      </trkpt>
      <trkpt lat="44.48777" lon="4.27045">
        <ele>161.25</ele>
        <time>2018-09-21T17:56:10Z</time>
      </trkpt>
      <trkpt lat="44.48745" lon="4.27025">
        <ele>161.17</ele>
        <time>2018-09-21T17:56:12Z</time>
      </trkpt>
      <trkpt lat="44.48714" lon="4.27006">
        <ele>161.16</ele>
        <time>2018-09-21T17:56:14Z</time>
      </trkpt>
      <trkpt lat="44.48683" lon="4.26987">
        <ele>161.16</ele>
        <time>2018-09-21T17:56:16Z</time>
      </trkpt>
      <trkpt lat="44.48651" lon="4.26969">
        <ele>161.16</ele>
        <time>2018-09-21T17:56:18Z</time>
      </trkpt>
      <trkpt lat="44.48623" lon="4.26952">
        <ele>161.16</ele>
        <time>2018-09-21T17:56:20Z</time>
      </trkpt>
      <trkpt lat="44.48595" lon="4.26937">
        <ele>161.16</ele>
        <time>2018-09-21T17:56:22Z</time>
      </trkpt>
      <trkpt lat="44.48566" lon="4.26922">
        <ele>160.25</ele>
        <time>2018-09-21T17:56:24Z</time>
      </trkpt>
      <trkpt lat="44.48537" lon="4.26908">
        <ele>160.17</ele>
        <time>2018-09-21T17:56:26Z</time>
      </trkpt>
      <trkpt lat="44.48511" lon="4.26892">
        <ele>160.16</ele>
        <time>2018-09-21T17:56:28Z</time>
      </trkpt>
      <trkpt lat="44.48487" lon="4.26873">
        <ele>159.25</ele>
        <time>2018-09-21T17:56:30Z</time>
      </trkpt>
      <trkpt lat="44.48466" lon="4.26851">
        <ele>158.47</ele>
        <time>2018-09-21T17:56:32Z</time>
      </trkpt>
      <trkpt lat="44.48447" lon="4.26825">
        <ele>158.18</ele>
        <time>2018-09-21T17:56:34Z</time>
      </trkpt>
      <trkpt lat="44.48431" lon="4.26797">
        <ele>157.25</ele>
        <time>2018-09-21T17:56:36Z</time>
      </trkpt>
      <trkpt lat="44.48419" lon="4.26771">
        <ele>157.38</ele>
        <time>2018-09-21T17:56:38Z</time>
      </trkpt>
      <trkpt lat="44.48407" lon="4.26745">
        <ele>157.18</ele>
        <time>2018-09-21T17:56:40Z</time>
      </trkpt>
      <trkpt lat="44.48397" lon="4.26724">
        <ele>156.46</ele>
        <time>2018-09-21T17:56:42Z</time>
      </trkpt>
      <trkpt lat="44.48385" lon="4.26694">
        <ele>156.44</ele>
        <time>2018-09-21T17:56:45Z</time>
      </trkpt>
      <trkpt lat="44.48381" lon="4.26666">
        <ele>155.19</ele>
        <time>2018-09-21T17:56:49Z</time>
      </trkpt>
      <trkpt lat="44.4838" lon="4.26636">
        <ele>155.16</ele>
        <time>2018-09-21T17:56:53Z</time>
      </trkpt>
      <trkpt lat="44.48386" lon="4.26601">
        <ele>155.16</ele>
        <time>2018-09-21T17:56:56Z</time>
      </trkpt>
      <trkpt lat="44.48388" lon="4.26569">
        <ele>155.16</ele>
        <time>2018-09-21T17:56:58Z</time>
      </trkpt>
      <trkpt lat="44.48388" lon="4.26532">
        <ele>154.95</ele>
        <time>2018-09-21T17:57:00Z</time>
      </trkpt>
      <trkpt lat="44.4839" lon="4.26494">
        <ele>152.83</ele>
        <time>2018-09-21T17:57:02Z</time>
      </trkpt>
      <trkpt lat="44.48396" lon="4.26457">
        <ele>151.31</ele>
        <time>2018-09-21T17:57:04Z</time>
      </trkpt>
      <trkpt lat="44.48405" lon="4.26424">
        <ele>151.17</ele>
        <time>2018-09-21T17:57:06Z</time>
      </trkpt>
      <trkpt lat="44.48417" lon="4.26395">
        <ele>151.16</ele>
        <time>2018-09-21T17:57:08Z</time>
      </trkpt>
      <trkpt lat="44.48437" lon="4.26364">
        <ele>150.25</ele>
        <time>2018-09-21T17:57:10Z</time>
      </trkpt>
      <trkpt lat="44.4846" lon="4.26328">
        <ele>149.26</ele>
        <time>2018-09-21T17:57:12Z</time>
      </trkpt>
      <trkpt lat="44.4848" lon="4.26297">
        <ele>149.17</ele>
        <time>2018-09-21T17:57:14Z</time>
      </trkpt>
      <trkpt lat="44.48496" lon="4.26268">
        <ele>149.16</ele>
        <time>2018-09-21T17:57:16Z</time>
      </trkpt>
      <trkpt lat="44.48508" lon="4.2624">
        <ele>149.86</ele>
        <time>2018-09-21T17:57:18Z</time>
      </trkpt>
      <trkpt lat="44.48519" lon="4.26207">
        <ele>149.43</ele>
        <time>2018-09-21T17:57:20Z</time>
      </trkpt>
      <trkpt lat="44.48521" lon="4.26181">
        <ele>149.24</ele>
        <time>2018-09-21T17:57:21Z</time>
      </trkpt>
      <trkpt lat="44.48524" lon="4.26148">
        <ele>150.77</ele>
        <time>2018-09-21T17:57:23Z</time>
      </trkpt>
      <trkpt lat="44.48524" lon="4.26118">
        <ele>151.82</ele>
        <time>2018-09-21T17:57:25Z</time>
      </trkpt>
      <trkpt lat="44.48521" lon="4.26087">
        <ele>152.13</ele>
        <time>2018-09-21T17:57:27Z</time>
      </trkpt>
      <trkpt lat="44.48514" lon="4.26061">
        <ele>152.15</ele>
        <time>2018-09-21T17:57:29Z</time>
      </trkpt>
      <trkpt lat="44.48503" lon="4.26034">
        <ele>151.95</ele>
        <time>2018-09-21T17:57:31Z</time>
      </trkpt>
      <trkpt lat="44.48492" lon="4.26005">
        <ele>152.84</ele>
        <time>2018-09-21T17:57:33Z</time>
      </trkpt>
      <trkpt lat="44.48482" lon="4.25979">
        <ele>153.13</ele>
        <time>2018-09-21T17:57:35Z</time>
      </trkpt>
      <trkpt lat="44.48473" lon="4.25954">
        <ele>153.15</ele>
        <time>2018-09-21T17:57:37Z</time>
      </trkpt>
      <trkpt lat="44.48463" lon="4.2593">
        <ele>153.16</ele>
        <time>2018-09-21T17:57:39Z</time>
      </trkpt>
      <trkpt lat="44.48452" lon="4.25906">
        <ele>153.16</ele>
        <time>2018-09-21T17:57:41Z</time>
      </trkpt>
      <trkpt lat="44.4844" lon="4.2588">
        <ele>153.86</ele>
        <time>2018-09-21T17:57:43Z</time>
      </trkpt>
      <trkpt lat="44.48428" lon="4.25851">
        <ele>153.43</ele>
        <time>2018-09-21T17:57:45Z</time>
      </trkpt>
      <trkpt lat="44.48417" lon="4.25825">
        <ele>152.27</ele>
        <time>2018-09-21T17:57:47Z</time>
      </trkpt>
      <trkpt lat="44.48405" lon="4.25801">
        <ele>152.87</ele>
        <time>2018-09-21T17:57:49Z</time>
      </trkpt>
      <trkpt lat="44.48388" lon="4.25772">
        <ele>153.83</ele>
        <time>2018-09-21T17:57:51Z</time>
      </trkpt>
      <trkpt lat="44.48369" lon="4.25742">
        <ele>155.74</ele>
        <time>2018-09-21T17:57:53Z</time>
      </trkpt>
      <trkpt lat="44.48347" lon="4.25717">
        <ele>155.21</ele>
        <time>2018-09-21T17:57:55Z</time>
      </trkpt>
      <trkpt lat="44.48326" lon="4.25691">
        <ele>154.25</ele>
        <time>2018-09-21T17:57:57Z</time>
      </trkpt>
      <trkpt lat="44.48307" lon="4.25664">
        <ele>154.17</ele>
        <time>2018-09-21T17:57:59Z</time>
      </trkpt>
      <trkpt lat="44.48293" lon="4.2563">
        <ele>154.86</ele>
        <time>2018-09-21T17:58:01Z</time>
      </trkpt>
      <trkpt lat="44.48279" lon="4.25598">
        <ele>155.13</ele>
        <time>2018-09-21T17:58:03Z</time>
      </trkpt>
      <trkpt lat="44.48268" lon="4.25565">
        <ele>154.24</ele>
        <time>2018-09-21T17:58:05Z</time>
      </trkpt>
      <trkpt lat="44.48259" lon="4.25531">
        <ele>153.25</ele>
        <time>2018-09-21T17:58:07Z</time>
      </trkpt>
      <trkpt lat="44.48247" lon="4.25501">
        <ele>152.96</ele>
        <time>2018-09-21T17:58:09Z</time>
      </trkpt>
      <trkpt lat="44.48233" lon="4.25473">
        <ele>153.14</ele>
        <time>2018-09-21T17:58:11Z</time>
      </trkpt>
      <trkpt lat="44.48221" lon="4.2544">
        <ele>150.85</ele>
        <time>2018-09-21T17:58:13Z</time>
      </trkpt>
      <trkpt lat="44.48208" lon="4.25408">
        <ele>149.52</ele>
        <time>2018-09-21T17:58:15Z</time>
      </trkpt>
      <trkpt lat="44.48195" lon="4.25374">
        <ele>150.1</ele>
        <time>2018-09-21T17:58:17Z</time>
      </trkpt>
      <trkpt lat="44.48188" lon="4.25334">
        <ele>149.24</ele>
        <time>2018-09-21T17:58:19Z</time>
      </trkpt>
      <trkpt lat="44.48181" lon="4.25295">
        <ele>149.16</ele>
        <time>2018-09-21T17:58:21Z</time>
      </trkpt>
      <trkpt lat="44.48178" lon="4.25258">
        <ele>148.25</ele>
        <time>2018-09-21T17:58:23Z</time>
      </trkpt>
      <trkpt lat="44.48176" lon="4.25227">
        <ele>147.47</ele>
        <time>2018-09-21T17:58:25Z</time>
      </trkpt>
      <trkpt lat="44.48173" lon="4.25198">
        <ele>147.39</ele>
        <time>2018-09-21T17:58:27Z</time>
      </trkpt>
      <trkpt lat="44.48166" lon="4.25171">
        <ele>148.09</ele>
        <time>2018-09-21T17:58:29Z</time>
      </trkpt>
      <trkpt lat="44.48156" lon="4.25145">
        <ele>147.66</ele>
        <time>2018-09-21T17:58:31Z</time>
      </trkpt>
      <trkpt lat="44.48137" lon="4.2512">
        <ele>147.9</ele>
        <time>2018-09-21T17:58:33Z</time>
      </trkpt>
      <trkpt lat="44.48121" lon="4.25095">
        <ele>148.34</ele>
        <time>2018-09-21T17:58:35Z</time>
      </trkpt>
      <trkpt lat="44.48107" lon="4.25066">
        <ele>148.17</ele>
        <time>2018-09-21T17:58:37Z</time>
      </trkpt>
      <trkpt lat="44.48093" lon="4.2504">
        <ele>146.55</ele>
        <time>2018-09-21T17:58:39Z</time>
      </trkpt>
      <trkpt lat="44.48081" lon="4.25013">
        <ele>147.59</ele>
        <time>2018-09-21T17:58:41Z</time>
      </trkpt>
      <trkpt lat="44.48067" lon="4.24986">
        <ele>146.07</ele>
        <time>2018-09-21T17:58:43Z</time>
      </trkpt>
      <trkpt lat="44.48054" lon="4.24956">
        <ele>144.81</ele>
        <time>2018-09-21T17:58:45Z</time>
      </trkpt>
      <trkpt lat="44.48037" lon="4.24922">
        <ele>144.7</ele>
        <time>2018-09-21T17:58:47Z</time>
      </trkpt>
      <trkpt lat="44.48022" lon="4.24887">
        <ele>144.69</ele>
        <time>2018-09-21T17:58:49Z</time>
      </trkpt>
      <trkpt lat="44.48006" lon="4.2485">
        <ele>145.6</ele>
        <time>2018-09-21T17:58:51Z</time>
      </trkpt>
      <trkpt lat="44.47995" lon="4.24812">
        <ele>145.47</ele>
        <time>2018-09-21T17:58:53Z</time>
      </trkpt>
      <trkpt lat="44.47988" lon="4.24779">
        <ele>145.46</ele>
        <time>2018-09-21T17:58:55Z</time>
      </trkpt>
      <trkpt lat="44.47981" lon="4.2475">
        <ele>145.46</ele>
        <time>2018-09-21T17:58:57Z</time>
      </trkpt>
      <trkpt lat="44.47965" lon="4.24722">
        <ele>145.68</ele>
        <time>2018-09-21T17:59:00Z</time>
      </trkpt>
      <trkpt lat="44.47955" lon="4.24694">
        <ele>145.96</ele>
        <time>2018-09-21T17:59:03Z</time>
      </trkpt>
      <trkpt lat="44.47952" lon="4.24663">
        <ele>145.82</ele>
        <time>2018-09-21T17:59:06Z</time>
      </trkpt>
      <trkpt lat="44.47969" lon="4.24643">
        <ele>146.39</ele>
        <time>2018-09-21T17:59:09Z</time>
      </trkpt>
      <trkpt lat="44.47981" lon="4.24618">
        <ele>146.68</ele>
        <time>2018-09-21T17:59:12Z</time>
      </trkpt>
      <trkpt lat="44.47984" lon="4.24589">
        <ele>146.99</ele>
        <time>2018-09-21T17:59:17Z</time>
      </trkpt>
      <trkpt lat="44.4798" lon="4.24557">
        <ele>145.99</ele>
        <time>2018-09-21T17:59:21Z</time>
      </trkpt>
      <trkpt lat="44.4798" lon="4.24524">
        <ele>145.9</ele>
        <time>2018-09-21T17:59:25Z</time>
      </trkpt>
      <trkpt lat="44.47985" lon="4.24497">
        <ele>148.42</ele>
        <time>2018-09-21T17:59:29Z</time>
      </trkpt>
      <trkpt lat="44.47994" lon="4.24474">
        <ele>149.2</ele>
        <time>2018-09-21T17:59:36Z</time>
      </trkpt>
      <trkpt lat="44.47991" lon="4.24504">
        <ele>141.97</ele>
        <time>2018-09-21T17:59:55Z</time>
      </trkpt>
      <trkpt lat="44.47998" lon="4.2453">
        <ele>145.64</ele>
        <time>2018-09-21T18:00:00Z</time>
      </trkpt>
    </trkseg>
  </trk>
</gpx>